<?xml version="1.0"?>
<gpx
 version="1.1"
 creator="Satmap Active 20"
 xmlns:xsi="http://www.w3.org/2001/XMLSchema-instance"
 xmlns="http://www.topografix.com/GPX/1/1"
 xmlns:satmap="http://www.satmap.com/updates/xmlschemas/GpxExtensions/v2/GpxExtensions_v2.xsd"
 xsi:schemaLocation="http://www.topografix.com/GPX/1/1 http://www.topografix.com/GPX/1/1/gpx.xsd">
<metadata>
<time>2022-03-30T09:53:56Z</time>
<extensions>
<satmap:platform>43</satmap:platform>
<satmap:software version="3.12.831">SM15.exe</satmap:software>
<satmap:username>Jim Grant</satmap:username>
<satmap:network_ids>
<satmap:network_id type="wifi">00-23-A7-EC-D5-78</satmap:network_id>
<satmap:network_id type="bluetooth">80-BB-EB-D7-5B-7C</satmap:network_id>
</satmap:network_ids>
<satmap:snap_type>simple</satmap:snap_type>
</extensions>
</metadata>
<trk>
<name>2022-03-30_0954</name>
<desc>Track 1</desc>
<number>1</number>
<trkseg>
<trkpt lat="54.467528" lon="-3.256707"><ele>81</ele><time>2022-03-30T09:53:56Z</time><name>PT1</name></trkpt>
<trkpt lat="54.467532" lon="-3.256710"><ele>81</ele><time>2022-03-30T09:54:24Z</time><name>PT2</name></trkpt>
<trkpt lat="54.467540" lon="-3.256717"><ele>81</ele><time>2022-03-30T09:54:26Z</time><name>PT3</name></trkpt>
<trkpt lat="54.467539" lon="-3.256718"><ele>81</ele><time>2022-03-30T09:54:26Z</time><name>PT4</name></trkpt>
<trkpt lat="54.467536" lon="-3.256706"><ele>82</ele><time>2022-03-30T09:54:27Z</time><name>PT5</name></trkpt>
<trkpt lat="54.467538" lon="-3.256707"><ele>82</ele><time>2022-03-30T09:54:29Z</time><name>PT6</name></trkpt>
<trkpt lat="54.467536" lon="-3.256712"><ele>82</ele><time>2022-03-30T09:54:29Z</time><name>PT7</name></trkpt>
<trkpt lat="54.467535" lon="-3.256708"><ele>82</ele><time>2022-03-30T09:54:30Z</time><name>PT8</name></trkpt>
<trkpt lat="54.467533" lon="-3.256704"><ele>82</ele><time>2022-03-30T09:54:32Z</time><name>PT9</name></trkpt>
<trkpt lat="54.467533" lon="-3.256701"><ele>82</ele><time>2022-03-30T09:54:32Z</time><name>PT10</name></trkpt>
<trkpt lat="54.467530" lon="-3.256699"><ele>82</ele><time>2022-03-30T09:54:33Z</time><name>PT11</name></trkpt>
<trkpt lat="54.467527" lon="-3.256699"><ele>82</ele><time>2022-03-30T09:54:35Z</time><name>PT12</name></trkpt>
<trkpt lat="54.467529" lon="-3.256701"><ele>83</ele><time>2022-03-30T09:54:35Z</time><name>PT13</name></trkpt>
<trkpt lat="54.467540" lon="-3.256714"><ele>83</ele><time>2022-03-30T09:54:36Z</time><name>PT14</name></trkpt>
<trkpt lat="54.467565" lon="-3.256739"><ele>83</ele><time>2022-03-30T09:54:38Z</time><name>PT15</name></trkpt>
<trkpt lat="54.467598" lon="-3.256761"><ele>83</ele><time>2022-03-30T09:54:38Z</time><name>PT16</name></trkpt>
<trkpt lat="54.467606" lon="-3.256770"><ele>84</ele><time>2022-03-30T09:54:39Z</time><name>PT17</name></trkpt>
<trkpt lat="54.467613" lon="-3.256780"><ele>84</ele><time>2022-03-30T09:54:41Z</time><name>PT18</name></trkpt>
<trkpt lat="54.467619" lon="-3.256786"><ele>84</ele><time>2022-03-30T09:54:41Z</time><name>PT19</name></trkpt>
<trkpt lat="54.467623" lon="-3.256770"><ele>84</ele><time>2022-03-30T09:54:42Z</time><name>PT20</name></trkpt>
<trkpt lat="54.467634" lon="-3.256774"><ele>85</ele><time>2022-03-30T09:54:44Z</time><name>PT21</name></trkpt>
<trkpt lat="54.467636" lon="-3.256764"><ele>85</ele><time>2022-03-30T09:54:44Z</time><name>PT22</name></trkpt>
<trkpt lat="54.467648" lon="-3.256737"><ele>85</ele><time>2022-03-30T09:54:45Z</time><name>PT23</name></trkpt>
<trkpt lat="54.467658" lon="-3.256738"><ele>85</ele><time>2022-03-30T09:54:46Z</time><name>PT24</name></trkpt>
<trkpt lat="54.467668" lon="-3.256738"><ele>85</ele><time>2022-03-30T09:54:47Z</time><name>PT25</name></trkpt>
<trkpt lat="54.467643" lon="-3.256707"><ele>85</ele><time>2022-03-30T09:54:48Z</time><name>PT26</name></trkpt>
<trkpt lat="54.467652" lon="-3.256706"><ele>85</ele><time>2022-03-30T09:54:50Z</time><name>PT27</name></trkpt>
<trkpt lat="54.467652" lon="-3.256697"><ele>85</ele><time>2022-03-30T09:54:50Z</time><name>PT28</name></trkpt>
<trkpt lat="54.467617" lon="-3.256692"><ele>86</ele><time>2022-03-30T09:54:51Z</time><name>PT29</name></trkpt>
<trkpt lat="54.467616" lon="-3.256688"><ele>86</ele><time>2022-03-30T09:54:53Z</time><name>PT30</name></trkpt>
<trkpt lat="54.467615" lon="-3.256677"><ele>86</ele><time>2022-03-30T09:54:53Z</time><name>PT31</name></trkpt>
<trkpt lat="54.467577" lon="-3.256692"><ele>84</ele><time>2022-03-30T09:54:54Z</time><name>PT32</name></trkpt>
<trkpt lat="54.467577" lon="-3.256693"><ele>85</ele><time>2022-03-30T09:54:56Z</time><name>PT33</name></trkpt>
<trkpt lat="54.467582" lon="-3.256699"><ele>85</ele><time>2022-03-30T09:54:56Z</time><name>PT34</name></trkpt>
<trkpt lat="54.467557" lon="-3.256664"><ele>86</ele><time>2022-03-30T09:54:57Z</time><name>PT35</name></trkpt>
<trkpt lat="54.467562" lon="-3.256666"><ele>86</ele><time>2022-03-30T09:54:59Z</time><name>PT36</name></trkpt>
<trkpt lat="54.467563" lon="-3.256664"><ele>86</ele><time>2022-03-30T09:54:59Z</time><name>PT37</name></trkpt>
<trkpt lat="54.467505" lon="-3.256614"><ele>86</ele><time>2022-03-30T09:55:00Z</time><name>PT38</name></trkpt>
<trkpt lat="54.467500" lon="-3.256608"><ele>87</ele><time>2022-03-30T09:55:02Z</time><name>PT39</name></trkpt>
<trkpt lat="54.467491" lon="-3.256598"><ele>87</ele><time>2022-03-30T09:55:02Z</time><name>PT40</name></trkpt>
<trkpt lat="54.467531" lon="-3.256626"><ele>89</ele><time>2022-03-30T09:55:03Z</time><name>PT41</name></trkpt>
<trkpt lat="54.467534" lon="-3.256632"><ele>89</ele><time>2022-03-30T09:55:05Z</time><name>PT42</name></trkpt>
<trkpt lat="54.467538" lon="-3.256642"><ele>90</ele><time>2022-03-30T09:55:05Z</time><name>PT43</name></trkpt></trkseg>
<trkseg>
<trkpt lat="54.467854" lon="-3.256969"><ele>82</ele><time>2022-03-30T09:55:23Z</time><name>PT44</name></trkpt>
<trkpt lat="54.467879" lon="-3.256994"><ele>81</ele><time>2022-03-30T09:55:23Z</time><name>PT45</name></trkpt>
<trkpt lat="54.467889" lon="-3.256995"><ele>81</ele><time>2022-03-30T09:55:24Z</time><name>PT46</name></trkpt>
<trkpt lat="54.467894" lon="-3.257012"><ele>81</ele><time>2022-03-30T09:55:26Z</time><name>PT47</name></trkpt>
<trkpt lat="54.467923" lon="-3.256982"><ele>81</ele><time>2022-03-30T09:55:26Z</time><name>PT48</name></trkpt>
<trkpt lat="54.467920" lon="-3.256993"><ele>82</ele><time>2022-03-30T09:55:27Z</time><name>PT49</name></trkpt>
<trkpt lat="54.467978" lon="-3.257020"><ele>82</ele><time>2022-03-30T09:55:29Z</time><name>PT50</name></trkpt>
<trkpt lat="54.467978" lon="-3.257049"><ele>82</ele><time>2022-03-30T09:55:29Z</time><name>PT51</name></trkpt>
<trkpt lat="54.468009" lon="-3.257020"><ele>82</ele><time>2022-03-30T09:55:30Z</time><name>PT52</name></trkpt>
<trkpt lat="54.468027" lon="-3.257018"><ele>82</ele><time>2022-03-30T09:55:32Z</time><name>PT53</name></trkpt>
<trkpt lat="54.468046" lon="-3.257039"><ele>82</ele><time>2022-03-30T09:55:32Z</time><name>PT54</name></trkpt>
<trkpt lat="54.468057" lon="-3.257050"><ele>81</ele><time>2022-03-30T09:55:33Z</time><name>PT55</name></trkpt>
<trkpt lat="54.468069" lon="-3.257028"><ele>81</ele><time>2022-03-30T09:55:35Z</time><name>PT56</name></trkpt>
<trkpt lat="54.468092" lon="-3.257025"><ele>81</ele><time>2022-03-30T09:55:35Z</time><name>PT57</name></trkpt>
<trkpt lat="54.468124" lon="-3.256945"><ele>80</ele><time>2022-03-30T09:55:36Z</time><name>PT58</name></trkpt>
<trkpt lat="54.468138" lon="-3.256973"><ele>81</ele><time>2022-03-30T09:55:38Z</time><name>PT59</name></trkpt>
<trkpt lat="54.468152" lon="-3.256966"><ele>80</ele><time>2022-03-30T09:55:38Z</time><name>PT60</name></trkpt>
<trkpt lat="54.468167" lon="-3.256994"><ele>81</ele><time>2022-03-30T09:55:39Z</time><name>PT61</name></trkpt>
<trkpt lat="54.468187" lon="-3.256995"><ele>81</ele><time>2022-03-30T09:55:41Z</time><name>PT62</name></trkpt>
<trkpt lat="54.468195" lon="-3.256985"><ele>81</ele><time>2022-03-30T09:55:41Z</time><name>PT63</name></trkpt>
<trkpt lat="54.468063" lon="-3.256878"><ele>82</ele><time>2022-03-30T09:55:42Z</time><name>PT64</name></trkpt>
<trkpt lat="54.467877" lon="-3.256852"><ele>80</ele><time>2022-03-30T09:55:44Z</time><name>PT65</name></trkpt>
<trkpt lat="54.467834" lon="-3.256853"><ele>79</ele><time>2022-03-30T09:55:44Z</time><name>PT66</name></trkpt>
<trkpt lat="54.467853" lon="-3.257005"><ele>79</ele><time>2022-03-30T09:55:45Z</time><name>PT67</name></trkpt>
<trkpt lat="54.467854" lon="-3.257017"><ele>79</ele><time>2022-03-30T09:55:47Z</time><name>PT68</name></trkpt>
<trkpt lat="54.467854" lon="-3.257022"><ele>78</ele><time>2022-03-30T09:55:47Z</time><name>PT69</name></trkpt>
<trkpt lat="54.467823" lon="-3.257011"><ele>79</ele><time>2022-03-30T09:55:50Z</time><name>PT70</name></trkpt>
<trkpt lat="54.467802" lon="-3.257029"><ele>80</ele><time>2022-03-30T09:55:50Z</time><name>PT71</name></trkpt>
<trkpt lat="54.467813" lon="-3.257098"><ele>77</ele><time>2022-03-30T09:55:51Z</time><name>PT72</name></trkpt>
<trkpt lat="54.467796" lon="-3.257109"><ele>77</ele><time>2022-03-30T09:55:53Z</time><name>PT73</name></trkpt>
<trkpt lat="54.467792" lon="-3.257118"><ele>77</ele><time>2022-03-30T09:55:53Z</time><name>PT74</name></trkpt>
<trkpt lat="54.467776" lon="-3.257147"><ele>80</ele><time>2022-03-30T09:55:54Z</time><name>PT75</name></trkpt>
<trkpt lat="54.467777" lon="-3.257171"><ele>80</ele><time>2022-03-30T09:55:56Z</time><name>PT76</name></trkpt>
<trkpt lat="54.467776" lon="-3.257187"><ele>80</ele><time>2022-03-30T09:55:56Z</time><name>PT77</name></trkpt>
<trkpt lat="54.467743" lon="-3.257264"><ele>84</ele><time>2022-03-30T09:55:57Z</time><name>PT78</name></trkpt>
<trkpt lat="54.467739" lon="-3.257282"><ele>84</ele><time>2022-03-30T09:55:59Z</time><name>PT79</name></trkpt>
<trkpt lat="54.467735" lon="-3.257300"><ele>84</ele><time>2022-03-30T09:55:59Z</time><name>PT80</name></trkpt>
<trkpt lat="54.467711" lon="-3.257230"><ele>82</ele><time>2022-03-30T09:56:00Z</time><name>PT81</name></trkpt>
<trkpt lat="54.467711" lon="-3.257295"><ele>83</ele><time>2022-03-30T09:56:02Z</time><name>PT82</name></trkpt>
<trkpt lat="54.467707" lon="-3.257244"><ele>83</ele><time>2022-03-30T09:56:02Z</time><name>PT83</name></trkpt>
<trkpt lat="54.467693" lon="-3.257212"><ele>83</ele><time>2022-03-30T09:56:03Z</time><name>PT84</name></trkpt>
<trkpt lat="54.467682" lon="-3.257205"><ele>83</ele><time>2022-03-30T09:56:05Z</time><name>PT85</name></trkpt>
<trkpt lat="54.467678" lon="-3.257211"><ele>83</ele><time>2022-03-30T09:56:05Z</time><name>PT86</name></trkpt>
<trkpt lat="54.467686" lon="-3.257199"><ele>82</ele><time>2022-03-30T09:56:06Z</time><name>PT87</name></trkpt>
<trkpt lat="54.467679" lon="-3.257206"><ele>83</ele><time>2022-03-30T09:56:08Z</time><name>PT88</name></trkpt>
<trkpt lat="54.467687" lon="-3.257229"><ele>83</ele><time>2022-03-30T09:56:08Z</time><name>PT89</name></trkpt>
<trkpt lat="54.467709" lon="-3.257247"><ele>82</ele><time>2022-03-30T09:56:09Z</time><name>PT90</name></trkpt>
<trkpt lat="54.467680" lon="-3.257279"><ele>82</ele><time>2022-03-30T09:56:18Z</time><name>PT91</name></trkpt>
<trkpt lat="54.467684" lon="-3.257264"><ele>81</ele><time>2022-03-30T09:56:20Z</time><name>PT92</name></trkpt>
<trkpt lat="54.467710" lon="-3.257271"><ele>79</ele><time>2022-03-30T09:56:23Z</time><name>PT93</name></trkpt>
<trkpt lat="54.467713" lon="-3.257267"><ele>77</ele><time>2022-03-30T09:56:29Z</time><name>PT94</name></trkpt>
<trkpt lat="54.467714" lon="-3.257253"><ele>76</ele><time>2022-03-30T09:56:29Z</time><name>PT95</name></trkpt>
<trkpt lat="54.467720" lon="-3.257235"><ele>74</ele><time>2022-03-30T09:56:41Z</time><name>PT96</name></trkpt>
<trkpt lat="54.467693" lon="-3.257216"><ele>72</ele><time>2022-03-30T09:56:42Z</time><name>PT97</name></trkpt>
<trkpt lat="54.467696" lon="-3.257197"><ele>71</ele><time>2022-03-30T09:56:44Z</time><name>PT98</name></trkpt>
<trkpt lat="54.467698" lon="-3.257176"><ele>70</ele><time>2022-03-30T09:56:44Z</time><name>PT99</name></trkpt>
<trkpt lat="54.467677" lon="-3.257241"><ele>67</ele><time>2022-03-30T09:57:23Z</time><name>PT100</name></trkpt>
<trkpt lat="54.467676" lon="-3.257244"><ele>66</ele><time>2022-03-30T09:57:23Z</time><name>PT101</name></trkpt>
<trkpt lat="54.467606" lon="-3.257298"><ele>70</ele><time>2022-03-30T09:57:24Z</time><name>PT102</name></trkpt>
<trkpt lat="54.467604" lon="-3.257321"><ele>69</ele><time>2022-03-30T09:57:26Z</time><name>PT103</name></trkpt>
<trkpt lat="54.467601" lon="-3.257339"><ele>68</ele><time>2022-03-30T09:57:26Z</time><name>PT104</name></trkpt>
<trkpt lat="54.467578" lon="-3.257343"><ele>67</ele><time>2022-03-30T09:57:27Z</time><name>PT105</name></trkpt>
<trkpt lat="54.467577" lon="-3.257354"><ele>67</ele><time>2022-03-30T09:57:29Z</time><name>PT106</name></trkpt>
<trkpt lat="54.467607" lon="-3.257347"><ele>62</ele><time>2022-03-30T09:57:29Z</time><name>PT107</name></trkpt>
<trkpt lat="54.467578" lon="-3.257366"><ele>58</ele><time>2022-03-30T09:57:30Z</time><name>PT108</name></trkpt>
<trkpt lat="54.467612" lon="-3.257361"><ele>55</ele><time>2022-03-30T09:57:32Z</time><name>PT109</name></trkpt>
<trkpt lat="54.467670" lon="-3.257337"><ele>53</ele><time>2022-03-30T09:57:32Z</time><name>PT110</name></trkpt>
<trkpt lat="54.467720" lon="-3.257390"><ele>51</ele><time>2022-03-30T09:57:33Z</time><name>PT111</name></trkpt>
<trkpt lat="54.467764" lon="-3.257397"><ele>49</ele><time>2022-03-30T09:57:35Z</time><name>PT112</name></trkpt>
<trkpt lat="54.467798" lon="-3.257369"><ele>48</ele><time>2022-03-30T09:57:35Z</time><name>PT113</name></trkpt>
<trkpt lat="54.467776" lon="-3.257383"><ele>46</ele><time>2022-03-30T09:57:36Z</time><name>PT114</name></trkpt></trkseg>
<trkseg>
<trkpt lat="54.467897" lon="-3.257492"><ele>46</ele><time>2022-03-30T09:57:44Z</time><name>PT115</name></trkpt></trkseg>
<trkseg>
<trkpt lat="54.467883" lon="-3.257552"><ele>50</ele><time>2022-03-30T09:57:48Z</time><name>PT116</name></trkpt>
<trkpt lat="54.467885" lon="-3.257525"><ele>50</ele><time>2022-03-30T09:57:50Z</time><name>PT117</name></trkpt></trkseg>
<trkseg>
<trkpt lat="54.467917" lon="-3.257525"><ele>48</ele><time>2022-03-30T09:57:51Z</time><name>PT118</name></trkpt>
<trkpt lat="54.467924" lon="-3.257544"><ele>48</ele><time>2022-03-30T09:57:53Z</time><name>PT119</name></trkpt>
<trkpt lat="54.467924" lon="-3.257534"><ele>48</ele><time>2022-03-30T09:57:53Z</time><name>PT120</name></trkpt></trkseg>
<trkseg>
<trkpt lat="54.467787" lon="-3.257349"><ele>57</ele><time>2022-03-30T09:59:57Z</time><name>PT121</name></trkpt>
<trkpt lat="54.467667" lon="-3.256796"><ele>74</ele><time>2022-03-30T10:00:00Z</time><name>PT122</name></trkpt>
<trkpt lat="54.467568" lon="-3.256791"><ele>71</ele><time>2022-03-30T10:00:03Z</time><name>PT123</name></trkpt>
<trkpt lat="54.467534" lon="-3.256689"><ele>76</ele><time>2022-03-30T10:00:08Z</time><name>PT124</name></trkpt>
<trkpt lat="54.467539" lon="-3.256636"><ele>78</ele><time>2022-03-30T10:00:32Z</time><name>PT125</name></trkpt>
<trkpt lat="54.467567" lon="-3.256613"><ele>77</ele><time>2022-03-30T10:00:35Z</time><name>PT126</name></trkpt>
<trkpt lat="54.467603" lon="-3.256606"><ele>77</ele><time>2022-03-30T10:00:39Z</time><name>PT127</name></trkpt>
<trkpt lat="54.467622" lon="-3.256583"><ele>78</ele><time>2022-03-30T10:00:44Z</time><name>PT128</name></trkpt>
<trkpt lat="54.467634" lon="-3.256606"><ele>78</ele><time>2022-03-30T10:00:47Z</time><name>PT129</name></trkpt>
<trkpt lat="54.467637" lon="-3.256626"><ele>78</ele><time>2022-03-30T10:00:50Z</time><name>PT130</name></trkpt>
<trkpt lat="54.467646" lon="-3.256657"><ele>78</ele><time>2022-03-30T10:00:53Z</time><name>PT131</name></trkpt>
<trkpt lat="54.467653" lon="-3.256715"><ele>78</ele><time>2022-03-30T10:00:56Z</time><name>PT132</name></trkpt>
<trkpt lat="54.467664" lon="-3.256739"><ele>78</ele><time>2022-03-30T10:00:59Z</time><name>PT133</name></trkpt>
<trkpt lat="54.467677" lon="-3.256764"><ele>78</ele><time>2022-03-30T10:01:02Z</time><name>PT134</name></trkpt>
<trkpt lat="54.467688" lon="-3.256764"><ele>78</ele><time>2022-03-30T10:01:05Z</time><name>PT135</name></trkpt>
<trkpt lat="54.467701" lon="-3.256758"><ele>75</ele><time>2022-03-30T10:01:12Z</time><name>PT136</name></trkpt>
<trkpt lat="54.467714" lon="-3.256769"><ele>74</ele><time>2022-03-30T10:01:17Z</time><name>PT137</name></trkpt>
<trkpt lat="54.467746" lon="-3.256780"><ele>72</ele><time>2022-03-30T10:01:20Z</time><name>PT138</name></trkpt>
<trkpt lat="54.467752" lon="-3.256780"><ele>72</ele><time>2022-03-30T10:01:23Z</time><name>PT139</name></trkpt>
<trkpt lat="54.467772" lon="-3.256781"><ele>72</ele><time>2022-03-30T10:01:27Z</time><name>PT140</name></trkpt>
<trkpt lat="54.467798" lon="-3.256780"><ele>70</ele><time>2022-03-30T10:01:30Z</time><name>PT141</name></trkpt>
<trkpt lat="54.467809" lon="-3.256763"><ele>70</ele><time>2022-03-30T10:01:35Z</time><name>PT142</name></trkpt>
<trkpt lat="54.467875" lon="-3.256718"><ele>69</ele><time>2022-03-30T10:01:38Z</time><name>PT143</name></trkpt>
<trkpt lat="54.467890" lon="-3.256710"><ele>69</ele><time>2022-03-30T10:01:40Z</time><name>PT144</name></trkpt>
<trkpt lat="54.467895" lon="-3.256706"><ele>68</ele><time>2022-03-30T10:01:41Z</time><name>PT145</name></trkpt>
<trkpt lat="54.467919" lon="-3.256711"><ele>68</ele><time>2022-03-30T10:01:41Z</time><name>PT146</name></trkpt>
<trkpt lat="54.467932" lon="-3.256717"><ele>68</ele><time>2022-03-30T10:01:42Z</time><name>PT147</name></trkpt>
<trkpt lat="54.467947" lon="-3.256723"><ele>68</ele><time>2022-03-30T10:01:44Z</time><name>PT148</name></trkpt>
<trkpt lat="54.467961" lon="-3.256715"><ele>68</ele><time>2022-03-30T10:01:44Z</time><name>PT149</name></trkpt>
<trkpt lat="54.467971" lon="-3.256708"><ele>68</ele><time>2022-03-30T10:01:45Z</time><name>PT150</name></trkpt>
<trkpt lat="54.467980" lon="-3.256710"><ele>68</ele><time>2022-03-30T10:01:47Z</time><name>PT151</name></trkpt>
<trkpt lat="54.467987" lon="-3.256713"><ele>68</ele><time>2022-03-30T10:01:47Z</time><name>PT152</name></trkpt>
<trkpt lat="54.467995" lon="-3.256712"><ele>68</ele><time>2022-03-30T10:01:48Z</time><name>PT153</name></trkpt>
<trkpt lat="54.468001" lon="-3.256708"><ele>67</ele><time>2022-03-30T10:01:50Z</time><name>PT154</name></trkpt>
<trkpt lat="54.468007" lon="-3.256700"><ele>67</ele><time>2022-03-30T10:01:50Z</time><name>PT155</name></trkpt>
<trkpt lat="54.468016" lon="-3.256693"><ele>67</ele><time>2022-03-30T10:01:51Z</time><name>PT156</name></trkpt>
<trkpt lat="54.468024" lon="-3.256684"><ele>67</ele><time>2022-03-30T10:01:53Z</time><name>PT157</name></trkpt>
<trkpt lat="54.468035" lon="-3.256677"><ele>68</ele><time>2022-03-30T10:01:53Z</time><name>PT158</name></trkpt>
<trkpt lat="54.468045" lon="-3.256672"><ele>68</ele><time>2022-03-30T10:01:54Z</time><name>PT159</name></trkpt>
<trkpt lat="54.468055" lon="-3.256667"><ele>68</ele><time>2022-03-30T10:01:56Z</time><name>PT160</name></trkpt>
<trkpt lat="54.468066" lon="-3.256665"><ele>68</ele><time>2022-03-30T10:01:56Z</time><name>PT161</name></trkpt>
<trkpt lat="54.468071" lon="-3.256661"><ele>68</ele><time>2022-03-30T10:01:57Z</time><name>PT162</name></trkpt>
<trkpt lat="54.468073" lon="-3.256658"><ele>68</ele><time>2022-03-30T10:01:59Z</time><name>PT163</name></trkpt>
<trkpt lat="54.468075" lon="-3.256654"><ele>68</ele><time>2022-03-30T10:01:59Z</time><name>PT164</name></trkpt>
<trkpt lat="54.468077" lon="-3.256651"><ele>69</ele><time>2022-03-30T10:02:00Z</time><name>PT165</name></trkpt>
<trkpt lat="54.468079" lon="-3.256650"><ele>69</ele><time>2022-03-30T10:02:08Z</time><name>PT166</name></trkpt>
<trkpt lat="54.468091" lon="-3.256635"><ele>69</ele><time>2022-03-30T10:02:08Z</time><name>PT167</name></trkpt>
<trkpt lat="54.468100" lon="-3.256618"><ele>69</ele><time>2022-03-30T10:02:09Z</time><name>PT168</name></trkpt>
<trkpt lat="54.468110" lon="-3.256615"><ele>70</ele><time>2022-03-30T10:02:11Z</time><name>PT169</name></trkpt>
<trkpt lat="54.468120" lon="-3.256603"><ele>70</ele><time>2022-03-30T10:02:11Z</time><name>PT170</name></trkpt>
<trkpt lat="54.468133" lon="-3.256596"><ele>70</ele><time>2022-03-30T10:02:12Z</time><name>PT171</name></trkpt>
<trkpt lat="54.468145" lon="-3.256590"><ele>70</ele><time>2022-03-30T10:02:14Z</time><name>PT172</name></trkpt>
<trkpt lat="54.468153" lon="-3.256591"><ele>70</ele><time>2022-03-30T10:02:14Z</time><name>PT173</name></trkpt>
<trkpt lat="54.468162" lon="-3.256592"><ele>70</ele><time>2022-03-30T10:02:15Z</time><name>PT174</name></trkpt>
<trkpt lat="54.468171" lon="-3.256594"><ele>70</ele><time>2022-03-30T10:02:17Z</time><name>PT175</name></trkpt>
<trkpt lat="54.468181" lon="-3.256588"><ele>70</ele><time>2022-03-30T10:02:17Z</time><name>PT176</name></trkpt>
<trkpt lat="54.468188" lon="-3.256585"><ele>70</ele><time>2022-03-30T10:02:18Z</time><name>PT177</name></trkpt>
<trkpt lat="54.468196" lon="-3.256578"><ele>71</ele><time>2022-03-30T10:02:20Z</time><name>PT178</name></trkpt>
<trkpt lat="54.468206" lon="-3.256575"><ele>71</ele><time>2022-03-30T10:02:20Z</time><name>PT179</name></trkpt>
<trkpt lat="54.468216" lon="-3.256568"><ele>72</ele><time>2022-03-30T10:02:21Z</time><name>PT180</name></trkpt>
<trkpt lat="54.468227" lon="-3.256563"><ele>72</ele><time>2022-03-30T10:02:23Z</time><name>PT181</name></trkpt>
<trkpt lat="54.468232" lon="-3.256553"><ele>72</ele><time>2022-03-30T10:02:23Z</time><name>PT182</name></trkpt>
<trkpt lat="54.468240" lon="-3.256547"><ele>73</ele><time>2022-03-30T10:02:24Z</time><name>PT183</name></trkpt>
<trkpt lat="54.468250" lon="-3.256544"><ele>73</ele><time>2022-03-30T10:02:26Z</time><name>PT184</name></trkpt>
<trkpt lat="54.468264" lon="-3.256540"><ele>74</ele><time>2022-03-30T10:02:26Z</time><name>PT185</name></trkpt>
<trkpt lat="54.468271" lon="-3.256537"><ele>74</ele><time>2022-03-30T10:02:27Z</time><name>PT186</name></trkpt>
<trkpt lat="54.468278" lon="-3.256532"><ele>74</ele><time>2022-03-30T10:02:29Z</time><name>PT187</name></trkpt>
<trkpt lat="54.468292" lon="-3.256518"><ele>74</ele><time>2022-03-30T10:02:29Z</time><name>PT188</name></trkpt>
<trkpt lat="54.468295" lon="-3.256509"><ele>73</ele><time>2022-03-30T10:02:30Z</time><name>PT189</name></trkpt>
<trkpt lat="54.468304" lon="-3.256504"><ele>73</ele><time>2022-03-30T10:02:32Z</time><name>PT190</name></trkpt>
<trkpt lat="54.468314" lon="-3.256504"><ele>73</ele><time>2022-03-30T10:02:32Z</time><name>PT191</name></trkpt>
<trkpt lat="54.468319" lon="-3.256498"><ele>72</ele><time>2022-03-30T10:02:33Z</time><name>PT192</name></trkpt>
<trkpt lat="54.468330" lon="-3.256495"><ele>72</ele><time>2022-03-30T10:02:35Z</time><name>PT193</name></trkpt>
<trkpt lat="54.468346" lon="-3.256493"><ele>73</ele><time>2022-03-30T10:02:35Z</time><name>PT194</name></trkpt>
<trkpt lat="54.468357" lon="-3.256489"><ele>73</ele><time>2022-03-30T10:02:36Z</time><name>PT195</name></trkpt>
<trkpt lat="54.468365" lon="-3.256484"><ele>73</ele><time>2022-03-30T10:02:38Z</time><name>PT196</name></trkpt>
<trkpt lat="54.468376" lon="-3.256483"><ele>73</ele><time>2022-03-30T10:02:38Z</time><name>PT197</name></trkpt>
<trkpt lat="54.468390" lon="-3.256481"><ele>73</ele><time>2022-03-30T10:02:39Z</time><name>PT198</name></trkpt>
<trkpt lat="54.468401" lon="-3.256480"><ele>73</ele><time>2022-03-30T10:02:41Z</time><name>PT199</name></trkpt>
<trkpt lat="54.468412" lon="-3.256477"><ele>73</ele><time>2022-03-30T10:02:41Z</time><name>PT200</name></trkpt>
<trkpt lat="54.468428" lon="-3.256481"><ele>73</ele><time>2022-03-30T10:02:42Z</time><name>PT201</name></trkpt>
<trkpt lat="54.468437" lon="-3.256477"><ele>74</ele><time>2022-03-30T10:02:44Z</time><name>PT202</name></trkpt>
<trkpt lat="54.468449" lon="-3.256471"><ele>74</ele><time>2022-03-30T10:02:44Z</time><name>PT203</name></trkpt>
<trkpt lat="54.468457" lon="-3.256463"><ele>73</ele><time>2022-03-30T10:02:45Z</time><name>PT204</name></trkpt>
<trkpt lat="54.468463" lon="-3.256451"><ele>73</ele><time>2022-03-30T10:02:47Z</time><name>PT205</name></trkpt>
<trkpt lat="54.468472" lon="-3.256442"><ele>73</ele><time>2022-03-30T10:02:47Z</time><name>PT206</name></trkpt>
<trkpt lat="54.468479" lon="-3.256432"><ele>73</ele><time>2022-03-30T10:02:48Z</time><name>PT207</name></trkpt>
<trkpt lat="54.468491" lon="-3.256424"><ele>73</ele><time>2022-03-30T10:02:50Z</time><name>PT208</name></trkpt>
<trkpt lat="54.468501" lon="-3.256415"><ele>73</ele><time>2022-03-30T10:02:50Z</time><name>PT209</name></trkpt>
<trkpt lat="54.468508" lon="-3.256405"><ele>73</ele><time>2022-03-30T10:02:51Z</time><name>PT210</name></trkpt>
<trkpt lat="54.468512" lon="-3.256398"><ele>72</ele><time>2022-03-30T10:02:53Z</time><name>PT211</name></trkpt>
<trkpt lat="54.468518" lon="-3.256388"><ele>71</ele><time>2022-03-30T10:02:53Z</time><name>PT212</name></trkpt>
<trkpt lat="54.468530" lon="-3.256377"><ele>72</ele><time>2022-03-30T10:02:54Z</time><name>PT213</name></trkpt>
<trkpt lat="54.468543" lon="-3.256369"><ele>72</ele><time>2022-03-30T10:02:56Z</time><name>PT214</name></trkpt>
<trkpt lat="54.468554" lon="-3.256368"><ele>72</ele><time>2022-03-30T10:02:56Z</time><name>PT215</name></trkpt>
<trkpt lat="54.468567" lon="-3.256365"><ele>72</ele><time>2022-03-30T10:02:57Z</time><name>PT216</name></trkpt>
<trkpt lat="54.468582" lon="-3.256356"><ele>73</ele><time>2022-03-30T10:02:59Z</time><name>PT217</name></trkpt>
<trkpt lat="54.468595" lon="-3.256350"><ele>73</ele><time>2022-03-30T10:02:59Z</time><name>PT218</name></trkpt>
<trkpt lat="54.468604" lon="-3.256340"><ele>73</ele><time>2022-03-30T10:03:00Z</time><name>PT219</name></trkpt>
<trkpt lat="54.468614" lon="-3.256335"><ele>73</ele><time>2022-03-30T10:03:02Z</time><name>PT220</name></trkpt>
<trkpt lat="54.468626" lon="-3.256331"><ele>73</ele><time>2022-03-30T10:03:02Z</time><name>PT221</name></trkpt>
<trkpt lat="54.468640" lon="-3.256321"><ele>74</ele><time>2022-03-30T10:03:03Z</time><name>PT222</name></trkpt>
<trkpt lat="54.468651" lon="-3.256314"><ele>74</ele><time>2022-03-30T10:03:05Z</time><name>PT223</name></trkpt>
<trkpt lat="54.468666" lon="-3.256302"><ele>74</ele><time>2022-03-30T10:03:05Z</time><name>PT224</name></trkpt>
<trkpt lat="54.468673" lon="-3.256295"><ele>74</ele><time>2022-03-30T10:03:06Z</time><name>PT225</name></trkpt>
<trkpt lat="54.468685" lon="-3.256280"><ele>75</ele><time>2022-03-30T10:03:08Z</time><name>PT226</name></trkpt>
<trkpt lat="54.468696" lon="-3.256266"><ele>75</ele><time>2022-03-30T10:03:08Z</time><name>PT227</name></trkpt>
<trkpt lat="54.468704" lon="-3.256255"><ele>75</ele><time>2022-03-30T10:03:09Z</time><name>PT228</name></trkpt>
<trkpt lat="54.468713" lon="-3.256241"><ele>75</ele><time>2022-03-30T10:03:11Z</time><name>PT229</name></trkpt>
<trkpt lat="54.468725" lon="-3.256224"><ele>76</ele><time>2022-03-30T10:03:11Z</time><name>PT230</name></trkpt>
<trkpt lat="54.468732" lon="-3.256213"><ele>75</ele><time>2022-03-30T10:03:12Z</time><name>PT231</name></trkpt>
<trkpt lat="54.468742" lon="-3.256197"><ele>76</ele><time>2022-03-30T10:03:14Z</time><name>PT232</name></trkpt>
<trkpt lat="54.468751" lon="-3.256181"><ele>76</ele><time>2022-03-30T10:03:14Z</time><name>PT233</name></trkpt>
<trkpt lat="54.468763" lon="-3.256162"><ele>77</ele><time>2022-03-30T10:03:15Z</time><name>PT234</name></trkpt>
<trkpt lat="54.468772" lon="-3.256152"><ele>77</ele><time>2022-03-30T10:03:17Z</time><name>PT235</name></trkpt>
<trkpt lat="54.468785" lon="-3.256138"><ele>76</ele><time>2022-03-30T10:03:17Z</time><name>PT236</name></trkpt>
<trkpt lat="54.468791" lon="-3.256133"><ele>76</ele><time>2022-03-30T10:03:18Z</time><name>PT237</name></trkpt>
<trkpt lat="54.468796" lon="-3.256128"><ele>77</ele><time>2022-03-30T10:03:20Z</time><name>PT238</name></trkpt>
<trkpt lat="54.468802" lon="-3.256117"><ele>77</ele><time>2022-03-30T10:03:20Z</time><name>PT239</name></trkpt>
<trkpt lat="54.468808" lon="-3.256111"><ele>77</ele><time>2022-03-30T10:03:21Z</time><name>PT240</name></trkpt>
<trkpt lat="54.468814" lon="-3.256100"><ele>77</ele><time>2022-03-30T10:03:23Z</time><name>PT241</name></trkpt>
<trkpt lat="54.468825" lon="-3.256084"><ele>77</ele><time>2022-03-30T10:03:23Z</time><name>PT242</name></trkpt>
<trkpt lat="54.468836" lon="-3.256064"><ele>78</ele><time>2022-03-30T10:03:24Z</time><name>PT243</name></trkpt>
<trkpt lat="54.468842" lon="-3.256046"><ele>78</ele><time>2022-03-30T10:03:26Z</time><name>PT244</name></trkpt>
<trkpt lat="54.468849" lon="-3.256029"><ele>78</ele><time>2022-03-30T10:03:26Z</time><name>PT245</name></trkpt>
<trkpt lat="54.468855" lon="-3.256012"><ele>78</ele><time>2022-03-30T10:03:27Z</time><name>PT246</name></trkpt>
<trkpt lat="54.468860" lon="-3.256003"><ele>78</ele><time>2022-03-30T10:03:29Z</time><name>PT247</name></trkpt>
<trkpt lat="54.468868" lon="-3.255988"><ele>78</ele><time>2022-03-30T10:03:29Z</time><name>PT248</name></trkpt>
<trkpt lat="54.468877" lon="-3.255975"><ele>79</ele><time>2022-03-30T10:03:30Z</time><name>PT249</name></trkpt>
<trkpt lat="54.468882" lon="-3.255974"><ele>78</ele><time>2022-03-30T10:03:32Z</time><name>PT250</name></trkpt>
<trkpt lat="54.468889" lon="-3.255961"><ele>78</ele><time>2022-03-30T10:03:32Z</time><name>PT251</name></trkpt>
<trkpt lat="54.468894" lon="-3.255942"><ele>78</ele><time>2022-03-30T10:03:33Z</time><name>PT252</name></trkpt>
<trkpt lat="54.468901" lon="-3.255929"><ele>79</ele><time>2022-03-30T10:03:35Z</time><name>PT253</name></trkpt>
<trkpt lat="54.468904" lon="-3.255918"><ele>78</ele><time>2022-03-30T10:03:35Z</time><name>PT254</name></trkpt>
<trkpt lat="54.468909" lon="-3.255907"><ele>78</ele><time>2022-03-30T10:03:36Z</time><name>PT255</name></trkpt>
<trkpt lat="54.468915" lon="-3.255893"><ele>78</ele><time>2022-03-30T10:03:38Z</time><name>PT256</name></trkpt>
<trkpt lat="54.468922" lon="-3.255875"><ele>79</ele><time>2022-03-30T10:03:38Z</time><name>PT257</name></trkpt>
<trkpt lat="54.468930" lon="-3.255862"><ele>79</ele><time>2022-03-30T10:03:39Z</time><name>PT258</name></trkpt>
<trkpt lat="54.468938" lon="-3.255848"><ele>79</ele><time>2022-03-30T10:03:41Z</time><name>PT259</name></trkpt>
<trkpt lat="54.468946" lon="-3.255829"><ele>79</ele><time>2022-03-30T10:03:41Z</time><name>PT260</name></trkpt>
<trkpt lat="54.468946" lon="-3.255818"><ele>78</ele><time>2022-03-30T10:03:42Z</time><name>PT261</name></trkpt>
<trkpt lat="54.468950" lon="-3.255804"><ele>79</ele><time>2022-03-30T10:03:44Z</time><name>PT262</name></trkpt>
<trkpt lat="54.468957" lon="-3.255791"><ele>78</ele><time>2022-03-30T10:03:44Z</time><name>PT263</name></trkpt>
<trkpt lat="54.468964" lon="-3.255784"><ele>78</ele><time>2022-03-30T10:03:45Z</time><name>PT264</name></trkpt>
<trkpt lat="54.468968" lon="-3.255776"><ele>78</ele><time>2022-03-30T10:03:47Z</time><name>PT265</name></trkpt>
<trkpt lat="54.468977" lon="-3.255767"><ele>77</ele><time>2022-03-30T10:03:47Z</time><name>PT266</name></trkpt>
<trkpt lat="54.468983" lon="-3.255762"><ele>77</ele><time>2022-03-30T10:03:48Z</time><name>PT267</name></trkpt>
<trkpt lat="54.468989" lon="-3.255756"><ele>77</ele><time>2022-03-30T10:03:50Z</time><name>PT268</name></trkpt>
<trkpt lat="54.468997" lon="-3.255741"><ele>77</ele><time>2022-03-30T10:03:50Z</time><name>PT269</name></trkpt>
<trkpt lat="54.469006" lon="-3.255732"><ele>77</ele><time>2022-03-30T10:03:51Z</time><name>PT270</name></trkpt>
<trkpt lat="54.469013" lon="-3.255722"><ele>77</ele><time>2022-03-30T10:03:53Z</time><name>PT271</name></trkpt>
<trkpt lat="54.469016" lon="-3.255714"><ele>76</ele><time>2022-03-30T10:03:53Z</time><name>PT272</name></trkpt>
<trkpt lat="54.469021" lon="-3.255707"><ele>77</ele><time>2022-03-30T10:03:54Z</time><name>PT273</name></trkpt>
<trkpt lat="54.469026" lon="-3.255698"><ele>77</ele><time>2022-03-30T10:03:56Z</time><name>PT274</name></trkpt>
<trkpt lat="54.469037" lon="-3.255690"><ele>78</ele><time>2022-03-30T10:03:56Z</time><name>PT275</name></trkpt>
<trkpt lat="54.469043" lon="-3.255682"><ele>77</ele><time>2022-03-30T10:03:57Z</time><name>PT276</name></trkpt>
<trkpt lat="54.469050" lon="-3.255677"><ele>77</ele><time>2022-03-30T10:03:59Z</time><name>PT277</name></trkpt>
<trkpt lat="54.469055" lon="-3.255671"><ele>77</ele><time>2022-03-30T10:03:59Z</time><name>PT278</name></trkpt>
<trkpt lat="54.469059" lon="-3.255664"><ele>76</ele><time>2022-03-30T10:04:00Z</time><name>PT279</name></trkpt>
<trkpt lat="54.469065" lon="-3.255656"><ele>76</ele><time>2022-03-30T10:04:02Z</time><name>PT280</name></trkpt>
<trkpt lat="54.469073" lon="-3.255650"><ele>75</ele><time>2022-03-30T10:04:02Z</time><name>PT281</name></trkpt>
<trkpt lat="54.469081" lon="-3.255647"><ele>75</ele><time>2022-03-30T10:04:03Z</time><name>PT282</name></trkpt>
<trkpt lat="54.469087" lon="-3.255645"><ele>75</ele><time>2022-03-30T10:04:05Z</time><name>PT283</name></trkpt>
<trkpt lat="54.469088" lon="-3.255649"><ele>74</ele><time>2022-03-30T10:04:05Z</time><name>PT284</name></trkpt>
<trkpt lat="54.469098" lon="-3.255645"><ele>74</ele><time>2022-03-30T10:04:06Z</time><name>PT285</name></trkpt>
<trkpt lat="54.469106" lon="-3.255641"><ele>73</ele><time>2022-03-30T10:04:08Z</time><name>PT286</name></trkpt>
<trkpt lat="54.469117" lon="-3.255632"><ele>73</ele><time>2022-03-30T10:04:08Z</time><name>PT287</name></trkpt>
<trkpt lat="54.469130" lon="-3.255627"><ele>73</ele><time>2022-03-30T10:04:09Z</time><name>PT288</name></trkpt>
<trkpt lat="54.469142" lon="-3.255616"><ele>74</ele><time>2022-03-30T10:04:11Z</time><name>PT289</name></trkpt>
<trkpt lat="54.469153" lon="-3.255609"><ele>73</ele><time>2022-03-30T10:04:11Z</time><name>PT290</name></trkpt>
<trkpt lat="54.469164" lon="-3.255599"><ele>73</ele><time>2022-03-30T10:04:12Z</time><name>PT291</name></trkpt>
<trkpt lat="54.469175" lon="-3.255593"><ele>73</ele><time>2022-03-30T10:04:14Z</time><name>PT292</name></trkpt>
<trkpt lat="54.469185" lon="-3.255586"><ele>73</ele><time>2022-03-30T10:04:14Z</time><name>PT293</name></trkpt>
<trkpt lat="54.469195" lon="-3.255577"><ele>73</ele><time>2022-03-30T10:04:15Z</time><name>PT294</name></trkpt>
<trkpt lat="54.469202" lon="-3.255572"><ele>73</ele><time>2022-03-30T10:04:17Z</time><name>PT295</name></trkpt>
<trkpt lat="54.469212" lon="-3.255563"><ele>73</ele><time>2022-03-30T10:04:17Z</time><name>PT296</name></trkpt>
<trkpt lat="54.469226" lon="-3.255558"><ele>74</ele><time>2022-03-30T10:04:18Z</time><name>PT297</name></trkpt>
<trkpt lat="54.469235" lon="-3.255552"><ele>73</ele><time>2022-03-30T10:04:20Z</time><name>PT298</name></trkpt>
<trkpt lat="54.469238" lon="-3.255530"><ele>73</ele><time>2022-03-30T10:04:20Z</time><name>PT299</name></trkpt>
<trkpt lat="54.469246" lon="-3.255524"><ele>72</ele><time>2022-03-30T10:04:21Z</time><name>PT300</name></trkpt>
<trkpt lat="54.469252" lon="-3.255517"><ele>71</ele><time>2022-03-30T10:04:23Z</time><name>PT301</name></trkpt>
<trkpt lat="54.469258" lon="-3.255509"><ele>71</ele><time>2022-03-30T10:04:23Z</time><name>PT302</name></trkpt>
<trkpt lat="54.469274" lon="-3.255505"><ele>71</ele><time>2022-03-30T10:04:24Z</time><name>PT303</name></trkpt>
<trkpt lat="54.469284" lon="-3.255500"><ele>71</ele><time>2022-03-30T10:04:26Z</time><name>PT304</name></trkpt>
<trkpt lat="54.469315" lon="-3.255485"><ele>71</ele><time>2022-03-30T10:04:29Z</time><name>PT305</name></trkpt>
<trkpt lat="54.469359" lon="-3.255480"><ele>70</ele><time>2022-03-30T10:04:32Z</time><name>PT306</name></trkpt>
<trkpt lat="54.469412" lon="-3.255456"><ele>72</ele><time>2022-03-30T10:04:36Z</time><name>PT307</name></trkpt>
<trkpt lat="54.469444" lon="-3.255441"><ele>72</ele><time>2022-03-30T10:04:39Z</time><name>PT308</name></trkpt>
<trkpt lat="54.469478" lon="-3.255423"><ele>70</ele><time>2022-03-30T10:04:44Z</time><name>PT309</name></trkpt>
<trkpt lat="54.469509" lon="-3.255412"><ele>70</ele><time>2022-03-30T10:04:47Z</time><name>PT310</name></trkpt>
<trkpt lat="54.469558" lon="-3.255395"><ele>70</ele><time>2022-03-30T10:04:50Z</time><name>PT311</name></trkpt>
<trkpt lat="54.469570" lon="-3.255394"><ele>70</ele><time>2022-03-30T10:04:51Z</time><name>PT312</name></trkpt>
<trkpt lat="54.469585" lon="-3.255393"><ele>69</ele><time>2022-03-30T10:04:53Z</time><name>PT313</name></trkpt>
<trkpt lat="54.469603" lon="-3.255388"><ele>70</ele><time>2022-03-30T10:04:53Z</time><name>PT314</name></trkpt>
<trkpt lat="54.469616" lon="-3.255369"><ele>71</ele><time>2022-03-30T10:04:54Z</time><name>PT315</name></trkpt>
<trkpt lat="54.469633" lon="-3.255357"><ele>72</ele><time>2022-03-30T10:04:56Z</time><name>PT316</name></trkpt>
<trkpt lat="54.469644" lon="-3.255346"><ele>73</ele><time>2022-03-30T10:04:56Z</time><name>PT317</name></trkpt>
<trkpt lat="54.469655" lon="-3.255343"><ele>73</ele><time>2022-03-30T10:04:57Z</time><name>PT318</name></trkpt>
<trkpt lat="54.469671" lon="-3.255337"><ele>74</ele><time>2022-03-30T10:04:59Z</time><name>PT319</name></trkpt>
<trkpt lat="54.469684" lon="-3.255331"><ele>74</ele><time>2022-03-30T10:04:59Z</time><name>PT320</name></trkpt>
<trkpt lat="54.469696" lon="-3.255326"><ele>75</ele><time>2022-03-30T10:05:00Z</time><name>PT321</name></trkpt>
<trkpt lat="54.469708" lon="-3.255322"><ele>75</ele><time>2022-03-30T10:05:02Z</time><name>PT322</name></trkpt>
<trkpt lat="54.469711" lon="-3.255322"><ele>75</ele><time>2022-03-30T10:05:02Z</time><name>PT323</name></trkpt>
<trkpt lat="54.469726" lon="-3.255320"><ele>75</ele><time>2022-03-30T10:05:03Z</time><name>PT324</name></trkpt>
<trkpt lat="54.469740" lon="-3.255316"><ele>76</ele><time>2022-03-30T10:05:05Z</time><name>PT325</name></trkpt>
<trkpt lat="54.469758" lon="-3.255304"><ele>76</ele><time>2022-03-30T10:05:05Z</time><name>PT326</name></trkpt>
<trkpt lat="54.469773" lon="-3.255292"><ele>76</ele><time>2022-03-30T10:05:06Z</time><name>PT327</name></trkpt>
<trkpt lat="54.469789" lon="-3.255291"><ele>77</ele><time>2022-03-30T10:05:08Z</time><name>PT328</name></trkpt>
<trkpt lat="54.469798" lon="-3.255285"><ele>77</ele><time>2022-03-30T10:05:08Z</time><name>PT329</name></trkpt>
<trkpt lat="54.469809" lon="-3.255276"><ele>77</ele><time>2022-03-30T10:05:09Z</time><name>PT330</name></trkpt>
<trkpt lat="54.469819" lon="-3.255271"><ele>77</ele><time>2022-03-30T10:05:11Z</time><name>PT331</name></trkpt>
<trkpt lat="54.469831" lon="-3.255263"><ele>77</ele><time>2022-03-30T10:05:11Z</time><name>PT332</name></trkpt>
<trkpt lat="54.469845" lon="-3.255257"><ele>78</ele><time>2022-03-30T10:05:12Z</time><name>PT333</name></trkpt>
<trkpt lat="54.469854" lon="-3.255255"><ele>78</ele><time>2022-03-30T10:05:14Z</time><name>PT334</name></trkpt>
<trkpt lat="54.469864" lon="-3.255252"><ele>77</ele><time>2022-03-30T10:05:14Z</time><name>PT335</name></trkpt>
<trkpt lat="54.469874" lon="-3.255248"><ele>77</ele><time>2022-03-30T10:05:15Z</time><name>PT336</name></trkpt>
<trkpt lat="54.469885" lon="-3.255245"><ele>77</ele><time>2022-03-30T10:05:17Z</time><name>PT337</name></trkpt>
<trkpt lat="54.469894" lon="-3.255241"><ele>77</ele><time>2022-03-30T10:05:17Z</time><name>PT338</name></trkpt>
<trkpt lat="54.469902" lon="-3.255232"><ele>77</ele><time>2022-03-30T10:05:18Z</time><name>PT339</name></trkpt>
<trkpt lat="54.469909" lon="-3.255220"><ele>77</ele><time>2022-03-30T10:05:20Z</time><name>PT340</name></trkpt>
<trkpt lat="54.469914" lon="-3.255213"><ele>77</ele><time>2022-03-30T10:05:20Z</time><name>PT341</name></trkpt>
<trkpt lat="54.469920" lon="-3.255204"><ele>77</ele><time>2022-03-30T10:05:21Z</time><name>PT342</name></trkpt>
<trkpt lat="54.469924" lon="-3.255200"><ele>77</ele><time>2022-03-30T10:05:23Z</time><name>PT343</name></trkpt>
<trkpt lat="54.469934" lon="-3.255193"><ele>77</ele><time>2022-03-30T10:05:23Z</time><name>PT344</name></trkpt>
<trkpt lat="54.469942" lon="-3.255180"><ele>77</ele><time>2022-03-30T10:05:24Z</time><name>PT345</name></trkpt>
<trkpt lat="54.469951" lon="-3.255173"><ele>78</ele><time>2022-03-30T10:05:26Z</time><name>PT346</name></trkpt>
<trkpt lat="54.469963" lon="-3.255165"><ele>79</ele><time>2022-03-30T10:05:26Z</time><name>PT347</name></trkpt>
<trkpt lat="54.469969" lon="-3.255156"><ele>79</ele><time>2022-03-30T10:05:27Z</time><name>PT348</name></trkpt>
<trkpt lat="54.469977" lon="-3.255145"><ele>79</ele><time>2022-03-30T10:05:29Z</time><name>PT349</name></trkpt>
<trkpt lat="54.469990" lon="-3.255137"><ele>80</ele><time>2022-03-30T10:05:29Z</time><name>PT350</name></trkpt>
<trkpt lat="54.469995" lon="-3.255127"><ele>80</ele><time>2022-03-30T10:05:30Z</time><name>PT351</name></trkpt>
<trkpt lat="54.470000" lon="-3.255113"><ele>80</ele><time>2022-03-30T10:05:32Z</time><name>PT352</name></trkpt>
<trkpt lat="54.470008" lon="-3.255105"><ele>81</ele><time>2022-03-30T10:05:32Z</time><name>PT353</name></trkpt>
<trkpt lat="54.470015" lon="-3.255098"><ele>81</ele><time>2022-03-30T10:05:33Z</time><name>PT354</name></trkpt>
<trkpt lat="54.470019" lon="-3.255091"><ele>81</ele><time>2022-03-30T10:05:35Z</time><name>PT355</name></trkpt>
<trkpt lat="54.470022" lon="-3.255081"><ele>81</ele><time>2022-03-30T10:05:35Z</time><name>PT356</name></trkpt>
<trkpt lat="54.470024" lon="-3.255070"><ele>81</ele><time>2022-03-30T10:05:36Z</time><name>PT357</name></trkpt>
<trkpt lat="54.470028" lon="-3.255057"><ele>80</ele><time>2022-03-30T10:05:38Z</time><name>PT358</name></trkpt>
<trkpt lat="54.470032" lon="-3.255049"><ele>79</ele><time>2022-03-30T10:05:38Z</time><name>PT359</name></trkpt>
<trkpt lat="54.470035" lon="-3.255038"><ele>79</ele><time>2022-03-30T10:05:39Z</time><name>PT360</name></trkpt>
<trkpt lat="54.470038" lon="-3.255033"><ele>79</ele><time>2022-03-30T10:05:41Z</time><name>PT361</name></trkpt>
<trkpt lat="54.470057" lon="-3.255024"><ele>81</ele><time>2022-03-30T10:05:41Z</time><name>PT362</name></trkpt>
<trkpt lat="54.470064" lon="-3.255017"><ele>81</ele><time>2022-03-30T10:05:42Z</time><name>PT363</name></trkpt>
<trkpt lat="54.470068" lon="-3.255007"><ele>81</ele><time>2022-03-30T10:05:44Z</time><name>PT364</name></trkpt>
<trkpt lat="54.470074" lon="-3.254998"><ele>81</ele><time>2022-03-30T10:05:44Z</time><name>PT365</name></trkpt>
<trkpt lat="54.470085" lon="-3.254990"><ele>81</ele><time>2022-03-30T10:05:45Z</time><name>PT366</name></trkpt>
<trkpt lat="54.470094" lon="-3.254987"><ele>81</ele><time>2022-03-30T10:05:47Z</time><name>PT367</name></trkpt>
<trkpt lat="54.470099" lon="-3.254976"><ele>81</ele><time>2022-03-30T10:05:47Z</time><name>PT368</name></trkpt>
<trkpt lat="54.470102" lon="-3.254970"><ele>81</ele><time>2022-03-30T10:05:48Z</time><name>PT369</name></trkpt>
<trkpt lat="54.470115" lon="-3.254965"><ele>82</ele><time>2022-03-30T10:05:50Z</time><name>PT370</name></trkpt>
<trkpt lat="54.470122" lon="-3.254957"><ele>82</ele><time>2022-03-30T10:05:50Z</time><name>PT371</name></trkpt>
<trkpt lat="54.470129" lon="-3.254947"><ele>82</ele><time>2022-03-30T10:05:51Z</time><name>PT372</name></trkpt>
<trkpt lat="54.470136" lon="-3.254935"><ele>83</ele><time>2022-03-30T10:05:53Z</time><name>PT373</name></trkpt>
<trkpt lat="54.470141" lon="-3.254926"><ele>83</ele><time>2022-03-30T10:05:53Z</time><name>PT374</name></trkpt>
<trkpt lat="54.470147" lon="-3.254920"><ele>84</ele><time>2022-03-30T10:05:54Z</time><name>PT375</name></trkpt>
<trkpt lat="54.470154" lon="-3.254916"><ele>84</ele><time>2022-03-30T10:05:56Z</time><name>PT376</name></trkpt>
<trkpt lat="54.470160" lon="-3.254914"><ele>84</ele><time>2022-03-30T10:05:56Z</time><name>PT377</name></trkpt>
<trkpt lat="54.470163" lon="-3.254913"><ele>85</ele><time>2022-03-30T10:05:57Z</time><name>PT378</name></trkpt>
<trkpt lat="54.470168" lon="-3.254916"><ele>84</ele><time>2022-03-30T10:05:59Z</time><name>PT379</name></trkpt>
<trkpt lat="54.470176" lon="-3.254914"><ele>84</ele><time>2022-03-30T10:05:59Z</time><name>PT380</name></trkpt>
<trkpt lat="54.470179" lon="-3.254910"><ele>84</ele><time>2022-03-30T10:06:00Z</time><name>PT381</name></trkpt>
<trkpt lat="54.470186" lon="-3.254908"><ele>86</ele><time>2022-03-30T10:06:02Z</time><name>PT382</name></trkpt>
<trkpt lat="54.470193" lon="-3.254910"><ele>86</ele><time>2022-03-30T10:06:02Z</time><name>PT383</name></trkpt>
<trkpt lat="54.470203" lon="-3.254909"><ele>87</ele><time>2022-03-30T10:06:03Z</time><name>PT384</name></trkpt>
<trkpt lat="54.470212" lon="-3.254908"><ele>87</ele><time>2022-03-30T10:06:05Z</time><name>PT385</name></trkpt>
<trkpt lat="54.470219" lon="-3.254912"><ele>87</ele><time>2022-03-30T10:06:05Z</time><name>PT386</name></trkpt>
<trkpt lat="54.470227" lon="-3.254917"><ele>88</ele><time>2022-03-30T10:06:06Z</time><name>PT387</name></trkpt>
<trkpt lat="54.470235" lon="-3.254918"><ele>88</ele><time>2022-03-30T10:06:08Z</time><name>PT388</name></trkpt>
<trkpt lat="54.470238" lon="-3.254913"><ele>88</ele><time>2022-03-30T10:06:08Z</time><name>PT389</name></trkpt>
<trkpt lat="54.470245" lon="-3.254915"><ele>87</ele><time>2022-03-30T10:06:09Z</time><name>PT390</name></trkpt>
<trkpt lat="54.470252" lon="-3.254911"><ele>88</ele><time>2022-03-30T10:06:11Z</time><name>PT391</name></trkpt>
<trkpt lat="54.470259" lon="-3.254910"><ele>88</ele><time>2022-03-30T10:06:11Z</time><name>PT392</name></trkpt>
<trkpt lat="54.470266" lon="-3.254910"><ele>88</ele><time>2022-03-30T10:06:12Z</time><name>PT393</name></trkpt>
<trkpt lat="54.470273" lon="-3.254910"><ele>88</ele><time>2022-03-30T10:06:14Z</time><name>PT394</name></trkpt>
<trkpt lat="54.470281" lon="-3.254909"><ele>88</ele><time>2022-03-30T10:06:14Z</time><name>PT395</name></trkpt>
<trkpt lat="54.470283" lon="-3.254910"><ele>88</ele><time>2022-03-30T10:06:15Z</time><name>PT396</name></trkpt>
<trkpt lat="54.470290" lon="-3.254911"><ele>88</ele><time>2022-03-30T10:06:17Z</time><name>PT397</name></trkpt>
<trkpt lat="54.470299" lon="-3.254908"><ele>89</ele><time>2022-03-30T10:06:17Z</time><name>PT398</name></trkpt>
<trkpt lat="54.470303" lon="-3.254907"><ele>88</ele><time>2022-03-30T10:06:18Z</time><name>PT399</name></trkpt>
<trkpt lat="54.470313" lon="-3.254908"><ele>89</ele><time>2022-03-30T10:06:20Z</time><name>PT400</name></trkpt>
<trkpt lat="54.470317" lon="-3.254909"><ele>88</ele><time>2022-03-30T10:06:20Z</time><name>PT401</name></trkpt>
<trkpt lat="54.470326" lon="-3.254908"><ele>88</ele><time>2022-03-30T10:06:21Z</time><name>PT402</name></trkpt>
<trkpt lat="54.470331" lon="-3.254911"><ele>88</ele><time>2022-03-30T10:06:23Z</time><name>PT403</name></trkpt>
<trkpt lat="54.470337" lon="-3.254910"><ele>88</ele><time>2022-03-30T10:06:23Z</time><name>PT404</name></trkpt>
<trkpt lat="54.470340" lon="-3.254911"><ele>88</ele><time>2022-03-30T10:06:24Z</time><name>PT405</name></trkpt>
<trkpt lat="54.470346" lon="-3.254912"><ele>88</ele><time>2022-03-30T10:06:26Z</time><name>PT406</name></trkpt>
<trkpt lat="54.470351" lon="-3.254916"><ele>88</ele><time>2022-03-30T10:06:26Z</time><name>PT407</name></trkpt>
<trkpt lat="54.470353" lon="-3.254913"><ele>88</ele><time>2022-03-30T10:06:27Z</time><name>PT408</name></trkpt>
<trkpt lat="54.470353" lon="-3.254913"><ele>88</ele><time>2022-03-30T10:06:29Z</time><name>PT409</name></trkpt>
<trkpt lat="54.470360" lon="-3.254913"><ele>88</ele><time>2022-03-30T10:06:42Z</time><name>PT410</name></trkpt>
<trkpt lat="54.470366" lon="-3.254910"><ele>88</ele><time>2022-03-30T10:06:44Z</time><name>PT411</name></trkpt>
<trkpt lat="54.470378" lon="-3.254913"><ele>89</ele><time>2022-03-30T10:06:44Z</time><name>PT412</name></trkpt>
<trkpt lat="54.470393" lon="-3.254915"><ele>89</ele><time>2022-03-30T10:06:45Z</time><name>PT413</name></trkpt>
<trkpt lat="54.470405" lon="-3.254917"><ele>89</ele><time>2022-03-30T10:06:47Z</time><name>PT414</name></trkpt>
<trkpt lat="54.470415" lon="-3.254916"><ele>90</ele><time>2022-03-30T10:06:47Z</time><name>PT415</name></trkpt>
<trkpt lat="54.470426" lon="-3.254916"><ele>90</ele><time>2022-03-30T10:06:48Z</time><name>PT416</name></trkpt>
<trkpt lat="54.470439" lon="-3.254916"><ele>90</ele><time>2022-03-30T10:06:50Z</time><name>PT417</name></trkpt>
<trkpt lat="54.470452" lon="-3.254916"><ele>90</ele><time>2022-03-30T10:06:50Z</time><name>PT418</name></trkpt>
<trkpt lat="54.470494" lon="-3.254907"><ele>91</ele><time>2022-03-30T10:06:54Z</time><name>PT419</name></trkpt>
<trkpt lat="54.470529" lon="-3.254912"><ele>92</ele><time>2022-03-30T10:06:59Z</time><name>PT420</name></trkpt>
<trkpt lat="54.470562" lon="-3.254912"><ele>92</ele><time>2022-03-30T10:07:02Z</time><name>PT421</name></trkpt>
<trkpt lat="54.470579" lon="-3.254926"><ele>93</ele><time>2022-03-30T10:07:05Z</time><name>PT422</name></trkpt>
<trkpt lat="54.470603" lon="-3.254909"><ele>95</ele><time>2022-03-30T10:07:09Z</time><name>PT423</name></trkpt>
<trkpt lat="54.470641" lon="-3.254894"><ele>96</ele><time>2022-03-30T10:07:14Z</time><name>PT424</name></trkpt>
<trkpt lat="54.470676" lon="-3.254886"><ele>98</ele><time>2022-03-30T10:07:17Z</time><name>PT425</name></trkpt>
<trkpt lat="54.470703" lon="-3.254873"><ele>99</ele><time>2022-03-30T10:07:21Z</time><name>PT426</name></trkpt>
<trkpt lat="54.470728" lon="-3.254863"><ele>100</ele><time>2022-03-30T10:07:24Z</time><name>PT427</name></trkpt>
<trkpt lat="54.470753" lon="-3.254870"><ele>99</ele><time>2022-03-30T10:07:29Z</time><name>PT428</name></trkpt>
<trkpt lat="54.470780" lon="-3.254865"><ele>99</ele><time>2022-03-30T10:07:32Z</time><name>PT429</name></trkpt>
<trkpt lat="54.470817" lon="-3.254854"><ele>100</ele><time>2022-03-30T10:07:36Z</time><name>PT430</name></trkpt>
<trkpt lat="54.470853" lon="-3.254836"><ele>101</ele><time>2022-03-30T10:07:41Z</time><name>PT431</name></trkpt>
<trkpt lat="54.470877" lon="-3.254833"><ele>101</ele><time>2022-03-30T10:07:44Z</time><name>PT432</name></trkpt>
<trkpt lat="54.470903" lon="-3.254834"><ele>102</ele><time>2022-03-30T10:07:47Z</time><name>PT433</name></trkpt>
<trkpt lat="54.470933" lon="-3.254842"><ele>103</ele><time>2022-03-30T10:07:51Z</time><name>PT434</name></trkpt>
<trkpt lat="54.470954" lon="-3.254840"><ele>102</ele><time>2022-03-30T10:07:54Z</time><name>PT435</name></trkpt>
<trkpt lat="54.470986" lon="-3.254850"><ele>104</ele><time>2022-03-30T10:07:59Z</time><name>PT436</name></trkpt>
<trkpt lat="54.471006" lon="-3.254851"><ele>103</ele><time>2022-03-30T10:08:02Z</time><name>PT437</name></trkpt>
<trkpt lat="54.471040" lon="-3.254850"><ele>104</ele><time>2022-03-30T10:08:05Z</time><name>PT438</name></trkpt>
<trkpt lat="54.471067" lon="-3.254851"><ele>105</ele><time>2022-03-30T10:08:08Z</time><name>PT439</name></trkpt>
<trkpt lat="54.471087" lon="-3.254848"><ele>105</ele><time>2022-03-30T10:08:12Z</time><name>PT440</name></trkpt>
<trkpt lat="54.471102" lon="-3.254855"><ele>106</ele><time>2022-03-30T10:08:15Z</time><name>PT441</name></trkpt>
<trkpt lat="54.471111" lon="-3.254849"><ele>107</ele><time>2022-03-30T10:08:20Z</time><name>PT442</name></trkpt>
<trkpt lat="54.471130" lon="-3.254855"><ele>108</ele><time>2022-03-30T10:08:23Z</time><name>PT443</name></trkpt>
<trkpt lat="54.471130" lon="-3.254861"><ele>107</ele><time>2022-03-30T10:08:26Z</time><name>PT444</name></trkpt>
<trkpt lat="54.471140" lon="-3.254857"><ele>108</ele><time>2022-03-30T10:08:30Z</time><name>PT445</name></trkpt>
<trkpt lat="54.471182" lon="-3.254879"><ele>108</ele><time>2022-03-30T10:08:35Z</time><name>PT446</name></trkpt>
<trkpt lat="54.471217" lon="-3.254898"><ele>108</ele><time>2022-03-30T10:08:38Z</time><name>PT447</name></trkpt>
<trkpt lat="54.471247" lon="-3.254911"><ele>107</ele><time>2022-03-30T10:08:41Z</time><name>PT448</name></trkpt>
<trkpt lat="54.471293" lon="-3.254942"><ele>108</ele><time>2022-03-30T10:08:44Z</time><name>PT449</name></trkpt>
<trkpt lat="54.471334" lon="-3.254973"><ele>108</ele><time>2022-03-30T10:08:48Z</time><name>PT450</name></trkpt>
<trkpt lat="54.471358" lon="-3.255011"><ele>109</ele><time>2022-03-30T10:08:51Z</time><name>PT451</name></trkpt>
<trkpt lat="54.471390" lon="-3.255074"><ele>110</ele><time>2022-03-30T10:08:56Z</time><name>PT452</name></trkpt>
<trkpt lat="54.471422" lon="-3.255138"><ele>110</ele><time>2022-03-30T10:08:59Z</time><name>PT453</name></trkpt>
<trkpt lat="54.471446" lon="-3.255187"><ele>111</ele><time>2022-03-30T10:09:03Z</time><name>PT454</name></trkpt>
<trkpt lat="54.471458" lon="-3.255222"><ele>111</ele><time>2022-03-30T10:09:06Z</time><name>PT455</name></trkpt>
<trkpt lat="54.471482" lon="-3.255269"><ele>112</ele><time>2022-03-30T10:09:09Z</time><name>PT456</name></trkpt>
<trkpt lat="54.471512" lon="-3.255312"><ele>114</ele><time>2022-03-30T10:09:12Z</time><name>PT457</name></trkpt>
<trkpt lat="54.471537" lon="-3.255374"><ele>113</ele><time>2022-03-30T10:09:17Z</time><name>PT458</name></trkpt>
<trkpt lat="54.471568" lon="-3.255425"><ele>113</ele><time>2022-03-30T10:09:20Z</time><name>PT459</name></trkpt>
<trkpt lat="54.471593" lon="-3.255470"><ele>114</ele><time>2022-03-30T10:09:23Z</time><name>PT460</name></trkpt>
<trkpt lat="54.471627" lon="-3.255529"><ele>116</ele><time>2022-03-30T10:09:27Z</time><name>PT461</name></trkpt>
<trkpt lat="54.471653" lon="-3.255591"><ele>117</ele><time>2022-03-30T10:09:32Z</time><name>PT462</name></trkpt>
<trkpt lat="54.471669" lon="-3.255638"><ele>116</ele><time>2022-03-30T10:09:35Z</time><name>PT463</name></trkpt>
<trkpt lat="54.471701" lon="-3.255705"><ele>116</ele><time>2022-03-30T10:09:38Z</time><name>PT464</name></trkpt>
<trkpt lat="54.471729" lon="-3.255765"><ele>117</ele><time>2022-03-30T10:09:42Z</time><name>PT465</name></trkpt>
<trkpt lat="54.471754" lon="-3.255830"><ele>117</ele><time>2022-03-30T10:09:47Z</time><name>PT466</name></trkpt>
<trkpt lat="54.471768" lon="-3.255886"><ele>116</ele><time>2022-03-30T10:09:50Z</time><name>PT467</name></trkpt>
<trkpt lat="54.471780" lon="-3.255957"><ele>116</ele><time>2022-03-30T10:09:53Z</time><name>PT468</name></trkpt>
<trkpt lat="54.471790" lon="-3.256002"><ele>118</ele><time>2022-03-30T10:09:56Z</time><name>PT469</name></trkpt>
<trkpt lat="54.471791" lon="-3.256056"><ele>118</ele><time>2022-03-30T10:09:59Z</time><name>PT470</name></trkpt>
<trkpt lat="54.471795" lon="-3.256129"><ele>118</ele><time>2022-03-30T10:10:03Z</time><name>PT471</name></trkpt>
<trkpt lat="54.471796" lon="-3.256182"><ele>119</ele><time>2022-03-30T10:10:06Z</time><name>PT472</name></trkpt>
<trkpt lat="54.471795" lon="-3.256236"><ele>118</ele><time>2022-03-30T10:10:09Z</time><name>PT473</name></trkpt>
<trkpt lat="54.471806" lon="-3.256304"><ele>120</ele><time>2022-03-30T10:10:14Z</time><name>PT474</name></trkpt>
<trkpt lat="54.471815" lon="-3.256367"><ele>121</ele><time>2022-03-30T10:10:17Z</time><name>PT475</name></trkpt>
<trkpt lat="54.471832" lon="-3.256434"><ele>122</ele><time>2022-03-30T10:10:21Z</time><name>PT476</name></trkpt>
<trkpt lat="54.471844" lon="-3.256485"><ele>122</ele><time>2022-03-30T10:10:24Z</time><name>PT477</name></trkpt>
<trkpt lat="54.471862" lon="-3.256524"><ele>122</ele><time>2022-03-30T10:10:27Z</time><name>PT478</name></trkpt>
<trkpt lat="54.471890" lon="-3.256563"><ele>122</ele><time>2022-03-30T10:10:30Z</time><name>PT479</name></trkpt>
<trkpt lat="54.471907" lon="-3.256629"><ele>121</ele><time>2022-03-30T10:10:35Z</time><name>PT480</name></trkpt>
<trkpt lat="54.471921" lon="-3.256689"><ele>121</ele><time>2022-03-30T10:10:38Z</time><name>PT481</name></trkpt>
<trkpt lat="54.471933" lon="-3.256727"><ele>121</ele><time>2022-03-30T10:10:41Z</time><name>PT482</name></trkpt>
<trkpt lat="54.471948" lon="-3.256787"><ele>122</ele><time>2022-03-30T10:10:45Z</time><name>PT483</name></trkpt>
<trkpt lat="54.471966" lon="-3.256838"><ele>122</ele><time>2022-03-30T10:10:50Z</time><name>PT484</name></trkpt>
<trkpt lat="54.471982" lon="-3.256881"><ele>123</ele><time>2022-03-30T10:10:53Z</time><name>PT485</name></trkpt>
<trkpt lat="54.471989" lon="-3.256929"><ele>124</ele><time>2022-03-30T10:10:57Z</time><name>PT486</name></trkpt>
<trkpt lat="54.472009" lon="-3.256967"><ele>124</ele><time>2022-03-30T10:11:02Z</time><name>PT487</name></trkpt>
<trkpt lat="54.472030" lon="-3.256999"><ele>125</ele><time>2022-03-30T10:11:05Z</time><name>PT488</name></trkpt>
<trkpt lat="54.472040" lon="-3.257027"><ele>125</ele><time>2022-03-30T10:11:08Z</time><name>PT489</name></trkpt>
<trkpt lat="54.472056" lon="-3.257055"><ele>126</ele><time>2022-03-30T10:11:11Z</time><name>PT490</name></trkpt>
<trkpt lat="54.472086" lon="-3.257089"><ele>127</ele><time>2022-03-30T10:11:14Z</time><name>PT491</name></trkpt>
<trkpt lat="54.472113" lon="-3.257126"><ele>127</ele><time>2022-03-30T10:11:18Z</time><name>PT492</name></trkpt>
<trkpt lat="54.472132" lon="-3.257159"><ele>127</ele><time>2022-03-30T10:11:21Z</time><name>PT493</name></trkpt>
<trkpt lat="54.472152" lon="-3.257177"><ele>128</ele><time>2022-03-30T10:11:24Z</time><name>PT494</name></trkpt>
<trkpt lat="54.472179" lon="-3.257199"><ele>127</ele><time>2022-03-30T10:11:29Z</time><name>PT495</name></trkpt>
<trkpt lat="54.472215" lon="-3.257214"><ele>128</ele><time>2022-03-30T10:11:32Z</time><name>PT496</name></trkpt>
<trkpt lat="54.472242" lon="-3.257230"><ele>129</ele><time>2022-03-30T10:11:35Z</time><name>PT497</name></trkpt>
<trkpt lat="54.472280" lon="-3.257255"><ele>129</ele><time>2022-03-30T10:11:39Z</time><name>PT498</name></trkpt>
<trkpt lat="54.472300" lon="-3.257273"><ele>129</ele><time>2022-03-30T10:11:42Z</time><name>PT499</name></trkpt>
<trkpt lat="54.472328" lon="-3.257297"><ele>128</ele><time>2022-03-30T10:11:47Z</time><name>PT500</name></trkpt>
<trkpt lat="54.472351" lon="-3.257313"><ele>127</ele><time>2022-03-30T10:11:50Z</time><name>PT501</name></trkpt>
<trkpt lat="54.472375" lon="-3.257338"><ele>126</ele><time>2022-03-30T10:11:53Z</time><name>PT502</name></trkpt>
<trkpt lat="54.472408" lon="-3.257371"><ele>127</ele><time>2022-03-30T10:11:57Z</time><name>PT503</name></trkpt>
<trkpt lat="54.472434" lon="-3.257394"><ele>127</ele><time>2022-03-30T10:12:00Z</time><name>PT504</name></trkpt>
<trkpt lat="54.472466" lon="-3.257428"><ele>127</ele><time>2022-03-30T10:12:05Z</time><name>PT505</name></trkpt>
<trkpt lat="54.472493" lon="-3.257462"><ele>127</ele><time>2022-03-30T10:12:08Z</time><name>PT506</name></trkpt>
<trkpt lat="54.472514" lon="-3.257483"><ele>127</ele><time>2022-03-30T10:12:12Z</time><name>PT507</name></trkpt>
<trkpt lat="54.472536" lon="-3.257511"><ele>128</ele><time>2022-03-30T10:12:15Z</time><name>PT508</name></trkpt>
<trkpt lat="54.472561" lon="-3.257549"><ele>126</ele><time>2022-03-30T10:12:20Z</time><name>PT509</name></trkpt>
<trkpt lat="54.472583" lon="-3.257582"><ele>127</ele><time>2022-03-30T10:12:23Z</time><name>PT510</name></trkpt>
<trkpt lat="54.472606" lon="-3.257609"><ele>127</ele><time>2022-03-30T10:12:26Z</time><name>PT511</name></trkpt>
<trkpt lat="54.472640" lon="-3.257654"><ele>127</ele><time>2022-03-30T10:12:29Z</time><name>PT512</name></trkpt>
<trkpt lat="54.472664" lon="-3.257681"><ele>128</ele><time>2022-03-30T10:12:32Z</time><name>PT513</name></trkpt>
<trkpt lat="54.472700" lon="-3.257722"><ele>129</ele><time>2022-03-30T10:12:36Z</time><name>PT514</name></trkpt>
<trkpt lat="54.472723" lon="-3.257757"><ele>129</ele><time>2022-03-30T10:12:39Z</time><name>PT515</name></trkpt>
<trkpt lat="54.472759" lon="-3.257795"><ele>130</ele><time>2022-03-30T10:12:44Z</time><name>PT516</name></trkpt>
<trkpt lat="54.472782" lon="-3.257834"><ele>130</ele><time>2022-03-30T10:12:47Z</time><name>PT517</name></trkpt>
<trkpt lat="54.472805" lon="-3.257876"><ele>131</ele><time>2022-03-30T10:12:50Z</time><name>PT518</name></trkpt>
<trkpt lat="54.472823" lon="-3.257920"><ele>132</ele><time>2022-03-30T10:12:53Z</time><name>PT519</name></trkpt>
<trkpt lat="54.472853" lon="-3.257976"><ele>132</ele><time>2022-03-30T10:12:56Z</time><name>PT520</name></trkpt>
<trkpt lat="54.472871" lon="-3.258018"><ele>131</ele><time>2022-03-30T10:12:59Z</time><name>PT521</name></trkpt>
<trkpt lat="54.472899" lon="-3.258074"><ele>133</ele><time>2022-03-30T10:13:03Z</time><name>PT522</name></trkpt>
<trkpt lat="54.472929" lon="-3.258128"><ele>133</ele><time>2022-03-30T10:13:08Z</time><name>PT523</name></trkpt>
<trkpt lat="54.472954" lon="-3.258162"><ele>134</ele><time>2022-03-30T10:13:11Z</time><name>PT524</name></trkpt>
<trkpt lat="54.472989" lon="-3.258187"><ele>135</ele><time>2022-03-30T10:13:14Z</time><name>PT525</name></trkpt>
<trkpt lat="54.473037" lon="-3.258194"><ele>135</ele><time>2022-03-30T10:13:17Z</time><name>PT526</name></trkpt>
<trkpt lat="54.473072" lon="-3.258195"><ele>135</ele><time>2022-03-30T10:13:20Z</time><name>PT527</name></trkpt>
<trkpt lat="54.473114" lon="-3.258206"><ele>134</ele><time>2022-03-30T10:13:24Z</time><name>PT528</name></trkpt>
<trkpt lat="54.473140" lon="-3.258205"><ele>135</ele><time>2022-03-30T10:13:27Z</time><name>PT529</name></trkpt>
<trkpt lat="54.473144" lon="-3.258209"><ele>136</ele><time>2022-03-30T10:13:32Z</time><name>PT530</name></trkpt>
<trkpt lat="54.473175" lon="-3.258213"><ele>136</ele><time>2022-03-30T10:13:54Z</time><name>PT531</name></trkpt>
<trkpt lat="54.473237" lon="-3.258209"><ele>136</ele><time>2022-03-30T10:13:59Z</time><name>PT532</name></trkpt>
<trkpt lat="54.473294" lon="-3.258239"><ele>135</ele><time>2022-03-30T10:14:02Z</time><name>PT533</name></trkpt>
<trkpt lat="54.473333" lon="-3.258265"><ele>135</ele><time>2022-03-30T10:14:05Z</time><name>PT534</name></trkpt>
<trkpt lat="54.473376" lon="-3.258316"><ele>136</ele><time>2022-03-30T10:14:09Z</time><name>PT535</name></trkpt>
<trkpt lat="54.473423" lon="-3.258372"><ele>135</ele><time>2022-03-30T10:14:14Z</time><name>PT536</name></trkpt>
<trkpt lat="54.473480" lon="-3.258416"><ele>137</ele><time>2022-03-30T10:14:17Z</time><name>PT537</name></trkpt>
<trkpt lat="54.473538" lon="-3.258442"><ele>137</ele><time>2022-03-30T10:14:21Z</time><name>PT538</name></trkpt>
<trkpt lat="54.473580" lon="-3.258460"><ele>136</ele><time>2022-03-30T10:14:24Z</time><name>PT539</name></trkpt>
<trkpt lat="54.473615" lon="-3.258498"><ele>136</ele><time>2022-03-30T10:14:27Z</time><name>PT540</name></trkpt>
<trkpt lat="54.473654" lon="-3.258519"><ele>135</ele><time>2022-03-30T10:14:30Z</time><name>PT541</name></trkpt>
<trkpt lat="54.473701" lon="-3.258546"><ele>134</ele><time>2022-03-30T10:14:35Z</time><name>PT542</name></trkpt>
<trkpt lat="54.473741" lon="-3.258569"><ele>133</ele><time>2022-03-30T10:14:38Z</time><name>PT543</name></trkpt>
<trkpt lat="54.473794" lon="-3.258592"><ele>133</ele><time>2022-03-30T10:14:41Z</time><name>PT544</name></trkpt>
<trkpt lat="54.473842" lon="-3.258598"><ele>133</ele><time>2022-03-30T10:14:45Z</time><name>PT545</name></trkpt>
<trkpt lat="54.473872" lon="-3.258614"><ele>133</ele><time>2022-03-30T10:14:50Z</time><name>PT546</name></trkpt>
<trkpt lat="54.473904" lon="-3.258639"><ele>132</ele><time>2022-03-30T10:14:53Z</time><name>PT547</name></trkpt>
<trkpt lat="54.473943" lon="-3.258650"><ele>129</ele><time>2022-03-30T10:14:57Z</time><name>PT548</name></trkpt>
<trkpt lat="54.473989" lon="-3.258668"><ele>128</ele><time>2022-03-30T10:15:02Z</time><name>PT549</name></trkpt>
<trkpt lat="54.474019" lon="-3.258689"><ele>126</ele><time>2022-03-30T10:15:05Z</time><name>PT550</name></trkpt>
<trkpt lat="54.474068" lon="-3.258704"><ele>124</ele><time>2022-03-30T10:15:08Z</time><name>PT551</name></trkpt>
<trkpt lat="54.474120" lon="-3.258731"><ele>124</ele><time>2022-03-30T10:15:12Z</time><name>PT552</name></trkpt>
<trkpt lat="54.474161" lon="-3.258741"><ele>125</ele><time>2022-03-30T10:15:15Z</time><name>PT553</name></trkpt>
<trkpt lat="54.474186" lon="-3.258759"><ele>123</ele><time>2022-03-30T10:15:18Z</time><name>PT554</name></trkpt>
<trkpt lat="54.474241" lon="-3.258780"><ele>124</ele><time>2022-03-30T10:15:23Z</time><name>PT555</name></trkpt>
<trkpt lat="54.474282" lon="-3.258784"><ele>124</ele><time>2022-03-30T10:15:26Z</time><name>PT556</name></trkpt>
<trkpt lat="54.474322" lon="-3.258808"><ele>124</ele><time>2022-03-30T10:15:29Z</time><name>PT557</name></trkpt>
<trkpt lat="54.474358" lon="-3.258822"><ele>124</ele><time>2022-03-30T10:15:32Z</time><name>PT558</name></trkpt>
<trkpt lat="54.474416" lon="-3.258828"><ele>125</ele><time>2022-03-30T10:15:36Z</time><name>PT559</name></trkpt>
<trkpt lat="54.474473" lon="-3.258832"><ele>125</ele><time>2022-03-30T10:15:41Z</time><name>PT560</name></trkpt>
<trkpt lat="54.474505" lon="-3.258847"><ele>126</ele><time>2022-03-30T10:15:44Z</time><name>PT561</name></trkpt>
<trkpt lat="54.474552" lon="-3.258847"><ele>124</ele><time>2022-03-30T10:15:47Z</time><name>PT562</name></trkpt>
<trkpt lat="54.474594" lon="-3.258858"><ele>127</ele><time>2022-03-30T10:15:51Z</time><name>PT563</name></trkpt>
<trkpt lat="54.474628" lon="-3.258868"><ele>127</ele><time>2022-03-30T10:15:54Z</time><name>PT564</name></trkpt>
<trkpt lat="54.474665" lon="-3.258879"><ele>125</ele><time>2022-03-30T10:15:59Z</time><name>PT565</name></trkpt>
<trkpt lat="54.474703" lon="-3.258888"><ele>125</ele><time>2022-03-30T10:16:02Z</time><name>PT566</name></trkpt>
<trkpt lat="54.474743" lon="-3.258915"><ele>125</ele><time>2022-03-30T10:16:05Z</time><name>PT567</name></trkpt>
<trkpt lat="54.474764" lon="-3.258938"><ele>124</ele><time>2022-03-30T10:16:08Z</time><name>PT568</name></trkpt>
<trkpt lat="54.474778" lon="-3.258964"><ele>123</ele><time>2022-03-30T10:16:11Z</time><name>PT569</name></trkpt>
<trkpt lat="54.474803" lon="-3.259008"><ele>124</ele><time>2022-03-30T10:16:15Z</time><name>PT570</name></trkpt>
<trkpt lat="54.474826" lon="-3.259051"><ele>126</ele><time>2022-03-30T10:16:18Z</time><name>PT571</name></trkpt>
<trkpt lat="54.474844" lon="-3.259095"><ele>126</ele><time>2022-03-30T10:16:21Z</time><name>PT572</name></trkpt>
<trkpt lat="54.474865" lon="-3.259126"><ele>127</ele><time>2022-03-30T10:16:24Z</time><name>PT573</name></trkpt>
<trkpt lat="54.474896" lon="-3.259161"><ele>128</ele><time>2022-03-30T10:16:29Z</time><name>PT574</name></trkpt>
<trkpt lat="54.474914" lon="-3.259199"><ele>128</ele><time>2022-03-30T10:16:32Z</time><name>PT575</name></trkpt>
<trkpt lat="54.474939" lon="-3.259250"><ele>129</ele><time>2022-03-30T10:16:35Z</time><name>PT576</name></trkpt>
<trkpt lat="54.474970" lon="-3.259288"><ele>129</ele><time>2022-03-30T10:16:39Z</time><name>PT577</name></trkpt>
<trkpt lat="54.475007" lon="-3.259321"><ele>128</ele><time>2022-03-30T10:16:44Z</time><name>PT578</name></trkpt>
<trkpt lat="54.475055" lon="-3.259352"><ele>131</ele><time>2022-03-30T10:16:47Z</time><name>PT579</name></trkpt>
<trkpt lat="54.475104" lon="-3.259396"><ele>134</ele><time>2022-03-30T10:16:50Z</time><name>PT580</name></trkpt>
<trkpt lat="54.475134" lon="-3.259420"><ele>135</ele><time>2022-03-30T10:16:53Z</time><name>PT581</name></trkpt>
<trkpt lat="54.475161" lon="-3.259440"><ele>133</ele><time>2022-03-30T10:16:56Z</time><name>PT582</name></trkpt>
<trkpt lat="54.475187" lon="-3.259476"><ele>132</ele><time>2022-03-30T10:17:00Z</time><name>PT583</name></trkpt>
<trkpt lat="54.475213" lon="-3.259501"><ele>131</ele><time>2022-03-30T10:17:03Z</time><name>PT584</name></trkpt>
<trkpt lat="54.475238" lon="-3.259524"><ele>129</ele><time>2022-03-30T10:17:08Z</time><name>PT585</name></trkpt>
<trkpt lat="54.475268" lon="-3.259540"><ele>130</ele><time>2022-03-30T10:17:11Z</time><name>PT586</name></trkpt>
<trkpt lat="54.475299" lon="-3.259564"><ele>130</ele><time>2022-03-30T10:17:14Z</time><name>PT587</name></trkpt>
<trkpt lat="54.475331" lon="-3.259594"><ele>130</ele><time>2022-03-30T10:17:17Z</time><name>PT588</name></trkpt>
<trkpt lat="54.475386" lon="-3.259635"><ele>132</ele><time>2022-03-30T10:17:21Z</time><name>PT589</name></trkpt>
<trkpt lat="54.475416" lon="-3.259658"><ele>132</ele><time>2022-03-30T10:17:24Z</time><name>PT590</name></trkpt>
<trkpt lat="54.475444" lon="-3.259702"><ele>132</ele><time>2022-03-30T10:17:27Z</time><name>PT591</name></trkpt>
<trkpt lat="54.475485" lon="-3.259740"><ele>132</ele><time>2022-03-30T10:17:32Z</time><name>PT592</name></trkpt>
<trkpt lat="54.475501" lon="-3.259754"><ele>129</ele><time>2022-03-30T10:17:35Z</time><name>PT593</name></trkpt>
<trkpt lat="54.475549" lon="-3.259780"><ele>131</ele><time>2022-03-30T10:17:38Z</time><name>PT594</name></trkpt>
<trkpt lat="54.475581" lon="-3.259821"><ele>131</ele><time>2022-03-30T10:17:42Z</time><name>PT595</name></trkpt>
<trkpt lat="54.475606" lon="-3.259858"><ele>132</ele><time>2022-03-30T10:17:45Z</time><name>PT596</name></trkpt>
<trkpt lat="54.475642" lon="-3.259892"><ele>134</ele><time>2022-03-30T10:17:48Z</time><name>PT597</name></trkpt>
<trkpt lat="54.475677" lon="-3.259948"><ele>133</ele><time>2022-03-30T10:17:53Z</time><name>PT598</name></trkpt>
<trkpt lat="54.475711" lon="-3.259987"><ele>134</ele><time>2022-03-30T10:17:56Z</time><name>PT599</name></trkpt>
<trkpt lat="54.475739" lon="-3.260023"><ele>131</ele><time>2022-03-30T10:17:59Z</time><name>PT600</name></trkpt>
<trkpt lat="54.475763" lon="-3.260064"><ele>130</ele><time>2022-03-30T10:18:02Z</time><name>PT601</name></trkpt>
<trkpt lat="54.475796" lon="-3.260107"><ele>130</ele><time>2022-03-30T10:18:06Z</time><name>PT602</name></trkpt>
<trkpt lat="54.475828" lon="-3.260149"><ele>130</ele><time>2022-03-30T10:18:11Z</time><name>PT603</name></trkpt>
<trkpt lat="54.475862" lon="-3.260176"><ele>131</ele><time>2022-03-30T10:18:14Z</time><name>PT604</name></trkpt>
<trkpt lat="54.475919" lon="-3.260184"><ele>132</ele><time>2022-03-30T10:18:17Z</time><name>PT605</name></trkpt>
<trkpt lat="54.475955" lon="-3.260211"><ele>132</ele><time>2022-03-30T10:18:20Z</time><name>PT606</name></trkpt>
<trkpt lat="54.475999" lon="-3.260250"><ele>132</ele><time>2022-03-30T10:18:24Z</time><name>PT607</name></trkpt>
<trkpt lat="54.476018" lon="-3.260259"><ele>131</ele><time>2022-03-30T10:18:27Z</time><name>PT608</name></trkpt>
<trkpt lat="54.476050" lon="-3.260282"><ele>131</ele><time>2022-03-30T10:18:30Z</time><name>PT609</name></trkpt>
<trkpt lat="54.476099" lon="-3.260313"><ele>134</ele><time>2022-03-30T10:18:35Z</time><name>PT610</name></trkpt>
<trkpt lat="54.476139" lon="-3.260340"><ele>132</ele><time>2022-03-30T10:18:38Z</time><name>PT611</name></trkpt>
<trkpt lat="54.476190" lon="-3.260367"><ele>135</ele><time>2022-03-30T10:18:42Z</time><name>PT612</name></trkpt>
<trkpt lat="54.476222" lon="-3.260384"><ele>134</ele><time>2022-03-30T10:18:45Z</time><name>PT613</name></trkpt>
<trkpt lat="54.476278" lon="-3.260403"><ele>136</ele><time>2022-03-30T10:18:50Z</time><name>PT614</name></trkpt>
<trkpt lat="54.476312" lon="-3.260431"><ele>138</ele><time>2022-03-30T10:18:53Z</time><name>PT615</name></trkpt>
<trkpt lat="54.476339" lon="-3.260455"><ele>137</ele><time>2022-03-30T10:18:56Z</time><name>PT616</name></trkpt>
<trkpt lat="54.476385" lon="-3.260494"><ele>137</ele><time>2022-03-30T10:18:59Z</time><name>PT617</name></trkpt>
<trkpt lat="54.476424" lon="-3.260542"><ele>137</ele><time>2022-03-30T10:19:03Z</time><name>PT618</name></trkpt>
<trkpt lat="54.476465" lon="-3.260582"><ele>138</ele><time>2022-03-30T10:19:08Z</time><name>PT619</name></trkpt>
<trkpt lat="54.476502" lon="-3.260593"><ele>138</ele><time>2022-03-30T10:19:11Z</time><name>PT620</name></trkpt>
<trkpt lat="54.476552" lon="-3.260605"><ele>137</ele><time>2022-03-30T10:19:14Z</time><name>PT621</name></trkpt>
<trkpt lat="54.476584" lon="-3.260611"><ele>137</ele><time>2022-03-30T10:19:17Z</time><name>PT622</name></trkpt>
<trkpt lat="54.476629" lon="-3.260610"><ele>136</ele><time>2022-03-30T10:19:21Z</time><name>PT623</name></trkpt>
<trkpt lat="54.476668" lon="-3.260603"><ele>135</ele><time>2022-03-30T10:19:26Z</time><name>PT624</name></trkpt>
<trkpt lat="54.476709" lon="-3.260624"><ele>134</ele><time>2022-03-30T10:19:29Z</time><name>PT625</name></trkpt>
<trkpt lat="54.476748" lon="-3.260629"><ele>135</ele><time>2022-03-30T10:19:32Z</time><name>PT626</name></trkpt>
<trkpt lat="54.476782" lon="-3.260672"><ele>134</ele><time>2022-03-30T10:19:36Z</time><name>PT627</name></trkpt>
<trkpt lat="54.476805" lon="-3.260692"><ele>132</ele><time>2022-03-30T10:19:39Z</time><name>PT628</name></trkpt>
<trkpt lat="54.476829" lon="-3.260714"><ele>131</ele><time>2022-03-30T10:19:42Z</time><name>PT629</name></trkpt>
<trkpt lat="54.476854" lon="-3.260749"><ele>131</ele><time>2022-03-30T10:19:45Z</time><name>PT630</name></trkpt>
<trkpt lat="54.476878" lon="-3.260777"><ele>132</ele><time>2022-03-30T10:19:48Z</time><name>PT631</name></trkpt>
<trkpt lat="54.476904" lon="-3.260798"><ele>132</ele><time>2022-03-30T10:19:53Z</time><name>PT632</name></trkpt>
<trkpt lat="54.476924" lon="-3.260810"><ele>132</ele><time>2022-03-30T10:19:56Z</time><name>PT633</name></trkpt>
<trkpt lat="54.476953" lon="-3.260827"><ele>133</ele><time>2022-03-30T10:19:59Z</time><name>PT634</name></trkpt>
<trkpt lat="54.476987" lon="-3.260880"><ele>132</ele><time>2022-03-30T10:20:03Z</time><name>PT635</name></trkpt>
<trkpt lat="54.477026" lon="-3.260933"><ele>134</ele><time>2022-03-30T10:20:08Z</time><name>PT636</name></trkpt>
<trkpt lat="54.477058" lon="-3.260973"><ele>136</ele><time>2022-03-30T10:20:11Z</time><name>PT637</name></trkpt>
<trkpt lat="54.477081" lon="-3.261004"><ele>136</ele><time>2022-03-30T10:20:14Z</time><name>PT638</name></trkpt>
<trkpt lat="54.477120" lon="-3.261051"><ele>137</ele><time>2022-03-30T10:20:17Z</time><name>PT639</name></trkpt>
<trkpt lat="54.477133" lon="-3.261059"><ele>137</ele><time>2022-03-30T10:20:18Z</time><name>PT640</name></trkpt>
<trkpt lat="54.477137" lon="-3.261076"><ele>136</ele><time>2022-03-30T10:20:20Z</time><name>PT641</name></trkpt>
<trkpt lat="54.477143" lon="-3.261092"><ele>135</ele><time>2022-03-30T10:20:20Z</time><name>PT642</name></trkpt>
<trkpt lat="54.477151" lon="-3.261108"><ele>135</ele><time>2022-03-30T10:20:21Z</time><name>PT643</name></trkpt>
<trkpt lat="54.477160" lon="-3.261122"><ele>135</ele><time>2022-03-30T10:20:23Z</time><name>PT644</name></trkpt>
<trkpt lat="54.477168" lon="-3.261134"><ele>135</ele><time>2022-03-30T10:20:23Z</time><name>PT645</name></trkpt>
<trkpt lat="54.477176" lon="-3.261148"><ele>136</ele><time>2022-03-30T10:20:24Z</time><name>PT646</name></trkpt>
<trkpt lat="54.477185" lon="-3.261166"><ele>136</ele><time>2022-03-30T10:20:26Z</time><name>PT647</name></trkpt>
<trkpt lat="54.477195" lon="-3.261183"><ele>136</ele><time>2022-03-30T10:20:26Z</time><name>PT648</name></trkpt>
<trkpt lat="54.477200" lon="-3.261200"><ele>136</ele><time>2022-03-30T10:20:27Z</time><name>PT649</name></trkpt>
<trkpt lat="54.477207" lon="-3.261211"><ele>136</ele><time>2022-03-30T10:20:29Z</time><name>PT650</name></trkpt>
<trkpt lat="54.477217" lon="-3.261220"><ele>136</ele><time>2022-03-30T10:20:29Z</time><name>PT651</name></trkpt>
<trkpt lat="54.477224" lon="-3.261239"><ele>135</ele><time>2022-03-30T10:20:31Z</time><name>PT652</name></trkpt>
<trkpt lat="54.477228" lon="-3.261249"><ele>135</ele><time>2022-03-30T10:20:32Z</time><name>PT653</name></trkpt>
<trkpt lat="54.477231" lon="-3.261256"><ele>135</ele><time>2022-03-30T10:20:32Z</time><name>PT654</name></trkpt>
<trkpt lat="54.477238" lon="-3.261269"><ele>135</ele><time>2022-03-30T10:20:33Z</time><name>PT655</name></trkpt>
<trkpt lat="54.477251" lon="-3.261281"><ele>135</ele><time>2022-03-30T10:20:35Z</time><name>PT656</name></trkpt>
<trkpt lat="54.477256" lon="-3.261286"><ele>135</ele><time>2022-03-30T10:20:35Z</time><name>PT657</name></trkpt>
<trkpt lat="54.477265" lon="-3.261294"><ele>135</ele><time>2022-03-30T10:20:36Z</time><name>PT658</name></trkpt>
<trkpt lat="54.477279" lon="-3.261306"><ele>135</ele><time>2022-03-30T10:20:38Z</time><name>PT659</name></trkpt>
<trkpt lat="54.477288" lon="-3.261319"><ele>136</ele><time>2022-03-30T10:20:38Z</time><name>PT660</name></trkpt>
<trkpt lat="54.477289" lon="-3.261331"><ele>133</ele><time>2022-03-30T10:20:39Z</time><name>PT661</name></trkpt>
<trkpt lat="54.477297" lon="-3.261340"><ele>134</ele><time>2022-03-30T10:20:41Z</time><name>PT662</name></trkpt>
<trkpt lat="54.477306" lon="-3.261345"><ele>134</ele><time>2022-03-30T10:20:41Z</time><name>PT663</name></trkpt>
<trkpt lat="54.477317" lon="-3.261351"><ele>133</ele><time>2022-03-30T10:20:42Z</time><name>PT664</name></trkpt>
<trkpt lat="54.477327" lon="-3.261360"><ele>133</ele><time>2022-03-30T10:20:44Z</time><name>PT665</name></trkpt>
<trkpt lat="54.477340" lon="-3.261373"><ele>134</ele><time>2022-03-30T10:20:44Z</time><name>PT666</name></trkpt>
<trkpt lat="54.477349" lon="-3.261388"><ele>133</ele><time>2022-03-30T10:20:45Z</time><name>PT667</name></trkpt>
<trkpt lat="54.477359" lon="-3.261405"><ele>134</ele><time>2022-03-30T10:20:47Z</time><name>PT668</name></trkpt>
<trkpt lat="54.477369" lon="-3.261420"><ele>134</ele><time>2022-03-30T10:20:47Z</time><name>PT669</name></trkpt>
<trkpt lat="54.477377" lon="-3.261435"><ele>134</ele><time>2022-03-30T10:20:48Z</time><name>PT670</name></trkpt>
<trkpt lat="54.477388" lon="-3.261449"><ele>134</ele><time>2022-03-30T10:20:50Z</time><name>PT671</name></trkpt>
<trkpt lat="54.477398" lon="-3.261463"><ele>134</ele><time>2022-03-30T10:20:50Z</time><name>PT672</name></trkpt>
<trkpt lat="54.477405" lon="-3.261474"><ele>134</ele><time>2022-03-30T10:20:51Z</time><name>PT673</name></trkpt>
<trkpt lat="54.477413" lon="-3.261488"><ele>134</ele><time>2022-03-30T10:20:53Z</time><name>PT674</name></trkpt>
<trkpt lat="54.477426" lon="-3.261508"><ele>135</ele><time>2022-03-30T10:20:53Z</time><name>PT675</name></trkpt>
<trkpt lat="54.477433" lon="-3.261522"><ele>134</ele><time>2022-03-30T10:20:54Z</time><name>PT676</name></trkpt>
<trkpt lat="54.477445" lon="-3.261538"><ele>135</ele><time>2022-03-30T10:20:56Z</time><name>PT677</name></trkpt>
<trkpt lat="54.477453" lon="-3.261551"><ele>134</ele><time>2022-03-30T10:20:56Z</time><name>PT678</name></trkpt>
<trkpt lat="54.477461" lon="-3.261565"><ele>134</ele><time>2022-03-30T10:20:57Z</time><name>PT679</name></trkpt>
<trkpt lat="54.477467" lon="-3.261576"><ele>134</ele><time>2022-03-30T10:20:59Z</time><name>PT680</name></trkpt>
<trkpt lat="54.477478" lon="-3.261588"><ele>134</ele><time>2022-03-30T10:20:59Z</time><name>PT681</name></trkpt>
<trkpt lat="54.477492" lon="-3.261600"><ele>135</ele><time>2022-03-30T10:21:00Z</time><name>PT682</name></trkpt>
<trkpt lat="54.477500" lon="-3.261609"><ele>135</ele><time>2022-03-30T10:21:02Z</time><name>PT683</name></trkpt>
<trkpt lat="54.477510" lon="-3.261612"><ele>135</ele><time>2022-03-30T10:21:02Z</time><name>PT684</name></trkpt>
<trkpt lat="54.477524" lon="-3.261620"><ele>136</ele><time>2022-03-30T10:21:03Z</time><name>PT685</name></trkpt>
<trkpt lat="54.477533" lon="-3.261624"><ele>135</ele><time>2022-03-30T10:21:05Z</time><name>PT686</name></trkpt>
<trkpt lat="54.477544" lon="-3.261630"><ele>135</ele><time>2022-03-30T10:21:05Z</time><name>PT687</name></trkpt>
<trkpt lat="54.477555" lon="-3.261640"><ele>136</ele><time>2022-03-30T10:21:06Z</time><name>PT688</name></trkpt>
<trkpt lat="54.477559" lon="-3.261649"><ele>135</ele><time>2022-03-30T10:21:08Z</time><name>PT689</name></trkpt>
<trkpt lat="54.477568" lon="-3.261659"><ele>135</ele><time>2022-03-30T10:21:08Z</time><name>PT690</name></trkpt>
<trkpt lat="54.477578" lon="-3.261665"><ele>135</ele><time>2022-03-30T10:21:09Z</time><name>PT691</name></trkpt>
<trkpt lat="54.477584" lon="-3.261676"><ele>135</ele><time>2022-03-30T10:21:11Z</time><name>PT692</name></trkpt>
<trkpt lat="54.477589" lon="-3.261689"><ele>134</ele><time>2022-03-30T10:21:11Z</time><name>PT693</name></trkpt>
<trkpt lat="54.477590" lon="-3.261702"><ele>134</ele><time>2022-03-30T10:21:12Z</time><name>PT694</name></trkpt>
<trkpt lat="54.477593" lon="-3.261713"><ele>134</ele><time>2022-03-30T10:21:14Z</time><name>PT695</name></trkpt>
<trkpt lat="54.477594" lon="-3.261723"><ele>134</ele><time>2022-03-30T10:21:14Z</time><name>PT696</name></trkpt>
<trkpt lat="54.477599" lon="-3.261732"><ele>134</ele><time>2022-03-30T10:21:15Z</time><name>PT697</name></trkpt>
<trkpt lat="54.477597" lon="-3.261736"><ele>133</ele><time>2022-03-30T10:21:17Z</time><name>PT698</name></trkpt>
<trkpt lat="54.477597" lon="-3.261738"><ele>133</ele><time>2022-03-30T10:21:17Z</time><name>PT699</name></trkpt>
<trkpt lat="54.477599" lon="-3.261741"><ele>133</ele><time>2022-03-30T10:21:18Z</time><name>PT700</name></trkpt>
<trkpt lat="54.477604" lon="-3.261742"><ele>133</ele><time>2022-03-30T10:21:20Z</time><name>PT701</name></trkpt>
<trkpt lat="54.477609" lon="-3.261745"><ele>133</ele><time>2022-03-30T10:21:20Z</time><name>PT702</name></trkpt>
<trkpt lat="54.477614" lon="-3.261744"><ele>133</ele><time>2022-03-30T10:21:21Z</time><name>PT703</name></trkpt>
<trkpt lat="54.477623" lon="-3.261743"><ele>133</ele><time>2022-03-30T10:21:23Z</time><name>PT704</name></trkpt>
<trkpt lat="54.477631" lon="-3.261746"><ele>133</ele><time>2022-03-30T10:21:23Z</time><name>PT705</name></trkpt>
<trkpt lat="54.477636" lon="-3.261749"><ele>133</ele><time>2022-03-30T10:21:24Z</time><name>PT706</name></trkpt>
<trkpt lat="54.477644" lon="-3.261754"><ele>133</ele><time>2022-03-30T10:21:26Z</time><name>PT707</name></trkpt>
<trkpt lat="54.477655" lon="-3.261755"><ele>134</ele><time>2022-03-30T10:21:26Z</time><name>PT708</name></trkpt>
<trkpt lat="54.477668" lon="-3.261761"><ele>135</ele><time>2022-03-30T10:21:27Z</time><name>PT709</name></trkpt>
<trkpt lat="54.477678" lon="-3.261761"><ele>136</ele><time>2022-03-30T10:21:29Z</time><name>PT710</name></trkpt>
<trkpt lat="54.477685" lon="-3.261758"><ele>135</ele><time>2022-03-30T10:21:29Z</time><name>PT711</name></trkpt>
<trkpt lat="54.477693" lon="-3.261760"><ele>135</ele><time>2022-03-30T10:21:30Z</time><name>PT712</name></trkpt>
<trkpt lat="54.477703" lon="-3.261762"><ele>136</ele><time>2022-03-30T10:21:32Z</time><name>PT713</name></trkpt>
<trkpt lat="54.477710" lon="-3.261761"><ele>136</ele><time>2022-03-30T10:21:32Z</time><name>PT714</name></trkpt>
<trkpt lat="54.477717" lon="-3.261757"><ele>136</ele><time>2022-03-30T10:21:33Z</time><name>PT715</name></trkpt>
<trkpt lat="54.477725" lon="-3.261753"><ele>136</ele><time>2022-03-30T10:21:35Z</time><name>PT716</name></trkpt>
<trkpt lat="54.477731" lon="-3.261752"><ele>136</ele><time>2022-03-30T10:21:35Z</time><name>PT717</name></trkpt>
<trkpt lat="54.477735" lon="-3.261753"><ele>136</ele><time>2022-03-30T10:21:36Z</time><name>PT718</name></trkpt>
<trkpt lat="54.477743" lon="-3.261753"><ele>136</ele><time>2022-03-30T10:21:38Z</time><name>PT719</name></trkpt>
<trkpt lat="54.477749" lon="-3.261752"><ele>136</ele><time>2022-03-30T10:21:38Z</time><name>PT720</name></trkpt>
<trkpt lat="54.477759" lon="-3.261753"><ele>136</ele><time>2022-03-30T10:21:39Z</time><name>PT721</name></trkpt>
<trkpt lat="54.477765" lon="-3.261754"><ele>137</ele><time>2022-03-30T10:21:41Z</time><name>PT722</name></trkpt>
<trkpt lat="54.477772" lon="-3.261753"><ele>137</ele><time>2022-03-30T10:21:41Z</time><name>PT723</name></trkpt>
<trkpt lat="54.477779" lon="-3.261750"><ele>137</ele><time>2022-03-30T10:21:42Z</time><name>PT724</name></trkpt>
<trkpt lat="54.477781" lon="-3.261748"><ele>137</ele><time>2022-03-30T10:21:44Z</time><name>PT725</name></trkpt>
<trkpt lat="54.477788" lon="-3.261747"><ele>137</ele><time>2022-03-30T10:21:44Z</time><name>PT726</name></trkpt>
<trkpt lat="54.477795" lon="-3.261744"><ele>137</ele><time>2022-03-30T10:21:45Z</time><name>PT727</name></trkpt>
<trkpt lat="54.477800" lon="-3.261743"><ele>137</ele><time>2022-03-30T10:21:47Z</time><name>PT728</name></trkpt>
<trkpt lat="54.477809" lon="-3.261742"><ele>138</ele><time>2022-03-30T10:21:47Z</time><name>PT729</name></trkpt>
<trkpt lat="54.477817" lon="-3.261739"><ele>138</ele><time>2022-03-30T10:21:48Z</time><name>PT730</name></trkpt>
<trkpt lat="54.477823" lon="-3.261736"><ele>138</ele><time>2022-03-30T10:21:50Z</time><name>PT731</name></trkpt>
<trkpt lat="54.477826" lon="-3.261732"><ele>138</ele><time>2022-03-30T10:21:50Z</time><name>PT732</name></trkpt>
<trkpt lat="54.477831" lon="-3.261727"><ele>137</ele><time>2022-03-30T10:21:51Z</time><name>PT733</name></trkpt>
<trkpt lat="54.477834" lon="-3.261722"><ele>137</ele><time>2022-03-30T10:21:53Z</time><name>PT734</name></trkpt>
<trkpt lat="54.477844" lon="-3.261721"><ele>137</ele><time>2022-03-30T10:21:53Z</time><name>PT735</name></trkpt>
<trkpt lat="54.477848" lon="-3.261705"><ele>136</ele><time>2022-03-30T10:21:54Z</time><name>PT736</name></trkpt>
<trkpt lat="54.477856" lon="-3.261699"><ele>135</ele><time>2022-03-30T10:21:56Z</time><name>PT737</name></trkpt>
<trkpt lat="54.477864" lon="-3.261699"><ele>136</ele><time>2022-03-30T10:21:56Z</time><name>PT738</name></trkpt>
<trkpt lat="54.477873" lon="-3.261700"><ele>136</ele><time>2022-03-30T10:21:57Z</time><name>PT739</name></trkpt>
<trkpt lat="54.477878" lon="-3.261700"><ele>136</ele><time>2022-03-30T10:21:59Z</time><name>PT740</name></trkpt>
<trkpt lat="54.477884" lon="-3.261703"><ele>136</ele><time>2022-03-30T10:21:59Z</time><name>PT741</name></trkpt>
<trkpt lat="54.477888" lon="-3.261701"><ele>136</ele><time>2022-03-30T10:22:00Z</time><name>PT742</name></trkpt>
<trkpt lat="54.477895" lon="-3.261701"><ele>136</ele><time>2022-03-30T10:22:02Z</time><name>PT743</name></trkpt>
<trkpt lat="54.477903" lon="-3.261700"><ele>136</ele><time>2022-03-30T10:22:02Z</time><name>PT744</name></trkpt>
<trkpt lat="54.477914" lon="-3.261699"><ele>137</ele><time>2022-03-30T10:22:03Z</time><name>PT745</name></trkpt>
<trkpt lat="54.477919" lon="-3.261700"><ele>136</ele><time>2022-03-30T10:22:05Z</time><name>PT746</name></trkpt>
<trkpt lat="54.477924" lon="-3.261697"><ele>136</ele><time>2022-03-30T10:22:05Z</time><name>PT747</name></trkpt>
<trkpt lat="54.477932" lon="-3.261694"><ele>136</ele><time>2022-03-30T10:22:06Z</time><name>PT748</name></trkpt>
<trkpt lat="54.477943" lon="-3.261690"><ele>136</ele><time>2022-03-30T10:22:08Z</time><name>PT749</name></trkpt>
<trkpt lat="54.477950" lon="-3.261690"><ele>136</ele><time>2022-03-30T10:22:08Z</time><name>PT750</name></trkpt>
<trkpt lat="54.477960" lon="-3.261691"><ele>137</ele><time>2022-03-30T10:22:09Z</time><name>PT751</name></trkpt>
<trkpt lat="54.477967" lon="-3.261691"><ele>137</ele><time>2022-03-30T10:22:11Z</time><name>PT752</name></trkpt>
<trkpt lat="54.477973" lon="-3.261688"><ele>137</ele><time>2022-03-30T10:22:11Z</time><name>PT753</name></trkpt>
<trkpt lat="54.477978" lon="-3.261689"><ele>136</ele><time>2022-03-30T10:22:12Z</time><name>PT754</name></trkpt>
<trkpt lat="54.477986" lon="-3.261691"><ele>136</ele><time>2022-03-30T10:22:14Z</time><name>PT755</name></trkpt>
<trkpt lat="54.477991" lon="-3.261690"><ele>136</ele><time>2022-03-30T10:22:14Z</time><name>PT756</name></trkpt>
<trkpt lat="54.478000" lon="-3.261689"><ele>137</ele><time>2022-03-30T10:22:15Z</time><name>PT757</name></trkpt>
<trkpt lat="54.478010" lon="-3.261688"><ele>137</ele><time>2022-03-30T10:22:17Z</time><name>PT758</name></trkpt>
<trkpt lat="54.478018" lon="-3.261685"><ele>138</ele><time>2022-03-30T10:22:17Z</time><name>PT759</name></trkpt>
<trkpt lat="54.478037" lon="-3.261676"><ele>138</ele><time>2022-03-30T10:22:20Z</time><name>PT760</name></trkpt>
<trkpt lat="54.478067" lon="-3.261669"><ele>138</ele><time>2022-03-30T10:22:24Z</time><name>PT761</name></trkpt>
<trkpt lat="54.478093" lon="-3.261680"><ele>139</ele><time>2022-03-30T10:22:29Z</time><name>PT762</name></trkpt>
<trkpt lat="54.478120" lon="-3.261682"><ele>141</ele><time>2022-03-30T10:22:32Z</time><name>PT763</name></trkpt>
<trkpt lat="54.478160" lon="-3.261680"><ele>145</ele><time>2022-03-30T10:22:35Z</time><name>PT764</name></trkpt>
<trkpt lat="54.478175" lon="-3.261673"><ele>145</ele><time>2022-03-30T10:22:38Z</time><name>PT765</name></trkpt>
<trkpt lat="54.478196" lon="-3.261663"><ele>145</ele><time>2022-03-30T10:22:42Z</time><name>PT766</name></trkpt>
<trkpt lat="54.478210" lon="-3.261662"><ele>145</ele><time>2022-03-30T10:22:45Z</time><name>PT767</name></trkpt>
<trkpt lat="54.478239" lon="-3.261661"><ele>146</ele><time>2022-03-30T10:22:48Z</time><name>PT768</name></trkpt>
<trkpt lat="54.478271" lon="-3.261668"><ele>148</ele><time>2022-03-30T10:22:53Z</time><name>PT769</name></trkpt>
<trkpt lat="54.478295" lon="-3.261680"><ele>149</ele><time>2022-03-30T10:22:56Z</time><name>PT770</name></trkpt>
<trkpt lat="54.478318" lon="-3.261679"><ele>149</ele><time>2022-03-30T10:22:59Z</time><name>PT771</name></trkpt>
<trkpt lat="54.478343" lon="-3.261675"><ele>149</ele><time>2022-03-30T10:23:03Z</time><name>PT772</name></trkpt>
<trkpt lat="54.478373" lon="-3.261671"><ele>150</ele><time>2022-03-30T10:23:06Z</time><name>PT773</name></trkpt>
<trkpt lat="54.478380" lon="-3.261650"><ele>148</ele><time>2022-03-30T10:23:09Z</time><name>PT774</name></trkpt>
<trkpt lat="54.478398" lon="-3.261623"><ele>149</ele><time>2022-03-30T10:23:12Z</time><name>PT775</name></trkpt>
<trkpt lat="54.478419" lon="-3.261587"><ele>149</ele><time>2022-03-30T10:23:17Z</time><name>PT776</name></trkpt>
<trkpt lat="54.478442" lon="-3.261554"><ele>150</ele><time>2022-03-30T10:23:20Z</time><name>PT777</name></trkpt>
<trkpt lat="54.478456" lon="-3.261513"><ele>150</ele><time>2022-03-30T10:23:23Z</time><name>PT778</name></trkpt>
<trkpt lat="54.478494" lon="-3.261472"><ele>152</ele><time>2022-03-30T10:23:26Z</time><name>PT779</name></trkpt>
<trkpt lat="54.478526" lon="-3.261445"><ele>154</ele><time>2022-03-30T10:23:29Z</time><name>PT780</name></trkpt>
<trkpt lat="54.478557" lon="-3.261413"><ele>155</ele><time>2022-03-30T10:23:33Z</time><name>PT781</name></trkpt>
<trkpt lat="54.478598" lon="-3.261374"><ele>158</ele><time>2022-03-30T10:23:38Z</time><name>PT782</name></trkpt>
<trkpt lat="54.478627" lon="-3.261351"><ele>156</ele><time>2022-03-30T10:23:41Z</time><name>PT783</name></trkpt>
<trkpt lat="54.478677" lon="-3.261355"><ele>158</ele><time>2022-03-30T10:23:45Z</time><name>PT784</name></trkpt>
<trkpt lat="54.478707" lon="-3.261360"><ele>159</ele><time>2022-03-30T10:23:48Z</time><name>PT785</name></trkpt>
<trkpt lat="54.478730" lon="-3.261371"><ele>158</ele><time>2022-03-30T10:23:51Z</time><name>PT786</name></trkpt>
<trkpt lat="54.478763" lon="-3.261372"><ele>159</ele><time>2022-03-30T10:23:54Z</time><name>PT787</name></trkpt>
<trkpt lat="54.478799" lon="-3.261379"><ele>160</ele><time>2022-03-30T10:23:57Z</time><name>PT788</name></trkpt>
<trkpt lat="54.478831" lon="-3.261389"><ele>160</ele><time>2022-03-30T10:24:02Z</time><name>PT789</name></trkpt>
<trkpt lat="54.478838" lon="-3.261397"><ele>159</ele><time>2022-03-30T10:24:02Z</time><name>PT790</name></trkpt>
<trkpt lat="54.478854" lon="-3.261400"><ele>160</ele><time>2022-03-30T10:24:03Z</time><name>PT791</name></trkpt>
<trkpt lat="54.478863" lon="-3.261415"><ele>161</ele><time>2022-03-30T10:24:05Z</time><name>PT792</name></trkpt>
<trkpt lat="54.478870" lon="-3.261431"><ele>162</ele><time>2022-03-30T10:24:05Z</time><name>PT793</name></trkpt>
<trkpt lat="54.478874" lon="-3.261442"><ele>162</ele><time>2022-03-30T10:24:06Z</time><name>PT794</name></trkpt>
<trkpt lat="54.478885" lon="-3.261445"><ele>162</ele><time>2022-03-30T10:24:08Z</time><name>PT795</name></trkpt>
<trkpt lat="54.478897" lon="-3.261449"><ele>163</ele><time>2022-03-30T10:24:08Z</time><name>PT796</name></trkpt>
<trkpt lat="54.478902" lon="-3.261446"><ele>163</ele><time>2022-03-30T10:24:09Z</time><name>PT797</name></trkpt>
<trkpt lat="54.478908" lon="-3.261447"><ele>163</ele><time>2022-03-30T10:24:11Z</time><name>PT798</name></trkpt>
<trkpt lat="54.478915" lon="-3.261452"><ele>163</ele><time>2022-03-30T10:24:11Z</time><name>PT799</name></trkpt>
<trkpt lat="54.478919" lon="-3.261456"><ele>163</ele><time>2022-03-30T10:24:12Z</time><name>PT800</name></trkpt>
<trkpt lat="54.478926" lon="-3.261466"><ele>163</ele><time>2022-03-30T10:24:14Z</time><name>PT801</name></trkpt>
<trkpt lat="54.478926" lon="-3.261477"><ele>163</ele><time>2022-03-30T10:24:14Z</time><name>PT802</name></trkpt>
<trkpt lat="54.478931" lon="-3.261486"><ele>163</ele><time>2022-03-30T10:24:15Z</time><name>PT803</name></trkpt>
<trkpt lat="54.478937" lon="-3.261498"><ele>162</ele><time>2022-03-30T10:24:17Z</time><name>PT804</name></trkpt>
<trkpt lat="54.478943" lon="-3.261511"><ele>162</ele><time>2022-03-30T10:24:17Z</time><name>PT805</name></trkpt>
<trkpt lat="54.478948" lon="-3.261519"><ele>163</ele><time>2022-03-30T10:24:18Z</time><name>PT806</name></trkpt>
<trkpt lat="54.478955" lon="-3.261529"><ele>163</ele><time>2022-03-30T10:24:20Z</time><name>PT807</name></trkpt>
<trkpt lat="54.478961" lon="-3.261533"><ele>163</ele><time>2022-03-30T10:24:20Z</time><name>PT808</name></trkpt>
<trkpt lat="54.478973" lon="-3.261536"><ele>162</ele><time>2022-03-30T10:24:21Z</time><name>PT809</name></trkpt>
<trkpt lat="54.478980" lon="-3.261546"><ele>163</ele><time>2022-03-30T10:24:23Z</time><name>PT810</name></trkpt>
<trkpt lat="54.478983" lon="-3.261557"><ele>162</ele><time>2022-03-30T10:24:23Z</time><name>PT811</name></trkpt>
<trkpt lat="54.478989" lon="-3.261567"><ele>161</ele><time>2022-03-30T10:24:24Z</time><name>PT812</name></trkpt>
<trkpt lat="54.479006" lon="-3.261590"><ele>163</ele><time>2022-03-30T10:24:26Z</time><name>PT813</name></trkpt>
<trkpt lat="54.479012" lon="-3.261599"><ele>164</ele><time>2022-03-30T10:24:26Z</time><name>PT814</name></trkpt>
<trkpt lat="54.479018" lon="-3.261606"><ele>163</ele><time>2022-03-30T10:24:27Z</time><name>PT815</name></trkpt>
<trkpt lat="54.479024" lon="-3.261619"><ele>163</ele><time>2022-03-30T10:24:29Z</time><name>PT816</name></trkpt>
<trkpt lat="54.479031" lon="-3.261625"><ele>163</ele><time>2022-03-30T10:24:29Z</time><name>PT817</name></trkpt>
<trkpt lat="54.479041" lon="-3.261635"><ele>163</ele><time>2022-03-30T10:24:30Z</time><name>PT818</name></trkpt>
<trkpt lat="54.479053" lon="-3.261654"><ele>164</ele><time>2022-03-30T10:24:32Z</time><name>PT819</name></trkpt>
<trkpt lat="54.479063" lon="-3.261668"><ele>164</ele><time>2022-03-30T10:24:32Z</time><name>PT820</name></trkpt>
<trkpt lat="54.479075" lon="-3.261680"><ele>165</ele><time>2022-03-30T10:24:33Z</time><name>PT821</name></trkpt>
<trkpt lat="54.479087" lon="-3.261693"><ele>166</ele><time>2022-03-30T10:24:35Z</time><name>PT822</name></trkpt>
<trkpt lat="54.479098" lon="-3.261706"><ele>167</ele><time>2022-03-30T10:24:35Z</time><name>PT823</name></trkpt>
<trkpt lat="54.479107" lon="-3.261715"><ele>168</ele><time>2022-03-30T10:24:36Z</time><name>PT824</name></trkpt>
<trkpt lat="54.479115" lon="-3.261727"><ele>168</ele><time>2022-03-30T10:24:38Z</time><name>PT825</name></trkpt>
<trkpt lat="54.479125" lon="-3.261740"><ele>168</ele><time>2022-03-30T10:24:38Z</time><name>PT826</name></trkpt>
<trkpt lat="54.479134" lon="-3.261750"><ele>168</ele><time>2022-03-30T10:24:39Z</time><name>PT827</name></trkpt>
<trkpt lat="54.479141" lon="-3.261761"><ele>168</ele><time>2022-03-30T10:24:41Z</time><name>PT828</name></trkpt>
<trkpt lat="54.479149" lon="-3.261770"><ele>169</ele><time>2022-03-30T10:24:41Z</time><name>PT829</name></trkpt>
<trkpt lat="54.479152" lon="-3.261773"><ele>168</ele><time>2022-03-30T10:24:42Z</time><name>PT830</name></trkpt>
<trkpt lat="54.479163" lon="-3.261780"><ele>169</ele><time>2022-03-30T10:24:44Z</time><name>PT831</name></trkpt>
<trkpt lat="54.479169" lon="-3.261787"><ele>168</ele><time>2022-03-30T10:24:44Z</time><name>PT832</name></trkpt>
<trkpt lat="54.479172" lon="-3.261794"><ele>167</ele><time>2022-03-30T10:24:45Z</time><name>PT833</name></trkpt>
<trkpt lat="54.479177" lon="-3.261800"><ele>167</ele><time>2022-03-30T10:24:47Z</time><name>PT834</name></trkpt>
<trkpt lat="54.479180" lon="-3.261811"><ele>165</ele><time>2022-03-30T10:24:47Z</time><name>PT835</name></trkpt>
<trkpt lat="54.479185" lon="-3.261825"><ele>166</ele><time>2022-03-30T10:24:48Z</time><name>PT836</name></trkpt>
<trkpt lat="54.479189" lon="-3.261828"><ele>165</ele><time>2022-03-30T10:24:50Z</time><name>PT837</name></trkpt>
<trkpt lat="54.479190" lon="-3.261833"><ele>164</ele><time>2022-03-30T10:24:50Z</time><name>PT838</name></trkpt>
<trkpt lat="54.479192" lon="-3.261840"><ele>164</ele><time>2022-03-30T10:24:51Z</time><name>PT839</name></trkpt>
<trkpt lat="54.479195" lon="-3.261845"><ele>164</ele><time>2022-03-30T10:24:53Z</time><name>PT840</name></trkpt>
<trkpt lat="54.479194" lon="-3.261852"><ele>162</ele><time>2022-03-30T10:24:53Z</time><name>PT841</name></trkpt>
<trkpt lat="54.479198" lon="-3.261857"><ele>162</ele><time>2022-03-30T10:24:54Z</time><name>PT842</name></trkpt>
<trkpt lat="54.479198" lon="-3.261862"><ele>161</ele><time>2022-03-30T10:24:56Z</time><name>PT843</name></trkpt>
<trkpt lat="54.479205" lon="-3.261871"><ele>161</ele><time>2022-03-30T10:24:56Z</time><name>PT844</name></trkpt>
<trkpt lat="54.479211" lon="-3.261872"><ele>160</ele><time>2022-03-30T10:24:57Z</time><name>PT845</name></trkpt>
<trkpt lat="54.479216" lon="-3.261879"><ele>160</ele><time>2022-03-30T10:24:59Z</time><name>PT846</name></trkpt>
<trkpt lat="54.479219" lon="-3.261884"><ele>160</ele><time>2022-03-30T10:24:59Z</time><name>PT847</name></trkpt>
<trkpt lat="54.479226" lon="-3.261891"><ele>160</ele><time>2022-03-30T10:25:00Z</time><name>PT848</name></trkpt>
<trkpt lat="54.479235" lon="-3.261908"><ele>161</ele><time>2022-03-30T10:25:02Z</time><name>PT849</name></trkpt>
<trkpt lat="54.479231" lon="-3.261903"><ele>158</ele><time>2022-03-30T10:25:02Z</time><name>PT850</name></trkpt>
<trkpt lat="54.479241" lon="-3.261914"><ele>158</ele><time>2022-03-30T10:25:03Z</time><name>PT851</name></trkpt>
<trkpt lat="54.479249" lon="-3.261919"><ele>158</ele><time>2022-03-30T10:25:05Z</time><name>PT852</name></trkpt>
<trkpt lat="54.479258" lon="-3.261930"><ele>158</ele><time>2022-03-30T10:25:05Z</time><name>PT853</name></trkpt>
<trkpt lat="54.479275" lon="-3.261949"><ele>161</ele><time>2022-03-30T10:25:06Z</time><name>PT854</name></trkpt>
<trkpt lat="54.479280" lon="-3.261956"><ele>161</ele><time>2022-03-30T10:25:08Z</time><name>PT855</name></trkpt>
<trkpt lat="54.479285" lon="-3.261963"><ele>160</ele><time>2022-03-30T10:25:08Z</time><name>PT856</name></trkpt>
<trkpt lat="54.479291" lon="-3.261972"><ele>160</ele><time>2022-03-30T10:25:09Z</time><name>PT857</name></trkpt>
<trkpt lat="54.479294" lon="-3.261982"><ele>160</ele><time>2022-03-30T10:25:11Z</time><name>PT858</name></trkpt>
<trkpt lat="54.479301" lon="-3.261994"><ele>160</ele><time>2022-03-30T10:25:11Z</time><name>PT859</name></trkpt>
<trkpt lat="54.479307" lon="-3.262007"><ele>161</ele><time>2022-03-30T10:25:12Z</time><name>PT860</name></trkpt>
<trkpt lat="54.479314" lon="-3.262018"><ele>161</ele><time>2022-03-30T10:25:14Z</time><name>PT861</name></trkpt>
<trkpt lat="54.479321" lon="-3.262031"><ele>160</ele><time>2022-03-30T10:25:14Z</time><name>PT862</name></trkpt>
<trkpt lat="54.479327" lon="-3.262049"><ele>162</ele><time>2022-03-30T10:25:15Z</time><name>PT863</name></trkpt>
<trkpt lat="54.479329" lon="-3.262062"><ele>161</ele><time>2022-03-30T10:25:17Z</time><name>PT864</name></trkpt>
<trkpt lat="54.479336" lon="-3.262076"><ele>161</ele><time>2022-03-30T10:25:17Z</time><name>PT865</name></trkpt>
<trkpt lat="54.479340" lon="-3.262086"><ele>161</ele><time>2022-03-30T10:25:18Z</time><name>PT866</name></trkpt>
<trkpt lat="54.479342" lon="-3.262089"><ele>159</ele><time>2022-03-30T10:25:20Z</time><name>PT867</name></trkpt>
<trkpt lat="54.479343" lon="-3.262092"><ele>158</ele><time>2022-03-30T10:25:20Z</time><name>PT868</name></trkpt>
<trkpt lat="54.479355" lon="-3.262103"><ele>158</ele><time>2022-03-30T10:25:21Z</time><name>PT869</name></trkpt>
<trkpt lat="54.479368" lon="-3.262115"><ele>158</ele><time>2022-03-30T10:25:23Z</time><name>PT870</name></trkpt>
<trkpt lat="54.479376" lon="-3.262123"><ele>158</ele><time>2022-03-30T10:25:23Z</time><name>PT871</name></trkpt>
<trkpt lat="54.479389" lon="-3.262136"><ele>159</ele><time>2022-03-30T10:25:24Z</time><name>PT872</name></trkpt>
<trkpt lat="54.479396" lon="-3.262144"><ele>158</ele><time>2022-03-30T10:25:26Z</time><name>PT873</name></trkpt>
<trkpt lat="54.479408" lon="-3.262162"><ele>160</ele><time>2022-03-30T10:25:26Z</time><name>PT874</name></trkpt>
<trkpt lat="54.479416" lon="-3.262174"><ele>160</ele><time>2022-03-30T10:25:27Z</time><name>PT875</name></trkpt>
<trkpt lat="54.479424" lon="-3.262184"><ele>161</ele><time>2022-03-30T10:25:29Z</time><name>PT876</name></trkpt>
<trkpt lat="54.479431" lon="-3.262196"><ele>160</ele><time>2022-03-30T10:25:29Z</time><name>PT877</name></trkpt>
<trkpt lat="54.479441" lon="-3.262202"><ele>161</ele><time>2022-03-30T10:25:30Z</time><name>PT878</name></trkpt>
<trkpt lat="54.479449" lon="-3.262209"><ele>161</ele><time>2022-03-30T10:25:32Z</time><name>PT879</name></trkpt>
<trkpt lat="54.479464" lon="-3.262218"><ele>161</ele><time>2022-03-30T10:25:32Z</time><name>PT880</name></trkpt>
<trkpt lat="54.479469" lon="-3.262219"><ele>160</ele><time>2022-03-30T10:25:33Z</time><name>PT881</name></trkpt>
<trkpt lat="54.479479" lon="-3.262222"><ele>160</ele><time>2022-03-30T10:25:35Z</time><name>PT882</name></trkpt>
<trkpt lat="54.479492" lon="-3.262224"><ele>160</ele><time>2022-03-30T10:25:35Z</time><name>PT883</name></trkpt>
<trkpt lat="54.479501" lon="-3.262226"><ele>160</ele><time>2022-03-30T10:25:36Z</time><name>PT884</name></trkpt>
<trkpt lat="54.479512" lon="-3.262230"><ele>160</ele><time>2022-03-30T10:25:38Z</time><name>PT885</name></trkpt>
<trkpt lat="54.479527" lon="-3.262240"><ele>161</ele><time>2022-03-30T10:25:38Z</time><name>PT886</name></trkpt>
<trkpt lat="54.479535" lon="-3.262245"><ele>162</ele><time>2022-03-30T10:25:39Z</time><name>PT887</name></trkpt>
<trkpt lat="54.479543" lon="-3.262252"><ele>162</ele><time>2022-03-30T10:25:41Z</time><name>PT888</name></trkpt>
<trkpt lat="54.479555" lon="-3.262266"><ele>163</ele><time>2022-03-30T10:25:41Z</time><name>PT889</name></trkpt>
<trkpt lat="54.479565" lon="-3.262282"><ele>162</ele><time>2022-03-30T10:25:42Z</time><name>PT890</name></trkpt>
<trkpt lat="54.479568" lon="-3.262295"><ele>161</ele><time>2022-03-30T10:25:44Z</time><name>PT891</name></trkpt>
<trkpt lat="54.479572" lon="-3.262303"><ele>160</ele><time>2022-03-30T10:25:44Z</time><name>PT892</name></trkpt>
<trkpt lat="54.479580" lon="-3.262315"><ele>160</ele><time>2022-03-30T10:25:45Z</time><name>PT893</name></trkpt>
<trkpt lat="54.479587" lon="-3.262326"><ele>159</ele><time>2022-03-30T10:25:47Z</time><name>PT894</name></trkpt>
<trkpt lat="54.479602" lon="-3.262330"><ele>159</ele><time>2022-03-30T10:25:47Z</time><name>PT895</name></trkpt>
<trkpt lat="54.479613" lon="-3.262331"><ele>159</ele><time>2022-03-30T10:25:48Z</time><name>PT896</name></trkpt>
<trkpt lat="54.479624" lon="-3.262334"><ele>158</ele><time>2022-03-30T10:25:50Z</time><name>PT897</name></trkpt>
<trkpt lat="54.479635" lon="-3.262332"><ele>158</ele><time>2022-03-30T10:25:50Z</time><name>PT898</name></trkpt>
<trkpt lat="54.479642" lon="-3.262332"><ele>157</ele><time>2022-03-30T10:25:51Z</time><name>PT899</name></trkpt>
<trkpt lat="54.479654" lon="-3.262340"><ele>158</ele><time>2022-03-30T10:25:53Z</time><name>PT900</name></trkpt>
<trkpt lat="54.479660" lon="-3.262343"><ele>157</ele><time>2022-03-30T10:25:53Z</time><name>PT901</name></trkpt>
<trkpt lat="54.479669" lon="-3.262349"><ele>157</ele><time>2022-03-30T10:25:54Z</time><name>PT902</name></trkpt>
<trkpt lat="54.479682" lon="-3.262354"><ele>158</ele><time>2022-03-30T10:25:56Z</time><name>PT903</name></trkpt>
<trkpt lat="54.479689" lon="-3.262357"><ele>157</ele><time>2022-03-30T10:25:56Z</time><name>PT904</name></trkpt>
<trkpt lat="54.479697" lon="-3.262358"><ele>157</ele><time>2022-03-30T10:25:57Z</time><name>PT905</name></trkpt>
<trkpt lat="54.479703" lon="-3.262364"><ele>157</ele><time>2022-03-30T10:25:59Z</time><name>PT906</name></trkpt>
<trkpt lat="54.479716" lon="-3.262367"><ele>158</ele><time>2022-03-30T10:25:59Z</time><name>PT907</name></trkpt>
<trkpt lat="54.479725" lon="-3.262370"><ele>159</ele><time>2022-03-30T10:26:00Z</time><name>PT908</name></trkpt>
<trkpt lat="54.479745" lon="-3.262374"><ele>157</ele><time>2022-03-30T10:26:03Z</time><name>PT909</name></trkpt>
<trkpt lat="54.479788" lon="-3.262378"><ele>158</ele><time>2022-03-30T10:26:08Z</time><name>PT910</name></trkpt>
<trkpt lat="54.479816" lon="-3.262390"><ele>157</ele><time>2022-03-30T10:26:11Z</time><name>PT911</name></trkpt>
<trkpt lat="54.479853" lon="-3.262404"><ele>157</ele><time>2022-03-30T10:26:15Z</time><name>PT912</name></trkpt>
<trkpt lat="54.479881" lon="-3.262394"><ele>157</ele><time>2022-03-30T10:26:18Z</time><name>PT913</name></trkpt>
<trkpt lat="54.479927" lon="-3.262397"><ele>157</ele><time>2022-03-30T10:26:23Z</time><name>PT914</name></trkpt>
<trkpt lat="54.479956" lon="-3.262401"><ele>157</ele><time>2022-03-30T10:26:26Z</time><name>PT915</name></trkpt>
<trkpt lat="54.479994" lon="-3.262392"><ele>160</ele><time>2022-03-30T10:26:29Z</time><name>PT916</name></trkpt>
<trkpt lat="54.480037" lon="-3.262391"><ele>162</ele><time>2022-03-30T10:26:32Z</time><name>PT917</name></trkpt>
<trkpt lat="54.480063" lon="-3.262408"><ele>161</ele><time>2022-03-30T10:26:35Z</time><name>PT918</name></trkpt>
<trkpt lat="54.480088" lon="-3.262416"><ele>160</ele><time>2022-03-30T10:26:38Z</time><name>PT919</name></trkpt>
<trkpt lat="54.480111" lon="-3.262439"><ele>159</ele><time>2022-03-30T10:26:41Z</time><name>PT920</name></trkpt>
<trkpt lat="54.480161" lon="-3.262455"><ele>160</ele><time>2022-03-30T10:26:45Z</time><name>PT921</name></trkpt>
<trkpt lat="54.480215" lon="-3.262477"><ele>163</ele><time>2022-03-30T10:26:50Z</time><name>PT922</name></trkpt>
<trkpt lat="54.480243" lon="-3.262491"><ele>162</ele><time>2022-03-30T10:26:53Z</time><name>PT923</name></trkpt>
<trkpt lat="54.480269" lon="-3.262510"><ele>162</ele><time>2022-03-30T10:26:56Z</time><name>PT924</name></trkpt>
<trkpt lat="54.480308" lon="-3.262513"><ele>162</ele><time>2022-03-30T10:26:59Z</time><name>PT925</name></trkpt>
<trkpt lat="54.480335" lon="-3.262512"><ele>161</ele><time>2022-03-30T10:27:02Z</time><name>PT926</name></trkpt>
<trkpt lat="54.480362" lon="-3.262512"><ele>162</ele><time>2022-03-30T10:27:06Z</time><name>PT927</name></trkpt>
<trkpt lat="54.480358" lon="-3.262513"><ele>161</ele><time>2022-03-30T10:27:09Z</time><name>PT928</name></trkpt>
<trkpt lat="54.480384" lon="-3.262528"><ele>162</ele><time>2022-03-30T10:27:14Z</time><name>PT929</name></trkpt>
<trkpt lat="54.480420" lon="-3.262564"><ele>161</ele><time>2022-03-30T10:27:17Z</time><name>PT930</name></trkpt>
<trkpt lat="54.480439" lon="-3.262592"><ele>162</ele><time>2022-03-30T10:27:20Z</time><name>PT931</name></trkpt>
<trkpt lat="54.480457" lon="-3.262606"><ele>163</ele><time>2022-03-30T10:27:23Z</time><name>PT932</name></trkpt>
<trkpt lat="54.480491" lon="-3.262624"><ele>164</ele><time>2022-03-30T10:27:27Z</time><name>PT933</name></trkpt>
<trkpt lat="54.480524" lon="-3.262653"><ele>164</ele><time>2022-03-30T10:27:32Z</time><name>PT934</name></trkpt>
<trkpt lat="54.480563" lon="-3.262674"><ele>166</ele><time>2022-03-30T10:27:35Z</time><name>PT935</name></trkpt>
<trkpt lat="54.480597" lon="-3.262718"><ele>165</ele><time>2022-03-30T10:27:38Z</time><name>PT936</name></trkpt>
<trkpt lat="54.480620" lon="-3.262765"><ele>163</ele><time>2022-03-30T10:27:42Z</time><name>PT937</name></trkpt>
<trkpt lat="54.480647" lon="-3.262797"><ele>163</ele><time>2022-03-30T10:27:45Z</time><name>PT938</name></trkpt>
<trkpt lat="54.480676" lon="-3.262840"><ele>162</ele><time>2022-03-30T10:27:50Z</time><name>PT939</name></trkpt>
<trkpt lat="54.480698" lon="-3.262880"><ele>159</ele><time>2022-03-30T10:27:53Z</time><name>PT940</name></trkpt>
<trkpt lat="54.480725" lon="-3.262906"><ele>155</ele><time>2022-03-30T10:27:57Z</time><name>PT941</name></trkpt>
<trkpt lat="54.480756" lon="-3.262931"><ele>154</ele><time>2022-03-30T10:28:00Z</time><name>PT942</name></trkpt>
<trkpt lat="54.480795" lon="-3.263006"><ele>156</ele><time>2022-03-30T10:28:05Z</time><name>PT943</name></trkpt>
<trkpt lat="54.480822" lon="-3.263052"><ele>155</ele><time>2022-03-30T10:28:08Z</time><name>PT944</name></trkpt>
<trkpt lat="54.480848" lon="-3.263094"><ele>154</ele><time>2022-03-30T10:28:11Z</time><name>PT945</name></trkpt>
<trkpt lat="54.480882" lon="-3.263154"><ele>154</ele><time>2022-03-30T10:28:14Z</time><name>PT946</name></trkpt>
<trkpt lat="54.480913" lon="-3.263197"><ele>153</ele><time>2022-03-30T10:28:18Z</time><name>PT947</name></trkpt>
<trkpt lat="54.480951" lon="-3.263245"><ele>156</ele><time>2022-03-30T10:28:23Z</time><name>PT948</name></trkpt>
<trkpt lat="54.480976" lon="-3.263277"><ele>158</ele><time>2022-03-30T10:28:26Z</time><name>PT949</name></trkpt>
<trkpt lat="54.481005" lon="-3.263324"><ele>158</ele><time>2022-03-30T10:28:29Z</time><name>PT950</name></trkpt>
<trkpt lat="54.481026" lon="-3.263344"><ele>156</ele><time>2022-03-30T10:28:32Z</time><name>PT951</name></trkpt>
<trkpt lat="54.481072" lon="-3.263375"><ele>157</ele><time>2022-03-30T10:28:36Z</time><name>PT952</name></trkpt>
<trkpt lat="54.481125" lon="-3.263393"><ele>157</ele><time>2022-03-30T10:28:41Z</time><name>PT953</name></trkpt>
<trkpt lat="54.481167" lon="-3.263410"><ele>159</ele><time>2022-03-30T10:28:44Z</time><name>PT954</name></trkpt>
<trkpt lat="54.481192" lon="-3.263440"><ele>158</ele><time>2022-03-30T10:28:47Z</time><name>PT955</name></trkpt>
<trkpt lat="54.481225" lon="-3.263453"><ele>159</ele><time>2022-03-30T10:28:50Z</time><name>PT956</name></trkpt>
<trkpt lat="54.481276" lon="-3.263472"><ele>160</ele><time>2022-03-30T10:28:53Z</time><name>PT957</name></trkpt>
<trkpt lat="54.481323" lon="-3.263493"><ele>161</ele><time>2022-03-30T10:28:57Z</time><name>PT958</name></trkpt>
<trkpt lat="54.481358" lon="-3.263484"><ele>162</ele><time>2022-03-30T10:29:00Z</time><name>PT959</name></trkpt>
<trkpt lat="54.481389" lon="-3.263468"><ele>161</ele><time>2022-03-30T10:29:03Z</time><name>PT960</name></trkpt>
<trkpt lat="54.481423" lon="-3.263459"><ele>160</ele><time>2022-03-30T10:29:06Z</time><name>PT961</name></trkpt>
<trkpt lat="54.481475" lon="-3.263483"><ele>163</ele><time>2022-03-30T10:29:11Z</time><name>PT962</name></trkpt>
<trkpt lat="54.481505" lon="-3.263495"><ele>164</ele><time>2022-03-30T10:29:14Z</time><name>PT963</name></trkpt>
<trkpt lat="54.481544" lon="-3.263510"><ele>166</ele><time>2022-03-30T10:29:17Z</time><name>PT964</name></trkpt>
<trkpt lat="54.481573" lon="-3.263520"><ele>167</ele><time>2022-03-30T10:29:21Z</time><name>PT965</name></trkpt>
<trkpt lat="54.481604" lon="-3.263512"><ele>168</ele><time>2022-03-30T10:29:26Z</time><name>PT966</name></trkpt>
<trkpt lat="54.481647" lon="-3.263494"><ele>171</ele><time>2022-03-30T10:29:29Z</time><name>PT967</name></trkpt>
<trkpt lat="54.481670" lon="-3.263491"><ele>170</ele><time>2022-03-30T10:29:32Z</time><name>PT968</name></trkpt>
<trkpt lat="54.481701" lon="-3.263492"><ele>170</ele><time>2022-03-30T10:29:36Z</time><name>PT969</name></trkpt>
<trkpt lat="54.481725" lon="-3.263501"><ele>171</ele><time>2022-03-30T10:29:39Z</time><name>PT970</name></trkpt>
<trkpt lat="54.481755" lon="-3.263507"><ele>170</ele><time>2022-03-30T10:29:44Z</time><name>PT971</name></trkpt>
<trkpt lat="54.481782" lon="-3.263502"><ele>172</ele><time>2022-03-30T10:29:47Z</time><name>PT972</name></trkpt>
<trkpt lat="54.481800" lon="-3.263496"><ele>171</ele><time>2022-03-30T10:29:50Z</time><name>PT973</name></trkpt>
<trkpt lat="54.481813" lon="-3.263488"><ele>170</ele><time>2022-03-30T10:29:53Z</time><name>PT974</name></trkpt>
<trkpt lat="54.481848" lon="-3.263499"><ele>172</ele><time>2022-03-30T10:29:56Z</time><name>PT975</name></trkpt>
<trkpt lat="54.481871" lon="-3.263505"><ele>173</ele><time>2022-03-30T10:29:59Z</time><name>PT976</name></trkpt>
<trkpt lat="54.481905" lon="-3.263516"><ele>175</ele><time>2022-03-30T10:30:02Z</time><name>PT977</name></trkpt>
<trkpt lat="54.481952" lon="-3.263525"><ele>177</ele><time>2022-03-30T10:30:06Z</time><name>PT978</name></trkpt>
<trkpt lat="54.481994" lon="-3.263530"><ele>179</ele><time>2022-03-30T10:30:11Z</time><name>PT979</name></trkpt>
<trkpt lat="54.482018" lon="-3.263527"><ele>179</ele><time>2022-03-30T10:30:14Z</time><name>PT980</name></trkpt>
<trkpt lat="54.482041" lon="-3.263521"><ele>180</ele><time>2022-03-30T10:30:17Z</time><name>PT981</name></trkpt>
<trkpt lat="54.482067" lon="-3.263511"><ele>180</ele><time>2022-03-30T10:30:20Z</time><name>PT982</name></trkpt>
<trkpt lat="54.482098" lon="-3.263520"><ele>181</ele><time>2022-03-30T10:30:23Z</time><name>PT983</name></trkpt>
<trkpt lat="54.482136" lon="-3.263514"><ele>183</ele><time>2022-03-30T10:30:27Z</time><name>PT984</name></trkpt>
<trkpt lat="54.482168" lon="-3.263508"><ele>184</ele><time>2022-03-30T10:30:32Z</time><name>PT985</name></trkpt>
<trkpt lat="54.482199" lon="-3.263505"><ele>186</ele><time>2022-03-30T10:30:35Z</time><name>PT986</name></trkpt>
<trkpt lat="54.482228" lon="-3.263507"><ele>186</ele><time>2022-03-30T10:30:38Z</time><name>PT987</name></trkpt>
<trkpt lat="54.482238" lon="-3.263499"><ele>185</ele><time>2022-03-30T10:30:41Z</time><name>PT988</name></trkpt>
<trkpt lat="54.482250" lon="-3.263484"><ele>183</ele><time>2022-03-30T10:30:45Z</time><name>PT989</name></trkpt>
<trkpt lat="54.482274" lon="-3.263453"><ele>184</ele><time>2022-03-30T10:30:50Z</time><name>PT990</name></trkpt>
<trkpt lat="54.482319" lon="-3.263455"><ele>188</ele><time>2022-03-30T10:30:53Z</time><name>PT991</name></trkpt>
<trkpt lat="54.482345" lon="-3.263452"><ele>189</ele><time>2022-03-30T10:30:56Z</time><name>PT992</name></trkpt>
<trkpt lat="54.482374" lon="-3.263461"><ele>190</ele><time>2022-03-30T10:31:00Z</time><name>PT993</name></trkpt>
<trkpt lat="54.482394" lon="-3.263462"><ele>189</ele><time>2022-03-30T10:31:05Z</time><name>PT994</name></trkpt>
<trkpt lat="54.482418" lon="-3.263458"><ele>189</ele><time>2022-03-30T10:31:08Z</time><name>PT995</name></trkpt>
<trkpt lat="54.482444" lon="-3.263451"><ele>188</ele><time>2022-03-30T10:31:11Z</time><name>PT996</name></trkpt>
<trkpt lat="54.482469" lon="-3.263443"><ele>190</ele><time>2022-03-30T10:31:14Z</time><name>PT997</name></trkpt>
<trkpt lat="54.482493" lon="-3.263445"><ele>190</ele><time>2022-03-30T10:31:18Z</time><name>PT998</name></trkpt>
<trkpt lat="54.482513" lon="-3.263439"><ele>190</ele><time>2022-03-30T10:31:21Z</time><name>PT999</name></trkpt>
<trkpt lat="54.482537" lon="-3.263439"><ele>190</ele><time>2022-03-30T10:31:24Z</time><name>PT1000</name></trkpt>
<trkpt lat="54.482553" lon="-3.263441"><ele>189</ele><time>2022-03-30T10:31:27Z</time><name>PT1001</name></trkpt>
<trkpt lat="54.482574" lon="-3.263454"><ele>190</ele><time>2022-03-30T10:31:30Z</time><name>PT1002</name></trkpt>
<trkpt lat="54.482592" lon="-3.263461"><ele>190</ele><time>2022-03-30T10:31:33Z</time><name>PT1003</name></trkpt>
<trkpt lat="54.482598" lon="-3.263477"><ele>191</ele><time>2022-03-30T10:31:38Z</time><name>PT1004</name></trkpt>
<trkpt lat="54.482623" lon="-3.263495"><ele>190</ele><time>2022-03-30T10:31:41Z</time><name>PT1005</name></trkpt>
<trkpt lat="54.482645" lon="-3.263503"><ele>191</ele><time>2022-03-30T10:31:44Z</time><name>PT1006</name></trkpt>
<trkpt lat="54.482679" lon="-3.263508"><ele>194</ele><time>2022-03-30T10:31:48Z</time><name>PT1007</name></trkpt>
<trkpt lat="54.482726" lon="-3.263503"><ele>195</ele><time>2022-03-30T10:31:53Z</time><name>PT1008</name></trkpt>
<trkpt lat="54.482745" lon="-3.263498"><ele>196</ele><time>2022-03-30T10:31:56Z</time><name>PT1009</name></trkpt>
<trkpt lat="54.482750" lon="-3.263482"><ele>194</ele><time>2022-03-30T10:31:59Z</time><name>PT1010</name></trkpt>
<trkpt lat="54.482790" lon="-3.263465"><ele>196</ele><time>2022-03-30T10:32:02Z</time><name>PT1011</name></trkpt>
<trkpt lat="54.482820" lon="-3.263455"><ele>194</ele><time>2022-03-30T10:32:06Z</time><name>PT1012</name></trkpt>
<trkpt lat="54.482852" lon="-3.263469"><ele>194</ele><time>2022-03-30T10:32:11Z</time><name>PT1013</name></trkpt>
<trkpt lat="54.482883" lon="-3.263473"><ele>194</ele><time>2022-03-30T10:32:14Z</time><name>PT1014</name></trkpt>
<trkpt lat="54.482899" lon="-3.263474"><ele>191</ele><time>2022-03-30T10:32:18Z</time><name>PT1015</name></trkpt>
<trkpt lat="54.482924" lon="-3.263480"><ele>192</ele><time>2022-03-30T10:32:21Z</time><name>PT1016</name></trkpt>
<trkpt lat="54.482940" lon="-3.263478"><ele>192</ele><time>2022-03-30T10:32:24Z</time><name>PT1017</name></trkpt>
<trkpt lat="54.482966" lon="-3.263463"><ele>192</ele><time>2022-03-30T10:32:29Z</time><name>PT1018</name></trkpt>
<trkpt lat="54.482992" lon="-3.263470"><ele>193</ele><time>2022-03-30T10:32:32Z</time><name>PT1019</name></trkpt>
<trkpt lat="54.483012" lon="-3.263459"><ele>194</ele><time>2022-03-30T10:32:35Z</time><name>PT1020</name></trkpt>
<trkpt lat="54.483057" lon="-3.263453"><ele>197</ele><time>2022-03-30T10:32:38Z</time><name>PT1021</name></trkpt>
<trkpt lat="54.483087" lon="-3.263451"><ele>199</ele><time>2022-03-30T10:32:41Z</time><name>PT1022</name></trkpt>
<trkpt lat="54.483121" lon="-3.263438"><ele>201</ele><time>2022-03-30T10:32:45Z</time><name>PT1023</name></trkpt>
<trkpt lat="54.483143" lon="-3.263419"><ele>202</ele><time>2022-03-30T10:32:48Z</time><name>PT1024</name></trkpt>
<trkpt lat="54.483164" lon="-3.263383"><ele>202</ele><time>2022-03-30T10:32:53Z</time><name>PT1025</name></trkpt>
<trkpt lat="54.483168" lon="-3.263356"><ele>202</ele><time>2022-03-30T10:32:56Z</time><name>PT1026</name></trkpt>
<trkpt lat="54.483177" lon="-3.263325"><ele>202</ele><time>2022-03-30T10:32:59Z</time><name>PT1027</name></trkpt>
<trkpt lat="54.483206" lon="-3.263316"><ele>203</ele><time>2022-03-30T10:33:03Z</time><name>PT1028</name></trkpt>
<trkpt lat="54.483229" lon="-3.263299"><ele>203</ele><time>2022-03-30T10:33:08Z</time><name>PT1029</name></trkpt>
<trkpt lat="54.483248" lon="-3.263284"><ele>204</ele><time>2022-03-30T10:33:11Z</time><name>PT1030</name></trkpt>
<trkpt lat="54.483271" lon="-3.263261"><ele>205</ele><time>2022-03-30T10:33:14Z</time><name>PT1031</name></trkpt>
<trkpt lat="54.483277" lon="-3.263268"><ele>204</ele><time>2022-03-30T10:33:17Z</time><name>PT1032</name></trkpt>
<trkpt lat="54.483293" lon="-3.263265"><ele>202</ele><time>2022-03-30T10:33:20Z</time><name>PT1033</name></trkpt>
<trkpt lat="54.483328" lon="-3.263258"><ele>203</ele><time>2022-03-30T10:33:24Z</time><name>PT1034</name></trkpt>
<trkpt lat="54.483349" lon="-3.263251"><ele>203</ele><time>2022-03-30T10:33:27Z</time><name>PT1035</name></trkpt>
<trkpt lat="54.483373" lon="-3.263244"><ele>204</ele><time>2022-03-30T10:33:30Z</time><name>PT1036</name></trkpt>
<trkpt lat="54.483395" lon="-3.263236"><ele>206</ele><time>2022-03-30T10:33:33Z</time><name>PT1037</name></trkpt>
<trkpt lat="54.483414" lon="-3.263212"><ele>206</ele><time>2022-03-30T10:33:38Z</time><name>PT1038</name></trkpt>
<trkpt lat="54.483441" lon="-3.263188"><ele>207</ele><time>2022-03-30T10:33:41Z</time><name>PT1039</name></trkpt>
<trkpt lat="54.483471" lon="-3.263171"><ele>208</ele><time>2022-03-30T10:33:45Z</time><name>PT1040</name></trkpt>
<trkpt lat="54.483495" lon="-3.263166"><ele>210</ele><time>2022-03-30T10:33:48Z</time><name>PT1041</name></trkpt>
<trkpt lat="54.483507" lon="-3.263158"><ele>209</ele><time>2022-03-30T10:33:51Z</time><name>PT1042</name></trkpt>
<trkpt lat="54.483529" lon="-3.263163"><ele>208</ele><time>2022-03-30T10:33:56Z</time><name>PT1043</name></trkpt>
<trkpt lat="54.483559" lon="-3.263185"><ele>208</ele><time>2022-03-30T10:33:59Z</time><name>PT1044</name></trkpt>
<trkpt lat="54.483595" lon="-3.263181"><ele>210</ele><time>2022-03-30T10:34:03Z</time><name>PT1045</name></trkpt>
<trkpt lat="54.483630" lon="-3.263186"><ele>210</ele><time>2022-03-30T10:34:08Z</time><name>PT1046</name></trkpt>
<trkpt lat="54.483652" lon="-3.263189"><ele>210</ele><time>2022-03-30T10:34:11Z</time><name>PT1047</name></trkpt>
<trkpt lat="54.483674" lon="-3.263192"><ele>209</ele><time>2022-03-30T10:34:14Z</time><name>PT1048</name></trkpt>
<trkpt lat="54.483698" lon="-3.263185"><ele>211</ele><time>2022-03-30T10:34:17Z</time><name>PT1049</name></trkpt>
<trkpt lat="54.483719" lon="-3.263168"><ele>211</ele><time>2022-03-30T10:34:21Z</time><name>PT1050</name></trkpt>
<trkpt lat="54.483759" lon="-3.263174"><ele>212</ele><time>2022-03-30T10:34:26Z</time><name>PT1051</name></trkpt>
<trkpt lat="54.483782" lon="-3.263167"><ele>213</ele><time>2022-03-30T10:34:29Z</time><name>PT1052</name></trkpt>
<trkpt lat="54.483818" lon="-3.263148"><ele>215</ele><time>2022-03-30T10:34:32Z</time><name>PT1053</name></trkpt>
<trkpt lat="54.483829" lon="-3.263129"><ele>215</ele><time>2022-03-30T10:34:35Z</time><name>PT1054</name></trkpt>
<trkpt lat="54.483847" lon="-3.263118"><ele>215</ele><time>2022-03-30T10:34:39Z</time><name>PT1055</name></trkpt>
<trkpt lat="54.483864" lon="-3.263119"><ele>214</ele><time>2022-03-30T10:34:42Z</time><name>PT1056</name></trkpt>
<trkpt lat="54.483885" lon="-3.263108"><ele>215</ele><time>2022-03-30T10:34:45Z</time><name>PT1057</name></trkpt>
<trkpt lat="54.483914" lon="-3.263083"><ele>217</ele><time>2022-03-30T10:34:50Z</time><name>PT1058</name></trkpt>
<trkpt lat="54.483944" lon="-3.263084"><ele>218</ele><time>2022-03-30T10:34:53Z</time><name>PT1059</name></trkpt>
<trkpt lat="54.483974" lon="-3.263069"><ele>220</ele><time>2022-03-30T10:34:57Z</time><name>PT1060</name></trkpt>
<trkpt lat="54.483990" lon="-3.263053"><ele>221</ele><time>2022-03-30T10:35:00Z</time><name>PT1061</name></trkpt>
<trkpt lat="54.484015" lon="-3.263049"><ele>222</ele><time>2022-03-30T10:35:05Z</time><name>PT1062</name></trkpt>
<trkpt lat="54.484039" lon="-3.263044"><ele>224</ele><time>2022-03-30T10:35:08Z</time><name>PT1063</name></trkpt>
<trkpt lat="54.484046" lon="-3.263044"><ele>224</ele><time>2022-03-30T10:35:11Z</time><name>PT1064</name></trkpt>
<trkpt lat="54.484065" lon="-3.263036"><ele>224</ele><time>2022-03-30T10:35:14Z</time><name>PT1065</name></trkpt>
<trkpt lat="54.484099" lon="-3.263005"><ele>224</ele><time>2022-03-30T10:35:18Z</time><name>PT1066</name></trkpt>
<trkpt lat="54.484142" lon="-3.263015"><ele>226</ele><time>2022-03-30T10:35:23Z</time><name>PT1067</name></trkpt>
<trkpt lat="54.484173" lon="-3.263043"><ele>226</ele><time>2022-03-30T10:35:26Z</time><name>PT1068</name></trkpt>
<trkpt lat="54.484203" lon="-3.263062"><ele>228</ele><time>2022-03-30T10:35:29Z</time><name>PT1069</name></trkpt>
<trkpt lat="54.484224" lon="-3.263080"><ele>228</ele><time>2022-03-30T10:35:32Z</time><name>PT1070</name></trkpt>
<trkpt lat="54.484246" lon="-3.263066"><ele>228</ele><time>2022-03-30T10:35:36Z</time><name>PT1071</name></trkpt>
<trkpt lat="54.484271" lon="-3.263067"><ele>228</ele><time>2022-03-30T10:35:41Z</time><name>PT1072</name></trkpt>
<trkpt lat="54.484288" lon="-3.263057"><ele>226</ele><time>2022-03-30T10:35:44Z</time><name>PT1073</name></trkpt>
<trkpt lat="54.484318" lon="-3.263061"><ele>228</ele><time>2022-03-30T10:35:48Z</time><name>PT1074</name></trkpt>
<trkpt lat="54.484330" lon="-3.262987"><ele>228</ele><time>2022-03-30T10:35:57Z</time><name>PT1075</name></trkpt>
<trkpt lat="54.484358" lon="-3.262991"><ele>228</ele><time>2022-03-30T10:36:02Z</time><name>PT1076</name></trkpt>
<trkpt lat="54.484392" lon="-3.263005"><ele>227</ele><time>2022-03-30T10:36:05Z</time><name>PT1077</name></trkpt>
<trkpt lat="54.484417" lon="-3.262993"><ele>228</ele><time>2022-03-30T10:36:09Z</time><name>PT1078</name></trkpt>
<trkpt lat="54.484460" lon="-3.262977"><ele>229</ele><time>2022-03-30T10:36:14Z</time><name>PT1079</name></trkpt>
<trkpt lat="54.484485" lon="-3.262965"><ele>230</ele><time>2022-03-30T10:36:17Z</time><name>PT1080</name></trkpt>
<trkpt lat="54.484521" lon="-3.262952"><ele>232</ele><time>2022-03-30T10:36:20Z</time><name>PT1081</name></trkpt>
<trkpt lat="54.484546" lon="-3.262949"><ele>233</ele><time>2022-03-30T10:36:23Z</time><name>PT1082</name></trkpt>
<trkpt lat="54.484572" lon="-3.262925"><ele>235</ele><time>2022-03-30T10:36:27Z</time><name>PT1083</name></trkpt>
<trkpt lat="54.484598" lon="-3.262908"><ele>238</ele><time>2022-03-30T10:36:30Z</time><name>PT1084</name></trkpt>
<trkpt lat="54.484615" lon="-3.262894"><ele>238</ele><time>2022-03-30T10:36:33Z</time><name>PT1085</name></trkpt>
<trkpt lat="54.484625" lon="-3.262867"><ele>238</ele><time>2022-03-30T10:36:38Z</time><name>PT1086</name></trkpt>
<trkpt lat="54.484629" lon="-3.262854"><ele>239</ele><time>2022-03-30T10:36:41Z</time><name>PT1087</name></trkpt>
<trkpt lat="54.484633" lon="-3.262825"><ele>241</ele><time>2022-03-30T10:36:44Z</time><name>PT1088</name></trkpt>
<trkpt lat="54.484642" lon="-3.262797"><ele>242</ele><time>2022-03-30T10:36:48Z</time><name>PT1089</name></trkpt>
<trkpt lat="54.484654" lon="-3.262776"><ele>242</ele><time>2022-03-30T10:36:51Z</time><name>PT1090</name></trkpt>
<trkpt lat="54.484671" lon="-3.262758"><ele>243</ele><time>2022-03-30T10:36:56Z</time><name>PT1091</name></trkpt>
<trkpt lat="54.484683" lon="-3.262728"><ele>243</ele><time>2022-03-30T10:36:59Z</time><name>PT1092</name></trkpt>
<trkpt lat="54.484681" lon="-3.262715"><ele>241</ele><time>2022-03-30T10:37:03Z</time><name>PT1093</name></trkpt>
<trkpt lat="54.484683" lon="-3.262682"><ele>242</ele><time>2022-03-30T10:37:09Z</time><name>PT1094</name></trkpt>
<trkpt lat="54.484692" lon="-3.262675"><ele>242</ele><time>2022-03-30T10:37:12Z</time><name>PT1095</name></trkpt>
<trkpt lat="54.484706" lon="-3.262668"><ele>241</ele><time>2022-03-30T10:37:17Z</time><name>PT1096</name></trkpt>
<trkpt lat="54.484750" lon="-3.262621"><ele>241</ele><time>2022-03-30T10:37:27Z</time><name>PT1097</name></trkpt>
<trkpt lat="54.484773" lon="-3.262616"><ele>241</ele><time>2022-03-30T10:37:30Z</time><name>PT1098</name></trkpt>
<trkpt lat="54.484806" lon="-3.262601"><ele>243</ele><time>2022-03-30T10:37:35Z</time><name>PT1099</name></trkpt>
<trkpt lat="54.484823" lon="-3.262595"><ele>243</ele><time>2022-03-30T10:37:38Z</time><name>PT1100</name></trkpt>
<trkpt lat="54.484837" lon="-3.262576"><ele>242</ele><time>2022-03-30T10:37:41Z</time><name>PT1101</name></trkpt>
<trkpt lat="54.484849" lon="-3.262559"><ele>241</ele><time>2022-03-30T10:37:45Z</time><name>PT1102</name></trkpt>
<trkpt lat="54.484853" lon="-3.262516"><ele>241</ele><time>2022-03-30T10:37:50Z</time><name>PT1103</name></trkpt>
<trkpt lat="54.484865" lon="-3.262500"><ele>242</ele><time>2022-03-30T10:37:53Z</time><name>PT1104</name></trkpt>
<trkpt lat="54.484876" lon="-3.262491"><ele>243</ele><time>2022-03-30T10:37:56Z</time><name>PT1105</name></trkpt>
<trkpt lat="54.484915" lon="-3.262435"><ele>244</ele><time>2022-03-30T10:38:11Z</time><name>PT1106</name></trkpt>
<trkpt lat="54.484944" lon="-3.262395"><ele>246</ele><time>2022-03-30T10:38:14Z</time><name>PT1107</name></trkpt>
<trkpt lat="54.484969" lon="-3.262373"><ele>246</ele><time>2022-03-30T10:38:17Z</time><name>PT1108</name></trkpt>
<trkpt lat="54.484997" lon="-3.262349"><ele>247</ele><time>2022-03-30T10:38:21Z</time><name>PT1109</name></trkpt>
<trkpt lat="54.485014" lon="-3.262311"><ele>249</ele><time>2022-03-30T10:38:26Z</time><name>PT1110</name></trkpt>
<trkpt lat="54.485029" lon="-3.262289"><ele>249</ele><time>2022-03-30T10:38:29Z</time><name>PT1111</name></trkpt>
<trkpt lat="54.485048" lon="-3.262262"><ele>250</ele><time>2022-03-30T10:38:32Z</time><name>PT1112</name></trkpt>
<trkpt lat="54.485072" lon="-3.262238"><ele>251</ele><time>2022-03-30T10:38:36Z</time><name>PT1113</name></trkpt>
<trkpt lat="54.485106" lon="-3.262219"><ele>255</ele><time>2022-03-30T10:38:41Z</time><name>PT1114</name></trkpt>
<trkpt lat="54.485132" lon="-3.262190"><ele>256</ele><time>2022-03-30T10:38:44Z</time><name>PT1115</name></trkpt>
<trkpt lat="54.485156" lon="-3.262171"><ele>256</ele><time>2022-03-30T10:38:48Z</time><name>PT1116</name></trkpt>
<trkpt lat="54.485180" lon="-3.262140"><ele>258</ele><time>2022-03-30T10:38:53Z</time><name>PT1117</name></trkpt>
<trkpt lat="54.485206" lon="-3.262124"><ele>259</ele><time>2022-03-30T10:38:56Z</time><name>PT1118</name></trkpt>
<trkpt lat="54.485234" lon="-3.262104"><ele>260</ele><time>2022-03-30T10:38:59Z</time><name>PT1119</name></trkpt>
<trkpt lat="54.485259" lon="-3.262088"><ele>262</ele><time>2022-03-30T10:39:02Z</time><name>PT1120</name></trkpt>
<trkpt lat="54.485287" lon="-3.262070"><ele>264</ele><time>2022-03-30T10:39:06Z</time><name>PT1121</name></trkpt>
<trkpt lat="54.485317" lon="-3.262045"><ele>264</ele><time>2022-03-30T10:39:11Z</time><name>PT1122</name></trkpt>
<trkpt lat="54.485343" lon="-3.262018"><ele>265</ele><time>2022-03-30T10:39:14Z</time><name>PT1123</name></trkpt>
<trkpt lat="54.485376" lon="-3.261987"><ele>267</ele><time>2022-03-30T10:39:18Z</time><name>PT1124</name></trkpt>
<trkpt lat="54.485402" lon="-3.261967"><ele>268</ele><time>2022-03-30T10:39:23Z</time><name>PT1125</name></trkpt>
<trkpt lat="54.485429" lon="-3.261951"><ele>268</ele><time>2022-03-30T10:39:26Z</time><name>PT1126</name></trkpt>
<trkpt lat="54.485449" lon="-3.261916"><ele>268</ele><time>2022-03-30T10:39:29Z</time><name>PT1127</name></trkpt>
<trkpt lat="54.485464" lon="-3.261888"><ele>268</ele><time>2022-03-30T10:39:33Z</time><name>PT1128</name></trkpt>
<trkpt lat="54.485485" lon="-3.261850"><ele>269</ele><time>2022-03-30T10:39:38Z</time><name>PT1129</name></trkpt>
<trkpt lat="54.485498" lon="-3.261826"><ele>269</ele><time>2022-03-30T10:39:41Z</time><name>PT1130</name></trkpt>
<trkpt lat="54.485517" lon="-3.261799"><ele>269</ele><time>2022-03-30T10:39:44Z</time><name>PT1131</name></trkpt>
<trkpt lat="54.485533" lon="-3.261765"><ele>270</ele><time>2022-03-30T10:39:47Z</time><name>PT1132</name></trkpt>
<trkpt lat="54.485552" lon="-3.261736"><ele>269</ele><time>2022-03-30T10:39:51Z</time><name>PT1133</name></trkpt>
<trkpt lat="54.485568" lon="-3.261715"><ele>270</ele><time>2022-03-30T10:39:54Z</time><name>PT1134</name></trkpt>
<trkpt lat="54.485586" lon="-3.261689"><ele>271</ele><time>2022-03-30T10:39:59Z</time><name>PT1135</name></trkpt>
<trkpt lat="54.485599" lon="-3.261664"><ele>270</ele><time>2022-03-30T10:40:02Z</time><name>PT1136</name></trkpt>
<trkpt lat="54.485607" lon="-3.261634"><ele>270</ele><time>2022-03-30T10:40:05Z</time><name>PT1137</name></trkpt>
<trkpt lat="54.485637" lon="-3.261609"><ele>272</ele><time>2022-03-30T10:40:09Z</time><name>PT1138</name></trkpt>
<trkpt lat="54.485655" lon="-3.261595"><ele>271</ele><time>2022-03-30T10:40:14Z</time><name>PT1139</name></trkpt>
<trkpt lat="54.485664" lon="-3.261565"><ele>271</ele><time>2022-03-30T10:40:17Z</time><name>PT1140</name></trkpt>
<trkpt lat="54.485674" lon="-3.261544"><ele>272</ele><time>2022-03-30T10:40:20Z</time><name>PT1141</name></trkpt>
<trkpt lat="54.485691" lon="-3.261517"><ele>272</ele><time>2022-03-30T10:40:24Z</time><name>PT1142</name></trkpt>
<trkpt lat="54.485706" lon="-3.261493"><ele>273</ele><time>2022-03-30T10:40:27Z</time><name>PT1143</name></trkpt>
<trkpt lat="54.485730" lon="-3.261476"><ele>272</ele><time>2022-03-30T10:40:32Z</time><name>PT1144</name></trkpt>
<trkpt lat="54.485762" lon="-3.261454"><ele>275</ele><time>2022-03-30T10:40:35Z</time><name>PT1145</name></trkpt>
<trkpt lat="54.485790" lon="-3.261435"><ele>277</ele><time>2022-03-30T10:40:38Z</time><name>PT1146</name></trkpt>
<trkpt lat="54.485808" lon="-3.261425"><ele>277</ele><time>2022-03-30T10:40:41Z</time><name>PT1147</name></trkpt>
<trkpt lat="54.485825" lon="-3.261405"><ele>277</ele><time>2022-03-30T10:40:45Z</time><name>PT1148</name></trkpt>
<trkpt lat="54.485844" lon="-3.261382"><ele>277</ele><time>2022-03-30T10:40:50Z</time><name>PT1149</name></trkpt>
<trkpt lat="54.485862" lon="-3.261356"><ele>279</ele><time>2022-03-30T10:40:53Z</time><name>PT1150</name></trkpt>
<trkpt lat="54.485866" lon="-3.261339"><ele>278</ele><time>2022-03-30T10:40:56Z</time><name>PT1151</name></trkpt>
<trkpt lat="54.485878" lon="-3.261319"><ele>279</ele><time>2022-03-30T10:41:00Z</time><name>PT1152</name></trkpt>
<trkpt lat="54.485887" lon="-3.261295"><ele>278</ele><time>2022-03-30T10:41:03Z</time><name>PT1153</name></trkpt>
<trkpt lat="54.485905" lon="-3.261278"><ele>279</ele><time>2022-03-30T10:41:08Z</time><name>PT1154</name></trkpt>
<trkpt lat="54.485914" lon="-3.261259"><ele>280</ele><time>2022-03-30T10:41:11Z</time><name>PT1155</name></trkpt>
<trkpt lat="54.485933" lon="-3.261239"><ele>282</ele><time>2022-03-30T10:41:14Z</time><name>PT1156</name></trkpt>
<trkpt lat="54.485964" lon="-3.261211"><ele>286</ele><time>2022-03-30T10:41:17Z</time><name>PT1157</name></trkpt>
<trkpt lat="54.485981" lon="-3.261196"><ele>286</ele><time>2022-03-30T10:41:20Z</time><name>PT1158</name></trkpt>
<trkpt lat="54.486005" lon="-3.261189"><ele>288</ele><time>2022-03-30T10:41:24Z</time><name>PT1159</name></trkpt>
<trkpt lat="54.486041" lon="-3.261176"><ele>290</ele><time>2022-03-30T10:41:29Z</time><name>PT1160</name></trkpt>
<trkpt lat="54.486055" lon="-3.261156"><ele>289</ele><time>2022-03-30T10:41:32Z</time><name>PT1161</name></trkpt>
<trkpt lat="54.486058" lon="-3.261150"><ele>288</ele><time>2022-03-30T10:41:35Z</time><name>PT1162</name></trkpt>
<trkpt lat="54.486070" lon="-3.261129"><ele>289</ele><time>2022-03-30T10:41:39Z</time><name>PT1163</name></trkpt>
<trkpt lat="54.486094" lon="-3.261120"><ele>289</ele><time>2022-03-30T10:41:42Z</time><name>PT1164</name></trkpt>
<trkpt lat="54.486118" lon="-3.261103"><ele>291</ele><time>2022-03-30T10:41:47Z</time><name>PT1165</name></trkpt>
<trkpt lat="54.486138" lon="-3.261097"><ele>291</ele><time>2022-03-30T10:41:50Z</time><name>PT1166</name></trkpt>
<trkpt lat="54.486151" lon="-3.261100"><ele>291</ele><time>2022-03-30T10:41:53Z</time><name>PT1167</name></trkpt>
<trkpt lat="54.486151" lon="-3.261098"><ele>290</ele><time>2022-03-30T10:41:57Z</time><name>PT1168</name></trkpt>
<trkpt lat="54.486145" lon="-3.261101"><ele>290</ele><time>2022-03-30T10:42:09Z</time><name>PT1169</name></trkpt>
<trkpt lat="54.486148" lon="-3.261099"><ele>290</ele><time>2022-03-30T10:42:11Z</time><name>PT1170</name></trkpt>
<trkpt lat="54.486155" lon="-3.261098"><ele>290</ele><time>2022-03-30T10:42:11Z</time><name>PT1171</name></trkpt>
<trkpt lat="54.486159" lon="-3.261095"><ele>289</ele><time>2022-03-30T10:42:12Z</time><name>PT1172</name></trkpt>
<trkpt lat="54.486168" lon="-3.261085"><ele>289</ele><time>2022-03-30T10:42:14Z</time><name>PT1173</name></trkpt>
<trkpt lat="54.486174" lon="-3.261094"><ele>289</ele><time>2022-03-30T10:42:14Z</time><name>PT1174</name></trkpt>
<trkpt lat="54.486183" lon="-3.261105"><ele>289</ele><time>2022-03-30T10:42:15Z</time><name>PT1175</name></trkpt>
<trkpt lat="54.486183" lon="-3.261106"><ele>288</ele><time>2022-03-30T10:42:17Z</time><name>PT1176</name></trkpt>
<trkpt lat="54.486188" lon="-3.261108"><ele>288</ele><time>2022-03-30T10:42:17Z</time><name>PT1177</name></trkpt>
<trkpt lat="54.486194" lon="-3.261112"><ele>288</ele><time>2022-03-30T10:42:18Z</time><name>PT1178</name></trkpt>
<trkpt lat="54.486198" lon="-3.261118"><ele>288</ele><time>2022-03-30T10:42:20Z</time><name>PT1179</name></trkpt>
<trkpt lat="54.486202" lon="-3.261121"><ele>288</ele><time>2022-03-30T10:42:20Z</time><name>PT1180</name></trkpt>
<trkpt lat="54.486208" lon="-3.261124"><ele>288</ele><time>2022-03-30T10:42:21Z</time><name>PT1181</name></trkpt>
<trkpt lat="54.486211" lon="-3.261127"><ele>287</ele><time>2022-03-30T10:42:23Z</time><name>PT1182</name></trkpt>
<trkpt lat="54.486214" lon="-3.261132"><ele>288</ele><time>2022-03-30T10:42:23Z</time><name>PT1183</name></trkpt>
<trkpt lat="54.486224" lon="-3.261136"><ele>289</ele><time>2022-03-30T10:42:24Z</time><name>PT1184</name></trkpt>
<trkpt lat="54.486224" lon="-3.261143"><ele>289</ele><time>2022-03-30T10:42:26Z</time><name>PT1185</name></trkpt>
<trkpt lat="54.486225" lon="-3.261148"><ele>289</ele><time>2022-03-30T10:42:26Z</time><name>PT1186</name></trkpt>
<trkpt lat="54.486226" lon="-3.261154"><ele>289</ele><time>2022-03-30T10:42:27Z</time><name>PT1187</name></trkpt>
<trkpt lat="54.486233" lon="-3.261163"><ele>290</ele><time>2022-03-30T10:42:29Z</time><name>PT1188</name></trkpt>
<trkpt lat="54.486241" lon="-3.261169"><ele>290</ele><time>2022-03-30T10:42:29Z</time><name>PT1189</name></trkpt>
<trkpt lat="54.486245" lon="-3.261180"><ele>290</ele><time>2022-03-30T10:42:30Z</time><name>PT1190</name></trkpt>
<trkpt lat="54.486247" lon="-3.261188"><ele>290</ele><time>2022-03-30T10:42:32Z</time><name>PT1191</name></trkpt>
<trkpt lat="54.486252" lon="-3.261195"><ele>291</ele><time>2022-03-30T10:42:32Z</time><name>PT1192</name></trkpt>
<trkpt lat="54.486254" lon="-3.261199"><ele>291</ele><time>2022-03-30T10:42:33Z</time><name>PT1193</name></trkpt>
<trkpt lat="54.486253" lon="-3.261200"><ele>290</ele><time>2022-03-30T10:42:35Z</time><name>PT1194</name></trkpt>
<trkpt lat="54.486257" lon="-3.261199"><ele>291</ele><time>2022-03-30T10:42:35Z</time><name>PT1195</name></trkpt>
<trkpt lat="54.486261" lon="-3.261207"><ele>291</ele><time>2022-03-30T10:42:36Z</time><name>PT1196</name></trkpt>
<trkpt lat="54.486266" lon="-3.261214"><ele>291</ele><time>2022-03-30T10:42:38Z</time><name>PT1197</name></trkpt>
<trkpt lat="54.486266" lon="-3.261219"><ele>291</ele><time>2022-03-30T10:42:38Z</time><name>PT1198</name></trkpt>
<trkpt lat="54.486270" lon="-3.261224"><ele>292</ele><time>2022-03-30T10:42:39Z</time><name>PT1199</name></trkpt>
<trkpt lat="54.486273" lon="-3.261234"><ele>292</ele><time>2022-03-30T10:42:41Z</time><name>PT1200</name></trkpt>
<trkpt lat="54.486272" lon="-3.261242"><ele>291</ele><time>2022-03-30T10:42:41Z</time><name>PT1201</name></trkpt>
<trkpt lat="54.486274" lon="-3.261255"><ele>291</ele><time>2022-03-30T10:42:42Z</time><name>PT1202</name></trkpt>
<trkpt lat="54.486271" lon="-3.261273"><ele>291</ele><time>2022-03-30T10:42:44Z</time><name>PT1203</name></trkpt>
<trkpt lat="54.486269" lon="-3.261290"><ele>291</ele><time>2022-03-30T10:42:44Z</time><name>PT1204</name></trkpt>
<trkpt lat="54.486263" lon="-3.261305"><ele>290</ele><time>2022-03-30T10:42:45Z</time><name>PT1205</name></trkpt>
<trkpt lat="54.486258" lon="-3.261321"><ele>290</ele><time>2022-03-30T10:42:47Z</time><name>PT1206</name></trkpt>
<trkpt lat="54.486259" lon="-3.261336"><ele>290</ele><time>2022-03-30T10:42:47Z</time><name>PT1207</name></trkpt>
<trkpt lat="54.486256" lon="-3.261347"><ele>289</ele><time>2022-03-30T10:42:48Z</time><name>PT1208</name></trkpt>
<trkpt lat="54.486255" lon="-3.261364"><ele>290</ele><time>2022-03-30T10:42:50Z</time><name>PT1209</name></trkpt>
<trkpt lat="54.486252" lon="-3.261381"><ele>289</ele><time>2022-03-30T10:42:50Z</time><name>PT1210</name></trkpt>
<trkpt lat="54.486254" lon="-3.261393"><ele>289</ele><time>2022-03-30T10:42:51Z</time><name>PT1211</name></trkpt>
<trkpt lat="54.486260" lon="-3.261404"><ele>289</ele><time>2022-03-30T10:42:53Z</time><name>PT1212</name></trkpt>
<trkpt lat="54.486264" lon="-3.261419"><ele>290</ele><time>2022-03-30T10:42:53Z</time><name>PT1213</name></trkpt>
<trkpt lat="54.486263" lon="-3.261436"><ele>290</ele><time>2022-03-30T10:42:54Z</time><name>PT1214</name></trkpt>
<trkpt lat="54.486261" lon="-3.261449"><ele>289</ele><time>2022-03-30T10:42:55Z</time><name>PT1215</name></trkpt>
<trkpt lat="54.486259" lon="-3.261462"><ele>289</ele><time>2022-03-30T10:42:56Z</time><name>PT1216</name></trkpt>
<trkpt lat="54.486257" lon="-3.261483"><ele>290</ele><time>2022-03-30T10:42:58Z</time><name>PT1217</name></trkpt>
<trkpt lat="54.486253" lon="-3.261492"><ele>291</ele><time>2022-03-30T10:42:58Z</time><name>PT1218</name></trkpt>
<trkpt lat="54.486248" lon="-3.261498"><ele>290</ele><time>2022-03-30T10:42:59Z</time><name>PT1219</name></trkpt>
<trkpt lat="54.486250" lon="-3.261507"><ele>290</ele><time>2022-03-30T10:43:01Z</time><name>PT1220</name></trkpt>
<trkpt lat="54.486257" lon="-3.261524"><ele>290</ele><time>2022-03-30T10:43:01Z</time><name>PT1221</name></trkpt>
<trkpt lat="54.486257" lon="-3.261540"><ele>290</ele><time>2022-03-30T10:43:02Z</time><name>PT1222</name></trkpt>
<trkpt lat="54.486257" lon="-3.261553"><ele>290</ele><time>2022-03-30T10:43:04Z</time><name>PT1223</name></trkpt>
<trkpt lat="54.486258" lon="-3.261564"><ele>290</ele><time>2022-03-30T10:43:04Z</time><name>PT1224</name></trkpt>
<trkpt lat="54.486259" lon="-3.261574"><ele>290</ele><time>2022-03-30T10:43:05Z</time><name>PT1225</name></trkpt>
<trkpt lat="54.486261" lon="-3.261581"><ele>291</ele><time>2022-03-30T10:43:07Z</time><name>PT1226</name></trkpt>
<trkpt lat="54.486262" lon="-3.261590"><ele>291</ele><time>2022-03-30T10:43:07Z</time><name>PT1227</name></trkpt>
<trkpt lat="54.486260" lon="-3.261602"><ele>290</ele><time>2022-03-30T10:43:08Z</time><name>PT1228</name></trkpt>
<trkpt lat="54.486259" lon="-3.261610"><ele>290</ele><time>2022-03-30T10:43:10Z</time><name>PT1229</name></trkpt>
<trkpt lat="54.486260" lon="-3.261621"><ele>291</ele><time>2022-03-30T10:43:10Z</time><name>PT1230</name></trkpt>
<trkpt lat="54.486262" lon="-3.261629"><ele>291</ele><time>2022-03-30T10:43:11Z</time><name>PT1231</name></trkpt>
<trkpt lat="54.486262" lon="-3.261640"><ele>291</ele><time>2022-03-30T10:43:13Z</time><name>PT1232</name></trkpt>
<trkpt lat="54.486260" lon="-3.261648"><ele>290</ele><time>2022-03-30T10:43:13Z</time><name>PT1233</name></trkpt>
<trkpt lat="54.486261" lon="-3.261664"><ele>290</ele><time>2022-03-30T10:43:14Z</time><name>PT1234</name></trkpt>
<trkpt lat="54.486263" lon="-3.261680"><ele>291</ele><time>2022-03-30T10:43:16Z</time><name>PT1235</name></trkpt>
<trkpt lat="54.486262" lon="-3.261697"><ele>291</ele><time>2022-03-30T10:43:16Z</time><name>PT1236</name></trkpt>
<trkpt lat="54.486263" lon="-3.261715"><ele>292</ele><time>2022-03-30T10:43:17Z</time><name>PT1237</name></trkpt>
<trkpt lat="54.486264" lon="-3.261728"><ele>292</ele><time>2022-03-30T10:43:19Z</time><name>PT1238</name></trkpt>
<trkpt lat="54.486266" lon="-3.261741"><ele>292</ele><time>2022-03-30T10:43:19Z</time><name>PT1239</name></trkpt>
<trkpt lat="54.486267" lon="-3.261746"><ele>292</ele><time>2022-03-30T10:43:20Z</time><name>PT1240</name></trkpt>
<trkpt lat="54.486270" lon="-3.261752"><ele>292</ele><time>2022-03-30T10:43:22Z</time><name>PT1241</name></trkpt>
<trkpt lat="54.486274" lon="-3.261760"><ele>291</ele><time>2022-03-30T10:43:22Z</time><name>PT1242</name></trkpt>
<trkpt lat="54.486279" lon="-3.261765"><ele>291</ele><time>2022-03-30T10:43:23Z</time><name>PT1243</name></trkpt>
<trkpt lat="54.486279" lon="-3.261771"><ele>291</ele><time>2022-03-30T10:43:25Z</time><name>PT1244</name></trkpt>
<trkpt lat="54.486283" lon="-3.261782"><ele>291</ele><time>2022-03-30T10:43:25Z</time><name>PT1245</name></trkpt>
<trkpt lat="54.486286" lon="-3.261793"><ele>291</ele><time>2022-03-30T10:43:26Z</time><name>PT1246</name></trkpt>
<trkpt lat="54.486291" lon="-3.261802"><ele>292</ele><time>2022-03-30T10:43:28Z</time><name>PT1247</name></trkpt>
<trkpt lat="54.486295" lon="-3.261816"><ele>292</ele><time>2022-03-30T10:43:28Z</time><name>PT1248</name></trkpt>
<trkpt lat="54.486294" lon="-3.261825"><ele>291</ele><time>2022-03-30T10:43:29Z</time><name>PT1249</name></trkpt>
<trkpt lat="54.486292" lon="-3.261837"><ele>291</ele><time>2022-03-30T10:43:31Z</time><name>PT1250</name></trkpt>
<trkpt lat="54.486292" lon="-3.261851"><ele>292</ele><time>2022-03-30T10:43:31Z</time><name>PT1251</name></trkpt>
<trkpt lat="54.486292" lon="-3.261862"><ele>292</ele><time>2022-03-30T10:43:32Z</time><name>PT1252</name></trkpt>
<trkpt lat="54.486294" lon="-3.261873"><ele>293</ele><time>2022-03-30T10:43:34Z</time><name>PT1253</name></trkpt>
<trkpt lat="54.486296" lon="-3.261886"><ele>293</ele><time>2022-03-30T10:43:34Z</time><name>PT1254</name></trkpt>
<trkpt lat="54.486300" lon="-3.261899"><ele>293</ele><time>2022-03-30T10:43:35Z</time><name>PT1255</name></trkpt>
<trkpt lat="54.486303" lon="-3.261912"><ele>294</ele><time>2022-03-30T10:43:37Z</time><name>PT1256</name></trkpt>
<trkpt lat="54.486308" lon="-3.261925"><ele>294</ele><time>2022-03-30T10:43:37Z</time><name>PT1257</name></trkpt>
<trkpt lat="54.486315" lon="-3.261934"><ele>295</ele><time>2022-03-30T10:43:38Z</time><name>PT1258</name></trkpt>
<trkpt lat="54.486320" lon="-3.261945"><ele>297</ele><time>2022-03-30T10:43:40Z</time><name>PT1259</name></trkpt>
<trkpt lat="54.486321" lon="-3.261954"><ele>297</ele><time>2022-03-30T10:43:40Z</time><name>PT1260</name></trkpt>
<trkpt lat="54.486321" lon="-3.261962"><ele>296</ele><time>2022-03-30T10:43:41Z</time><name>PT1261</name></trkpt>
<trkpt lat="54.486320" lon="-3.261972"><ele>297</ele><time>2022-03-30T10:43:43Z</time><name>PT1262</name></trkpt>
<trkpt lat="54.486321" lon="-3.261980"><ele>297</ele><time>2022-03-30T10:43:43Z</time><name>PT1263</name></trkpt>
<trkpt lat="54.486322" lon="-3.261991"><ele>297</ele><time>2022-03-30T10:43:44Z</time><name>PT1264</name></trkpt>
<trkpt lat="54.486325" lon="-3.262002"><ele>296</ele><time>2022-03-30T10:43:46Z</time><name>PT1265</name></trkpt>
<trkpt lat="54.486329" lon="-3.262013"><ele>296</ele><time>2022-03-30T10:43:46Z</time><name>PT1266</name></trkpt>
<trkpt lat="54.486334" lon="-3.262023"><ele>296</ele><time>2022-03-30T10:43:47Z</time><name>PT1267</name></trkpt>
<trkpt lat="54.486338" lon="-3.262035"><ele>297</ele><time>2022-03-30T10:43:49Z</time><name>PT1268</name></trkpt>
<trkpt lat="54.486341" lon="-3.262040"><ele>297</ele><time>2022-03-30T10:43:49Z</time><name>PT1269</name></trkpt>
<trkpt lat="54.486346" lon="-3.262048"><ele>297</ele><time>2022-03-30T10:43:50Z</time><name>PT1270</name></trkpt>
<trkpt lat="54.486346" lon="-3.262052"><ele>297</ele><time>2022-03-30T10:43:52Z</time><name>PT1271</name></trkpt>
<trkpt lat="54.486350" lon="-3.262061"><ele>296</ele><time>2022-03-30T10:43:52Z</time><name>PT1272</name></trkpt>
<trkpt lat="54.486352" lon="-3.262066"><ele>297</ele><time>2022-03-30T10:43:53Z</time><name>PT1273</name></trkpt>
<trkpt lat="54.486360" lon="-3.262076"><ele>297</ele><time>2022-03-30T10:43:55Z</time><name>PT1274</name></trkpt>
<trkpt lat="54.486363" lon="-3.262078"><ele>297</ele><time>2022-03-30T10:43:55Z</time><name>PT1275</name></trkpt>
<trkpt lat="54.486364" lon="-3.262080"><ele>297</ele><time>2022-03-30T10:43:56Z</time><name>PT1276</name></trkpt>
<trkpt lat="54.486362" lon="-3.262087"><ele>297</ele><time>2022-03-30T10:43:58Z</time><name>PT1277</name></trkpt>
<trkpt lat="54.486361" lon="-3.262091"><ele>296</ele><time>2022-03-30T10:43:58Z</time><name>PT1278</name></trkpt>
<trkpt lat="54.486369" lon="-3.262097"><ele>297</ele><time>2022-03-30T10:43:59Z</time><name>PT1279</name></trkpt>
<trkpt lat="54.486374" lon="-3.262104"><ele>297</ele><time>2022-03-30T10:44:01Z</time><name>PT1280</name></trkpt>
<trkpt lat="54.486376" lon="-3.262112"><ele>296</ele><time>2022-03-30T10:44:01Z</time><name>PT1281</name></trkpt>
<trkpt lat="54.486381" lon="-3.262120"><ele>297</ele><time>2022-03-30T10:44:02Z</time><name>PT1282</name></trkpt>
<trkpt lat="54.486404" lon="-3.262144"><ele>298</ele><time>2022-03-30T10:44:07Z</time><name>PT1283</name></trkpt>
<trkpt lat="54.486424" lon="-3.262159"><ele>299</ele><time>2022-03-30T10:44:10Z</time><name>PT1284</name></trkpt>
<trkpt lat="54.486449" lon="-3.262169"><ele>301</ele><time>2022-03-30T10:44:13Z</time><name>PT1285</name></trkpt>
<trkpt lat="54.486470" lon="-3.262166"><ele>301</ele><time>2022-03-30T10:44:16Z</time><name>PT1286</name></trkpt>
<trkpt lat="54.486490" lon="-3.262136"><ele>303</ele><time>2022-03-30T10:44:20Z</time><name>PT1287</name></trkpt>
<trkpt lat="54.486489" lon="-3.262111"><ele>305</ele><time>2022-03-30T10:44:23Z</time><name>PT1288</name></trkpt>
<trkpt lat="54.486487" lon="-3.262076"><ele>308</ele><time>2022-03-30T10:44:28Z</time><name>PT1289</name></trkpt>
<trkpt lat="54.486526" lon="-3.262057"><ele>311</ele><time>2022-03-30T10:44:31Z</time><name>PT1290</name></trkpt>
<trkpt lat="54.486541" lon="-3.262033"><ele>313</ele><time>2022-03-30T10:44:34Z</time><name>PT1291</name></trkpt>
<trkpt lat="54.486547" lon="-3.262026"><ele>313</ele><time>2022-03-30T10:44:34Z</time><name>PT1292</name></trkpt>
<trkpt lat="54.486549" lon="-3.262016"><ele>313</ele><time>2022-03-30T10:44:35Z</time><name>PT1293</name></trkpt>
<trkpt lat="54.486555" lon="-3.262008"><ele>313</ele><time>2022-03-30T10:44:37Z</time><name>PT1294</name></trkpt>
<trkpt lat="54.486558" lon="-3.261996"><ele>313</ele><time>2022-03-30T10:44:37Z</time><name>PT1295</name></trkpt>
<trkpt lat="54.486564" lon="-3.261986"><ele>313</ele><time>2022-03-30T10:44:38Z</time><name>PT1296</name></trkpt>
<trkpt lat="54.486570" lon="-3.261975"><ele>314</ele><time>2022-03-30T10:44:40Z</time><name>PT1297</name></trkpt>
<trkpt lat="54.486572" lon="-3.261965"><ele>314</ele><time>2022-03-30T10:44:40Z</time><name>PT1298</name></trkpt>
<trkpt lat="54.486576" lon="-3.261953"><ele>313</ele><time>2022-03-30T10:44:41Z</time><name>PT1299</name></trkpt>
<trkpt lat="54.486578" lon="-3.261946"><ele>313</ele><time>2022-03-30T10:44:43Z</time><name>PT1300</name></trkpt>
<trkpt lat="54.486575" lon="-3.261933"><ele>313</ele><time>2022-03-30T10:44:43Z</time><name>PT1301</name></trkpt>
<trkpt lat="54.486567" lon="-3.261918"><ele>312</ele><time>2022-03-30T10:44:44Z</time><name>PT1302</name></trkpt>
<trkpt lat="54.486572" lon="-3.261908"><ele>313</ele><time>2022-03-30T10:44:46Z</time><name>PT1303</name></trkpt>
<trkpt lat="54.486571" lon="-3.261902"><ele>313</ele><time>2022-03-30T10:44:46Z</time><name>PT1304</name></trkpt>
<trkpt lat="54.486574" lon="-3.261894"><ele>313</ele><time>2022-03-30T10:44:47Z</time><name>PT1305</name></trkpt>
<trkpt lat="54.486576" lon="-3.261887"><ele>313</ele><time>2022-03-30T10:44:49Z</time><name>PT1306</name></trkpt>
<trkpt lat="54.486575" lon="-3.261880"><ele>313</ele><time>2022-03-30T10:44:49Z</time><name>PT1307</name></trkpt>
<trkpt lat="54.486580" lon="-3.261872"><ele>313</ele><time>2022-03-30T10:44:50Z</time><name>PT1308</name></trkpt>
<trkpt lat="54.486593" lon="-3.261865"><ele>314</ele><time>2022-03-30T10:44:52Z</time><name>PT1309</name></trkpt>
<trkpt lat="54.486599" lon="-3.261860"><ele>315</ele><time>2022-03-30T10:44:52Z</time><name>PT1310</name></trkpt>
<trkpt lat="54.486597" lon="-3.261856"><ele>314</ele><time>2022-03-30T10:44:53Z</time><name>PT1311</name></trkpt>
<trkpt lat="54.486596" lon="-3.261848"><ele>314</ele><time>2022-03-30T10:44:55Z</time><name>PT1312</name></trkpt>
<trkpt lat="54.486598" lon="-3.261844"><ele>315</ele><time>2022-03-30T10:44:55Z</time><name>PT1313</name></trkpt>
<trkpt lat="54.486601" lon="-3.261830"><ele>315</ele><time>2022-03-30T10:44:56Z</time><name>PT1314</name></trkpt>
<trkpt lat="54.486603" lon="-3.261819"><ele>314</ele><time>2022-03-30T10:44:58Z</time><name>PT1315</name></trkpt>
<trkpt lat="54.486603" lon="-3.261808"><ele>314</ele><time>2022-03-30T10:44:58Z</time><name>PT1316</name></trkpt>
<trkpt lat="54.486609" lon="-3.261806"><ele>315</ele><time>2022-03-30T10:44:59Z</time><name>PT1317</name></trkpt>
<trkpt lat="54.486614" lon="-3.261802"><ele>315</ele><time>2022-03-30T10:45:01Z</time><name>PT1318</name></trkpt>
<trkpt lat="54.486620" lon="-3.261808"><ele>316</ele><time>2022-03-30T10:45:01Z</time><name>PT1319</name></trkpt>
<trkpt lat="54.486620" lon="-3.261814"><ele>315</ele><time>2022-03-30T10:45:02Z</time><name>PT1320</name></trkpt>
<trkpt lat="54.486622" lon="-3.261820"><ele>315</ele><time>2022-03-30T10:45:04Z</time><name>PT1321</name></trkpt>
<trkpt lat="54.486624" lon="-3.261827"><ele>315</ele><time>2022-03-30T10:45:04Z</time><name>PT1322</name></trkpt>
<trkpt lat="54.486631" lon="-3.261834"><ele>315</ele><time>2022-03-30T10:45:05Z</time><name>PT1323</name></trkpt>
<trkpt lat="54.486634" lon="-3.261839"><ele>315</ele><time>2022-03-30T10:45:07Z</time><name>PT1324</name></trkpt>
<trkpt lat="54.486640" lon="-3.261850"><ele>315</ele><time>2022-03-30T10:45:07Z</time><name>PT1325</name></trkpt>
<trkpt lat="54.486641" lon="-3.261859"><ele>315</ele><time>2022-03-30T10:45:08Z</time><name>PT1326</name></trkpt>
<trkpt lat="54.486643" lon="-3.261868"><ele>315</ele><time>2022-03-30T10:45:10Z</time><name>PT1327</name></trkpt>
<trkpt lat="54.486646" lon="-3.261877"><ele>315</ele><time>2022-03-30T10:45:10Z</time><name>PT1328</name></trkpt>
<trkpt lat="54.486647" lon="-3.261887"><ele>315</ele><time>2022-03-30T10:45:11Z</time><name>PT1329</name></trkpt>
<trkpt lat="54.486649" lon="-3.261898"><ele>315</ele><time>2022-03-30T10:45:13Z</time><name>PT1330</name></trkpt>
<trkpt lat="54.486651" lon="-3.261910"><ele>315</ele><time>2022-03-30T10:45:13Z</time><name>PT1331</name></trkpt>
<trkpt lat="54.486653" lon="-3.261921"><ele>316</ele><time>2022-03-30T10:45:14Z</time><name>PT1332</name></trkpt>
<trkpt lat="54.486656" lon="-3.261929"><ele>316</ele><time>2022-03-30T10:45:16Z</time><name>PT1333</name></trkpt>
<trkpt lat="54.486660" lon="-3.261938"><ele>316</ele><time>2022-03-30T10:45:16Z</time><name>PT1334</name></trkpt>
<trkpt lat="54.486663" lon="-3.261944"><ele>316</ele><time>2022-03-30T10:45:17Z</time><name>PT1335</name></trkpt>
<trkpt lat="54.486665" lon="-3.261946"><ele>316</ele><time>2022-03-30T10:45:19Z</time><name>PT1336</name></trkpt>
<trkpt lat="54.486669" lon="-3.261951"><ele>316</ele><time>2022-03-30T10:45:19Z</time><name>PT1337</name></trkpt>
<trkpt lat="54.486675" lon="-3.261955"><ele>316</ele><time>2022-03-30T10:45:20Z</time><name>PT1338</name></trkpt>
<trkpt lat="54.486678" lon="-3.261958"><ele>316</ele><time>2022-03-30T10:45:22Z</time><name>PT1339</name></trkpt>
<trkpt lat="54.486686" lon="-3.261975"><ele>317</ele><time>2022-03-30T10:45:41Z</time><name>PT1340</name></trkpt>
<trkpt lat="54.486690" lon="-3.261980"><ele>316</ele><time>2022-03-30T10:45:43Z</time><name>PT1341</name></trkpt>
<trkpt lat="54.486702" lon="-3.261995"><ele>316</ele><time>2022-03-30T10:45:43Z</time><name>PT1342</name></trkpt>
<trkpt lat="54.486707" lon="-3.262004"><ele>316</ele><time>2022-03-30T10:45:44Z</time><name>PT1343</name></trkpt>
<trkpt lat="54.486711" lon="-3.262008"><ele>317</ele><time>2022-03-30T10:45:46Z</time><name>PT1344</name></trkpt>
<trkpt lat="54.486719" lon="-3.262012"><ele>317</ele><time>2022-03-30T10:45:46Z</time><name>PT1345</name></trkpt>
<trkpt lat="54.486730" lon="-3.262024"><ele>316</ele><time>2022-03-30T10:45:47Z</time><name>PT1346</name></trkpt>
<trkpt lat="54.486736" lon="-3.262030"><ele>317</ele><time>2022-03-30T10:45:49Z</time><name>PT1347</name></trkpt>
<trkpt lat="54.486742" lon="-3.262035"><ele>317</ele><time>2022-03-30T10:45:49Z</time><name>PT1348</name></trkpt>
<trkpt lat="54.486750" lon="-3.262041"><ele>317</ele><time>2022-03-30T10:45:50Z</time><name>PT1349</name></trkpt>
<trkpt lat="54.486758" lon="-3.262043"><ele>316</ele><time>2022-03-30T10:45:52Z</time><name>PT1350</name></trkpt>
<trkpt lat="54.486761" lon="-3.262054"><ele>317</ele><time>2022-03-30T10:45:52Z</time><name>PT1351</name></trkpt>
<trkpt lat="54.486774" lon="-3.262056"><ele>317</ele><time>2022-03-30T10:45:53Z</time><name>PT1352</name></trkpt>
<trkpt lat="54.486783" lon="-3.262067"><ele>318</ele><time>2022-03-30T10:45:55Z</time><name>PT1353</name></trkpt>
<trkpt lat="54.486792" lon="-3.262070"><ele>318</ele><time>2022-03-30T10:45:55Z</time><name>PT1354</name></trkpt>
<trkpt lat="54.486795" lon="-3.262075"><ele>318</ele><time>2022-03-30T10:45:56Z</time><name>PT1355</name></trkpt>
<trkpt lat="54.486803" lon="-3.262078"><ele>318</ele><time>2022-03-30T10:45:58Z</time><name>PT1356</name></trkpt>
<trkpt lat="54.486809" lon="-3.262078"><ele>319</ele><time>2022-03-30T10:45:58Z</time><name>PT1357</name></trkpt>
<trkpt lat="54.486816" lon="-3.262078"><ele>319</ele><time>2022-03-30T10:45:59Z</time><name>PT1358</name></trkpt>
<trkpt lat="54.486826" lon="-3.262075"><ele>319</ele><time>2022-03-30T10:46:01Z</time><name>PT1359</name></trkpt>
<trkpt lat="54.486834" lon="-3.262067"><ele>319</ele><time>2022-03-30T10:46:01Z</time><name>PT1360</name></trkpt>
<trkpt lat="54.486840" lon="-3.262059"><ele>320</ele><time>2022-03-30T10:46:02Z</time><name>PT1361</name></trkpt>
<trkpt lat="54.486845" lon="-3.262048"><ele>320</ele><time>2022-03-30T10:46:04Z</time><name>PT1362</name></trkpt>
<trkpt lat="54.486850" lon="-3.262038"><ele>320</ele><time>2022-03-30T10:46:04Z</time><name>PT1363</name></trkpt>
<trkpt lat="54.486851" lon="-3.262031"><ele>321</ele><time>2022-03-30T10:46:05Z</time><name>PT1364</name></trkpt>
<trkpt lat="54.486853" lon="-3.262025"><ele>321</ele><time>2022-03-30T10:46:07Z</time><name>PT1365</name></trkpt>
<trkpt lat="54.486863" lon="-3.262040"><ele>320</ele><time>2022-03-30T10:46:10Z</time><name>PT1366</name></trkpt>
<trkpt lat="54.486860" lon="-3.262032"><ele>320</ele><time>2022-03-30T10:46:10Z</time><name>PT1367</name></trkpt>
<trkpt lat="54.486864" lon="-3.262034"><ele>320</ele><time>2022-03-30T10:46:11Z</time><name>PT1368</name></trkpt>
<trkpt lat="54.486861" lon="-3.262025"><ele>320</ele><time>2022-03-30T10:46:13Z</time><name>PT1369</name></trkpt>
<trkpt lat="54.486865" lon="-3.262018"><ele>321</ele><time>2022-03-30T10:46:13Z</time><name>PT1370</name></trkpt>
<trkpt lat="54.486873" lon="-3.262016"><ele>321</ele><time>2022-03-30T10:46:14Z</time><name>PT1371</name></trkpt>
<trkpt lat="54.486885" lon="-3.262019"><ele>321</ele><time>2022-03-30T10:46:16Z</time><name>PT1372</name></trkpt>
<trkpt lat="54.486884" lon="-3.262006"><ele>321</ele><time>2022-03-30T10:46:16Z</time><name>PT1373</name></trkpt>
<trkpt lat="54.486884" lon="-3.261994"><ele>321</ele><time>2022-03-30T10:46:17Z</time><name>PT1374</name></trkpt>
<trkpt lat="54.486892" lon="-3.261973"><ele>321</ele><time>2022-03-30T10:46:19Z</time><name>PT1375</name></trkpt>
<trkpt lat="54.486890" lon="-3.261957"><ele>322</ele><time>2022-03-30T10:46:19Z</time><name>PT1376</name></trkpt>
<trkpt lat="54.486894" lon="-3.261943"><ele>322</ele><time>2022-03-30T10:46:20Z</time><name>PT1377</name></trkpt>
<trkpt lat="54.486896" lon="-3.261936"><ele>322</ele><time>2022-03-30T10:46:22Z</time><name>PT1378</name></trkpt>
<trkpt lat="54.486902" lon="-3.261929"><ele>323</ele><time>2022-03-30T10:46:22Z</time><name>PT1379</name></trkpt>
<trkpt lat="54.486902" lon="-3.261921"><ele>323</ele><time>2022-03-30T10:46:23Z</time><name>PT1380</name></trkpt>
<trkpt lat="54.486906" lon="-3.261916"><ele>323</ele><time>2022-03-30T10:46:25Z</time><name>PT1381</name></trkpt>
<trkpt lat="54.486900" lon="-3.261887"><ele>323</ele><time>2022-03-30T10:46:35Z</time><name>PT1382</name></trkpt>
<trkpt lat="54.486899" lon="-3.261887"><ele>324</ele><time>2022-03-30T10:47:01Z</time><name>PT1383</name></trkpt>
<trkpt lat="54.486899" lon="-3.261888"><ele>324</ele><time>2022-03-30T10:47:05Z</time><name>PT1384</name></trkpt>
<trkpt lat="54.486919" lon="-3.261883"><ele>324</ele><time>2022-03-30T10:47:23Z</time><name>PT1385</name></trkpt>
<trkpt lat="54.486941" lon="-3.261901"><ele>324</ele><time>2022-03-30T10:47:28Z</time><name>PT1386</name></trkpt>
<trkpt lat="54.486950" lon="-3.261917"><ele>325</ele><time>2022-03-30T10:47:31Z</time><name>PT1387</name></trkpt>
<trkpt lat="54.486977" lon="-3.261930"><ele>325</ele><time>2022-03-30T10:47:34Z</time><name>PT1388</name></trkpt>
<trkpt lat="54.487005" lon="-3.261941"><ele>325</ele><time>2022-03-30T10:47:38Z</time><name>PT1389</name></trkpt>
<trkpt lat="54.487046" lon="-3.261944"><ele>327</ele><time>2022-03-30T10:47:43Z</time><name>PT1390</name></trkpt>
<trkpt lat="54.487084" lon="-3.261945"><ele>328</ele><time>2022-03-30T10:47:46Z</time><name>PT1391</name></trkpt>
<trkpt lat="54.487108" lon="-3.261925"><ele>329</ele><time>2022-03-30T10:47:50Z</time><name>PT1392</name></trkpt>
<trkpt lat="54.487132" lon="-3.261907"><ele>329</ele><time>2022-03-30T10:47:53Z</time><name>PT1393</name></trkpt>
<trkpt lat="54.487149" lon="-3.261887"><ele>330</ele><time>2022-03-30T10:47:56Z</time><name>PT1394</name></trkpt>
<trkpt lat="54.487169" lon="-3.261857"><ele>331</ele><time>2022-03-30T10:47:59Z</time><name>PT1395</name></trkpt>
<trkpt lat="54.487194" lon="-3.261815"><ele>332</ele><time>2022-03-30T10:48:04Z</time><name>PT1396</name></trkpt>
<trkpt lat="54.487210" lon="-3.261773"><ele>333</ele><time>2022-03-30T10:48:07Z</time><name>PT1397</name></trkpt>
<trkpt lat="54.487230" lon="-3.261736"><ele>334</ele><time>2022-03-30T10:48:10Z</time><name>PT1398</name></trkpt>
<trkpt lat="54.487257" lon="-3.261696"><ele>336</ele><time>2022-03-30T10:48:13Z</time><name>PT1399</name></trkpt>
<trkpt lat="54.487274" lon="-3.261670"><ele>336</ele><time>2022-03-30T10:48:16Z</time><name>PT1400</name></trkpt>
<trkpt lat="54.487293" lon="-3.261639"><ele>337</ele><time>2022-03-30T10:48:19Z</time><name>PT1401</name></trkpt>
<trkpt lat="54.487324" lon="-3.261597"><ele>339</ele><time>2022-03-30T10:48:23Z</time><name>PT1402</name></trkpt>
<trkpt lat="54.487347" lon="-3.261565"><ele>340</ele><time>2022-03-30T10:48:28Z</time><name>PT1403</name></trkpt>
<trkpt lat="54.487365" lon="-3.261540"><ele>340</ele><time>2022-03-30T10:48:31Z</time><name>PT1404</name></trkpt>
<trkpt lat="54.487381" lon="-3.261522"><ele>340</ele><time>2022-03-30T10:48:34Z</time><name>PT1405</name></trkpt>
<trkpt lat="54.487402" lon="-3.261491"><ele>341</ele><time>2022-03-30T10:48:37Z</time><name>PT1406</name></trkpt>
<trkpt lat="54.487423" lon="-3.261469"><ele>342</ele><time>2022-03-30T10:48:41Z</time><name>PT1407</name></trkpt>
<trkpt lat="54.487450" lon="-3.261466"><ele>343</ele><time>2022-03-30T10:48:44Z</time><name>PT1408</name></trkpt>
<trkpt lat="54.487465" lon="-3.261456"><ele>343</ele><time>2022-03-30T10:48:49Z</time><name>PT1409</name></trkpt>
<trkpt lat="54.487501" lon="-3.261436"><ele>344</ele><time>2022-03-30T10:48:56Z</time><name>PT1410</name></trkpt>
<trkpt lat="54.487527" lon="-3.261407"><ele>346</ele><time>2022-03-30T10:49:01Z</time><name>PT1411</name></trkpt>
<trkpt lat="54.487551" lon="-3.261397"><ele>346</ele><time>2022-03-30T10:49:04Z</time><name>PT1412</name></trkpt>
<trkpt lat="54.487581" lon="-3.261392"><ele>348</ele><time>2022-03-30T10:49:07Z</time><name>PT1413</name></trkpt>
<trkpt lat="54.487603" lon="-3.261376"><ele>348</ele><time>2022-03-30T10:49:10Z</time><name>PT1414</name></trkpt>
<trkpt lat="54.487621" lon="-3.261357"><ele>348</ele><time>2022-03-30T10:49:13Z</time><name>PT1415</name></trkpt>
<trkpt lat="54.487642" lon="-3.261340"><ele>348</ele><time>2022-03-30T10:49:16Z</time><name>PT1416</name></trkpt>
<trkpt lat="54.487671" lon="-3.261330"><ele>348</ele><time>2022-03-30T10:49:20Z</time><name>PT1417</name></trkpt>
<trkpt lat="54.487690" lon="-3.261321"><ele>351</ele><time>2022-03-30T10:49:23Z</time><name>PT1418</name></trkpt>
<trkpt lat="54.487708" lon="-3.261309"><ele>352</ele><time>2022-03-30T10:49:28Z</time><name>PT1419</name></trkpt>
<trkpt lat="54.487716" lon="-3.261297"><ele>352</ele><time>2022-03-30T10:49:31Z</time><name>PT1420</name></trkpt>
<trkpt lat="54.487740" lon="-3.261267"><ele>353</ele><time>2022-03-30T10:49:35Z</time><name>PT1421</name></trkpt>
<trkpt lat="54.487764" lon="-3.261258"><ele>353</ele><time>2022-03-30T10:49:38Z</time><name>PT1422</name></trkpt>
<trkpt lat="54.487791" lon="-3.261243"><ele>355</ele><time>2022-03-30T10:49:43Z</time><name>PT1423</name></trkpt>
<trkpt lat="54.487809" lon="-3.261242"><ele>355</ele><time>2022-03-30T10:49:46Z</time><name>PT1424</name></trkpt>
<trkpt lat="54.487848" lon="-3.261238"><ele>355</ele><time>2022-03-30T10:49:50Z</time><name>PT1425</name></trkpt>
<trkpt lat="54.487878" lon="-3.261214"><ele>357</ele><time>2022-03-30T10:49:55Z</time><name>PT1426</name></trkpt>
<trkpt lat="54.487901" lon="-3.261206"><ele>358</ele><time>2022-03-30T10:49:58Z</time><name>PT1427</name></trkpt>
<trkpt lat="54.487915" lon="-3.261200"><ele>358</ele><time>2022-03-30T10:50:01Z</time><name>PT1428</name></trkpt>
<trkpt lat="54.487939" lon="-3.261184"><ele>359</ele><time>2022-03-30T10:50:04Z</time><name>PT1429</name></trkpt>
<trkpt lat="54.487955" lon="-3.261172"><ele>359</ele><time>2022-03-30T10:50:07Z</time><name>PT1430</name></trkpt>
<trkpt lat="54.487976" lon="-3.261168"><ele>358</ele><time>2022-03-30T10:50:11Z</time><name>PT1431</name></trkpt>
<trkpt lat="54.487997" lon="-3.261170"><ele>359</ele><time>2022-03-30T10:50:14Z</time><name>PT1432</name></trkpt>
<trkpt lat="54.488023" lon="-3.261160"><ele>359</ele><time>2022-03-30T10:50:19Z</time><name>PT1433</name></trkpt>
<trkpt lat="54.488036" lon="-3.261156"><ele>358</ele><time>2022-03-30T10:50:22Z</time><name>PT1434</name></trkpt>
<trkpt lat="54.488052" lon="-3.261138"><ele>358</ele><time>2022-03-30T10:50:28Z</time><name>PT1435</name></trkpt>
<trkpt lat="54.488087" lon="-3.261121"><ele>357</ele><time>2022-03-30T10:50:32Z</time><name>PT1436</name></trkpt>
<trkpt lat="54.488103" lon="-3.261107"><ele>356</ele><time>2022-03-30T10:50:35Z</time><name>PT1437</name></trkpt>
<trkpt lat="54.488126" lon="-3.261085"><ele>358</ele><time>2022-03-30T10:50:40Z</time><name>PT1438</name></trkpt>
<trkpt lat="54.488150" lon="-3.261056"><ele>359</ele><time>2022-03-30T10:50:43Z</time><name>PT1439</name></trkpt>
<trkpt lat="54.488167" lon="-3.261048"><ele>359</ele><time>2022-03-30T10:50:46Z</time><name>PT1440</name></trkpt>
<trkpt lat="54.488180" lon="-3.261045"><ele>360</ele><time>2022-03-30T10:50:50Z</time><name>PT1441</name></trkpt>
<trkpt lat="54.488206" lon="-3.261042"><ele>360</ele><time>2022-03-30T10:50:55Z</time><name>PT1442</name></trkpt>
<trkpt lat="54.488226" lon="-3.261029"><ele>360</ele><time>2022-03-30T10:50:58Z</time><name>PT1443</name></trkpt>
<trkpt lat="54.488248" lon="-3.261022"><ele>362</ele><time>2022-03-30T10:51:01Z</time><name>PT1444</name></trkpt>
<trkpt lat="54.488266" lon="-3.261007"><ele>361</ele><time>2022-03-30T10:51:04Z</time><name>PT1445</name></trkpt>
<trkpt lat="54.488293" lon="-3.260981"><ele>363</ele><time>2022-03-30T10:51:08Z</time><name>PT1446</name></trkpt>
<trkpt lat="54.488315" lon="-3.260969"><ele>363</ele><time>2022-03-30T10:51:11Z</time><name>PT1447</name></trkpt>
<trkpt lat="54.488346" lon="-3.260945"><ele>363</ele><time>2022-03-30T10:51:16Z</time><name>PT1448</name></trkpt>
<trkpt lat="54.488363" lon="-3.260929"><ele>363</ele><time>2022-03-30T10:51:19Z</time><name>PT1449</name></trkpt>
<trkpt lat="54.488385" lon="-3.260908"><ele>363</ele><time>2022-03-30T10:51:22Z</time><name>PT1450</name></trkpt>
<trkpt lat="54.488403" lon="-3.260887"><ele>364</ele><time>2022-03-30T10:51:25Z</time><name>PT1451</name></trkpt>
<trkpt lat="54.488431" lon="-3.260840"><ele>365</ele><time>2022-03-30T10:51:29Z</time><name>PT1452</name></trkpt>
<trkpt lat="54.488459" lon="-3.260808"><ele>365</ele><time>2022-03-30T10:51:34Z</time><name>PT1453</name></trkpt>
<trkpt lat="54.488483" lon="-3.260774"><ele>365</ele><time>2022-03-30T10:51:37Z</time><name>PT1454</name></trkpt>
<trkpt lat="54.488516" lon="-3.260720"><ele>369</ele><time>2022-03-30T10:51:41Z</time><name>PT1455</name></trkpt>
<trkpt lat="54.488541" lon="-3.260666"><ele>369</ele><time>2022-03-30T10:51:46Z</time><name>PT1456</name></trkpt>
<trkpt lat="54.488560" lon="-3.260626"><ele>369</ele><time>2022-03-30T10:51:49Z</time><name>PT1457</name></trkpt>
<trkpt lat="54.488579" lon="-3.260576"><ele>371</ele><time>2022-03-30T10:51:52Z</time><name>PT1458</name></trkpt>
<trkpt lat="54.488597" lon="-3.260521"><ele>371</ele><time>2022-03-30T10:51:56Z</time><name>PT1459</name></trkpt>
<trkpt lat="54.488613" lon="-3.260483"><ele>371</ele><time>2022-03-30T10:51:59Z</time><name>PT1460</name></trkpt>
<trkpt lat="54.488631" lon="-3.260434"><ele>370</ele><time>2022-03-30T10:52:04Z</time><name>PT1461</name></trkpt>
<trkpt lat="54.488652" lon="-3.260386"><ele>370</ele><time>2022-03-30T10:52:07Z</time><name>PT1462</name></trkpt>
<trkpt lat="54.488688" lon="-3.260335"><ele>370</ele><time>2022-03-30T10:52:10Z</time><name>PT1463</name></trkpt>
<trkpt lat="54.488707" lon="-3.260301"><ele>370</ele><time>2022-03-30T10:52:13Z</time><name>PT1464</name></trkpt>
<trkpt lat="54.488737" lon="-3.260257"><ele>371</ele><time>2022-03-30T10:52:17Z</time><name>PT1465</name></trkpt>
<trkpt lat="54.488755" lon="-3.260222"><ele>370</ele><time>2022-03-30T10:52:20Z</time><name>PT1466</name></trkpt>
<trkpt lat="54.488784" lon="-3.260184"><ele>371</ele><time>2022-03-30T10:52:25Z</time><name>PT1467</name></trkpt>
<trkpt lat="54.488810" lon="-3.260164"><ele>371</ele><time>2022-03-30T10:52:28Z</time><name>PT1468</name></trkpt>
<trkpt lat="54.488842" lon="-3.260129"><ele>371</ele><time>2022-03-30T10:52:31Z</time><name>PT1469</name></trkpt>
<trkpt lat="54.488865" lon="-3.260104"><ele>371</ele><time>2022-03-30T10:52:34Z</time><name>PT1470</name></trkpt>
<trkpt lat="54.488885" lon="-3.260083"><ele>371</ele><time>2022-03-30T10:52:37Z</time><name>PT1471</name></trkpt>
<trkpt lat="54.488910" lon="-3.260056"><ele>371</ele><time>2022-03-30T10:52:41Z</time><name>PT1472</name></trkpt>
<trkpt lat="54.488933" lon="-3.260038"><ele>371</ele><time>2022-03-30T10:52:44Z</time><name>PT1473</name></trkpt>
<trkpt lat="54.488947" lon="-3.260030"><ele>372</ele><time>2022-03-30T10:52:49Z</time><name>PT1474</name></trkpt>
<trkpt lat="54.488969" lon="-3.260001"><ele>371</ele><time>2022-03-30T10:52:52Z</time><name>PT1475</name></trkpt>
<trkpt lat="54.488986" lon="-3.259975"><ele>371</ele><time>2022-03-30T10:52:55Z</time><name>PT1476</name></trkpt>
<trkpt lat="54.489017" lon="-3.259954"><ele>372</ele><time>2022-03-30T10:52:59Z</time><name>PT1477</name></trkpt>
<trkpt lat="54.489036" lon="-3.259934"><ele>372</ele><time>2022-03-30T10:53:04Z</time><name>PT1478</name></trkpt>
<trkpt lat="54.489052" lon="-3.259924"><ele>371</ele><time>2022-03-30T10:53:07Z</time><name>PT1479</name></trkpt>
<trkpt lat="54.489079" lon="-3.259887"><ele>372</ele><time>2022-03-30T10:53:10Z</time><name>PT1480</name></trkpt>
<trkpt lat="54.489099" lon="-3.259860"><ele>371</ele><time>2022-03-30T10:53:13Z</time><name>PT1481</name></trkpt>
<trkpt lat="54.489119" lon="-3.259832"><ele>371</ele><time>2022-03-30T10:53:16Z</time><name>PT1482</name></trkpt>
<trkpt lat="54.489148" lon="-3.259784"><ele>372</ele><time>2022-03-30T10:53:20Z</time><name>PT1483</name></trkpt>
<trkpt lat="54.489175" lon="-3.259750"><ele>372</ele><time>2022-03-30T10:53:23Z</time><name>PT1484</name></trkpt>
<trkpt lat="54.489211" lon="-3.259732"><ele>373</ele><time>2022-03-30T10:53:28Z</time><name>PT1485</name></trkpt>
<trkpt lat="54.489244" lon="-3.259716"><ele>374</ele><time>2022-03-30T10:53:31Z</time><name>PT1486</name></trkpt>
<trkpt lat="54.489261" lon="-3.259682"><ele>374</ele><time>2022-03-30T10:53:34Z</time><name>PT1487</name></trkpt>
<trkpt lat="54.489273" lon="-3.259657"><ele>375</ele><time>2022-03-30T10:53:37Z</time><name>PT1488</name></trkpt>
<trkpt lat="54.489277" lon="-3.259648"><ele>375</ele><time>2022-03-30T10:53:37Z</time><name>PT1489</name></trkpt>
<trkpt lat="54.489291" lon="-3.259638"><ele>376</ele><time>2022-03-30T10:53:38Z</time><name>PT1490</name></trkpt>
<trkpt lat="54.489295" lon="-3.259632"><ele>376</ele><time>2022-03-30T10:53:40Z</time><name>PT1491</name></trkpt>
<trkpt lat="54.489296" lon="-3.259625"><ele>376</ele><time>2022-03-30T10:53:40Z</time><name>PT1492</name></trkpt>
<trkpt lat="54.489298" lon="-3.259622"><ele>376</ele><time>2022-03-30T10:53:41Z</time><name>PT1493</name></trkpt>
<trkpt lat="54.489300" lon="-3.259618"><ele>376</ele><time>2022-03-30T10:53:43Z</time><name>PT1494</name></trkpt>
<trkpt lat="54.489302" lon="-3.259612"><ele>377</ele><time>2022-03-30T10:53:43Z</time><name>PT1495</name></trkpt>
<trkpt lat="54.489305" lon="-3.259608"><ele>377</ele><time>2022-03-30T10:53:44Z</time><name>PT1496</name></trkpt>
<trkpt lat="54.489312" lon="-3.259603"><ele>376</ele><time>2022-03-30T10:53:46Z</time><name>PT1497</name></trkpt>
<trkpt lat="54.489317" lon="-3.259593"><ele>376</ele><time>2022-03-30T10:53:46Z</time><name>PT1498</name></trkpt>
<trkpt lat="54.489322" lon="-3.259589"><ele>376</ele><time>2022-03-30T10:53:47Z</time><name>PT1499</name></trkpt>
<trkpt lat="54.489326" lon="-3.259582"><ele>376</ele><time>2022-03-30T10:53:49Z</time><name>PT1500</name></trkpt>
<trkpt lat="54.489331" lon="-3.259577"><ele>376</ele><time>2022-03-30T10:53:49Z</time><name>PT1501</name></trkpt>
<trkpt lat="54.489342" lon="-3.259574"><ele>376</ele><time>2022-03-30T10:53:56Z</time><name>PT1502</name></trkpt>
<trkpt lat="54.489347" lon="-3.259561"><ele>376</ele><time>2022-03-30T10:53:58Z</time><name>PT1503</name></trkpt>
<trkpt lat="54.489353" lon="-3.259544"><ele>376</ele><time>2022-03-30T10:53:58Z</time><name>PT1504</name></trkpt>
<trkpt lat="54.489361" lon="-3.259526"><ele>376</ele><time>2022-03-30T10:53:59Z</time><name>PT1505</name></trkpt>
<trkpt lat="54.489370" lon="-3.259514"><ele>376</ele><time>2022-03-30T10:54:01Z</time><name>PT1506</name></trkpt>
<trkpt lat="54.489375" lon="-3.259504"><ele>376</ele><time>2022-03-30T10:54:01Z</time><name>PT1507</name></trkpt>
<trkpt lat="54.489379" lon="-3.259493"><ele>376</ele><time>2022-03-30T10:54:02Z</time><name>PT1508</name></trkpt>
<trkpt lat="54.489384" lon="-3.259482"><ele>376</ele><time>2022-03-30T10:54:04Z</time><name>PT1509</name></trkpt>
<trkpt lat="54.489391" lon="-3.259471"><ele>376</ele><time>2022-03-30T10:54:04Z</time><name>PT1510</name></trkpt>
<trkpt lat="54.489395" lon="-3.259455"><ele>376</ele><time>2022-03-30T10:54:05Z</time><name>PT1511</name></trkpt>
<trkpt lat="54.489406" lon="-3.259440"><ele>376</ele><time>2022-03-30T10:54:07Z</time><name>PT1512</name></trkpt>
<trkpt lat="54.489415" lon="-3.259429"><ele>376</ele><time>2022-03-30T10:54:07Z</time><name>PT1513</name></trkpt>
<trkpt lat="54.489421" lon="-3.259420"><ele>376</ele><time>2022-03-30T10:54:08Z</time><name>PT1514</name></trkpt>
<trkpt lat="54.489428" lon="-3.259407"><ele>376</ele><time>2022-03-30T10:54:10Z</time><name>PT1515</name></trkpt>
<trkpt lat="54.489435" lon="-3.259394"><ele>376</ele><time>2022-03-30T10:54:10Z</time><name>PT1516</name></trkpt>
<trkpt lat="54.489443" lon="-3.259380"><ele>376</ele><time>2022-03-30T10:54:11Z</time><name>PT1517</name></trkpt>
<trkpt lat="54.489452" lon="-3.259367"><ele>376</ele><time>2022-03-30T10:54:13Z</time><name>PT1518</name></trkpt>
<trkpt lat="54.489459" lon="-3.259358"><ele>376</ele><time>2022-03-30T10:54:13Z</time><name>PT1519</name></trkpt>
<trkpt lat="54.489466" lon="-3.259351"><ele>376</ele><time>2022-03-30T10:54:14Z</time><name>PT1520</name></trkpt>
<trkpt lat="54.489476" lon="-3.259342"><ele>377</ele><time>2022-03-30T10:54:16Z</time><name>PT1521</name></trkpt>
<trkpt lat="54.489482" lon="-3.259337"><ele>377</ele><time>2022-03-30T10:54:16Z</time><name>PT1522</name></trkpt>
<trkpt lat="54.489488" lon="-3.259331"><ele>377</ele><time>2022-03-30T10:54:17Z</time><name>PT1523</name></trkpt>
<trkpt lat="54.489494" lon="-3.259322"><ele>377</ele><time>2022-03-30T10:54:19Z</time><name>PT1524</name></trkpt>
<trkpt lat="54.489497" lon="-3.259314"><ele>377</ele><time>2022-03-30T10:54:19Z</time><name>PT1525</name></trkpt>
<trkpt lat="54.489502" lon="-3.259303"><ele>377</ele><time>2022-03-30T10:54:20Z</time><name>PT1526</name></trkpt>
<trkpt lat="54.489500" lon="-3.259294"><ele>377</ele><time>2022-03-30T10:54:22Z</time><name>PT1527</name></trkpt>
<trkpt lat="54.489501" lon="-3.259284"><ele>377</ele><time>2022-03-30T10:54:22Z</time><name>PT1528</name></trkpt>
<trkpt lat="54.489508" lon="-3.259277"><ele>377</ele><time>2022-03-30T10:54:23Z</time><name>PT1529</name></trkpt>
<trkpt lat="54.489511" lon="-3.259264"><ele>377</ele><time>2022-03-30T10:54:25Z</time><name>PT1530</name></trkpt>
<trkpt lat="54.489513" lon="-3.259254"><ele>377</ele><time>2022-03-30T10:54:25Z</time><name>PT1531</name></trkpt>
<trkpt lat="54.489517" lon="-3.259240"><ele>377</ele><time>2022-03-30T10:54:26Z</time><name>PT1532</name></trkpt>
<trkpt lat="54.489521" lon="-3.259226"><ele>377</ele><time>2022-03-30T10:54:28Z</time><name>PT1533</name></trkpt>
<trkpt lat="54.489523" lon="-3.259213"><ele>376</ele><time>2022-03-30T10:54:28Z</time><name>PT1534</name></trkpt>
<trkpt lat="54.489527" lon="-3.259201"><ele>377</ele><time>2022-03-30T10:54:29Z</time><name>PT1535</name></trkpt>
<trkpt lat="54.489533" lon="-3.259192"><ele>377</ele><time>2022-03-30T10:54:31Z</time><name>PT1536</name></trkpt>
<trkpt lat="54.489539" lon="-3.259178"><ele>377</ele><time>2022-03-30T10:54:31Z</time><name>PT1537</name></trkpt>
<trkpt lat="54.489545" lon="-3.259166"><ele>377</ele><time>2022-03-30T10:54:32Z</time><name>PT1538</name></trkpt>
<trkpt lat="54.489553" lon="-3.259157"><ele>377</ele><time>2022-03-30T10:54:34Z</time><name>PT1539</name></trkpt>
<trkpt lat="54.489560" lon="-3.259149"><ele>377</ele><time>2022-03-30T10:54:34Z</time><name>PT1540</name></trkpt>
<trkpt lat="54.489566" lon="-3.259137"><ele>377</ele><time>2022-03-30T10:54:35Z</time><name>PT1541</name></trkpt>
<trkpt lat="54.489572" lon="-3.259123"><ele>377</ele><time>2022-03-30T10:54:37Z</time><name>PT1542</name></trkpt>
<trkpt lat="54.489573" lon="-3.259110"><ele>377</ele><time>2022-03-30T10:54:37Z</time><name>PT1543</name></trkpt>
<trkpt lat="54.489573" lon="-3.259095"><ele>377</ele><time>2022-03-30T10:54:38Z</time><name>PT1544</name></trkpt>
<trkpt lat="54.489576" lon="-3.259082"><ele>377</ele><time>2022-03-30T10:54:40Z</time><name>PT1545</name></trkpt>
<trkpt lat="54.489579" lon="-3.259069"><ele>377</ele><time>2022-03-30T10:54:40Z</time><name>PT1546</name></trkpt>
<trkpt lat="54.489582" lon="-3.259059"><ele>377</ele><time>2022-03-30T10:54:41Z</time><name>PT1547</name></trkpt>
<trkpt lat="54.489585" lon="-3.259047"><ele>377</ele><time>2022-03-30T10:54:43Z</time><name>PT1548</name></trkpt>
<trkpt lat="54.489589" lon="-3.259034"><ele>377</ele><time>2022-03-30T10:54:43Z</time><name>PT1549</name></trkpt>
<trkpt lat="54.489593" lon="-3.259021"><ele>377</ele><time>2022-03-30T10:54:44Z</time><name>PT1550</name></trkpt>
<trkpt lat="54.489596" lon="-3.259009"><ele>377</ele><time>2022-03-30T10:54:46Z</time><name>PT1551</name></trkpt>
<trkpt lat="54.489599" lon="-3.258997"><ele>377</ele><time>2022-03-30T10:54:46Z</time><name>PT1552</name></trkpt>
<trkpt lat="54.489603" lon="-3.258985"><ele>377</ele><time>2022-03-30T10:54:47Z</time><name>PT1553</name></trkpt>
<trkpt lat="54.489607" lon="-3.258970"><ele>377</ele><time>2022-03-30T10:54:49Z</time><name>PT1554</name></trkpt>
<trkpt lat="54.489612" lon="-3.258957"><ele>377</ele><time>2022-03-30T10:54:49Z</time><name>PT1555</name></trkpt>
<trkpt lat="54.489617" lon="-3.258947"><ele>378</ele><time>2022-03-30T10:54:50Z</time><name>PT1556</name></trkpt>
<trkpt lat="54.489623" lon="-3.258937"><ele>378</ele><time>2022-03-30T10:54:52Z</time><name>PT1557</name></trkpt>
<trkpt lat="54.489630" lon="-3.258930"><ele>378</ele><time>2022-03-30T10:54:52Z</time><name>PT1558</name></trkpt>
<trkpt lat="54.489638" lon="-3.258923"><ele>378</ele><time>2022-03-30T10:54:53Z</time><name>PT1559</name></trkpt>
<trkpt lat="54.489642" lon="-3.258913"><ele>378</ele><time>2022-03-30T10:54:55Z</time><name>PT1560</name></trkpt>
<trkpt lat="54.489649" lon="-3.258906"><ele>378</ele><time>2022-03-30T10:54:55Z</time><name>PT1561</name></trkpt>
<trkpt lat="54.489651" lon="-3.258893"><ele>379</ele><time>2022-03-30T10:54:56Z</time><name>PT1562</name></trkpt>
<trkpt lat="54.489655" lon="-3.258878"><ele>379</ele><time>2022-03-30T10:54:58Z</time><name>PT1563</name></trkpt>
<trkpt lat="54.489659" lon="-3.258865"><ele>378</ele><time>2022-03-30T10:54:58Z</time><name>PT1564</name></trkpt>
<trkpt lat="54.489663" lon="-3.258847"><ele>379</ele><time>2022-03-30T10:54:59Z</time><name>PT1565</name></trkpt>
<trkpt lat="54.489667" lon="-3.258832"><ele>379</ele><time>2022-03-30T10:55:01Z</time><name>PT1566</name></trkpt>
<trkpt lat="54.489670" lon="-3.258813"><ele>379</ele><time>2022-03-30T10:55:01Z</time><name>PT1567</name></trkpt>
<trkpt lat="54.489674" lon="-3.258795"><ele>379</ele><time>2022-03-30T10:55:02Z</time><name>PT1568</name></trkpt>
<trkpt lat="54.489681" lon="-3.258778"><ele>379</ele><time>2022-03-30T10:55:04Z</time><name>PT1569</name></trkpt>
<trkpt lat="54.489688" lon="-3.258768"><ele>379</ele><time>2022-03-30T10:55:04Z</time><name>PT1570</name></trkpt>
<trkpt lat="54.489694" lon="-3.258761"><ele>379</ele><time>2022-03-30T10:55:05Z</time><name>PT1571</name></trkpt>
<trkpt lat="54.489699" lon="-3.258753"><ele>379</ele><time>2022-03-30T10:55:07Z</time><name>PT1572</name></trkpt>
<trkpt lat="54.489705" lon="-3.258743"><ele>380</ele><time>2022-03-30T10:55:07Z</time><name>PT1573</name></trkpt>
<trkpt lat="54.489712" lon="-3.258735"><ele>380</ele><time>2022-03-30T10:55:08Z</time><name>PT1574</name></trkpt>
<trkpt lat="54.489716" lon="-3.258726"><ele>380</ele><time>2022-03-30T10:55:10Z</time><name>PT1575</name></trkpt>
<trkpt lat="54.489722" lon="-3.258716"><ele>380</ele><time>2022-03-30T10:55:10Z</time><name>PT1576</name></trkpt>
<trkpt lat="54.489728" lon="-3.258707"><ele>380</ele><time>2022-03-30T10:55:11Z</time><name>PT1577</name></trkpt>
<trkpt lat="54.489732" lon="-3.258698"><ele>380</ele><time>2022-03-30T10:55:13Z</time><name>PT1578</name></trkpt>
<trkpt lat="54.489734" lon="-3.258687"><ele>380</ele><time>2022-03-30T10:55:13Z</time><name>PT1579</name></trkpt>
<trkpt lat="54.489742" lon="-3.258681"><ele>380</ele><time>2022-03-30T10:55:14Z</time><name>PT1580</name></trkpt>
<trkpt lat="54.489748" lon="-3.258672"><ele>380</ele><time>2022-03-30T10:55:16Z</time><name>PT1581</name></trkpt>
<trkpt lat="54.489752" lon="-3.258661"><ele>380</ele><time>2022-03-30T10:55:16Z</time><name>PT1582</name></trkpt>
<trkpt lat="54.489755" lon="-3.258651"><ele>380</ele><time>2022-03-30T10:55:17Z</time><name>PT1583</name></trkpt>
<trkpt lat="54.489763" lon="-3.258637"><ele>380</ele><time>2022-03-30T10:55:19Z</time><name>PT1584</name></trkpt>
<trkpt lat="54.489769" lon="-3.258620"><ele>380</ele><time>2022-03-30T10:55:19Z</time><name>PT1585</name></trkpt>
<trkpt lat="54.489774" lon="-3.258605"><ele>380</ele><time>2022-03-30T10:55:20Z</time><name>PT1586</name></trkpt>
<trkpt lat="54.489778" lon="-3.258596"><ele>380</ele><time>2022-03-30T10:55:22Z</time><name>PT1587</name></trkpt>
<trkpt lat="54.489784" lon="-3.258590"><ele>380</ele><time>2022-03-30T10:55:22Z</time><name>PT1588</name></trkpt>
<trkpt lat="54.489788" lon="-3.258580"><ele>380</ele><time>2022-03-30T10:55:23Z</time><name>PT1589</name></trkpt>
<trkpt lat="54.489795" lon="-3.258568"><ele>380</ele><time>2022-03-30T10:55:25Z</time><name>PT1590</name></trkpt>
<trkpt lat="54.489798" lon="-3.258556"><ele>380</ele><time>2022-03-30T10:55:25Z</time><name>PT1591</name></trkpt>
<trkpt lat="54.489804" lon="-3.258545"><ele>380</ele><time>2022-03-30T10:55:26Z</time><name>PT1592</name></trkpt>
<trkpt lat="54.489808" lon="-3.258535"><ele>381</ele><time>2022-03-30T10:55:28Z</time><name>PT1593</name></trkpt>
<trkpt lat="54.489809" lon="-3.258520"><ele>381</ele><time>2022-03-30T10:55:28Z</time><name>PT1594</name></trkpt>
<trkpt lat="54.489816" lon="-3.258507"><ele>381</ele><time>2022-03-30T10:55:29Z</time><name>PT1595</name></trkpt>
<trkpt lat="54.489819" lon="-3.258498"><ele>381</ele><time>2022-03-30T10:55:31Z</time><name>PT1596</name></trkpt>
<trkpt lat="54.489823" lon="-3.258489"><ele>381</ele><time>2022-03-30T10:55:31Z</time><name>PT1597</name></trkpt>
<trkpt lat="54.489827" lon="-3.258480"><ele>382</ele><time>2022-03-30T10:55:32Z</time><name>PT1598</name></trkpt>
<trkpt lat="54.489830" lon="-3.258469"><ele>382</ele><time>2022-03-30T10:55:34Z</time><name>PT1599</name></trkpt>
<trkpt lat="54.489831" lon="-3.258456"><ele>381</ele><time>2022-03-30T10:55:34Z</time><name>PT1600</name></trkpt>
<trkpt lat="54.489832" lon="-3.258442"><ele>382</ele><time>2022-03-30T10:55:35Z</time><name>PT1601</name></trkpt>
<trkpt lat="54.489852" lon="-3.258387"><ele>382</ele><time>2022-03-30T10:55:40Z</time><name>PT1602</name></trkpt>
<trkpt lat="54.489861" lon="-3.258335"><ele>383</ele><time>2022-03-30T10:55:43Z</time><name>PT1603</name></trkpt>
<trkpt lat="54.489870" lon="-3.258269"><ele>383</ele><time>2022-03-30T10:55:46Z</time><name>PT1604</name></trkpt>
<trkpt lat="54.489885" lon="-3.258230"><ele>383</ele><time>2022-03-30T10:55:49Z</time><name>PT1605</name></trkpt>
<trkpt lat="54.489899" lon="-3.258171"><ele>383</ele><time>2022-03-30T10:55:53Z</time><name>PT1606</name></trkpt>
<trkpt lat="54.489903" lon="-3.258115"><ele>384</ele><time>2022-03-30T10:55:56Z</time><name>PT1607</name></trkpt>
<trkpt lat="54.489918" lon="-3.258075"><ele>385</ele><time>2022-03-30T10:55:59Z</time><name>PT1608</name></trkpt>
<trkpt lat="54.489937" lon="-3.258008"><ele>386</ele><time>2022-03-30T10:56:04Z</time><name>PT1609</name></trkpt>
<trkpt lat="54.489958" lon="-3.257967"><ele>386</ele><time>2022-03-30T10:56:07Z</time><name>PT1610</name></trkpt>
<trkpt lat="54.489976" lon="-3.257919"><ele>387</ele><time>2022-03-30T10:56:10Z</time><name>PT1611</name></trkpt>
<trkpt lat="54.490004" lon="-3.257887"><ele>388</ele><time>2022-03-30T10:56:14Z</time><name>PT1612</name></trkpt>
<trkpt lat="54.490040" lon="-3.257857"><ele>389</ele><time>2022-03-30T10:56:19Z</time><name>PT1613</name></trkpt>
<trkpt lat="54.490068" lon="-3.257839"><ele>389</ele><time>2022-03-30T10:56:22Z</time><name>PT1614</name></trkpt>
<trkpt lat="54.490087" lon="-3.257794"><ele>389</ele><time>2022-03-30T10:56:25Z</time><name>PT1615</name></trkpt>
<trkpt lat="54.490087" lon="-3.257750"><ele>390</ele><time>2022-03-30T10:56:28Z</time><name>PT1616</name></trkpt>
<trkpt lat="54.490083" lon="-3.257700"><ele>391</ele><time>2022-03-30T10:56:31Z</time><name>PT1617</name></trkpt>
<trkpt lat="54.490090" lon="-3.257641"><ele>392</ele><time>2022-03-30T10:56:35Z</time><name>PT1618</name></trkpt>
<trkpt lat="54.490111" lon="-3.257613"><ele>392</ele><time>2022-03-30T10:56:40Z</time><name>PT1619</name></trkpt>
<trkpt lat="54.490129" lon="-3.257570"><ele>394</ele><time>2022-03-30T10:56:43Z</time><name>PT1620</name></trkpt>
<trkpt lat="54.490142" lon="-3.257543"><ele>394</ele><time>2022-03-30T10:56:46Z</time><name>PT1621</name></trkpt>
<trkpt lat="54.490154" lon="-3.257496"><ele>395</ele><time>2022-03-30T10:56:50Z</time><name>PT1622</name></trkpt>
<trkpt lat="54.490163" lon="-3.257448"><ele>395</ele><time>2022-03-30T10:56:55Z</time><name>PT1623</name></trkpt>
<trkpt lat="54.490174" lon="-3.257405"><ele>395</ele><time>2022-03-30T10:56:58Z</time><name>PT1624</name></trkpt>
<trkpt lat="54.490185" lon="-3.257339"><ele>396</ele><time>2022-03-30T10:57:01Z</time><name>PT1625</name></trkpt>
<trkpt lat="54.490197" lon="-3.257279"><ele>397</ele><time>2022-03-30T10:57:05Z</time><name>PT1626</name></trkpt>
<trkpt lat="54.490206" lon="-3.257249"><ele>397</ele><time>2022-03-30T10:57:10Z</time><name>PT1627</name></trkpt>
<trkpt lat="54.490216" lon="-3.257211"><ele>397</ele><time>2022-03-30T10:57:13Z</time><name>PT1628</name></trkpt>
<trkpt lat="54.490220" lon="-3.257187"><ele>398</ele><time>2022-03-30T10:57:16Z</time><name>PT1629</name></trkpt>
<trkpt lat="54.490229" lon="-3.257154"><ele>398</ele><time>2022-03-30T10:57:20Z</time><name>PT1630</name></trkpt>
<trkpt lat="54.490244" lon="-3.257132"><ele>398</ele><time>2022-03-30T10:57:23Z</time><name>PT1631</name></trkpt>
<trkpt lat="54.490265" lon="-3.257110"><ele>399</ele><time>2022-03-30T10:57:26Z</time><name>PT1632</name></trkpt>
<trkpt lat="54.490284" lon="-3.257087"><ele>398</ele><time>2022-03-30T10:57:29Z</time><name>PT1633</name></trkpt>
<trkpt lat="54.490303" lon="-3.257055"><ele>398</ele><time>2022-03-30T10:57:34Z</time><name>PT1634</name></trkpt>
<trkpt lat="54.490318" lon="-3.257028"><ele>399</ele><time>2022-03-30T10:57:37Z</time><name>PT1635</name></trkpt>
<trkpt lat="54.490339" lon="-3.256990"><ele>399</ele><time>2022-03-30T10:57:40Z</time><name>PT1636</name></trkpt>
<trkpt lat="54.490366" lon="-3.256950"><ele>399</ele><time>2022-03-30T10:57:44Z</time><name>PT1637</name></trkpt>
<trkpt lat="54.490383" lon="-3.256932"><ele>400</ele><time>2022-03-30T10:57:47Z</time><name>PT1638</name></trkpt>
<trkpt lat="54.490408" lon="-3.256909"><ele>400</ele><time>2022-03-30T10:57:52Z</time><name>PT1639</name></trkpt>
<trkpt lat="54.490425" lon="-3.256889"><ele>400</ele><time>2022-03-30T10:57:55Z</time><name>PT1640</name></trkpt>
<trkpt lat="54.490446" lon="-3.256818"><ele>402</ele><time>2022-03-30T10:58:10Z</time><name>PT1641</name></trkpt>
<trkpt lat="54.490470" lon="-3.256780"><ele>402</ele><time>2022-03-30T10:58:13Z</time><name>PT1642</name></trkpt>
<trkpt lat="54.490488" lon="-3.256752"><ele>402</ele><time>2022-03-30T10:58:16Z</time><name>PT1643</name></trkpt>
<trkpt lat="54.490505" lon="-3.256732"><ele>402</ele><time>2022-03-30T10:58:19Z</time><name>PT1644</name></trkpt>
<trkpt lat="54.490516" lon="-3.256713"><ele>402</ele><time>2022-03-30T10:58:23Z</time><name>PT1645</name></trkpt>
<trkpt lat="54.490526" lon="-3.256679"><ele>403</ele><time>2022-03-30T10:58:40Z</time><name>PT1646</name></trkpt>
<trkpt lat="54.490561" lon="-3.256620"><ele>403</ele><time>2022-03-30T10:58:43Z</time><name>PT1647</name></trkpt>
<trkpt lat="54.490579" lon="-3.256582"><ele>404</ele><time>2022-03-30T10:58:46Z</time><name>PT1648</name></trkpt>
<trkpt lat="54.490597" lon="-3.256530"><ele>405</ele><time>2022-03-30T10:58:50Z</time><name>PT1649</name></trkpt>
<trkpt lat="54.490617" lon="-3.256481"><ele>405</ele><time>2022-03-30T10:58:55Z</time><name>PT1650</name></trkpt>
<trkpt lat="54.490631" lon="-3.256452"><ele>407</ele><time>2022-03-30T10:58:58Z</time><name>PT1651</name></trkpt>
<trkpt lat="54.490642" lon="-3.256416"><ele>408</ele><time>2022-03-30T10:59:01Z</time><name>PT1652</name></trkpt>
<trkpt lat="54.490654" lon="-3.256379"><ele>407</ele><time>2022-03-30T10:59:04Z</time><name>PT1653</name></trkpt>
<trkpt lat="54.490669" lon="-3.256336"><ele>409</ele><time>2022-03-30T10:59:07Z</time><name>PT1654</name></trkpt>
<trkpt lat="54.490688" lon="-3.256292"><ele>410</ele><time>2022-03-30T10:59:11Z</time><name>PT1655</name></trkpt>
<trkpt lat="54.490703" lon="-3.256257"><ele>410</ele><time>2022-03-30T10:59:14Z</time><name>PT1656</name></trkpt>
<trkpt lat="54.490717" lon="-3.256211"><ele>412</ele><time>2022-03-30T10:59:19Z</time><name>PT1657</name></trkpt>
<trkpt lat="54.490723" lon="-3.256188"><ele>412</ele><time>2022-03-30T10:59:22Z</time><name>PT1658</name></trkpt>
<trkpt lat="54.490727" lon="-3.256174"><ele>413</ele><time>2022-03-30T10:59:25Z</time><name>PT1659</name></trkpt>
<trkpt lat="54.490726" lon="-3.256149"><ele>415</ele><time>2022-03-30T10:59:28Z</time><name>PT1660</name></trkpt>
<trkpt lat="54.490743" lon="-3.256110"><ele>416</ele><time>2022-03-30T10:59:32Z</time><name>PT1661</name></trkpt>
<trkpt lat="54.490755" lon="-3.256090"><ele>417</ele><time>2022-03-30T10:59:35Z</time><name>PT1662</name></trkpt>
<trkpt lat="54.490765" lon="-3.256065"><ele>417</ele><time>2022-03-30T10:59:38Z</time><name>PT1663</name></trkpt>
<trkpt lat="54.490769" lon="-3.256059"><ele>418</ele><time>2022-03-30T10:59:40Z</time><name>PT1664</name></trkpt>
<trkpt lat="54.490772" lon="-3.256054"><ele>418</ele><time>2022-03-30T10:59:40Z</time><name>PT1665</name></trkpt>
<trkpt lat="54.490779" lon="-3.256043"><ele>419</ele><time>2022-03-30T10:59:41Z</time><name>PT1666</name></trkpt>
<trkpt lat="54.490782" lon="-3.256032"><ele>419</ele><time>2022-03-30T10:59:43Z</time><name>PT1667</name></trkpt>
<trkpt lat="54.490784" lon="-3.256019"><ele>419</ele><time>2022-03-30T10:59:43Z</time><name>PT1668</name></trkpt>
<trkpt lat="54.490786" lon="-3.256006"><ele>419</ele><time>2022-03-30T10:59:44Z</time><name>PT1669</name></trkpt>
<trkpt lat="54.490788" lon="-3.255992"><ele>420</ele><time>2022-03-30T10:59:46Z</time><name>PT1670</name></trkpt>
<trkpt lat="54.490789" lon="-3.255981"><ele>420</ele><time>2022-03-30T10:59:46Z</time><name>PT1671</name></trkpt>
<trkpt lat="54.490791" lon="-3.255967"><ele>420</ele><time>2022-03-30T10:59:47Z</time><name>PT1672</name></trkpt>
<trkpt lat="54.490793" lon="-3.255957"><ele>420</ele><time>2022-03-30T10:59:49Z</time><name>PT1673</name></trkpt>
<trkpt lat="54.490794" lon="-3.255944"><ele>421</ele><time>2022-03-30T10:59:49Z</time><name>PT1674</name></trkpt>
<trkpt lat="54.490795" lon="-3.255937"><ele>421</ele><time>2022-03-30T10:59:50Z</time><name>PT1675</name></trkpt>
<trkpt lat="54.490797" lon="-3.255932"><ele>420</ele><time>2022-03-30T10:59:52Z</time><name>PT1676</name></trkpt>
<trkpt lat="54.490798" lon="-3.255926"><ele>420</ele><time>2022-03-30T10:59:52Z</time><name>PT1677</name></trkpt>
<trkpt lat="54.490800" lon="-3.255920"><ele>419</ele><time>2022-03-30T10:59:53Z</time><name>PT1678</name></trkpt>
<trkpt lat="54.490802" lon="-3.255913"><ele>419</ele><time>2022-03-30T10:59:55Z</time><name>PT1679</name></trkpt>
<trkpt lat="54.490805" lon="-3.255905"><ele>419</ele><time>2022-03-30T10:59:55Z</time><name>PT1680</name></trkpt>
<trkpt lat="54.490801" lon="-3.255895"><ele>419</ele><time>2022-03-30T10:59:56Z</time><name>PT1681</name></trkpt>
<trkpt lat="54.490804" lon="-3.255885"><ele>420</ele><time>2022-03-30T10:59:58Z</time><name>PT1682</name></trkpt>
<trkpt lat="54.490800" lon="-3.255875"><ele>420</ele><time>2022-03-30T10:59:58Z</time><name>PT1683</name></trkpt>
<trkpt lat="54.490801" lon="-3.255864"><ele>421</ele><time>2022-03-30T10:59:59Z</time><name>PT1684</name></trkpt>
<trkpt lat="54.490803" lon="-3.255852"><ele>421</ele><time>2022-03-30T11:00:01Z</time><name>PT1685</name></trkpt>
<trkpt lat="54.490807" lon="-3.255839"><ele>421</ele><time>2022-03-30T11:00:01Z</time><name>PT1686</name></trkpt>
<trkpt lat="54.490810" lon="-3.255829"><ele>421</ele><time>2022-03-30T11:00:02Z</time><name>PT1687</name></trkpt>
<trkpt lat="54.490813" lon="-3.255822"><ele>421</ele><time>2022-03-30T11:00:04Z</time><name>PT1688</name></trkpt>
<trkpt lat="54.490818" lon="-3.255812"><ele>422</ele><time>2022-03-30T11:00:04Z</time><name>PT1689</name></trkpt>
<trkpt lat="54.490819" lon="-3.255805"><ele>422</ele><time>2022-03-30T11:00:05Z</time><name>PT1690</name></trkpt>
<trkpt lat="54.490818" lon="-3.255797"><ele>422</ele><time>2022-03-30T11:00:07Z</time><name>PT1691</name></trkpt>
<trkpt lat="54.490818" lon="-3.255790"><ele>423</ele><time>2022-03-30T11:00:07Z</time><name>PT1692</name></trkpt>
<trkpt lat="54.490820" lon="-3.255781"><ele>423</ele><time>2022-03-30T11:00:08Z</time><name>PT1693</name></trkpt>
<trkpt lat="54.490824" lon="-3.255773"><ele>423</ele><time>2022-03-30T11:00:10Z</time><name>PT1694</name></trkpt>
<trkpt lat="54.490828" lon="-3.255766"><ele>423</ele><time>2022-03-30T11:00:10Z</time><name>PT1695</name></trkpt>
<trkpt lat="54.490830" lon="-3.255753"><ele>423</ele><time>2022-03-30T11:00:11Z</time><name>PT1696</name></trkpt>
<trkpt lat="54.490831" lon="-3.255744"><ele>424</ele><time>2022-03-30T11:00:13Z</time><name>PT1697</name></trkpt>
<trkpt lat="54.490832" lon="-3.255734"><ele>424</ele><time>2022-03-30T11:00:13Z</time><name>PT1698</name></trkpt>
<trkpt lat="54.490832" lon="-3.255728"><ele>424</ele><time>2022-03-30T11:00:14Z</time><name>PT1699</name></trkpt>
<trkpt lat="54.490832" lon="-3.255718"><ele>425</ele><time>2022-03-30T11:00:16Z</time><name>PT1700</name></trkpt>
<trkpt lat="54.490833" lon="-3.255705"><ele>425</ele><time>2022-03-30T11:00:16Z</time><name>PT1701</name></trkpt>
<trkpt lat="54.490830" lon="-3.255690"><ele>425</ele><time>2022-03-30T11:00:17Z</time><name>PT1702</name></trkpt>
<trkpt lat="54.490830" lon="-3.255677"><ele>426</ele><time>2022-03-30T11:00:19Z</time><name>PT1703</name></trkpt>
<trkpt lat="54.490830" lon="-3.255664"><ele>426</ele><time>2022-03-30T11:00:19Z</time><name>PT1704</name></trkpt>
<trkpt lat="54.490829" lon="-3.255653"><ele>426</ele><time>2022-03-30T11:00:20Z</time><name>PT1705</name></trkpt>
<trkpt lat="54.490827" lon="-3.255647"><ele>426</ele><time>2022-03-30T11:00:22Z</time><name>PT1706</name></trkpt>
<trkpt lat="54.490828" lon="-3.255635"><ele>426</ele><time>2022-03-30T11:00:22Z</time><name>PT1707</name></trkpt>
<trkpt lat="54.490828" lon="-3.255627"><ele>426</ele><time>2022-03-30T11:00:23Z</time><name>PT1708</name></trkpt>
<trkpt lat="54.490829" lon="-3.255621"><ele>426</ele><time>2022-03-30T11:00:25Z</time><name>PT1709</name></trkpt>
<trkpt lat="54.490833" lon="-3.255607"><ele>426</ele><time>2022-03-30T11:00:29Z</time><name>PT1710</name></trkpt>
<trkpt lat="54.490835" lon="-3.255574"><ele>426</ele><time>2022-03-30T11:00:31Z</time><name>PT1711</name></trkpt>
<trkpt lat="54.490837" lon="-3.255542"><ele>427</ele><time>2022-03-30T11:00:31Z</time><name>PT1712</name></trkpt>
<trkpt lat="54.490838" lon="-3.255530"><ele>427</ele><time>2022-03-30T11:00:32Z</time><name>PT1713</name></trkpt>
<trkpt lat="54.490838" lon="-3.255520"><ele>427</ele><time>2022-03-30T11:00:34Z</time><name>PT1714</name></trkpt>
<trkpt lat="54.490837" lon="-3.255506"><ele>427</ele><time>2022-03-30T11:00:34Z</time><name>PT1715</name></trkpt>
<trkpt lat="54.490835" lon="-3.255492"><ele>427</ele><time>2022-03-30T11:00:35Z</time><name>PT1716</name></trkpt>
<trkpt lat="54.490834" lon="-3.255483"><ele>428</ele><time>2022-03-30T11:00:37Z</time><name>PT1717</name></trkpt>
<trkpt lat="54.490833" lon="-3.255473"><ele>428</ele><time>2022-03-30T11:00:37Z</time><name>PT1718</name></trkpt>
<trkpt lat="54.490836" lon="-3.255462"><ele>428</ele><time>2022-03-30T11:00:38Z</time><name>PT1719</name></trkpt>
<trkpt lat="54.490839" lon="-3.255460"><ele>428</ele><time>2022-03-30T11:00:40Z</time><name>PT1720</name></trkpt>
<trkpt lat="54.490840" lon="-3.255450"><ele>428</ele><time>2022-03-30T11:00:40Z</time><name>PT1721</name></trkpt>
<trkpt lat="54.490840" lon="-3.255434"><ele>428</ele><time>2022-03-30T11:00:41Z</time><name>PT1722</name></trkpt>
<trkpt lat="54.490839" lon="-3.255419"><ele>428</ele><time>2022-03-30T11:00:43Z</time><name>PT1723</name></trkpt>
<trkpt lat="54.490837" lon="-3.255406"><ele>428</ele><time>2022-03-30T11:00:43Z</time><name>PT1724</name></trkpt>
<trkpt lat="54.490838" lon="-3.255394"><ele>429</ele><time>2022-03-30T11:00:44Z</time><name>PT1725</name></trkpt>
<trkpt lat="54.490840" lon="-3.255384"><ele>429</ele><time>2022-03-30T11:00:46Z</time><name>PT1726</name></trkpt>
<trkpt lat="54.490841" lon="-3.255380"><ele>429</ele><time>2022-03-30T11:00:46Z</time><name>PT1727</name></trkpt>
<trkpt lat="54.490842" lon="-3.255372"><ele>429</ele><time>2022-03-30T11:00:47Z</time><name>PT1728</name></trkpt>
<trkpt lat="54.490842" lon="-3.255364"><ele>429</ele><time>2022-03-30T11:00:49Z</time><name>PT1729</name></trkpt>
<trkpt lat="54.490844" lon="-3.255356"><ele>429</ele><time>2022-03-30T11:00:49Z</time><name>PT1730</name></trkpt>
<trkpt lat="54.490843" lon="-3.255348"><ele>429</ele><time>2022-03-30T11:00:50Z</time><name>PT1731</name></trkpt>
<trkpt lat="54.490845" lon="-3.255344"><ele>430</ele><time>2022-03-30T11:00:52Z</time><name>PT1732</name></trkpt>
<trkpt lat="54.490852" lon="-3.255314"><ele>429</ele><time>2022-03-30T11:01:28Z</time><name>PT1733</name></trkpt>
<trkpt lat="54.490859" lon="-3.255296"><ele>430</ele><time>2022-03-30T11:01:29Z</time><name>PT1734</name></trkpt>
<trkpt lat="54.490862" lon="-3.255269"><ele>430</ele><time>2022-03-30T11:01:31Z</time><name>PT1735</name></trkpt>
<trkpt lat="54.490872" lon="-3.255232"><ele>431</ele><time>2022-03-30T11:01:31Z</time><name>PT1736</name></trkpt>
<trkpt lat="54.490876" lon="-3.255205"><ele>432</ele><time>2022-03-30T11:01:32Z</time><name>PT1737</name></trkpt>
<trkpt lat="54.490883" lon="-3.255186"><ele>432</ele><time>2022-03-30T11:01:34Z</time><name>PT1738</name></trkpt>
<trkpt lat="54.490887" lon="-3.255173"><ele>432</ele><time>2022-03-30T11:01:34Z</time><name>PT1739</name></trkpt>
<trkpt lat="54.490888" lon="-3.255155"><ele>433</ele><time>2022-03-30T11:01:38Z</time><name>PT1740</name></trkpt>
<trkpt lat="54.490892" lon="-3.255143"><ele>432</ele><time>2022-03-30T11:01:41Z</time><name>PT1741</name></trkpt>
<trkpt lat="54.490897" lon="-3.255143"><ele>433</ele><time>2022-03-30T11:01:46Z</time><name>PT1742</name></trkpt>
<trkpt lat="54.490929" lon="-3.255113"><ele>434</ele><time>2022-03-30T11:01:49Z</time><name>PT1743</name></trkpt>
<trkpt lat="54.490949" lon="-3.255072"><ele>434</ele><time>2022-03-30T11:01:52Z</time><name>PT1744</name></trkpt>
<trkpt lat="54.490961" lon="-3.255043"><ele>435</ele><time>2022-03-30T11:01:55Z</time><name>PT1745</name></trkpt>
<trkpt lat="54.490969" lon="-3.254986"><ele>436</ele><time>2022-03-30T11:02:07Z</time><name>PT1746</name></trkpt>
<trkpt lat="54.490989" lon="-3.254946"><ele>436</ele><time>2022-03-30T11:02:10Z</time><name>PT1747</name></trkpt>
<trkpt lat="54.491012" lon="-3.254914"><ele>436</ele><time>2022-03-30T11:02:14Z</time><name>PT1748</name></trkpt>
<trkpt lat="54.491025" lon="-3.254896"><ele>437</ele><time>2022-03-30T11:02:17Z</time><name>PT1749</name></trkpt>
<trkpt lat="54.491044" lon="-3.254835"><ele>439</ele><time>2022-03-30T11:02:40Z</time><name>PT1750</name></trkpt>
<trkpt lat="54.491058" lon="-3.254800"><ele>440</ele><time>2022-03-30T11:02:43Z</time><name>PT1751</name></trkpt>
<trkpt lat="54.491068" lon="-3.254760"><ele>441</ele><time>2022-03-30T11:02:46Z</time><name>PT1752</name></trkpt>
<trkpt lat="54.491082" lon="-3.254649"><ele>443</ele><time>2022-03-30T11:03:16Z</time><name>PT1753</name></trkpt>
<trkpt lat="54.491083" lon="-3.254595"><ele>444</ele><time>2022-03-30T11:03:43Z</time><name>PT1754</name></trkpt>
<trkpt lat="54.491089" lon="-3.254537"><ele>445</ele><time>2022-03-30T11:03:46Z</time><name>PT1755</name></trkpt>
<trkpt lat="54.491104" lon="-3.254447"><ele>447</ele><time>2022-03-30T11:04:01Z</time><name>PT1756</name></trkpt>
<trkpt lat="54.491116" lon="-3.254355"><ele>448</ele><time>2022-03-30T11:04:04Z</time><name>PT1757</name></trkpt>
<trkpt lat="54.491126" lon="-3.254308"><ele>449</ele><time>2022-03-30T11:04:07Z</time><name>PT1758</name></trkpt>
<trkpt lat="54.491125" lon="-3.254255"><ele>450</ele><time>2022-03-30T11:04:11Z</time><name>PT1759</name></trkpt>
<trkpt lat="54.491122" lon="-3.254201"><ele>450</ele><time>2022-03-30T11:04:16Z</time><name>PT1760</name></trkpt>
<trkpt lat="54.491131" lon="-3.254167"><ele>451</ele><time>2022-03-30T11:04:19Z</time><name>PT1761</name></trkpt>
<trkpt lat="54.491137" lon="-3.254097"><ele>452</ele><time>2022-03-30T11:04:22Z</time><name>PT1762</name></trkpt>
<trkpt lat="54.491142" lon="-3.254053"><ele>453</ele><time>2022-03-30T11:04:25Z</time><name>PT1763</name></trkpt>
<trkpt lat="54.491155" lon="-3.253995"><ele>454</ele><time>2022-03-30T11:04:29Z</time><name>PT1764</name></trkpt>
<trkpt lat="54.491157" lon="-3.253953"><ele>456</ele><time>2022-03-30T11:04:34Z</time><name>PT1765</name></trkpt>
<trkpt lat="54.491162" lon="-3.253921"><ele>456</ele><time>2022-03-30T11:04:37Z</time><name>PT1766</name></trkpt>
<trkpt lat="54.491173" lon="-3.253894"><ele>457</ele><time>2022-03-30T11:04:40Z</time><name>PT1767</name></trkpt>
<trkpt lat="54.491186" lon="-3.253859"><ele>458</ele><time>2022-03-30T11:04:43Z</time><name>PT1768</name></trkpt>
<trkpt lat="54.491200" lon="-3.253835"><ele>459</ele><time>2022-03-30T11:04:46Z</time><name>PT1769</name></trkpt>
<trkpt lat="54.491197" lon="-3.253796"><ele>460</ele><time>2022-03-30T11:04:50Z</time><name>PT1770</name></trkpt>
<trkpt lat="54.491197" lon="-3.253765"><ele>461</ele><time>2022-03-30T11:04:53Z</time><name>PT1771</name></trkpt>
<trkpt lat="54.491188" lon="-3.253731"><ele>461</ele><time>2022-03-30T11:04:56Z</time><name>PT1772</name></trkpt>
<trkpt lat="54.491182" lon="-3.253677"><ele>462</ele><time>2022-03-30T11:05:01Z</time><name>PT1773</name></trkpt>
<trkpt lat="54.491184" lon="-3.253641"><ele>463</ele><time>2022-03-30T11:05:04Z</time><name>PT1774</name></trkpt>
<trkpt lat="54.491186" lon="-3.253597"><ele>464</ele><time>2022-03-30T11:05:07Z</time><name>PT1775</name></trkpt>
<trkpt lat="54.491192" lon="-3.253567"><ele>465</ele><time>2022-03-30T11:05:10Z</time><name>PT1776</name></trkpt>
<trkpt lat="54.491183" lon="-3.253523"><ele>466</ele><time>2022-03-30T11:05:14Z</time><name>PT1777</name></trkpt>
<trkpt lat="54.491180" lon="-3.253484"><ele>467</ele><time>2022-03-30T11:05:19Z</time><name>PT1778</name></trkpt>
<trkpt lat="54.491177" lon="-3.253453"><ele>467</ele><time>2022-03-30T11:05:32Z</time><name>PT1779</name></trkpt>
<trkpt lat="54.491170" lon="-3.253392"><ele>467</ele><time>2022-03-30T11:05:37Z</time><name>PT1780</name></trkpt>
<trkpt lat="54.491168" lon="-3.253372"><ele>467</ele><time>2022-03-30T11:05:40Z</time><name>PT1781</name></trkpt>
<trkpt lat="54.491157" lon="-3.253273"><ele>469</ele><time>2022-03-30T11:05:44Z</time><name>PT1782</name></trkpt>
<trkpt lat="54.491156" lon="-3.253195"><ele>470</ele><time>2022-03-30T11:05:49Z</time><name>PT1783</name></trkpt>
<trkpt lat="54.491150" lon="-3.253151"><ele>471</ele><time>2022-03-30T11:05:52Z</time><name>PT1784</name></trkpt>
<trkpt lat="54.491149" lon="-3.253095"><ele>471</ele><time>2022-03-30T11:05:55Z</time><name>PT1785</name></trkpt>
<trkpt lat="54.491139" lon="-3.253042"><ele>472</ele><time>2022-03-30T11:05:59Z</time><name>PT1786</name></trkpt>
<trkpt lat="54.491131" lon="-3.252987"><ele>473</ele><time>2022-03-30T11:06:04Z</time><name>PT1787</name></trkpt>
<trkpt lat="54.491125" lon="-3.252953"><ele>474</ele><time>2022-03-30T11:06:07Z</time><name>PT1788</name></trkpt>
<trkpt lat="54.491116" lon="-3.252911"><ele>475</ele><time>2022-03-30T11:06:10Z</time><name>PT1789</name></trkpt>
<trkpt lat="54.491112" lon="-3.252903"><ele>476</ele><time>2022-03-30T11:06:11Z</time><name>PT1790</name></trkpt>
<trkpt lat="54.491109" lon="-3.252895"><ele>476</ele><time>2022-03-30T11:06:13Z</time><name>PT1791</name></trkpt>
<trkpt lat="54.491108" lon="-3.252884"><ele>476</ele><time>2022-03-30T11:06:13Z</time><name>PT1792</name></trkpt>
<trkpt lat="54.491108" lon="-3.252877"><ele>476</ele><time>2022-03-30T11:06:14Z</time><name>PT1793</name></trkpt>
<trkpt lat="54.491107" lon="-3.252872"><ele>476</ele><time>2022-03-30T11:06:16Z</time><name>PT1794</name></trkpt>
<trkpt lat="54.491107" lon="-3.252862"><ele>476</ele><time>2022-03-30T11:06:16Z</time><name>PT1795</name></trkpt>
<trkpt lat="54.491113" lon="-3.252854"><ele>476</ele><time>2022-03-30T11:06:17Z</time><name>PT1796</name></trkpt>
<trkpt lat="54.491114" lon="-3.252846"><ele>476</ele><time>2022-03-30T11:06:19Z</time><name>PT1797</name></trkpt>
<trkpt lat="54.491117" lon="-3.252838"><ele>476</ele><time>2022-03-30T11:06:19Z</time><name>PT1798</name></trkpt>
<trkpt lat="54.491117" lon="-3.252828"><ele>476</ele><time>2022-03-30T11:06:20Z</time><name>PT1799</name></trkpt>
<trkpt lat="54.491113" lon="-3.252822"><ele>477</ele><time>2022-03-30T11:06:22Z</time><name>PT1800</name></trkpt>
<trkpt lat="54.491111" lon="-3.252814"><ele>477</ele><time>2022-03-30T11:06:22Z</time><name>PT1801</name></trkpt>
<trkpt lat="54.491110" lon="-3.252806"><ele>477</ele><time>2022-03-30T11:06:23Z</time><name>PT1802</name></trkpt>
<trkpt lat="54.491102" lon="-3.252794"><ele>477</ele><time>2022-03-30T11:06:35Z</time><name>PT1803</name></trkpt>
<trkpt lat="54.491098" lon="-3.252780"><ele>478</ele><time>2022-03-30T11:06:37Z</time><name>PT1804</name></trkpt>
<trkpt lat="54.491092" lon="-3.252761"><ele>478</ele><time>2022-03-30T11:06:37Z</time><name>PT1805</name></trkpt>
<trkpt lat="54.491087" lon="-3.252732"><ele>478</ele><time>2022-03-30T11:06:38Z</time><name>PT1806</name></trkpt>
<trkpt lat="54.491082" lon="-3.252715"><ele>479</ele><time>2022-03-30T11:06:40Z</time><name>PT1807</name></trkpt>
<trkpt lat="54.491075" lon="-3.252705"><ele>479</ele><time>2022-03-30T11:06:40Z</time><name>PT1808</name></trkpt>
<trkpt lat="54.491070" lon="-3.252692"><ele>479</ele><time>2022-03-30T11:06:41Z</time><name>PT1809</name></trkpt>
<trkpt lat="54.491063" lon="-3.252682"><ele>479</ele><time>2022-03-30T11:06:43Z</time><name>PT1810</name></trkpt>
<trkpt lat="54.491059" lon="-3.252670"><ele>480</ele><time>2022-03-30T11:06:43Z</time><name>PT1811</name></trkpt>
<trkpt lat="54.491058" lon="-3.252661"><ele>480</ele><time>2022-03-30T11:06:44Z</time><name>PT1812</name></trkpt>
<trkpt lat="54.491056" lon="-3.252653"><ele>480</ele><time>2022-03-30T11:06:46Z</time><name>PT1813</name></trkpt>
<trkpt lat="54.491055" lon="-3.252638"><ele>481</ele><time>2022-03-30T11:06:46Z</time><name>PT1814</name></trkpt>
<trkpt lat="54.491055" lon="-3.252626"><ele>481</ele><time>2022-03-30T11:06:49Z</time><name>PT1815</name></trkpt>
<trkpt lat="54.491049" lon="-3.252616"><ele>482</ele><time>2022-03-30T11:06:50Z</time><name>PT1816</name></trkpt>
<trkpt lat="54.491041" lon="-3.252610"><ele>482</ele><time>2022-03-30T11:06:52Z</time><name>PT1817</name></trkpt>
<trkpt lat="54.491037" lon="-3.252604"><ele>482</ele><time>2022-03-30T11:06:52Z</time><name>PT1818</name></trkpt>
<trkpt lat="54.491033" lon="-3.252602"><ele>482</ele><time>2022-03-30T11:06:53Z</time><name>PT1819</name></trkpt>
<trkpt lat="54.491022" lon="-3.252590"><ele>482</ele><time>2022-03-30T11:06:55Z</time><name>PT1820</name></trkpt>
<trkpt lat="54.491016" lon="-3.252586"><ele>482</ele><time>2022-03-30T11:06:55Z</time><name>PT1821</name></trkpt>
<trkpt lat="54.491012" lon="-3.252579"><ele>482</ele><time>2022-03-30T11:06:56Z</time><name>PT1822</name></trkpt>
<trkpt lat="54.491013" lon="-3.252573"><ele>482</ele><time>2022-03-30T11:06:58Z</time><name>PT1823</name></trkpt>
<trkpt lat="54.491010" lon="-3.252568"><ele>483</ele><time>2022-03-30T11:06:58Z</time><name>PT1824</name></trkpt>
<trkpt lat="54.491005" lon="-3.252560"><ele>483</ele><time>2022-03-30T11:06:59Z</time><name>PT1825</name></trkpt>
<trkpt lat="54.491002" lon="-3.252554"><ele>484</ele><time>2022-03-30T11:07:01Z</time><name>PT1826</name></trkpt>
<trkpt lat="54.491001" lon="-3.252551"><ele>484</ele><time>2022-03-30T11:07:01Z</time><name>PT1827</name></trkpt>
<trkpt lat="54.490999" lon="-3.252544"><ele>484</ele><time>2022-03-30T11:07:02Z</time><name>PT1828</name></trkpt>
<trkpt lat="54.490999" lon="-3.252533"><ele>484</ele><time>2022-03-30T11:07:04Z</time><name>PT1829</name></trkpt>
<trkpt lat="54.490998" lon="-3.252523"><ele>484</ele><time>2022-03-30T11:07:04Z</time><name>PT1830</name></trkpt>
<trkpt lat="54.490998" lon="-3.252516"><ele>484</ele><time>2022-03-30T11:07:05Z</time><name>PT1831</name></trkpt>
<trkpt lat="54.490997" lon="-3.252508"><ele>485</ele><time>2022-03-30T11:07:07Z</time><name>PT1832</name></trkpt>
<trkpt lat="54.490995" lon="-3.252499"><ele>485</ele><time>2022-03-30T11:07:07Z</time><name>PT1833</name></trkpt>
<trkpt lat="54.490993" lon="-3.252472"><ele>486</ele><time>2022-03-30T11:07:22Z</time><name>PT1834</name></trkpt>
<trkpt lat="54.490995" lon="-3.252457"><ele>486</ele><time>2022-03-30T11:07:23Z</time><name>PT1835</name></trkpt>
<trkpt lat="54.490994" lon="-3.252440"><ele>486</ele><time>2022-03-30T11:07:25Z</time><name>PT1836</name></trkpt>
<trkpt lat="54.490995" lon="-3.252428"><ele>486</ele><time>2022-03-30T11:07:25Z</time><name>PT1837</name></trkpt>
<trkpt lat="54.490996" lon="-3.252411"><ele>487</ele><time>2022-03-30T11:07:34Z</time><name>PT1838</name></trkpt>
<trkpt lat="54.490996" lon="-3.252397"><ele>487</ele><time>2022-03-30T11:07:35Z</time><name>PT1839</name></trkpt>
<trkpt lat="54.490996" lon="-3.252383"><ele>487</ele><time>2022-03-30T11:07:37Z</time><name>PT1840</name></trkpt>
<trkpt lat="54.490997" lon="-3.252354"><ele>488</ele><time>2022-03-30T11:08:07Z</time><name>PT1841</name></trkpt>
<trkpt lat="54.490999" lon="-3.252322"><ele>489</ele><time>2022-03-30T11:08:07Z</time><name>PT1842</name></trkpt>
<trkpt lat="54.491001" lon="-3.252297"><ele>489</ele><time>2022-03-30T11:08:08Z</time><name>PT1843</name></trkpt>
<trkpt lat="54.490998" lon="-3.252262"><ele>490</ele><time>2022-03-30T11:08:10Z</time><name>PT1844</name></trkpt>
<trkpt lat="54.490995" lon="-3.252240"><ele>490</ele><time>2022-03-30T11:08:10Z</time><name>PT1845</name></trkpt>
<trkpt lat="54.490994" lon="-3.252225"><ele>490</ele><time>2022-03-30T11:08:11Z</time><name>PT1846</name></trkpt>
<trkpt lat="54.490992" lon="-3.252204"><ele>491</ele><time>2022-03-30T11:08:13Z</time><name>PT1847</name></trkpt>
<trkpt lat="54.490995" lon="-3.252171"><ele>492</ele><time>2022-03-30T11:08:43Z</time><name>PT1848</name></trkpt>
<trkpt lat="54.491002" lon="-3.252114"><ele>494</ele><time>2022-03-30T11:08:43Z</time><name>PT1849</name></trkpt>
<trkpt lat="54.491010" lon="-3.252085"><ele>494</ele><time>2022-03-30T11:08:44Z</time><name>PT1850</name></trkpt>
<trkpt lat="54.491017" lon="-3.252058"><ele>495</ele><time>2022-03-30T11:08:46Z</time><name>PT1851</name></trkpt>
<trkpt lat="54.491019" lon="-3.252021"><ele>495</ele><time>2022-03-30T11:08:46Z</time><name>PT1852</name></trkpt>
<trkpt lat="54.491025" lon="-3.251993"><ele>496</ele><time>2022-03-30T11:08:47Z</time><name>PT1853</name></trkpt>
<trkpt lat="54.491027" lon="-3.251972"><ele>496</ele><time>2022-03-30T11:08:49Z</time><name>PT1854</name></trkpt>
<trkpt lat="54.491033" lon="-3.251961"><ele>496</ele><time>2022-03-30T11:08:49Z</time><name>PT1855</name></trkpt>
<trkpt lat="54.491038" lon="-3.251946"><ele>497</ele><time>2022-03-30T11:08:50Z</time><name>PT1856</name></trkpt>
<trkpt lat="54.491040" lon="-3.251930"><ele>497</ele><time>2022-03-30T11:08:52Z</time><name>PT1857</name></trkpt>
<trkpt lat="54.491045" lon="-3.251888"><ele>498</ele><time>2022-03-30T11:09:13Z</time><name>PT1858</name></trkpt>
<trkpt lat="54.491050" lon="-3.251850"><ele>499</ele><time>2022-03-30T11:09:13Z</time><name>PT1859</name></trkpt>
<trkpt lat="54.491056" lon="-3.251819"><ele>499</ele><time>2022-03-30T11:09:14Z</time><name>PT1860</name></trkpt>
<trkpt lat="54.491061" lon="-3.251797"><ele>499</ele><time>2022-03-30T11:09:16Z</time><name>PT1861</name></trkpt>
<trkpt lat="54.491062" lon="-3.251772"><ele>500</ele><time>2022-03-30T11:09:16Z</time><name>PT1862</name></trkpt>
<trkpt lat="54.491062" lon="-3.251755"><ele>500</ele><time>2022-03-30T11:09:17Z</time><name>PT1863</name></trkpt>
<trkpt lat="54.491067" lon="-3.251738"><ele>500</ele><time>2022-03-30T11:09:19Z</time><name>PT1864</name></trkpt>
<trkpt lat="54.491071" lon="-3.251720"><ele>501</ele><time>2022-03-30T11:09:19Z</time><name>PT1865</name></trkpt>
<trkpt lat="54.491076" lon="-3.251706"><ele>501</ele><time>2022-03-30T11:09:20Z</time><name>PT1866</name></trkpt>
<trkpt lat="54.491080" lon="-3.251692"><ele>501</ele><time>2022-03-30T11:09:22Z</time><name>PT1867</name></trkpt>
<trkpt lat="54.491083" lon="-3.251681"><ele>501</ele><time>2022-03-30T11:09:22Z</time><name>PT1868</name></trkpt>
<trkpt lat="54.491092" lon="-3.251667"><ele>502</ele><time>2022-03-30T11:09:23Z</time><name>PT1869</name></trkpt>
<trkpt lat="54.491096" lon="-3.251651"><ele>502</ele><time>2022-03-30T11:09:25Z</time><name>PT1870</name></trkpt>
<trkpt lat="54.491100" lon="-3.251640"><ele>503</ele><time>2022-03-30T11:09:25Z</time><name>PT1871</name></trkpt>
<trkpt lat="54.491110" lon="-3.251629"><ele>503</ele><time>2022-03-30T11:09:26Z</time><name>PT1872</name></trkpt>
<trkpt lat="54.491115" lon="-3.251616"><ele>504</ele><time>2022-03-30T11:09:28Z</time><name>PT1873</name></trkpt>
<trkpt lat="54.491117" lon="-3.251605"><ele>504</ele><time>2022-03-30T11:09:28Z</time><name>PT1874</name></trkpt>
<trkpt lat="54.491127" lon="-3.251557"><ele>505</ele><time>2022-03-30T11:09:38Z</time><name>PT1875</name></trkpt>
<trkpt lat="54.491136" lon="-3.251487"><ele>506</ele><time>2022-03-30T11:09:41Z</time><name>PT1876</name></trkpt>
<trkpt lat="54.491157" lon="-3.251416"><ele>507</ele><time>2022-03-30T11:09:46Z</time><name>PT1877</name></trkpt>
<trkpt lat="54.491171" lon="-3.251359"><ele>508</ele><time>2022-03-30T11:09:49Z</time><name>PT1878</name></trkpt>
<trkpt lat="54.491178" lon="-3.251316"><ele>509</ele><time>2022-03-30T11:09:52Z</time><name>PT1879</name></trkpt>
<trkpt lat="54.491189" lon="-3.251278"><ele>510</ele><time>2022-03-30T11:09:56Z</time><name>PT1880</name></trkpt>
<trkpt lat="54.491196" lon="-3.251250"><ele>511</ele><time>2022-03-30T11:09:59Z</time><name>PT1881</name></trkpt>
<trkpt lat="54.491205" lon="-3.251212"><ele>512</ele><time>2022-03-30T11:10:02Z</time><name>PT1882</name></trkpt>
<trkpt lat="54.491218" lon="-3.251172"><ele>513</ele><time>2022-03-30T11:10:05Z</time><name>PT1883</name></trkpt>
<trkpt lat="54.491231" lon="-3.251127"><ele>513</ele><time>2022-03-30T11:10:10Z</time><name>PT1884</name></trkpt>
<trkpt lat="54.491238" lon="-3.251091"><ele>514</ele><time>2022-03-30T11:10:13Z</time><name>PT1885</name></trkpt>
<trkpt lat="54.491249" lon="-3.251041"><ele>516</ele><time>2022-03-30T11:10:16Z</time><name>PT1886</name></trkpt>
<trkpt lat="54.491254" lon="-3.251002"><ele>518</ele><time>2022-03-30T11:10:20Z</time><name>PT1887</name></trkpt>
<trkpt lat="54.491261" lon="-3.250971"><ele>519</ele><time>2022-03-30T11:10:23Z</time><name>PT1888</name></trkpt>
<trkpt lat="54.491278" lon="-3.250924"><ele>521</ele><time>2022-03-30T11:10:28Z</time><name>PT1889</name></trkpt>
<trkpt lat="54.491288" lon="-3.250882"><ele>522</ele><time>2022-03-30T11:10:31Z</time><name>PT1890</name></trkpt>
<trkpt lat="54.491313" lon="-3.250850"><ele>523</ele><time>2022-03-30T11:10:35Z</time><name>PT1891</name></trkpt>
<trkpt lat="54.491327" lon="-3.250826"><ele>525</ele><time>2022-03-30T11:10:38Z</time><name>PT1892</name></trkpt>
<trkpt lat="54.491344" lon="-3.250807"><ele>526</ele><time>2022-03-30T11:10:41Z</time><name>PT1893</name></trkpt>
<trkpt lat="54.491368" lon="-3.250778"><ele>528</ele><time>2022-03-30T11:10:46Z</time><name>PT1894</name></trkpt>
<trkpt lat="54.491382" lon="-3.250754"><ele>528</ele><time>2022-03-30T11:10:49Z</time><name>PT1895</name></trkpt>
<trkpt lat="54.491403" lon="-3.250721"><ele>529</ele><time>2022-03-30T11:10:52Z</time><name>PT1896</name></trkpt>
<trkpt lat="54.491416" lon="-3.250703"><ele>530</ele><time>2022-03-30T11:10:55Z</time><name>PT1897</name></trkpt>
<trkpt lat="54.491434" lon="-3.250672"><ele>531</ele><time>2022-03-30T11:10:59Z</time><name>PT1898</name></trkpt>
<trkpt lat="54.491445" lon="-3.250652"><ele>531</ele><time>2022-03-30T11:11:02Z</time><name>PT1899</name></trkpt>
<trkpt lat="54.491456" lon="-3.250629"><ele>532</ele><time>2022-03-30T11:11:05Z</time><name>PT1900</name></trkpt>
<trkpt lat="54.491473" lon="-3.250596"><ele>534</ele><time>2022-03-30T11:11:08Z</time><name>PT1901</name></trkpt>
<trkpt lat="54.491489" lon="-3.250566"><ele>535</ele><time>2022-03-30T11:11:11Z</time><name>PT1902</name></trkpt>
<trkpt lat="54.491491" lon="-3.250556"><ele>535</ele><time>2022-03-30T11:11:13Z</time><name>PT1903</name></trkpt>
<trkpt lat="54.491492" lon="-3.250538"><ele>536</ele><time>2022-03-30T11:11:13Z</time><name>PT1904</name></trkpt>
<trkpt lat="54.491495" lon="-3.250532"><ele>536</ele><time>2022-03-30T11:11:14Z</time><name>PT1905</name></trkpt>
<trkpt lat="54.491497" lon="-3.250525"><ele>536</ele><time>2022-03-30T11:11:16Z</time><name>PT1906</name></trkpt>
<trkpt lat="54.491501" lon="-3.250519"><ele>536</ele><time>2022-03-30T11:11:16Z</time><name>PT1907</name></trkpt>
<trkpt lat="54.491506" lon="-3.250513"><ele>537</ele><time>2022-03-30T11:11:17Z</time><name>PT1908</name></trkpt>
<trkpt lat="54.491510" lon="-3.250503"><ele>537</ele><time>2022-03-30T11:11:19Z</time><name>PT1909</name></trkpt>
<trkpt lat="54.491513" lon="-3.250495"><ele>537</ele><time>2022-03-30T11:11:19Z</time><name>PT1910</name></trkpt>
<trkpt lat="54.491516" lon="-3.250486"><ele>538</ele><time>2022-03-30T11:11:20Z</time><name>PT1911</name></trkpt>
<trkpt lat="54.491518" lon="-3.250480"><ele>538</ele><time>2022-03-30T11:11:22Z</time><name>PT1912</name></trkpt>
<trkpt lat="54.491521" lon="-3.250473"><ele>538</ele><time>2022-03-30T11:11:22Z</time><name>PT1913</name></trkpt>
<trkpt lat="54.491525" lon="-3.250465"><ele>539</ele><time>2022-03-30T11:11:23Z</time><name>PT1914</name></trkpt>
<trkpt lat="54.491529" lon="-3.250458"><ele>539</ele><time>2022-03-30T11:11:25Z</time><name>PT1915</name></trkpt>
<trkpt lat="54.491533" lon="-3.250449"><ele>539</ele><time>2022-03-30T11:11:25Z</time><name>PT1916</name></trkpt>
<trkpt lat="54.491537" lon="-3.250438"><ele>539</ele><time>2022-03-30T11:11:26Z</time><name>PT1917</name></trkpt>
<trkpt lat="54.491540" lon="-3.250428"><ele>539</ele><time>2022-03-30T11:11:28Z</time><name>PT1918</name></trkpt>
<trkpt lat="54.491541" lon="-3.250417"><ele>540</ele><time>2022-03-30T11:11:28Z</time><name>PT1919</name></trkpt>
<trkpt lat="54.491542" lon="-3.250409"><ele>540</ele><time>2022-03-30T11:11:29Z</time><name>PT1920</name></trkpt>
<trkpt lat="54.491544" lon="-3.250400"><ele>540</ele><time>2022-03-30T11:11:31Z</time><name>PT1921</name></trkpt>
<trkpt lat="54.491546" lon="-3.250388"><ele>541</ele><time>2022-03-30T11:11:31Z</time><name>PT1922</name></trkpt>
<trkpt lat="54.491547" lon="-3.250375"><ele>540</ele><time>2022-03-30T11:11:32Z</time><name>PT1923</name></trkpt>
<trkpt lat="54.491546" lon="-3.250361"><ele>540</ele><time>2022-03-30T11:11:34Z</time><name>PT1924</name></trkpt>
<trkpt lat="54.491548" lon="-3.250350"><ele>540</ele><time>2022-03-30T11:11:34Z</time><name>PT1925</name></trkpt>
<trkpt lat="54.491550" lon="-3.250338"><ele>540</ele><time>2022-03-30T11:11:35Z</time><name>PT1926</name></trkpt>
<trkpt lat="54.491553" lon="-3.250325"><ele>541</ele><time>2022-03-30T11:11:37Z</time><name>PT1927</name></trkpt>
<trkpt lat="54.491554" lon="-3.250310"><ele>541</ele><time>2022-03-30T11:11:37Z</time><name>PT1928</name></trkpt>
<trkpt lat="54.491555" lon="-3.250297"><ele>541</ele><time>2022-03-30T11:11:38Z</time><name>PT1929</name></trkpt>
<trkpt lat="54.491556" lon="-3.250282"><ele>541</ele><time>2022-03-30T11:11:40Z</time><name>PT1930</name></trkpt>
<trkpt lat="54.491558" lon="-3.250269"><ele>542</ele><time>2022-03-30T11:11:40Z</time><name>PT1931</name></trkpt>
<trkpt lat="54.491560" lon="-3.250255"><ele>542</ele><time>2022-03-30T11:11:41Z</time><name>PT1932</name></trkpt>
<trkpt lat="54.491562" lon="-3.250238"><ele>542</ele><time>2022-03-30T11:11:43Z</time><name>PT1933</name></trkpt>
<trkpt lat="54.491564" lon="-3.250223"><ele>543</ele><time>2022-03-30T11:11:43Z</time><name>PT1934</name></trkpt>
<trkpt lat="54.491567" lon="-3.250209"><ele>543</ele><time>2022-03-30T11:11:44Z</time><name>PT1935</name></trkpt>
<trkpt lat="54.491568" lon="-3.250198"><ele>543</ele><time>2022-03-30T11:11:46Z</time><name>PT1936</name></trkpt>
<trkpt lat="54.491571" lon="-3.250189"><ele>543</ele><time>2022-03-30T11:11:46Z</time><name>PT1937</name></trkpt>
<trkpt lat="54.491572" lon="-3.250177"><ele>543</ele><time>2022-03-30T11:11:47Z</time><name>PT1938</name></trkpt>
<trkpt lat="54.491573" lon="-3.250163"><ele>543</ele><time>2022-03-30T11:11:49Z</time><name>PT1939</name></trkpt>
<trkpt lat="54.491576" lon="-3.250149"><ele>544</ele><time>2022-03-30T11:11:49Z</time><name>PT1940</name></trkpt>
<trkpt lat="54.491579" lon="-3.250140"><ele>544</ele><time>2022-03-30T11:11:50Z</time><name>PT1941</name></trkpt>
<trkpt lat="54.491579" lon="-3.250128"><ele>544</ele><time>2022-03-30T11:11:52Z</time><name>PT1942</name></trkpt>
<trkpt lat="54.491580" lon="-3.250125"><ele>544</ele><time>2022-03-30T11:11:52Z</time><name>PT1943</name></trkpt>
<trkpt lat="54.491579" lon="-3.250119"><ele>544</ele><time>2022-03-30T11:11:53Z</time><name>PT1944</name></trkpt>
<trkpt lat="54.491578" lon="-3.250116"><ele>544</ele><time>2022-03-30T11:11:55Z</time><name>PT1945</name></trkpt>
<trkpt lat="54.491578" lon="-3.250110"><ele>544</ele><time>2022-03-30T11:11:55Z</time><name>PT1946</name></trkpt>
<trkpt lat="54.491575" lon="-3.250102"><ele>544</ele><time>2022-03-30T11:12:34Z</time><name>PT1947</name></trkpt>
<trkpt lat="54.491577" lon="-3.250090"><ele>544</ele><time>2022-03-30T11:12:34Z</time><name>PT1948</name></trkpt>
<trkpt lat="54.491578" lon="-3.250087"><ele>544</ele><time>2022-03-30T11:12:35Z</time><name>PT1949</name></trkpt>
<trkpt lat="54.491579" lon="-3.250083"><ele>543</ele><time>2022-03-30T11:12:37Z</time><name>PT1950</name></trkpt>
<trkpt lat="54.491579" lon="-3.250085"><ele>543</ele><time>2022-03-30T11:12:37Z</time><name>PT1951</name></trkpt>
<trkpt lat="54.491578" lon="-3.250082"><ele>543</ele><time>2022-03-30T11:13:46Z</time><name>PT1952</name></trkpt>
<trkpt lat="54.491583" lon="-3.250065"><ele>543</ele><time>2022-03-30T11:13:48Z</time><name>PT1953</name></trkpt>
<trkpt lat="54.491587" lon="-3.250050"><ele>543</ele><time>2022-03-30T11:13:48Z</time><name>PT1954</name></trkpt>
<trkpt lat="54.491591" lon="-3.250035"><ele>543</ele><time>2022-03-30T11:13:49Z</time><name>PT1955</name></trkpt>
<trkpt lat="54.491597" lon="-3.250017"><ele>543</ele><time>2022-03-30T11:13:51Z</time><name>PT1956</name></trkpt>
<trkpt lat="54.491602" lon="-3.250001"><ele>543</ele><time>2022-03-30T11:13:51Z</time><name>PT1957</name></trkpt>
<trkpt lat="54.491608" lon="-3.249983"><ele>543</ele><time>2022-03-30T11:13:52Z</time><name>PT1958</name></trkpt>
<trkpt lat="54.491614" lon="-3.249967"><ele>543</ele><time>2022-03-30T11:13:54Z</time><name>PT1959</name></trkpt>
<trkpt lat="54.491623" lon="-3.249953"><ele>543</ele><time>2022-03-30T11:13:54Z</time><name>PT1960</name></trkpt>
<trkpt lat="54.491631" lon="-3.249941"><ele>543</ele><time>2022-03-30T11:13:55Z</time><name>PT1961</name></trkpt>
<trkpt lat="54.491637" lon="-3.249928"><ele>543</ele><time>2022-03-30T11:13:57Z</time><name>PT1962</name></trkpt>
<trkpt lat="54.491651" lon="-3.249889"><ele>543</ele><time>2022-03-30T11:13:58Z</time><name>PT1963</name></trkpt>
<trkpt lat="54.491657" lon="-3.249879"><ele>543</ele><time>2022-03-30T11:13:59Z</time><name>PT1964</name></trkpt>
<trkpt lat="54.491660" lon="-3.249866"><ele>543</ele><time>2022-03-30T11:14:00Z</time><name>PT1965</name></trkpt>
<trkpt lat="54.491662" lon="-3.249852"><ele>544</ele><time>2022-03-30T11:14:01Z</time><name>PT1966</name></trkpt>
<trkpt lat="54.491663" lon="-3.249840"><ele>543</ele><time>2022-03-30T11:14:02Z</time><name>PT1967</name></trkpt>
<trkpt lat="54.491666" lon="-3.249826"><ele>544</ele><time>2022-03-30T11:14:04Z</time><name>PT1968</name></trkpt>
<trkpt lat="54.491669" lon="-3.249810"><ele>544</ele><time>2022-03-30T11:14:04Z</time><name>PT1969</name></trkpt>
<trkpt lat="54.491673" lon="-3.249794"><ele>544</ele><time>2022-03-30T11:14:05Z</time><name>PT1970</name></trkpt>
<trkpt lat="54.491676" lon="-3.249778"><ele>544</ele><time>2022-03-30T11:14:07Z</time><name>PT1971</name></trkpt>
<trkpt lat="54.491678" lon="-3.249762"><ele>544</ele><time>2022-03-30T11:14:07Z</time><name>PT1972</name></trkpt>
<trkpt lat="54.491680" lon="-3.249746"><ele>544</ele><time>2022-03-30T11:14:08Z</time><name>PT1973</name></trkpt>
<trkpt lat="54.491682" lon="-3.249730"><ele>544</ele><time>2022-03-30T11:14:10Z</time><name>PT1974</name></trkpt>
<trkpt lat="54.491685" lon="-3.249711"><ele>544</ele><time>2022-03-30T11:14:10Z</time><name>PT1975</name></trkpt>
<trkpt lat="54.491688" lon="-3.249694"><ele>544</ele><time>2022-03-30T11:14:11Z</time><name>PT1976</name></trkpt>
<trkpt lat="54.491692" lon="-3.249678"><ele>544</ele><time>2022-03-30T11:14:12Z</time><name>PT1977</name></trkpt>
<trkpt lat="54.491692" lon="-3.249664"><ele>544</ele><time>2022-03-30T11:14:13Z</time><name>PT1978</name></trkpt>
<trkpt lat="54.491694" lon="-3.249645"><ele>544</ele><time>2022-03-30T11:14:15Z</time><name>PT1979</name></trkpt>
<trkpt lat="54.491694" lon="-3.249623"><ele>544</ele><time>2022-03-30T11:14:15Z</time><name>PT1980</name></trkpt>
<trkpt lat="54.491701" lon="-3.249605"><ele>544</ele><time>2022-03-30T11:14:16Z</time><name>PT1981</name></trkpt>
<trkpt lat="54.491709" lon="-3.249589"><ele>544</ele><time>2022-03-30T11:14:18Z</time><name>PT1982</name></trkpt>
<trkpt lat="54.491717" lon="-3.249576"><ele>544</ele><time>2022-03-30T11:14:18Z</time><name>PT1983</name></trkpt>
<trkpt lat="54.491726" lon="-3.249561"><ele>544</ele><time>2022-03-30T11:14:19Z</time><name>PT1984</name></trkpt>
<trkpt lat="54.491735" lon="-3.249548"><ele>544</ele><time>2022-03-30T11:14:21Z</time><name>PT1985</name></trkpt>
<trkpt lat="54.491742" lon="-3.249534"><ele>544</ele><time>2022-03-30T11:14:21Z</time><name>PT1986</name></trkpt>
<trkpt lat="54.491751" lon="-3.249520"><ele>544</ele><time>2022-03-30T11:14:22Z</time><name>PT1987</name></trkpt>
<trkpt lat="54.491760" lon="-3.249506"><ele>544</ele><time>2022-03-30T11:14:24Z</time><name>PT1988</name></trkpt>
<trkpt lat="54.491772" lon="-3.249487"><ele>544</ele><time>2022-03-30T11:14:24Z</time><name>PT1989</name></trkpt>
<trkpt lat="54.491782" lon="-3.249470"><ele>544</ele><time>2022-03-30T11:14:25Z</time><name>PT1990</name></trkpt>
<trkpt lat="54.491794" lon="-3.249452"><ele>545</ele><time>2022-03-30T11:14:27Z</time><name>PT1991</name></trkpt>
<trkpt lat="54.491805" lon="-3.249439"><ele>545</ele><time>2022-03-30T11:14:27Z</time><name>PT1992</name></trkpt>
<trkpt lat="54.491814" lon="-3.249427"><ele>545</ele><time>2022-03-30T11:14:28Z</time><name>PT1993</name></trkpt>
<trkpt lat="54.491825" lon="-3.249416"><ele>545</ele><time>2022-03-30T11:14:30Z</time><name>PT1994</name></trkpt>
<trkpt lat="54.491835" lon="-3.249407"><ele>545</ele><time>2022-03-30T11:14:30Z</time><name>PT1995</name></trkpt>
<trkpt lat="54.491845" lon="-3.249403"><ele>545</ele><time>2022-03-30T11:14:31Z</time><name>PT1996</name></trkpt>
<trkpt lat="54.491854" lon="-3.249396"><ele>545</ele><time>2022-03-30T11:14:33Z</time><name>PT1997</name></trkpt>
<trkpt lat="54.491863" lon="-3.249383"><ele>545</ele><time>2022-03-30T11:14:33Z</time><name>PT1998</name></trkpt>
<trkpt lat="54.491870" lon="-3.249367"><ele>545</ele><time>2022-03-30T11:14:34Z</time><name>PT1999</name></trkpt>
<trkpt lat="54.491878" lon="-3.249353"><ele>545</ele><time>2022-03-30T11:14:36Z</time><name>PT2000</name></trkpt>
<trkpt lat="54.491886" lon="-3.249341"><ele>545</ele><time>2022-03-30T11:14:36Z</time><name>PT2001</name></trkpt>
<trkpt lat="54.491894" lon="-3.249331"><ele>544</ele><time>2022-03-30T11:14:37Z</time><name>PT2002</name></trkpt>
<trkpt lat="54.491906" lon="-3.249318"><ele>544</ele><time>2022-03-30T11:14:39Z</time><name>PT2003</name></trkpt>
<trkpt lat="54.491915" lon="-3.249310"><ele>544</ele><time>2022-03-30T11:14:39Z</time><name>PT2004</name></trkpt>
<trkpt lat="54.491923" lon="-3.249295"><ele>544</ele><time>2022-03-30T11:14:40Z</time><name>PT2005</name></trkpt>
<trkpt lat="54.491932" lon="-3.249277"><ele>544</ele><time>2022-03-30T11:14:42Z</time><name>PT2006</name></trkpt>
<trkpt lat="54.491938" lon="-3.249260"><ele>544</ele><time>2022-03-30T11:14:42Z</time><name>PT2007</name></trkpt>
<trkpt lat="54.491944" lon="-3.249245"><ele>544</ele><time>2022-03-30T11:14:43Z</time><name>PT2008</name></trkpt>
<trkpt lat="54.491951" lon="-3.249226"><ele>544</ele><time>2022-03-30T11:14:45Z</time><name>PT2009</name></trkpt>
<trkpt lat="54.491960" lon="-3.249209"><ele>544</ele><time>2022-03-30T11:14:45Z</time><name>PT2010</name></trkpt>
<trkpt lat="54.491969" lon="-3.249196"><ele>544</ele><time>2022-03-30T11:14:46Z</time><name>PT2011</name></trkpt>
<trkpt lat="54.491979" lon="-3.249178"><ele>545</ele><time>2022-03-30T11:14:48Z</time><name>PT2012</name></trkpt>
<trkpt lat="54.491988" lon="-3.249162"><ele>545</ele><time>2022-03-30T11:14:48Z</time><name>PT2013</name></trkpt>
<trkpt lat="54.491996" lon="-3.249145"><ele>545</ele><time>2022-03-30T11:14:49Z</time><name>PT2014</name></trkpt>
<trkpt lat="54.492005" lon="-3.249129"><ele>545</ele><time>2022-03-30T11:14:51Z</time><name>PT2015</name></trkpt>
<trkpt lat="54.492015" lon="-3.249116"><ele>545</ele><time>2022-03-30T11:14:51Z</time><name>PT2016</name></trkpt>
<trkpt lat="54.492025" lon="-3.249102"><ele>545</ele><time>2022-03-30T11:14:52Z</time><name>PT2017</name></trkpt>
<trkpt lat="54.492033" lon="-3.249088"><ele>545</ele><time>2022-03-30T11:14:54Z</time><name>PT2018</name></trkpt>
<trkpt lat="54.492040" lon="-3.249075"><ele>545</ele><time>2022-03-30T11:14:54Z</time><name>PT2019</name></trkpt>
<trkpt lat="54.492048" lon="-3.249061"><ele>545</ele><time>2022-03-30T11:14:55Z</time><name>PT2020</name></trkpt>
<trkpt lat="54.492057" lon="-3.249047"><ele>545</ele><time>2022-03-30T11:14:57Z</time><name>PT2021</name></trkpt>
<trkpt lat="54.492067" lon="-3.249032"><ele>545</ele><time>2022-03-30T11:14:57Z</time><name>PT2022</name></trkpt>
<trkpt lat="54.492077" lon="-3.249020"><ele>545</ele><time>2022-03-30T11:14:58Z</time><name>PT2023</name></trkpt>
<trkpt lat="54.492082" lon="-3.249009"><ele>545</ele><time>2022-03-30T11:15:00Z</time><name>PT2024</name></trkpt>
<trkpt lat="54.492084" lon="-3.248993"><ele>545</ele><time>2022-03-30T11:15:00Z</time><name>PT2025</name></trkpt>
<trkpt lat="54.492086" lon="-3.248978"><ele>545</ele><time>2022-03-30T11:15:01Z</time><name>PT2026</name></trkpt>
<trkpt lat="54.492090" lon="-3.248967"><ele>545</ele><time>2022-03-30T11:15:03Z</time><name>PT2027</name></trkpt>
<trkpt lat="54.492095" lon="-3.248953"><ele>545</ele><time>2022-03-30T11:15:03Z</time><name>PT2028</name></trkpt>
<trkpt lat="54.492100" lon="-3.248942"><ele>544</ele><time>2022-03-30T11:15:04Z</time><name>PT2029</name></trkpt>
<trkpt lat="54.492102" lon="-3.248927"><ele>544</ele><time>2022-03-30T11:15:06Z</time><name>PT2030</name></trkpt>
<trkpt lat="54.492103" lon="-3.248917"><ele>544</ele><time>2022-03-30T11:15:06Z</time><name>PT2031</name></trkpt>
<trkpt lat="54.492105" lon="-3.248905"><ele>544</ele><time>2022-03-30T11:15:07Z</time><name>PT2032</name></trkpt>
<trkpt lat="54.492105" lon="-3.248895"><ele>544</ele><time>2022-03-30T11:15:09Z</time><name>PT2033</name></trkpt>
<trkpt lat="54.492108" lon="-3.248882"><ele>544</ele><time>2022-03-30T11:15:09Z</time><name>PT2034</name></trkpt>
<trkpt lat="54.492115" lon="-3.248869"><ele>544</ele><time>2022-03-30T11:15:10Z</time><name>PT2035</name></trkpt>
<trkpt lat="54.492119" lon="-3.248858"><ele>544</ele><time>2022-03-30T11:15:12Z</time><name>PT2036</name></trkpt>
<trkpt lat="54.492121" lon="-3.248843"><ele>544</ele><time>2022-03-30T11:15:12Z</time><name>PT2037</name></trkpt>
<trkpt lat="54.492124" lon="-3.248826"><ele>544</ele><time>2022-03-30T11:15:13Z</time><name>PT2038</name></trkpt>
<trkpt lat="54.492128" lon="-3.248809"><ele>543</ele><time>2022-03-30T11:15:15Z</time><name>PT2039</name></trkpt>
<trkpt lat="54.492131" lon="-3.248794"><ele>543</ele><time>2022-03-30T11:15:15Z</time><name>PT2040</name></trkpt>
<trkpt lat="54.492131" lon="-3.248781"><ele>542</ele><time>2022-03-30T11:15:16Z</time><name>PT2041</name></trkpt>
<trkpt lat="54.492126" lon="-3.248776"><ele>541</ele><time>2022-03-30T11:15:18Z</time><name>PT2042</name></trkpt>
<trkpt lat="54.492122" lon="-3.248765"><ele>541</ele><time>2022-03-30T11:15:18Z</time><name>PT2043</name></trkpt>
<trkpt lat="54.492122" lon="-3.248753"><ele>541</ele><time>2022-03-30T11:15:19Z</time><name>PT2044</name></trkpt>
<trkpt lat="54.492121" lon="-3.248742"><ele>541</ele><time>2022-03-30T11:15:21Z</time><name>PT2045</name></trkpt>
<trkpt lat="54.492122" lon="-3.248730"><ele>541</ele><time>2022-03-30T11:15:21Z</time><name>PT2046</name></trkpt>
<trkpt lat="54.492124" lon="-3.248720"><ele>541</ele><time>2022-03-30T11:15:22Z</time><name>PT2047</name></trkpt>
<trkpt lat="54.492124" lon="-3.248716"><ele>541</ele><time>2022-03-30T11:15:24Z</time><name>PT2048</name></trkpt>
<trkpt lat="54.492125" lon="-3.248711"><ele>541</ele><time>2022-03-30T11:15:24Z</time><name>PT2049</name></trkpt>
<trkpt lat="54.492128" lon="-3.248701"><ele>541</ele><time>2022-03-30T11:15:25Z</time><name>PT2050</name></trkpt>
<trkpt lat="54.492132" lon="-3.248696"><ele>540</ele><time>2022-03-30T11:15:27Z</time><name>PT2051</name></trkpt>
<trkpt lat="54.492137" lon="-3.248687"><ele>540</ele><time>2022-03-30T11:15:27Z</time><name>PT2052</name></trkpt>
<trkpt lat="54.492141" lon="-3.248678"><ele>540</ele><time>2022-03-30T11:15:28Z</time><name>PT2053</name></trkpt>
<trkpt lat="54.492144" lon="-3.248667"><ele>540</ele><time>2022-03-30T11:15:30Z</time><name>PT2054</name></trkpt>
<trkpt lat="54.492146" lon="-3.248659"><ele>540</ele><time>2022-03-30T11:15:30Z</time><name>PT2055</name></trkpt>
<trkpt lat="54.492145" lon="-3.248655"><ele>539</ele><time>2022-03-30T11:15:31Z</time><name>PT2056</name></trkpt>
<trkpt lat="54.492147" lon="-3.248645"><ele>539</ele><time>2022-03-30T11:15:33Z</time><name>PT2057</name></trkpt>
<trkpt lat="54.492149" lon="-3.248632"><ele>539</ele><time>2022-03-30T11:15:33Z</time><name>PT2058</name></trkpt>
<trkpt lat="54.492150" lon="-3.248623"><ele>539</ele><time>2022-03-30T11:15:34Z</time><name>PT2059</name></trkpt>
<trkpt lat="54.492150" lon="-3.248613"><ele>539</ele><time>2022-03-30T11:15:36Z</time><name>PT2060</name></trkpt>
<trkpt lat="54.492152" lon="-3.248606"><ele>538</ele><time>2022-03-30T11:15:36Z</time><name>PT2061</name></trkpt>
<trkpt lat="54.492153" lon="-3.248593"><ele>538</ele><time>2022-03-30T11:15:37Z</time><name>PT2062</name></trkpt>
<trkpt lat="54.492154" lon="-3.248586"><ele>538</ele><time>2022-03-30T11:15:39Z</time><name>PT2063</name></trkpt>
<trkpt lat="54.492158" lon="-3.248580"><ele>538</ele><time>2022-03-30T11:15:39Z</time><name>PT2064</name></trkpt>
<trkpt lat="54.492165" lon="-3.248575"><ele>538</ele><time>2022-03-30T11:15:40Z</time><name>PT2065</name></trkpt>
<trkpt lat="54.492169" lon="-3.248568"><ele>538</ele><time>2022-03-30T11:15:42Z</time><name>PT2066</name></trkpt>
<trkpt lat="54.492174" lon="-3.248561"><ele>538</ele><time>2022-03-30T11:15:42Z</time><name>PT2067</name></trkpt>
<trkpt lat="54.492178" lon="-3.248557"><ele>538</ele><time>2022-03-30T11:15:43Z</time><name>PT2068</name></trkpt>
<trkpt lat="54.492179" lon="-3.248552"><ele>538</ele><time>2022-03-30T11:15:45Z</time><name>PT2069</name></trkpt>
<trkpt lat="54.492178" lon="-3.248544"><ele>538</ele><time>2022-03-30T11:15:45Z</time><name>PT2070</name></trkpt>
<trkpt lat="54.492174" lon="-3.248538"><ele>538</ele><time>2022-03-30T11:15:46Z</time><name>PT2071</name></trkpt>
<trkpt lat="54.492174" lon="-3.248525"><ele>538</ele><time>2022-03-30T11:15:48Z</time><name>PT2072</name></trkpt>
<trkpt lat="54.492180" lon="-3.248518"><ele>538</ele><time>2022-03-30T11:15:48Z</time><name>PT2073</name></trkpt>
<trkpt lat="54.492187" lon="-3.248510"><ele>538</ele><time>2022-03-30T11:15:49Z</time><name>PT2074</name></trkpt>
<trkpt lat="54.492192" lon="-3.248496"><ele>538</ele><time>2022-03-30T11:15:51Z</time><name>PT2075</name></trkpt>
<trkpt lat="54.492198" lon="-3.248486"><ele>538</ele><time>2022-03-30T11:15:51Z</time><name>PT2076</name></trkpt>
<trkpt lat="54.492203" lon="-3.248478"><ele>537</ele><time>2022-03-30T11:15:52Z</time><name>PT2077</name></trkpt>
<trkpt lat="54.492207" lon="-3.248468"><ele>536</ele><time>2022-03-30T11:15:54Z</time><name>PT2078</name></trkpt>
<trkpt lat="54.492211" lon="-3.248454"><ele>536</ele><time>2022-03-30T11:15:54Z</time><name>PT2079</name></trkpt>
<trkpt lat="54.492223" lon="-3.248411"><ele>535</ele><time>2022-03-30T11:15:58Z</time><name>PT2080</name></trkpt>
<trkpt lat="54.492227" lon="-3.248374"><ele>534</ele><time>2022-03-30T11:16:01Z</time><name>PT2081</name></trkpt>
<trkpt lat="54.492236" lon="-3.248349"><ele>533</ele><time>2022-03-30T11:16:04Z</time><name>PT2082</name></trkpt>
<trkpt lat="54.492249" lon="-3.248316"><ele>532</ele><time>2022-03-30T11:16:09Z</time><name>PT2083</name></trkpt>
<trkpt lat="54.492251" lon="-3.248315"><ele>532</ele><time>2022-03-30T11:16:12Z</time><name>PT2084</name></trkpt>
<trkpt lat="54.492248" lon="-3.248312"><ele>532</ele><time>2022-03-30T11:16:15Z</time><name>PT2085</name></trkpt>
<trkpt lat="54.492249" lon="-3.248269"><ele>531</ele><time>2022-03-30T11:16:18Z</time><name>PT2086</name></trkpt>
<trkpt lat="54.492262" lon="-3.248215"><ele>531</ele><time>2022-03-30T11:16:22Z</time><name>PT2087</name></trkpt>
<trkpt lat="54.492274" lon="-3.248175"><ele>530</ele><time>2022-03-30T11:16:25Z</time><name>PT2088</name></trkpt>
<trkpt lat="54.492281" lon="-3.248122"><ele>529</ele><time>2022-03-30T11:16:30Z</time><name>PT2089</name></trkpt>
<trkpt lat="54.492294" lon="-3.248094"><ele>528</ele><time>2022-03-30T11:16:33Z</time><name>PT2090</name></trkpt>
<trkpt lat="54.492296" lon="-3.248056"><ele>527</ele><time>2022-03-30T11:16:37Z</time><name>PT2091</name></trkpt>
<trkpt lat="54.492291" lon="-3.248006"><ele>527</ele><time>2022-03-30T11:16:42Z</time><name>PT2092</name></trkpt>
<trkpt lat="54.492304" lon="-3.247977"><ele>527</ele><time>2022-03-30T11:16:45Z</time><name>PT2093</name></trkpt>
<trkpt lat="54.492316" lon="-3.247939"><ele>526</ele><time>2022-03-30T11:16:48Z</time><name>PT2094</name></trkpt>
<trkpt lat="54.492319" lon="-3.247918"><ele>526</ele><time>2022-03-30T11:16:51Z</time><name>PT2095</name></trkpt>
<trkpt lat="54.492304" lon="-3.247902"><ele>524</ele><time>2022-03-30T11:16:56Z</time><name>PT2096</name></trkpt>
<trkpt lat="54.492296" lon="-3.247869"><ele>523</ele><time>2022-03-30T11:16:59Z</time><name>PT2097</name></trkpt>
<trkpt lat="54.492299" lon="-3.247806"><ele>523</ele><time>2022-03-30T11:17:02Z</time><name>PT2098</name></trkpt>
<trkpt lat="54.492319" lon="-3.247769"><ele>523</ele><time>2022-03-30T11:17:05Z</time><name>PT2099</name></trkpt>
<trkpt lat="54.492321" lon="-3.247686"><ele>521</ele><time>2022-03-30T11:17:10Z</time><name>PT2100</name></trkpt>
<trkpt lat="54.492343" lon="-3.247649"><ele>520</ele><time>2022-03-30T11:17:13Z</time><name>PT2101</name></trkpt>
<trkpt lat="54.492375" lon="-3.247602"><ele>518</ele><time>2022-03-30T11:17:16Z</time><name>PT2102</name></trkpt>
<trkpt lat="54.492400" lon="-3.247536"><ele>517</ele><time>2022-03-30T11:17:20Z</time><name>PT2103</name></trkpt>
<trkpt lat="54.492422" lon="-3.247491"><ele>516</ele><time>2022-03-30T11:17:23Z</time><name>PT2104</name></trkpt>
<trkpt lat="54.492448" lon="-3.247442"><ele>516</ele><time>2022-03-30T11:17:28Z</time><name>PT2105</name></trkpt>
<trkpt lat="54.492471" lon="-3.247393"><ele>515</ele><time>2022-03-30T11:17:31Z</time><name>PT2106</name></trkpt>
<trkpt lat="54.492504" lon="-3.247349"><ele>514</ele><time>2022-03-30T11:17:36Z</time><name>PT2107</name></trkpt>
<trkpt lat="54.492520" lon="-3.247304"><ele>513</ele><time>2022-03-30T11:17:39Z</time><name>PT2108</name></trkpt>
<trkpt lat="54.492546" lon="-3.247266"><ele>512</ele><time>2022-03-30T11:17:42Z</time><name>PT2109</name></trkpt>
<trkpt lat="54.492577" lon="-3.247252"><ele>511</ele><time>2022-03-30T11:17:45Z</time><name>PT2110</name></trkpt>
<trkpt lat="54.492602" lon="-3.247215"><ele>510</ele><time>2022-03-30T11:17:48Z</time><name>PT2111</name></trkpt>
<trkpt lat="54.492632" lon="-3.247157"><ele>510</ele><time>2022-03-30T11:17:52Z</time><name>PT2112</name></trkpt>
<trkpt lat="54.492657" lon="-3.247102"><ele>509</ele><time>2022-03-30T11:17:57Z</time><name>PT2113</name></trkpt>
<trkpt lat="54.492681" lon="-3.247054"><ele>509</ele><time>2022-03-30T11:18:00Z</time><name>PT2114</name></trkpt>
<trkpt lat="54.492701" lon="-3.247017"><ele>507</ele><time>2022-03-30T11:18:05Z</time><name>PT2115</name></trkpt>
<trkpt lat="54.492713" lon="-3.247000"><ele>507</ele><time>2022-03-30T11:18:08Z</time><name>PT2116</name></trkpt>
<trkpt lat="54.492733" lon="-3.246970"><ele>507</ele><time>2022-03-30T11:18:11Z</time><name>PT2117</name></trkpt>
<trkpt lat="54.492761" lon="-3.246954"><ele>506</ele><time>2022-03-30T11:18:15Z</time><name>PT2118</name></trkpt>
<trkpt lat="54.492776" lon="-3.246944"><ele>506</ele><time>2022-03-30T11:18:18Z</time><name>PT2119</name></trkpt>
<trkpt lat="54.492778" lon="-3.246943"><ele>506</ele><time>2022-03-30T11:18:23Z</time><name>PT2120</name></trkpt>
<trkpt lat="54.492782" lon="-3.246936"><ele>506</ele><time>2022-03-30T11:18:31Z</time><name>PT2121</name></trkpt>
<trkpt lat="54.492783" lon="-3.246930"><ele>505</ele><time>2022-03-30T11:18:34Z</time><name>PT2122</name></trkpt>
<trkpt lat="54.492792" lon="-3.246931"><ele>505</ele><time>2022-03-30T11:18:46Z</time><name>PT2123</name></trkpt>
<trkpt lat="54.492815" lon="-3.246911"><ele>505</ele><time>2022-03-30T11:18:49Z</time><name>PT2124</name></trkpt>
<trkpt lat="54.492832" lon="-3.246903"><ele>505</ele><time>2022-03-30T11:18:52Z</time><name>PT2125</name></trkpt>
<trkpt lat="54.492837" lon="-3.246891"><ele>505</ele><time>2022-03-30T11:18:55Z</time><name>PT2126</name></trkpt>
<trkpt lat="54.492838" lon="-3.246885"><ele>505</ele><time>2022-03-30T11:18:58Z</time><name>PT2127</name></trkpt>
<trkpt lat="54.492842" lon="-3.246882"><ele>505</ele><time>2022-03-30T11:19:34Z</time><name>PT2128</name></trkpt>
<trkpt lat="54.492840" lon="-3.246862"><ele>505</ele><time>2022-03-30T11:19:37Z</time><name>PT2129</name></trkpt>
<trkpt lat="54.492840" lon="-3.246839"><ele>505</ele><time>2022-03-30T11:19:47Z</time><name>PT2130</name></trkpt>
<trkpt lat="54.492846" lon="-3.246792"><ele>503</ele><time>2022-03-30T11:19:51Z</time><name>PT2131</name></trkpt>
<trkpt lat="54.492866" lon="-3.246766"><ele>502</ele><time>2022-03-30T11:19:55Z</time><name>PT2132</name></trkpt>
<trkpt lat="54.492897" lon="-3.246746"><ele>501</ele><time>2022-03-30T11:20:00Z</time><name>PT2133</name></trkpt>
<trkpt lat="54.492914" lon="-3.246716"><ele>500</ele><time>2022-03-30T11:20:03Z</time><name>PT2134</name></trkpt>
<trkpt lat="54.492909" lon="-3.246672"><ele>499</ele><time>2022-03-30T11:20:06Z</time><name>PT2135</name></trkpt>
<trkpt lat="54.492881" lon="-3.246627"><ele>498</ele><time>2022-03-30T11:20:09Z</time><name>PT2136</name></trkpt>
<trkpt lat="54.492865" lon="-3.246596"><ele>498</ele><time>2022-03-30T11:20:13Z</time><name>PT2137</name></trkpt>
<trkpt lat="54.492841" lon="-3.246577"><ele>497</ele><time>2022-03-30T11:20:18Z</time><name>PT2138</name></trkpt>
<trkpt lat="54.492833" lon="-3.246543"><ele>497</ele><time>2022-03-30T11:20:21Z</time><name>PT2139</name></trkpt>
<trkpt lat="54.492814" lon="-3.246502"><ele>495</ele><time>2022-03-30T11:20:24Z</time><name>PT2140</name></trkpt>
<trkpt lat="54.492799" lon="-3.246463"><ele>495</ele><time>2022-03-30T11:20:28Z</time><name>PT2141</name></trkpt>
<trkpt lat="54.492777" lon="-3.246435"><ele>494</ele><time>2022-03-30T11:20:31Z</time><name>PT2142</name></trkpt>
<trkpt lat="54.492754" lon="-3.246403"><ele>493</ele><time>2022-03-30T11:20:36Z</time><name>PT2143</name></trkpt>
<trkpt lat="54.492739" lon="-3.246371"><ele>492</ele><time>2022-03-30T11:20:39Z</time><name>PT2144</name></trkpt>
<trkpt lat="54.492718" lon="-3.246360"><ele>491</ele><time>2022-03-30T11:20:42Z</time><name>PT2145</name></trkpt>
<trkpt lat="54.492697" lon="-3.246339"><ele>490</ele><time>2022-03-30T11:20:45Z</time><name>PT2146</name></trkpt>
<trkpt lat="54.492662" lon="-3.246325"><ele>489</ele><time>2022-03-30T11:20:48Z</time><name>PT2147</name></trkpt>
<trkpt lat="54.492636" lon="-3.246316"><ele>489</ele><time>2022-03-30T11:20:51Z</time><name>PT2148</name></trkpt>
<trkpt lat="54.492620" lon="-3.246285"><ele>488</ele><time>2022-03-30T11:20:54Z</time><name>PT2149</name></trkpt>
<trkpt lat="54.492629" lon="-3.246252"><ele>488</ele><time>2022-03-30T11:20:57Z</time><name>PT2150</name></trkpt>
<trkpt lat="54.492651" lon="-3.246206"><ele>486</ele><time>2022-03-30T11:21:01Z</time><name>PT2151</name></trkpt>
<trkpt lat="54.492657" lon="-3.246151"><ele>485</ele><time>2022-03-30T11:21:06Z</time><name>PT2152</name></trkpt>
<trkpt lat="54.492672" lon="-3.246115"><ele>485</ele><time>2022-03-30T11:21:09Z</time><name>PT2153</name></trkpt>
<trkpt lat="54.492701" lon="-3.246090"><ele>484</ele><time>2022-03-30T11:21:12Z</time><name>PT2154</name></trkpt>
<trkpt lat="54.492707" lon="-3.246057"><ele>482</ele><time>2022-03-30T11:21:15Z</time><name>PT2155</name></trkpt>
<trkpt lat="54.492702" lon="-3.246013"><ele>479</ele><time>2022-03-30T11:21:19Z</time><name>PT2156</name></trkpt>
<trkpt lat="54.492697" lon="-3.245986"><ele>478</ele><time>2022-03-30T11:21:22Z</time><name>PT2157</name></trkpt>
<trkpt lat="54.492679" lon="-3.245937"><ele>477</ele><time>2022-03-30T11:21:27Z</time><name>PT2158</name></trkpt>
<trkpt lat="54.492652" lon="-3.245900"><ele>476</ele><time>2022-03-30T11:21:30Z</time><name>PT2159</name></trkpt>
<trkpt lat="54.492643" lon="-3.245853"><ele>475</ele><time>2022-03-30T11:21:34Z</time><name>PT2160</name></trkpt>
<trkpt lat="54.492663" lon="-3.245822"><ele>476</ele><time>2022-03-30T11:21:39Z</time><name>PT2161</name></trkpt>
<trkpt lat="54.492675" lon="-3.245784"><ele>475</ele><time>2022-03-30T11:21:42Z</time><name>PT2162</name></trkpt>
<trkpt lat="54.492671" lon="-3.245723"><ele>473</ele><time>2022-03-30T11:21:45Z</time><name>PT2163</name></trkpt>
<trkpt lat="54.492650" lon="-3.245684"><ele>472</ele><time>2022-03-30T11:21:48Z</time><name>PT2164</name></trkpt>
<trkpt lat="54.492627" lon="-3.245653"><ele>471</ele><time>2022-03-30T11:21:52Z</time><name>PT2165</name></trkpt>
<trkpt lat="54.492605" lon="-3.245655"><ele>470</ele><time>2022-03-30T11:21:55Z</time><name>PT2166</name></trkpt>
<trkpt lat="54.492576" lon="-3.245646"><ele>469</ele><time>2022-03-30T11:22:00Z</time><name>PT2167</name></trkpt>
<trkpt lat="54.492557" lon="-3.245633"><ele>468</ele><time>2022-03-30T11:22:03Z</time><name>PT2168</name></trkpt>
<trkpt lat="54.492548" lon="-3.245621"><ele>467</ele><time>2022-03-30T11:22:06Z</time><name>PT2169</name></trkpt>
<trkpt lat="54.492529" lon="-3.245585"><ele>466</ele><time>2022-03-30T11:22:10Z</time><name>PT2170</name></trkpt>
<trkpt lat="54.492494" lon="-3.245570"><ele>465</ele><time>2022-03-30T11:22:15Z</time><name>PT2171</name></trkpt>
<trkpt lat="54.492467" lon="-3.245552"><ele>464</ele><time>2022-03-30T11:22:18Z</time><name>PT2172</name></trkpt>
<trkpt lat="54.492443" lon="-3.245514"><ele>464</ele><time>2022-03-30T11:22:21Z</time><name>PT2173</name></trkpt>
<trkpt lat="54.492442" lon="-3.245443"><ele>462</ele><time>2022-03-30T11:22:24Z</time><name>PT2174</name></trkpt>
<trkpt lat="54.492428" lon="-3.245377"><ele>461</ele><time>2022-03-30T11:22:28Z</time><name>PT2175</name></trkpt>
<trkpt lat="54.492436" lon="-3.245337"><ele>461</ele><time>2022-03-30T11:22:31Z</time><name>PT2176</name></trkpt>
<trkpt lat="54.492447" lon="-3.245316"><ele>460</ele><time>2022-03-30T11:22:34Z</time><name>PT2177</name></trkpt>
<trkpt lat="54.492454" lon="-3.245293"><ele>460</ele><time>2022-03-30T11:22:37Z</time><name>PT2178</name></trkpt>
<trkpt lat="54.492450" lon="-3.245262"><ele>459</ele><time>2022-03-30T11:22:42Z</time><name>PT2179</name></trkpt>
<trkpt lat="54.492436" lon="-3.245228"><ele>459</ele><time>2022-03-30T11:22:45Z</time><name>PT2180</name></trkpt>
<trkpt lat="54.492418" lon="-3.245205"><ele>457</ele><time>2022-03-30T11:22:48Z</time><name>PT2181</name></trkpt>
<trkpt lat="54.492437" lon="-3.245177"><ele>456</ele><time>2022-03-30T11:22:52Z</time><name>PT2182</name></trkpt>
<trkpt lat="54.492454" lon="-3.245160"><ele>457</ele><time>2022-03-30T11:22:55Z</time><name>PT2183</name></trkpt>
<trkpt lat="54.492471" lon="-3.245127"><ele>456</ele><time>2022-03-30T11:22:58Z</time><name>PT2184</name></trkpt>
<trkpt lat="54.492483" lon="-3.245073"><ele>455</ele><time>2022-03-30T11:23:01Z</time><name>PT2185</name></trkpt>
<trkpt lat="54.492507" lon="-3.245019"><ele>455</ele><time>2022-03-30T11:23:06Z</time><name>PT2186</name></trkpt>
<trkpt lat="54.492527" lon="-3.244991"><ele>454</ele><time>2022-03-30T11:23:09Z</time><name>PT2187</name></trkpt>
<trkpt lat="54.492538" lon="-3.244959"><ele>454</ele><time>2022-03-30T11:23:12Z</time><name>PT2188</name></trkpt>
<trkpt lat="54.492557" lon="-3.244938"><ele>454</ele><time>2022-03-30T11:23:15Z</time><name>PT2189</name></trkpt>
<trkpt lat="54.492566" lon="-3.244906"><ele>453</ele><time>2022-03-30T11:23:18Z</time><name>PT2190</name></trkpt>
<trkpt lat="54.492564" lon="-3.244861"><ele>452</ele><time>2022-03-30T11:23:22Z</time><name>PT2191</name></trkpt>
<trkpt lat="54.492569" lon="-3.244839"><ele>451</ele><time>2022-03-30T11:23:25Z</time><name>PT2192</name></trkpt>
<trkpt lat="54.492580" lon="-3.244810"><ele>450</ele><time>2022-03-30T11:23:28Z</time><name>PT2193</name></trkpt>
<trkpt lat="54.492590" lon="-3.244776"><ele>449</ele><time>2022-03-30T11:23:33Z</time><name>PT2194</name></trkpt>
<trkpt lat="54.492593" lon="-3.244752"><ele>449</ele><time>2022-03-30T11:23:36Z</time><name>PT2195</name></trkpt>
<trkpt lat="54.492619" lon="-3.244724"><ele>448</ele><time>2022-03-30T11:23:39Z</time><name>PT2196</name></trkpt>
<trkpt lat="54.492639" lon="-3.244710"><ele>447</ele><time>2022-03-30T11:23:42Z</time><name>PT2197</name></trkpt>
<trkpt lat="54.492649" lon="-3.244667"><ele>447</ele><time>2022-03-30T11:23:46Z</time><name>PT2198</name></trkpt>
<trkpt lat="54.492650" lon="-3.244616"><ele>445</ele><time>2022-03-30T11:23:51Z</time><name>PT2199</name></trkpt>
<trkpt lat="54.492656" lon="-3.244578"><ele>443</ele><time>2022-03-30T11:23:54Z</time><name>PT2200</name></trkpt>
<trkpt lat="54.492663" lon="-3.244543"><ele>442</ele><time>2022-03-30T11:23:57Z</time><name>PT2201</name></trkpt>
<trkpt lat="54.492670" lon="-3.244525"><ele>440</ele><time>2022-03-30T11:24:00Z</time><name>PT2202</name></trkpt>
<trkpt lat="54.492673" lon="-3.244510"><ele>439</ele><time>2022-03-30T11:24:03Z</time><name>PT2203</name></trkpt>
<trkpt lat="54.492667" lon="-3.244500"><ele>439</ele><time>2022-03-30T11:24:07Z</time><name>PT2204</name></trkpt>
<trkpt lat="54.492679" lon="-3.244453"><ele>439</ele><time>2022-03-30T11:24:12Z</time><name>PT2205</name></trkpt>
<trkpt lat="54.492685" lon="-3.244441"><ele>439</ele><time>2022-03-30T11:24:15Z</time><name>PT2206</name></trkpt>
<trkpt lat="54.492690" lon="-3.244434"><ele>438</ele><time>2022-03-30T11:24:18Z</time><name>PT2207</name></trkpt>
<trkpt lat="54.492694" lon="-3.244395"><ele>437</ele><time>2022-03-30T11:24:22Z</time><name>PT2208</name></trkpt>
<trkpt lat="54.492689" lon="-3.244365"><ele>436</ele><time>2022-03-30T11:24:25Z</time><name>PT2209</name></trkpt>
<trkpt lat="54.492692" lon="-3.244334"><ele>435</ele><time>2022-03-30T11:24:30Z</time><name>PT2210</name></trkpt>
<trkpt lat="54.492706" lon="-3.244336"><ele>435</ele><time>2022-03-30T11:24:33Z</time><name>PT2211</name></trkpt>
<trkpt lat="54.492706" lon="-3.244311"><ele>435</ele><time>2022-03-30T11:24:36Z</time><name>PT2212</name></trkpt>
<trkpt lat="54.492722" lon="-3.244325"><ele>434</ele><time>2022-03-30T11:24:40Z</time><name>PT2213</name></trkpt>
<trkpt lat="54.492725" lon="-3.244311"><ele>434</ele><time>2022-03-30T11:24:43Z</time><name>PT2214</name></trkpt>
<trkpt lat="54.492738" lon="-3.244279"><ele>432</ele><time>2022-03-30T11:24:48Z</time><name>PT2215</name></trkpt>
<trkpt lat="54.492753" lon="-3.244248"><ele>431</ele><time>2022-03-30T11:24:51Z</time><name>PT2216</name></trkpt>
<trkpt lat="54.492757" lon="-3.244216"><ele>430</ele><time>2022-03-30T11:24:55Z</time><name>PT2217</name></trkpt>
<trkpt lat="54.492769" lon="-3.244175"><ele>430</ele><time>2022-03-30T11:25:00Z</time><name>PT2218</name></trkpt>
<trkpt lat="54.492780" lon="-3.244144"><ele>429</ele><time>2022-03-30T11:25:03Z</time><name>PT2219</name></trkpt>
<trkpt lat="54.492777" lon="-3.244104"><ele>429</ele><time>2022-03-30T11:25:06Z</time><name>PT2220</name></trkpt>
<trkpt lat="54.492790" lon="-3.244069"><ele>429</ele><time>2022-03-30T11:25:09Z</time><name>PT2221</name></trkpt>
<trkpt lat="54.492812" lon="-3.244020"><ele>428</ele><time>2022-03-30T11:25:12Z</time><name>PT2222</name></trkpt>
<trkpt lat="54.492840" lon="-3.243964"><ele>428</ele><time>2022-03-30T11:25:16Z</time><name>PT2223</name></trkpt>
<trkpt lat="54.492845" lon="-3.243934"><ele>428</ele><time>2022-03-30T11:25:19Z</time><name>PT2224</name></trkpt>
<trkpt lat="54.492853" lon="-3.243908"><ele>429</ele><time>2022-03-30T11:25:22Z</time><name>PT2225</name></trkpt>
<trkpt lat="54.492860" lon="-3.243886"><ele>428</ele><time>2022-03-30T11:25:27Z</time><name>PT2226</name></trkpt>
<trkpt lat="54.492882" lon="-3.243863"><ele>428</ele><time>2022-03-30T11:25:30Z</time><name>PT2227</name></trkpt>
<trkpt lat="54.492898" lon="-3.243851"><ele>427</ele><time>2022-03-30T11:25:34Z</time><name>PT2228</name></trkpt>
<trkpt lat="54.492915" lon="-3.243855"><ele>427</ele><time>2022-03-30T11:25:39Z</time><name>PT2229</name></trkpt>
<trkpt lat="54.492928" lon="-3.243838"><ele>426</ele><time>2022-03-30T11:25:42Z</time><name>PT2230</name></trkpt>
<trkpt lat="54.492929" lon="-3.243807"><ele>426</ele><time>2022-03-30T11:25:45Z</time><name>PT2231</name></trkpt>
<trkpt lat="54.492933" lon="-3.243799"><ele>425</ele><time>2022-03-30T11:25:48Z</time><name>PT2232</name></trkpt>
<trkpt lat="54.492952" lon="-3.243813"><ele>425</ele><time>2022-03-30T11:25:51Z</time><name>PT2233</name></trkpt>
<trkpt lat="54.492965" lon="-3.243831"><ele>424</ele><time>2022-03-30T11:25:55Z</time><name>PT2234</name></trkpt>
<trkpt lat="54.492978" lon="-3.243814"><ele>423</ele><time>2022-03-30T11:25:58Z</time><name>PT2235</name></trkpt>
<trkpt lat="54.492983" lon="-3.243802"><ele>422</ele><time>2022-03-30T11:26:01Z</time><name>PT2236</name></trkpt>
<trkpt lat="54.492987" lon="-3.243780"><ele>421</ele><time>2022-03-30T11:26:06Z</time><name>PT2237</name></trkpt>
<trkpt lat="54.493000" lon="-3.243778"><ele>420</ele><time>2022-03-30T11:26:09Z</time><name>PT2238</name></trkpt>
<trkpt lat="54.493014" lon="-3.243774"><ele>420</ele><time>2022-03-30T11:26:12Z</time><name>PT2239</name></trkpt>
<trkpt lat="54.493035" lon="-3.243747"><ele>419</ele><time>2022-03-30T11:26:15Z</time><name>PT2240</name></trkpt>
<trkpt lat="54.493047" lon="-3.243727"><ele>418</ele><time>2022-03-30T11:26:18Z</time><name>PT2241</name></trkpt>
<trkpt lat="54.493063" lon="-3.243685"><ele>417</ele><time>2022-03-30T11:26:22Z</time><name>PT2242</name></trkpt>
<trkpt lat="54.493075" lon="-3.243691"><ele>417</ele><time>2022-03-30T11:26:25Z</time><name>PT2243</name></trkpt>
<trkpt lat="54.493090" lon="-3.243703"><ele>417</ele><time>2022-03-30T11:26:28Z</time><name>PT2244</name></trkpt>
<trkpt lat="54.493096" lon="-3.243708"><ele>416</ele><time>2022-03-30T11:26:33Z</time><name>PT2245</name></trkpt>
<trkpt lat="54.493100" lon="-3.243652"><ele>415</ele><time>2022-03-30T11:26:36Z</time><name>PT2246</name></trkpt>
<trkpt lat="54.493107" lon="-3.243644"><ele>415</ele><time>2022-03-30T11:26:39Z</time><name>PT2247</name></trkpt>
<trkpt lat="54.493112" lon="-3.243645"><ele>414</ele><time>2022-03-30T11:26:43Z</time><name>PT2248</name></trkpt>
<trkpt lat="54.493131" lon="-3.243660"><ele>414</ele><time>2022-03-30T11:26:48Z</time><name>PT2249</name></trkpt>
<trkpt lat="54.493137" lon="-3.243636"><ele>413</ele><time>2022-03-30T11:26:51Z</time><name>PT2250</name></trkpt>
<trkpt lat="54.493152" lon="-3.243602"><ele>412</ele><time>2022-03-30T11:26:54Z</time><name>PT2251</name></trkpt>
<trkpt lat="54.493165" lon="-3.243578"><ele>412</ele><time>2022-03-30T11:26:58Z</time><name>PT2252</name></trkpt>
<trkpt lat="54.493171" lon="-3.243592"><ele>411</ele><time>2022-03-30T11:27:01Z</time><name>PT2253</name></trkpt>
<trkpt lat="54.493182" lon="-3.243604"><ele>410</ele><time>2022-03-30T11:27:04Z</time><name>PT2254</name></trkpt>
<trkpt lat="54.493185" lon="-3.243602"><ele>410</ele><time>2022-03-30T11:27:06Z</time><name>PT2255</name></trkpt>
<trkpt lat="54.493191" lon="-3.243599"><ele>410</ele><time>2022-03-30T11:27:06Z</time><name>PT2256</name></trkpt>
<trkpt lat="54.493196" lon="-3.243596"><ele>410</ele><time>2022-03-30T11:27:07Z</time><name>PT2257</name></trkpt>
<trkpt lat="54.493196" lon="-3.243591"><ele>410</ele><time>2022-03-30T11:27:12Z</time><name>PT2258</name></trkpt>
<trkpt lat="54.493198" lon="-3.243578"><ele>409</ele><time>2022-03-30T11:27:12Z</time><name>PT2259</name></trkpt>
<trkpt lat="54.493198" lon="-3.243567"><ele>409</ele><time>2022-03-30T11:27:13Z</time><name>PT2260</name></trkpt>
<trkpt lat="54.493203" lon="-3.243555"><ele>409</ele><time>2022-03-30T11:27:15Z</time><name>PT2261</name></trkpt>
<trkpt lat="54.493206" lon="-3.243539"><ele>409</ele><time>2022-03-30T11:27:15Z</time><name>PT2262</name></trkpt>
<trkpt lat="54.493205" lon="-3.243527"><ele>408</ele><time>2022-03-30T11:27:16Z</time><name>PT2263</name></trkpt>
<trkpt lat="54.493207" lon="-3.243514"><ele>408</ele><time>2022-03-30T11:27:18Z</time><name>PT2264</name></trkpt>
<trkpt lat="54.493209" lon="-3.243500"><ele>408</ele><time>2022-03-30T11:27:18Z</time><name>PT2265</name></trkpt>
<trkpt lat="54.493212" lon="-3.243490"><ele>408</ele><time>2022-03-30T11:27:19Z</time><name>PT2266</name></trkpt>
<trkpt lat="54.493213" lon="-3.243474"><ele>408</ele><time>2022-03-30T11:27:21Z</time><name>PT2267</name></trkpt>
<trkpt lat="54.493215" lon="-3.243458"><ele>408</ele><time>2022-03-30T11:27:21Z</time><name>PT2268</name></trkpt>
<trkpt lat="54.493217" lon="-3.243443"><ele>408</ele><time>2022-03-30T11:27:22Z</time><name>PT2269</name></trkpt>
<trkpt lat="54.493215" lon="-3.243431"><ele>408</ele><time>2022-03-30T11:27:24Z</time><name>PT2270</name></trkpt>
<trkpt lat="54.493211" lon="-3.243421"><ele>408</ele><time>2022-03-30T11:27:24Z</time><name>PT2271</name></trkpt>
<trkpt lat="54.493210" lon="-3.243412"><ele>407</ele><time>2022-03-30T11:27:25Z</time><name>PT2272</name></trkpt>
<trkpt lat="54.493209" lon="-3.243404"><ele>407</ele><time>2022-03-30T11:27:27Z</time><name>PT2273</name></trkpt>
<trkpt lat="54.493208" lon="-3.243394"><ele>407</ele><time>2022-03-30T11:27:27Z</time><name>PT2274</name></trkpt>
<trkpt lat="54.493212" lon="-3.243389"><ele>406</ele><time>2022-03-30T11:27:28Z</time><name>PT2275</name></trkpt>
<trkpt lat="54.493213" lon="-3.243385"><ele>406</ele><time>2022-03-30T11:27:30Z</time><name>PT2276</name></trkpt>
<trkpt lat="54.493213" lon="-3.243388"><ele>406</ele><time>2022-03-30T11:27:30Z</time><name>PT2277</name></trkpt>
<trkpt lat="54.493212" lon="-3.243384"><ele>405</ele><time>2022-03-30T11:27:31Z</time><name>PT2278</name></trkpt>
<trkpt lat="54.493211" lon="-3.243384"><ele>404</ele><time>2022-03-30T11:27:33Z</time><name>PT2279</name></trkpt>
<trkpt lat="54.493212" lon="-3.243385"><ele>404</ele><time>2022-03-30T11:27:33Z</time><name>PT2280</name></trkpt>
<trkpt lat="54.493216" lon="-3.243382"><ele>403</ele><time>2022-03-30T11:27:46Z</time><name>PT2281</name></trkpt>
<trkpt lat="54.493218" lon="-3.243377"><ele>403</ele><time>2022-03-30T11:27:48Z</time><name>PT2282</name></trkpt>
<trkpt lat="54.493221" lon="-3.243374"><ele>403</ele><time>2022-03-30T11:27:48Z</time><name>PT2283</name></trkpt>
<trkpt lat="54.493225" lon="-3.243369"><ele>403</ele><time>2022-03-30T11:27:51Z</time><name>PT2284</name></trkpt>
<trkpt lat="54.493229" lon="-3.243357"><ele>403</ele><time>2022-03-30T11:27:51Z</time><name>PT2285</name></trkpt>
<trkpt lat="54.493231" lon="-3.243359"><ele>404</ele><time>2022-03-30T11:28:17Z</time><name>PT2286</name></trkpt>
<trkpt lat="54.493227" lon="-3.243360"><ele>404</ele><time>2022-03-30T11:28:18Z</time><name>PT2287</name></trkpt>
<trkpt lat="54.493225" lon="-3.243362"><ele>404</ele><time>2022-03-30T11:28:20Z</time><name>PT2288</name></trkpt>
<trkpt lat="54.493226" lon="-3.243357"><ele>404</ele><time>2022-03-30T11:28:26Z</time><name>PT2289</name></trkpt>
<trkpt lat="54.493230" lon="-3.243355"><ele>403</ele><time>2022-03-30T11:28:26Z</time><name>PT2290</name></trkpt>
<trkpt lat="54.493233" lon="-3.243350"><ele>403</ele><time>2022-03-30T11:28:27Z</time><name>PT2291</name></trkpt>
<trkpt lat="54.493243" lon="-3.243347"><ele>404</ele><time>2022-03-30T11:28:49Z</time><name>PT2292</name></trkpt>
<trkpt lat="54.493242" lon="-3.243349"><ele>404</ele><time>2022-03-30T11:28:50Z</time><name>PT2293</name></trkpt>
<trkpt lat="54.493242" lon="-3.243347"><ele>404</ele><time>2022-03-30T11:28:50Z</time><name>PT2294</name></trkpt>
<trkpt lat="54.493243" lon="-3.243347"><ele>404</ele><time>2022-03-30T11:28:51Z</time><name>PT2295</name></trkpt>
<trkpt lat="54.493244" lon="-3.243344"><ele>404</ele><time>2022-03-30T11:28:53Z</time><name>PT2296</name></trkpt>
<trkpt lat="54.493244" lon="-3.243342"><ele>404</ele><time>2022-03-30T11:28:53Z</time><name>PT2297</name></trkpt>
<trkpt lat="54.493245" lon="-3.243339"><ele>404</ele><time>2022-03-30T11:28:56Z</time><name>PT2298</name></trkpt>
<trkpt lat="54.493244" lon="-3.243335"><ele>403</ele><time>2022-03-30T11:28:58Z</time><name>PT2299</name></trkpt>
<trkpt lat="54.493243" lon="-3.243330"><ele>404</ele><time>2022-03-30T11:28:59Z</time><name>PT2300</name></trkpt>
<trkpt lat="54.493239" lon="-3.243341"><ele>404</ele><time>2022-03-30T11:29:17Z</time><name>PT2301</name></trkpt>
<trkpt lat="54.493241" lon="-3.243351"><ele>403</ele><time>2022-03-30T11:29:18Z</time><name>PT2302</name></trkpt>
<trkpt lat="54.493244" lon="-3.243353"><ele>403</ele><time>2022-03-30T11:29:20Z</time><name>PT2303</name></trkpt>
<trkpt lat="54.493246" lon="-3.243355"><ele>402</ele><time>2022-03-30T11:29:20Z</time><name>PT2304</name></trkpt>
<trkpt lat="54.493248" lon="-3.243355"><ele>403</ele><time>2022-03-30T11:29:21Z</time><name>PT2305</name></trkpt>
<trkpt lat="54.493250" lon="-3.243349"><ele>403</ele><time>2022-03-30T11:29:23Z</time><name>PT2306</name></trkpt>
<trkpt lat="54.493248" lon="-3.243338"><ele>402</ele><time>2022-03-30T11:29:23Z</time><name>PT2307</name></trkpt>
<trkpt lat="54.493248" lon="-3.243331"><ele>402</ele><time>2022-03-30T11:29:24Z</time><name>PT2308</name></trkpt>
<trkpt lat="54.493253" lon="-3.243330"><ele>402</ele><time>2022-03-30T11:29:26Z</time><name>PT2309</name></trkpt>
<trkpt lat="54.493259" lon="-3.243336"><ele>401</ele><time>2022-03-30T11:29:26Z</time><name>PT2310</name></trkpt>
<trkpt lat="54.493263" lon="-3.243345"><ele>400</ele><time>2022-03-30T11:29:27Z</time><name>PT2311</name></trkpt>
<trkpt lat="54.493269" lon="-3.243349"><ele>400</ele><time>2022-03-30T11:29:29Z</time><name>PT2312</name></trkpt>
<trkpt lat="54.493277" lon="-3.243348"><ele>400</ele><time>2022-03-30T11:29:29Z</time><name>PT2313</name></trkpt>
<trkpt lat="54.493283" lon="-3.243345"><ele>401</ele><time>2022-03-30T11:29:30Z</time><name>PT2314</name></trkpt>
<trkpt lat="54.493292" lon="-3.243345"><ele>400</ele><time>2022-03-30T11:29:32Z</time><name>PT2315</name></trkpt>
<trkpt lat="54.493298" lon="-3.243346"><ele>400</ele><time>2022-03-30T11:29:32Z</time><name>PT2316</name></trkpt>
<trkpt lat="54.493307" lon="-3.243341"><ele>400</ele><time>2022-03-30T11:29:33Z</time><name>PT2317</name></trkpt>
<trkpt lat="54.493313" lon="-3.243339"><ele>400</ele><time>2022-03-30T11:29:35Z</time><name>PT2318</name></trkpt>
<trkpt lat="54.493320" lon="-3.243341"><ele>400</ele><time>2022-03-30T11:29:35Z</time><name>PT2319</name></trkpt>
<trkpt lat="54.493327" lon="-3.243343"><ele>400</ele><time>2022-03-30T11:29:36Z</time><name>PT2320</name></trkpt>
<trkpt lat="54.493332" lon="-3.243339"><ele>400</ele><time>2022-03-30T11:29:38Z</time><name>PT2321</name></trkpt>
<trkpt lat="54.493334" lon="-3.243334"><ele>400</ele><time>2022-03-30T11:29:38Z</time><name>PT2322</name></trkpt>
<trkpt lat="54.493334" lon="-3.243323"><ele>400</ele><time>2022-03-30T11:29:39Z</time><name>PT2323</name></trkpt>
<trkpt lat="54.493335" lon="-3.243314"><ele>399</ele><time>2022-03-30T11:29:41Z</time><name>PT2324</name></trkpt>
<trkpt lat="54.493340" lon="-3.243312"><ele>399</ele><time>2022-03-30T11:29:41Z</time><name>PT2325</name></trkpt>
<trkpt lat="54.493345" lon="-3.243310"><ele>398</ele><time>2022-03-30T11:29:42Z</time><name>PT2326</name></trkpt>
<trkpt lat="54.493347" lon="-3.243306"><ele>398</ele><time>2022-03-30T11:29:44Z</time><name>PT2327</name></trkpt>
<trkpt lat="54.493353" lon="-3.243297"><ele>397</ele><time>2022-03-30T11:29:44Z</time><name>PT2328</name></trkpt>
<trkpt lat="54.493361" lon="-3.243287"><ele>397</ele><time>2022-03-30T11:29:45Z</time><name>PT2329</name></trkpt>
<trkpt lat="54.493370" lon="-3.243279"><ele>397</ele><time>2022-03-30T11:29:47Z</time><name>PT2330</name></trkpt>
<trkpt lat="54.493377" lon="-3.243282"><ele>397</ele><time>2022-03-30T11:29:47Z</time><name>PT2331</name></trkpt>
<trkpt lat="54.493382" lon="-3.243287"><ele>396</ele><time>2022-03-30T11:29:48Z</time><name>PT2332</name></trkpt>
<trkpt lat="54.493390" lon="-3.243287"><ele>396</ele><time>2022-03-30T11:29:50Z</time><name>PT2333</name></trkpt>
<trkpt lat="54.493397" lon="-3.243285"><ele>396</ele><time>2022-03-30T11:29:50Z</time><name>PT2334</name></trkpt>
<trkpt lat="54.493406" lon="-3.243281"><ele>396</ele><time>2022-03-30T11:29:51Z</time><name>PT2335</name></trkpt>
<trkpt lat="54.493410" lon="-3.243280"><ele>396</ele><time>2022-03-30T11:29:53Z</time><name>PT2336</name></trkpt>
<trkpt lat="54.493415" lon="-3.243282"><ele>396</ele><time>2022-03-30T11:29:53Z</time><name>PT2337</name></trkpt>
<trkpt lat="54.493420" lon="-3.243283"><ele>396</ele><time>2022-03-30T11:29:54Z</time><name>PT2338</name></trkpt>
<trkpt lat="54.493424" lon="-3.243280"><ele>396</ele><time>2022-03-30T11:29:56Z</time><name>PT2339</name></trkpt>
<trkpt lat="54.493429" lon="-3.243278"><ele>396</ele><time>2022-03-30T11:29:56Z</time><name>PT2340</name></trkpt>
<trkpt lat="54.493435" lon="-3.243278"><ele>395</ele><time>2022-03-30T11:29:57Z</time><name>PT2341</name></trkpt>
<trkpt lat="54.493438" lon="-3.243281"><ele>395</ele><time>2022-03-30T11:29:59Z</time><name>PT2342</name></trkpt>
<trkpt lat="54.493439" lon="-3.243281"><ele>395</ele><time>2022-03-30T11:29:59Z</time><name>PT2343</name></trkpt>
<trkpt lat="54.493440" lon="-3.243281"><ele>395</ele><time>2022-03-30T11:30:00Z</time><name>PT2344</name></trkpt>
<trkpt lat="54.493439" lon="-3.243281"><ele>395</ele><time>2022-03-30T11:30:02Z</time><name>PT2345</name></trkpt>
<trkpt lat="54.493446" lon="-3.243271"><ele>396</ele><time>2022-03-30T11:30:14Z</time><name>PT2346</name></trkpt>
<trkpt lat="54.493457" lon="-3.243273"><ele>395</ele><time>2022-03-30T11:30:15Z</time><name>PT2347</name></trkpt>
<trkpt lat="54.493466" lon="-3.243272"><ele>395</ele><time>2022-03-30T11:30:17Z</time><name>PT2348</name></trkpt>
<trkpt lat="54.493474" lon="-3.243267"><ele>394</ele><time>2022-03-30T11:30:17Z</time><name>PT2349</name></trkpt>
<trkpt lat="54.493483" lon="-3.243265"><ele>394</ele><time>2022-03-30T11:30:18Z</time><name>PT2350</name></trkpt>
<trkpt lat="54.493493" lon="-3.243263"><ele>394</ele><time>2022-03-30T11:30:20Z</time><name>PT2351</name></trkpt>
<trkpt lat="54.493501" lon="-3.243264"><ele>393</ele><time>2022-03-30T11:30:20Z</time><name>PT2352</name></trkpt>
<trkpt lat="54.493510" lon="-3.243265"><ele>393</ele><time>2022-03-30T11:30:21Z</time><name>PT2353</name></trkpt>
<trkpt lat="54.493519" lon="-3.243265"><ele>393</ele><time>2022-03-30T11:30:23Z</time><name>PT2354</name></trkpt>
<trkpt lat="54.493524" lon="-3.243263"><ele>392</ele><time>2022-03-30T11:30:23Z</time><name>PT2355</name></trkpt>
<trkpt lat="54.493526" lon="-3.243262"><ele>392</ele><time>2022-03-30T11:30:24Z</time><name>PT2356</name></trkpt>
<trkpt lat="54.493526" lon="-3.243260"><ele>392</ele><time>2022-03-30T11:30:26Z</time><name>PT2357</name></trkpt>
<trkpt lat="54.493527" lon="-3.243260"><ele>392</ele><time>2022-03-30T11:30:26Z</time><name>PT2358</name></trkpt>
<trkpt lat="54.493530" lon="-3.243260"><ele>392</ele><time>2022-03-30T11:30:29Z</time><name>PT2359</name></trkpt>
<trkpt lat="54.493534" lon="-3.243261"><ele>392</ele><time>2022-03-30T11:30:29Z</time><name>PT2360</name></trkpt>
<trkpt lat="54.493535" lon="-3.243260"><ele>392</ele><time>2022-03-30T11:30:30Z</time><name>PT2361</name></trkpt>
<trkpt lat="54.493542" lon="-3.243259"><ele>392</ele><time>2022-03-30T11:30:32Z</time><name>PT2362</name></trkpt>
<trkpt lat="54.493550" lon="-3.243251"><ele>392</ele><time>2022-03-30T11:30:32Z</time><name>PT2363</name></trkpt>
<trkpt lat="54.493559" lon="-3.243247"><ele>392</ele><time>2022-03-30T11:30:33Z</time><name>PT2364</name></trkpt>
<trkpt lat="54.493567" lon="-3.243243"><ele>392</ele><time>2022-03-30T11:30:35Z</time><name>PT2365</name></trkpt>
<trkpt lat="54.493575" lon="-3.243238"><ele>391</ele><time>2022-03-30T11:30:35Z</time><name>PT2366</name></trkpt>
<trkpt lat="54.493583" lon="-3.243232"><ele>391</ele><time>2022-03-30T11:30:36Z</time><name>PT2367</name></trkpt>
<trkpt lat="54.493589" lon="-3.243222"><ele>391</ele><time>2022-03-30T11:30:38Z</time><name>PT2368</name></trkpt>
<trkpt lat="54.493594" lon="-3.243211"><ele>391</ele><time>2022-03-30T11:30:38Z</time><name>PT2369</name></trkpt>
<trkpt lat="54.493595" lon="-3.243197"><ele>391</ele><time>2022-03-30T11:30:39Z</time><name>PT2370</name></trkpt>
<trkpt lat="54.493596" lon="-3.243181"><ele>390</ele><time>2022-03-30T11:30:41Z</time><name>PT2371</name></trkpt>
<trkpt lat="54.493597" lon="-3.243166"><ele>389</ele><time>2022-03-30T11:30:41Z</time><name>PT2372</name></trkpt>
<trkpt lat="54.493600" lon="-3.243150"><ele>389</ele><time>2022-03-30T11:30:42Z</time><name>PT2373</name></trkpt>
<trkpt lat="54.493601" lon="-3.243136"><ele>389</ele><time>2022-03-30T11:30:44Z</time><name>PT2374</name></trkpt>
<trkpt lat="54.493603" lon="-3.243123"><ele>389</ele><time>2022-03-30T11:30:44Z</time><name>PT2375</name></trkpt>
<trkpt lat="54.493608" lon="-3.243110"><ele>388</ele><time>2022-03-30T11:30:45Z</time><name>PT2376</name></trkpt>
<trkpt lat="54.493614" lon="-3.243097"><ele>388</ele><time>2022-03-30T11:30:47Z</time><name>PT2377</name></trkpt>
<trkpt lat="54.493620" lon="-3.243083"><ele>388</ele><time>2022-03-30T11:30:47Z</time><name>PT2378</name></trkpt>
<trkpt lat="54.493625" lon="-3.243070"><ele>388</ele><time>2022-03-30T11:30:48Z</time><name>PT2379</name></trkpt>
<trkpt lat="54.493633" lon="-3.243060"><ele>388</ele><time>2022-03-30T11:30:50Z</time><name>PT2380</name></trkpt>
<trkpt lat="54.493641" lon="-3.243053"><ele>388</ele><time>2022-03-30T11:30:50Z</time><name>PT2381</name></trkpt>
<trkpt lat="54.493649" lon="-3.243045"><ele>388</ele><time>2022-03-30T11:30:51Z</time><name>PT2382</name></trkpt>
<trkpt lat="54.493654" lon="-3.243035"><ele>388</ele><time>2022-03-30T11:30:53Z</time><name>PT2383</name></trkpt>
<trkpt lat="54.493656" lon="-3.243026"><ele>387</ele><time>2022-03-30T11:30:53Z</time><name>PT2384</name></trkpt>
<trkpt lat="54.493656" lon="-3.243010"><ele>387</ele><time>2022-03-30T11:30:54Z</time><name>PT2385</name></trkpt>
<trkpt lat="54.493657" lon="-3.242991"><ele>387</ele><time>2022-03-30T11:30:56Z</time><name>PT2386</name></trkpt>
<trkpt lat="54.493660" lon="-3.242975"><ele>386</ele><time>2022-03-30T11:30:56Z</time><name>PT2387</name></trkpt>
<trkpt lat="54.493668" lon="-3.242960"><ele>386</ele><time>2022-03-30T11:30:57Z</time><name>PT2388</name></trkpt>
<trkpt lat="54.493677" lon="-3.242947"><ele>386</ele><time>2022-03-30T11:30:59Z</time><name>PT2389</name></trkpt>
<trkpt lat="54.493685" lon="-3.242934"><ele>386</ele><time>2022-03-30T11:30:59Z</time><name>PT2390</name></trkpt>
<trkpt lat="54.493694" lon="-3.242927"><ele>386</ele><time>2022-03-30T11:31:00Z</time><name>PT2391</name></trkpt>
<trkpt lat="54.493703" lon="-3.242921"><ele>386</ele><time>2022-03-30T11:31:02Z</time><name>PT2392</name></trkpt>
<trkpt lat="54.493712" lon="-3.242914"><ele>386</ele><time>2022-03-30T11:31:02Z</time><name>PT2393</name></trkpt>
<trkpt lat="54.493717" lon="-3.242911"><ele>385</ele><time>2022-03-30T11:31:03Z</time><name>PT2394</name></trkpt>
<trkpt lat="54.493722" lon="-3.242908"><ele>386</ele><time>2022-03-30T11:31:05Z</time><name>PT2395</name></trkpt>
<trkpt lat="54.493724" lon="-3.242905"><ele>385</ele><time>2022-03-30T11:31:05Z</time><name>PT2396</name></trkpt>
<trkpt lat="54.493725" lon="-3.242902"><ele>385</ele><time>2022-03-30T11:31:06Z</time><name>PT2397</name></trkpt>
<trkpt lat="54.493725" lon="-3.242899"><ele>385</ele><time>2022-03-30T11:31:08Z</time><name>PT2398</name></trkpt>
<trkpt lat="54.493729" lon="-3.242892"><ele>385</ele><time>2022-03-30T11:31:09Z</time><name>PT2399</name></trkpt>
<trkpt lat="54.493732" lon="-3.242883"><ele>385</ele><time>2022-03-30T11:31:11Z</time><name>PT2400</name></trkpt>
<trkpt lat="54.493737" lon="-3.242884"><ele>385</ele><time>2022-03-30T11:31:11Z</time><name>PT2401</name></trkpt>
<trkpt lat="54.493742" lon="-3.242881"><ele>385</ele><time>2022-03-30T11:31:12Z</time><name>PT2402</name></trkpt>
<trkpt lat="54.493747" lon="-3.242878"><ele>385</ele><time>2022-03-30T11:31:14Z</time><name>PT2403</name></trkpt>
<trkpt lat="54.493748" lon="-3.242879"><ele>385</ele><time>2022-03-30T11:31:14Z</time><name>PT2404</name></trkpt>
<trkpt lat="54.493747" lon="-3.242875"><ele>385</ele><time>2022-03-30T11:31:15Z</time><name>PT2405</name></trkpt>
<trkpt lat="54.493747" lon="-3.242869"><ele>384</ele><time>2022-03-30T11:31:17Z</time><name>PT2406</name></trkpt>
<trkpt lat="54.493746" lon="-3.242860"><ele>384</ele><time>2022-03-30T11:31:17Z</time><name>PT2407</name></trkpt>
<trkpt lat="54.493743" lon="-3.242845"><ele>384</ele><time>2022-03-30T11:31:18Z</time><name>PT2408</name></trkpt>
<trkpt lat="54.493741" lon="-3.242832"><ele>384</ele><time>2022-03-30T11:31:20Z</time><name>PT2409</name></trkpt>
<trkpt lat="54.493741" lon="-3.242825"><ele>384</ele><time>2022-03-30T11:31:20Z</time><name>PT2410</name></trkpt>
<trkpt lat="54.493746" lon="-3.242824"><ele>384</ele><time>2022-03-30T11:31:21Z</time><name>PT2411</name></trkpt>
<trkpt lat="54.493751" lon="-3.242826"><ele>384</ele><time>2022-03-30T11:31:23Z</time><name>PT2412</name></trkpt>
<trkpt lat="54.493753" lon="-3.242826"><ele>384</ele><time>2022-03-30T11:31:23Z</time><name>PT2413</name></trkpt>
<trkpt lat="54.493753" lon="-3.242825"><ele>384</ele><time>2022-03-30T11:31:24Z</time><name>PT2414</name></trkpt>
<trkpt lat="54.493753" lon="-3.242822"><ele>384</ele><time>2022-03-30T11:31:26Z</time><name>PT2415</name></trkpt>
<trkpt lat="54.493755" lon="-3.242826"><ele>383</ele><time>2022-03-30T11:31:26Z</time><name>PT2416</name></trkpt>
<trkpt lat="54.493757" lon="-3.242825"><ele>384</ele><time>2022-03-30T11:31:27Z</time><name>PT2417</name></trkpt>
<trkpt lat="54.493764" lon="-3.242826"><ele>384</ele><time>2022-03-30T11:31:29Z</time><name>PT2418</name></trkpt>
<trkpt lat="54.493767" lon="-3.242826"><ele>384</ele><time>2022-03-30T11:31:29Z</time><name>PT2419</name></trkpt>
<trkpt lat="54.493766" lon="-3.242823"><ele>383</ele><time>2022-03-30T11:31:30Z</time><name>PT2420</name></trkpt>
<trkpt lat="54.493768" lon="-3.242820"><ele>382</ele><time>2022-03-30T11:31:32Z</time><name>PT2421</name></trkpt>
<trkpt lat="54.493770" lon="-3.242815"><ele>382</ele><time>2022-03-30T11:31:32Z</time><name>PT2422</name></trkpt>
<trkpt lat="54.493770" lon="-3.242806"><ele>381</ele><time>2022-03-30T11:31:38Z</time><name>PT2423</name></trkpt>
<trkpt lat="54.493770" lon="-3.242807"><ele>380</ele><time>2022-03-30T11:31:39Z</time><name>PT2424</name></trkpt>
<trkpt lat="54.493771" lon="-3.242815"><ele>380</ele><time>2022-03-30T11:31:41Z</time><name>PT2425</name></trkpt>
<trkpt lat="54.493774" lon="-3.242819"><ele>380</ele><time>2022-03-30T11:31:41Z</time><name>PT2426</name></trkpt>
<trkpt lat="54.493777" lon="-3.242827"><ele>380</ele><time>2022-03-30T11:31:42Z</time><name>PT2427</name></trkpt>
<trkpt lat="54.493779" lon="-3.242830"><ele>380</ele><time>2022-03-30T11:31:44Z</time><name>PT2428</name></trkpt>
<trkpt lat="54.493780" lon="-3.242837"><ele>380</ele><time>2022-03-30T11:31:44Z</time><name>PT2429</name></trkpt>
<trkpt lat="54.493783" lon="-3.242841"><ele>380</ele><time>2022-03-30T11:31:45Z</time><name>PT2430</name></trkpt>
<trkpt lat="54.493780" lon="-3.242852"><ele>380</ele><time>2022-03-30T11:31:47Z</time><name>PT2431</name></trkpt>
<trkpt lat="54.493783" lon="-3.242860"><ele>380</ele><time>2022-03-30T11:31:47Z</time><name>PT2432</name></trkpt>
<trkpt lat="54.493786" lon="-3.242866"><ele>379</ele><time>2022-03-30T11:31:48Z</time><name>PT2433</name></trkpt>
<trkpt lat="54.493784" lon="-3.242875"><ele>378</ele><time>2022-03-30T11:31:50Z</time><name>PT2434</name></trkpt>
<trkpt lat="54.493787" lon="-3.242877"><ele>378</ele><time>2022-03-30T11:31:50Z</time><name>PT2435</name></trkpt>
<trkpt lat="54.493790" lon="-3.242876"><ele>379</ele><time>2022-03-30T11:31:51Z</time><name>PT2436</name></trkpt>
<trkpt lat="54.493789" lon="-3.242876"><ele>378</ele><time>2022-03-30T11:31:53Z</time><name>PT2437</name></trkpt>
<trkpt lat="54.493797" lon="-3.242882"><ele>378</ele><time>2022-03-30T11:31:53Z</time><name>PT2438</name></trkpt>
<trkpt lat="54.493800" lon="-3.242875"><ele>378</ele><time>2022-03-30T11:31:54Z</time><name>PT2439</name></trkpt>
<trkpt lat="54.493802" lon="-3.242869"><ele>378</ele><time>2022-03-30T11:31:56Z</time><name>PT2440</name></trkpt>
<trkpt lat="54.493805" lon="-3.242866"><ele>378</ele><time>2022-03-30T11:31:56Z</time><name>PT2441</name></trkpt>
<trkpt lat="54.493801" lon="-3.242829"><ele>377</ele><time>2022-03-30T11:31:59Z</time><name>PT2442</name></trkpt>
<trkpt lat="54.493808" lon="-3.242807"><ele>376</ele><time>2022-03-30T11:32:02Z</time><name>PT2443</name></trkpt>
<trkpt lat="54.493819" lon="-3.242809"><ele>375</ele><time>2022-03-30T11:32:05Z</time><name>PT2444</name></trkpt>
<trkpt lat="54.493818" lon="-3.242813"><ele>374</ele><time>2022-03-30T11:32:09Z</time><name>PT2445</name></trkpt>
<trkpt lat="54.493837" lon="-3.242801"><ele>372</ele><time>2022-03-30T11:32:14Z</time><name>PT2446</name></trkpt>
<trkpt lat="54.493838" lon="-3.242800"><ele>372</ele><time>2022-03-30T11:32:23Z</time><name>PT2447</name></trkpt>
<trkpt lat="54.493838" lon="-3.242790"><ele>372</ele><time>2022-03-30T11:32:24Z</time><name>PT2448</name></trkpt>
<trkpt lat="54.493838" lon="-3.242782"><ele>371</ele><time>2022-03-30T11:32:26Z</time><name>PT2449</name></trkpt>
<trkpt lat="54.493840" lon="-3.242776"><ele>371</ele><time>2022-03-30T11:32:26Z</time><name>PT2450</name></trkpt>
<trkpt lat="54.493841" lon="-3.242770"><ele>371</ele><time>2022-03-30T11:32:27Z</time><name>PT2451</name></trkpt>
<trkpt lat="54.493843" lon="-3.242766"><ele>370</ele><time>2022-03-30T11:32:29Z</time><name>PT2452</name></trkpt>
<trkpt lat="54.493845" lon="-3.242766"><ele>370</ele><time>2022-03-30T11:32:29Z</time><name>PT2453</name></trkpt>
<trkpt lat="54.493847" lon="-3.242769"><ele>370</ele><time>2022-03-30T11:32:30Z</time><name>PT2454</name></trkpt>
<trkpt lat="54.493847" lon="-3.242769"><ele>370</ele><time>2022-03-30T11:32:32Z</time><name>PT2455</name></trkpt>
<trkpt lat="54.493846" lon="-3.242770"><ele>370</ele><time>2022-03-30T11:32:41Z</time><name>PT2456</name></trkpt>
<trkpt lat="54.493847" lon="-3.242768"><ele>370</ele><time>2022-03-30T11:32:42Z</time><name>PT2457</name></trkpt>
<trkpt lat="54.493849" lon="-3.242770"><ele>370</ele><time>2022-03-30T11:32:44Z</time><name>PT2458</name></trkpt>
<trkpt lat="54.493852" lon="-3.242770"><ele>370</ele><time>2022-03-30T11:32:44Z</time><name>PT2459</name></trkpt>
<trkpt lat="54.493844" lon="-3.242771"><ele>370</ele><time>2022-03-30T11:32:45Z</time><name>PT2460</name></trkpt>
<trkpt lat="54.493842" lon="-3.242770"><ele>370</ele><time>2022-03-30T11:32:47Z</time><name>PT2461</name></trkpt>
<trkpt lat="54.493844" lon="-3.242770"><ele>370</ele><time>2022-03-30T11:32:47Z</time><name>PT2462</name></trkpt>
<trkpt lat="54.493847" lon="-3.242770"><ele>370</ele><time>2022-03-30T11:32:48Z</time><name>PT2463</name></trkpt>
<trkpt lat="54.493848" lon="-3.242771"><ele>370</ele><time>2022-03-30T11:32:50Z</time><name>PT2464</name></trkpt>
<trkpt lat="54.493848" lon="-3.242771"><ele>370</ele><time>2022-03-30T11:32:50Z</time><name>PT2465</name></trkpt>
<trkpt lat="54.493848" lon="-3.242769"><ele>371</ele><time>2022-03-30T11:32:51Z</time><name>PT2466</name></trkpt>
<trkpt lat="54.493847" lon="-3.242770"><ele>371</ele><time>2022-03-30T11:32:53Z</time><name>PT2467</name></trkpt>
<trkpt lat="54.493849" lon="-3.242768"><ele>371</ele><time>2022-03-30T11:32:53Z</time><name>PT2468</name></trkpt>
<trkpt lat="54.493851" lon="-3.242767"><ele>371</ele><time>2022-03-30T11:32:54Z</time><name>PT2469</name></trkpt>
<trkpt lat="54.493852" lon="-3.242767"><ele>372</ele><time>2022-03-30T11:32:56Z</time><name>PT2470</name></trkpt>
<trkpt lat="54.493845" lon="-3.242762"><ele>371</ele><time>2022-03-30T11:33:00Z</time><name>PT2471</name></trkpt>
<trkpt lat="54.493847" lon="-3.242756"><ele>371</ele><time>2022-03-30T11:33:02Z</time><name>PT2472</name></trkpt>
<trkpt lat="54.493862" lon="-3.242747"><ele>370</ele><time>2022-03-30T11:33:02Z</time><name>PT2473</name></trkpt>
<trkpt lat="54.493863" lon="-3.242737"><ele>369</ele><time>2022-03-30T11:33:03Z</time><name>PT2474</name></trkpt>
<trkpt lat="54.493864" lon="-3.242726"><ele>369</ele><time>2022-03-30T11:33:05Z</time><name>PT2475</name></trkpt>
<trkpt lat="54.493862" lon="-3.242722"><ele>369</ele><time>2022-03-30T11:33:05Z</time><name>PT2476</name></trkpt>
<trkpt lat="54.493867" lon="-3.242720"><ele>369</ele><time>2022-03-30T11:33:06Z</time><name>PT2477</name></trkpt>
<trkpt lat="54.493870" lon="-3.242720"><ele>370</ele><time>2022-03-30T11:33:08Z</time><name>PT2478</name></trkpt>
<trkpt lat="54.493871" lon="-3.242723"><ele>370</ele><time>2022-03-30T11:33:08Z</time><name>PT2479</name></trkpt>
<trkpt lat="54.493869" lon="-3.242723"><ele>369</ele><time>2022-03-30T11:33:09Z</time><name>PT2480</name></trkpt>
<trkpt lat="54.493863" lon="-3.242729"><ele>369</ele><time>2022-03-30T11:33:11Z</time><name>PT2481</name></trkpt>
<trkpt lat="54.493861" lon="-3.242728"><ele>369</ele><time>2022-03-30T11:33:11Z</time><name>PT2482</name></trkpt>
<trkpt lat="54.493856" lon="-3.242727"><ele>369</ele><time>2022-03-30T11:33:12Z</time><name>PT2483</name></trkpt>
<trkpt lat="54.493859" lon="-3.242724"><ele>370</ele><time>2022-03-30T11:33:14Z</time><name>PT2484</name></trkpt>
<trkpt lat="54.493859" lon="-3.242729"><ele>371</ele><time>2022-03-30T11:33:14Z</time><name>PT2485</name></trkpt>
<trkpt lat="54.493861" lon="-3.242732"><ele>371</ele><time>2022-03-30T11:33:15Z</time><name>PT2486</name></trkpt>
<trkpt lat="54.493858" lon="-3.242734"><ele>371</ele><time>2022-03-30T11:33:17Z</time><name>PT2487</name></trkpt>
<trkpt lat="54.493854" lon="-3.242733"><ele>370</ele><time>2022-03-30T11:33:17Z</time><name>PT2488</name></trkpt>
<trkpt lat="54.493850" lon="-3.242732"><ele>370</ele><time>2022-03-30T11:33:18Z</time><name>PT2489</name></trkpt>
<trkpt lat="54.493846" lon="-3.242735"><ele>371</ele><time>2022-03-30T11:33:20Z</time><name>PT2490</name></trkpt>
<trkpt lat="54.493845" lon="-3.242735"><ele>371</ele><time>2022-03-30T11:33:20Z</time><name>PT2491</name></trkpt>
<trkpt lat="54.493844" lon="-3.242741"><ele>372</ele><time>2022-03-30T11:33:21Z</time><name>PT2492</name></trkpt>
<trkpt lat="54.493844" lon="-3.242746"><ele>372</ele><time>2022-03-30T11:33:23Z</time><name>PT2493</name></trkpt>
<trkpt lat="54.493844" lon="-3.242746"><ele>371</ele><time>2022-03-30T11:33:23Z</time><name>PT2494</name></trkpt>
<trkpt lat="54.493845" lon="-3.242745"><ele>372</ele><time>2022-03-30T11:33:24Z</time><name>PT2495</name></trkpt>
<trkpt lat="54.493846" lon="-3.242745"><ele>371</ele><time>2022-03-30T11:33:26Z</time><name>PT2496</name></trkpt>
<trkpt lat="54.493850" lon="-3.242748"><ele>371</ele><time>2022-03-30T11:33:29Z</time><name>PT2497</name></trkpt>
<trkpt lat="54.493849" lon="-3.242757"><ele>372</ele><time>2022-03-30T11:33:29Z</time><name>PT2498</name></trkpt>
<trkpt lat="54.493849" lon="-3.242765"><ele>372</ele><time>2022-03-30T11:33:30Z</time><name>PT2499</name></trkpt>
<trkpt lat="54.493844" lon="-3.242765"><ele>372</ele><time>2022-03-30T11:33:32Z</time><name>PT2500</name></trkpt>
<trkpt lat="54.493839" lon="-3.242765"><ele>372</ele><time>2022-03-30T11:33:32Z</time><name>PT2501</name></trkpt>
<trkpt lat="54.493838" lon="-3.242768"><ele>372</ele><time>2022-03-30T11:33:33Z</time><name>PT2502</name></trkpt>
<trkpt lat="54.493834" lon="-3.242765"><ele>371</ele><time>2022-03-30T11:33:42Z</time><name>PT2503</name></trkpt>
<trkpt lat="54.493832" lon="-3.242763"><ele>371</ele><time>2022-03-30T11:33:43Z</time><name>PT2504</name></trkpt>
<trkpt lat="54.493836" lon="-3.242761"><ele>371</ele><time>2022-03-30T11:33:45Z</time><name>PT2505</name></trkpt>
<trkpt lat="54.493830" lon="-3.242768"><ele>370</ele><time>2022-03-30T11:33:47Z</time><name>PT2506</name></trkpt>
<trkpt lat="54.493819" lon="-3.242769"><ele>370</ele><time>2022-03-30T11:33:47Z</time><name>PT2507</name></trkpt>
<trkpt lat="54.493818" lon="-3.242769"><ele>370</ele><time>2022-03-30T11:33:48Z</time><name>PT2508</name></trkpt>
<trkpt lat="54.493806" lon="-3.242775"><ele>370</ele><time>2022-03-30T11:33:50Z</time><name>PT2509</name></trkpt>
<trkpt lat="54.493801" lon="-3.242781"><ele>369</ele><time>2022-03-30T11:33:50Z</time><name>PT2510</name></trkpt>
<trkpt lat="54.493804" lon="-3.242782"><ele>370</ele><time>2022-03-30T11:33:51Z</time><name>PT2511</name></trkpt>
<trkpt lat="54.493804" lon="-3.242783"><ele>370</ele><time>2022-03-30T11:33:53Z</time><name>PT2512</name></trkpt>
<trkpt lat="54.493790" lon="-3.242764"><ele>368</ele><time>2022-03-30T11:34:20Z</time><name>PT2513</name></trkpt>
<trkpt lat="54.493795" lon="-3.242761"><ele>369</ele><time>2022-03-30T11:34:48Z</time><name>PT2514</name></trkpt>
<trkpt lat="54.493798" lon="-3.242762"><ele>369</ele><time>2022-03-30T11:34:53Z</time><name>PT2515</name></trkpt>
<trkpt lat="54.493801" lon="-3.242756"><ele>370</ele><time>2022-03-30T11:35:17Z</time><name>PT2516</name></trkpt>
<trkpt lat="54.493808" lon="-3.242755"><ele>369</ele><time>2022-03-30T11:35:21Z</time><name>PT2517</name></trkpt>
<trkpt lat="54.493812" lon="-3.242754"><ele>370</ele><time>2022-03-30T11:35:24Z</time><name>PT2518</name></trkpt>
<trkpt lat="54.493805" lon="-3.242759"><ele>369</ele><time>2022-03-30T11:35:50Z</time><name>PT2519</name></trkpt>
<trkpt lat="54.493812" lon="-3.242764"><ele>368</ele><time>2022-03-30T11:35:54Z</time><name>PT2520</name></trkpt>
<trkpt lat="54.493813" lon="-3.242758"><ele>366</ele><time>2022-03-30T11:35:57Z</time><name>PT2521</name></trkpt>
<trkpt lat="54.493809" lon="-3.242754"><ele>363</ele><time>2022-03-30T11:36:02Z</time><name>PT2522</name></trkpt>
<trkpt lat="54.493810" lon="-3.242751"><ele>362</ele><time>2022-03-30T11:36:05Z</time><name>PT2523</name></trkpt>
<trkpt lat="54.493802" lon="-3.242740"><ele>360</ele><time>2022-03-30T11:36:08Z</time><name>PT2524</name></trkpt>
<trkpt lat="54.493793" lon="-3.242732"><ele>361</ele><time>2022-03-30T11:36:12Z</time><name>PT2525</name></trkpt>
<trkpt lat="54.493795" lon="-3.242732"><ele>360</ele><time>2022-03-30T11:36:15Z</time><name>PT2526</name></trkpt>
<trkpt lat="54.493806" lon="-3.242731"><ele>359</ele><time>2022-03-30T11:36:18Z</time><name>PT2527</name></trkpt>
<trkpt lat="54.493808" lon="-3.242724"><ele>357</ele><time>2022-03-30T11:36:23Z</time><name>PT2528</name></trkpt>
<trkpt lat="54.493821" lon="-3.242725"><ele>358</ele><time>2022-03-30T11:36:26Z</time><name>PT2529</name></trkpt>
<trkpt lat="54.493833" lon="-3.242735"><ele>362</ele><time>2022-03-30T11:36:29Z</time><name>PT2530</name></trkpt>
<trkpt lat="54.493853" lon="-3.242748"><ele>362</ele><time>2022-03-30T11:36:33Z</time><name>PT2531</name></trkpt>
<trkpt lat="54.493872" lon="-3.242756"><ele>364</ele><time>2022-03-30T11:36:36Z</time><name>PT2532</name></trkpt>
<trkpt lat="54.493874" lon="-3.242752"><ele>364</ele><time>2022-03-30T11:36:41Z</time><name>PT2533</name></trkpt>
<trkpt lat="54.493868" lon="-3.242730"><ele>364</ele><time>2022-03-30T11:36:50Z</time><name>PT2534</name></trkpt>
<trkpt lat="54.493869" lon="-3.242727"><ele>365</ele><time>2022-03-30T11:36:53Z</time><name>PT2535</name></trkpt>
<trkpt lat="54.493865" lon="-3.242735"><ele>366</ele><time>2022-03-30T11:37:57Z</time><name>PT2536</name></trkpt>
<trkpt lat="54.493840" lon="-3.242740"><ele>368</ele><time>2022-03-30T11:38:02Z</time><name>PT2537</name></trkpt>
<trkpt lat="54.493839" lon="-3.242751"><ele>368</ele><time>2022-03-30T11:38:50Z</time><name>PT2538</name></trkpt>
<trkpt lat="54.493830" lon="-3.242757"><ele>369</ele><time>2022-03-30T11:38:53Z</time><name>PT2539</name></trkpt>
<trkpt lat="54.493831" lon="-3.242767"><ele>368</ele><time>2022-03-30T11:39:19Z</time><name>PT2540</name></trkpt>
<trkpt lat="54.493828" lon="-3.242761"><ele>368</ele><time>2022-03-30T11:39:25Z</time><name>PT2541</name></trkpt>
<trkpt lat="54.493826" lon="-3.242760"><ele>367</ele><time>2022-03-30T11:39:28Z</time><name>PT2542</name></trkpt>
<trkpt lat="54.493822" lon="-3.242767"><ele>368</ele><time>2022-03-30T11:39:32Z</time><name>PT2543</name></trkpt>
<trkpt lat="54.493819" lon="-3.242760"><ele>368</ele><time>2022-03-30T11:39:37Z</time><name>PT2544</name></trkpt>
<trkpt lat="54.493811" lon="-3.242729"><ele>366</ele><time>2022-03-30T11:40:16Z</time><name>PT2545</name></trkpt>
<trkpt lat="54.493812" lon="-3.242703"><ele>365</ele><time>2022-03-30T11:40:19Z</time><name>PT2546</name></trkpt>
<trkpt lat="54.493829" lon="-3.242681"><ele>363</ele><time>2022-03-30T11:40:22Z</time><name>PT2547</name></trkpt>
<trkpt lat="54.493828" lon="-3.242689"><ele>361</ele><time>2022-03-30T11:40:26Z</time><name>PT2548</name></trkpt>
<trkpt lat="54.493823" lon="-3.242701"><ele>359</ele><time>2022-03-30T11:40:29Z</time><name>PT2549</name></trkpt>
<trkpt lat="54.493799" lon="-3.242712"><ele>357</ele><time>2022-03-30T11:40:33Z</time><name>PT2550</name></trkpt>
<trkpt lat="54.493773" lon="-3.242729"><ele>358</ele><time>2022-03-30T11:40:37Z</time><name>PT2551</name></trkpt>
<trkpt lat="54.493784" lon="-3.242694"><ele>356</ele><time>2022-03-30T11:40:40Z</time><name>PT2552</name></trkpt>
<trkpt lat="54.493798" lon="-3.242698"><ele>358</ele><time>2022-03-30T11:40:43Z</time><name>PT2553</name></trkpt>
<trkpt lat="54.493840" lon="-3.242757"><ele>362</ele><time>2022-03-30T11:41:53Z</time><name>PT2554</name></trkpt>
<trkpt lat="54.493849" lon="-3.242765"><ele>363</ele><time>2022-03-30T11:41:55Z</time><name>PT2555</name></trkpt>
<trkpt lat="54.493856" lon="-3.242775"><ele>363</ele><time>2022-03-30T11:41:55Z</time><name>PT2556</name></trkpt>
<trkpt lat="54.493862" lon="-3.242774"><ele>364</ele><time>2022-03-30T11:41:56Z</time><name>PT2557</name></trkpt>
<trkpt lat="54.493866" lon="-3.242772"><ele>364</ele><time>2022-03-30T11:41:58Z</time><name>PT2558</name></trkpt>
<trkpt lat="54.493872" lon="-3.242774"><ele>364</ele><time>2022-03-30T11:41:58Z</time><name>PT2559</name></trkpt>
<trkpt lat="54.493877" lon="-3.242771"><ele>364</ele><time>2022-03-30T11:41:59Z</time><name>PT2560</name></trkpt>
<trkpt lat="54.493884" lon="-3.242769"><ele>363</ele><time>2022-03-30T11:42:01Z</time><name>PT2561</name></trkpt>
<trkpt lat="54.493891" lon="-3.242765"><ele>363</ele><time>2022-03-30T11:42:01Z</time><name>PT2562</name></trkpt>
<trkpt lat="54.493901" lon="-3.242765"><ele>363</ele><time>2022-03-30T11:42:02Z</time><name>PT2563</name></trkpt>
<trkpt lat="54.493910" lon="-3.242764"><ele>364</ele><time>2022-03-30T11:42:04Z</time><name>PT2564</name></trkpt>
<trkpt lat="54.493916" lon="-3.242766"><ele>364</ele><time>2022-03-30T11:42:04Z</time><name>PT2565</name></trkpt>
<trkpt lat="54.493922" lon="-3.242766"><ele>364</ele><time>2022-03-30T11:42:05Z</time><name>PT2566</name></trkpt>
<trkpt lat="54.493927" lon="-3.242765"><ele>364</ele><time>2022-03-30T11:42:07Z</time><name>PT2567</name></trkpt>
<trkpt lat="54.493932" lon="-3.242764"><ele>364</ele><time>2022-03-30T11:42:07Z</time><name>PT2568</name></trkpt>
<trkpt lat="54.493938" lon="-3.242766"><ele>364</ele><time>2022-03-30T11:42:08Z</time><name>PT2569</name></trkpt>
<trkpt lat="54.493943" lon="-3.242770"><ele>364</ele><time>2022-03-30T11:42:10Z</time><name>PT2570</name></trkpt>
<trkpt lat="54.493946" lon="-3.242775"><ele>364</ele><time>2022-03-30T11:42:10Z</time><name>PT2571</name></trkpt>
<trkpt lat="54.493951" lon="-3.242782"><ele>364</ele><time>2022-03-30T11:42:11Z</time><name>PT2572</name></trkpt>
<trkpt lat="54.493954" lon="-3.242785"><ele>364</ele><time>2022-03-30T11:42:13Z</time><name>PT2573</name></trkpt>
<trkpt lat="54.493962" lon="-3.242783"><ele>364</ele><time>2022-03-30T11:42:13Z</time><name>PT2574</name></trkpt>
<trkpt lat="54.493967" lon="-3.242778"><ele>363</ele><time>2022-03-30T11:42:14Z</time><name>PT2575</name></trkpt>
<trkpt lat="54.493973" lon="-3.242772"><ele>363</ele><time>2022-03-30T11:42:16Z</time><name>PT2576</name></trkpt>
<trkpt lat="54.493978" lon="-3.242766"><ele>363</ele><time>2022-03-30T11:42:16Z</time><name>PT2577</name></trkpt>
<trkpt lat="54.493986" lon="-3.242759"><ele>363</ele><time>2022-03-30T11:42:17Z</time><name>PT2578</name></trkpt>
<trkpt lat="54.493995" lon="-3.242757"><ele>364</ele><time>2022-03-30T11:42:19Z</time><name>PT2579</name></trkpt>
<trkpt lat="54.494002" lon="-3.242752"><ele>364</ele><time>2022-03-30T11:42:19Z</time><name>PT2580</name></trkpt>
<trkpt lat="54.494011" lon="-3.242744"><ele>364</ele><time>2022-03-30T11:42:20Z</time><name>PT2581</name></trkpt>
<trkpt lat="54.494020" lon="-3.242732"><ele>364</ele><time>2022-03-30T11:42:22Z</time><name>PT2582</name></trkpt>
<trkpt lat="54.494028" lon="-3.242722"><ele>364</ele><time>2022-03-30T11:42:22Z</time><name>PT2583</name></trkpt>
<trkpt lat="54.494037" lon="-3.242717"><ele>364</ele><time>2022-03-30T11:42:23Z</time><name>PT2584</name></trkpt>
<trkpt lat="54.494046" lon="-3.242712"><ele>364</ele><time>2022-03-30T11:42:25Z</time><name>PT2585</name></trkpt>
<trkpt lat="54.494056" lon="-3.242706"><ele>363</ele><time>2022-03-30T11:42:25Z</time><name>PT2586</name></trkpt>
<trkpt lat="54.494064" lon="-3.242700"><ele>363</ele><time>2022-03-30T11:42:26Z</time><name>PT2587</name></trkpt>
<trkpt lat="54.494073" lon="-3.242695"><ele>363</ele><time>2022-03-30T11:42:28Z</time><name>PT2588</name></trkpt>
<trkpt lat="54.494080" lon="-3.242691"><ele>363</ele><time>2022-03-30T11:42:28Z</time><name>PT2589</name></trkpt>
<trkpt lat="54.494088" lon="-3.242684"><ele>363</ele><time>2022-03-30T11:42:29Z</time><name>PT2590</name></trkpt>
<trkpt lat="54.494096" lon="-3.242677"><ele>362</ele><time>2022-03-30T11:42:31Z</time><name>PT2591</name></trkpt>
<trkpt lat="54.494109" lon="-3.242670"><ele>362</ele><time>2022-03-30T11:42:31Z</time><name>PT2592</name></trkpt>
<trkpt lat="54.494118" lon="-3.242663"><ele>362</ele><time>2022-03-30T11:42:32Z</time><name>PT2593</name></trkpt>
<trkpt lat="54.494128" lon="-3.242659"><ele>362</ele><time>2022-03-30T11:42:34Z</time><name>PT2594</name></trkpt>
<trkpt lat="54.494136" lon="-3.242655"><ele>362</ele><time>2022-03-30T11:42:34Z</time><name>PT2595</name></trkpt>
<trkpt lat="54.494144" lon="-3.242655"><ele>362</ele><time>2022-03-30T11:42:35Z</time><name>PT2596</name></trkpt>
<trkpt lat="54.494154" lon="-3.242658"><ele>362</ele><time>2022-03-30T11:42:37Z</time><name>PT2597</name></trkpt>
<trkpt lat="54.494162" lon="-3.242659"><ele>362</ele><time>2022-03-30T11:42:37Z</time><name>PT2598</name></trkpt>
<trkpt lat="54.494171" lon="-3.242657"><ele>362</ele><time>2022-03-30T11:42:38Z</time><name>PT2599</name></trkpt>
<trkpt lat="54.494182" lon="-3.242658"><ele>361</ele><time>2022-03-30T11:42:40Z</time><name>PT2600</name></trkpt>
<trkpt lat="54.494191" lon="-3.242658"><ele>361</ele><time>2022-03-30T11:42:40Z</time><name>PT2601</name></trkpt>
<trkpt lat="54.494199" lon="-3.242658"><ele>361</ele><time>2022-03-30T11:42:41Z</time><name>PT2602</name></trkpt>
<trkpt lat="54.494206" lon="-3.242656"><ele>361</ele><time>2022-03-30T11:42:43Z</time><name>PT2603</name></trkpt>
<trkpt lat="54.494216" lon="-3.242656"><ele>361</ele><time>2022-03-30T11:42:43Z</time><name>PT2604</name></trkpt>
<trkpt lat="54.494226" lon="-3.242653"><ele>361</ele><time>2022-03-30T11:42:44Z</time><name>PT2605</name></trkpt>
<trkpt lat="54.494234" lon="-3.242649"><ele>360</ele><time>2022-03-30T11:42:46Z</time><name>PT2606</name></trkpt>
<trkpt lat="54.494242" lon="-3.242647"><ele>360</ele><time>2022-03-30T11:42:46Z</time><name>PT2607</name></trkpt>
<trkpt lat="54.494252" lon="-3.242646"><ele>360</ele><time>2022-03-30T11:42:47Z</time><name>PT2608</name></trkpt>
<trkpt lat="54.494260" lon="-3.242648"><ele>360</ele><time>2022-03-30T11:42:49Z</time><name>PT2609</name></trkpt>
<trkpt lat="54.494266" lon="-3.242649"><ele>360</ele><time>2022-03-30T11:42:49Z</time><name>PT2610</name></trkpt>
<trkpt lat="54.494271" lon="-3.242651"><ele>360</ele><time>2022-03-30T11:42:50Z</time><name>PT2611</name></trkpt>
<trkpt lat="54.494278" lon="-3.242651"><ele>359</ele><time>2022-03-30T11:42:52Z</time><name>PT2612</name></trkpt>
<trkpt lat="54.494303" lon="-3.242650"><ele>359</ele><time>2022-03-30T11:42:55Z</time><name>PT2613</name></trkpt>
<trkpt lat="54.494330" lon="-3.242637"><ele>358</ele><time>2022-03-30T11:42:58Z</time><name>PT2614</name></trkpt>
<trkpt lat="54.494358" lon="-3.242627"><ele>357</ele><time>2022-03-30T11:43:01Z</time><name>PT2615</name></trkpt>
<trkpt lat="54.494386" lon="-3.242653"><ele>356</ele><time>2022-03-30T11:43:04Z</time><name>PT2616</name></trkpt>
<trkpt lat="54.494417" lon="-3.242650"><ele>356</ele><time>2022-03-30T11:43:08Z</time><name>PT2617</name></trkpt>
<trkpt lat="54.494446" lon="-3.242632"><ele>355</ele><time>2022-03-30T11:43:11Z</time><name>PT2618</name></trkpt>
<trkpt lat="54.494475" lon="-3.242642"><ele>354</ele><time>2022-03-30T11:43:16Z</time><name>PT2619</name></trkpt>
<trkpt lat="54.494507" lon="-3.242625"><ele>354</ele><time>2022-03-30T11:43:19Z</time><name>PT2620</name></trkpt>
<trkpt lat="54.494547" lon="-3.242618"><ele>354</ele><time>2022-03-30T11:43:23Z</time><name>PT2621</name></trkpt>
<trkpt lat="54.494573" lon="-3.242629"><ele>353</ele><time>2022-03-30T11:43:26Z</time><name>PT2622</name></trkpt>
<trkpt lat="54.494605" lon="-3.242607"><ele>352</ele><time>2022-03-30T11:43:31Z</time><name>PT2623</name></trkpt>
<trkpt lat="54.494630" lon="-3.242594"><ele>351</ele><time>2022-03-30T11:43:34Z</time><name>PT2624</name></trkpt>
<trkpt lat="54.494654" lon="-3.242599"><ele>351</ele><time>2022-03-30T11:43:37Z</time><name>PT2625</name></trkpt>
<trkpt lat="54.494678" lon="-3.242599"><ele>350</ele><time>2022-03-30T11:43:40Z</time><name>PT2626</name></trkpt>
<trkpt lat="54.494708" lon="-3.242584"><ele>349</ele><time>2022-03-30T11:43:43Z</time><name>PT2627</name></trkpt>
<trkpt lat="54.494731" lon="-3.242572"><ele>349</ele><time>2022-03-30T11:43:46Z</time><name>PT2628</name></trkpt>
<trkpt lat="54.494763" lon="-3.242570"><ele>347</ele><time>2022-03-30T11:43:50Z</time><name>PT2629</name></trkpt>
<trkpt lat="54.494791" lon="-3.242573"><ele>346</ele><time>2022-03-30T11:43:54Z</time><name>PT2630</name></trkpt>
<trkpt lat="54.494813" lon="-3.242565"><ele>346</ele><time>2022-03-30T11:43:58Z</time><name>PT2631</name></trkpt>
<trkpt lat="54.494836" lon="-3.242557"><ele>344</ele><time>2022-03-30T11:44:01Z</time><name>PT2632</name></trkpt>
<trkpt lat="54.494863" lon="-3.242555"><ele>343</ele><time>2022-03-30T11:44:05Z</time><name>PT2633</name></trkpt>
<trkpt lat="54.494881" lon="-3.242546"><ele>342</ele><time>2022-03-30T11:44:08Z</time><name>PT2634</name></trkpt>
<trkpt lat="54.494903" lon="-3.242527"><ele>341</ele><time>2022-03-30T11:44:11Z</time><name>PT2635</name></trkpt>
<trkpt lat="54.494932" lon="-3.242499"><ele>341</ele><time>2022-03-30T11:44:16Z</time><name>PT2636</name></trkpt>
<trkpt lat="54.494960" lon="-3.242473"><ele>340</ele><time>2022-03-30T11:44:19Z</time><name>PT2637</name></trkpt>
<trkpt lat="54.494980" lon="-3.242470"><ele>340</ele><time>2022-03-30T11:44:22Z</time><name>PT2638</name></trkpt>
<trkpt lat="54.495007" lon="-3.242486"><ele>339</ele><time>2022-03-30T11:44:26Z</time><name>PT2639</name></trkpt>
<trkpt lat="54.495021" lon="-3.242472"><ele>340</ele><time>2022-03-30T11:44:31Z</time><name>PT2640</name></trkpt>
<trkpt lat="54.495023" lon="-3.242471"><ele>340</ele><time>2022-03-30T11:44:34Z</time><name>PT2641</name></trkpt>
<trkpt lat="54.495021" lon="-3.242486"><ele>339</ele><time>2022-03-30T11:44:37Z</time><name>PT2642</name></trkpt>
<trkpt lat="54.495019" lon="-3.242482"><ele>339</ele><time>2022-03-30T11:44:40Z</time><name>PT2643</name></trkpt>
<trkpt lat="54.495034" lon="-3.242475"><ele>340</ele><time>2022-03-30T11:45:07Z</time><name>PT2644</name></trkpt>
<trkpt lat="54.495065" lon="-3.242448"><ele>339</ele><time>2022-03-30T11:45:11Z</time><name>PT2645</name></trkpt>
<trkpt lat="54.495091" lon="-3.242440"><ele>338</ele><time>2022-03-30T11:45:14Z</time><name>PT2646</name></trkpt>
<trkpt lat="54.495111" lon="-3.242438"><ele>337</ele><time>2022-03-30T11:45:17Z</time><name>PT2647</name></trkpt>
<trkpt lat="54.495125" lon="-3.242435"><ele>337</ele><time>2022-03-30T11:45:20Z</time><name>PT2648</name></trkpt>
<trkpt lat="54.495148" lon="-3.242425"><ele>336</ele><time>2022-03-30T11:45:25Z</time><name>PT2649</name></trkpt>
<trkpt lat="54.495175" lon="-3.242392"><ele>335</ele><time>2022-03-30T11:45:28Z</time><name>PT2650</name></trkpt>
<trkpt lat="54.495204" lon="-3.242372"><ele>334</ele><time>2022-03-30T11:45:32Z</time><name>PT2651</name></trkpt>
<trkpt lat="54.495223" lon="-3.242360"><ele>334</ele><time>2022-03-30T11:45:35Z</time><name>PT2652</name></trkpt>
<trkpt lat="54.495243" lon="-3.242357"><ele>333</ele><time>2022-03-30T11:45:38Z</time><name>PT2653</name></trkpt>
<trkpt lat="54.495265" lon="-3.242330"><ele>332</ele><time>2022-03-30T11:45:43Z</time><name>PT2654</name></trkpt>
<trkpt lat="54.495285" lon="-3.242328"><ele>332</ele><time>2022-03-30T11:45:46Z</time><name>PT2655</name></trkpt>
<trkpt lat="54.495313" lon="-3.242303"><ele>330</ele><time>2022-03-30T11:45:49Z</time><name>PT2656</name></trkpt>
<trkpt lat="54.495334" lon="-3.242280"><ele>330</ele><time>2022-03-30T11:45:53Z</time><name>PT2657</name></trkpt>
<trkpt lat="54.495355" lon="-3.242255"><ele>330</ele><time>2022-03-30T11:45:56Z</time><name>PT2658</name></trkpt>
<trkpt lat="54.495382" lon="-3.242211"><ele>330</ele><time>2022-03-30T11:46:01Z</time><name>PT2659</name></trkpt>
<trkpt lat="54.495401" lon="-3.242191"><ele>330</ele><time>2022-03-30T11:46:04Z</time><name>PT2660</name></trkpt>
<trkpt lat="54.495425" lon="-3.242164"><ele>329</ele><time>2022-03-30T11:46:07Z</time><name>PT2661</name></trkpt>
<trkpt lat="54.495448" lon="-3.242131"><ele>328</ele><time>2022-03-30T11:46:11Z</time><name>PT2662</name></trkpt>
<trkpt lat="54.495461" lon="-3.242100"><ele>328</ele><time>2022-03-30T11:46:14Z</time><name>PT2663</name></trkpt>
<trkpt lat="54.495480" lon="-3.242093"><ele>328</ele><time>2022-03-30T11:46:17Z</time><name>PT2664</name></trkpt>
<trkpt lat="54.495499" lon="-3.242097"><ele>327</ele><time>2022-03-30T11:46:20Z</time><name>PT2665</name></trkpt>
<trkpt lat="54.495522" lon="-3.242104"><ele>327</ele><time>2022-03-30T11:46:25Z</time><name>PT2666</name></trkpt>
<trkpt lat="54.495536" lon="-3.242115"><ele>327</ele><time>2022-03-30T11:46:28Z</time><name>PT2667</name></trkpt>
<trkpt lat="54.495558" lon="-3.242128"><ele>327</ele><time>2022-03-30T11:46:31Z</time><name>PT2668</name></trkpt>
<trkpt lat="54.495580" lon="-3.242132"><ele>327</ele><time>2022-03-30T11:46:35Z</time><name>PT2669</name></trkpt>
<trkpt lat="54.495595" lon="-3.242125"><ele>326</ele><time>2022-03-30T11:46:38Z</time><name>PT2670</name></trkpt>
<trkpt lat="54.495615" lon="-3.242128"><ele>325</ele><time>2022-03-30T11:46:43Z</time><name>PT2671</name></trkpt>
<trkpt lat="54.495622" lon="-3.242127"><ele>324</ele><time>2022-03-30T11:46:46Z</time><name>PT2672</name></trkpt>
<trkpt lat="54.495625" lon="-3.242112"><ele>324</ele><time>2022-03-30T11:47:04Z</time><name>PT2673</name></trkpt>
<trkpt lat="54.495655" lon="-3.242124"><ele>325</ele><time>2022-03-30T11:47:07Z</time><name>PT2674</name></trkpt>
<trkpt lat="54.495690" lon="-3.242134"><ele>325</ele><time>2022-03-30T11:47:11Z</time><name>PT2675</name></trkpt>
<trkpt lat="54.495718" lon="-3.242132"><ele>324</ele><time>2022-03-30T11:47:14Z</time><name>PT2676</name></trkpt>
<trkpt lat="54.495747" lon="-3.242119"><ele>323</ele><time>2022-03-30T11:47:17Z</time><name>PT2677</name></trkpt>
<trkpt lat="54.495782" lon="-3.242108"><ele>322</ele><time>2022-03-30T11:47:22Z</time><name>PT2678</name></trkpt>
<trkpt lat="54.495808" lon="-3.242099"><ele>322</ele><time>2022-03-30T11:47:25Z</time><name>PT2679</name></trkpt>
<trkpt lat="54.495839" lon="-3.242081"><ele>320</ele><time>2022-03-30T11:47:28Z</time><name>PT2680</name></trkpt>
<trkpt lat="54.495867" lon="-3.242058"><ele>320</ele><time>2022-03-30T11:47:32Z</time><name>PT2681</name></trkpt>
<trkpt lat="54.495895" lon="-3.242064"><ele>319</ele><time>2022-03-30T11:47:35Z</time><name>PT2682</name></trkpt>
<trkpt lat="54.495917" lon="-3.242037"><ele>319</ele><time>2022-03-30T11:47:38Z</time><name>PT2683</name></trkpt>
<trkpt lat="54.495950" lon="-3.242004"><ele>318</ele><time>2022-03-30T11:47:43Z</time><name>PT2684</name></trkpt>
<trkpt lat="54.495973" lon="-3.241985"><ele>317</ele><time>2022-03-30T11:47:46Z</time><name>PT2685</name></trkpt>
<trkpt lat="54.495996" lon="-3.241956"><ele>316</ele><time>2022-03-30T11:47:49Z</time><name>PT2686</name></trkpt>
<trkpt lat="54.496023" lon="-3.241932"><ele>315</ele><time>2022-03-30T11:47:52Z</time><name>PT2687</name></trkpt>
<trkpt lat="54.496067" lon="-3.241916"><ele>315</ele><time>2022-03-30T11:47:55Z</time><name>PT2688</name></trkpt>
<trkpt lat="54.496107" lon="-3.241908"><ele>315</ele><time>2022-03-30T11:47:59Z</time><name>PT2689</name></trkpt>
<trkpt lat="54.496134" lon="-3.241885"><ele>315</ele><time>2022-03-30T11:48:02Z</time><name>PT2690</name></trkpt>
<trkpt lat="54.496175" lon="-3.241865"><ele>315</ele><time>2022-03-30T11:48:07Z</time><name>PT2691</name></trkpt>
<trkpt lat="54.496206" lon="-3.241853"><ele>314</ele><time>2022-03-30T11:48:10Z</time><name>PT2692</name></trkpt>
<trkpt lat="54.496232" lon="-3.241842"><ele>313</ele><time>2022-03-30T11:48:13Z</time><name>PT2693</name></trkpt>
<trkpt lat="54.496260" lon="-3.241826"><ele>313</ele><time>2022-03-30T11:48:16Z</time><name>PT2694</name></trkpt>
<trkpt lat="54.496296" lon="-3.241808"><ele>312</ele><time>2022-03-30T11:48:19Z</time><name>PT2695</name></trkpt>
<trkpt lat="54.496332" lon="-3.241786"><ele>311</ele><time>2022-03-30T11:48:23Z</time><name>PT2696</name></trkpt>
<trkpt lat="54.496368" lon="-3.241760"><ele>310</ele><time>2022-03-30T11:48:28Z</time><name>PT2697</name></trkpt>
<trkpt lat="54.496405" lon="-3.241746"><ele>309</ele><time>2022-03-30T11:48:31Z</time><name>PT2698</name></trkpt>
<trkpt lat="54.496441" lon="-3.241735"><ele>308</ele><time>2022-03-30T11:48:35Z</time><name>PT2699</name></trkpt>
<trkpt lat="54.496477" lon="-3.241724"><ele>308</ele><time>2022-03-30T11:48:40Z</time><name>PT2700</name></trkpt>
<trkpt lat="54.496514" lon="-3.241698"><ele>306</ele><time>2022-03-30T11:48:43Z</time><name>PT2701</name></trkpt>
<trkpt lat="54.496542" lon="-3.241688"><ele>306</ele><time>2022-03-30T11:48:46Z</time><name>PT2702</name></trkpt>
<trkpt lat="54.496579" lon="-3.241675"><ele>305</ele><time>2022-03-30T11:48:50Z</time><name>PT2703</name></trkpt>
<trkpt lat="54.496604" lon="-3.241655"><ele>304</ele><time>2022-03-30T11:48:53Z</time><name>PT2704</name></trkpt>
<trkpt lat="54.496638" lon="-3.241635"><ele>303</ele><time>2022-03-30T11:48:58Z</time><name>PT2705</name></trkpt>
<trkpt lat="54.496672" lon="-3.241608"><ele>302</ele><time>2022-03-30T11:49:01Z</time><name>PT2706</name></trkpt>
<trkpt lat="54.496698" lon="-3.241581"><ele>302</ele><time>2022-03-30T11:49:04Z</time><name>PT2707</name></trkpt>
<trkpt lat="54.496733" lon="-3.241539"><ele>301</ele><time>2022-03-30T11:49:08Z</time><name>PT2708</name></trkpt>
<trkpt lat="54.496763" lon="-3.241500"><ele>300</ele><time>2022-03-30T11:49:12Z</time><name>PT2709</name></trkpt>
<trkpt lat="54.496783" lon="-3.241486"><ele>300</ele><time>2022-03-30T11:49:16Z</time><name>PT2710</name></trkpt>
<trkpt lat="54.496803" lon="-3.241464"><ele>299</ele><time>2022-03-30T11:49:19Z</time><name>PT2711</name></trkpt>
<trkpt lat="54.496831" lon="-3.241445"><ele>298</ele><time>2022-03-30T11:49:22Z</time><name>PT2712</name></trkpt>
<trkpt lat="54.496848" lon="-3.241429"><ele>298</ele><time>2022-03-30T11:49:25Z</time><name>PT2713</name></trkpt>
<trkpt lat="54.496885" lon="-3.241404"><ele>298</ele><time>2022-03-30T11:49:29Z</time><name>PT2714</name></trkpt>
<trkpt lat="54.496907" lon="-3.241388"><ele>297</ele><time>2022-03-30T11:49:32Z</time><name>PT2715</name></trkpt>
<trkpt lat="54.496933" lon="-3.241379"><ele>297</ele><time>2022-03-30T11:49:35Z</time><name>PT2716</name></trkpt>
<trkpt lat="54.496939" lon="-3.241374"><ele>297</ele><time>2022-03-30T11:49:36Z</time><name>PT2717</name></trkpt>
<trkpt lat="54.496946" lon="-3.241369"><ele>297</ele><time>2022-03-30T11:49:37Z</time><name>PT2718</name></trkpt>
<trkpt lat="54.496956" lon="-3.241363"><ele>297</ele><time>2022-03-30T11:49:38Z</time><name>PT2719</name></trkpt>
<trkpt lat="54.496965" lon="-3.241357"><ele>297</ele><time>2022-03-30T11:49:39Z</time><name>PT2720</name></trkpt>
<trkpt lat="54.496973" lon="-3.241353"><ele>296</ele><time>2022-03-30T11:49:40Z</time><name>PT2721</name></trkpt>
<trkpt lat="54.496979" lon="-3.241349"><ele>296</ele><time>2022-03-30T11:49:41Z</time><name>PT2722</name></trkpt>
<trkpt lat="54.496987" lon="-3.241345"><ele>296</ele><time>2022-03-30T11:49:42Z</time><name>PT2723</name></trkpt>
<trkpt lat="54.496991" lon="-3.241340"><ele>296</ele><time>2022-03-30T11:49:43Z</time><name>PT2724</name></trkpt>
<trkpt lat="54.496995" lon="-3.241342"><ele>296</ele><time>2022-03-30T11:49:44Z</time><name>PT2725</name></trkpt>
<trkpt lat="54.496995" lon="-3.241345"><ele>295</ele><time>2022-03-30T11:49:45Z</time><name>PT2726</name></trkpt>
<trkpt lat="54.496998" lon="-3.241353"><ele>296</ele><time>2022-03-30T11:49:46Z</time><name>PT2727</name></trkpt>
<trkpt lat="54.496999" lon="-3.241354"><ele>295</ele><time>2022-03-30T11:49:47Z</time><name>PT2728</name></trkpt>
<trkpt lat="54.496998" lon="-3.241354"><ele>295</ele><time>2022-03-30T11:49:49Z</time><name>PT2729</name></trkpt>
<trkpt lat="54.497000" lon="-3.241350"><ele>295</ele><time>2022-03-30T11:49:53Z</time><name>PT2730</name></trkpt>
<trkpt lat="54.497004" lon="-3.241355"><ele>294</ele><time>2022-03-30T11:49:55Z</time><name>PT2731</name></trkpt>
<trkpt lat="54.497013" lon="-3.241367"><ele>294</ele><time>2022-03-30T11:49:55Z</time><name>PT2732</name></trkpt>
<trkpt lat="54.497022" lon="-3.241372"><ele>294</ele><time>2022-03-30T11:49:56Z</time><name>PT2733</name></trkpt>
<trkpt lat="54.497035" lon="-3.241376"><ele>294</ele><time>2022-03-30T11:49:58Z</time><name>PT2734</name></trkpt>
<trkpt lat="54.497045" lon="-3.241386"><ele>294</ele><time>2022-03-30T11:49:58Z</time><name>PT2735</name></trkpt>
<trkpt lat="54.497056" lon="-3.241399"><ele>295</ele><time>2022-03-30T11:49:59Z</time><name>PT2736</name></trkpt>
<trkpt lat="54.497066" lon="-3.241399"><ele>295</ele><time>2022-03-30T11:50:00Z</time><name>PT2737</name></trkpt>
<trkpt lat="54.497072" lon="-3.241402"><ele>295</ele><time>2022-03-30T11:50:01Z</time><name>PT2738</name></trkpt>
<trkpt lat="54.497081" lon="-3.241409"><ele>295</ele><time>2022-03-30T11:50:02Z</time><name>PT2739</name></trkpt>
<trkpt lat="54.497093" lon="-3.241414"><ele>295</ele><time>2022-03-30T11:50:03Z</time><name>PT2740</name></trkpt>
<trkpt lat="54.497103" lon="-3.241409"><ele>296</ele><time>2022-03-30T11:50:04Z</time><name>PT2741</name></trkpt>
<trkpt lat="54.497112" lon="-3.241411"><ele>296</ele><time>2022-03-30T11:50:05Z</time><name>PT2742</name></trkpt>
<trkpt lat="54.497124" lon="-3.241407"><ele>297</ele><time>2022-03-30T11:50:07Z</time><name>PT2743</name></trkpt>
<trkpt lat="54.497133" lon="-3.241411"><ele>297</ele><time>2022-03-30T11:50:07Z</time><name>PT2744</name></trkpt>
<trkpt lat="54.497143" lon="-3.241410"><ele>297</ele><time>2022-03-30T11:50:08Z</time><name>PT2745</name></trkpt>
<trkpt lat="54.497153" lon="-3.241412"><ele>297</ele><time>2022-03-30T11:50:10Z</time><name>PT2746</name></trkpt>
<trkpt lat="54.497165" lon="-3.241409"><ele>296</ele><time>2022-03-30T11:50:10Z</time><name>PT2747</name></trkpt>
<trkpt lat="54.497175" lon="-3.241409"><ele>296</ele><time>2022-03-30T11:50:11Z</time><name>PT2748</name></trkpt>
<trkpt lat="54.497183" lon="-3.241408"><ele>296</ele><time>2022-03-30T11:50:13Z</time><name>PT2749</name></trkpt>
<trkpt lat="54.497194" lon="-3.241402"><ele>295</ele><time>2022-03-30T11:50:13Z</time><name>PT2750</name></trkpt>
<trkpt lat="54.497203" lon="-3.241398"><ele>295</ele><time>2022-03-30T11:50:14Z</time><name>PT2751</name></trkpt>
<trkpt lat="54.497213" lon="-3.241397"><ele>295</ele><time>2022-03-30T11:50:16Z</time><name>PT2752</name></trkpt>
<trkpt lat="54.497218" lon="-3.241399"><ele>295</ele><time>2022-03-30T11:50:16Z</time><name>PT2753</name></trkpt>
<trkpt lat="54.497223" lon="-3.241399"><ele>295</ele><time>2022-03-30T11:50:17Z</time><name>PT2754</name></trkpt>
<trkpt lat="54.497222" lon="-3.241399"><ele>295</ele><time>2022-03-30T11:50:19Z</time><name>PT2755</name></trkpt>
<trkpt lat="54.497223" lon="-3.241391"><ele>295</ele><time>2022-03-30T11:50:19Z</time><name>PT2756</name></trkpt>
<trkpt lat="54.497225" lon="-3.241388"><ele>296</ele><time>2022-03-30T11:50:20Z</time><name>PT2757</name></trkpt>
<trkpt lat="54.497230" lon="-3.241403"><ele>297</ele><time>2022-03-30T11:50:31Z</time><name>PT2758</name></trkpt>
<trkpt lat="54.497239" lon="-3.241399"><ele>296</ele><time>2022-03-30T11:50:32Z</time><name>PT2759</name></trkpt>
<trkpt lat="54.497249" lon="-3.241393"><ele>296</ele><time>2022-03-30T11:50:34Z</time><name>PT2760</name></trkpt>
<trkpt lat="54.497254" lon="-3.241391"><ele>295</ele><time>2022-03-30T11:50:34Z</time><name>PT2761</name></trkpt>
<trkpt lat="54.497261" lon="-3.241382"><ele>295</ele><time>2022-03-30T11:50:35Z</time><name>PT2762</name></trkpt>
<trkpt lat="54.497268" lon="-3.241374"><ele>294</ele><time>2022-03-30T11:50:37Z</time><name>PT2763</name></trkpt>
<trkpt lat="54.497275" lon="-3.241370"><ele>294</ele><time>2022-03-30T11:50:37Z</time><name>PT2764</name></trkpt>
<trkpt lat="54.497281" lon="-3.241366"><ele>294</ele><time>2022-03-30T11:50:38Z</time><name>PT2765</name></trkpt>
<trkpt lat="54.497292" lon="-3.241368"><ele>294</ele><time>2022-03-30T11:50:39Z</time><name>PT2766</name></trkpt>
<trkpt lat="54.497305" lon="-3.241366"><ele>294</ele><time>2022-03-30T11:50:40Z</time><name>PT2767</name></trkpt>
<trkpt lat="54.497314" lon="-3.241367"><ele>294</ele><time>2022-03-30T11:50:41Z</time><name>PT2768</name></trkpt>
<trkpt lat="54.497322" lon="-3.241368"><ele>294</ele><time>2022-03-30T11:50:43Z</time><name>PT2769</name></trkpt>
<trkpt lat="54.497333" lon="-3.241369"><ele>293</ele><time>2022-03-30T11:50:43Z</time><name>PT2770</name></trkpt>
<trkpt lat="54.497344" lon="-3.241368"><ele>293</ele><time>2022-03-30T11:50:44Z</time><name>PT2771</name></trkpt>
<trkpt lat="54.497354" lon="-3.241361"><ele>293</ele><time>2022-03-30T11:50:46Z</time><name>PT2772</name></trkpt>
<trkpt lat="54.497366" lon="-3.241357"><ele>292</ele><time>2022-03-30T11:50:46Z</time><name>PT2773</name></trkpt>
<trkpt lat="54.497376" lon="-3.241354"><ele>292</ele><time>2022-03-30T11:50:47Z</time><name>PT2774</name></trkpt>
<trkpt lat="54.497388" lon="-3.241351"><ele>292</ele><time>2022-03-30T11:50:48Z</time><name>PT2775</name></trkpt>
<trkpt lat="54.497401" lon="-3.241352"><ele>292</ele><time>2022-03-30T11:50:49Z</time><name>PT2776</name></trkpt>
<trkpt lat="54.497410" lon="-3.241353"><ele>292</ele><time>2022-03-30T11:50:50Z</time><name>PT2777</name></trkpt>
<trkpt lat="54.497417" lon="-3.241353"><ele>292</ele><time>2022-03-30T11:50:51Z</time><name>PT2778</name></trkpt>
<trkpt lat="54.497425" lon="-3.241352"><ele>292</ele><time>2022-03-30T11:50:52Z</time><name>PT2779</name></trkpt>
<trkpt lat="54.497431" lon="-3.241358"><ele>292</ele><time>2022-03-30T11:50:53Z</time><name>PT2780</name></trkpt>
<trkpt lat="54.497442" lon="-3.241365"><ele>291</ele><time>2022-03-30T11:50:55Z</time><name>PT2781</name></trkpt>
<trkpt lat="54.497450" lon="-3.241374"><ele>291</ele><time>2022-03-30T11:50:55Z</time><name>PT2782</name></trkpt>
<trkpt lat="54.497458" lon="-3.241380"><ele>291</ele><time>2022-03-30T11:50:56Z</time><name>PT2783</name></trkpt>
<trkpt lat="54.497470" lon="-3.241385"><ele>291</ele><time>2022-03-30T11:50:58Z</time><name>PT2784</name></trkpt>
<trkpt lat="54.497476" lon="-3.241391"><ele>291</ele><time>2022-03-30T11:50:58Z</time><name>PT2785</name></trkpt>
<trkpt lat="54.497480" lon="-3.241397"><ele>291</ele><time>2022-03-30T11:50:59Z</time><name>PT2786</name></trkpt>
<trkpt lat="54.497490" lon="-3.241404"><ele>290</ele><time>2022-03-30T11:51:01Z</time><name>PT2787</name></trkpt>
<trkpt lat="54.497502" lon="-3.241416"><ele>290</ele><time>2022-03-30T11:51:01Z</time><name>PT2788</name></trkpt>
<trkpt lat="54.497512" lon="-3.241426"><ele>291</ele><time>2022-03-30T11:51:02Z</time><name>PT2789</name></trkpt>
<trkpt lat="54.497522" lon="-3.241435"><ele>291</ele><time>2022-03-30T11:51:04Z</time><name>PT2790</name></trkpt>
<trkpt lat="54.497529" lon="-3.241444"><ele>290</ele><time>2022-03-30T11:51:04Z</time><name>PT2791</name></trkpt>
<trkpt lat="54.497541" lon="-3.241450"><ele>290</ele><time>2022-03-30T11:51:05Z</time><name>PT2792</name></trkpt>
<trkpt lat="54.497554" lon="-3.241454"><ele>291</ele><time>2022-03-30T11:51:07Z</time><name>PT2793</name></trkpt>
<trkpt lat="54.497568" lon="-3.241459"><ele>290</ele><time>2022-03-30T11:51:07Z</time><name>PT2794</name></trkpt>
<trkpt lat="54.497577" lon="-3.241460"><ele>290</ele><time>2022-03-30T11:51:08Z</time><name>PT2795</name></trkpt>
<trkpt lat="54.497590" lon="-3.241458"><ele>290</ele><time>2022-03-30T11:51:10Z</time><name>PT2796</name></trkpt>
<trkpt lat="54.497601" lon="-3.241453"><ele>290</ele><time>2022-03-30T11:51:10Z</time><name>PT2797</name></trkpt>
<trkpt lat="54.497612" lon="-3.241450"><ele>290</ele><time>2022-03-30T11:51:11Z</time><name>PT2798</name></trkpt>
<trkpt lat="54.497623" lon="-3.241447"><ele>290</ele><time>2022-03-30T11:51:13Z</time><name>PT2799</name></trkpt>
<trkpt lat="54.497632" lon="-3.241445"><ele>290</ele><time>2022-03-30T11:51:13Z</time><name>PT2800</name></trkpt>
<trkpt lat="54.497642" lon="-3.241446"><ele>290</ele><time>2022-03-30T11:51:14Z</time><name>PT2801</name></trkpt>
<trkpt lat="54.497648" lon="-3.241449"><ele>289</ele><time>2022-03-30T11:51:16Z</time><name>PT2802</name></trkpt>
<trkpt lat="54.497657" lon="-3.241454"><ele>289</ele><time>2022-03-30T11:51:16Z</time><name>PT2803</name></trkpt>
<trkpt lat="54.497665" lon="-3.241453"><ele>289</ele><time>2022-03-30T11:51:17Z</time><name>PT2804</name></trkpt>
<trkpt lat="54.497677" lon="-3.241447"><ele>289</ele><time>2022-03-30T11:51:18Z</time><name>PT2805</name></trkpt>
<trkpt lat="54.497686" lon="-3.241442"><ele>288</ele><time>2022-03-30T11:51:19Z</time><name>PT2806</name></trkpt>
<trkpt lat="54.497698" lon="-3.241442"><ele>288</ele><time>2022-03-30T11:51:20Z</time><name>PT2807</name></trkpt>
<trkpt lat="54.497710" lon="-3.241448"><ele>288</ele><time>2022-03-30T11:51:22Z</time><name>PT2808</name></trkpt>
<trkpt lat="54.497722" lon="-3.241455"><ele>288</ele><time>2022-03-30T11:51:22Z</time><name>PT2809</name></trkpt>
<trkpt lat="54.497732" lon="-3.241460"><ele>288</ele><time>2022-03-30T11:51:23Z</time><name>PT2810</name></trkpt>
<trkpt lat="54.497744" lon="-3.241464"><ele>288</ele><time>2022-03-30T11:51:25Z</time><name>PT2811</name></trkpt>
<trkpt lat="54.497756" lon="-3.241467"><ele>288</ele><time>2022-03-30T11:51:25Z</time><name>PT2812</name></trkpt>
<trkpt lat="54.497766" lon="-3.241469"><ele>288</ele><time>2022-03-30T11:51:26Z</time><name>PT2813</name></trkpt>
<trkpt lat="54.497774" lon="-3.241463"><ele>288</ele><time>2022-03-30T11:51:28Z</time><name>PT2814</name></trkpt>
<trkpt lat="54.497780" lon="-3.241448"><ele>288</ele><time>2022-03-30T11:51:28Z</time><name>PT2815</name></trkpt>
<trkpt lat="54.497787" lon="-3.241430"><ele>288</ele><time>2022-03-30T11:51:29Z</time><name>PT2816</name></trkpt>
<trkpt lat="54.497793" lon="-3.241411"><ele>288</ele><time>2022-03-30T11:51:31Z</time><name>PT2817</name></trkpt>
<trkpt lat="54.497800" lon="-3.241392"><ele>288</ele><time>2022-03-30T11:51:31Z</time><name>PT2818</name></trkpt>
<trkpt lat="54.497807" lon="-3.241375"><ele>288</ele><time>2022-03-30T11:51:32Z</time><name>PT2819</name></trkpt>
<trkpt lat="54.497811" lon="-3.241357"><ele>287</ele><time>2022-03-30T11:51:34Z</time><name>PT2820</name></trkpt>
<trkpt lat="54.497815" lon="-3.241341"><ele>286</ele><time>2022-03-30T11:51:34Z</time><name>PT2821</name></trkpt>
<trkpt lat="54.497822" lon="-3.241327"><ele>286</ele><time>2022-03-30T11:51:35Z</time><name>PT2822</name></trkpt>
<trkpt lat="54.497845" lon="-3.241290"><ele>286</ele><time>2022-03-30T11:51:40Z</time><name>PT2823</name></trkpt>
<trkpt lat="54.497848" lon="-3.241286"><ele>286</ele><time>2022-03-30T11:51:43Z</time><name>PT2824</name></trkpt>
<trkpt lat="54.497847" lon="-3.241287"><ele>285</ele><time>2022-03-30T11:54:16Z</time><name>PT2825</name></trkpt>
<trkpt lat="54.497856" lon="-3.241286"><ele>286</ele><time>2022-03-30T11:54:16Z</time><name>PT2826</name></trkpt>
<trkpt lat="54.497866" lon="-3.241285"><ele>286</ele><time>2022-03-30T11:54:17Z</time><name>PT2827</name></trkpt>
<trkpt lat="54.497879" lon="-3.241287"><ele>286</ele><time>2022-03-30T11:54:19Z</time><name>PT2828</name></trkpt>
<trkpt lat="54.497890" lon="-3.241292"><ele>286</ele><time>2022-03-30T11:54:19Z</time><name>PT2829</name></trkpt>
<trkpt lat="54.497903" lon="-3.241302"><ele>286</ele><time>2022-03-30T11:54:20Z</time><name>PT2830</name></trkpt>
<trkpt lat="54.497915" lon="-3.241307"><ele>285</ele><time>2022-03-30T11:54:22Z</time><name>PT2831</name></trkpt>
<trkpt lat="54.497929" lon="-3.241310"><ele>285</ele><time>2022-03-30T11:54:22Z</time><name>PT2832</name></trkpt>
<trkpt lat="54.497942" lon="-3.241307"><ele>285</ele><time>2022-03-30T11:54:23Z</time><name>PT2833</name></trkpt>
<trkpt lat="54.497952" lon="-3.241309"><ele>286</ele><time>2022-03-30T11:54:25Z</time><name>PT2834</name></trkpt>
<trkpt lat="54.497965" lon="-3.241315"><ele>286</ele><time>2022-03-30T11:54:25Z</time><name>PT2835</name></trkpt>
<trkpt lat="54.497977" lon="-3.241319"><ele>286</ele><time>2022-03-30T11:54:26Z</time><name>PT2836</name></trkpt>
<trkpt lat="54.497988" lon="-3.241323"><ele>286</ele><time>2022-03-30T11:54:28Z</time><name>PT2837</name></trkpt>
<trkpt lat="54.498001" lon="-3.241327"><ele>287</ele><time>2022-03-30T11:54:28Z</time><name>PT2838</name></trkpt>
<trkpt lat="54.498008" lon="-3.241337"><ele>287</ele><time>2022-03-30T11:54:29Z</time><name>PT2839</name></trkpt>
<trkpt lat="54.498016" lon="-3.241341"><ele>287</ele><time>2022-03-30T11:54:30Z</time><name>PT2840</name></trkpt>
<trkpt lat="54.498025" lon="-3.241344"><ele>287</ele><time>2022-03-30T11:54:31Z</time><name>PT2841</name></trkpt>
<trkpt lat="54.498035" lon="-3.241346"><ele>287</ele><time>2022-03-30T11:54:32Z</time><name>PT2842</name></trkpt>
<trkpt lat="54.498045" lon="-3.241348"><ele>287</ele><time>2022-03-30T11:54:34Z</time><name>PT2843</name></trkpt>
<trkpt lat="54.498054" lon="-3.241358"><ele>287</ele><time>2022-03-30T11:54:34Z</time><name>PT2844</name></trkpt>
<trkpt lat="54.498060" lon="-3.241370"><ele>287</ele><time>2022-03-30T11:54:35Z</time><name>PT2845</name></trkpt>
<trkpt lat="54.498069" lon="-3.241371"><ele>288</ele><time>2022-03-30T11:54:37Z</time><name>PT2846</name></trkpt>
<trkpt lat="54.498074" lon="-3.241369"><ele>288</ele><time>2022-03-30T11:54:37Z</time><name>PT2847</name></trkpt>
<trkpt lat="54.498087" lon="-3.241356"><ele>288</ele><time>2022-03-30T11:54:38Z</time><name>PT2848</name></trkpt>
<trkpt lat="54.498091" lon="-3.241343"><ele>288</ele><time>2022-03-30T11:54:39Z</time><name>PT2849</name></trkpt>
<trkpt lat="54.498094" lon="-3.241326"><ele>287</ele><time>2022-03-30T11:54:40Z</time><name>PT2850</name></trkpt>
<trkpt lat="54.498096" lon="-3.241309"><ele>287</ele><time>2022-03-30T11:54:41Z</time><name>PT2851</name></trkpt>
<trkpt lat="54.498096" lon="-3.241292"><ele>288</ele><time>2022-03-30T11:54:42Z</time><name>PT2852</name></trkpt>
<trkpt lat="54.498094" lon="-3.241272"><ele>288</ele><time>2022-03-30T11:54:43Z</time><name>PT2853</name></trkpt>
<trkpt lat="54.498093" lon="-3.241254"><ele>288</ele><time>2022-03-30T11:54:44Z</time><name>PT2854</name></trkpt>
<trkpt lat="54.498089" lon="-3.241234"><ele>288</ele><time>2022-03-30T11:54:46Z</time><name>PT2855</name></trkpt>
<trkpt lat="54.498085" lon="-3.241212"><ele>288</ele><time>2022-03-30T11:54:46Z</time><name>PT2856</name></trkpt>
<trkpt lat="54.498084" lon="-3.241193"><ele>288</ele><time>2022-03-30T11:54:47Z</time><name>PT2857</name></trkpt>
<trkpt lat="54.498082" lon="-3.241173"><ele>289</ele><time>2022-03-30T11:54:48Z</time><name>PT2858</name></trkpt>
<trkpt lat="54.498082" lon="-3.241151"><ele>288</ele><time>2022-03-30T11:54:49Z</time><name>PT2859</name></trkpt>
<trkpt lat="54.498082" lon="-3.241132"><ele>287</ele><time>2022-03-30T11:54:50Z</time><name>PT2860</name></trkpt>
<trkpt lat="54.498080" lon="-3.241115"><ele>287</ele><time>2022-03-30T11:54:51Z</time><name>PT2861</name></trkpt>
<trkpt lat="54.498078" lon="-3.241097"><ele>287</ele><time>2022-03-30T11:54:52Z</time><name>PT2862</name></trkpt>
<trkpt lat="54.498078" lon="-3.241078"><ele>286</ele><time>2022-03-30T11:54:53Z</time><name>PT2863</name></trkpt>
<trkpt lat="54.498077" lon="-3.241062"><ele>286</ele><time>2022-03-30T11:54:55Z</time><name>PT2864</name></trkpt>
<trkpt lat="54.498078" lon="-3.241044"><ele>287</ele><time>2022-03-30T11:54:55Z</time><name>PT2865</name></trkpt>
<trkpt lat="54.498075" lon="-3.241028"><ele>287</ele><time>2022-03-30T11:54:56Z</time><name>PT2866</name></trkpt>
<trkpt lat="54.498073" lon="-3.241014"><ele>287</ele><time>2022-03-30T11:54:57Z</time><name>PT2867</name></trkpt>
<trkpt lat="54.498068" lon="-3.241002"><ele>286</ele><time>2022-03-30T11:54:58Z</time><name>PT2868</name></trkpt>
<trkpt lat="54.498063" lon="-3.240990"><ele>286</ele><time>2022-03-30T11:54:59Z</time><name>PT2869</name></trkpt>
<trkpt lat="54.498056" lon="-3.240977"><ele>287</ele><time>2022-03-30T11:55:01Z</time><name>PT2870</name></trkpt>
<trkpt lat="54.498047" lon="-3.240962"><ele>287</ele><time>2022-03-30T11:55:01Z</time><name>PT2871</name></trkpt>
<trkpt lat="54.498043" lon="-3.240943"><ele>287</ele><time>2022-03-30T11:55:02Z</time><name>PT2872</name></trkpt>
<trkpt lat="54.498038" lon="-3.240927"><ele>287</ele><time>2022-03-30T11:55:04Z</time><name>PT2873</name></trkpt>
<trkpt lat="54.498039" lon="-3.240908"><ele>286</ele><time>2022-03-30T11:55:04Z</time><name>PT2874</name></trkpt>
<trkpt lat="54.498038" lon="-3.240888"><ele>286</ele><time>2022-03-30T11:55:05Z</time><name>PT2875</name></trkpt>
<trkpt lat="54.498041" lon="-3.240868"><ele>286</ele><time>2022-03-30T11:55:07Z</time><name>PT2876</name></trkpt>
<trkpt lat="54.498044" lon="-3.240854"><ele>285</ele><time>2022-03-30T11:55:07Z</time><name>PT2877</name></trkpt>
<trkpt lat="54.498051" lon="-3.240844"><ele>285</ele><time>2022-03-30T11:55:08Z</time><name>PT2878</name></trkpt>
<trkpt lat="54.498061" lon="-3.240837"><ele>285</ele><time>2022-03-30T11:55:09Z</time><name>PT2879</name></trkpt>
<trkpt lat="54.498068" lon="-3.240829"><ele>285</ele><time>2022-03-30T11:55:10Z</time><name>PT2880</name></trkpt>
<trkpt lat="54.498075" lon="-3.240818"><ele>285</ele><time>2022-03-30T11:55:11Z</time><name>PT2881</name></trkpt>
<trkpt lat="54.498079" lon="-3.240802"><ele>285</ele><time>2022-03-30T11:55:13Z</time><name>PT2882</name></trkpt>
<trkpt lat="54.498087" lon="-3.240787"><ele>285</ele><time>2022-03-30T11:55:13Z</time><name>PT2883</name></trkpt>
<trkpt lat="54.498094" lon="-3.240772"><ele>284</ele><time>2022-03-30T11:55:14Z</time><name>PT2884</name></trkpt>
<trkpt lat="54.498104" lon="-3.240754"><ele>285</ele><time>2022-03-30T11:55:15Z</time><name>PT2885</name></trkpt>
<trkpt lat="54.498110" lon="-3.240744"><ele>285</ele><time>2022-03-30T11:55:16Z</time><name>PT2886</name></trkpt>
<trkpt lat="54.498116" lon="-3.240731"><ele>285</ele><time>2022-03-30T11:55:17Z</time><name>PT2887</name></trkpt>
<trkpt lat="54.498126" lon="-3.240720"><ele>285</ele><time>2022-03-30T11:55:19Z</time><name>PT2888</name></trkpt>
<trkpt lat="54.498136" lon="-3.240709"><ele>285</ele><time>2022-03-30T11:55:19Z</time><name>PT2889</name></trkpt>
<trkpt lat="54.498142" lon="-3.240699"><ele>285</ele><time>2022-03-30T11:55:20Z</time><name>PT2890</name></trkpt>
<trkpt lat="54.498150" lon="-3.240686"><ele>285</ele><time>2022-03-30T11:55:22Z</time><name>PT2891</name></trkpt>
<trkpt lat="54.498155" lon="-3.240673"><ele>285</ele><time>2022-03-30T11:55:22Z</time><name>PT2892</name></trkpt>
<trkpt lat="54.498158" lon="-3.240659"><ele>285</ele><time>2022-03-30T11:55:23Z</time><name>PT2893</name></trkpt>
<trkpt lat="54.498157" lon="-3.240642"><ele>285</ele><time>2022-03-30T11:55:25Z</time><name>PT2894</name></trkpt>
<trkpt lat="54.498159" lon="-3.240623"><ele>284</ele><time>2022-03-30T11:55:25Z</time><name>PT2895</name></trkpt>
<trkpt lat="54.498160" lon="-3.240607"><ele>283</ele><time>2022-03-30T11:55:26Z</time><name>PT2896</name></trkpt>
<trkpt lat="54.498159" lon="-3.240590"><ele>284</ele><time>2022-03-30T11:55:27Z</time><name>PT2897</name></trkpt>
<trkpt lat="54.498160" lon="-3.240576"><ele>284</ele><time>2022-03-30T11:55:28Z</time><name>PT2898</name></trkpt>
<trkpt lat="54.498161" lon="-3.240564"><ele>284</ele><time>2022-03-30T11:55:29Z</time><name>PT2899</name></trkpt>
<trkpt lat="54.498161" lon="-3.240555"><ele>284</ele><time>2022-03-30T11:55:31Z</time><name>PT2900</name></trkpt>
<trkpt lat="54.498162" lon="-3.240546"><ele>285</ele><time>2022-03-30T11:55:31Z</time><name>PT2901</name></trkpt>
<trkpt lat="54.498166" lon="-3.240535"><ele>285</ele><time>2022-03-30T11:55:32Z</time><name>PT2902</name></trkpt>
<trkpt lat="54.498171" lon="-3.240527"><ele>285</ele><time>2022-03-30T11:55:33Z</time><name>PT2903</name></trkpt>
<trkpt lat="54.498174" lon="-3.240518"><ele>285</ele><time>2022-03-30T11:55:34Z</time><name>PT2904</name></trkpt>
<trkpt lat="54.498174" lon="-3.240511"><ele>285</ele><time>2022-03-30T11:55:35Z</time><name>PT2905</name></trkpt>
<trkpt lat="54.498181" lon="-3.240502"><ele>286</ele><time>2022-03-30T11:55:37Z</time><name>PT2906</name></trkpt>
<trkpt lat="54.498182" lon="-3.240491"><ele>286</ele><time>2022-03-30T11:55:37Z</time><name>PT2907</name></trkpt>
<trkpt lat="54.498180" lon="-3.240480"><ele>286</ele><time>2022-03-30T11:55:38Z</time><name>PT2908</name></trkpt>
<trkpt lat="54.498180" lon="-3.240468"><ele>286</ele><time>2022-03-30T11:55:39Z</time><name>PT2909</name></trkpt>
<trkpt lat="54.498184" lon="-3.240449"><ele>287</ele><time>2022-03-30T11:55:40Z</time><name>PT2910</name></trkpt>
<trkpt lat="54.498185" lon="-3.240435"><ele>287</ele><time>2022-03-30T11:55:41Z</time><name>PT2911</name></trkpt>
<trkpt lat="54.498182" lon="-3.240418"><ele>287</ele><time>2022-03-30T11:55:43Z</time><name>PT2912</name></trkpt>
<trkpt lat="54.498177" lon="-3.240403"><ele>288</ele><time>2022-03-30T11:55:43Z</time><name>PT2913</name></trkpt>
<trkpt lat="54.498170" lon="-3.240393"><ele>287</ele><time>2022-03-30T11:55:44Z</time><name>PT2914</name></trkpt>
<trkpt lat="54.498167" lon="-3.240386"><ele>287</ele><time>2022-03-30T11:55:45Z</time><name>PT2915</name></trkpt>
<trkpt lat="54.498158" lon="-3.240374"><ele>288</ele><time>2022-03-30T11:55:46Z</time><name>PT2916</name></trkpt>
<trkpt lat="54.498152" lon="-3.240365"><ele>288</ele><time>2022-03-30T11:55:47Z</time><name>PT2917</name></trkpt>
<trkpt lat="54.498149" lon="-3.240353"><ele>289</ele><time>2022-03-30T11:55:49Z</time><name>PT2918</name></trkpt>
<trkpt lat="54.498145" lon="-3.240340"><ele>289</ele><time>2022-03-30T11:55:49Z</time><name>PT2919</name></trkpt>
<trkpt lat="54.498146" lon="-3.240331"><ele>289</ele><time>2022-03-30T11:55:50Z</time><name>PT2920</name></trkpt>
<trkpt lat="54.498147" lon="-3.240327"><ele>288</ele><time>2022-03-30T11:55:51Z</time><name>PT2921</name></trkpt>
<trkpt lat="54.498145" lon="-3.240328"><ele>288</ele><time>2022-03-30T11:55:52Z</time><name>PT2922</name></trkpt>
<trkpt lat="54.498144" lon="-3.240328"><ele>288</ele><time>2022-03-30T11:55:53Z</time><name>PT2923</name></trkpt>
<trkpt lat="54.498144" lon="-3.240328"><ele>288</ele><time>2022-03-30T11:55:54Z</time><name>PT2924</name></trkpt>
<trkpt lat="54.498148" lon="-3.240330"><ele>287</ele><time>2022-03-30T11:56:01Z</time><name>PT2925</name></trkpt>
<trkpt lat="54.498152" lon="-3.240333"><ele>287</ele><time>2022-03-30T11:56:02Z</time><name>PT2926</name></trkpt>
<trkpt lat="54.498151" lon="-3.240328"><ele>287</ele><time>2022-03-30T11:56:03Z</time><name>PT2927</name></trkpt>
<trkpt lat="54.498151" lon="-3.240331"><ele>287</ele><time>2022-03-30T11:56:05Z</time><name>PT2928</name></trkpt>
<trkpt lat="54.498150" lon="-3.240331"><ele>288</ele><time>2022-03-30T11:56:07Z</time><name>PT2929</name></trkpt>
<trkpt lat="54.498148" lon="-3.240328"><ele>288</ele><time>2022-03-30T11:56:07Z</time><name>PT2930</name></trkpt>
<trkpt lat="54.498152" lon="-3.240322"><ele>288</ele><time>2022-03-30T11:56:40Z</time><name>PT2931</name></trkpt>
<trkpt lat="54.498149" lon="-3.240321"><ele>288</ele><time>2022-03-30T11:56:40Z</time><name>PT2932</name></trkpt>
<trkpt lat="54.498147" lon="-3.240306"><ele>288</ele><time>2022-03-30T11:56:41Z</time><name>PT2933</name></trkpt>
<trkpt lat="54.498145" lon="-3.240290"><ele>288</ele><time>2022-03-30T11:56:43Z</time><name>PT2934</name></trkpt>
<trkpt lat="54.498146" lon="-3.240292"><ele>288</ele><time>2022-03-30T11:56:43Z</time><name>PT2935</name></trkpt>
<trkpt lat="54.498142" lon="-3.240279"><ele>288</ele><time>2022-03-30T11:56:44Z</time><name>PT2936</name></trkpt>
<trkpt lat="54.498141" lon="-3.240264"><ele>289</ele><time>2022-03-30T11:56:46Z</time><name>PT2937</name></trkpt>
<trkpt lat="54.498137" lon="-3.240248"><ele>288</ele><time>2022-03-30T11:56:46Z</time><name>PT2938</name></trkpt>
<trkpt lat="54.498133" lon="-3.240235"><ele>288</ele><time>2022-03-30T11:56:47Z</time><name>PT2939</name></trkpt>
<trkpt lat="54.498127" lon="-3.240221"><ele>288</ele><time>2022-03-30T11:56:48Z</time><name>PT2940</name></trkpt>
<trkpt lat="54.498128" lon="-3.240200"><ele>288</ele><time>2022-03-30T11:56:49Z</time><name>PT2941</name></trkpt>
<trkpt lat="54.498125" lon="-3.240187"><ele>288</ele><time>2022-03-30T11:56:50Z</time><name>PT2942</name></trkpt>
<trkpt lat="54.498128" lon="-3.240178"><ele>288</ele><time>2022-03-30T11:56:52Z</time><name>PT2943</name></trkpt>
<trkpt lat="54.498129" lon="-3.240178"><ele>288</ele><time>2022-03-30T11:56:52Z</time><name>PT2944</name></trkpt>
<trkpt lat="54.498128" lon="-3.240175"><ele>288</ele><time>2022-03-30T11:56:53Z</time><name>PT2945</name></trkpt>
<trkpt lat="54.498123" lon="-3.240164"><ele>288</ele><time>2022-03-30T11:56:54Z</time><name>PT2946</name></trkpt>
<trkpt lat="54.498119" lon="-3.240147"><ele>288</ele><time>2022-03-30T11:56:55Z</time><name>PT2947</name></trkpt>
<trkpt lat="54.498119" lon="-3.240136"><ele>288</ele><time>2022-03-30T11:56:56Z</time><name>PT2948</name></trkpt>
<trkpt lat="54.498115" lon="-3.240121"><ele>288</ele><time>2022-03-30T11:56:57Z</time><name>PT2949</name></trkpt>
<trkpt lat="54.498107" lon="-3.240107"><ele>287</ele><time>2022-03-30T11:56:58Z</time><name>PT2950</name></trkpt>
<trkpt lat="54.498097" lon="-3.240091"><ele>287</ele><time>2022-03-30T11:56:59Z</time><name>PT2951</name></trkpt>
<trkpt lat="54.498088" lon="-3.240076"><ele>287</ele><time>2022-03-30T11:57:01Z</time><name>PT2952</name></trkpt>
<trkpt lat="54.498079" lon="-3.240061"><ele>287</ele><time>2022-03-30T11:57:01Z</time><name>PT2953</name></trkpt>
<trkpt lat="54.498071" lon="-3.240047"><ele>286</ele><time>2022-03-30T11:57:02Z</time><name>PT2954</name></trkpt>
<trkpt lat="54.498062" lon="-3.240031"><ele>287</ele><time>2022-03-30T11:57:03Z</time><name>PT2955</name></trkpt>
<trkpt lat="54.498053" lon="-3.240017"><ele>286</ele><time>2022-03-30T11:57:04Z</time><name>PT2956</name></trkpt>
<trkpt lat="54.498047" lon="-3.240004"><ele>286</ele><time>2022-03-30T11:57:05Z</time><name>PT2957</name></trkpt>
<trkpt lat="54.498039" lon="-3.239991"><ele>287</ele><time>2022-03-30T11:57:06Z</time><name>PT2958</name></trkpt>
<trkpt lat="54.498035" lon="-3.239974"><ele>287</ele><time>2022-03-30T11:57:07Z</time><name>PT2959</name></trkpt>
<trkpt lat="54.498032" lon="-3.239957"><ele>287</ele><time>2022-03-30T11:57:08Z</time><name>PT2960</name></trkpt>
<trkpt lat="54.498029" lon="-3.239941"><ele>287</ele><time>2022-03-30T11:57:09Z</time><name>PT2961</name></trkpt>
<trkpt lat="54.498025" lon="-3.239925"><ele>286</ele><time>2022-03-30T11:57:10Z</time><name>PT2962</name></trkpt>
<trkpt lat="54.498024" lon="-3.239907"><ele>285</ele><time>2022-03-30T11:57:11Z</time><name>PT2963</name></trkpt>
<trkpt lat="54.498020" lon="-3.239891"><ele>286</ele><time>2022-03-30T11:57:12Z</time><name>PT2964</name></trkpt>
<trkpt lat="54.498017" lon="-3.239878"><ele>286</ele><time>2022-03-30T11:57:13Z</time><name>PT2965</name></trkpt>
<trkpt lat="54.498011" lon="-3.239862"><ele>286</ele><time>2022-03-30T11:57:14Z</time><name>PT2966</name></trkpt>
<trkpt lat="54.498005" lon="-3.239849"><ele>286</ele><time>2022-03-30T11:57:16Z</time><name>PT2967</name></trkpt>
<trkpt lat="54.497997" lon="-3.239838"><ele>285</ele><time>2022-03-30T11:57:16Z</time><name>PT2968</name></trkpt>
<trkpt lat="54.497986" lon="-3.239823"><ele>285</ele><time>2022-03-30T11:57:17Z</time><name>PT2969</name></trkpt>
<trkpt lat="54.497976" lon="-3.239811"><ele>285</ele><time>2022-03-30T11:57:19Z</time><name>PT2970</name></trkpt>
<trkpt lat="54.497970" lon="-3.239806"><ele>285</ele><time>2022-03-30T11:57:19Z</time><name>PT2971</name></trkpt>
<trkpt lat="54.497956" lon="-3.239800"><ele>285</ele><time>2022-03-30T11:57:20Z</time><name>PT2972</name></trkpt>
<trkpt lat="54.497947" lon="-3.239799"><ele>285</ele><time>2022-03-30T11:57:21Z</time><name>PT2973</name></trkpt>
<trkpt lat="54.497936" lon="-3.239796"><ele>285</ele><time>2022-03-30T11:57:22Z</time><name>PT2974</name></trkpt>
<trkpt lat="54.497922" lon="-3.239791"><ele>284</ele><time>2022-03-30T11:57:23Z</time><name>PT2975</name></trkpt>
<trkpt lat="54.497912" lon="-3.239784"><ele>284</ele><time>2022-03-30T11:57:25Z</time><name>PT2976</name></trkpt>
<trkpt lat="54.497905" lon="-3.239771"><ele>284</ele><time>2022-03-30T11:57:25Z</time><name>PT2977</name></trkpt>
<trkpt lat="54.497898" lon="-3.239751"><ele>284</ele><time>2022-03-30T11:57:26Z</time><name>PT2978</name></trkpt>
<trkpt lat="54.497893" lon="-3.239733"><ele>284</ele><time>2022-03-30T11:57:28Z</time><name>PT2979</name></trkpt>
<trkpt lat="54.497891" lon="-3.239712"><ele>284</ele><time>2022-03-30T11:57:28Z</time><name>PT2980</name></trkpt>
<trkpt lat="54.497889" lon="-3.239692"><ele>284</ele><time>2022-03-30T11:57:29Z</time><name>PT2981</name></trkpt>
<trkpt lat="54.497888" lon="-3.239675"><ele>284</ele><time>2022-03-30T11:57:31Z</time><name>PT2982</name></trkpt>
<trkpt lat="54.497888" lon="-3.239656"><ele>284</ele><time>2022-03-30T11:57:31Z</time><name>PT2983</name></trkpt>
<trkpt lat="54.497888" lon="-3.239641"><ele>284</ele><time>2022-03-30T11:57:32Z</time><name>PT2984</name></trkpt>
<trkpt lat="54.497889" lon="-3.239624"><ele>285</ele><time>2022-03-30T11:57:34Z</time><name>PT2985</name></trkpt>
<trkpt lat="54.497893" lon="-3.239610"><ele>285</ele><time>2022-03-30T11:57:34Z</time><name>PT2986</name></trkpt>
<trkpt lat="54.497897" lon="-3.239598"><ele>286</ele><time>2022-03-30T11:57:35Z</time><name>PT2987</name></trkpt>
<trkpt lat="54.497903" lon="-3.239582"><ele>286</ele><time>2022-03-30T11:57:36Z</time><name>PT2988</name></trkpt>
<trkpt lat="54.497908" lon="-3.239569"><ele>286</ele><time>2022-03-30T11:57:37Z</time><name>PT2989</name></trkpt>
<trkpt lat="54.497912" lon="-3.239557"><ele>286</ele><time>2022-03-30T11:57:38Z</time><name>PT2990</name></trkpt>
<trkpt lat="54.497916" lon="-3.239547"><ele>287</ele><time>2022-03-30T11:57:40Z</time><name>PT2991</name></trkpt>
<trkpt lat="54.497922" lon="-3.239535"><ele>288</ele><time>2022-03-30T11:57:40Z</time><name>PT2992</name></trkpt>
<trkpt lat="54.497930" lon="-3.239521"><ele>289</ele><time>2022-03-30T11:57:41Z</time><name>PT2993</name></trkpt>
<trkpt lat="54.497938" lon="-3.239510"><ele>290</ele><time>2022-03-30T11:57:43Z</time><name>PT2994</name></trkpt>
<trkpt lat="54.497946" lon="-3.239502"><ele>289</ele><time>2022-03-30T11:57:43Z</time><name>PT2995</name></trkpt>
<trkpt lat="54.497953" lon="-3.239489"><ele>289</ele><time>2022-03-30T11:57:44Z</time><name>PT2996</name></trkpt>
<trkpt lat="54.497958" lon="-3.239478"><ele>289</ele><time>2022-03-30T11:57:46Z</time><name>PT2997</name></trkpt>
<trkpt lat="54.497963" lon="-3.239466"><ele>288</ele><time>2022-03-30T11:57:46Z</time><name>PT2998</name></trkpt>
<trkpt lat="54.497963" lon="-3.239450"><ele>289</ele><time>2022-03-30T11:57:47Z</time><name>PT2999</name></trkpt>
<trkpt lat="54.497962" lon="-3.239434"><ele>288</ele><time>2022-03-30T11:57:48Z</time><name>PT3000</name></trkpt>
<trkpt lat="54.497961" lon="-3.239417"><ele>288</ele><time>2022-03-30T11:57:49Z</time><name>PT3001</name></trkpt>
<trkpt lat="54.497960" lon="-3.239400"><ele>287</ele><time>2022-03-30T11:57:50Z</time><name>PT3002</name></trkpt>
<trkpt lat="54.497955" lon="-3.239385"><ele>287</ele><time>2022-03-30T11:57:52Z</time><name>PT3003</name></trkpt>
<trkpt lat="54.497952" lon="-3.239369"><ele>287</ele><time>2022-03-30T11:57:52Z</time><name>PT3004</name></trkpt>
<trkpt lat="54.497950" lon="-3.239352"><ele>287</ele><time>2022-03-30T11:57:53Z</time><name>PT3005</name></trkpt>
<trkpt lat="54.497950" lon="-3.239333"><ele>286</ele><time>2022-03-30T11:57:55Z</time><name>PT3006</name></trkpt>
<trkpt lat="54.497950" lon="-3.239318"><ele>286</ele><time>2022-03-30T11:57:55Z</time><name>PT3007</name></trkpt>
<trkpt lat="54.497948" lon="-3.239302"><ele>285</ele><time>2022-03-30T11:57:56Z</time><name>PT3008</name></trkpt>
<trkpt lat="54.497950" lon="-3.239288"><ele>285</ele><time>2022-03-30T11:57:58Z</time><name>PT3009</name></trkpt>
<trkpt lat="54.497954" lon="-3.239275"><ele>286</ele><time>2022-03-30T11:57:58Z</time><name>PT3010</name></trkpt>
<trkpt lat="54.497958" lon="-3.239264"><ele>286</ele><time>2022-03-30T11:57:59Z</time><name>PT3011</name></trkpt>
<trkpt lat="54.497963" lon="-3.239254"><ele>286</ele><time>2022-03-30T11:58:00Z</time><name>PT3012</name></trkpt>
<trkpt lat="54.497967" lon="-3.239242"><ele>287</ele><time>2022-03-30T11:58:01Z</time><name>PT3013</name></trkpt>
<trkpt lat="54.497974" lon="-3.239234"><ele>287</ele><time>2022-03-30T11:58:02Z</time><name>PT3014</name></trkpt>
<trkpt lat="54.497978" lon="-3.239224"><ele>287</ele><time>2022-03-30T11:58:04Z</time><name>PT3015</name></trkpt>
<trkpt lat="54.497981" lon="-3.239218"><ele>286</ele><time>2022-03-30T11:58:04Z</time><name>PT3016</name></trkpt>
<trkpt lat="54.497981" lon="-3.239204"><ele>286</ele><time>2022-03-30T11:58:05Z</time><name>PT3017</name></trkpt>
<trkpt lat="54.497982" lon="-3.239193"><ele>286</ele><time>2022-03-30T11:58:07Z</time><name>PT3018</name></trkpt>
<trkpt lat="54.497980" lon="-3.239182"><ele>286</ele><time>2022-03-30T11:58:07Z</time><name>PT3019</name></trkpt>
<trkpt lat="54.497979" lon="-3.239172"><ele>286</ele><time>2022-03-30T11:58:08Z</time><name>PT3020</name></trkpt>
<trkpt lat="54.497976" lon="-3.239159"><ele>286</ele><time>2022-03-30T11:58:09Z</time><name>PT3021</name></trkpt>
<trkpt lat="54.497973" lon="-3.239148"><ele>287</ele><time>2022-03-30T11:58:10Z</time><name>PT3022</name></trkpt>
<trkpt lat="54.497971" lon="-3.239137"><ele>287</ele><time>2022-03-30T11:58:11Z</time><name>PT3023</name></trkpt>
<trkpt lat="54.497967" lon="-3.239126"><ele>287</ele><time>2022-03-30T11:58:13Z</time><name>PT3024</name></trkpt>
<trkpt lat="54.497965" lon="-3.239118"><ele>287</ele><time>2022-03-30T11:58:13Z</time><name>PT3025</name></trkpt>
<trkpt lat="54.497962" lon="-3.239108"><ele>287</ele><time>2022-03-30T11:58:14Z</time><name>PT3026</name></trkpt>
<trkpt lat="54.497961" lon="-3.239098"><ele>287</ele><time>2022-03-30T11:58:16Z</time><name>PT3027</name></trkpt>
<trkpt lat="54.497960" lon="-3.239083"><ele>287</ele><time>2022-03-30T11:58:16Z</time><name>PT3028</name></trkpt>
<trkpt lat="54.497957" lon="-3.239071"><ele>287</ele><time>2022-03-30T11:58:17Z</time><name>PT3029</name></trkpt>
<trkpt lat="54.497955" lon="-3.239063"><ele>288</ele><time>2022-03-30T11:58:19Z</time><name>PT3030</name></trkpt>
<trkpt lat="54.497951" lon="-3.239050"><ele>288</ele><time>2022-03-30T11:58:19Z</time><name>PT3031</name></trkpt>
<trkpt lat="54.497948" lon="-3.239037"><ele>288</ele><time>2022-03-30T11:58:20Z</time><name>PT3032</name></trkpt>
<trkpt lat="54.497943" lon="-3.239021"><ele>289</ele><time>2022-03-30T11:58:22Z</time><name>PT3033</name></trkpt>
<trkpt lat="54.497942" lon="-3.239012"><ele>288</ele><time>2022-03-30T11:58:22Z</time><name>PT3034</name></trkpt>
<trkpt lat="54.497938" lon="-3.239000"><ele>288</ele><time>2022-03-30T11:58:23Z</time><name>PT3035</name></trkpt>
<trkpt lat="54.497936" lon="-3.238992"><ele>288</ele><time>2022-03-30T11:58:25Z</time><name>PT3036</name></trkpt>
<trkpt lat="54.497936" lon="-3.238984"><ele>288</ele><time>2022-03-30T11:58:25Z</time><name>PT3037</name></trkpt>
<trkpt lat="54.497932" lon="-3.238969"><ele>288</ele><time>2022-03-30T11:58:26Z</time><name>PT3038</name></trkpt>
<trkpt lat="54.497928" lon="-3.238954"><ele>288</ele><time>2022-03-30T11:58:28Z</time><name>PT3039</name></trkpt>
<trkpt lat="54.497924" lon="-3.238934"><ele>290</ele><time>2022-03-30T11:58:28Z</time><name>PT3040</name></trkpt>
<trkpt lat="54.497922" lon="-3.238918"><ele>291</ele><time>2022-03-30T11:58:29Z</time><name>PT3041</name></trkpt>
<trkpt lat="54.497918" lon="-3.238903"><ele>290</ele><time>2022-03-30T11:58:31Z</time><name>PT3042</name></trkpt>
<trkpt lat="54.497916" lon="-3.238892"><ele>290</ele><time>2022-03-30T11:58:31Z</time><name>PT3043</name></trkpt>
<trkpt lat="54.497911" lon="-3.238883"><ele>289</ele><time>2022-03-30T11:58:32Z</time><name>PT3044</name></trkpt>
<trkpt lat="54.497903" lon="-3.238867"><ele>289</ele><time>2022-03-30T11:58:34Z</time><name>PT3045</name></trkpt>
<trkpt lat="54.497900" lon="-3.238851"><ele>287</ele><time>2022-03-30T11:58:34Z</time><name>PT3046</name></trkpt>
<trkpt lat="54.497894" lon="-3.238840"><ele>288</ele><time>2022-03-30T11:58:35Z</time><name>PT3047</name></trkpt>
<trkpt lat="54.497887" lon="-3.238821"><ele>288</ele><time>2022-03-30T11:58:37Z</time><name>PT3048</name></trkpt>
<trkpt lat="54.497876" lon="-3.238809"><ele>287</ele><time>2022-03-30T11:58:37Z</time><name>PT3049</name></trkpt>
<trkpt lat="54.497868" lon="-3.238800"><ele>287</ele><time>2022-03-30T11:58:38Z</time><name>PT3050</name></trkpt>
<trkpt lat="54.497859" lon="-3.238790"><ele>287</ele><time>2022-03-30T11:58:40Z</time><name>PT3051</name></trkpt>
<trkpt lat="54.497851" lon="-3.238780"><ele>286</ele><time>2022-03-30T11:58:40Z</time><name>PT3052</name></trkpt>
<trkpt lat="54.497843" lon="-3.238770"><ele>287</ele><time>2022-03-30T11:58:41Z</time><name>PT3053</name></trkpt>
<trkpt lat="54.497838" lon="-3.238758"><ele>287</ele><time>2022-03-30T11:58:43Z</time><name>PT3054</name></trkpt>
<trkpt lat="54.497837" lon="-3.238742"><ele>287</ele><time>2022-03-30T11:58:43Z</time><name>PT3055</name></trkpt>
<trkpt lat="54.497840" lon="-3.238727"><ele>287</ele><time>2022-03-30T11:58:44Z</time><name>PT3056</name></trkpt>
<trkpt lat="54.497838" lon="-3.238716"><ele>288</ele><time>2022-03-30T11:58:46Z</time><name>PT3057</name></trkpt>
<trkpt lat="54.497835" lon="-3.238701"><ele>288</ele><time>2022-03-30T11:58:46Z</time><name>PT3058</name></trkpt>
<trkpt lat="54.497829" lon="-3.238662"><ele>288</ele><time>2022-03-30T11:58:49Z</time><name>PT3059</name></trkpt>
<trkpt lat="54.497818" lon="-3.238626"><ele>288</ele><time>2022-03-30T11:58:52Z</time><name>PT3060</name></trkpt>
<trkpt lat="54.497808" lon="-3.238576"><ele>287</ele><time>2022-03-30T11:58:56Z</time><name>PT3061</name></trkpt>
<trkpt lat="54.497782" lon="-3.238524"><ele>287</ele><time>2022-03-30T11:59:00Z</time><name>PT3062</name></trkpt>
<trkpt lat="54.497759" lon="-3.238490"><ele>288</ele><time>2022-03-30T11:59:04Z</time><name>PT3063</name></trkpt>
<trkpt lat="54.497750" lon="-3.238459"><ele>289</ele><time>2022-03-30T11:59:07Z</time><name>PT3064</name></trkpt>
<trkpt lat="54.497754" lon="-3.238416"><ele>290</ele><time>2022-03-30T11:59:11Z</time><name>PT3065</name></trkpt>
<trkpt lat="54.497762" lon="-3.238386"><ele>290</ele><time>2022-03-30T11:59:14Z</time><name>PT3066</name></trkpt>
<trkpt lat="54.497774" lon="-3.238358"><ele>291</ele><time>2022-03-30T11:59:17Z</time><name>PT3067</name></trkpt>
<trkpt lat="54.497792" lon="-3.238352"><ele>291</ele><time>2022-03-30T11:59:20Z</time><name>PT3068</name></trkpt>
<trkpt lat="54.497817" lon="-3.238313"><ele>292</ele><time>2022-03-30T11:59:23Z</time><name>PT3069</name></trkpt>
<trkpt lat="54.497812" lon="-3.238240"><ele>293</ele><time>2022-03-30T11:59:28Z</time><name>PT3070</name></trkpt>
<trkpt lat="54.497804" lon="-3.238214"><ele>291</ele><time>2022-03-30T11:59:31Z</time><name>PT3071</name></trkpt>
<trkpt lat="54.497794" lon="-3.238197"><ele>292</ele><time>2022-03-30T11:59:34Z</time><name>PT3072</name></trkpt>
<trkpt lat="54.497780" lon="-3.238167"><ele>293</ele><time>2022-03-30T11:59:37Z</time><name>PT3073</name></trkpt>
<trkpt lat="54.497766" lon="-3.238127"><ele>293</ele><time>2022-03-30T11:59:41Z</time><name>PT3074</name></trkpt>
<trkpt lat="54.497750" lon="-3.238099"><ele>291</ele><time>2022-03-30T11:59:45Z</time><name>PT3075</name></trkpt>
<trkpt lat="54.497742" lon="-3.238058"><ele>292</ele><time>2022-03-30T11:59:49Z</time><name>PT3076</name></trkpt>
<trkpt lat="54.497741" lon="-3.237999"><ele>291</ele><time>2022-03-30T11:59:52Z</time><name>PT3077</name></trkpt>
<trkpt lat="54.497741" lon="-3.237935"><ele>292</ele><time>2022-03-30T11:59:56Z</time><name>PT3078</name></trkpt>
<trkpt lat="54.497750" lon="-3.237890"><ele>291</ele><time>2022-03-30T11:59:59Z</time><name>PT3079</name></trkpt>
<trkpt lat="54.497750" lon="-3.237842"><ele>292</ele><time>2022-03-30T12:00:02Z</time><name>PT3080</name></trkpt>
<trkpt lat="54.497745" lon="-3.237779"><ele>294</ele><time>2022-03-30T12:00:07Z</time><name>PT3081</name></trkpt>
<trkpt lat="54.497738" lon="-3.237703"><ele>293</ele><time>2022-03-30T12:00:10Z</time><name>PT3082</name></trkpt>
<trkpt lat="54.497737" lon="-3.237632"><ele>293</ele><time>2022-03-30T12:00:14Z</time><name>PT3083</name></trkpt>
<trkpt lat="54.497717" lon="-3.237571"><ele>294</ele><time>2022-03-30T12:00:17Z</time><name>PT3084</name></trkpt>
<trkpt lat="54.497694" lon="-3.237530"><ele>294</ele><time>2022-03-30T12:00:20Z</time><name>PT3085</name></trkpt>
<trkpt lat="54.497673" lon="-3.237462"><ele>295</ele><time>2022-03-30T12:00:25Z</time><name>PT3086</name></trkpt>
<trkpt lat="54.497634" lon="-3.237397"><ele>296</ele><time>2022-03-30T12:00:28Z</time><name>PT3087</name></trkpt>
<trkpt lat="54.497617" lon="-3.237356"><ele>296</ele><time>2022-03-30T12:00:32Z</time><name>PT3088</name></trkpt>
<trkpt lat="54.497624" lon="-3.237320"><ele>295</ele><time>2022-03-30T12:00:36Z</time><name>PT3089</name></trkpt>
<trkpt lat="54.497636" lon="-3.237281"><ele>295</ele><time>2022-03-30T12:00:39Z</time><name>PT3090</name></trkpt>
<trkpt lat="54.497634" lon="-3.237230"><ele>295</ele><time>2022-03-30T12:00:42Z</time><name>PT3091</name></trkpt>
<trkpt lat="54.497637" lon="-3.237193"><ele>296</ele><time>2022-03-30T12:00:45Z</time><name>PT3092</name></trkpt>
<trkpt lat="54.497632" lon="-3.237157"><ele>296</ele><time>2022-03-30T12:00:49Z</time><name>PT3093</name></trkpt>
<trkpt lat="54.497613" lon="-3.237133"><ele>297</ele><time>2022-03-30T12:00:52Z</time><name>PT3094</name></trkpt>
<trkpt lat="54.497586" lon="-3.237100"><ele>297</ele><time>2022-03-30T12:00:57Z</time><name>PT3095</name></trkpt>
<trkpt lat="54.497561" lon="-3.237084"><ele>298</ele><time>2022-03-30T12:01:00Z</time><name>PT3096</name></trkpt>
<trkpt lat="54.497531" lon="-3.237061"><ele>298</ele><time>2022-03-30T12:01:03Z</time><name>PT3097</name></trkpt>
<trkpt lat="54.497503" lon="-3.237038"><ele>297</ele><time>2022-03-30T12:01:07Z</time><name>PT3098</name></trkpt>
<trkpt lat="54.497475" lon="-3.237035"><ele>296</ele><time>2022-03-30T12:01:10Z</time><name>PT3099</name></trkpt>
<trkpt lat="54.497437" lon="-3.237029"><ele>297</ele><time>2022-03-30T12:01:14Z</time><name>PT3100</name></trkpt>
<trkpt lat="54.497414" lon="-3.237015"><ele>297</ele><time>2022-03-30T12:01:18Z</time><name>PT3101</name></trkpt>
<trkpt lat="54.497383" lon="-3.237004"><ele>296</ele><time>2022-03-30T12:01:21Z</time><name>PT3102</name></trkpt>
<trkpt lat="54.497353" lon="-3.236998"><ele>299</ele><time>2022-03-30T12:01:24Z</time><name>PT3103</name></trkpt>
<trkpt lat="54.497332" lon="-3.236969"><ele>300</ele><time>2022-03-30T12:01:28Z</time><name>PT3104</name></trkpt>
<trkpt lat="54.497324" lon="-3.236949"><ele>300</ele><time>2022-03-30T12:01:31Z</time><name>PT3105</name></trkpt>
<trkpt lat="54.497295" lon="-3.236927"><ele>298</ele><time>2022-03-30T12:01:35Z</time><name>PT3106</name></trkpt>
<trkpt lat="54.497267" lon="-3.236906"><ele>300</ele><time>2022-03-30T12:01:39Z</time><name>PT3107</name></trkpt>
<trkpt lat="54.497252" lon="-3.236864"><ele>300</ele><time>2022-03-30T12:01:42Z</time><name>PT3108</name></trkpt>
<trkpt lat="54.497229" lon="-3.236808"><ele>300</ele><time>2022-03-30T12:01:45Z</time><name>PT3109</name></trkpt>
<trkpt lat="54.497210" lon="-3.236773"><ele>301</ele><time>2022-03-30T12:01:48Z</time><name>PT3110</name></trkpt>
<trkpt lat="54.497182" lon="-3.236732"><ele>301</ele><time>2022-03-30T12:01:52Z</time><name>PT3111</name></trkpt>
<trkpt lat="54.497158" lon="-3.236685"><ele>301</ele><time>2022-03-30T12:01:57Z</time><name>PT3112</name></trkpt>
<trkpt lat="54.497147" lon="-3.236645"><ele>301</ele><time>2022-03-30T12:02:00Z</time><name>PT3113</name></trkpt>
<trkpt lat="54.497133" lon="-3.236614"><ele>301</ele><time>2022-03-30T12:02:03Z</time><name>PT3114</name></trkpt>
<trkpt lat="54.497134" lon="-3.236574"><ele>302</ele><time>2022-03-30T12:02:06Z</time><name>PT3115</name></trkpt>
<trkpt lat="54.497129" lon="-3.236527"><ele>302</ele><time>2022-03-30T12:02:09Z</time><name>PT3116</name></trkpt>
<trkpt lat="54.497118" lon="-3.236484"><ele>303</ele><time>2022-03-30T12:02:12Z</time><name>PT3117</name></trkpt>
<trkpt lat="54.497113" lon="-3.236425"><ele>304</ele><time>2022-03-30T12:02:16Z</time><name>PT3118</name></trkpt>
<trkpt lat="54.497108" lon="-3.236377"><ele>303</ele><time>2022-03-30T12:02:19Z</time><name>PT3119</name></trkpt>
<trkpt lat="54.497098" lon="-3.236301"><ele>304</ele><time>2022-03-30T12:02:24Z</time><name>PT3120</name></trkpt>
<trkpt lat="54.497092" lon="-3.236239"><ele>303</ele><time>2022-03-30T12:02:27Z</time><name>PT3121</name></trkpt>
<trkpt lat="54.497084" lon="-3.236176"><ele>303</ele><time>2022-03-30T12:02:31Z</time><name>PT3122</name></trkpt>
<trkpt lat="54.497062" lon="-3.236132"><ele>302</ele><time>2022-03-30T12:02:34Z</time><name>PT3123</name></trkpt>
<trkpt lat="54.497049" lon="-3.236083"><ele>303</ele><time>2022-03-30T12:02:38Z</time><name>PT3124</name></trkpt>
<trkpt lat="54.497051" lon="-3.236039"><ele>303</ele><time>2022-03-30T12:02:42Z</time><name>PT3125</name></trkpt>
<trkpt lat="54.497057" lon="-3.235993"><ele>305</ele><time>2022-03-30T12:02:45Z</time><name>PT3126</name></trkpt>
<trkpt lat="54.497047" lon="-3.235965"><ele>307</ele><time>2022-03-30T12:02:48Z</time><name>PT3127</name></trkpt>
<trkpt lat="54.497045" lon="-3.235962"><ele>308</ele><time>2022-03-30T12:02:49Z</time><name>PT3128</name></trkpt>
<trkpt lat="54.497046" lon="-3.235960"><ele>308</ele><time>2022-03-30T12:02:51Z</time><name>PT3129</name></trkpt>
<trkpt lat="54.497048" lon="-3.235957"><ele>308</ele><time>2022-03-30T12:03:05Z</time><name>PT3130</name></trkpt>
<trkpt lat="54.497045" lon="-3.235947"><ele>309</ele><time>2022-03-30T12:03:06Z</time><name>PT3131</name></trkpt>
<trkpt lat="54.497039" lon="-3.235936"><ele>308</ele><time>2022-03-30T12:03:07Z</time><name>PT3132</name></trkpt>
<trkpt lat="54.497032" lon="-3.235924"><ele>309</ele><time>2022-03-30T12:03:08Z</time><name>PT3133</name></trkpt>
<trkpt lat="54.497023" lon="-3.235924"><ele>310</ele><time>2022-03-30T12:03:09Z</time><name>PT3134</name></trkpt>
<trkpt lat="54.497013" lon="-3.235912"><ele>310</ele><time>2022-03-30T12:03:10Z</time><name>PT3135</name></trkpt>
<trkpt lat="54.497005" lon="-3.235903"><ele>310</ele><time>2022-03-30T12:03:12Z</time><name>PT3136</name></trkpt>
<trkpt lat="54.496995" lon="-3.235890"><ele>309</ele><time>2022-03-30T12:03:12Z</time><name>PT3137</name></trkpt>
<trkpt lat="54.496987" lon="-3.235879"><ele>309</ele><time>2022-03-30T12:03:13Z</time><name>PT3138</name></trkpt>
<trkpt lat="54.496975" lon="-3.235864"><ele>309</ele><time>2022-03-30T12:03:15Z</time><name>PT3139</name></trkpt>
<trkpt lat="54.496967" lon="-3.235852"><ele>309</ele><time>2022-03-30T12:03:15Z</time><name>PT3140</name></trkpt>
<trkpt lat="54.496958" lon="-3.235840"><ele>309</ele><time>2022-03-30T12:03:16Z</time><name>PT3141</name></trkpt>
<trkpt lat="54.496955" lon="-3.235834"><ele>310</ele><time>2022-03-30T12:03:17Z</time><name>PT3142</name></trkpt>
<trkpt lat="54.496945" lon="-3.235824"><ele>310</ele><time>2022-03-30T12:03:18Z</time><name>PT3143</name></trkpt>
<trkpt lat="54.496936" lon="-3.235812"><ele>309</ele><time>2022-03-30T12:03:19Z</time><name>PT3144</name></trkpt>
<trkpt lat="54.496922" lon="-3.235802"><ele>309</ele><time>2022-03-30T12:03:20Z</time><name>PT3145</name></trkpt>
<trkpt lat="54.496912" lon="-3.235794"><ele>309</ele><time>2022-03-30T12:03:21Z</time><name>PT3146</name></trkpt>
<trkpt lat="54.496905" lon="-3.235782"><ele>308</ele><time>2022-03-30T12:03:22Z</time><name>PT3147</name></trkpt>
<trkpt lat="54.496897" lon="-3.235775"><ele>308</ele><time>2022-03-30T12:03:24Z</time><name>PT3148</name></trkpt>
<trkpt lat="54.496889" lon="-3.235762"><ele>308</ele><time>2022-03-30T12:03:24Z</time><name>PT3149</name></trkpt>
<trkpt lat="54.496881" lon="-3.235755"><ele>308</ele><time>2022-03-30T12:03:25Z</time><name>PT3150</name></trkpt>
<trkpt lat="54.496875" lon="-3.235744"><ele>308</ele><time>2022-03-30T12:03:26Z</time><name>PT3151</name></trkpt>
<trkpt lat="54.496868" lon="-3.235734"><ele>308</ele><time>2022-03-30T12:03:27Z</time><name>PT3152</name></trkpt>
<trkpt lat="54.496862" lon="-3.235729"><ele>308</ele><time>2022-03-30T12:03:28Z</time><name>PT3153</name></trkpt>
<trkpt lat="54.496857" lon="-3.235726"><ele>308</ele><time>2022-03-30T12:03:30Z</time><name>PT3154</name></trkpt>
<trkpt lat="54.496851" lon="-3.235728"><ele>308</ele><time>2022-03-30T12:03:30Z</time><name>PT3155</name></trkpt>
<trkpt lat="54.496844" lon="-3.235736"><ele>309</ele><time>2022-03-30T12:03:31Z</time><name>PT3156</name></trkpt>
<trkpt lat="54.496832" lon="-3.235747"><ele>309</ele><time>2022-03-30T12:03:32Z</time><name>PT3157</name></trkpt>
<trkpt lat="54.496824" lon="-3.235754"><ele>309</ele><time>2022-03-30T12:03:33Z</time><name>PT3158</name></trkpt>
<trkpt lat="54.496817" lon="-3.235760"><ele>309</ele><time>2022-03-30T12:03:34Z</time><name>PT3159</name></trkpt>
<trkpt lat="54.496808" lon="-3.235766"><ele>309</ele><time>2022-03-30T12:03:35Z</time><name>PT3160</name></trkpt>
<trkpt lat="54.496800" lon="-3.235774"><ele>310</ele><time>2022-03-30T12:03:36Z</time><name>PT3161</name></trkpt>
<trkpt lat="54.496792" lon="-3.235783"><ele>310</ele><time>2022-03-30T12:03:37Z</time><name>PT3162</name></trkpt>
<trkpt lat="54.496785" lon="-3.235792"><ele>309</ele><time>2022-03-30T12:03:38Z</time><name>PT3163</name></trkpt>
<trkpt lat="54.496777" lon="-3.235795"><ele>308</ele><time>2022-03-30T12:03:39Z</time><name>PT3164</name></trkpt>
<trkpt lat="54.496767" lon="-3.235800"><ele>308</ele><time>2022-03-30T12:03:40Z</time><name>PT3165</name></trkpt>
<trkpt lat="54.496759" lon="-3.235802"><ele>308</ele><time>2022-03-30T12:03:41Z</time><name>PT3166</name></trkpt>
<trkpt lat="54.496752" lon="-3.235798"><ele>308</ele><time>2022-03-30T12:03:42Z</time><name>PT3167</name></trkpt>
<trkpt lat="54.496744" lon="-3.235796"><ele>307</ele><time>2022-03-30T12:03:43Z</time><name>PT3168</name></trkpt>
<trkpt lat="54.496736" lon="-3.235793"><ele>307</ele><time>2022-03-30T12:03:44Z</time><name>PT3169</name></trkpt>
<trkpt lat="54.496734" lon="-3.235790"><ele>307</ele><time>2022-03-30T12:03:45Z</time><name>PT3170</name></trkpt>
<trkpt lat="54.496731" lon="-3.235784"><ele>307</ele><time>2022-03-30T12:03:46Z</time><name>PT3171</name></trkpt>
<trkpt lat="54.496731" lon="-3.235782"><ele>306</ele><time>2022-03-30T12:03:48Z</time><name>PT3172</name></trkpt>
<trkpt lat="54.496729" lon="-3.235781"><ele>306</ele><time>2022-03-30T12:03:48Z</time><name>PT3173</name></trkpt>
<trkpt lat="54.496728" lon="-3.235778"><ele>306</ele><time>2022-03-30T12:03:49Z</time><name>PT3174</name></trkpt>
<trkpt lat="54.496725" lon="-3.235770"><ele>305</ele><time>2022-03-30T12:03:51Z</time><name>PT3175</name></trkpt>
<trkpt lat="54.496727" lon="-3.235758"><ele>305</ele><time>2022-03-30T12:03:52Z</time><name>PT3176</name></trkpt>
<trkpt lat="54.496716" lon="-3.235766"><ele>305</ele><time>2022-03-30T12:03:53Z</time><name>PT3177</name></trkpt>
<trkpt lat="54.496710" lon="-3.235773"><ele>305</ele><time>2022-03-30T12:03:54Z</time><name>PT3178</name></trkpt>
<trkpt lat="54.496698" lon="-3.235782"><ele>305</ele><time>2022-03-30T12:03:55Z</time><name>PT3179</name></trkpt>
<trkpt lat="54.496686" lon="-3.235790"><ele>305</ele><time>2022-03-30T12:03:56Z</time><name>PT3180</name></trkpt>
<trkpt lat="54.496678" lon="-3.235803"><ele>305</ele><time>2022-03-30T12:03:57Z</time><name>PT3181</name></trkpt>
<trkpt lat="54.496673" lon="-3.235818"><ele>304</ele><time>2022-03-30T12:03:58Z</time><name>PT3182</name></trkpt>
<trkpt lat="54.496669" lon="-3.235832"><ele>304</ele><time>2022-03-30T12:03:59Z</time><name>PT3183</name></trkpt>
<trkpt lat="54.496664" lon="-3.235842"><ele>305</ele><time>2022-03-30T12:04:00Z</time><name>PT3184</name></trkpt>
<trkpt lat="54.496658" lon="-3.235852"><ele>305</ele><time>2022-03-30T12:04:01Z</time><name>PT3185</name></trkpt>
<trkpt lat="54.496652" lon="-3.235856"><ele>305</ele><time>2022-03-30T12:04:02Z</time><name>PT3186</name></trkpt>
<trkpt lat="54.496647" lon="-3.235869"><ele>305</ele><time>2022-03-30T12:04:03Z</time><name>PT3187</name></trkpt>
<trkpt lat="54.496640" lon="-3.235871"><ele>306</ele><time>2022-03-30T12:04:04Z</time><name>PT3188</name></trkpt>
<trkpt lat="54.496636" lon="-3.235890"><ele>305</ele><time>2022-03-30T12:04:05Z</time><name>PT3189</name></trkpt>
<trkpt lat="54.496629" lon="-3.235894"><ele>304</ele><time>2022-03-30T12:04:06Z</time><name>PT3190</name></trkpt>
<trkpt lat="54.496628" lon="-3.235891"><ele>303</ele><time>2022-03-30T12:04:07Z</time><name>PT3191</name></trkpt>
<trkpt lat="54.496628" lon="-3.235876"><ele>303</ele><time>2022-03-30T12:04:09Z</time><name>PT3192</name></trkpt>
<trkpt lat="54.496630" lon="-3.235877"><ele>302</ele><time>2022-03-30T12:04:09Z</time><name>PT3193</name></trkpt>
<trkpt lat="54.496629" lon="-3.235872"><ele>305</ele><time>2022-03-30T12:04:10Z</time><name>PT3194</name></trkpt>
<trkpt lat="54.496622" lon="-3.235871"><ele>305</ele><time>2022-03-30T12:04:12Z</time><name>PT3195</name></trkpt>
<trkpt lat="54.496609" lon="-3.235860"><ele>308</ele><time>2022-03-30T12:04:12Z</time><name>PT3196</name></trkpt>
<trkpt lat="54.496604" lon="-3.235851"><ele>308</ele><time>2022-03-30T12:04:13Z</time><name>PT3197</name></trkpt>
<trkpt lat="54.496595" lon="-3.235843"><ele>308</ele><time>2022-03-30T12:04:15Z</time><name>PT3198</name></trkpt>
<trkpt lat="54.496596" lon="-3.235838"><ele>308</ele><time>2022-03-30T12:04:15Z</time><name>PT3199</name></trkpt>
<trkpt lat="54.496596" lon="-3.235829"><ele>308</ele><time>2022-03-30T12:04:16Z</time><name>PT3200</name></trkpt>
<trkpt lat="54.496595" lon="-3.235813"><ele>308</ele><time>2022-03-30T12:04:17Z</time><name>PT3201</name></trkpt>
<trkpt lat="54.496596" lon="-3.235798"><ele>308</ele><time>2022-03-30T12:04:18Z</time><name>PT3202</name></trkpt>
<trkpt lat="54.496595" lon="-3.235784"><ele>309</ele><time>2022-03-30T12:04:19Z</time><name>PT3203</name></trkpt>
<trkpt lat="54.496594" lon="-3.235774"><ele>309</ele><time>2022-03-30T12:04:20Z</time><name>PT3204</name></trkpt>
<trkpt lat="54.496594" lon="-3.235763"><ele>309</ele><time>2022-03-30T12:04:21Z</time><name>PT3205</name></trkpt>
<trkpt lat="54.496596" lon="-3.235751"><ele>309</ele><time>2022-03-30T12:04:22Z</time><name>PT3206</name></trkpt>
<trkpt lat="54.496594" lon="-3.235740"><ele>309</ele><time>2022-03-30T12:04:24Z</time><name>PT3207</name></trkpt>
<trkpt lat="54.496590" lon="-3.235728"><ele>309</ele><time>2022-03-30T12:04:24Z</time><name>PT3208</name></trkpt>
<trkpt lat="54.496586" lon="-3.235716"><ele>309</ele><time>2022-03-30T12:04:25Z</time><name>PT3209</name></trkpt>
<trkpt lat="54.496583" lon="-3.235702"><ele>310</ele><time>2022-03-30T12:04:27Z</time><name>PT3210</name></trkpt>
<trkpt lat="54.496580" lon="-3.235690"><ele>310</ele><time>2022-03-30T12:04:27Z</time><name>PT3211</name></trkpt>
<trkpt lat="54.496577" lon="-3.235681"><ele>310</ele><time>2022-03-30T12:04:28Z</time><name>PT3212</name></trkpt>
<trkpt lat="54.496573" lon="-3.235680"><ele>310</ele><time>2022-03-30T12:04:29Z</time><name>PT3213</name></trkpt>
<trkpt lat="54.496569" lon="-3.235676"><ele>311</ele><time>2022-03-30T12:04:30Z</time><name>PT3214</name></trkpt>
<trkpt lat="54.496563" lon="-3.235663"><ele>311</ele><time>2022-03-30T12:04:31Z</time><name>PT3215</name></trkpt>
<trkpt lat="54.496561" lon="-3.235649"><ele>311</ele><time>2022-03-30T12:04:32Z</time><name>PT3216</name></trkpt>
<trkpt lat="54.496557" lon="-3.235635"><ele>311</ele><time>2022-03-30T12:04:33Z</time><name>PT3217</name></trkpt>
<trkpt lat="54.496555" lon="-3.235622"><ele>312</ele><time>2022-03-30T12:04:34Z</time><name>PT3218</name></trkpt>
<trkpt lat="54.496554" lon="-3.235610"><ele>312</ele><time>2022-03-30T12:04:36Z</time><name>PT3219</name></trkpt>
<trkpt lat="54.496551" lon="-3.235602"><ele>312</ele><time>2022-03-30T12:04:36Z</time><name>PT3220</name></trkpt>
<trkpt lat="54.496548" lon="-3.235589"><ele>313</ele><time>2022-03-30T12:04:37Z</time><name>PT3221</name></trkpt>
<trkpt lat="54.496543" lon="-3.235580"><ele>313</ele><time>2022-03-30T12:04:39Z</time><name>PT3222</name></trkpt>
<trkpt lat="54.496538" lon="-3.235568"><ele>313</ele><time>2022-03-30T12:04:39Z</time><name>PT3223</name></trkpt>
<trkpt lat="54.496533" lon="-3.235554"><ele>313</ele><time>2022-03-30T12:04:40Z</time><name>PT3224</name></trkpt>
<trkpt lat="54.496532" lon="-3.235543"><ele>314</ele><time>2022-03-30T12:04:41Z</time><name>PT3225</name></trkpt>
<trkpt lat="54.496534" lon="-3.235528"><ele>313</ele><time>2022-03-30T12:04:42Z</time><name>PT3226</name></trkpt>
<trkpt lat="54.496536" lon="-3.235513"><ele>313</ele><time>2022-03-30T12:04:43Z</time><name>PT3227</name></trkpt>
<trkpt lat="54.496534" lon="-3.235500"><ele>314</ele><time>2022-03-30T12:04:44Z</time><name>PT3228</name></trkpt>
<trkpt lat="54.496534" lon="-3.235485"><ele>313</ele><time>2022-03-30T12:04:45Z</time><name>PT3229</name></trkpt>
<trkpt lat="54.496529" lon="-3.235472"><ele>313</ele><time>2022-03-30T12:04:46Z</time><name>PT3230</name></trkpt>
<trkpt lat="54.496524" lon="-3.235452"><ele>312</ele><time>2022-03-30T12:04:47Z</time><name>PT3231</name></trkpt>
<trkpt lat="54.496520" lon="-3.235435"><ele>312</ele><time>2022-03-30T12:04:48Z</time><name>PT3232</name></trkpt>
<trkpt lat="54.496520" lon="-3.235416"><ele>312</ele><time>2022-03-30T12:04:49Z</time><name>PT3233</name></trkpt>
<trkpt lat="54.496520" lon="-3.235401"><ele>311</ele><time>2022-03-30T12:04:51Z</time><name>PT3234</name></trkpt>
<trkpt lat="54.496518" lon="-3.235385"><ele>311</ele><time>2022-03-30T12:04:51Z</time><name>PT3235</name></trkpt>
<trkpt lat="54.496512" lon="-3.235364"><ele>311</ele><time>2022-03-30T12:04:52Z</time><name>PT3236</name></trkpt>
<trkpt lat="54.496506" lon="-3.235343"><ele>311</ele><time>2022-03-30T12:04:53Z</time><name>PT3237</name></trkpt>
<trkpt lat="54.496503" lon="-3.235328"><ele>311</ele><time>2022-03-30T12:04:54Z</time><name>PT3238</name></trkpt>
<trkpt lat="54.496498" lon="-3.235311"><ele>310</ele><time>2022-03-30T12:04:55Z</time><name>PT3239</name></trkpt>
<trkpt lat="54.496496" lon="-3.235296"><ele>309</ele><time>2022-03-30T12:04:56Z</time><name>PT3240</name></trkpt>
<trkpt lat="54.496493" lon="-3.235280"><ele>309</ele><time>2022-03-30T12:04:57Z</time><name>PT3241</name></trkpt>
<trkpt lat="54.496489" lon="-3.235262"><ele>309</ele><time>2022-03-30T12:04:58Z</time><name>PT3242</name></trkpt>
<trkpt lat="54.496484" lon="-3.235246"><ele>309</ele><time>2022-03-30T12:04:59Z</time><name>PT3243</name></trkpt>
<trkpt lat="54.496480" lon="-3.235229"><ele>308</ele><time>2022-03-30T12:05:00Z</time><name>PT3244</name></trkpt>
<trkpt lat="54.496471" lon="-3.235211"><ele>308</ele><time>2022-03-30T12:05:01Z</time><name>PT3245</name></trkpt>
<trkpt lat="54.496471" lon="-3.235194"><ele>308</ele><time>2022-03-30T12:05:02Z</time><name>PT3246</name></trkpt>
<trkpt lat="54.496468" lon="-3.235179"><ele>308</ele><time>2022-03-30T12:05:03Z</time><name>PT3247</name></trkpt>
<trkpt lat="54.496467" lon="-3.235169"><ele>308</ele><time>2022-03-30T12:05:04Z</time><name>PT3248</name></trkpt>
<trkpt lat="54.496467" lon="-3.235154"><ele>309</ele><time>2022-03-30T12:05:05Z</time><name>PT3249</name></trkpt>
<trkpt lat="54.496464" lon="-3.235136"><ele>309</ele><time>2022-03-30T12:05:06Z</time><name>PT3250</name></trkpt>
<trkpt lat="54.496462" lon="-3.235120"><ele>308</ele><time>2022-03-30T12:05:07Z</time><name>PT3251</name></trkpt>
<trkpt lat="54.496465" lon="-3.235104"><ele>308</ele><time>2022-03-30T12:05:08Z</time><name>PT3252</name></trkpt>
<trkpt lat="54.496469" lon="-3.235088"><ele>309</ele><time>2022-03-30T12:05:09Z</time><name>PT3253</name></trkpt>
<trkpt lat="54.496476" lon="-3.235077"><ele>309</ele><time>2022-03-30T12:05:10Z</time><name>PT3254</name></trkpt>
<trkpt lat="54.496484" lon="-3.235065"><ele>309</ele><time>2022-03-30T12:05:12Z</time><name>PT3255</name></trkpt>
<trkpt lat="54.496490" lon="-3.235054"><ele>310</ele><time>2022-03-30T12:05:12Z</time><name>PT3256</name></trkpt>
<trkpt lat="54.496494" lon="-3.235045"><ele>309</ele><time>2022-03-30T12:05:13Z</time><name>PT3257</name></trkpt>
<trkpt lat="54.496498" lon="-3.235031"><ele>309</ele><time>2022-03-30T12:05:14Z</time><name>PT3258</name></trkpt>
<trkpt lat="54.496500" lon="-3.235016"><ele>309</ele><time>2022-03-30T12:05:15Z</time><name>PT3259</name></trkpt>
<trkpt lat="54.496504" lon="-3.235004"><ele>309</ele><time>2022-03-30T12:05:16Z</time><name>PT3260</name></trkpt>
<trkpt lat="54.496509" lon="-3.234993"><ele>309</ele><time>2022-03-30T12:05:18Z</time><name>PT3261</name></trkpt>
<trkpt lat="54.496517" lon="-3.234984"><ele>309</ele><time>2022-03-30T12:05:18Z</time><name>PT3262</name></trkpt>
<trkpt lat="54.496524" lon="-3.234973"><ele>309</ele><time>2022-03-30T12:05:19Z</time><name>PT3263</name></trkpt>
<trkpt lat="54.496528" lon="-3.234957"><ele>308</ele><time>2022-03-30T12:05:20Z</time><name>PT3264</name></trkpt>
<trkpt lat="54.496534" lon="-3.234939"><ele>308</ele><time>2022-03-30T12:05:21Z</time><name>PT3265</name></trkpt>
<trkpt lat="54.496531" lon="-3.234921"><ele>309</ele><time>2022-03-30T12:05:22Z</time><name>PT3266</name></trkpt>
<trkpt lat="54.496532" lon="-3.234902"><ele>309</ele><time>2022-03-30T12:05:23Z</time><name>PT3267</name></trkpt>
<trkpt lat="54.496532" lon="-3.234885"><ele>310</ele><time>2022-03-30T12:05:24Z</time><name>PT3268</name></trkpt>
<trkpt lat="54.496526" lon="-3.234867"><ele>310</ele><time>2022-03-30T12:05:25Z</time><name>PT3269</name></trkpt>
<trkpt lat="54.496531" lon="-3.234853"><ele>310</ele><time>2022-03-30T12:05:26Z</time><name>PT3270</name></trkpt>
<trkpt lat="54.496536" lon="-3.234836"><ele>310</ele><time>2022-03-30T12:05:27Z</time><name>PT3271</name></trkpt>
<trkpt lat="54.496538" lon="-3.234826"><ele>310</ele><time>2022-03-30T12:05:28Z</time><name>PT3272</name></trkpt>
<trkpt lat="54.496540" lon="-3.234814"><ele>310</ele><time>2022-03-30T12:05:30Z</time><name>PT3273</name></trkpt>
<trkpt lat="54.496541" lon="-3.234800"><ele>310</ele><time>2022-03-30T12:05:30Z</time><name>PT3274</name></trkpt>
<trkpt lat="54.496535" lon="-3.234780"><ele>311</ele><time>2022-03-30T12:05:31Z</time><name>PT3275</name></trkpt>
<trkpt lat="54.496537" lon="-3.234763"><ele>311</ele><time>2022-03-30T12:05:33Z</time><name>PT3276</name></trkpt>
<trkpt lat="54.496538" lon="-3.234746"><ele>311</ele><time>2022-03-30T12:05:33Z</time><name>PT3277</name></trkpt>
<trkpt lat="54.496538" lon="-3.234727"><ele>311</ele><time>2022-03-30T12:05:34Z</time><name>PT3278</name></trkpt>
<trkpt lat="54.496539" lon="-3.234710"><ele>311</ele><time>2022-03-30T12:05:35Z</time><name>PT3279</name></trkpt>
<trkpt lat="54.496541" lon="-3.234692"><ele>312</ele><time>2022-03-30T12:05:36Z</time><name>PT3280</name></trkpt>
<trkpt lat="54.496543" lon="-3.234678"><ele>312</ele><time>2022-03-30T12:05:37Z</time><name>PT3281</name></trkpt>
<trkpt lat="54.496547" lon="-3.234659"><ele>312</ele><time>2022-03-30T12:05:39Z</time><name>PT3282</name></trkpt>
<trkpt lat="54.496552" lon="-3.234647"><ele>312</ele><time>2022-03-30T12:05:39Z</time><name>PT3283</name></trkpt>
<trkpt lat="54.496556" lon="-3.234635"><ele>312</ele><time>2022-03-30T12:05:40Z</time><name>PT3284</name></trkpt>
<trkpt lat="54.496562" lon="-3.234621"><ele>313</ele><time>2022-03-30T12:05:42Z</time><name>PT3285</name></trkpt>
<trkpt lat="54.496564" lon="-3.234605"><ele>313</ele><time>2022-03-30T12:05:42Z</time><name>PT3286</name></trkpt>
<trkpt lat="54.496565" lon="-3.234584"><ele>313</ele><time>2022-03-30T12:05:43Z</time><name>PT3287</name></trkpt>
<trkpt lat="54.496567" lon="-3.234565"><ele>314</ele><time>2022-03-30T12:05:44Z</time><name>PT3288</name></trkpt>
<trkpt lat="54.496571" lon="-3.234547"><ele>314</ele><time>2022-03-30T12:05:45Z</time><name>PT3289</name></trkpt>
<trkpt lat="54.496577" lon="-3.234530"><ele>314</ele><time>2022-03-30T12:05:46Z</time><name>PT3290</name></trkpt>
<trkpt lat="54.496579" lon="-3.234515"><ele>315</ele><time>2022-03-30T12:05:47Z</time><name>PT3291</name></trkpt>
<trkpt lat="54.496584" lon="-3.234500"><ele>315</ele><time>2022-03-30T12:05:48Z</time><name>PT3292</name></trkpt>
<trkpt lat="54.496589" lon="-3.234485"><ele>316</ele><time>2022-03-30T12:05:49Z</time><name>PT3293</name></trkpt>
<trkpt lat="54.496594" lon="-3.234471"><ele>317</ele><time>2022-03-30T12:05:50Z</time><name>PT3294</name></trkpt>
<trkpt lat="54.496601" lon="-3.234452"><ele>318</ele><time>2022-03-30T12:05:51Z</time><name>PT3295</name></trkpt>
<trkpt lat="54.496608" lon="-3.234444"><ele>318</ele><time>2022-03-30T12:05:52Z</time><name>PT3296</name></trkpt>
<trkpt lat="54.496616" lon="-3.234433"><ele>319</ele><time>2022-03-30T12:05:54Z</time><name>PT3297</name></trkpt>
<trkpt lat="54.496622" lon="-3.234422"><ele>319</ele><time>2022-03-30T12:05:54Z</time><name>PT3298</name></trkpt>
<trkpt lat="54.496629" lon="-3.234412"><ele>319</ele><time>2022-03-30T12:05:55Z</time><name>PT3299</name></trkpt>
<trkpt lat="54.496635" lon="-3.234405"><ele>319</ele><time>2022-03-30T12:05:56Z</time><name>PT3300</name></trkpt>
<trkpt lat="54.496640" lon="-3.234404"><ele>319</ele><time>2022-03-30T12:05:57Z</time><name>PT3301</name></trkpt>
<trkpt lat="54.496644" lon="-3.234418"><ele>319</ele><time>2022-03-30T12:05:58Z</time><name>PT3302</name></trkpt>
<trkpt lat="54.496646" lon="-3.234421"><ele>319</ele><time>2022-03-30T12:05:59Z</time><name>PT3303</name></trkpt>
<trkpt lat="54.496644" lon="-3.234416"><ele>319</ele><time>2022-03-30T12:06:02Z</time><name>PT3304</name></trkpt>
<trkpt lat="54.496650" lon="-3.234399"><ele>319</ele><time>2022-03-30T12:06:03Z</time><name>PT3305</name></trkpt>
<trkpt lat="54.496643" lon="-3.234366"><ele>320</ele><time>2022-03-30T12:06:04Z</time><name>PT3306</name></trkpt>
<trkpt lat="54.496637" lon="-3.234345"><ele>319</ele><time>2022-03-30T12:06:05Z</time><name>PT3307</name></trkpt>
<trkpt lat="54.496633" lon="-3.234324"><ele>319</ele><time>2022-03-30T12:06:06Z</time><name>PT3308</name></trkpt>
<trkpt lat="54.496633" lon="-3.234305"><ele>319</ele><time>2022-03-30T12:06:07Z</time><name>PT3309</name></trkpt>
<trkpt lat="54.496632" lon="-3.234253"><ele>319</ele><time>2022-03-30T12:06:10Z</time><name>PT3310</name></trkpt>
<trkpt lat="54.496640" lon="-3.234194"><ele>318</ele><time>2022-03-30T12:06:13Z</time><name>PT3311</name></trkpt>
<trkpt lat="54.496648" lon="-3.234126"><ele>319</ele><time>2022-03-30T12:06:17Z</time><name>PT3312</name></trkpt>
<trkpt lat="54.496664" lon="-3.234084"><ele>319</ele><time>2022-03-30T12:06:21Z</time><name>PT3313</name></trkpt>
<trkpt lat="54.496681" lon="-3.234028"><ele>321</ele><time>2022-03-30T12:06:24Z</time><name>PT3314</name></trkpt>
<trkpt lat="54.496692" lon="-3.233996"><ele>322</ele><time>2022-03-30T12:06:27Z</time><name>PT3315</name></trkpt>
<trkpt lat="54.496700" lon="-3.233958"><ele>322</ele><time>2022-03-30T12:06:31Z</time><name>PT3316</name></trkpt>
<trkpt lat="54.496712" lon="-3.233906"><ele>322</ele><time>2022-03-30T12:06:35Z</time><name>PT3317</name></trkpt>
<trkpt lat="54.496728" lon="-3.233863"><ele>324</ele><time>2022-03-30T12:06:39Z</time><name>PT3318</name></trkpt>
<trkpt lat="54.496747" lon="-3.233830"><ele>324</ele><time>2022-03-30T12:06:43Z</time><name>PT3319</name></trkpt>
<trkpt lat="54.496756" lon="-3.233804"><ele>325</ele><time>2022-03-30T12:06:46Z</time><name>PT3320</name></trkpt>
<trkpt lat="54.496768" lon="-3.233789"><ele>327</ele><time>2022-03-30T12:06:49Z</time><name>PT3321</name></trkpt>
<trkpt lat="54.496791" lon="-3.233761"><ele>328</ele><time>2022-03-30T12:06:53Z</time><name>PT3322</name></trkpt>
<trkpt lat="54.496806" lon="-3.233724"><ele>329</ele><time>2022-03-30T12:06:57Z</time><name>PT3323</name></trkpt>
<trkpt lat="54.496806" lon="-3.233669"><ele>329</ele><time>2022-03-30T12:07:00Z</time><name>PT3324</name></trkpt>
<trkpt lat="54.496802" lon="-3.233621"><ele>330</ele><time>2022-03-30T12:07:04Z</time><name>PT3325</name></trkpt>
<trkpt lat="54.496803" lon="-3.233585"><ele>332</ele><time>2022-03-30T12:07:07Z</time><name>PT3326</name></trkpt>
<trkpt lat="54.496800" lon="-3.233547"><ele>331</ele><time>2022-03-30T12:07:10Z</time><name>PT3327</name></trkpt>
<trkpt lat="54.496791" lon="-3.233501"><ele>331</ele><time>2022-03-30T12:07:14Z</time><name>PT3328</name></trkpt>
<trkpt lat="54.496778" lon="-3.233462"><ele>330</ele><time>2022-03-30T12:07:18Z</time><name>PT3329</name></trkpt>
<trkpt lat="54.496771" lon="-3.233423"><ele>331</ele><time>2022-03-30T12:07:21Z</time><name>PT3330</name></trkpt>
<trkpt lat="54.496766" lon="-3.233371"><ele>330</ele><time>2022-03-30T12:07:25Z</time><name>PT3331</name></trkpt>
<trkpt lat="54.496770" lon="-3.233337"><ele>330</ele><time>2022-03-30T12:07:28Z</time><name>PT3332</name></trkpt>
<trkpt lat="54.496767" lon="-3.233295"><ele>331</ele><time>2022-03-30T12:07:31Z</time><name>PT3333</name></trkpt>
<trkpt lat="54.496773" lon="-3.233255"><ele>331</ele><time>2022-03-30T12:07:34Z</time><name>PT3334</name></trkpt>
<trkpt lat="54.496778" lon="-3.233219"><ele>332</ele><time>2022-03-30T12:07:38Z</time><name>PT3335</name></trkpt>
<trkpt lat="54.496784" lon="-3.233184"><ele>334</ele><time>2022-03-30T12:07:48Z</time><name>PT3336</name></trkpt>
<trkpt lat="54.496813" lon="-3.233099"><ele>334</ele><time>2022-03-30T12:07:52Z</time><name>PT3337</name></trkpt>
<trkpt lat="54.496816" lon="-3.233065"><ele>335</ele><time>2022-03-30T12:07:55Z</time><name>PT3338</name></trkpt>
<trkpt lat="54.496818" lon="-3.233034"><ele>335</ele><time>2022-03-30T12:07:58Z</time><name>PT3339</name></trkpt>
<trkpt lat="54.496805" lon="-3.232997"><ele>335</ele><time>2022-03-30T12:08:03Z</time><name>PT3340</name></trkpt>
<trkpt lat="54.496804" lon="-3.232946"><ele>335</ele><time>2022-03-30T12:08:06Z</time><name>PT3341</name></trkpt>
<trkpt lat="54.496796" lon="-3.232908"><ele>335</ele><time>2022-03-30T12:08:10Z</time><name>PT3342</name></trkpt>
<trkpt lat="54.496790" lon="-3.232876"><ele>336</ele><time>2022-03-30T12:08:13Z</time><name>PT3343</name></trkpt>
<trkpt lat="54.496782" lon="-3.232839"><ele>338</ele><time>2022-03-30T12:08:17Z</time><name>PT3344</name></trkpt>
<trkpt lat="54.496766" lon="-3.232804"><ele>338</ele><time>2022-03-30T12:08:21Z</time><name>PT3345</name></trkpt>
<trkpt lat="54.496752" lon="-3.232761"><ele>340</ele><time>2022-03-30T12:08:24Z</time><name>PT3346</name></trkpt>
<trkpt lat="54.496746" lon="-3.232730"><ele>340</ele><time>2022-03-30T12:08:27Z</time><name>PT3347</name></trkpt>
<trkpt lat="54.496743" lon="-3.232712"><ele>340</ele><time>2022-03-30T12:08:30Z</time><name>PT3348</name></trkpt>
<trkpt lat="54.496727" lon="-3.232690"><ele>341</ele><time>2022-03-30T12:08:34Z</time><name>PT3349</name></trkpt>
<trkpt lat="54.496732" lon="-3.232674"><ele>342</ele><time>2022-03-30T12:08:37Z</time><name>PT3350</name></trkpt>
<trkpt lat="54.496716" lon="-3.232637"><ele>343</ele><time>2022-03-30T12:08:42Z</time><name>PT3351</name></trkpt>
<trkpt lat="54.496695" lon="-3.232586"><ele>343</ele><time>2022-03-30T12:08:45Z</time><name>PT3352</name></trkpt>
<trkpt lat="54.496676" lon="-3.232546"><ele>343</ele><time>2022-03-30T12:08:48Z</time><name>PT3353</name></trkpt>
<trkpt lat="54.496658" lon="-3.232509"><ele>344</ele><time>2022-03-30T12:08:51Z</time><name>PT3354</name></trkpt>
<trkpt lat="54.496632" lon="-3.232459"><ele>345</ele><time>2022-03-30T12:08:55Z</time><name>PT3355</name></trkpt>
<trkpt lat="54.496622" lon="-3.232431"><ele>344</ele><time>2022-03-30T12:08:58Z</time><name>PT3356</name></trkpt>
<trkpt lat="54.496606" lon="-3.232405"><ele>344</ele><time>2022-03-30T12:09:01Z</time><name>PT3357</name></trkpt>
<trkpt lat="54.496592" lon="-3.232384"><ele>343</ele><time>2022-03-30T12:09:04Z</time><name>PT3358</name></trkpt>
<trkpt lat="54.496564" lon="-3.232361"><ele>344</ele><time>2022-03-30T12:09:08Z</time><name>PT3359</name></trkpt>
<trkpt lat="54.496548" lon="-3.232332"><ele>346</ele><time>2022-03-30T12:09:11Z</time><name>PT3360</name></trkpt>
<trkpt lat="54.496521" lon="-3.232310"><ele>347</ele><time>2022-03-30T12:09:15Z</time><name>PT3361</name></trkpt>
<trkpt lat="54.496500" lon="-3.232299"><ele>348</ele><time>2022-03-30T12:09:18Z</time><name>PT3362</name></trkpt>
<trkpt lat="54.496472" lon="-3.232286"><ele>349</ele><time>2022-03-30T12:09:22Z</time><name>PT3363</name></trkpt>
<trkpt lat="54.496449" lon="-3.232278"><ele>350</ele><time>2022-03-30T12:09:25Z</time><name>PT3364</name></trkpt>
<trkpt lat="54.496424" lon="-3.232262"><ele>350</ele><time>2022-03-30T12:09:28Z</time><name>PT3365</name></trkpt>
<trkpt lat="54.496394" lon="-3.232237"><ele>351</ele><time>2022-03-30T12:09:32Z</time><name>PT3366</name></trkpt>
<trkpt lat="54.496364" lon="-3.232195"><ele>352</ele><time>2022-03-30T12:09:36Z</time><name>PT3367</name></trkpt>
<trkpt lat="54.496349" lon="-3.232158"><ele>352</ele><time>2022-03-30T12:09:39Z</time><name>PT3368</name></trkpt>
<trkpt lat="54.496333" lon="-3.232099"><ele>352</ele><time>2022-03-30T12:09:43Z</time><name>PT3369</name></trkpt>
<trkpt lat="54.496318" lon="-3.232055"><ele>352</ele><time>2022-03-30T12:09:46Z</time><name>PT3370</name></trkpt>
<trkpt lat="54.496309" lon="-3.232016"><ele>353</ele><time>2022-03-30T12:09:50Z</time><name>PT3371</name></trkpt>
<trkpt lat="54.496298" lon="-3.231975"><ele>353</ele><time>2022-03-30T12:09:54Z</time><name>PT3372</name></trkpt>
<trkpt lat="54.496288" lon="-3.231918"><ele>354</ele><time>2022-03-30T12:09:57Z</time><name>PT3373</name></trkpt>
<trkpt lat="54.496284" lon="-3.231869"><ele>355</ele><time>2022-03-30T12:10:00Z</time><name>PT3374</name></trkpt>
<trkpt lat="54.496281" lon="-3.231824"><ele>355</ele><time>2022-03-30T12:10:03Z</time><name>PT3375</name></trkpt>
<trkpt lat="54.496271" lon="-3.231772"><ele>355</ele><time>2022-03-30T12:10:07Z</time><name>PT3376</name></trkpt>
<trkpt lat="54.496257" lon="-3.231744"><ele>355</ele><time>2022-03-30T12:10:10Z</time><name>PT3377</name></trkpt>
<trkpt lat="54.496236" lon="-3.231694"><ele>355</ele><time>2022-03-30T12:10:14Z</time><name>PT3378</name></trkpt>
<trkpt lat="54.496211" lon="-3.231653"><ele>354</ele><time>2022-03-30T12:10:17Z</time><name>PT3379</name></trkpt>
<trkpt lat="54.496190" lon="-3.231622"><ele>355</ele><time>2022-03-30T12:10:20Z</time><name>PT3380</name></trkpt>
<trkpt lat="54.496172" lon="-3.231598"><ele>355</ele><time>2022-03-30T12:10:23Z</time><name>PT3381</name></trkpt>
<trkpt lat="54.496155" lon="-3.231569"><ele>355</ele><time>2022-03-30T12:10:27Z</time><name>PT3382</name></trkpt>
<trkpt lat="54.496129" lon="-3.231536"><ele>357</ele><time>2022-03-30T12:10:31Z</time><name>PT3383</name></trkpt>
<trkpt lat="54.496112" lon="-3.231500"><ele>358</ele><time>2022-03-30T12:10:35Z</time><name>PT3384</name></trkpt>
<trkpt lat="54.496090" lon="-3.231485"><ele>359</ele><time>2022-03-30T12:10:38Z</time><name>PT3385</name></trkpt>
<trkpt lat="54.496073" lon="-3.231465"><ele>360</ele><time>2022-03-30T12:10:41Z</time><name>PT3386</name></trkpt>
<trkpt lat="54.496063" lon="-3.231433"><ele>360</ele><time>2022-03-30T12:10:45Z</time><name>PT3387</name></trkpt>
<trkpt lat="54.496047" lon="-3.231402"><ele>361</ele><time>2022-03-30T12:10:48Z</time><name>PT3388</name></trkpt>
<trkpt lat="54.496020" lon="-3.231378"><ele>362</ele><time>2022-03-30T12:10:52Z</time><name>PT3389</name></trkpt>
<trkpt lat="54.496002" lon="-3.231361"><ele>362</ele><time>2022-03-30T12:10:55Z</time><name>PT3390</name></trkpt>
<trkpt lat="54.495974" lon="-3.231344"><ele>362</ele><time>2022-03-30T12:10:59Z</time><name>PT3391</name></trkpt>
<trkpt lat="54.495954" lon="-3.231334"><ele>363</ele><time>2022-03-30T12:11:02Z</time><name>PT3392</name></trkpt>
<trkpt lat="54.495919" lon="-3.231320"><ele>364</ele><time>2022-03-30T12:11:06Z</time><name>PT3393</name></trkpt>
<trkpt lat="54.495884" lon="-3.231314"><ele>364</ele><time>2022-03-30T12:11:10Z</time><name>PT3394</name></trkpt>
<trkpt lat="54.495858" lon="-3.231307"><ele>365</ele><time>2022-03-30T12:11:13Z</time><name>PT3395</name></trkpt>
<trkpt lat="54.495833" lon="-3.231294"><ele>365</ele><time>2022-03-30T12:11:16Z</time><name>PT3396</name></trkpt>
<trkpt lat="54.495808" lon="-3.231276"><ele>367</ele><time>2022-03-30T12:11:19Z</time><name>PT3397</name></trkpt>
<trkpt lat="54.495780" lon="-3.231252"><ele>367</ele><time>2022-03-30T12:11:23Z</time><name>PT3398</name></trkpt>
<trkpt lat="54.495757" lon="-3.231230"><ele>369</ele><time>2022-03-30T12:11:26Z</time><name>PT3399</name></trkpt>
<trkpt lat="54.495731" lon="-3.231194"><ele>369</ele><time>2022-03-30T12:11:29Z</time><name>PT3400</name></trkpt>
<trkpt lat="54.495713" lon="-3.231146"><ele>370</ele><time>2022-03-30T12:11:32Z</time><name>PT3401</name></trkpt>
<trkpt lat="54.495697" lon="-3.231100"><ele>369</ele><time>2022-03-30T12:11:36Z</time><name>PT3402</name></trkpt>
<trkpt lat="54.495678" lon="-3.231035"><ele>367</ele><time>2022-03-30T12:11:39Z</time><name>PT3403</name></trkpt>
<trkpt lat="54.495666" lon="-3.230977"><ele>370</ele><time>2022-03-30T12:11:43Z</time><name>PT3404</name></trkpt>
<trkpt lat="54.495657" lon="-3.230941"><ele>370</ele><time>2022-03-30T12:11:46Z</time><name>PT3405</name></trkpt>
<trkpt lat="54.495646" lon="-3.230890"><ele>371</ele><time>2022-03-30T12:11:50Z</time><name>PT3406</name></trkpt>
<trkpt lat="54.495646" lon="-3.230851"><ele>370</ele><time>2022-03-30T12:11:53Z</time><name>PT3407</name></trkpt>
<trkpt lat="54.495635" lon="-3.230798"><ele>371</ele><time>2022-03-30T12:11:57Z</time><name>PT3408</name></trkpt>
<trkpt lat="54.495630" lon="-3.230763"><ele>372</ele><time>2022-03-30T12:12:00Z</time><name>PT3409</name></trkpt>
<trkpt lat="54.495611" lon="-3.230731"><ele>372</ele><time>2022-03-30T12:12:03Z</time><name>PT3410</name></trkpt>
<trkpt lat="54.495596" lon="-3.230710"><ele>372</ele><time>2022-03-30T12:12:07Z</time><name>PT3411</name></trkpt>
<trkpt lat="54.495574" lon="-3.230692"><ele>372</ele><time>2022-03-30T12:12:10Z</time><name>PT3412</name></trkpt>
<trkpt lat="54.495546" lon="-3.230665"><ele>373</ele><time>2022-03-30T12:12:14Z</time><name>PT3413</name></trkpt>
<trkpt lat="54.495512" lon="-3.230650"><ele>373</ele><time>2022-03-30T12:12:18Z</time><name>PT3414</name></trkpt>
<trkpt lat="54.495487" lon="-3.230632"><ele>374</ele><time>2022-03-30T12:12:22Z</time><name>PT3415</name></trkpt>
<trkpt lat="54.495470" lon="-3.230607"><ele>375</ele><time>2022-03-30T12:12:25Z</time><name>PT3416</name></trkpt>
<trkpt lat="54.495452" lon="-3.230581"><ele>376</ele><time>2022-03-30T12:12:28Z</time><name>PT3417</name></trkpt>
<trkpt lat="54.495440" lon="-3.230564"><ele>376</ele><time>2022-03-30T12:12:31Z</time><name>PT3418</name></trkpt>
<trkpt lat="54.495419" lon="-3.230533"><ele>377</ele><time>2022-03-30T12:12:35Z</time><name>PT3419</name></trkpt>
<trkpt lat="54.495408" lon="-3.230505"><ele>378</ele><time>2022-03-30T12:12:39Z</time><name>PT3420</name></trkpt>
<trkpt lat="54.495390" lon="-3.230467"><ele>378</ele><time>2022-03-30T12:12:42Z</time><name>PT3421</name></trkpt>
<trkpt lat="54.495375" lon="-3.230424"><ele>377</ele><time>2022-03-30T12:12:46Z</time><name>PT3422</name></trkpt>
<trkpt lat="54.495368" lon="-3.230391"><ele>376</ele><time>2022-03-30T12:12:49Z</time><name>PT3423</name></trkpt>
<trkpt lat="54.495355" lon="-3.230356"><ele>377</ele><time>2022-03-30T12:12:53Z</time><name>PT3424</name></trkpt>
<trkpt lat="54.495350" lon="-3.230328"><ele>376</ele><time>2022-03-30T12:12:56Z</time><name>PT3425</name></trkpt>
<trkpt lat="54.495328" lon="-3.230293"><ele>376</ele><time>2022-03-30T12:13:00Z</time><name>PT3426</name></trkpt>
<trkpt lat="54.495323" lon="-3.230253"><ele>376</ele><time>2022-03-30T12:13:03Z</time><name>PT3427</name></trkpt>
<trkpt lat="54.495316" lon="-3.230210"><ele>376</ele><time>2022-03-30T12:13:07Z</time><name>PT3428</name></trkpt>
<trkpt lat="54.495308" lon="-3.230188"><ele>376</ele><time>2022-03-30T12:13:10Z</time><name>PT3429</name></trkpt>
<trkpt lat="54.495290" lon="-3.230161"><ele>379</ele><time>2022-03-30T12:13:15Z</time><name>PT3430</name></trkpt>
<trkpt lat="54.495278" lon="-3.230119"><ele>381</ele><time>2022-03-30T12:13:18Z</time><name>PT3431</name></trkpt>
<trkpt lat="54.495256" lon="-3.230077"><ele>381</ele><time>2022-03-30T12:13:22Z</time><name>PT3432</name></trkpt>
<trkpt lat="54.495230" lon="-3.230043"><ele>382</ele><time>2022-03-30T12:13:26Z</time><name>PT3433</name></trkpt>
<trkpt lat="54.495198" lon="-3.229999"><ele>384</ele><time>2022-03-30T12:13:30Z</time><name>PT3434</name></trkpt>
<trkpt lat="54.495159" lon="-3.229956"><ele>385</ele><time>2022-03-30T12:13:34Z</time><name>PT3435</name></trkpt>
<trkpt lat="54.495126" lon="-3.229933"><ele>386</ele><time>2022-03-30T12:13:38Z</time><name>PT3436</name></trkpt>
<trkpt lat="54.495090" lon="-3.229912"><ele>388</ele><time>2022-03-30T12:13:42Z</time><name>PT3437</name></trkpt>
<trkpt lat="54.495051" lon="-3.229895"><ele>389</ele><time>2022-03-30T12:13:45Z</time><name>PT3438</name></trkpt>
<trkpt lat="54.495038" lon="-3.229870"><ele>389</ele><time>2022-03-30T12:13:48Z</time><name>PT3439</name></trkpt>
<trkpt lat="54.495017" lon="-3.229837"><ele>390</ele><time>2022-03-30T12:13:52Z</time><name>PT3440</name></trkpt>
<trkpt lat="54.494996" lon="-3.229801"><ele>390</ele><time>2022-03-30T12:13:56Z</time><name>PT3441</name></trkpt>
<trkpt lat="54.494969" lon="-3.229791"><ele>391</ele><time>2022-03-30T12:14:00Z</time><name>PT3442</name></trkpt>
<trkpt lat="54.494954" lon="-3.229782"><ele>392</ele><time>2022-03-30T12:14:03Z</time><name>PT3443</name></trkpt>
<trkpt lat="54.494932" lon="-3.229759"><ele>393</ele><time>2022-03-30T12:14:07Z</time><name>PT3444</name></trkpt>
<trkpt lat="54.494919" lon="-3.229735"><ele>392</ele><time>2022-03-30T12:14:10Z</time><name>PT3445</name></trkpt>
<trkpt lat="54.494905" lon="-3.229693"><ele>393</ele><time>2022-03-30T12:14:14Z</time><name>PT3446</name></trkpt>
<trkpt lat="54.494895" lon="-3.229654"><ele>393</ele><time>2022-03-30T12:14:18Z</time><name>PT3447</name></trkpt>
<trkpt lat="54.494879" lon="-3.229612"><ele>392</ele><time>2022-03-30T12:14:21Z</time><name>PT3448</name></trkpt>
<trkpt lat="54.494860" lon="-3.229579"><ele>391</ele><time>2022-03-30T12:14:25Z</time><name>PT3449</name></trkpt>
<trkpt lat="54.494839" lon="-3.229560"><ele>392</ele><time>2022-03-30T12:14:28Z</time><name>PT3450</name></trkpt>
<trkpt lat="54.494819" lon="-3.229537"><ele>393</ele><time>2022-03-30T12:14:31Z</time><name>PT3451</name></trkpt>
<trkpt lat="54.494809" lon="-3.229508"><ele>396</ele><time>2022-03-30T12:14:35Z</time><name>PT3452</name></trkpt>
<trkpt lat="54.494796" lon="-3.229486"><ele>396</ele><time>2022-03-30T12:14:39Z</time><name>PT3453</name></trkpt>
<trkpt lat="54.494780" lon="-3.229468"><ele>398</ele><time>2022-03-30T12:14:42Z</time><name>PT3454</name></trkpt>
<trkpt lat="54.494764" lon="-3.229439"><ele>398</ele><time>2022-03-30T12:14:46Z</time><name>PT3455</name></trkpt>
<trkpt lat="54.494748" lon="-3.229413"><ele>398</ele><time>2022-03-30T12:14:49Z</time><name>PT3456</name></trkpt>
<trkpt lat="54.494728" lon="-3.229402"><ele>399</ele><time>2022-03-30T12:14:52Z</time><name>PT3457</name></trkpt>
<trkpt lat="54.494703" lon="-3.229393"><ele>401</ele><time>2022-03-30T12:14:55Z</time><name>PT3458</name></trkpt>
<trkpt lat="54.494696" lon="-3.229357"><ele>401</ele><time>2022-03-30T12:15:00Z</time><name>PT3459</name></trkpt>
<trkpt lat="54.494680" lon="-3.229325"><ele>403</ele><time>2022-03-30T12:15:03Z</time><name>PT3460</name></trkpt>
<trkpt lat="54.494666" lon="-3.229305"><ele>403</ele><time>2022-03-30T12:15:06Z</time><name>PT3461</name></trkpt>
<trkpt lat="54.494654" lon="-3.229275"><ele>402</ele><time>2022-03-30T12:15:09Z</time><name>PT3462</name></trkpt>
<trkpt lat="54.494636" lon="-3.229249"><ele>401</ele><time>2022-03-30T12:15:13Z</time><name>PT3463</name></trkpt>
<trkpt lat="54.494618" lon="-3.229226"><ele>402</ele><time>2022-03-30T12:15:16Z</time><name>PT3464</name></trkpt>
<trkpt lat="54.494603" lon="-3.229197"><ele>402</ele><time>2022-03-30T12:15:19Z</time><name>PT3465</name></trkpt>
<trkpt lat="54.494586" lon="-3.229151"><ele>402</ele><time>2022-03-30T12:15:23Z</time><name>PT3466</name></trkpt>
<trkpt lat="54.494571" lon="-3.229116"><ele>403</ele><time>2022-03-30T12:15:27Z</time><name>PT3467</name></trkpt>
<trkpt lat="54.494553" lon="-3.229091"><ele>404</ele><time>2022-03-30T12:15:30Z</time><name>PT3468</name></trkpt>
<trkpt lat="54.494541" lon="-3.229061"><ele>403</ele><time>2022-03-30T12:15:34Z</time><name>PT3469</name></trkpt>
<trkpt lat="54.494532" lon="-3.229036"><ele>404</ele><time>2022-03-30T12:15:37Z</time><name>PT3470</name></trkpt>
<trkpt lat="54.494518" lon="-3.228996"><ele>404</ele><time>2022-03-30T12:15:40Z</time><name>PT3471</name></trkpt>
<trkpt lat="54.494503" lon="-3.228957"><ele>405</ele><time>2022-03-30T12:15:44Z</time><name>PT3472</name></trkpt>
<trkpt lat="54.494491" lon="-3.228930"><ele>405</ele><time>2022-03-30T12:15:48Z</time><name>PT3473</name></trkpt>
<trkpt lat="54.494455" lon="-3.228902"><ele>406</ele><time>2022-03-30T12:15:51Z</time><name>PT3474</name></trkpt>
<trkpt lat="54.494426" lon="-3.228882"><ele>408</ele><time>2022-03-30T12:15:54Z</time><name>PT3475</name></trkpt>
<trkpt lat="54.494409" lon="-3.228857"><ele>409</ele><time>2022-03-30T12:15:57Z</time><name>PT3476</name></trkpt>
<trkpt lat="54.494390" lon="-3.228833"><ele>409</ele><time>2022-03-30T12:16:01Z</time><name>PT3477</name></trkpt>
<trkpt lat="54.494377" lon="-3.228803"><ele>410</ele><time>2022-03-30T12:16:04Z</time><name>PT3478</name></trkpt>
<trkpt lat="54.494367" lon="-3.228773"><ele>410</ele><time>2022-03-30T12:16:07Z</time><name>PT3479</name></trkpt>
<trkpt lat="54.494356" lon="-3.228737"><ele>409</ele><time>2022-03-30T12:16:10Z</time><name>PT3480</name></trkpt>
<trkpt lat="54.494346" lon="-3.228705"><ele>409</ele><time>2022-03-30T12:16:13Z</time><name>PT3481</name></trkpt>
<trkpt lat="54.494340" lon="-3.228657"><ele>408</ele><time>2022-03-30T12:16:17Z</time><name>PT3482</name></trkpt>
<trkpt lat="54.494323" lon="-3.228633"><ele>410</ele><time>2022-03-30T12:16:20Z</time><name>PT3483</name></trkpt>
<trkpt lat="54.494316" lon="-3.228605"><ele>411</ele><time>2022-03-30T12:16:24Z</time><name>PT3484</name></trkpt>
<trkpt lat="54.494304" lon="-3.228568"><ele>411</ele><time>2022-03-30T12:16:27Z</time><name>PT3485</name></trkpt>
<trkpt lat="54.494298" lon="-3.228535"><ele>411</ele><time>2022-03-30T12:16:31Z</time><name>PT3486</name></trkpt>
<trkpt lat="54.494297" lon="-3.228496"><ele>412</ele><time>2022-03-30T12:16:35Z</time><name>PT3487</name></trkpt>
<trkpt lat="54.494290" lon="-3.228478"><ele>412</ele><time>2022-03-30T12:16:38Z</time><name>PT3488</name></trkpt>
<trkpt lat="54.494285" lon="-3.228442"><ele>413</ele><time>2022-03-30T12:16:42Z</time><name>PT3489</name></trkpt>
<trkpt lat="54.494275" lon="-3.228403"><ele>414</ele><time>2022-03-30T12:16:46Z</time><name>PT3490</name></trkpt>
<trkpt lat="54.494274" lon="-3.228376"><ele>415</ele><time>2022-03-30T12:16:49Z</time><name>PT3491</name></trkpt>
<trkpt lat="54.494257" lon="-3.228340"><ele>416</ele><time>2022-03-30T12:16:53Z</time><name>PT3492</name></trkpt>
<trkpt lat="54.494248" lon="-3.228319"><ele>417</ele><time>2022-03-30T12:16:57Z</time><name>PT3493</name></trkpt>
<trkpt lat="54.494235" lon="-3.228293"><ele>417</ele><time>2022-03-30T12:17:01Z</time><name>PT3494</name></trkpt>
<trkpt lat="54.494239" lon="-3.228249"><ele>418</ele><time>2022-03-30T12:17:05Z</time><name>PT3495</name></trkpt>
<trkpt lat="54.494239" lon="-3.228232"><ele>418</ele><time>2022-03-30T12:17:08Z</time><name>PT3496</name></trkpt>
<trkpt lat="54.494225" lon="-3.228191"><ele>419</ele><time>2022-03-30T12:17:12Z</time><name>PT3497</name></trkpt>
<trkpt lat="54.494200" lon="-3.228168"><ele>420</ele><time>2022-03-30T12:17:16Z</time><name>PT3498</name></trkpt>
<trkpt lat="54.494198" lon="-3.228134"><ele>420</ele><time>2022-03-30T12:17:25Z</time><name>PT3499</name></trkpt>
<trkpt lat="54.494189" lon="-3.228102"><ele>421</ele><time>2022-03-30T12:17:28Z</time><name>PT3500</name></trkpt>
<trkpt lat="54.494187" lon="-3.228050"><ele>421</ele><time>2022-03-30T12:17:35Z</time><name>PT3501</name></trkpt>
<trkpt lat="54.494188" lon="-3.227994"><ele>421</ele><time>2022-03-30T12:17:39Z</time><name>PT3502</name></trkpt>
<trkpt lat="54.494173" lon="-3.227946"><ele>422</ele><time>2022-03-30T12:17:43Z</time><name>PT3503</name></trkpt>
<trkpt lat="54.494149" lon="-3.227932"><ele>424</ele><time>2022-03-30T12:17:46Z</time><name>PT3504</name></trkpt>
<trkpt lat="54.494143" lon="-3.227896"><ele>425</ele><time>2022-03-30T12:17:50Z</time><name>PT3505</name></trkpt>
<trkpt lat="54.494140" lon="-3.227880"><ele>425</ele><time>2022-03-30T12:17:54Z</time><name>PT3506</name></trkpt>
<trkpt lat="54.494130" lon="-3.227855"><ele>426</ele><time>2022-03-30T12:17:57Z</time><name>PT3507</name></trkpt>
<trkpt lat="54.494129" lon="-3.227853"><ele>426</ele><time>2022-03-30T12:18:01Z</time><name>PT3508</name></trkpt>
<trkpt lat="54.494119" lon="-3.227820"><ele>426</ele><time>2022-03-30T12:18:04Z</time><name>PT3509</name></trkpt>
<trkpt lat="54.494111" lon="-3.227778"><ele>427</ele><time>2022-03-30T12:18:07Z</time><name>PT3510</name></trkpt>
<trkpt lat="54.494099" lon="-3.227746"><ele>427</ele><time>2022-03-30T12:18:10Z</time><name>PT3511</name></trkpt>
<trkpt lat="54.494078" lon="-3.227710"><ele>428</ele><time>2022-03-30T12:18:13Z</time><name>PT3512</name></trkpt>
<trkpt lat="54.494073" lon="-3.227657"><ele>429</ele><time>2022-03-30T12:18:17Z</time><name>PT3513</name></trkpt>
<trkpt lat="54.494071" lon="-3.227601"><ele>430</ele><time>2022-03-30T12:18:21Z</time><name>PT3514</name></trkpt>
<trkpt lat="54.494064" lon="-3.227567"><ele>431</ele><time>2022-03-30T12:18:24Z</time><name>PT3515</name></trkpt>
<trkpt lat="54.494059" lon="-3.227534"><ele>431</ele><time>2022-03-30T12:18:27Z</time><name>PT3516</name></trkpt>
<trkpt lat="54.494053" lon="-3.227506"><ele>431</ele><time>2022-03-30T12:18:30Z</time><name>PT3517</name></trkpt>
<trkpt lat="54.494045" lon="-3.227448"><ele>432</ele><time>2022-03-30T12:18:34Z</time><name>PT3518</name></trkpt>
<trkpt lat="54.494035" lon="-3.227419"><ele>433</ele><time>2022-03-30T12:18:37Z</time><name>PT3519</name></trkpt>
<trkpt lat="54.494028" lon="-3.227383"><ele>433</ele><time>2022-03-30T12:18:41Z</time><name>PT3520</name></trkpt>
<trkpt lat="54.494022" lon="-3.227351"><ele>433</ele><time>2022-03-30T12:18:45Z</time><name>PT3521</name></trkpt>
<trkpt lat="54.494024" lon="-3.227319"><ele>434</ele><time>2022-03-30T12:18:56Z</time><name>PT3522</name></trkpt>
<trkpt lat="54.494010" lon="-3.227286"><ele>434</ele><time>2022-03-30T12:18:59Z</time><name>PT3523</name></trkpt>
<trkpt lat="54.493996" lon="-3.227250"><ele>434</ele><time>2022-03-30T12:19:02Z</time><name>PT3524</name></trkpt>
<trkpt lat="54.493978" lon="-3.227223"><ele>434</ele><time>2022-03-30T12:19:06Z</time><name>PT3525</name></trkpt>
<trkpt lat="54.493961" lon="-3.227187"><ele>434</ele><time>2022-03-30T12:19:10Z</time><name>PT3526</name></trkpt>
<trkpt lat="54.493939" lon="-3.227156"><ele>435</ele><time>2022-03-30T12:19:13Z</time><name>PT3527</name></trkpt>
<trkpt lat="54.493923" lon="-3.227130"><ele>436</ele><time>2022-03-30T12:19:16Z</time><name>PT3528</name></trkpt>
<trkpt lat="54.493909" lon="-3.227100"><ele>437</ele><time>2022-03-30T12:19:20Z</time><name>PT3529</name></trkpt>
<trkpt lat="54.493886" lon="-3.227072"><ele>439</ele><time>2022-03-30T12:19:23Z</time><name>PT3530</name></trkpt>
<trkpt lat="54.493865" lon="-3.227052"><ele>441</ele><time>2022-03-30T12:19:27Z</time><name>PT3531</name></trkpt>
<trkpt lat="54.493848" lon="-3.227033"><ele>442</ele><time>2022-03-30T12:19:30Z</time><name>PT3532</name></trkpt>
<trkpt lat="54.493834" lon="-3.227010"><ele>443</ele><time>2022-03-30T12:19:33Z</time><name>PT3533</name></trkpt>
<trkpt lat="54.493817" lon="-3.226978"><ele>445</ele><time>2022-03-30T12:19:37Z</time><name>PT3534</name></trkpt>
<trkpt lat="54.493793" lon="-3.226951"><ele>447</ele><time>2022-03-30T12:19:41Z</time><name>PT3535</name></trkpt>
<trkpt lat="54.493786" lon="-3.226943"><ele>448</ele><time>2022-03-30T12:19:45Z</time><name>PT3536</name></trkpt>
<trkpt lat="54.493781" lon="-3.226929"><ele>449</ele><time>2022-03-30T12:20:02Z</time><name>PT3537</name></trkpt>
<trkpt lat="54.493770" lon="-3.226905"><ele>450</ele><time>2022-03-30T12:20:06Z</time><name>PT3538</name></trkpt>
<trkpt lat="54.493738" lon="-3.226884"><ele>452</ele><time>2022-03-30T12:20:11Z</time><name>PT3539</name></trkpt>
<trkpt lat="54.493728" lon="-3.226872"><ele>452</ele><time>2022-03-30T12:20:14Z</time><name>PT3540</name></trkpt>
<trkpt lat="54.493727" lon="-3.226866"><ele>453</ele><time>2022-03-30T12:20:17Z</time><name>PT3541</name></trkpt>
<trkpt lat="54.493709" lon="-3.226840"><ele>454</ele><time>2022-03-30T12:20:21Z</time><name>PT3542</name></trkpt>
<trkpt lat="54.493693" lon="-3.226813"><ele>455</ele><time>2022-03-30T12:20:24Z</time><name>PT3543</name></trkpt>
<trkpt lat="54.493677" lon="-3.226791"><ele>455</ele><time>2022-03-30T12:20:28Z</time><name>PT3544</name></trkpt>
<trkpt lat="54.493653" lon="-3.226791"><ele>457</ele><time>2022-03-30T12:20:32Z</time><name>PT3545</name></trkpt>
<trkpt lat="54.493630" lon="-3.226769"><ele>457</ele><time>2022-03-30T12:20:36Z</time><name>PT3546</name></trkpt>
<trkpt lat="54.493611" lon="-3.226755"><ele>459</ele><time>2022-03-30T12:20:41Z</time><name>PT3547</name></trkpt>
<trkpt lat="54.493605" lon="-3.226752"><ele>460</ele><time>2022-03-30T12:20:41Z</time><name>PT3548</name></trkpt>
<trkpt lat="54.493598" lon="-3.226748"><ele>460</ele><time>2022-03-30T12:20:42Z</time><name>PT3549</name></trkpt>
<trkpt lat="54.493593" lon="-3.226743"><ele>460</ele><time>2022-03-30T12:20:43Z</time><name>PT3550</name></trkpt>
<trkpt lat="54.493587" lon="-3.226739"><ele>461</ele><time>2022-03-30T12:20:44Z</time><name>PT3551</name></trkpt>
<trkpt lat="54.493576" lon="-3.226734"><ele>460</ele><time>2022-03-30T12:20:45Z</time><name>PT3552</name></trkpt>
<trkpt lat="54.493572" lon="-3.226728"><ele>460</ele><time>2022-03-30T12:20:46Z</time><name>PT3553</name></trkpt>
<trkpt lat="54.493571" lon="-3.226729"><ele>460</ele><time>2022-03-30T12:20:51Z</time><name>PT3554</name></trkpt>
<trkpt lat="54.493568" lon="-3.226714"><ele>460</ele><time>2022-03-30T12:20:52Z</time><name>PT3555</name></trkpt>
<trkpt lat="54.493563" lon="-3.226706"><ele>461</ele><time>2022-03-30T12:20:53Z</time><name>PT3556</name></trkpt>
<trkpt lat="54.493557" lon="-3.226695"><ele>461</ele><time>2022-03-30T12:20:54Z</time><name>PT3557</name></trkpt>
<trkpt lat="54.493555" lon="-3.226688"><ele>461</ele><time>2022-03-30T12:20:55Z</time><name>PT3558</name></trkpt>
<trkpt lat="54.493551" lon="-3.226684"><ele>461</ele><time>2022-03-30T12:20:56Z</time><name>PT3559</name></trkpt>
<trkpt lat="54.493549" lon="-3.226681"><ele>461</ele><time>2022-03-30T12:20:57Z</time><name>PT3560</name></trkpt>
<trkpt lat="54.493544" lon="-3.226675"><ele>462</ele><time>2022-03-30T12:20:58Z</time><name>PT3561</name></trkpt>
<trkpt lat="54.493542" lon="-3.226620"><ele>464</ele><time>2022-03-30T12:21:43Z</time><name>PT3562</name></trkpt>
<trkpt lat="54.493529" lon="-3.226597"><ele>466</ele><time>2022-03-30T12:21:44Z</time><name>PT3563</name></trkpt>
<trkpt lat="54.493524" lon="-3.226556"><ele>467</ele><time>2022-03-30T12:21:45Z</time><name>PT3564</name></trkpt>
<trkpt lat="54.493521" lon="-3.226536"><ele>467</ele><time>2022-03-30T12:21:46Z</time><name>PT3565</name></trkpt>
<trkpt lat="54.493518" lon="-3.226519"><ele>468</ele><time>2022-03-30T12:21:47Z</time><name>PT3566</name></trkpt>
<trkpt lat="54.493514" lon="-3.226504"><ele>468</ele><time>2022-03-30T12:21:48Z</time><name>PT3567</name></trkpt>
<trkpt lat="54.493514" lon="-3.226487"><ele>469</ele><time>2022-03-30T12:21:49Z</time><name>PT3568</name></trkpt>
<trkpt lat="54.493511" lon="-3.226468"><ele>469</ele><time>2022-03-30T12:21:50Z</time><name>PT3569</name></trkpt>
<trkpt lat="54.493505" lon="-3.226456"><ele>468</ele><time>2022-03-30T12:21:51Z</time><name>PT3570</name></trkpt>
<trkpt lat="54.493500" lon="-3.226444"><ele>469</ele><time>2022-03-30T12:21:53Z</time><name>PT3571</name></trkpt>
<trkpt lat="54.493495" lon="-3.226424"><ele>469</ele><time>2022-03-30T12:21:53Z</time><name>PT3572</name></trkpt>
<trkpt lat="54.493492" lon="-3.226409"><ele>470</ele><time>2022-03-30T12:21:54Z</time><name>PT3573</name></trkpt>
<trkpt lat="54.493491" lon="-3.226391"><ele>470</ele><time>2022-03-30T12:21:55Z</time><name>PT3574</name></trkpt>
<trkpt lat="54.493488" lon="-3.226378"><ele>470</ele><time>2022-03-30T12:21:56Z</time><name>PT3575</name></trkpt>
<trkpt lat="54.493480" lon="-3.226367"><ele>470</ele><time>2022-03-30T12:21:57Z</time><name>PT3576</name></trkpt>
<trkpt lat="54.493478" lon="-3.226357"><ele>470</ele><time>2022-03-30T12:21:58Z</time><name>PT3577</name></trkpt>
<trkpt lat="54.493478" lon="-3.226342"><ele>471</ele><time>2022-03-30T12:22:02Z</time><name>PT3578</name></trkpt>
<trkpt lat="54.493481" lon="-3.226312"><ele>471</ele><time>2022-03-30T12:22:03Z</time><name>PT3579</name></trkpt>
<trkpt lat="54.493468" lon="-3.226307"><ele>471</ele><time>2022-03-30T12:22:05Z</time><name>PT3580</name></trkpt>
<trkpt lat="54.493462" lon="-3.226299"><ele>471</ele><time>2022-03-30T12:22:05Z</time><name>PT3581</name></trkpt>
<trkpt lat="54.493456" lon="-3.226290"><ele>471</ele><time>2022-03-30T12:22:06Z</time><name>PT3582</name></trkpt>
<trkpt lat="54.493452" lon="-3.226279"><ele>471</ele><time>2022-03-30T12:22:07Z</time><name>PT3583</name></trkpt>
<trkpt lat="54.493449" lon="-3.226270"><ele>471</ele><time>2022-03-30T12:22:08Z</time><name>PT3584</name></trkpt>
<trkpt lat="54.493447" lon="-3.226260"><ele>470</ele><time>2022-03-30T12:22:09Z</time><name>PT3585</name></trkpt>
<trkpt lat="54.493442" lon="-3.226250"><ele>470</ele><time>2022-03-30T12:22:10Z</time><name>PT3586</name></trkpt>
<trkpt lat="54.493433" lon="-3.226233"><ele>470</ele><time>2022-03-30T12:22:11Z</time><name>PT3587</name></trkpt>
<trkpt lat="54.493430" lon="-3.226224"><ele>470</ele><time>2022-03-30T12:22:12Z</time><name>PT3588</name></trkpt>
<trkpt lat="54.493424" lon="-3.226212"><ele>470</ele><time>2022-03-30T12:22:13Z</time><name>PT3589</name></trkpt>
<trkpt lat="54.493419" lon="-3.226199"><ele>471</ele><time>2022-03-30T12:22:14Z</time><name>PT3590</name></trkpt>
<trkpt lat="54.493415" lon="-3.226187"><ele>471</ele><time>2022-03-30T12:22:15Z</time><name>PT3591</name></trkpt>
<trkpt lat="54.493409" lon="-3.226178"><ele>472</ele><time>2022-03-30T12:22:17Z</time><name>PT3592</name></trkpt>
<trkpt lat="54.493403" lon="-3.226165"><ele>472</ele><time>2022-03-30T12:22:17Z</time><name>PT3593</name></trkpt>
<trkpt lat="54.493400" lon="-3.226151"><ele>472</ele><time>2022-03-30T12:22:18Z</time><name>PT3594</name></trkpt>
<trkpt lat="54.493396" lon="-3.226139"><ele>473</ele><time>2022-03-30T12:22:19Z</time><name>PT3595</name></trkpt>
<trkpt lat="54.493392" lon="-3.226131"><ele>473</ele><time>2022-03-30T12:22:20Z</time><name>PT3596</name></trkpt>
<trkpt lat="54.493387" lon="-3.226120"><ele>473</ele><time>2022-03-30T12:22:21Z</time><name>PT3597</name></trkpt>
<trkpt lat="54.493382" lon="-3.226109"><ele>473</ele><time>2022-03-30T12:22:22Z</time><name>PT3598</name></trkpt>
<trkpt lat="54.493378" lon="-3.226098"><ele>474</ele><time>2022-03-30T12:22:23Z</time><name>PT3599</name></trkpt>
<trkpt lat="54.493375" lon="-3.226088"><ele>474</ele><time>2022-03-30T12:22:24Z</time><name>PT3600</name></trkpt>
<trkpt lat="54.493370" lon="-3.226077"><ele>475</ele><time>2022-03-30T12:22:25Z</time><name>PT3601</name></trkpt>
<trkpt lat="54.493364" lon="-3.226068"><ele>475</ele><time>2022-03-30T12:22:26Z</time><name>PT3602</name></trkpt>
<trkpt lat="54.493362" lon="-3.226062"><ele>475</ele><time>2022-03-30T12:22:27Z</time><name>PT3603</name></trkpt>
<trkpt lat="54.493359" lon="-3.226053"><ele>475</ele><time>2022-03-30T12:22:28Z</time><name>PT3604</name></trkpt>
<trkpt lat="54.493356" lon="-3.226042"><ele>476</ele><time>2022-03-30T12:22:29Z</time><name>PT3605</name></trkpt>
<trkpt lat="54.493353" lon="-3.226034"><ele>476</ele><time>2022-03-30T12:22:30Z</time><name>PT3606</name></trkpt>
<trkpt lat="54.493352" lon="-3.226026"><ele>476</ele><time>2022-03-30T12:22:31Z</time><name>PT3607</name></trkpt>
<trkpt lat="54.493349" lon="-3.226018"><ele>475</ele><time>2022-03-30T12:22:32Z</time><name>PT3608</name></trkpt>
<trkpt lat="54.493346" lon="-3.226009"><ele>476</ele><time>2022-03-30T12:22:33Z</time><name>PT3609</name></trkpt>
<trkpt lat="54.493338" lon="-3.226001"><ele>476</ele><time>2022-03-30T12:22:34Z</time><name>PT3610</name></trkpt>
<trkpt lat="54.493333" lon="-3.225993"><ele>476</ele><time>2022-03-30T12:22:35Z</time><name>PT3611</name></trkpt>
<trkpt lat="54.493329" lon="-3.225984"><ele>477</ele><time>2022-03-30T12:22:36Z</time><name>PT3612</name></trkpt>
<trkpt lat="54.493328" lon="-3.225976"><ele>477</ele><time>2022-03-30T12:22:37Z</time><name>PT3613</name></trkpt>
<trkpt lat="54.493328" lon="-3.225970"><ele>477</ele><time>2022-03-30T12:22:38Z</time><name>PT3614</name></trkpt>
<trkpt lat="54.493327" lon="-3.225961"><ele>477</ele><time>2022-03-30T12:22:39Z</time><name>PT3615</name></trkpt>
<trkpt lat="54.493311" lon="-3.225897"><ele>479</ele><time>2022-03-30T12:22:54Z</time><name>PT3616</name></trkpt>
<trkpt lat="54.493301" lon="-3.225863"><ele>481</ele><time>2022-03-30T12:22:58Z</time><name>PT3617</name></trkpt>
<trkpt lat="54.493299" lon="-3.225835"><ele>480</ele><time>2022-03-30T12:23:01Z</time><name>PT3618</name></trkpt>
<trkpt lat="54.493295" lon="-3.225807"><ele>481</ele><time>2022-03-30T12:23:04Z</time><name>PT3619</name></trkpt>
<trkpt lat="54.493283" lon="-3.225779"><ele>482</ele><time>2022-03-30T12:23:08Z</time><name>PT3620</name></trkpt>
<trkpt lat="54.493278" lon="-3.225751"><ele>483</ele><time>2022-03-30T12:23:11Z</time><name>PT3621</name></trkpt>
<trkpt lat="54.493266" lon="-3.225718"><ele>485</ele><time>2022-03-30T12:23:15Z</time><name>PT3622</name></trkpt>
<trkpt lat="54.493261" lon="-3.225693"><ele>485</ele><time>2022-03-30T12:23:18Z</time><name>PT3623</name></trkpt>
<trkpt lat="54.493260" lon="-3.225683"><ele>485</ele><time>2022-03-30T12:23:20Z</time><name>PT3624</name></trkpt>
<trkpt lat="54.493257" lon="-3.225673"><ele>485</ele><time>2022-03-30T12:23:20Z</time><name>PT3625</name></trkpt>
<trkpt lat="54.493256" lon="-3.225668"><ele>486</ele><time>2022-03-30T12:23:21Z</time><name>PT3626</name></trkpt>
<trkpt lat="54.493256" lon="-3.225660"><ele>485</ele><time>2022-03-30T12:23:22Z</time><name>PT3627</name></trkpt>
<trkpt lat="54.493257" lon="-3.225651"><ele>485</ele><time>2022-03-30T12:23:23Z</time><name>PT3628</name></trkpt>
<trkpt lat="54.493258" lon="-3.225645"><ele>485</ele><time>2022-03-30T12:23:24Z</time><name>PT3629</name></trkpt>
<trkpt lat="54.493258" lon="-3.225640"><ele>487</ele><time>2022-03-30T12:23:31Z</time><name>PT3630</name></trkpt>
<trkpt lat="54.493256" lon="-3.225636"><ele>487</ele><time>2022-03-30T12:23:32Z</time><name>PT3631</name></trkpt>
<trkpt lat="54.493253" lon="-3.225627"><ele>487</ele><time>2022-03-30T12:23:33Z</time><name>PT3632</name></trkpt>
<trkpt lat="54.493249" lon="-3.225621"><ele>487</ele><time>2022-03-30T12:23:34Z</time><name>PT3633</name></trkpt>
<trkpt lat="54.493247" lon="-3.225614"><ele>487</ele><time>2022-03-30T12:23:38Z</time><name>PT3634</name></trkpt>
<trkpt lat="54.493240" lon="-3.225600"><ele>487</ele><time>2022-03-30T12:23:39Z</time><name>PT3635</name></trkpt>
<trkpt lat="54.493236" lon="-3.225579"><ele>487</ele><time>2022-03-30T12:23:40Z</time><name>PT3636</name></trkpt>
<trkpt lat="54.493233" lon="-3.225559"><ele>487</ele><time>2022-03-30T12:23:41Z</time><name>PT3637</name></trkpt>
<trkpt lat="54.493230" lon="-3.225550"><ele>488</ele><time>2022-03-30T12:23:42Z</time><name>PT3638</name></trkpt>
<trkpt lat="54.493227" lon="-3.225547"><ele>488</ele><time>2022-03-30T12:23:43Z</time><name>PT3639</name></trkpt>
<trkpt lat="54.493224" lon="-3.225541"><ele>488</ele><time>2022-03-30T12:23:44Z</time><name>PT3640</name></trkpt>
<trkpt lat="54.493220" lon="-3.225536"><ele>488</ele><time>2022-03-30T12:23:45Z</time><name>PT3641</name></trkpt>
<trkpt lat="54.493216" lon="-3.225532"><ele>489</ele><time>2022-03-30T12:23:47Z</time><name>PT3642</name></trkpt>
<trkpt lat="54.493210" lon="-3.225523"><ele>490</ele><time>2022-03-30T12:23:50Z</time><name>PT3643</name></trkpt>
<trkpt lat="54.493206" lon="-3.225516"><ele>490</ele><time>2022-03-30T12:23:51Z</time><name>PT3644</name></trkpt>
<trkpt lat="54.493202" lon="-3.225502"><ele>490</ele><time>2022-03-30T12:23:52Z</time><name>PT3645</name></trkpt>
<trkpt lat="54.493199" lon="-3.225492"><ele>491</ele><time>2022-03-30T12:23:53Z</time><name>PT3646</name></trkpt>
<trkpt lat="54.493198" lon="-3.225484"><ele>491</ele><time>2022-03-30T12:23:54Z</time><name>PT3647</name></trkpt>
<trkpt lat="54.493196" lon="-3.225478"><ele>491</ele><time>2022-03-30T12:23:55Z</time><name>PT3648</name></trkpt>
<trkpt lat="54.493194" lon="-3.225469"><ele>491</ele><time>2022-03-30T12:23:56Z</time><name>PT3649</name></trkpt>
<trkpt lat="54.493197" lon="-3.225465"><ele>492</ele><time>2022-03-30T12:23:57Z</time><name>PT3650</name></trkpt>
<trkpt lat="54.493196" lon="-3.225458"><ele>492</ele><time>2022-03-30T12:23:59Z</time><name>PT3651</name></trkpt>
<trkpt lat="54.493194" lon="-3.225442"><ele>492</ele><time>2022-03-30T12:24:08Z</time><name>PT3652</name></trkpt>
<trkpt lat="54.493193" lon="-3.225422"><ele>493</ele><time>2022-03-30T12:24:09Z</time><name>PT3653</name></trkpt>
<trkpt lat="54.493195" lon="-3.225377"><ele>494</ele><time>2022-03-30T12:24:23Z</time><name>PT3654</name></trkpt>
<trkpt lat="54.493193" lon="-3.225354"><ele>494</ele><time>2022-03-30T12:24:23Z</time><name>PT3655</name></trkpt>
<trkpt lat="54.493193" lon="-3.225315"><ele>494</ele><time>2022-03-30T12:24:24Z</time><name>PT3656</name></trkpt>
<trkpt lat="54.493187" lon="-3.225298"><ele>495</ele><time>2022-03-30T12:24:25Z</time><name>PT3657</name></trkpt>
<trkpt lat="54.493181" lon="-3.225283"><ele>495</ele><time>2022-03-30T12:24:26Z</time><name>PT3658</name></trkpt>
<trkpt lat="54.493178" lon="-3.225267"><ele>496</ele><time>2022-03-30T12:24:27Z</time><name>PT3659</name></trkpt>
<trkpt lat="54.493174" lon="-3.225259"><ele>496</ele><time>2022-03-30T12:24:28Z</time><name>PT3660</name></trkpt>
<trkpt lat="54.493170" lon="-3.225250"><ele>496</ele><time>2022-03-30T12:24:29Z</time><name>PT3661</name></trkpt>
<trkpt lat="54.493170" lon="-3.225245"><ele>497</ele><time>2022-03-30T12:24:30Z</time><name>PT3662</name></trkpt>
<trkpt lat="54.493168" lon="-3.225245"><ele>497</ele><time>2022-03-30T12:24:31Z</time><name>PT3663</name></trkpt>
<trkpt lat="54.493161" lon="-3.225248"><ele>498</ele><time>2022-03-30T12:24:32Z</time><name>PT3664</name></trkpt>
<trkpt lat="54.493154" lon="-3.225242"><ele>498</ele><time>2022-03-30T12:24:33Z</time><name>PT3665</name></trkpt>
<trkpt lat="54.493149" lon="-3.225237"><ele>499</ele><time>2022-03-30T12:24:34Z</time><name>PT3666</name></trkpt>
<trkpt lat="54.493141" lon="-3.225232"><ele>499</ele><time>2022-03-30T12:24:35Z</time><name>PT3667</name></trkpt>
<trkpt lat="54.493128" lon="-3.225221"><ele>500</ele><time>2022-03-30T12:24:36Z</time><name>PT3668</name></trkpt>
<trkpt lat="54.493122" lon="-3.225213"><ele>500</ele><time>2022-03-30T12:24:37Z</time><name>PT3669</name></trkpt>
<trkpt lat="54.493116" lon="-3.225209"><ele>500</ele><time>2022-03-30T12:24:38Z</time><name>PT3670</name></trkpt>
<trkpt lat="54.493113" lon="-3.225203"><ele>500</ele><time>2022-03-30T12:24:39Z</time><name>PT3671</name></trkpt>
<trkpt lat="54.493110" lon="-3.225198"><ele>500</ele><time>2022-03-30T12:24:40Z</time><name>PT3672</name></trkpt>
<trkpt lat="54.493104" lon="-3.225195"><ele>500</ele><time>2022-03-30T12:24:41Z</time><name>PT3673</name></trkpt>
<trkpt lat="54.493100" lon="-3.225189"><ele>500</ele><time>2022-03-30T12:24:42Z</time><name>PT3674</name></trkpt>
<trkpt lat="54.493095" lon="-3.225184"><ele>501</ele><time>2022-03-30T12:24:43Z</time><name>PT3675</name></trkpt>
<trkpt lat="54.493090" lon="-3.225180"><ele>501</ele><time>2022-03-30T12:24:44Z</time><name>PT3676</name></trkpt>
<trkpt lat="54.493088" lon="-3.225174"><ele>501</ele><time>2022-03-30T12:24:45Z</time><name>PT3677</name></trkpt>
<trkpt lat="54.493083" lon="-3.225168"><ele>501</ele><time>2022-03-30T12:24:46Z</time><name>PT3678</name></trkpt>
<trkpt lat="54.493070" lon="-3.225161"><ele>502</ele><time>2022-03-30T12:25:04Z</time><name>PT3679</name></trkpt>
<trkpt lat="54.493062" lon="-3.225134"><ele>503</ele><time>2022-03-30T12:25:05Z</time><name>PT3680</name></trkpt>
<trkpt lat="54.493055" lon="-3.225124"><ele>503</ele><time>2022-03-30T12:25:06Z</time><name>PT3681</name></trkpt>
<trkpt lat="54.493049" lon="-3.225105"><ele>504</ele><time>2022-03-30T12:25:07Z</time><name>PT3682</name></trkpt>
<trkpt lat="54.493045" lon="-3.225088"><ele>504</ele><time>2022-03-30T12:25:08Z</time><name>PT3683</name></trkpt>
<trkpt lat="54.493038" lon="-3.225075"><ele>504</ele><time>2022-03-30T12:25:09Z</time><name>PT3684</name></trkpt>
<trkpt lat="54.493031" lon="-3.225070"><ele>505</ele><time>2022-03-30T12:25:10Z</time><name>PT3685</name></trkpt>
<trkpt lat="54.493025" lon="-3.225058"><ele>504</ele><time>2022-03-30T12:25:11Z</time><name>PT3686</name></trkpt>
<trkpt lat="54.493018" lon="-3.225048"><ele>505</ele><time>2022-03-30T12:25:12Z</time><name>PT3687</name></trkpt>
<trkpt lat="54.493010" lon="-3.225037"><ele>505</ele><time>2022-03-30T12:25:14Z</time><name>PT3688</name></trkpt>
<trkpt lat="54.493004" lon="-3.225026"><ele>505</ele><time>2022-03-30T12:25:14Z</time><name>PT3689</name></trkpt>
<trkpt lat="54.493000" lon="-3.225015"><ele>506</ele><time>2022-03-30T12:25:15Z</time><name>PT3690</name></trkpt>
<trkpt lat="54.492990" lon="-3.225003"><ele>506</ele><time>2022-03-30T12:25:16Z</time><name>PT3691</name></trkpt>
<trkpt lat="54.492983" lon="-3.224991"><ele>506</ele><time>2022-03-30T12:25:17Z</time><name>PT3692</name></trkpt>
<trkpt lat="54.492957" lon="-3.224950"><ele>506</ele><time>2022-03-30T12:25:21Z</time><name>PT3693</name></trkpt>
<trkpt lat="54.492934" lon="-3.224923"><ele>507</ele><time>2022-03-30T12:25:24Z</time><name>PT3694</name></trkpt>
<trkpt lat="54.492908" lon="-3.224890"><ele>509</ele><time>2022-03-30T12:25:28Z</time><name>PT3695</name></trkpt>
<trkpt lat="54.492892" lon="-3.224865"><ele>510</ele><time>2022-03-30T12:25:31Z</time><name>PT3696</name></trkpt>
<trkpt lat="54.492878" lon="-3.224832"><ele>510</ele><time>2022-03-30T12:25:35Z</time><name>PT3697</name></trkpt>
<trkpt lat="54.492863" lon="-3.224807"><ele>510</ele><time>2022-03-30T12:25:38Z</time><name>PT3698</name></trkpt>
<trkpt lat="54.492848" lon="-3.224779"><ele>510</ele><time>2022-03-30T12:25:41Z</time><name>PT3699</name></trkpt>
<trkpt lat="54.492838" lon="-3.224749"><ele>511</ele><time>2022-03-30T12:25:45Z</time><name>PT3700</name></trkpt>
<trkpt lat="54.492827" lon="-3.224723"><ele>511</ele><time>2022-03-30T12:25:48Z</time><name>PT3701</name></trkpt>
<trkpt lat="54.492821" lon="-3.224694"><ele>512</ele><time>2022-03-30T12:25:51Z</time><name>PT3702</name></trkpt>
<trkpt lat="54.492818" lon="-3.224687"><ele>512</ele><time>2022-03-30T12:25:55Z</time><name>PT3703</name></trkpt>
<trkpt lat="54.492816" lon="-3.224677"><ele>512</ele><time>2022-03-30T12:25:58Z</time><name>PT3704</name></trkpt>
<trkpt lat="54.492807" lon="-3.224640"><ele>514</ele><time>2022-03-30T12:26:01Z</time><name>PT3705</name></trkpt>
<trkpt lat="54.492798" lon="-3.224611"><ele>515</ele><time>2022-03-30T12:26:04Z</time><name>PT3706</name></trkpt>
<trkpt lat="54.492796" lon="-3.224570"><ele>515</ele><time>2022-03-30T12:26:08Z</time><name>PT3707</name></trkpt>
<trkpt lat="54.492780" lon="-3.224527"><ele>516</ele><time>2022-03-30T12:26:12Z</time><name>PT3708</name></trkpt>
<trkpt lat="54.492765" lon="-3.224491"><ele>517</ele><time>2022-03-30T12:26:17Z</time><name>PT3709</name></trkpt>
<trkpt lat="54.492748" lon="-3.224457"><ele>518</ele><time>2022-03-30T12:26:20Z</time><name>PT3710</name></trkpt>
<trkpt lat="54.492733" lon="-3.224429"><ele>518</ele><time>2022-03-30T12:26:24Z</time><name>PT3711</name></trkpt>
<trkpt lat="54.492723" lon="-3.224409"><ele>519</ele><time>2022-03-30T12:26:27Z</time><name>PT3712</name></trkpt>
<trkpt lat="54.492715" lon="-3.224392"><ele>522</ele><time>2022-03-30T12:26:30Z</time><name>PT3713</name></trkpt>
<trkpt lat="54.492713" lon="-3.224360"><ele>523</ele><time>2022-03-30T12:26:44Z</time><name>PT3714</name></trkpt>
<trkpt lat="54.492700" lon="-3.224315"><ele>523</ele><time>2022-03-30T12:26:47Z</time><name>PT3715</name></trkpt>
<trkpt lat="54.492680" lon="-3.224281"><ele>524</ele><time>2022-03-30T12:26:51Z</time><name>PT3716</name></trkpt>
<trkpt lat="54.492676" lon="-3.224275"><ele>524</ele><time>2022-03-30T12:26:54Z</time><name>PT3717</name></trkpt>
<trkpt lat="54.492674" lon="-3.224263"><ele>524</ele><time>2022-03-30T12:26:58Z</time><name>PT3718</name></trkpt>
<trkpt lat="54.492660" lon="-3.224214"><ele>524</ele><time>2022-03-30T12:27:02Z</time><name>PT3719</name></trkpt>
<trkpt lat="54.492637" lon="-3.224180"><ele>525</ele><time>2022-03-30T12:27:06Z</time><name>PT3720</name></trkpt>
<trkpt lat="54.492627" lon="-3.224145"><ele>525</ele><time>2022-03-30T12:27:10Z</time><name>PT3721</name></trkpt>
<trkpt lat="54.492614" lon="-3.224108"><ele>526</ele><time>2022-03-30T12:27:14Z</time><name>PT3722</name></trkpt>
<trkpt lat="54.492609" lon="-3.224102"><ele>527</ele><time>2022-03-30T12:27:17Z</time><name>PT3723</name></trkpt>
<trkpt lat="54.492595" lon="-3.224079"><ele>528</ele><time>2022-03-30T12:27:21Z</time><name>PT3724</name></trkpt>
<trkpt lat="54.492580" lon="-3.224066"><ele>529</ele><time>2022-03-30T12:27:24Z</time><name>PT3725</name></trkpt>
<trkpt lat="54.492568" lon="-3.224059"><ele>528</ele><time>2022-03-30T12:27:27Z</time><name>PT3726</name></trkpt>
<trkpt lat="54.492553" lon="-3.224054"><ele>529</ele><time>2022-03-30T12:27:31Z</time><name>PT3727</name></trkpt>
<trkpt lat="54.492546" lon="-3.224052"><ele>529</ele><time>2022-03-30T12:27:32Z</time><name>PT3728</name></trkpt>
<trkpt lat="54.492543" lon="-3.224051"><ele>530</ele><time>2022-03-30T12:27:33Z</time><name>PT3729</name></trkpt>
<trkpt lat="54.492539" lon="-3.224052"><ele>529</ele><time>2022-03-30T12:27:34Z</time><name>PT3730</name></trkpt>
<trkpt lat="54.492531" lon="-3.224045"><ele>529</ele><time>2022-03-30T12:27:35Z</time><name>PT3731</name></trkpt>
<trkpt lat="54.492526" lon="-3.224043"><ele>530</ele><time>2022-03-30T12:27:36Z</time><name>PT3732</name></trkpt>
<trkpt lat="54.492524" lon="-3.224039"><ele>530</ele><time>2022-03-30T12:27:37Z</time><name>PT3733</name></trkpt>
<trkpt lat="54.492523" lon="-3.224035"><ele>530</ele><time>2022-03-30T12:27:38Z</time><name>PT3734</name></trkpt>
<trkpt lat="54.492521" lon="-3.224028"><ele>531</ele><time>2022-03-30T12:27:42Z</time><name>PT3735</name></trkpt>
<trkpt lat="54.492517" lon="-3.224021"><ele>531</ele><time>2022-03-30T12:27:43Z</time><name>PT3736</name></trkpt>
<trkpt lat="54.492510" lon="-3.224013"><ele>531</ele><time>2022-03-30T12:27:44Z</time><name>PT3737</name></trkpt>
<trkpt lat="54.492502" lon="-3.224005"><ele>532</ele><time>2022-03-30T12:27:45Z</time><name>PT3738</name></trkpt>
<trkpt lat="54.492494" lon="-3.223996"><ele>532</ele><time>2022-03-30T12:27:46Z</time><name>PT3739</name></trkpt>
<trkpt lat="54.492488" lon="-3.223987"><ele>532</ele><time>2022-03-30T12:27:47Z</time><name>PT3740</name></trkpt>
<trkpt lat="54.492482" lon="-3.223979"><ele>532</ele><time>2022-03-30T12:27:48Z</time><name>PT3741</name></trkpt>
<trkpt lat="54.492480" lon="-3.223967"><ele>533</ele><time>2022-03-30T12:27:49Z</time><name>PT3742</name></trkpt>
<trkpt lat="54.492474" lon="-3.223958"><ele>533</ele><time>2022-03-30T12:27:50Z</time><name>PT3743</name></trkpt>
<trkpt lat="54.492466" lon="-3.223950"><ele>533</ele><time>2022-03-30T12:27:51Z</time><name>PT3744</name></trkpt>
<trkpt lat="54.492462" lon="-3.223943"><ele>533</ele><time>2022-03-30T12:27:52Z</time><name>PT3745</name></trkpt>
<trkpt lat="54.492456" lon="-3.223934"><ele>533</ele><time>2022-03-30T12:27:53Z</time><name>PT3746</name></trkpt>
<trkpt lat="54.492450" lon="-3.223925"><ele>533</ele><time>2022-03-30T12:27:54Z</time><name>PT3747</name></trkpt>
<trkpt lat="54.492445" lon="-3.223916"><ele>533</ele><time>2022-03-30T12:27:55Z</time><name>PT3748</name></trkpt>
<trkpt lat="54.492439" lon="-3.223906"><ele>534</ele><time>2022-03-30T12:27:56Z</time><name>PT3749</name></trkpt>
<trkpt lat="54.492433" lon="-3.223898"><ele>534</ele><time>2022-03-30T12:27:57Z</time><name>PT3750</name></trkpt>
<trkpt lat="54.492428" lon="-3.223885"><ele>534</ele><time>2022-03-30T12:27:58Z</time><name>PT3751</name></trkpt>
<trkpt lat="54.492422" lon="-3.223874"><ele>534</ele><time>2022-03-30T12:27:59Z</time><name>PT3752</name></trkpt>
<trkpt lat="54.492420" lon="-3.223865"><ele>534</ele><time>2022-03-30T12:28:00Z</time><name>PT3753</name></trkpt>
<trkpt lat="54.492417" lon="-3.223854"><ele>534</ele><time>2022-03-30T12:28:02Z</time><name>PT3754</name></trkpt>
<trkpt lat="54.492413" lon="-3.223846"><ele>534</ele><time>2022-03-30T12:28:02Z</time><name>PT3755</name></trkpt>
<trkpt lat="54.492409" lon="-3.223838"><ele>534</ele><time>2022-03-30T12:28:03Z</time><name>PT3756</name></trkpt>
<trkpt lat="54.492405" lon="-3.223828"><ele>535</ele><time>2022-03-30T12:28:04Z</time><name>PT3757</name></trkpt>
<trkpt lat="54.492400" lon="-3.223819"><ele>534</ele><time>2022-03-30T12:28:05Z</time><name>PT3758</name></trkpt>
<trkpt lat="54.492397" lon="-3.223811"><ele>535</ele><time>2022-03-30T12:28:06Z</time><name>PT3759</name></trkpt>
<trkpt lat="54.492392" lon="-3.223802"><ele>535</ele><time>2022-03-30T12:28:07Z</time><name>PT3760</name></trkpt>
<trkpt lat="54.492385" lon="-3.223793"><ele>535</ele><time>2022-03-30T12:28:08Z</time><name>PT3761</name></trkpt>
<trkpt lat="54.492380" lon="-3.223784"><ele>535</ele><time>2022-03-30T12:28:09Z</time><name>PT3762</name></trkpt>
<trkpt lat="54.492374" lon="-3.223777"><ele>536</ele><time>2022-03-30T12:28:11Z</time><name>PT3763</name></trkpt>
<trkpt lat="54.492370" lon="-3.223769"><ele>536</ele><time>2022-03-30T12:28:11Z</time><name>PT3764</name></trkpt>
<trkpt lat="54.492369" lon="-3.223768"><ele>536</ele><time>2022-03-30T12:28:12Z</time><name>PT3765</name></trkpt>
<trkpt lat="54.492366" lon="-3.223762"><ele>537</ele><time>2022-03-30T12:28:13Z</time><name>PT3766</name></trkpt>
<trkpt lat="54.492358" lon="-3.223756"><ele>537</ele><time>2022-03-30T12:28:14Z</time><name>PT3767</name></trkpt>
<trkpt lat="54.492353" lon="-3.223752"><ele>537</ele><time>2022-03-30T12:28:15Z</time><name>PT3768</name></trkpt>
<trkpt lat="54.492349" lon="-3.223748"><ele>537</ele><time>2022-03-30T12:28:16Z</time><name>PT3769</name></trkpt>
<trkpt lat="54.492344" lon="-3.223741"><ele>537</ele><time>2022-03-30T12:28:17Z</time><name>PT3770</name></trkpt>
<trkpt lat="54.492337" lon="-3.223735"><ele>537</ele><time>2022-03-30T12:28:18Z</time><name>PT3771</name></trkpt>
<trkpt lat="54.492332" lon="-3.223728"><ele>538</ele><time>2022-03-30T12:28:20Z</time><name>PT3772</name></trkpt>
<trkpt lat="54.492327" lon="-3.223719"><ele>538</ele><time>2022-03-30T12:28:20Z</time><name>PT3773</name></trkpt>
<trkpt lat="54.492322" lon="-3.223713"><ele>537</ele><time>2022-03-30T12:28:21Z</time><name>PT3774</name></trkpt>
<trkpt lat="54.492317" lon="-3.223707"><ele>538</ele><time>2022-03-30T12:28:22Z</time><name>PT3775</name></trkpt>
<trkpt lat="54.492311" lon="-3.223700"><ele>538</ele><time>2022-03-30T12:28:23Z</time><name>PT3776</name></trkpt>
<trkpt lat="54.492308" lon="-3.223695"><ele>538</ele><time>2022-03-30T12:28:24Z</time><name>PT3777</name></trkpt>
<trkpt lat="54.492305" lon="-3.223689"><ele>538</ele><time>2022-03-30T12:28:26Z</time><name>PT3778</name></trkpt>
<trkpt lat="54.492301" lon="-3.223683"><ele>538</ele><time>2022-03-30T12:28:26Z</time><name>PT3779</name></trkpt>
<trkpt lat="54.492298" lon="-3.223676"><ele>539</ele><time>2022-03-30T12:28:27Z</time><name>PT3780</name></trkpt>
<trkpt lat="54.492297" lon="-3.223670"><ele>539</ele><time>2022-03-30T12:28:28Z</time><name>PT3781</name></trkpt>
<trkpt lat="54.492294" lon="-3.223662"><ele>540</ele><time>2022-03-30T12:28:29Z</time><name>PT3782</name></trkpt>
<trkpt lat="54.492292" lon="-3.223653"><ele>540</ele><time>2022-03-30T12:28:30Z</time><name>PT3783</name></trkpt>
<trkpt lat="54.492290" lon="-3.223647"><ele>540</ele><time>2022-03-30T12:28:31Z</time><name>PT3784</name></trkpt>
<trkpt lat="54.492286" lon="-3.223638"><ele>540</ele><time>2022-03-30T12:28:32Z</time><name>PT3785</name></trkpt>
<trkpt lat="54.492286" lon="-3.223632"><ele>540</ele><time>2022-03-30T12:28:33Z</time><name>PT3786</name></trkpt>
<trkpt lat="54.492285" lon="-3.223626"><ele>541</ele><time>2022-03-30T12:28:35Z</time><name>PT3787</name></trkpt>
<trkpt lat="54.492284" lon="-3.223621"><ele>541</ele><time>2022-03-30T12:28:35Z</time><name>PT3788</name></trkpt>
<trkpt lat="54.492281" lon="-3.223614"><ele>541</ele><time>2022-03-30T12:28:36Z</time><name>PT3789</name></trkpt>
<trkpt lat="54.492278" lon="-3.223605"><ele>541</ele><time>2022-03-30T12:28:37Z</time><name>PT3790</name></trkpt>
<trkpt lat="54.492277" lon="-3.223598"><ele>541</ele><time>2022-03-30T12:28:38Z</time><name>PT3791</name></trkpt>
<trkpt lat="54.492274" lon="-3.223596"><ele>541</ele><time>2022-03-30T12:28:42Z</time><name>PT3792</name></trkpt>
<trkpt lat="54.492271" lon="-3.223583"><ele>541</ele><time>2022-03-30T12:28:43Z</time><name>PT3793</name></trkpt>
<trkpt lat="54.492266" lon="-3.223572"><ele>541</ele><time>2022-03-30T12:28:44Z</time><name>PT3794</name></trkpt>
<trkpt lat="54.492266" lon="-3.223560"><ele>541</ele><time>2022-03-30T12:28:45Z</time><name>PT3795</name></trkpt>
<trkpt lat="54.492263" lon="-3.223548"><ele>541</ele><time>2022-03-30T12:28:47Z</time><name>PT3796</name></trkpt>
<trkpt lat="54.492263" lon="-3.223536"><ele>541</ele><time>2022-03-30T12:28:47Z</time><name>PT3797</name></trkpt>
<trkpt lat="54.492261" lon="-3.223526"><ele>541</ele><time>2022-03-30T12:28:48Z</time><name>PT3798</name></trkpt>
<trkpt lat="54.492260" lon="-3.223518"><ele>542</ele><time>2022-03-30T12:28:49Z</time><name>PT3799</name></trkpt>
<trkpt lat="54.492259" lon="-3.223506"><ele>542</ele><time>2022-03-30T12:28:50Z</time><name>PT3800</name></trkpt>
<trkpt lat="54.492260" lon="-3.223495"><ele>542</ele><time>2022-03-30T12:28:51Z</time><name>PT3801</name></trkpt>
<trkpt lat="54.492260" lon="-3.223486"><ele>541</ele><time>2022-03-30T12:28:52Z</time><name>PT3802</name></trkpt>
<trkpt lat="54.492261" lon="-3.223474"><ele>541</ele><time>2022-03-30T12:28:53Z</time><name>PT3803</name></trkpt>
<trkpt lat="54.492262" lon="-3.223461"><ele>541</ele><time>2022-03-30T12:28:54Z</time><name>PT3804</name></trkpt>
<trkpt lat="54.492262" lon="-3.223451"><ele>542</ele><time>2022-03-30T12:28:55Z</time><name>PT3805</name></trkpt>
<trkpt lat="54.492262" lon="-3.223439"><ele>542</ele><time>2022-03-30T12:28:56Z</time><name>PT3806</name></trkpt>
<trkpt lat="54.492261" lon="-3.223426"><ele>541</ele><time>2022-03-30T12:28:58Z</time><name>PT3807</name></trkpt>
<trkpt lat="54.492260" lon="-3.223413"><ele>542</ele><time>2022-03-30T12:28:58Z</time><name>PT3808</name></trkpt>
<trkpt lat="54.492263" lon="-3.223396"><ele>542</ele><time>2022-03-30T12:29:02Z</time><name>PT3809</name></trkpt>
<trkpt lat="54.492263" lon="-3.223386"><ele>542</ele><time>2022-03-30T12:29:02Z</time><name>PT3810</name></trkpt>
<trkpt lat="54.492261" lon="-3.223368"><ele>543</ele><time>2022-03-30T12:29:03Z</time><name>PT3811</name></trkpt>
<trkpt lat="54.492257" lon="-3.223355"><ele>542</ele><time>2022-03-30T12:29:04Z</time><name>PT3812</name></trkpt>
<trkpt lat="54.492256" lon="-3.223344"><ele>542</ele><time>2022-03-30T12:29:05Z</time><name>PT3813</name></trkpt>
<trkpt lat="54.492255" lon="-3.223330"><ele>542</ele><time>2022-03-30T12:29:06Z</time><name>PT3814</name></trkpt>
<trkpt lat="54.492257" lon="-3.223316"><ele>542</ele><time>2022-03-30T12:29:07Z</time><name>PT3815</name></trkpt>
<trkpt lat="54.492256" lon="-3.223304"><ele>542</ele><time>2022-03-30T12:29:08Z</time><name>PT3816</name></trkpt>
<trkpt lat="54.492257" lon="-3.223292"><ele>543</ele><time>2022-03-30T12:29:09Z</time><name>PT3817</name></trkpt>
<trkpt lat="54.492256" lon="-3.223281"><ele>543</ele><time>2022-03-30T12:29:10Z</time><name>PT3818</name></trkpt>
<trkpt lat="54.492257" lon="-3.223267"><ele>543</ele><time>2022-03-30T12:29:11Z</time><name>PT3819</name></trkpt>
<trkpt lat="54.492256" lon="-3.223257"><ele>543</ele><time>2022-03-30T12:29:12Z</time><name>PT3820</name></trkpt>
<trkpt lat="54.492253" lon="-3.223244"><ele>544</ele><time>2022-03-30T12:29:13Z</time><name>PT3821</name></trkpt>
<trkpt lat="54.492249" lon="-3.223233"><ele>544</ele><time>2022-03-30T12:29:14Z</time><name>PT3822</name></trkpt>
<trkpt lat="54.492247" lon="-3.223217"><ele>544</ele><time>2022-03-30T12:29:15Z</time><name>PT3823</name></trkpt>
<trkpt lat="54.492247" lon="-3.223205"><ele>544</ele><time>2022-03-30T12:29:16Z</time><name>PT3824</name></trkpt>
<trkpt lat="54.492249" lon="-3.223195"><ele>544</ele><time>2022-03-30T12:29:17Z</time><name>PT3825</name></trkpt>
<trkpt lat="54.492251" lon="-3.223186"><ele>544</ele><time>2022-03-30T12:29:18Z</time><name>PT3826</name></trkpt>
<trkpt lat="54.492250" lon="-3.223174"><ele>544</ele><time>2022-03-30T12:29:19Z</time><name>PT3827</name></trkpt>
<trkpt lat="54.492249" lon="-3.223162"><ele>544</ele><time>2022-03-30T12:29:20Z</time><name>PT3828</name></trkpt>
<trkpt lat="54.492249" lon="-3.223148"><ele>545</ele><time>2022-03-30T12:29:21Z</time><name>PT3829</name></trkpt>
<trkpt lat="54.492249" lon="-3.223136"><ele>545</ele><time>2022-03-30T12:29:22Z</time><name>PT3830</name></trkpt>
<trkpt lat="54.492249" lon="-3.223122"><ele>545</ele><time>2022-03-30T12:29:23Z</time><name>PT3831</name></trkpt>
<trkpt lat="54.492250" lon="-3.223109"><ele>545</ele><time>2022-03-30T12:29:24Z</time><name>PT3832</name></trkpt>
<trkpt lat="54.492252" lon="-3.223092"><ele>545</ele><time>2022-03-30T12:29:25Z</time><name>PT3833</name></trkpt>
<trkpt lat="54.492254" lon="-3.223079"><ele>546</ele><time>2022-03-30T12:29:26Z</time><name>PT3834</name></trkpt>
<trkpt lat="54.492256" lon="-3.223066"><ele>546</ele><time>2022-03-30T12:29:27Z</time><name>PT3835</name></trkpt>
<trkpt lat="54.492256" lon="-3.223050"><ele>546</ele><time>2022-03-30T12:29:28Z</time><name>PT3836</name></trkpt>
<trkpt lat="54.492255" lon="-3.223037"><ele>546</ele><time>2022-03-30T12:29:29Z</time><name>PT3837</name></trkpt>
<trkpt lat="54.492253" lon="-3.223024"><ele>546</ele><time>2022-03-30T12:29:30Z</time><name>PT3838</name></trkpt>
<trkpt lat="54.492250" lon="-3.223011"><ele>546</ele><time>2022-03-30T12:29:31Z</time><name>PT3839</name></trkpt>
<trkpt lat="54.492248" lon="-3.222999"><ele>546</ele><time>2022-03-30T12:29:32Z</time><name>PT3840</name></trkpt>
<trkpt lat="54.492246" lon="-3.222985"><ele>546</ele><time>2022-03-30T12:29:33Z</time><name>PT3841</name></trkpt>
<trkpt lat="54.492244" lon="-3.222970"><ele>546</ele><time>2022-03-30T12:29:34Z</time><name>PT3842</name></trkpt>
<trkpt lat="54.492244" lon="-3.222959"><ele>547</ele><time>2022-03-30T12:29:35Z</time><name>PT3843</name></trkpt>
<trkpt lat="54.492242" lon="-3.222947"><ele>547</ele><time>2022-03-30T12:29:36Z</time><name>PT3844</name></trkpt>
<trkpt lat="54.492241" lon="-3.222935"><ele>547</ele><time>2022-03-30T12:29:37Z</time><name>PT3845</name></trkpt>
<trkpt lat="54.492239" lon="-3.222923"><ele>547</ele><time>2022-03-30T12:29:38Z</time><name>PT3846</name></trkpt>
<trkpt lat="54.492238" lon="-3.222911"><ele>547</ele><time>2022-03-30T12:29:39Z</time><name>PT3847</name></trkpt>
<trkpt lat="54.492237" lon="-3.222900"><ele>548</ele><time>2022-03-30T12:29:40Z</time><name>PT3848</name></trkpt>
<trkpt lat="54.492235" lon="-3.222890"><ele>548</ele><time>2022-03-30T12:29:41Z</time><name>PT3849</name></trkpt>
<trkpt lat="54.492233" lon="-3.222880"><ele>548</ele><time>2022-03-30T12:29:42Z</time><name>PT3850</name></trkpt>
<trkpt lat="54.492230" lon="-3.222870"><ele>548</ele><time>2022-03-30T12:29:43Z</time><name>PT3851</name></trkpt>
<trkpt lat="54.492228" lon="-3.222859"><ele>548</ele><time>2022-03-30T12:29:44Z</time><name>PT3852</name></trkpt>
<trkpt lat="54.492226" lon="-3.222849"><ele>548</ele><time>2022-03-30T12:29:45Z</time><name>PT3853</name></trkpt>
<trkpt lat="54.492224" lon="-3.222836"><ele>548</ele><time>2022-03-30T12:29:46Z</time><name>PT3854</name></trkpt>
<trkpt lat="54.492224" lon="-3.222827"><ele>548</ele><time>2022-03-30T12:29:47Z</time><name>PT3855</name></trkpt>
<trkpt lat="54.492220" lon="-3.222812"><ele>548</ele><time>2022-03-30T12:29:48Z</time><name>PT3856</name></trkpt>
<trkpt lat="54.492219" lon="-3.222801"><ele>548</ele><time>2022-03-30T12:29:49Z</time><name>PT3857</name></trkpt>
<trkpt lat="54.492216" lon="-3.222789"><ele>548</ele><time>2022-03-30T12:29:50Z</time><name>PT3858</name></trkpt>
<trkpt lat="54.492212" lon="-3.222776"><ele>548</ele><time>2022-03-30T12:29:51Z</time><name>PT3859</name></trkpt>
<trkpt lat="54.492208" lon="-3.222764"><ele>548</ele><time>2022-03-30T12:29:52Z</time><name>PT3860</name></trkpt>
<trkpt lat="54.492204" lon="-3.222754"><ele>548</ele><time>2022-03-30T12:29:53Z</time><name>PT3861</name></trkpt>
<trkpt lat="54.492200" lon="-3.222742"><ele>548</ele><time>2022-03-30T12:29:54Z</time><name>PT3862</name></trkpt>
<trkpt lat="54.492196" lon="-3.222731"><ele>548</ele><time>2022-03-30T12:29:55Z</time><name>PT3863</name></trkpt>
<trkpt lat="54.492191" lon="-3.222723"><ele>548</ele><time>2022-03-30T12:29:56Z</time><name>PT3864</name></trkpt>
<trkpt lat="54.492186" lon="-3.222714"><ele>548</ele><time>2022-03-30T12:29:57Z</time><name>PT3865</name></trkpt>
<trkpt lat="54.492179" lon="-3.222704"><ele>549</ele><time>2022-03-30T12:29:58Z</time><name>PT3866</name></trkpt>
<trkpt lat="54.492171" lon="-3.222694"><ele>549</ele><time>2022-03-30T12:29:59Z</time><name>PT3867</name></trkpt>
<trkpt lat="54.492167" lon="-3.222686"><ele>549</ele><time>2022-03-30T12:30:00Z</time><name>PT3868</name></trkpt>
<trkpt lat="54.492161" lon="-3.222677"><ele>548</ele><time>2022-03-30T12:30:01Z</time><name>PT3869</name></trkpt>
<trkpt lat="54.492158" lon="-3.222666"><ele>548</ele><time>2022-03-30T12:30:02Z</time><name>PT3870</name></trkpt>
<trkpt lat="54.492155" lon="-3.222649"><ele>548</ele><time>2022-03-30T12:30:03Z</time><name>PT3871</name></trkpt>
<trkpt lat="54.492152" lon="-3.222636"><ele>548</ele><time>2022-03-30T12:30:04Z</time><name>PT3872</name></trkpt>
<trkpt lat="54.492152" lon="-3.222623"><ele>548</ele><time>2022-03-30T12:30:05Z</time><name>PT3873</name></trkpt>
<trkpt lat="54.492149" lon="-3.222608"><ele>549</ele><time>2022-03-30T12:30:06Z</time><name>PT3874</name></trkpt>
<trkpt lat="54.492147" lon="-3.222597"><ele>549</ele><time>2022-03-30T12:30:07Z</time><name>PT3875</name></trkpt>
<trkpt lat="54.492146" lon="-3.222586"><ele>549</ele><time>2022-03-30T12:30:08Z</time><name>PT3876</name></trkpt>
<trkpt lat="54.492143" lon="-3.222577"><ele>549</ele><time>2022-03-30T12:30:09Z</time><name>PT3877</name></trkpt>
<trkpt lat="54.492140" lon="-3.222568"><ele>549</ele><time>2022-03-30T12:30:10Z</time><name>PT3878</name></trkpt>
<trkpt lat="54.492137" lon="-3.222558"><ele>549</ele><time>2022-03-30T12:30:11Z</time><name>PT3879</name></trkpt>
<trkpt lat="54.492134" lon="-3.222546"><ele>549</ele><time>2022-03-30T12:30:12Z</time><name>PT3880</name></trkpt>
<trkpt lat="54.492131" lon="-3.222531"><ele>549</ele><time>2022-03-30T12:30:13Z</time><name>PT3881</name></trkpt>
<trkpt lat="54.492128" lon="-3.222519"><ele>549</ele><time>2022-03-30T12:30:14Z</time><name>PT3882</name></trkpt>
<trkpt lat="54.492127" lon="-3.222512"><ele>549</ele><time>2022-03-30T12:30:15Z</time><name>PT3883</name></trkpt>
<trkpt lat="54.492126" lon="-3.222504"><ele>549</ele><time>2022-03-30T12:30:16Z</time><name>PT3884</name></trkpt>
<trkpt lat="54.492124" lon="-3.222498"><ele>549</ele><time>2022-03-30T12:30:17Z</time><name>PT3885</name></trkpt>
<trkpt lat="54.492123" lon="-3.222493"><ele>550</ele><time>2022-03-30T12:30:18Z</time><name>PT3886</name></trkpt>
<trkpt lat="54.492121" lon="-3.222488"><ele>550</ele><time>2022-03-30T12:30:19Z</time><name>PT3887</name></trkpt>
<trkpt lat="54.492123" lon="-3.222481"><ele>550</ele><time>2022-03-30T12:30:27Z</time><name>PT3888</name></trkpt>
<trkpt lat="54.492120" lon="-3.222471"><ele>550</ele><time>2022-03-30T12:30:28Z</time><name>PT3889</name></trkpt>
<trkpt lat="54.492116" lon="-3.222456"><ele>551</ele><time>2022-03-30T12:30:29Z</time><name>PT3890</name></trkpt>
<trkpt lat="54.492110" lon="-3.222445"><ele>551</ele><time>2022-03-30T12:30:30Z</time><name>PT3891</name></trkpt>
<trkpt lat="54.492104" lon="-3.222440"><ele>551</ele><time>2022-03-30T12:30:31Z</time><name>PT3892</name></trkpt>
<trkpt lat="54.492101" lon="-3.222433"><ele>551</ele><time>2022-03-30T12:30:32Z</time><name>PT3893</name></trkpt>
<trkpt lat="54.492098" lon="-3.222423"><ele>551</ele><time>2022-03-30T12:30:33Z</time><name>PT3894</name></trkpt>
<trkpt lat="54.492093" lon="-3.222415"><ele>552</ele><time>2022-03-30T12:30:34Z</time><name>PT3895</name></trkpt>
<trkpt lat="54.492090" lon="-3.222403"><ele>552</ele><time>2022-03-30T12:30:35Z</time><name>PT3896</name></trkpt>
<trkpt lat="54.492085" lon="-3.222396"><ele>553</ele><time>2022-03-30T12:30:36Z</time><name>PT3897</name></trkpt>
<trkpt lat="54.492082" lon="-3.222388"><ele>553</ele><time>2022-03-30T12:30:37Z</time><name>PT3898</name></trkpt>
<trkpt lat="54.492076" lon="-3.222379"><ele>552</ele><time>2022-03-30T12:30:38Z</time><name>PT3899</name></trkpt>
<trkpt lat="54.492072" lon="-3.222371"><ele>553</ele><time>2022-03-30T12:30:39Z</time><name>PT3900</name></trkpt>
<trkpt lat="54.492072" lon="-3.222362"><ele>553</ele><time>2022-03-30T12:30:40Z</time><name>PT3901</name></trkpt>
<trkpt lat="54.492069" lon="-3.222352"><ele>552</ele><time>2022-03-30T12:30:41Z</time><name>PT3902</name></trkpt>
<trkpt lat="54.492068" lon="-3.222342"><ele>553</ele><time>2022-03-30T12:30:42Z</time><name>PT3903</name></trkpt>
<trkpt lat="54.492062" lon="-3.222334"><ele>553</ele><time>2022-03-30T12:30:43Z</time><name>PT3904</name></trkpt>
<trkpt lat="54.492060" lon="-3.222327"><ele>553</ele><time>2022-03-30T12:30:44Z</time><name>PT3905</name></trkpt>
<trkpt lat="54.492057" lon="-3.222315"><ele>553</ele><time>2022-03-30T12:30:45Z</time><name>PT3906</name></trkpt>
<trkpt lat="54.492053" lon="-3.222302"><ele>553</ele><time>2022-03-30T12:30:46Z</time><name>PT3907</name></trkpt>
<trkpt lat="54.492049" lon="-3.222292"><ele>553</ele><time>2022-03-30T12:30:47Z</time><name>PT3908</name></trkpt>
<trkpt lat="54.492046" lon="-3.222288"><ele>554</ele><time>2022-03-30T12:30:48Z</time><name>PT3909</name></trkpt>
<trkpt lat="54.492043" lon="-3.222284"><ele>554</ele><time>2022-03-30T12:30:49Z</time><name>PT3910</name></trkpt>
<trkpt lat="54.492039" lon="-3.222276"><ele>554</ele><time>2022-03-30T12:30:50Z</time><name>PT3911</name></trkpt>
<trkpt lat="54.492033" lon="-3.222270"><ele>555</ele><time>2022-03-30T12:30:51Z</time><name>PT3912</name></trkpt>
<trkpt lat="54.492028" lon="-3.222267"><ele>555</ele><time>2022-03-30T12:30:52Z</time><name>PT3913</name></trkpt>
<trkpt lat="54.492025" lon="-3.222267"><ele>555</ele><time>2022-03-30T12:30:53Z</time><name>PT3914</name></trkpt>
<trkpt lat="54.492022" lon="-3.222264"><ele>555</ele><time>2022-03-30T12:30:54Z</time><name>PT3915</name></trkpt>
<trkpt lat="54.492018" lon="-3.222260"><ele>555</ele><time>2022-03-30T12:30:55Z</time><name>PT3916</name></trkpt>
<trkpt lat="54.492015" lon="-3.222255"><ele>556</ele><time>2022-03-30T12:30:56Z</time><name>PT3917</name></trkpt>
<trkpt lat="54.492014" lon="-3.222252"><ele>555</ele><time>2022-03-30T12:30:57Z</time><name>PT3918</name></trkpt>
<trkpt lat="54.492010" lon="-3.222220"><ele>555</ele><time>2022-03-30T12:31:00Z</time><name>PT3919</name></trkpt>
<trkpt lat="54.492004" lon="-3.222186"><ele>555</ele><time>2022-03-30T12:31:03Z</time><name>PT3920</name></trkpt>
<trkpt lat="54.492002" lon="-3.222162"><ele>555</ele><time>2022-03-30T12:31:06Z</time><name>PT3921</name></trkpt>
<trkpt lat="54.491987" lon="-3.222137"><ele>557</ele><time>2022-03-30T12:31:10Z</time><name>PT3922</name></trkpt>
<trkpt lat="54.491978" lon="-3.222104"><ele>558</ele><time>2022-03-30T12:31:14Z</time><name>PT3923</name></trkpt>
<trkpt lat="54.491963" lon="-3.222076"><ele>559</ele><time>2022-03-30T12:31:18Z</time><name>PT3924</name></trkpt>
<trkpt lat="54.491958" lon="-3.222060"><ele>560</ele><time>2022-03-30T12:31:21Z</time><name>PT3925</name></trkpt>
<trkpt lat="54.491941" lon="-3.222040"><ele>561</ele><time>2022-03-30T12:31:25Z</time><name>PT3926</name></trkpt>
<trkpt lat="54.491927" lon="-3.222016"><ele>562</ele><time>2022-03-30T12:31:29Z</time><name>PT3927</name></trkpt>
<trkpt lat="54.491924" lon="-3.221997"><ele>563</ele><time>2022-03-30T12:31:31Z</time><name>PT3928</name></trkpt>
<trkpt lat="54.491922" lon="-3.221984"><ele>563</ele><time>2022-03-30T12:31:32Z</time><name>PT3929</name></trkpt>
<trkpt lat="54.491919" lon="-3.221971"><ele>563</ele><time>2022-03-30T12:31:33Z</time><name>PT3930</name></trkpt>
<trkpt lat="54.491919" lon="-3.221961"><ele>563</ele><time>2022-03-30T12:31:34Z</time><name>PT3931</name></trkpt>
<trkpt lat="54.491915" lon="-3.221954"><ele>563</ele><time>2022-03-30T12:31:35Z</time><name>PT3932</name></trkpt>
<trkpt lat="54.491914" lon="-3.221946"><ele>562</ele><time>2022-03-30T12:31:36Z</time><name>PT3933</name></trkpt>
<trkpt lat="54.491912" lon="-3.221936"><ele>563</ele><time>2022-03-30T12:31:37Z</time><name>PT3934</name></trkpt>
<trkpt lat="54.491907" lon="-3.221923"><ele>564</ele><time>2022-03-30T12:31:38Z</time><name>PT3935</name></trkpt>
<trkpt lat="54.491906" lon="-3.221911"><ele>564</ele><time>2022-03-30T12:31:39Z</time><name>PT3936</name></trkpt>
<trkpt lat="54.491904" lon="-3.221902"><ele>564</ele><time>2022-03-30T12:31:40Z</time><name>PT3937</name></trkpt>
<trkpt lat="54.491900" lon="-3.221896"><ele>564</ele><time>2022-03-30T12:31:41Z</time><name>PT3938</name></trkpt>
<trkpt lat="54.491894" lon="-3.221884"><ele>564</ele><time>2022-03-30T12:31:42Z</time><name>PT3939</name></trkpt>
<trkpt lat="54.491889" lon="-3.221874"><ele>564</ele><time>2022-03-30T12:31:43Z</time><name>PT3940</name></trkpt>
<trkpt lat="54.491883" lon="-3.221864"><ele>564</ele><time>2022-03-30T12:31:44Z</time><name>PT3941</name></trkpt>
<trkpt lat="54.491879" lon="-3.221851"><ele>565</ele><time>2022-03-30T12:31:45Z</time><name>PT3942</name></trkpt>
<trkpt lat="54.491874" lon="-3.221841"><ele>565</ele><time>2022-03-30T12:31:46Z</time><name>PT3943</name></trkpt>
<trkpt lat="54.491867" lon="-3.221832"><ele>565</ele><time>2022-03-30T12:31:47Z</time><name>PT3944</name></trkpt>
<trkpt lat="54.491862" lon="-3.221827"><ele>565</ele><time>2022-03-30T12:31:48Z</time><name>PT3945</name></trkpt>
<trkpt lat="54.491861" lon="-3.221821"><ele>565</ele><time>2022-03-30T12:31:49Z</time><name>PT3946</name></trkpt>
<trkpt lat="54.491858" lon="-3.221815"><ele>565</ele><time>2022-03-30T12:31:50Z</time><name>PT3947</name></trkpt>
<trkpt lat="54.491854" lon="-3.221806"><ele>566</ele><time>2022-03-30T12:31:51Z</time><name>PT3948</name></trkpt>
<trkpt lat="54.491847" lon="-3.221798"><ele>565</ele><time>2022-03-30T12:31:52Z</time><name>PT3949</name></trkpt>
<trkpt lat="54.491841" lon="-3.221789"><ele>566</ele><time>2022-03-30T12:31:53Z</time><name>PT3950</name></trkpt>
<trkpt lat="54.491838" lon="-3.221780"><ele>566</ele><time>2022-03-30T12:31:54Z</time><name>PT3951</name></trkpt>
<trkpt lat="54.491835" lon="-3.221768"><ele>566</ele><time>2022-03-30T12:31:55Z</time><name>PT3952</name></trkpt>
<trkpt lat="54.491833" lon="-3.221757"><ele>566</ele><time>2022-03-30T12:31:56Z</time><name>PT3953</name></trkpt>
<trkpt lat="54.491829" lon="-3.221748"><ele>567</ele><time>2022-03-30T12:31:57Z</time><name>PT3954</name></trkpt>
<trkpt lat="54.491825" lon="-3.221737"><ele>567</ele><time>2022-03-30T12:31:58Z</time><name>PT3955</name></trkpt>
<trkpt lat="54.491822" lon="-3.221734"><ele>568</ele><time>2022-03-30T12:31:59Z</time><name>PT3956</name></trkpt>
<trkpt lat="54.491818" lon="-3.221731"><ele>568</ele><time>2022-03-30T12:32:00Z</time><name>PT3957</name></trkpt>
<trkpt lat="54.491813" lon="-3.221728"><ele>568</ele><time>2022-03-30T12:32:01Z</time><name>PT3958</name></trkpt>
<trkpt lat="54.491810" lon="-3.221723"><ele>568</ele><time>2022-03-30T12:32:02Z</time><name>PT3959</name></trkpt>
<trkpt lat="54.491805" lon="-3.221716"><ele>568</ele><time>2022-03-30T12:32:03Z</time><name>PT3960</name></trkpt>
<trkpt lat="54.491802" lon="-3.221710"><ele>569</ele><time>2022-03-30T12:32:04Z</time><name>PT3961</name></trkpt>
<trkpt lat="54.491798" lon="-3.221703"><ele>568</ele><time>2022-03-30T12:32:05Z</time><name>PT3962</name></trkpt>
<trkpt lat="54.491793" lon="-3.221693"><ele>569</ele><time>2022-03-30T12:32:06Z</time><name>PT3963</name></trkpt>
<trkpt lat="54.491787" lon="-3.221683"><ele>569</ele><time>2022-03-30T12:32:07Z</time><name>PT3964</name></trkpt>
<trkpt lat="54.491783" lon="-3.221673"><ele>568</ele><time>2022-03-30T12:32:08Z</time><name>PT3965</name></trkpt>
<trkpt lat="54.491777" lon="-3.221664"><ele>568</ele><time>2022-03-30T12:32:09Z</time><name>PT3966</name></trkpt>
<trkpt lat="54.491771" lon="-3.221652"><ele>569</ele><time>2022-03-30T12:32:10Z</time><name>PT3967</name></trkpt>
<trkpt lat="54.491766" lon="-3.221642"><ele>569</ele><time>2022-03-30T12:32:11Z</time><name>PT3968</name></trkpt>
<trkpt lat="54.491762" lon="-3.221635"><ele>569</ele><time>2022-03-30T12:32:12Z</time><name>PT3969</name></trkpt>
<trkpt lat="54.491757" lon="-3.221629"><ele>569</ele><time>2022-03-30T12:32:13Z</time><name>PT3970</name></trkpt>
<trkpt lat="54.491751" lon="-3.221621"><ele>569</ele><time>2022-03-30T12:32:14Z</time><name>PT3971</name></trkpt>
<trkpt lat="54.491748" lon="-3.221614"><ele>569</ele><time>2022-03-30T12:32:15Z</time><name>PT3972</name></trkpt>
<trkpt lat="54.491744" lon="-3.221607"><ele>570</ele><time>2022-03-30T12:32:16Z</time><name>PT3973</name></trkpt>
<trkpt lat="54.491741" lon="-3.221600"><ele>570</ele><time>2022-03-30T12:32:17Z</time><name>PT3974</name></trkpt>
<trkpt lat="54.491737" lon="-3.221593"><ele>570</ele><time>2022-03-30T12:32:18Z</time><name>PT3975</name></trkpt>
<trkpt lat="54.491732" lon="-3.221585"><ele>571</ele><time>2022-03-30T12:32:19Z</time><name>PT3976</name></trkpt>
<trkpt lat="54.491727" lon="-3.221576"><ele>571</ele><time>2022-03-30T12:32:20Z</time><name>PT3977</name></trkpt>
<trkpt lat="54.491722" lon="-3.221567"><ele>571</ele><time>2022-03-30T12:32:21Z</time><name>PT3978</name></trkpt>
<trkpt lat="54.491716" lon="-3.221558"><ele>572</ele><time>2022-03-30T12:32:22Z</time><name>PT3979</name></trkpt>
<trkpt lat="54.491711" lon="-3.221551"><ele>572</ele><time>2022-03-30T12:32:23Z</time><name>PT3980</name></trkpt>
<trkpt lat="54.491708" lon="-3.221544"><ele>572</ele><time>2022-03-30T12:32:24Z</time><name>PT3981</name></trkpt>
<trkpt lat="54.491703" lon="-3.221535"><ele>572</ele><time>2022-03-30T12:32:25Z</time><name>PT3982</name></trkpt>
<trkpt lat="54.491700" lon="-3.221529"><ele>573</ele><time>2022-03-30T12:32:26Z</time><name>PT3983</name></trkpt>
<trkpt lat="54.491697" lon="-3.221523"><ele>573</ele><time>2022-03-30T12:32:27Z</time><name>PT3984</name></trkpt>
<trkpt lat="54.491695" lon="-3.221518"><ele>573</ele><time>2022-03-30T12:32:28Z</time><name>PT3985</name></trkpt>
<trkpt lat="54.491690" lon="-3.221509"><ele>574</ele><time>2022-03-30T12:32:29Z</time><name>PT3986</name></trkpt>
<trkpt lat="54.491689" lon="-3.221501"><ele>573</ele><time>2022-03-30T12:32:30Z</time><name>PT3987</name></trkpt>
<trkpt lat="54.491688" lon="-3.221492"><ele>573</ele><time>2022-03-30T12:32:31Z</time><name>PT3988</name></trkpt>
<trkpt lat="54.491686" lon="-3.221484"><ele>574</ele><time>2022-03-30T12:32:32Z</time><name>PT3989</name></trkpt>
<trkpt lat="54.491683" lon="-3.221475"><ele>574</ele><time>2022-03-30T12:32:33Z</time><name>PT3990</name></trkpt>
<trkpt lat="54.491680" lon="-3.221464"><ele>574</ele><time>2022-03-30T12:32:34Z</time><name>PT3991</name></trkpt>
<trkpt lat="54.491678" lon="-3.221453"><ele>575</ele><time>2022-03-30T12:32:35Z</time><name>PT3992</name></trkpt>
<trkpt lat="54.491677" lon="-3.221445"><ele>575</ele><time>2022-03-30T12:32:36Z</time><name>PT3993</name></trkpt>
<trkpt lat="54.491673" lon="-3.221436"><ele>576</ele><time>2022-03-30T12:32:37Z</time><name>PT3994</name></trkpt>
<trkpt lat="54.491674" lon="-3.221428"><ele>576</ele><time>2022-03-30T12:32:38Z</time><name>PT3995</name></trkpt>
<trkpt lat="54.491672" lon="-3.221420"><ele>576</ele><time>2022-03-30T12:32:39Z</time><name>PT3996</name></trkpt>
<trkpt lat="54.491667" lon="-3.221414"><ele>576</ele><time>2022-03-30T12:32:40Z</time><name>PT3997</name></trkpt>
<trkpt lat="54.491664" lon="-3.221408"><ele>576</ele><time>2022-03-30T12:32:41Z</time><name>PT3998</name></trkpt>
<trkpt lat="54.491660" lon="-3.221401"><ele>577</ele><time>2022-03-30T12:32:42Z</time><name>PT3999</name></trkpt>
<trkpt lat="54.491654" lon="-3.221398"><ele>577</ele><time>2022-03-30T12:32:43Z</time><name>PT4000</name></trkpt>
<trkpt lat="54.491648" lon="-3.221394"><ele>577</ele><time>2022-03-30T12:32:44Z</time><name>PT4001</name></trkpt>
<trkpt lat="54.491644" lon="-3.221389"><ele>577</ele><time>2022-03-30T12:32:45Z</time><name>PT4002</name></trkpt>
<trkpt lat="54.491640" lon="-3.221379"><ele>577</ele><time>2022-03-30T12:32:46Z</time><name>PT4003</name></trkpt>
<trkpt lat="54.491638" lon="-3.221369"><ele>578</ele><time>2022-03-30T12:32:47Z</time><name>PT4004</name></trkpt>
<trkpt lat="54.491637" lon="-3.221359"><ele>578</ele><time>2022-03-30T12:32:48Z</time><name>PT4005</name></trkpt>
<trkpt lat="54.491636" lon="-3.221349"><ele>578</ele><time>2022-03-30T12:32:49Z</time><name>PT4006</name></trkpt>
<trkpt lat="54.491634" lon="-3.221335"><ele>579</ele><time>2022-03-30T12:32:50Z</time><name>PT4007</name></trkpt>
<trkpt lat="54.491631" lon="-3.221320"><ele>579</ele><time>2022-03-30T12:32:51Z</time><name>PT4008</name></trkpt>
<trkpt lat="54.491629" lon="-3.221307"><ele>579</ele><time>2022-03-30T12:32:52Z</time><name>PT4009</name></trkpt>
<trkpt lat="54.491626" lon="-3.221297"><ele>579</ele><time>2022-03-30T12:32:53Z</time><name>PT4010</name></trkpt>
<trkpt lat="54.491622" lon="-3.221290"><ele>580</ele><time>2022-03-30T12:32:54Z</time><name>PT4011</name></trkpt>
<trkpt lat="54.491618" lon="-3.221282"><ele>580</ele><time>2022-03-30T12:32:55Z</time><name>PT4012</name></trkpt>
<trkpt lat="54.491614" lon="-3.221274"><ele>580</ele><time>2022-03-30T12:32:56Z</time><name>PT4013</name></trkpt>
<trkpt lat="54.491610" lon="-3.221265"><ele>580</ele><time>2022-03-30T12:32:57Z</time><name>PT4014</name></trkpt>
<trkpt lat="54.491607" lon="-3.221257"><ele>581</ele><time>2022-03-30T12:32:58Z</time><name>PT4015</name></trkpt>
<trkpt lat="54.491603" lon="-3.221247"><ele>581</ele><time>2022-03-30T12:32:59Z</time><name>PT4016</name></trkpt>
<trkpt lat="54.491600" lon="-3.221236"><ele>581</ele><time>2022-03-30T12:33:00Z</time><name>PT4017</name></trkpt>
<trkpt lat="54.491599" lon="-3.221228"><ele>581</ele><time>2022-03-30T12:33:01Z</time><name>PT4018</name></trkpt>
<trkpt lat="54.491594" lon="-3.221221"><ele>581</ele><time>2022-03-30T12:33:02Z</time><name>PT4019</name></trkpt>
<trkpt lat="54.491589" lon="-3.221206"><ele>581</ele><time>2022-03-30T12:33:03Z</time><name>PT4020</name></trkpt>
<trkpt lat="54.491583" lon="-3.221192"><ele>582</ele><time>2022-03-30T12:33:04Z</time><name>PT4021</name></trkpt>
<trkpt lat="54.491578" lon="-3.221181"><ele>582</ele><time>2022-03-30T12:33:05Z</time><name>PT4022</name></trkpt>
<trkpt lat="54.491573" lon="-3.221168"><ele>583</ele><time>2022-03-30T12:33:06Z</time><name>PT4023</name></trkpt>
<trkpt lat="54.491571" lon="-3.221159"><ele>583</ele><time>2022-03-30T12:33:07Z</time><name>PT4024</name></trkpt>
<trkpt lat="54.491571" lon="-3.221156"><ele>584</ele><time>2022-03-30T12:33:08Z</time><name>PT4025</name></trkpt>
<trkpt lat="54.491572" lon="-3.221152"><ele>584</ele><time>2022-03-30T12:33:09Z</time><name>PT4026</name></trkpt>
<trkpt lat="54.491571" lon="-3.221144"><ele>584</ele><time>2022-03-30T12:33:10Z</time><name>PT4027</name></trkpt>
<trkpt lat="54.491570" lon="-3.221138"><ele>585</ele><time>2022-03-30T12:33:11Z</time><name>PT4028</name></trkpt>
<trkpt lat="54.491566" lon="-3.221129"><ele>585</ele><time>2022-03-30T12:33:12Z</time><name>PT4029</name></trkpt>
<trkpt lat="54.491563" lon="-3.221121"><ele>586</ele><time>2022-03-30T12:33:14Z</time><name>PT4030</name></trkpt>
<trkpt lat="54.491561" lon="-3.221114"><ele>586</ele><time>2022-03-30T12:33:14Z</time><name>PT4031</name></trkpt>
<trkpt lat="54.491559" lon="-3.221108"><ele>587</ele><time>2022-03-30T12:33:15Z</time><name>PT4032</name></trkpt>
<trkpt lat="54.491555" lon="-3.221100"><ele>587</ele><time>2022-03-30T12:33:16Z</time><name>PT4033</name></trkpt>
<trkpt lat="54.491551" lon="-3.221092"><ele>587</ele><time>2022-03-30T12:33:17Z</time><name>PT4034</name></trkpt>
<trkpt lat="54.491545" lon="-3.221085"><ele>587</ele><time>2022-03-30T12:33:18Z</time><name>PT4035</name></trkpt>
<trkpt lat="54.491542" lon="-3.221078"><ele>588</ele><time>2022-03-30T12:33:19Z</time><name>PT4036</name></trkpt>
<trkpt lat="54.491538" lon="-3.221069"><ele>588</ele><time>2022-03-30T12:33:20Z</time><name>PT4037</name></trkpt>
<trkpt lat="54.491535" lon="-3.221060"><ele>588</ele><time>2022-03-30T12:33:21Z</time><name>PT4038</name></trkpt>
<trkpt lat="54.491530" lon="-3.221050"><ele>588</ele><time>2022-03-30T12:33:22Z</time><name>PT4039</name></trkpt>
<trkpt lat="54.491526" lon="-3.221037"><ele>588</ele><time>2022-03-30T12:33:23Z</time><name>PT4040</name></trkpt>
<trkpt lat="54.491523" lon="-3.221023"><ele>588</ele><time>2022-03-30T12:33:24Z</time><name>PT4041</name></trkpt>
<trkpt lat="54.491520" lon="-3.221012"><ele>588</ele><time>2022-03-30T12:33:26Z</time><name>PT4042</name></trkpt>
<trkpt lat="54.491514" lon="-3.221001"><ele>588</ele><time>2022-03-30T12:33:26Z</time><name>PT4043</name></trkpt>
<trkpt lat="54.491508" lon="-3.220989"><ele>588</ele><time>2022-03-30T12:33:27Z</time><name>PT4044</name></trkpt>
<trkpt lat="54.491503" lon="-3.220982"><ele>589</ele><time>2022-03-30T12:33:28Z</time><name>PT4045</name></trkpt>
<trkpt lat="54.491500" lon="-3.220974"><ele>589</ele><time>2022-03-30T12:33:29Z</time><name>PT4046</name></trkpt>
<trkpt lat="54.491498" lon="-3.220959"><ele>589</ele><time>2022-03-30T12:33:30Z</time><name>PT4047</name></trkpt>
<trkpt lat="54.491502" lon="-3.220951"><ele>589</ele><time>2022-03-30T12:33:31Z</time><name>PT4048</name></trkpt>
<trkpt lat="54.491499" lon="-3.220944"><ele>589</ele><time>2022-03-30T12:33:32Z</time><name>PT4049</name></trkpt>
<trkpt lat="54.491495" lon="-3.220935"><ele>590</ele><time>2022-03-30T12:33:33Z</time><name>PT4050</name></trkpt>
<trkpt lat="54.491492" lon="-3.220924"><ele>590</ele><time>2022-03-30T12:33:34Z</time><name>PT4051</name></trkpt>
<trkpt lat="54.491488" lon="-3.220911"><ele>590</ele><time>2022-03-30T12:33:35Z</time><name>PT4052</name></trkpt>
<trkpt lat="54.491485" lon="-3.220897"><ele>590</ele><time>2022-03-30T12:33:36Z</time><name>PT4053</name></trkpt>
<trkpt lat="54.491481" lon="-3.220887"><ele>590</ele><time>2022-03-30T12:33:37Z</time><name>PT4054</name></trkpt>
<trkpt lat="54.491476" lon="-3.220877"><ele>590</ele><time>2022-03-30T12:33:38Z</time><name>PT4055</name></trkpt>
<trkpt lat="54.491472" lon="-3.220867"><ele>590</ele><time>2022-03-30T12:33:39Z</time><name>PT4056</name></trkpt>
<trkpt lat="54.491466" lon="-3.220856"><ele>590</ele><time>2022-03-30T12:33:40Z</time><name>PT4057</name></trkpt>
<trkpt lat="54.491460" lon="-3.220846"><ele>590</ele><time>2022-03-30T12:33:41Z</time><name>PT4058</name></trkpt>
<trkpt lat="54.491454" lon="-3.220834"><ele>590</ele><time>2022-03-30T12:33:42Z</time><name>PT4059</name></trkpt>
<trkpt lat="54.491450" lon="-3.220825"><ele>590</ele><time>2022-03-30T12:33:43Z</time><name>PT4060</name></trkpt>
<trkpt lat="54.491446" lon="-3.220816"><ele>591</ele><time>2022-03-30T12:33:44Z</time><name>PT4061</name></trkpt>
<trkpt lat="54.491442" lon="-3.220807"><ele>591</ele><time>2022-03-30T12:33:45Z</time><name>PT4062</name></trkpt>
<trkpt lat="54.491434" lon="-3.220795"><ele>591</ele><time>2022-03-30T12:33:46Z</time><name>PT4063</name></trkpt>
<trkpt lat="54.491429" lon="-3.220785"><ele>591</ele><time>2022-03-30T12:33:47Z</time><name>PT4064</name></trkpt>
<trkpt lat="54.491423" lon="-3.220774"><ele>591</ele><time>2022-03-30T12:33:48Z</time><name>PT4065</name></trkpt>
<trkpt lat="54.491419" lon="-3.220762"><ele>591</ele><time>2022-03-30T12:33:49Z</time><name>PT4066</name></trkpt>
<trkpt lat="54.491412" lon="-3.220750"><ele>592</ele><time>2022-03-30T12:33:50Z</time><name>PT4067</name></trkpt>
<trkpt lat="54.491406" lon="-3.220744"><ele>592</ele><time>2022-03-30T12:33:51Z</time><name>PT4068</name></trkpt>
<trkpt lat="54.491403" lon="-3.220739"><ele>592</ele><time>2022-03-30T12:33:52Z</time><name>PT4069</name></trkpt>
<trkpt lat="54.491399" lon="-3.220734"><ele>593</ele><time>2022-03-30T12:33:53Z</time><name>PT4070</name></trkpt>
<trkpt lat="54.491396" lon="-3.220732"><ele>593</ele><time>2022-03-30T12:33:54Z</time><name>PT4071</name></trkpt>
<trkpt lat="54.491396" lon="-3.220732"><ele>592</ele><time>2022-03-30T12:33:56Z</time><name>PT4072</name></trkpt>
<trkpt lat="54.491395" lon="-3.220730"><ele>592</ele><time>2022-03-30T12:33:56Z</time><name>PT4073</name></trkpt>
<trkpt lat="54.491396" lon="-3.220727"><ele>592</ele><time>2022-03-30T12:33:59Z</time><name>PT4074</name></trkpt>
<trkpt lat="54.491392" lon="-3.220726"><ele>592</ele><time>2022-03-30T12:34:00Z</time><name>PT4075</name></trkpt>
<trkpt lat="54.491387" lon="-3.220728"><ele>592</ele><time>2022-03-30T12:34:02Z</time><name>PT4076</name></trkpt>
<trkpt lat="54.491382" lon="-3.220731"><ele>592</ele><time>2022-03-30T12:34:02Z</time><name>PT4077</name></trkpt>
<trkpt lat="54.491375" lon="-3.220735"><ele>592</ele><time>2022-03-30T12:34:03Z</time><name>PT4078</name></trkpt>
<trkpt lat="54.491367" lon="-3.220739"><ele>593</ele><time>2022-03-30T12:34:04Z</time><name>PT4079</name></trkpt>
<trkpt lat="54.491361" lon="-3.220746"><ele>593</ele><time>2022-03-30T12:34:05Z</time><name>PT4080</name></trkpt>
<trkpt lat="54.491352" lon="-3.220748"><ele>593</ele><time>2022-03-30T12:34:06Z</time><name>PT4081</name></trkpt>
<trkpt lat="54.491343" lon="-3.220752"><ele>593</ele><time>2022-03-30T12:34:07Z</time><name>PT4082</name></trkpt>
<trkpt lat="54.491331" lon="-3.220757"><ele>593</ele><time>2022-03-30T12:34:08Z</time><name>PT4083</name></trkpt>
<trkpt lat="54.491326" lon="-3.220761"><ele>594</ele><time>2022-03-30T12:34:09Z</time><name>PT4084</name></trkpt>
<trkpt lat="54.491318" lon="-3.220765"><ele>594</ele><time>2022-03-30T12:34:10Z</time><name>PT4085</name></trkpt>
<trkpt lat="54.491310" lon="-3.220770"><ele>594</ele><time>2022-03-30T12:34:11Z</time><name>PT4086</name></trkpt>
<trkpt lat="54.491302" lon="-3.220775"><ele>595</ele><time>2022-03-30T12:34:12Z</time><name>PT4087</name></trkpt>
<trkpt lat="54.491291" lon="-3.220778"><ele>595</ele><time>2022-03-30T12:34:13Z</time><name>PT4088</name></trkpt>
<trkpt lat="54.491284" lon="-3.220779"><ele>595</ele><time>2022-03-30T12:34:14Z</time><name>PT4089</name></trkpt>
<trkpt lat="54.491273" lon="-3.220782"><ele>596</ele><time>2022-03-30T12:34:15Z</time><name>PT4090</name></trkpt>
<trkpt lat="54.491264" lon="-3.220785"><ele>596</ele><time>2022-03-30T12:34:16Z</time><name>PT4091</name></trkpt>
<trkpt lat="54.491251" lon="-3.220785"><ele>596</ele><time>2022-03-30T12:34:17Z</time><name>PT4092</name></trkpt>
<trkpt lat="54.491244" lon="-3.220792"><ele>596</ele><time>2022-03-30T12:34:18Z</time><name>PT4093</name></trkpt>
<trkpt lat="54.491238" lon="-3.220794"><ele>596</ele><time>2022-03-30T12:34:19Z</time><name>PT4094</name></trkpt>
<trkpt lat="54.491227" lon="-3.220796"><ele>596</ele><time>2022-03-30T12:34:20Z</time><name>PT4095</name></trkpt>
<trkpt lat="54.491218" lon="-3.220801"><ele>596</ele><time>2022-03-30T12:34:21Z</time><name>PT4096</name></trkpt>
<trkpt lat="54.491209" lon="-3.220803"><ele>596</ele><time>2022-03-30T12:34:22Z</time><name>PT4097</name></trkpt>
<trkpt lat="54.491200" lon="-3.220803"><ele>597</ele><time>2022-03-30T12:34:23Z</time><name>PT4098</name></trkpt>
<trkpt lat="54.491192" lon="-3.220802"><ele>596</ele><time>2022-03-30T12:34:24Z</time><name>PT4099</name></trkpt>
<trkpt lat="54.491182" lon="-3.220804"><ele>596</ele><time>2022-03-30T12:34:25Z</time><name>PT4100</name></trkpt>
<trkpt lat="54.491172" lon="-3.220805"><ele>597</ele><time>2022-03-30T12:34:26Z</time><name>PT4101</name></trkpt>
<trkpt lat="54.491161" lon="-3.220803"><ele>597</ele><time>2022-03-30T12:34:27Z</time><name>PT4102</name></trkpt>
<trkpt lat="54.491153" lon="-3.220805"><ele>597</ele><time>2022-03-30T12:34:28Z</time><name>PT4103</name></trkpt>
<trkpt lat="54.491146" lon="-3.220804"><ele>596</ele><time>2022-03-30T12:34:29Z</time><name>PT4104</name></trkpt>
<trkpt lat="54.491133" lon="-3.220807"><ele>597</ele><time>2022-03-30T12:34:30Z</time><name>PT4105</name></trkpt>
<trkpt lat="54.491124" lon="-3.220811"><ele>597</ele><time>2022-03-30T12:34:31Z</time><name>PT4106</name></trkpt>
<trkpt lat="54.491115" lon="-3.220811"><ele>596</ele><time>2022-03-30T12:34:32Z</time><name>PT4107</name></trkpt>
<trkpt lat="54.491103" lon="-3.220816"><ele>596</ele><time>2022-03-30T12:34:33Z</time><name>PT4108</name></trkpt>
<trkpt lat="54.491091" lon="-3.220819"><ele>596</ele><time>2022-03-30T12:34:34Z</time><name>PT4109</name></trkpt>
<trkpt lat="54.491082" lon="-3.220818"><ele>596</ele><time>2022-03-30T12:34:35Z</time><name>PT4110</name></trkpt>
<trkpt lat="54.491074" lon="-3.220818"><ele>596</ele><time>2022-03-30T12:34:36Z</time><name>PT4111</name></trkpt>
<trkpt lat="54.491065" lon="-3.220819"><ele>596</ele><time>2022-03-30T12:34:37Z</time><name>PT4112</name></trkpt>
<trkpt lat="54.491056" lon="-3.220820"><ele>597</ele><time>2022-03-30T12:34:38Z</time><name>PT4113</name></trkpt>
<trkpt lat="54.491049" lon="-3.220820"><ele>597</ele><time>2022-03-30T12:34:39Z</time><name>PT4114</name></trkpt>
<trkpt lat="54.491041" lon="-3.220818"><ele>596</ele><time>2022-03-30T12:34:40Z</time><name>PT4115</name></trkpt>
<trkpt lat="54.491033" lon="-3.220815"><ele>597</ele><time>2022-03-30T12:34:41Z</time><name>PT4116</name></trkpt>
<trkpt lat="54.491023" lon="-3.220811"><ele>597</ele><time>2022-03-30T12:34:42Z</time><name>PT4117</name></trkpt>
<trkpt lat="54.491012" lon="-3.220811"><ele>597</ele><time>2022-03-30T12:34:43Z</time><name>PT4118</name></trkpt>
<trkpt lat="54.491002" lon="-3.220812"><ele>597</ele><time>2022-03-30T12:34:44Z</time><name>PT4119</name></trkpt>
<trkpt lat="54.490990" lon="-3.220814"><ele>597</ele><time>2022-03-30T12:34:45Z</time><name>PT4120</name></trkpt>
<trkpt lat="54.490980" lon="-3.220813"><ele>597</ele><time>2022-03-30T12:34:46Z</time><name>PT4121</name></trkpt>
<trkpt lat="54.490972" lon="-3.220810"><ele>597</ele><time>2022-03-30T12:34:47Z</time><name>PT4122</name></trkpt>
<trkpt lat="54.490963" lon="-3.220807"><ele>598</ele><time>2022-03-30T12:34:48Z</time><name>PT4123</name></trkpt>
<trkpt lat="54.490954" lon="-3.220804"><ele>598</ele><time>2022-03-30T12:34:49Z</time><name>PT4124</name></trkpt>
<trkpt lat="54.490942" lon="-3.220803"><ele>599</ele><time>2022-03-30T12:34:50Z</time><name>PT4125</name></trkpt>
<trkpt lat="54.490934" lon="-3.220798"><ele>599</ele><time>2022-03-30T12:34:51Z</time><name>PT4126</name></trkpt>
<trkpt lat="54.490925" lon="-3.220794"><ele>599</ele><time>2022-03-30T12:34:52Z</time><name>PT4127</name></trkpt>
<trkpt lat="54.490917" lon="-3.220794"><ele>599</ele><time>2022-03-30T12:34:53Z</time><name>PT4128</name></trkpt>
<trkpt lat="54.490907" lon="-3.220792"><ele>599</ele><time>2022-03-30T12:34:55Z</time><name>PT4129</name></trkpt>
<trkpt lat="54.490896" lon="-3.220785"><ele>599</ele><time>2022-03-30T12:34:55Z</time><name>PT4130</name></trkpt>
<trkpt lat="54.490884" lon="-3.220780"><ele>598</ele><time>2022-03-30T12:34:56Z</time><name>PT4131</name></trkpt>
<trkpt lat="54.490873" lon="-3.220775"><ele>599</ele><time>2022-03-30T12:34:57Z</time><name>PT4132</name></trkpt>
<trkpt lat="54.490862" lon="-3.220771"><ele>599</ele><time>2022-03-30T12:34:58Z</time><name>PT4133</name></trkpt>
<trkpt lat="54.490854" lon="-3.220768"><ele>598</ele><time>2022-03-30T12:34:59Z</time><name>PT4134</name></trkpt>
<trkpt lat="54.490845" lon="-3.220762"><ele>598</ele><time>2022-03-30T12:35:00Z</time><name>PT4135</name></trkpt>
<trkpt lat="54.490834" lon="-3.220761"><ele>598</ele><time>2022-03-30T12:35:01Z</time><name>PT4136</name></trkpt>
<trkpt lat="54.490825" lon="-3.220757"><ele>598</ele><time>2022-03-30T12:35:02Z</time><name>PT4137</name></trkpt>
<trkpt lat="54.490816" lon="-3.220756"><ele>598</ele><time>2022-03-30T12:35:03Z</time><name>PT4138</name></trkpt>
<trkpt lat="54.490807" lon="-3.220752"><ele>598</ele><time>2022-03-30T12:35:04Z</time><name>PT4139</name></trkpt>
<trkpt lat="54.490799" lon="-3.220746"><ele>598</ele><time>2022-03-30T12:35:05Z</time><name>PT4140</name></trkpt>
<trkpt lat="54.490790" lon="-3.220739"><ele>598</ele><time>2022-03-30T12:35:06Z</time><name>PT4141</name></trkpt>
<trkpt lat="54.490782" lon="-3.220733"><ele>598</ele><time>2022-03-30T12:35:07Z</time><name>PT4142</name></trkpt>
<trkpt lat="54.490773" lon="-3.220726"><ele>598</ele><time>2022-03-30T12:35:08Z</time><name>PT4143</name></trkpt>
<trkpt lat="54.490766" lon="-3.220719"><ele>598</ele><time>2022-03-30T12:35:09Z</time><name>PT4144</name></trkpt>
<trkpt lat="54.490757" lon="-3.220712"><ele>599</ele><time>2022-03-30T12:35:10Z</time><name>PT4145</name></trkpt>
<trkpt lat="54.490737" lon="-3.220688"><ele>600</ele><time>2022-03-30T12:35:14Z</time><name>PT4146</name></trkpt>
<trkpt lat="54.490726" lon="-3.220667"><ele>600</ele><time>2022-03-30T12:35:17Z</time><name>PT4147</name></trkpt>
<trkpt lat="54.490712" lon="-3.220645"><ele>600</ele><time>2022-03-30T12:35:20Z</time><name>PT4148</name></trkpt>
<trkpt lat="54.490692" lon="-3.220622"><ele>600</ele><time>2022-03-30T12:35:24Z</time><name>PT4149</name></trkpt>
<trkpt lat="54.490673" lon="-3.220608"><ele>600</ele><time>2022-03-30T12:35:28Z</time><name>PT4150</name></trkpt>
<trkpt lat="54.490651" lon="-3.220580"><ele>599</ele><time>2022-03-30T12:35:31Z</time><name>PT4151</name></trkpt>
<trkpt lat="54.490619" lon="-3.220549"><ele>600</ele><time>2022-03-30T12:35:35Z</time><name>PT4152</name></trkpt>
<trkpt lat="54.490583" lon="-3.220527"><ele>601</ele><time>2022-03-30T12:35:39Z</time><name>PT4153</name></trkpt>
<trkpt lat="54.490560" lon="-3.220502"><ele>601</ele><time>2022-03-30T12:35:42Z</time><name>PT4154</name></trkpt>
<trkpt lat="54.490523" lon="-3.220466"><ele>602</ele><time>2022-03-30T12:35:46Z</time><name>PT4155</name></trkpt>
<trkpt lat="54.490494" lon="-3.220440"><ele>603</ele><time>2022-03-30T12:35:49Z</time><name>PT4156</name></trkpt>
<trkpt lat="54.490452" lon="-3.220404"><ele>603</ele><time>2022-03-30T12:35:53Z</time><name>PT4157</name></trkpt>
<trkpt lat="54.490428" lon="-3.220374"><ele>603</ele><time>2022-03-30T12:35:56Z</time><name>PT4158</name></trkpt>
<trkpt lat="54.490391" lon="-3.220337"><ele>603</ele><time>2022-03-30T12:36:00Z</time><name>PT4159</name></trkpt>
<trkpt lat="54.490355" lon="-3.220304"><ele>603</ele><time>2022-03-30T12:36:04Z</time><name>PT4160</name></trkpt>
<trkpt lat="54.490311" lon="-3.220273"><ele>604</ele><time>2022-03-30T12:36:08Z</time><name>PT4161</name></trkpt>
<trkpt lat="54.490270" lon="-3.220248"><ele>604</ele><time>2022-03-30T12:36:12Z</time><name>PT4162</name></trkpt>
<trkpt lat="54.490242" lon="-3.220222"><ele>604</ele><time>2022-03-30T12:36:16Z</time><name>PT4163</name></trkpt>
<trkpt lat="54.490208" lon="-3.220208"><ele>604</ele><time>2022-03-30T12:36:19Z</time><name>PT4164</name></trkpt>
<trkpt lat="54.490172" lon="-3.220189"><ele>605</ele><time>2022-03-30T12:36:23Z</time><name>PT4165</name></trkpt>
<trkpt lat="54.490147" lon="-3.220175"><ele>605</ele><time>2022-03-30T12:36:26Z</time><name>PT4166</name></trkpt>
<trkpt lat="54.490113" lon="-3.220143"><ele>606</ele><time>2022-03-30T12:36:30Z</time><name>PT4167</name></trkpt>
<trkpt lat="54.490087" lon="-3.220120"><ele>606</ele><time>2022-03-30T12:36:33Z</time><name>PT4168</name></trkpt>
<trkpt lat="54.490055" lon="-3.220087"><ele>605</ele><time>2022-03-30T12:36:37Z</time><name>PT4169</name></trkpt>
<trkpt lat="54.490036" lon="-3.220077"><ele>606</ele><time>2022-03-30T12:36:41Z</time><name>PT4170</name></trkpt>
<trkpt lat="54.490022" lon="-3.220061"><ele>605</ele><time>2022-03-30T12:36:44Z</time><name>PT4171</name></trkpt>
<trkpt lat="54.489996" lon="-3.220040"><ele>605</ele><time>2022-03-30T12:36:47Z</time><name>PT4172</name></trkpt>
<trkpt lat="54.489964" lon="-3.220009"><ele>605</ele><time>2022-03-30T12:36:51Z</time><name>PT4173</name></trkpt>
<trkpt lat="54.489934" lon="-3.219994"><ele>607</ele><time>2022-03-30T12:36:54Z</time><name>PT4174</name></trkpt>
<trkpt lat="54.489901" lon="-3.219974"><ele>607</ele><time>2022-03-30T12:36:58Z</time><name>PT4175</name></trkpt>
<trkpt lat="54.489864" lon="-3.219957"><ele>608</ele><time>2022-03-30T12:37:02Z</time><name>PT4176</name></trkpt>
<trkpt lat="54.489833" lon="-3.219933"><ele>607</ele><time>2022-03-30T12:37:06Z</time><name>PT4177</name></trkpt>
<trkpt lat="54.489801" lon="-3.219917"><ele>608</ele><time>2022-03-30T12:37:09Z</time><name>PT4178</name></trkpt>
<trkpt lat="54.489774" lon="-3.219907"><ele>608</ele><time>2022-03-30T12:37:12Z</time><name>PT4179</name></trkpt>
<trkpt lat="54.489732" lon="-3.219887"><ele>610</ele><time>2022-03-30T12:37:16Z</time><name>PT4180</name></trkpt>
<trkpt lat="54.489698" lon="-3.219860"><ele>610</ele><time>2022-03-30T12:37:20Z</time><name>PT4181</name></trkpt>
<trkpt lat="54.489674" lon="-3.219842"><ele>610</ele><time>2022-03-30T12:37:23Z</time><name>PT4182</name></trkpt>
<trkpt lat="54.489646" lon="-3.219819"><ele>611</ele><time>2022-03-30T12:37:26Z</time><name>PT4183</name></trkpt>
<trkpt lat="54.489605" lon="-3.219797"><ele>611</ele><time>2022-03-30T12:37:30Z</time><name>PT4184</name></trkpt>
<trkpt lat="54.489576" lon="-3.219764"><ele>611</ele><time>2022-03-30T12:37:34Z</time><name>PT4185</name></trkpt>
<trkpt lat="54.489551" lon="-3.219745"><ele>610</ele><time>2022-03-30T12:37:37Z</time><name>PT4186</name></trkpt>
<trkpt lat="54.489515" lon="-3.219723"><ele>611</ele><time>2022-03-30T12:37:41Z</time><name>PT4187</name></trkpt>
<trkpt lat="54.489494" lon="-3.219704"><ele>612</ele><time>2022-03-30T12:37:44Z</time><name>PT4188</name></trkpt>
<trkpt lat="54.489461" lon="-3.219684"><ele>612</ele><time>2022-03-30T12:37:48Z</time><name>PT4189</name></trkpt>
<trkpt lat="54.489433" lon="-3.219668"><ele>613</ele><time>2022-03-30T12:37:51Z</time><name>PT4190</name></trkpt>
<trkpt lat="54.489401" lon="-3.219649"><ele>614</ele><time>2022-03-30T12:37:55Z</time><name>PT4191</name></trkpt>
<trkpt lat="54.489368" lon="-3.219624"><ele>613</ele><time>2022-03-30T12:37:59Z</time><name>PT4192</name></trkpt>
<trkpt lat="54.489343" lon="-3.219613"><ele>613</ele><time>2022-03-30T12:38:02Z</time><name>PT4193</name></trkpt>
<trkpt lat="54.489311" lon="-3.219598"><ele>614</ele><time>2022-03-30T12:38:06Z</time><name>PT4194</name></trkpt>
<trkpt lat="54.489284" lon="-3.219578"><ele>614</ele><time>2022-03-30T12:38:09Z</time><name>PT4195</name></trkpt>
<trkpt lat="54.489248" lon="-3.219553"><ele>614</ele><time>2022-03-30T12:38:13Z</time><name>PT4196</name></trkpt>
<trkpt lat="54.489218" lon="-3.219532"><ele>613</ele><time>2022-03-30T12:38:16Z</time><name>PT4197</name></trkpt>
<trkpt lat="54.489182" lon="-3.219510"><ele>614</ele><time>2022-03-30T12:38:20Z</time><name>PT4198</name></trkpt>
<trkpt lat="54.489161" lon="-3.219491"><ele>614</ele><time>2022-03-30T12:38:23Z</time><name>PT4199</name></trkpt>
<trkpt lat="54.489136" lon="-3.219477"><ele>615</ele><time>2022-03-30T12:38:26Z</time><name>PT4200</name></trkpt>
<trkpt lat="54.489111" lon="-3.219457"><ele>616</ele><time>2022-03-30T12:38:29Z</time><name>PT4201</name></trkpt>
<trkpt lat="54.489091" lon="-3.219434"><ele>616</ele><time>2022-03-30T12:38:32Z</time><name>PT4202</name></trkpt>
<trkpt lat="54.489074" lon="-3.219417"><ele>617</ele><time>2022-03-30T12:38:35Z</time><name>PT4203</name></trkpt>
<trkpt lat="54.489058" lon="-3.219376"><ele>615</ele><time>2022-03-30T12:38:39Z</time><name>PT4204</name></trkpt>
<trkpt lat="54.489026" lon="-3.219334"><ele>615</ele><time>2022-03-30T12:38:43Z</time><name>PT4205</name></trkpt>
<trkpt lat="54.488990" lon="-3.219310"><ele>616</ele><time>2022-03-30T12:38:47Z</time><name>PT4206</name></trkpt>
<trkpt lat="54.488969" lon="-3.219308"><ele>616</ele><time>2022-03-30T12:38:50Z</time><name>PT4207</name></trkpt>
<trkpt lat="54.488962" lon="-3.219313"><ele>617</ele><time>2022-03-30T12:38:53Z</time><name>PT4208</name></trkpt>
<trkpt lat="54.488943" lon="-3.219298"><ele>616</ele><time>2022-03-30T12:38:56Z</time><name>PT4209</name></trkpt>
<trkpt lat="54.488920" lon="-3.219289"><ele>618</ele><time>2022-03-30T12:39:00Z</time><name>PT4210</name></trkpt>
<trkpt lat="54.488905" lon="-3.219284"><ele>617</ele><time>2022-03-30T12:39:03Z</time><name>PT4211</name></trkpt>
<trkpt lat="54.488893" lon="-3.219270"><ele>616</ele><time>2022-03-30T12:39:06Z</time><name>PT4212</name></trkpt>
<trkpt lat="54.488877" lon="-3.219259"><ele>612</ele><time>2022-03-30T12:39:10Z</time><name>PT4213</name></trkpt>
<trkpt lat="54.488849" lon="-3.219262"><ele>613</ele><time>2022-03-30T12:39:14Z</time><name>PT4214</name></trkpt>
<trkpt lat="54.488825" lon="-3.219233"><ele>611</ele><time>2022-03-30T12:39:17Z</time><name>PT4215</name></trkpt>
<trkpt lat="54.488794" lon="-3.219209"><ele>611</ele><time>2022-03-30T12:39:21Z</time><name>PT4216</name></trkpt>
<trkpt lat="54.488780" lon="-3.219194"><ele>611</ele><time>2022-03-30T12:39:23Z</time><name>PT4217</name></trkpt>
<trkpt lat="54.488771" lon="-3.219188"><ele>611</ele><time>2022-03-30T12:39:24Z</time><name>PT4218</name></trkpt>
<trkpt lat="54.488766" lon="-3.219183"><ele>611</ele><time>2022-03-30T12:39:25Z</time><name>PT4219</name></trkpt>
<trkpt lat="54.488756" lon="-3.219181"><ele>611</ele><time>2022-03-30T12:39:26Z</time><name>PT4220</name></trkpt>
<trkpt lat="54.488746" lon="-3.219181"><ele>613</ele><time>2022-03-30T12:39:27Z</time><name>PT4221</name></trkpt>
<trkpt lat="54.488739" lon="-3.219173"><ele>613</ele><time>2022-03-30T12:39:28Z</time><name>PT4222</name></trkpt>
<trkpt lat="54.488730" lon="-3.219168"><ele>613</ele><time>2022-03-30T12:39:29Z</time><name>PT4223</name></trkpt>
<trkpt lat="54.488719" lon="-3.219156"><ele>612</ele><time>2022-03-30T12:39:30Z</time><name>PT4224</name></trkpt>
<trkpt lat="54.488712" lon="-3.219152"><ele>612</ele><time>2022-03-30T12:39:31Z</time><name>PT4225</name></trkpt>
<trkpt lat="54.488703" lon="-3.219153"><ele>613</ele><time>2022-03-30T12:39:32Z</time><name>PT4226</name></trkpt>
<trkpt lat="54.488694" lon="-3.219153"><ele>613</ele><time>2022-03-30T12:39:33Z</time><name>PT4227</name></trkpt>
<trkpt lat="54.488683" lon="-3.219151"><ele>614</ele><time>2022-03-30T12:39:34Z</time><name>PT4228</name></trkpt>
<trkpt lat="54.488679" lon="-3.219148"><ele>614</ele><time>2022-03-30T12:39:35Z</time><name>PT4229</name></trkpt>
<trkpt lat="54.488672" lon="-3.219146"><ele>614</ele><time>2022-03-30T12:39:36Z</time><name>PT4230</name></trkpt>
<trkpt lat="54.488666" lon="-3.219140"><ele>614</ele><time>2022-03-30T12:39:37Z</time><name>PT4231</name></trkpt>
<trkpt lat="54.488656" lon="-3.219137"><ele>614</ele><time>2022-03-30T12:39:38Z</time><name>PT4232</name></trkpt>
<trkpt lat="54.488646" lon="-3.219127"><ele>614</ele><time>2022-03-30T12:39:39Z</time><name>PT4233</name></trkpt>
<trkpt lat="54.488644" lon="-3.219116"><ele>614</ele><time>2022-03-30T12:39:40Z</time><name>PT4234</name></trkpt>
<trkpt lat="54.488638" lon="-3.219111"><ele>614</ele><time>2022-03-30T12:39:41Z</time><name>PT4235</name></trkpt>
<trkpt lat="54.488627" lon="-3.219102"><ele>614</ele><time>2022-03-30T12:39:43Z</time><name>PT4236</name></trkpt>
<trkpt lat="54.488613" lon="-3.219098"><ele>614</ele><time>2022-03-30T12:39:43Z</time><name>PT4237</name></trkpt>
<trkpt lat="54.488604" lon="-3.219091"><ele>615</ele><time>2022-03-30T12:39:44Z</time><name>PT4238</name></trkpt>
<trkpt lat="54.488594" lon="-3.219085"><ele>615</ele><time>2022-03-30T12:39:45Z</time><name>PT4239</name></trkpt>
<trkpt lat="54.488583" lon="-3.219081"><ele>615</ele><time>2022-03-30T12:39:46Z</time><name>PT4240</name></trkpt>
<trkpt lat="54.488575" lon="-3.219079"><ele>616</ele><time>2022-03-30T12:39:47Z</time><name>PT4241</name></trkpt>
<trkpt lat="54.488564" lon="-3.219080"><ele>616</ele><time>2022-03-30T12:39:48Z</time><name>PT4242</name></trkpt>
<trkpt lat="54.488548" lon="-3.219075"><ele>616</ele><time>2022-03-30T12:39:49Z</time><name>PT4243</name></trkpt>
<trkpt lat="54.488536" lon="-3.219076"><ele>617</ele><time>2022-03-30T12:39:50Z</time><name>PT4244</name></trkpt>
<trkpt lat="54.488525" lon="-3.219077"><ele>617</ele><time>2022-03-30T12:39:51Z</time><name>PT4245</name></trkpt>
<trkpt lat="54.488516" lon="-3.219076"><ele>618</ele><time>2022-03-30T12:39:52Z</time><name>PT4246</name></trkpt>
<trkpt lat="54.488507" lon="-3.219074"><ele>618</ele><time>2022-03-30T12:39:53Z</time><name>PT4247</name></trkpt>
<trkpt lat="54.488502" lon="-3.219072"><ele>619</ele><time>2022-03-30T12:39:54Z</time><name>PT4248</name></trkpt>
<trkpt lat="54.488500" lon="-3.219071"><ele>618</ele><time>2022-03-30T12:39:55Z</time><name>PT4249</name></trkpt>
<trkpt lat="54.488500" lon="-3.219069"><ele>616</ele><time>2022-03-30T12:39:56Z</time><name>PT4250</name></trkpt>
<trkpt lat="54.488493" lon="-3.219065"><ele>616</ele><time>2022-03-30T12:39:58Z</time><name>PT4251</name></trkpt>
<trkpt lat="54.488487" lon="-3.219069"><ele>617</ele><time>2022-03-30T12:39:58Z</time><name>PT4252</name></trkpt>
<trkpt lat="54.488481" lon="-3.219067"><ele>617</ele><time>2022-03-30T12:39:59Z</time><name>PT4253</name></trkpt>
<trkpt lat="54.488477" lon="-3.219066"><ele>617</ele><time>2022-03-30T12:40:00Z</time><name>PT4254</name></trkpt>
<trkpt lat="54.488472" lon="-3.219062"><ele>617</ele><time>2022-03-30T12:40:01Z</time><name>PT4255</name></trkpt>
<trkpt lat="54.488464" lon="-3.219058"><ele>617</ele><time>2022-03-30T12:40:02Z</time><name>PT4256</name></trkpt>
<trkpt lat="54.488457" lon="-3.219051"><ele>617</ele><time>2022-03-30T12:40:03Z</time><name>PT4257</name></trkpt>
<trkpt lat="54.488450" lon="-3.219040"><ele>617</ele><time>2022-03-30T12:40:04Z</time><name>PT4258</name></trkpt>
<trkpt lat="54.488444" lon="-3.219030"><ele>617</ele><time>2022-03-30T12:40:05Z</time><name>PT4259</name></trkpt>
<trkpt lat="54.488441" lon="-3.219027"><ele>617</ele><time>2022-03-30T12:40:06Z</time><name>PT4260</name></trkpt>
<trkpt lat="54.488433" lon="-3.219014"><ele>617</ele><time>2022-03-30T12:40:07Z</time><name>PT4261</name></trkpt>
<trkpt lat="54.488426" lon="-3.219005"><ele>618</ele><time>2022-03-30T12:40:08Z</time><name>PT4262</name></trkpt>
<trkpt lat="54.488419" lon="-3.218992"><ele>617</ele><time>2022-03-30T12:40:09Z</time><name>PT4263</name></trkpt>
<trkpt lat="54.488409" lon="-3.218979"><ele>617</ele><time>2022-03-30T12:40:10Z</time><name>PT4264</name></trkpt>
<trkpt lat="54.488399" lon="-3.218970"><ele>617</ele><time>2022-03-30T12:40:11Z</time><name>PT4265</name></trkpt>
<trkpt lat="54.488391" lon="-3.218964"><ele>616</ele><time>2022-03-30T12:40:12Z</time><name>PT4266</name></trkpt>
<trkpt lat="54.488387" lon="-3.218958"><ele>616</ele><time>2022-03-30T12:40:13Z</time><name>PT4267</name></trkpt>
<trkpt lat="54.488380" lon="-3.218951"><ele>616</ele><time>2022-03-30T12:40:14Z</time><name>PT4268</name></trkpt>
<trkpt lat="54.488374" lon="-3.218944"><ele>616</ele><time>2022-03-30T12:40:15Z</time><name>PT4269</name></trkpt>
<trkpt lat="54.488366" lon="-3.218938"><ele>617</ele><time>2022-03-30T12:40:16Z</time><name>PT4270</name></trkpt>
<trkpt lat="54.488359" lon="-3.218930"><ele>617</ele><time>2022-03-30T12:40:17Z</time><name>PT4271</name></trkpt>
<trkpt lat="54.488349" lon="-3.218917"><ele>617</ele><time>2022-03-30T12:40:18Z</time><name>PT4272</name></trkpt>
<trkpt lat="54.488344" lon="-3.218913"><ele>617</ele><time>2022-03-30T12:40:19Z</time><name>PT4273</name></trkpt>
<trkpt lat="54.488339" lon="-3.218912"><ele>617</ele><time>2022-03-30T12:40:20Z</time><name>PT4274</name></trkpt>
<trkpt lat="54.488334" lon="-3.218899"><ele>616</ele><time>2022-03-30T12:40:21Z</time><name>PT4275</name></trkpt>
<trkpt lat="54.488325" lon="-3.218895"><ele>616</ele><time>2022-03-30T12:40:22Z</time><name>PT4276</name></trkpt>
<trkpt lat="54.488321" lon="-3.218894"><ele>616</ele><time>2022-03-30T12:40:23Z</time><name>PT4277</name></trkpt>
<trkpt lat="54.488314" lon="-3.218893"><ele>616</ele><time>2022-03-30T12:40:24Z</time><name>PT4278</name></trkpt>
<trkpt lat="54.488305" lon="-3.218890"><ele>617</ele><time>2022-03-30T12:40:25Z</time><name>PT4279</name></trkpt>
<trkpt lat="54.488295" lon="-3.218887"><ele>616</ele><time>2022-03-30T12:40:26Z</time><name>PT4280</name></trkpt>
<trkpt lat="54.488289" lon="-3.218883"><ele>616</ele><time>2022-03-30T12:40:27Z</time><name>PT4281</name></trkpt>
<trkpt lat="54.488280" lon="-3.218877"><ele>616</ele><time>2022-03-30T12:40:28Z</time><name>PT4282</name></trkpt>
<trkpt lat="54.488274" lon="-3.218880"><ele>617</ele><time>2022-03-30T12:40:29Z</time><name>PT4283</name></trkpt>
<trkpt lat="54.488266" lon="-3.218873"><ele>617</ele><time>2022-03-30T12:40:30Z</time><name>PT4284</name></trkpt>
<trkpt lat="54.488256" lon="-3.218869"><ele>617</ele><time>2022-03-30T12:40:31Z</time><name>PT4285</name></trkpt>
<trkpt lat="54.488253" lon="-3.218862"><ele>618</ele><time>2022-03-30T12:40:32Z</time><name>PT4286</name></trkpt>
<trkpt lat="54.488245" lon="-3.218853"><ele>618</ele><time>2022-03-30T12:40:33Z</time><name>PT4287</name></trkpt>
<trkpt lat="54.488238" lon="-3.218850"><ele>617</ele><time>2022-03-30T12:40:34Z</time><name>PT4288</name></trkpt>
<trkpt lat="54.488231" lon="-3.218852"><ele>618</ele><time>2022-03-30T12:40:35Z</time><name>PT4289</name></trkpt>
<trkpt lat="54.488223" lon="-3.218851"><ele>618</ele><time>2022-03-30T12:40:36Z</time><name>PT4290</name></trkpt>
<trkpt lat="54.488221" lon="-3.218846"><ele>617</ele><time>2022-03-30T12:40:37Z</time><name>PT4291</name></trkpt>
<trkpt lat="54.488214" lon="-3.218842"><ele>617</ele><time>2022-03-30T12:40:38Z</time><name>PT4292</name></trkpt>
<trkpt lat="54.488210" lon="-3.218834"><ele>617</ele><time>2022-03-30T12:40:39Z</time><name>PT4293</name></trkpt>
<trkpt lat="54.488205" lon="-3.218830"><ele>617</ele><time>2022-03-30T12:40:40Z</time><name>PT4294</name></trkpt>
<trkpt lat="54.488199" lon="-3.218823"><ele>617</ele><time>2022-03-30T12:40:41Z</time><name>PT4295</name></trkpt>
<trkpt lat="54.488194" lon="-3.218818"><ele>617</ele><time>2022-03-30T12:40:42Z</time><name>PT4296</name></trkpt>
<trkpt lat="54.488186" lon="-3.218811"><ele>617</ele><time>2022-03-30T12:40:43Z</time><name>PT4297</name></trkpt>
<trkpt lat="54.488177" lon="-3.218804"><ele>616</ele><time>2022-03-30T12:40:44Z</time><name>PT4298</name></trkpt>
<trkpt lat="54.488172" lon="-3.218793"><ele>616</ele><time>2022-03-30T12:40:45Z</time><name>PT4299</name></trkpt>
<trkpt lat="54.488165" lon="-3.218784"><ele>616</ele><time>2022-03-30T12:40:46Z</time><name>PT4300</name></trkpt>
<trkpt lat="54.488157" lon="-3.218779"><ele>616</ele><time>2022-03-30T12:40:47Z</time><name>PT4301</name></trkpt>
<trkpt lat="54.488149" lon="-3.218774"><ele>616</ele><time>2022-03-30T12:40:48Z</time><name>PT4302</name></trkpt>
<trkpt lat="54.488137" lon="-3.218770"><ele>616</ele><time>2022-03-30T12:40:49Z</time><name>PT4303</name></trkpt>
<trkpt lat="54.488127" lon="-3.218765"><ele>616</ele><time>2022-03-30T12:40:50Z</time><name>PT4304</name></trkpt>
<trkpt lat="54.488116" lon="-3.218757"><ele>616</ele><time>2022-03-30T12:40:51Z</time><name>PT4305</name></trkpt>
<trkpt lat="54.488108" lon="-3.218749"><ele>616</ele><time>2022-03-30T12:40:52Z</time><name>PT4306</name></trkpt>
<trkpt lat="54.488103" lon="-3.218743"><ele>616</ele><time>2022-03-30T12:40:53Z</time><name>PT4307</name></trkpt>
<trkpt lat="54.488098" lon="-3.218739"><ele>616</ele><time>2022-03-30T12:40:54Z</time><name>PT4308</name></trkpt>
<trkpt lat="54.488088" lon="-3.218737"><ele>616</ele><time>2022-03-30T12:40:55Z</time><name>PT4309</name></trkpt>
<trkpt lat="54.488078" lon="-3.218732"><ele>616</ele><time>2022-03-30T12:40:56Z</time><name>PT4310</name></trkpt>
<trkpt lat="54.488069" lon="-3.218729"><ele>617</ele><time>2022-03-30T12:40:57Z</time><name>PT4311</name></trkpt>
<trkpt lat="54.488061" lon="-3.218725"><ele>617</ele><time>2022-03-30T12:40:58Z</time><name>PT4312</name></trkpt>
<trkpt lat="54.488053" lon="-3.218715"><ele>617</ele><time>2022-03-30T12:40:59Z</time><name>PT4313</name></trkpt>
<trkpt lat="54.488047" lon="-3.218705"><ele>617</ele><time>2022-03-30T12:41:00Z</time><name>PT4314</name></trkpt>
<trkpt lat="54.488049" lon="-3.218690"><ele>616</ele><time>2022-03-30T12:41:01Z</time><name>PT4315</name></trkpt>
<trkpt lat="54.488046" lon="-3.218681"><ele>616</ele><time>2022-03-30T12:41:02Z</time><name>PT4316</name></trkpt>
<trkpt lat="54.488046" lon="-3.218676"><ele>616</ele><time>2022-03-30T12:41:03Z</time><name>PT4317</name></trkpt>
<trkpt lat="54.488042" lon="-3.218673"><ele>616</ele><time>2022-03-30T12:41:04Z</time><name>PT4318</name></trkpt>
<trkpt lat="54.488033" lon="-3.218666"><ele>617</ele><time>2022-03-30T12:41:05Z</time><name>PT4319</name></trkpt>
<trkpt lat="54.488028" lon="-3.218657"><ele>617</ele><time>2022-03-30T12:41:06Z</time><name>PT4320</name></trkpt>
<trkpt lat="54.488022" lon="-3.218647"><ele>617</ele><time>2022-03-30T12:41:07Z</time><name>PT4321</name></trkpt>
<trkpt lat="54.488017" lon="-3.218641"><ele>618</ele><time>2022-03-30T12:41:08Z</time><name>PT4322</name></trkpt>
<trkpt lat="54.488015" lon="-3.218633"><ele>618</ele><time>2022-03-30T12:41:09Z</time><name>PT4323</name></trkpt>
<trkpt lat="54.488019" lon="-3.218631"><ele>619</ele><time>2022-03-30T12:41:10Z</time><name>PT4324</name></trkpt>
<trkpt lat="54.488018" lon="-3.218635"><ele>619</ele><time>2022-03-30T12:41:11Z</time><name>PT4325</name></trkpt>
<trkpt lat="54.488012" lon="-3.218626"><ele>620</ele><time>2022-03-30T12:41:12Z</time><name>PT4326</name></trkpt>
<trkpt lat="54.488012" lon="-3.218638"><ele>621</ele><time>2022-03-30T12:41:13Z</time><name>PT4327</name></trkpt>
<trkpt lat="54.488017" lon="-3.218646"><ele>622</ele><time>2022-03-30T12:41:14Z</time><name>PT4328</name></trkpt>
<trkpt lat="54.488018" lon="-3.218648"><ele>622</ele><time>2022-03-30T12:41:15Z</time><name>PT4329</name></trkpt>
<trkpt lat="54.488022" lon="-3.218656"><ele>624</ele><time>2022-03-30T12:41:25Z</time><name>PT4330</name></trkpt>
<trkpt lat="54.488013" lon="-3.218671"><ele>623</ele><time>2022-03-30T12:41:26Z</time><name>PT4331</name></trkpt>
<trkpt lat="54.488010" lon="-3.218669"><ele>622</ele><time>2022-03-30T12:41:27Z</time><name>PT4332</name></trkpt>
<trkpt lat="54.488009" lon="-3.218664"><ele>622</ele><time>2022-03-30T12:41:28Z</time><name>PT4333</name></trkpt>
<trkpt lat="54.488006" lon="-3.218663"><ele>622</ele><time>2022-03-30T12:41:29Z</time><name>PT4334</name></trkpt>
<trkpt lat="54.488006" lon="-3.218668"><ele>622</ele><time>2022-03-30T12:41:30Z</time><name>PT4335</name></trkpt>
<trkpt lat="54.488007" lon="-3.218669"><ele>622</ele><time>2022-03-30T12:41:31Z</time><name>PT4336</name></trkpt>
<trkpt lat="54.488006" lon="-3.218666"><ele>622</ele><time>2022-03-30T12:41:32Z</time><name>PT4337</name></trkpt>
<trkpt lat="54.488005" lon="-3.218667"><ele>622</ele><time>2022-03-30T12:41:33Z</time><name>PT4338</name></trkpt>
<trkpt lat="54.488003" lon="-3.218666"><ele>622</ele><time>2022-03-30T12:41:34Z</time><name>PT4339</name></trkpt>
<trkpt lat="54.488004" lon="-3.218662"><ele>622</ele><time>2022-03-30T12:41:35Z</time><name>PT4340</name></trkpt>
<trkpt lat="54.488008" lon="-3.218661"><ele>622</ele><time>2022-03-30T12:41:36Z</time><name>PT4341</name></trkpt>
<trkpt lat="54.488009" lon="-3.218645"><ele>622</ele><time>2022-03-30T12:42:01Z</time><name>PT4342</name></trkpt>
<trkpt lat="54.488008" lon="-3.218655"><ele>623</ele><time>2022-03-30T12:42:02Z</time><name>PT4343</name></trkpt>
<trkpt lat="54.488007" lon="-3.218656"><ele>623</ele><time>2022-03-30T12:42:03Z</time><name>PT4344</name></trkpt>
<trkpt lat="54.488007" lon="-3.218655"><ele>623</ele><time>2022-03-30T12:42:04Z</time><name>PT4345</name></trkpt>
<trkpt lat="54.488007" lon="-3.218655"><ele>623</ele><time>2022-03-30T12:42:54Z</time><name>PT4346</name></trkpt>
<trkpt lat="54.488016" lon="-3.218655"><ele>623</ele><time>2022-03-30T12:42:55Z</time><name>PT4347</name></trkpt>
<trkpt lat="54.488020" lon="-3.218654"><ele>623</ele><time>2022-03-30T12:42:56Z</time><name>PT4348</name></trkpt>
<trkpt lat="54.488023" lon="-3.218656"><ele>622</ele><time>2022-03-30T12:42:57Z</time><name>PT4349</name></trkpt>
<trkpt lat="54.488022" lon="-3.218653"><ele>622</ele><time>2022-03-30T12:42:58Z</time><name>PT4350</name></trkpt>
<trkpt lat="54.488020" lon="-3.218651"><ele>622</ele><time>2022-03-30T12:42:59Z</time><name>PT4351</name></trkpt>
<trkpt lat="54.488018" lon="-3.218649"><ele>622</ele><time>2022-03-30T12:43:00Z</time><name>PT4352</name></trkpt>
<trkpt lat="54.488010" lon="-3.218653"><ele>622</ele><time>2022-03-30T12:43:27Z</time><name>PT4353</name></trkpt>
<trkpt lat="54.488012" lon="-3.218656"><ele>622</ele><time>2022-03-30T12:43:30Z</time><name>PT4354</name></trkpt>
<trkpt lat="54.488013" lon="-3.218653"><ele>623</ele><time>2022-03-30T12:44:19Z</time><name>PT4355</name></trkpt>
<trkpt lat="54.488003" lon="-3.218650"><ele>622</ele><time>2022-03-30T12:44:59Z</time><name>PT4356</name></trkpt>
<trkpt lat="54.487977" lon="-3.218618"><ele>622</ele><time>2022-03-30T12:45:03Z</time><name>PT4357</name></trkpt>
<trkpt lat="54.487957" lon="-3.218609"><ele>622</ele><time>2022-03-30T12:45:06Z</time><name>PT4358</name></trkpt>
<trkpt lat="54.487953" lon="-3.218607"><ele>622</ele><time>2022-03-30T12:45:10Z</time><name>PT4359</name></trkpt>
<trkpt lat="54.487934" lon="-3.218565"><ele>622</ele><time>2022-03-30T12:45:30Z</time><name>PT4360</name></trkpt>
<trkpt lat="54.487891" lon="-3.218531"><ele>622</ele><time>2022-03-30T12:45:34Z</time><name>PT4361</name></trkpt>
<trkpt lat="54.487857" lon="-3.218554"><ele>622</ele><time>2022-03-30T12:45:38Z</time><name>PT4362</name></trkpt>
<trkpt lat="54.487848" lon="-3.218554"><ele>622</ele><time>2022-03-30T12:45:42Z</time><name>PT4363</name></trkpt>
<trkpt lat="54.487847" lon="-3.218554"><ele>622</ele><time>2022-03-30T12:45:46Z</time><name>PT4364</name></trkpt>
<trkpt lat="54.487843" lon="-3.218549"><ele>622</ele><time>2022-03-30T12:46:30Z</time><name>PT4365</name></trkpt>
<trkpt lat="54.487837" lon="-3.218540"><ele>622</ele><time>2022-03-30T12:46:34Z</time><name>PT4366</name></trkpt>
<trkpt lat="54.487837" lon="-3.218528"><ele>621</ele><time>2022-03-30T12:48:26Z</time><name>PT4367</name></trkpt>
<trkpt lat="54.487835" lon="-3.218532"><ele>621</ele><time>2022-03-30T12:48:30Z</time><name>PT4368</name></trkpt>
<trkpt lat="54.487815" lon="-3.218536"><ele>621</ele><time>2022-03-30T12:48:48Z</time><name>PT4369</name></trkpt>
<trkpt lat="54.487781" lon="-3.218544"><ele>621</ele><time>2022-03-30T12:48:51Z</time><name>PT4370</name></trkpt>
<trkpt lat="54.487741" lon="-3.218555"><ele>620</ele><time>2022-03-30T12:48:54Z</time><name>PT4371</name></trkpt>
<trkpt lat="54.487715" lon="-3.218553"><ele>620</ele><time>2022-03-30T12:48:57Z</time><name>PT4372</name></trkpt>
<trkpt lat="54.487702" lon="-3.218561"><ele>620</ele><time>2022-03-30T12:49:01Z</time><name>PT4373</name></trkpt>
<trkpt lat="54.487703" lon="-3.218565"><ele>620</ele><time>2022-03-30T12:49:05Z</time><name>PT4374</name></trkpt>
<trkpt lat="54.487686" lon="-3.218577"><ele>620</ele><time>2022-03-30T12:49:11Z</time><name>PT4375</name></trkpt>
<trkpt lat="54.487654" lon="-3.218602"><ele>620</ele><time>2022-03-30T12:49:15Z</time><name>PT4376</name></trkpt>
<trkpt lat="54.487622" lon="-3.218635"><ele>620</ele><time>2022-03-30T12:49:18Z</time><name>PT4377</name></trkpt>
<trkpt lat="54.487592" lon="-3.218650"><ele>620</ele><time>2022-03-30T12:49:21Z</time><name>PT4378</name></trkpt>
<trkpt lat="54.487555" lon="-3.218667"><ele>620</ele><time>2022-03-30T12:49:25Z</time><name>PT4379</name></trkpt>
<trkpt lat="54.487534" lon="-3.218679"><ele>620</ele><time>2022-03-30T12:49:28Z</time><name>PT4380</name></trkpt>
<trkpt lat="54.487531" lon="-3.218695"><ele>619</ele><time>2022-03-30T12:49:31Z</time><name>PT4381</name></trkpt>
<trkpt lat="54.487489" lon="-3.218708"><ele>619</ele><time>2022-03-30T12:49:35Z</time><name>PT4382</name></trkpt>
<trkpt lat="54.487454" lon="-3.218701"><ele>619</ele><time>2022-03-30T12:49:39Z</time><name>PT4383</name></trkpt>
<trkpt lat="54.487430" lon="-3.218691"><ele>619</ele><time>2022-03-30T12:49:43Z</time><name>PT4384</name></trkpt>
<trkpt lat="54.487406" lon="-3.218718"><ele>618</ele><time>2022-03-30T12:49:46Z</time><name>PT4385</name></trkpt>
<trkpt lat="54.487403" lon="-3.218745"><ele>618</ele><time>2022-03-30T12:49:50Z</time><name>PT4386</name></trkpt>
<trkpt lat="54.487404" lon="-3.218750"><ele>618</ele><time>2022-03-30T12:49:53Z</time><name>PT4387</name></trkpt>
<trkpt lat="54.487384" lon="-3.218761"><ele>618</ele><time>2022-03-30T12:49:57Z</time><name>PT4388</name></trkpt>
<trkpt lat="54.487358" lon="-3.218780"><ele>619</ele><time>2022-03-30T12:50:00Z</time><name>PT4389</name></trkpt>
<trkpt lat="54.487321" lon="-3.218789"><ele>619</ele><time>2022-03-30T12:50:04Z</time><name>PT4390</name></trkpt>
<trkpt lat="54.487282" lon="-3.218773"><ele>619</ele><time>2022-03-30T12:50:07Z</time><name>PT4391</name></trkpt>
<trkpt lat="54.487256" lon="-3.218770"><ele>618</ele><time>2022-03-30T12:50:10Z</time><name>PT4392</name></trkpt>
<trkpt lat="54.487227" lon="-3.218774"><ele>617</ele><time>2022-03-30T12:50:13Z</time><name>PT4393</name></trkpt>
<trkpt lat="54.487181" lon="-3.218786"><ele>618</ele><time>2022-03-30T12:50:17Z</time><name>PT4394</name></trkpt>
<trkpt lat="54.487155" lon="-3.218808"><ele>617</ele><time>2022-03-30T12:50:20Z</time><name>PT4395</name></trkpt>
<trkpt lat="54.487129" lon="-3.218806"><ele>618</ele><time>2022-03-30T12:50:23Z</time><name>PT4396</name></trkpt>
<trkpt lat="54.487096" lon="-3.218808"><ele>617</ele><time>2022-03-30T12:50:27Z</time><name>PT4397</name></trkpt>
<trkpt lat="54.487074" lon="-3.218804"><ele>616</ele><time>2022-03-30T12:50:30Z</time><name>PT4398</name></trkpt>
<trkpt lat="54.487051" lon="-3.218809"><ele>615</ele><time>2022-03-30T12:50:33Z</time><name>PT4399</name></trkpt>
<trkpt lat="54.487033" lon="-3.218775"><ele>614</ele><time>2022-03-30T12:50:37Z</time><name>PT4400</name></trkpt>
<trkpt lat="54.487012" lon="-3.218753"><ele>614</ele><time>2022-03-30T12:50:40Z</time><name>PT4401</name></trkpt>
<trkpt lat="54.486979" lon="-3.218755"><ele>615</ele><time>2022-03-30T12:50:44Z</time><name>PT4402</name></trkpt>
<trkpt lat="54.486948" lon="-3.218745"><ele>613</ele><time>2022-03-30T12:50:48Z</time><name>PT4403</name></trkpt>
<trkpt lat="54.486919" lon="-3.218760"><ele>612</ele><time>2022-03-30T12:50:52Z</time><name>PT4404</name></trkpt>
<trkpt lat="54.486869" lon="-3.218769"><ele>613</ele><time>2022-03-30T12:50:56Z</time><name>PT4405</name></trkpt>
<trkpt lat="54.486832" lon="-3.218782"><ele>613</ele><time>2022-03-30T12:50:59Z</time><name>PT4406</name></trkpt>
<trkpt lat="54.486801" lon="-3.218785"><ele>613</ele><time>2022-03-30T12:51:02Z</time><name>PT4407</name></trkpt>
<trkpt lat="54.486767" lon="-3.218791"><ele>614</ele><time>2022-03-30T12:51:06Z</time><name>PT4408</name></trkpt>
<trkpt lat="54.486745" lon="-3.218805"><ele>613</ele><time>2022-03-30T12:51:09Z</time><name>PT4409</name></trkpt>
<trkpt lat="54.486705" lon="-3.218806"><ele>613</ele><time>2022-03-30T12:51:13Z</time><name>PT4410</name></trkpt>
<trkpt lat="54.486677" lon="-3.218804"><ele>613</ele><time>2022-03-30T12:51:16Z</time><name>PT4411</name></trkpt>
<trkpt lat="54.486662" lon="-3.218815"><ele>614</ele><time>2022-03-30T12:51:19Z</time><name>PT4412</name></trkpt>
<trkpt lat="54.486636" lon="-3.218841"><ele>613</ele><time>2022-03-30T12:51:23Z</time><name>PT4413</name></trkpt>
<trkpt lat="54.486630" lon="-3.218892"><ele>615</ele><time>2022-03-30T12:51:26Z</time><name>PT4414</name></trkpt>
<trkpt lat="54.486611" lon="-3.218933"><ele>616</ele><time>2022-03-30T12:51:30Z</time><name>PT4415</name></trkpt>
<trkpt lat="54.486599" lon="-3.218973"><ele>618</ele><time>2022-03-30T12:51:33Z</time><name>PT4416</name></trkpt>
<trkpt lat="54.486590" lon="-3.219014"><ele>618</ele><time>2022-03-30T12:51:36Z</time><name>PT4417</name></trkpt>
<trkpt lat="54.486577" lon="-3.219077"><ele>619</ele><time>2022-03-30T12:51:40Z</time><name>PT4418</name></trkpt>
<trkpt lat="54.486541" lon="-3.219122"><ele>620</ele><time>2022-03-30T12:51:44Z</time><name>PT4419</name></trkpt>
<trkpt lat="54.486510" lon="-3.219157"><ele>621</ele><time>2022-03-30T12:51:48Z</time><name>PT4420</name></trkpt>
<trkpt lat="54.486485" lon="-3.219178"><ele>621</ele><time>2022-03-30T12:51:52Z</time><name>PT4421</name></trkpt>
<trkpt lat="54.486458" lon="-3.219197"><ele>621</ele><time>2022-03-30T12:51:55Z</time><name>PT4422</name></trkpt>
<trkpt lat="54.486451" lon="-3.219238"><ele>622</ele><time>2022-03-30T12:51:59Z</time><name>PT4423</name></trkpt>
<trkpt lat="54.486435" lon="-3.219274"><ele>621</ele><time>2022-03-30T12:52:03Z</time><name>PT4424</name></trkpt>
<trkpt lat="54.486430" lon="-3.219288"><ele>622</ele><time>2022-03-30T12:52:06Z</time><name>PT4425</name></trkpt>
<trkpt lat="54.486415" lon="-3.219331"><ele>622</ele><time>2022-03-30T12:52:10Z</time><name>PT4426</name></trkpt>
<trkpt lat="54.486396" lon="-3.219373"><ele>623</ele><time>2022-03-30T12:52:13Z</time><name>PT4427</name></trkpt>
<trkpt lat="54.486373" lon="-3.219428"><ele>623</ele><time>2022-03-30T12:52:17Z</time><name>PT4428</name></trkpt>
<trkpt lat="54.486356" lon="-3.219481"><ele>623</ele><time>2022-03-30T12:52:20Z</time><name>PT4429</name></trkpt>
<trkpt lat="54.486336" lon="-3.219528"><ele>622</ele><time>2022-03-30T12:52:23Z</time><name>PT4430</name></trkpt>
<trkpt lat="54.486320" lon="-3.219568"><ele>623</ele><time>2022-03-30T12:52:26Z</time><name>PT4431</name></trkpt>
<trkpt lat="54.486294" lon="-3.219613"><ele>624</ele><time>2022-03-30T12:52:30Z</time><name>PT4432</name></trkpt>
<trkpt lat="54.486265" lon="-3.219666"><ele>625</ele><time>2022-03-30T12:52:34Z</time><name>PT4433</name></trkpt>
<trkpt lat="54.486250" lon="-3.219713"><ele>625</ele><time>2022-03-30T12:52:37Z</time><name>PT4434</name></trkpt>
<trkpt lat="54.486233" lon="-3.219768"><ele>627</ele><time>2022-03-30T12:52:41Z</time><name>PT4435</name></trkpt>
<trkpt lat="54.486219" lon="-3.219798"><ele>627</ele><time>2022-03-30T12:52:44Z</time><name>PT4436</name></trkpt>
<trkpt lat="54.486194" lon="-3.219829"><ele>628</ele><time>2022-03-30T12:52:48Z</time><name>PT4437</name></trkpt>
<trkpt lat="54.486180" lon="-3.219865"><ele>629</ele><time>2022-03-30T12:52:51Z</time><name>PT4438</name></trkpt>
<trkpt lat="54.486165" lon="-3.219916"><ele>629</ele><time>2022-03-30T12:52:55Z</time><name>PT4439</name></trkpt>
<trkpt lat="54.486155" lon="-3.219942"><ele>629</ele><time>2022-03-30T12:52:58Z</time><name>PT4440</name></trkpt>
<trkpt lat="54.486152" lon="-3.219941"><ele>629</ele><time>2022-03-30T12:53:02Z</time><name>PT4441</name></trkpt>
<trkpt lat="54.486169" lon="-3.219962"><ele>631</ele><time>2022-03-30T12:53:06Z</time><name>PT4442</name></trkpt>
<trkpt lat="54.486162" lon="-3.220002"><ele>631</ele><time>2022-03-30T12:53:13Z</time><name>PT4443</name></trkpt>
<trkpt lat="54.486143" lon="-3.219996"><ele>631</ele><time>2022-03-30T12:53:17Z</time><name>PT4444</name></trkpt>
<trkpt lat="54.486132" lon="-3.219992"><ele>631</ele><time>2022-03-30T12:53:21Z</time><name>PT4445</name></trkpt>
<trkpt lat="54.486127" lon="-3.219982"><ele>630</ele><time>2022-03-30T12:53:25Z</time><name>PT4446</name></trkpt>
<trkpt lat="54.486122" lon="-3.219977"><ele>630</ele><time>2022-03-30T12:53:59Z</time><name>PT4447</name></trkpt>
<trkpt lat="54.486117" lon="-3.220003"><ele>629</ele><time>2022-03-30T12:54:00Z</time><name>PT4448</name></trkpt>
<trkpt lat="54.486121" lon="-3.219999"><ele>629</ele><time>2022-03-30T12:54:01Z</time><name>PT4449</name></trkpt>
<trkpt lat="54.486113" lon="-3.219984"><ele>629</ele><time>2022-03-30T12:54:02Z</time><name>PT4450</name></trkpt>
<trkpt lat="54.486113" lon="-3.219983"><ele>629</ele><time>2022-03-30T12:54:03Z</time><name>PT4451</name></trkpt>
<trkpt lat="54.486111" lon="-3.219982"><ele>629</ele><time>2022-03-30T12:54:04Z</time><name>PT4452</name></trkpt>
<trkpt lat="54.486111" lon="-3.219983"><ele>629</ele><time>2022-03-30T12:54:05Z</time><name>PT4453</name></trkpt>
<trkpt lat="54.486107" lon="-3.219982"><ele>629</ele><time>2022-03-30T12:55:03Z</time><name>PT4454</name></trkpt>
<trkpt lat="54.486101" lon="-3.219982"><ele>628</ele><time>2022-03-30T12:55:04Z</time><name>PT4455</name></trkpt>
<trkpt lat="54.486098" lon="-3.219981"><ele>628</ele><time>2022-03-30T12:55:05Z</time><name>PT4456</name></trkpt>
<trkpt lat="54.486093" lon="-3.219990"><ele>629</ele><time>2022-03-30T12:55:06Z</time><name>PT4457</name></trkpt>
<trkpt lat="54.486091" lon="-3.219986"><ele>630</ele><time>2022-03-30T12:55:07Z</time><name>PT4458</name></trkpt>
<trkpt lat="54.486090" lon="-3.219987"><ele>630</ele><time>2022-03-30T12:55:08Z</time><name>PT4459</name></trkpt>
<trkpt lat="54.486085" lon="-3.219983"><ele>631</ele><time>2022-03-30T13:01:33Z</time><name>PT4460</name></trkpt>
<trkpt lat="54.486081" lon="-3.219983"><ele>631</ele><time>2022-03-30T13:01:34Z</time><name>PT4461</name></trkpt>
<trkpt lat="54.486080" lon="-3.219984"><ele>631</ele><time>2022-03-30T13:01:35Z</time><name>PT4462</name></trkpt>
<trkpt lat="54.486080" lon="-3.219991"><ele>631</ele><time>2022-03-30T13:04:14Z</time><name>PT4463</name></trkpt>
<trkpt lat="54.486078" lon="-3.220003"><ele>631</ele><time>2022-03-30T13:04:15Z</time><name>PT4464</name></trkpt>
<trkpt lat="54.486081" lon="-3.220005"><ele>631</ele><time>2022-03-30T13:04:16Z</time><name>PT4465</name></trkpt>
<trkpt lat="54.486084" lon="-3.220004"><ele>629</ele><time>2022-03-30T13:04:17Z</time><name>PT4466</name></trkpt>
<trkpt lat="54.486084" lon="-3.220001"><ele>629</ele><time>2022-03-30T13:04:18Z</time><name>PT4467</name></trkpt>
<trkpt lat="54.486080" lon="-3.219994"><ele>629</ele><time>2022-03-30T13:04:19Z</time><name>PT4468</name></trkpt>
<trkpt lat="54.486079" lon="-3.219998"><ele>628</ele><time>2022-03-30T13:04:20Z</time><name>PT4469</name></trkpt>
<trkpt lat="54.486078" lon="-3.219994"><ele>628</ele><time>2022-03-30T13:04:21Z</time><name>PT4470</name></trkpt>
<trkpt lat="54.486076" lon="-3.219991"><ele>628</ele><time>2022-03-30T13:04:22Z</time><name>PT4471</name></trkpt>
<trkpt lat="54.486073" lon="-3.220005"><ele>628</ele><time>2022-03-30T13:04:55Z</time><name>PT4472</name></trkpt>
<trkpt lat="54.486080" lon="-3.220014"><ele>629</ele><time>2022-03-30T13:04:56Z</time><name>PT4473</name></trkpt>
<trkpt lat="54.486081" lon="-3.220011"><ele>628</ele><time>2022-03-30T13:04:57Z</time><name>PT4474</name></trkpt>
<trkpt lat="54.486084" lon="-3.220023"><ele>629</ele><time>2022-03-30T13:06:54Z</time><name>PT4475</name></trkpt>
<trkpt lat="54.486091" lon="-3.220084"><ele>629</ele><time>2022-03-30T13:06:58Z</time><name>PT4476</name></trkpt>
<trkpt lat="54.486084" lon="-3.220121"><ele>629</ele><time>2022-03-30T13:07:01Z</time><name>PT4477</name></trkpt>
<trkpt lat="54.486070" lon="-3.220156"><ele>629</ele><time>2022-03-30T13:07:05Z</time><name>PT4478</name></trkpt>
<trkpt lat="54.486054" lon="-3.220190"><ele>630</ele><time>2022-03-30T13:07:08Z</time><name>PT4479</name></trkpt>
<trkpt lat="54.486038" lon="-3.220239"><ele>629</ele><time>2022-03-30T13:07:12Z</time><name>PT4480</name></trkpt>
<trkpt lat="54.486028" lon="-3.220281"><ele>629</ele><time>2022-03-30T13:07:15Z</time><name>PT4481</name></trkpt>
<trkpt lat="54.486013" lon="-3.220329"><ele>629</ele><time>2022-03-30T13:07:19Z</time><name>PT4482</name></trkpt>
<trkpt lat="54.486001" lon="-3.220374"><ele>630</ele><time>2022-03-30T13:07:22Z</time><name>PT4483</name></trkpt>
<trkpt lat="54.485983" lon="-3.220422"><ele>631</ele><time>2022-03-30T13:07:26Z</time><name>PT4484</name></trkpt>
<trkpt lat="54.485978" lon="-3.220494"><ele>631</ele><time>2022-03-30T13:07:30Z</time><name>PT4485</name></trkpt>
<trkpt lat="54.485976" lon="-3.220577"><ele>632</ele><time>2022-03-30T13:07:34Z</time><name>PT4486</name></trkpt>
<trkpt lat="54.485970" lon="-3.220629"><ele>632</ele><time>2022-03-30T13:07:37Z</time><name>PT4487</name></trkpt>
<trkpt lat="54.485964" lon="-3.220678"><ele>632</ele><time>2022-03-30T13:07:41Z</time><name>PT4488</name></trkpt>
<trkpt lat="54.485955" lon="-3.220730"><ele>633</ele><time>2022-03-30T13:07:45Z</time><name>PT4489</name></trkpt>
<trkpt lat="54.485937" lon="-3.220771"><ele>634</ele><time>2022-03-30T13:07:49Z</time><name>PT4490</name></trkpt>
<trkpt lat="54.485939" lon="-3.220812"><ele>634</ele><time>2022-03-30T13:07:52Z</time><name>PT4491</name></trkpt>
<trkpt lat="54.485930" lon="-3.220868"><ele>635</ele><time>2022-03-30T13:07:56Z</time><name>PT4492</name></trkpt>
<trkpt lat="54.485917" lon="-3.220928"><ele>635</ele><time>2022-03-30T13:08:00Z</time><name>PT4493</name></trkpt>
<trkpt lat="54.485917" lon="-3.220985"><ele>636</ele><time>2022-03-30T13:08:04Z</time><name>PT4494</name></trkpt>
<trkpt lat="54.485891" lon="-3.221022"><ele>636</ele><time>2022-03-30T13:08:08Z</time><name>PT4495</name></trkpt>
<trkpt lat="54.485884" lon="-3.221052"><ele>636</ele><time>2022-03-30T13:08:11Z</time><name>PT4496</name></trkpt>
<trkpt lat="54.485873" lon="-3.221096"><ele>635</ele><time>2022-03-30T13:08:15Z</time><name>PT4497</name></trkpt>
<trkpt lat="54.485867" lon="-3.221163"><ele>635</ele><time>2022-03-30T13:08:19Z</time><name>PT4498</name></trkpt>
<trkpt lat="54.485854" lon="-3.221211"><ele>634</ele><time>2022-03-30T13:08:22Z</time><name>PT4499</name></trkpt>
<trkpt lat="54.485839" lon="-3.221248"><ele>634</ele><time>2022-03-30T13:08:25Z</time><name>PT4500</name></trkpt>
<trkpt lat="54.485823" lon="-3.221306"><ele>635</ele><time>2022-03-30T13:08:29Z</time><name>PT4501</name></trkpt>
<trkpt lat="54.485812" lon="-3.221362"><ele>635</ele><time>2022-03-30T13:08:33Z</time><name>PT4502</name></trkpt>
<trkpt lat="54.485800" lon="-3.221407"><ele>635</ele><time>2022-03-30T13:08:37Z</time><name>PT4503</name></trkpt>
<trkpt lat="54.485789" lon="-3.221426"><ele>635</ele><time>2022-03-30T13:08:40Z</time><name>PT4504</name></trkpt>
<trkpt lat="54.485786" lon="-3.221452"><ele>635</ele><time>2022-03-30T13:08:43Z</time><name>PT4505</name></trkpt>
<trkpt lat="54.485780" lon="-3.221489"><ele>636</ele><time>2022-03-30T13:08:47Z</time><name>PT4506</name></trkpt>
<trkpt lat="54.485768" lon="-3.221520"><ele>636</ele><time>2022-03-30T13:08:50Z</time><name>PT4507</name></trkpt>
<trkpt lat="54.485750" lon="-3.221556"><ele>638</ele><time>2022-03-30T13:08:54Z</time><name>PT4508</name></trkpt>
<trkpt lat="54.485741" lon="-3.221611"><ele>640</ele><time>2022-03-30T13:08:58Z</time><name>PT4509</name></trkpt>
<trkpt lat="54.485732" lon="-3.221659"><ele>640</ele><time>2022-03-30T13:09:01Z</time><name>PT4510</name></trkpt>
<trkpt lat="54.485729" lon="-3.221724"><ele>640</ele><time>2022-03-30T13:09:05Z</time><name>PT4511</name></trkpt>
<trkpt lat="54.485725" lon="-3.221758"><ele>639</ele><time>2022-03-30T13:09:08Z</time><name>PT4512</name></trkpt>
<trkpt lat="54.485729" lon="-3.221818"><ele>640</ele><time>2022-03-30T13:09:12Z</time><name>PT4513</name></trkpt>
<trkpt lat="54.485724" lon="-3.221862"><ele>639</ele><time>2022-03-30T13:09:16Z</time><name>PT4514</name></trkpt>
<trkpt lat="54.485719" lon="-3.221895"><ele>639</ele><time>2022-03-30T13:09:19Z</time><name>PT4515</name></trkpt>
<trkpt lat="54.485721" lon="-3.221974"><ele>640</ele><time>2022-03-30T13:09:23Z</time><name>PT4516</name></trkpt>
<trkpt lat="54.485726" lon="-3.222035"><ele>641</ele><time>2022-03-30T13:09:27Z</time><name>PT4517</name></trkpt>
<trkpt lat="54.485728" lon="-3.222081"><ele>641</ele><time>2022-03-30T13:09:30Z</time><name>PT4518</name></trkpt>
<trkpt lat="54.485722" lon="-3.222135"><ele>641</ele><time>2022-03-30T13:09:34Z</time><name>PT4519</name></trkpt>
<trkpt lat="54.485720" lon="-3.222184"><ele>642</ele><time>2022-03-30T13:09:37Z</time><name>PT4520</name></trkpt>
<trkpt lat="54.485718" lon="-3.222236"><ele>643</ele><time>2022-03-30T13:09:41Z</time><name>PT4521</name></trkpt>
<trkpt lat="54.485704" lon="-3.222262"><ele>643</ele><time>2022-03-30T13:09:44Z</time><name>PT4522</name></trkpt>
<trkpt lat="54.485684" lon="-3.222290"><ele>644</ele><time>2022-03-30T13:09:48Z</time><name>PT4523</name></trkpt>
<trkpt lat="54.485669" lon="-3.222309"><ele>644</ele><time>2022-03-30T13:09:52Z</time><name>PT4524</name></trkpt>
<trkpt lat="54.485646" lon="-3.222325"><ele>646</ele><time>2022-03-30T13:09:56Z</time><name>PT4525</name></trkpt>
<trkpt lat="54.485643" lon="-3.222355"><ele>647</ele><time>2022-03-30T13:09:59Z</time><name>PT4526</name></trkpt>
<trkpt lat="54.485629" lon="-3.222388"><ele>647</ele><time>2022-03-30T13:10:02Z</time><name>PT4527</name></trkpt>
<trkpt lat="54.485623" lon="-3.222426"><ele>647</ele><time>2022-03-30T13:10:06Z</time><name>PT4528</name></trkpt>
<trkpt lat="54.485617" lon="-3.222480"><ele>647</ele><time>2022-03-30T13:10:10Z</time><name>PT4529</name></trkpt>
<trkpt lat="54.485612" lon="-3.222524"><ele>646</ele><time>2022-03-30T13:10:14Z</time><name>PT4530</name></trkpt>
<trkpt lat="54.485618" lon="-3.222559"><ele>646</ele><time>2022-03-30T13:10:17Z</time><name>PT4531</name></trkpt>
<trkpt lat="54.485625" lon="-3.222606"><ele>647</ele><time>2022-03-30T13:10:21Z</time><name>PT4532</name></trkpt>
<trkpt lat="54.485621" lon="-3.222635"><ele>647</ele><time>2022-03-30T13:10:24Z</time><name>PT4533</name></trkpt>
<trkpt lat="54.485612" lon="-3.222673"><ele>648</ele><time>2022-03-30T13:10:28Z</time><name>PT4534</name></trkpt>
<trkpt lat="54.485612" lon="-3.222703"><ele>649</ele><time>2022-03-30T13:10:31Z</time><name>PT4535</name></trkpt>
<trkpt lat="54.485610" lon="-3.222738"><ele>649</ele><time>2022-03-30T13:10:35Z</time><name>PT4536</name></trkpt>
<trkpt lat="54.485609" lon="-3.222774"><ele>650</ele><time>2022-03-30T13:10:39Z</time><name>PT4537</name></trkpt>
<trkpt lat="54.485605" lon="-3.222794"><ele>649</ele><time>2022-03-30T13:10:42Z</time><name>PT4538</name></trkpt>
<trkpt lat="54.485600" lon="-3.222826"><ele>651</ele><time>2022-03-30T13:10:46Z</time><name>PT4539</name></trkpt>
<trkpt lat="54.485607" lon="-3.222847"><ele>651</ele><time>2022-03-30T13:10:49Z</time><name>PT4540</name></trkpt>
<trkpt lat="54.485599" lon="-3.222886"><ele>652</ele><time>2022-03-30T13:10:53Z</time><name>PT4541</name></trkpt>
<trkpt lat="54.485600" lon="-3.222933"><ele>653</ele><time>2022-03-30T13:10:57Z</time><name>PT4542</name></trkpt>
<trkpt lat="54.485596" lon="-3.222960"><ele>653</ele><time>2022-03-30T13:11:00Z</time><name>PT4543</name></trkpt>
<trkpt lat="54.485601" lon="-3.222992"><ele>653</ele><time>2022-03-30T13:11:04Z</time><name>PT4544</name></trkpt>
<trkpt lat="54.485606" lon="-3.223036"><ele>652</ele><time>2022-03-30T13:11:08Z</time><name>PT4545</name></trkpt>
<trkpt lat="54.485605" lon="-3.223072"><ele>652</ele><time>2022-03-30T13:11:11Z</time><name>PT4546</name></trkpt>
<trkpt lat="54.485612" lon="-3.223111"><ele>651</ele><time>2022-03-30T13:11:14Z</time><name>PT4547</name></trkpt>
<trkpt lat="54.485624" lon="-3.223154"><ele>651</ele><time>2022-03-30T13:11:18Z</time><name>PT4548</name></trkpt>
<trkpt lat="54.485626" lon="-3.223184"><ele>652</ele><time>2022-03-30T13:11:21Z</time><name>PT4549</name></trkpt>
<trkpt lat="54.485619" lon="-3.223222"><ele>652</ele><time>2022-03-30T13:11:25Z</time><name>PT4550</name></trkpt>
<trkpt lat="54.485631" lon="-3.223270"><ele>655</ele><time>2022-03-30T13:11:29Z</time><name>PT4551</name></trkpt>
<trkpt lat="54.485638" lon="-3.223298"><ele>655</ele><time>2022-03-30T13:11:32Z</time><name>PT4552</name></trkpt>
<trkpt lat="54.485645" lon="-3.223336"><ele>656</ele><time>2022-03-30T13:11:35Z</time><name>PT4553</name></trkpt>
<trkpt lat="54.485640" lon="-3.223358"><ele>657</ele><time>2022-03-30T13:11:38Z</time><name>PT4554</name></trkpt>
<trkpt lat="54.485638" lon="-3.223389"><ele>656</ele><time>2022-03-30T13:11:42Z</time><name>PT4555</name></trkpt>
<trkpt lat="54.485649" lon="-3.223430"><ele>657</ele><time>2022-03-30T13:11:46Z</time><name>PT4556</name></trkpt>
<trkpt lat="54.485653" lon="-3.223455"><ele>658</ele><time>2022-03-30T13:11:49Z</time><name>PT4557</name></trkpt>
<trkpt lat="54.485651" lon="-3.223493"><ele>659</ele><time>2022-03-30T13:11:53Z</time><name>PT4558</name></trkpt>
<trkpt lat="54.485642" lon="-3.223521"><ele>660</ele><time>2022-03-30T13:11:56Z</time><name>PT4559</name></trkpt>
<trkpt lat="54.485651" lon="-3.223559"><ele>662</ele><time>2022-03-30T13:11:59Z</time><name>PT4560</name></trkpt>
<trkpt lat="54.485654" lon="-3.223586"><ele>663</ele><time>2022-03-30T13:12:02Z</time><name>PT4561</name></trkpt>
<trkpt lat="54.485655" lon="-3.223609"><ele>664</ele><time>2022-03-30T13:12:05Z</time><name>PT4562</name></trkpt>
<trkpt lat="54.485648" lon="-3.223647"><ele>665</ele><time>2022-03-30T13:12:09Z</time><name>PT4563</name></trkpt>
<trkpt lat="54.485640" lon="-3.223683"><ele>666</ele><time>2022-03-30T13:12:13Z</time><name>PT4564</name></trkpt>
<trkpt lat="54.485634" lon="-3.223704"><ele>667</ele><time>2022-03-30T13:12:16Z</time><name>PT4565</name></trkpt>
<trkpt lat="54.485632" lon="-3.223741"><ele>669</ele><time>2022-03-30T13:12:20Z</time><name>PT4566</name></trkpt>
<trkpt lat="54.485634" lon="-3.223756"><ele>670</ele><time>2022-03-30T13:12:23Z</time><name>PT4567</name></trkpt>
<trkpt lat="54.485638" lon="-3.223799"><ele>673</ele><time>2022-03-30T13:12:27Z</time><name>PT4568</name></trkpt>
<trkpt lat="54.485623" lon="-3.223822"><ele>673</ele><time>2022-03-30T13:12:31Z</time><name>PT4569</name></trkpt>
<trkpt lat="54.485613" lon="-3.223842"><ele>672</ele><time>2022-03-30T13:12:34Z</time><name>PT4570</name></trkpt>
<trkpt lat="54.485599" lon="-3.223859"><ele>673</ele><time>2022-03-30T13:12:38Z</time><name>PT4571</name></trkpt>
<trkpt lat="54.485585" lon="-3.223882"><ele>674</ele><time>2022-03-30T13:12:41Z</time><name>PT4572</name></trkpt>
<trkpt lat="54.485569" lon="-3.223924"><ele>675</ele><time>2022-03-30T13:12:45Z</time><name>PT4573</name></trkpt>
<trkpt lat="54.485556" lon="-3.223968"><ele>675</ele><time>2022-03-30T13:12:48Z</time><name>PT4574</name></trkpt>
<trkpt lat="54.485545" lon="-3.224026"><ele>675</ele><time>2022-03-30T13:12:52Z</time><name>PT4575</name></trkpt>
<trkpt lat="54.485545" lon="-3.224069"><ele>674</ele><time>2022-03-30T13:12:55Z</time><name>PT4576</name></trkpt>
<trkpt lat="54.485542" lon="-3.224128"><ele>675</ele><time>2022-03-30T13:12:59Z</time><name>PT4577</name></trkpt>
<trkpt lat="54.485525" lon="-3.224164"><ele>675</ele><time>2022-03-30T13:13:02Z</time><name>PT4578</name></trkpt>
<trkpt lat="54.485505" lon="-3.224187"><ele>675</ele><time>2022-03-30T13:13:05Z</time><name>PT4579</name></trkpt>
<trkpt lat="54.485477" lon="-3.224227"><ele>676</ele><time>2022-03-30T13:13:09Z</time><name>PT4580</name></trkpt>
<trkpt lat="54.485468" lon="-3.224265"><ele>676</ele><time>2022-03-30T13:13:13Z</time><name>PT4581</name></trkpt>
<trkpt lat="54.485467" lon="-3.224271"><ele>676</ele><time>2022-03-30T13:13:19Z</time><name>PT4582</name></trkpt>
<trkpt lat="54.485459" lon="-3.224337"><ele>675</ele><time>2022-03-30T13:13:23Z</time><name>PT4583</name></trkpt>
<trkpt lat="54.485456" lon="-3.224347"><ele>675</ele><time>2022-03-30T13:13:24Z</time><name>PT4584</name></trkpt>
<trkpt lat="54.485449" lon="-3.224356"><ele>674</ele><time>2022-03-30T13:13:25Z</time><name>PT4585</name></trkpt>
<trkpt lat="54.485442" lon="-3.224365"><ele>674</ele><time>2022-03-30T13:13:26Z</time><name>PT4586</name></trkpt>
<trkpt lat="54.485435" lon="-3.224366"><ele>674</ele><time>2022-03-30T13:13:27Z</time><name>PT4587</name></trkpt>
<trkpt lat="54.485423" lon="-3.224364"><ele>674</ele><time>2022-03-30T13:13:28Z</time><name>PT4588</name></trkpt>
<trkpt lat="54.485417" lon="-3.224373"><ele>674</ele><time>2022-03-30T13:13:29Z</time><name>PT4589</name></trkpt>
<trkpt lat="54.485410" lon="-3.224377"><ele>674</ele><time>2022-03-30T13:13:30Z</time><name>PT4590</name></trkpt>
<trkpt lat="54.485407" lon="-3.224383"><ele>674</ele><time>2022-03-30T13:13:31Z</time><name>PT4591</name></trkpt>
<trkpt lat="54.485403" lon="-3.224387"><ele>674</ele><time>2022-03-30T13:13:32Z</time><name>PT4592</name></trkpt>
<trkpt lat="54.485400" lon="-3.224393"><ele>674</ele><time>2022-03-30T13:13:33Z</time><name>PT4593</name></trkpt>
<trkpt lat="54.485397" lon="-3.224402"><ele>674</ele><time>2022-03-30T13:13:34Z</time><name>PT4594</name></trkpt>
<trkpt lat="54.485396" lon="-3.224411"><ele>673</ele><time>2022-03-30T13:13:35Z</time><name>PT4595</name></trkpt>
<trkpt lat="54.485393" lon="-3.224420"><ele>673</ele><time>2022-03-30T13:13:36Z</time><name>PT4596</name></trkpt>
<trkpt lat="54.485389" lon="-3.224428"><ele>673</ele><time>2022-03-30T13:13:37Z</time><name>PT4597</name></trkpt>
<trkpt lat="54.485386" lon="-3.224438"><ele>673</ele><time>2022-03-30T13:13:38Z</time><name>PT4598</name></trkpt>
<trkpt lat="54.485382" lon="-3.224449"><ele>673</ele><time>2022-03-30T13:13:39Z</time><name>PT4599</name></trkpt>
<trkpt lat="54.485380" lon="-3.224458"><ele>673</ele><time>2022-03-30T13:13:40Z</time><name>PT4600</name></trkpt>
<trkpt lat="54.485378" lon="-3.224464"><ele>673</ele><time>2022-03-30T13:13:41Z</time><name>PT4601</name></trkpt>
<trkpt lat="54.485376" lon="-3.224468"><ele>673</ele><time>2022-03-30T13:13:42Z</time><name>PT4602</name></trkpt>
<trkpt lat="54.485375" lon="-3.224473"><ele>673</ele><time>2022-03-30T13:13:43Z</time><name>PT4603</name></trkpt>
<trkpt lat="54.485377" lon="-3.224479"><ele>672</ele><time>2022-03-30T13:13:45Z</time><name>PT4604</name></trkpt>
<trkpt lat="54.485377" lon="-3.224483"><ele>672</ele><time>2022-03-30T13:13:46Z</time><name>PT4605</name></trkpt>
<trkpt lat="54.485377" lon="-3.224481"><ele>672</ele><time>2022-03-30T13:13:52Z</time><name>PT4606</name></trkpt>
<trkpt lat="54.485379" lon="-3.224484"><ele>672</ele><time>2022-03-30T13:13:53Z</time><name>PT4607</name></trkpt>
<trkpt lat="54.485380" lon="-3.224486"><ele>672</ele><time>2022-03-30T13:13:54Z</time><name>PT4608</name></trkpt>
<trkpt lat="54.485379" lon="-3.224487"><ele>672</ele><time>2022-03-30T13:13:55Z</time><name>PT4609</name></trkpt>
<trkpt lat="54.485380" lon="-3.224488"><ele>673</ele><time>2022-03-30T13:13:58Z</time><name>PT4610</name></trkpt>
<trkpt lat="54.485385" lon="-3.224491"><ele>673</ele><time>2022-03-30T13:13:59Z</time><name>PT4611</name></trkpt>
<trkpt lat="54.485390" lon="-3.224496"><ele>673</ele><time>2022-03-30T13:14:00Z</time><name>PT4612</name></trkpt>
<trkpt lat="54.485393" lon="-3.224504"><ele>672</ele><time>2022-03-30T13:14:01Z</time><name>PT4613</name></trkpt>
<trkpt lat="54.485394" lon="-3.224514"><ele>672</ele><time>2022-03-30T13:14:03Z</time><name>PT4614</name></trkpt>
<trkpt lat="54.485395" lon="-3.224523"><ele>672</ele><time>2022-03-30T13:14:03Z</time><name>PT4615</name></trkpt>
<trkpt lat="54.485396" lon="-3.224534"><ele>672</ele><time>2022-03-30T13:14:04Z</time><name>PT4616</name></trkpt>
<trkpt lat="54.485396" lon="-3.224543"><ele>672</ele><time>2022-03-30T13:14:05Z</time><name>PT4617</name></trkpt>
<trkpt lat="54.485397" lon="-3.224546"><ele>672</ele><time>2022-03-30T13:14:06Z</time><name>PT4618</name></trkpt>
<trkpt lat="54.485400" lon="-3.224552"><ele>671</ele><time>2022-03-30T13:14:07Z</time><name>PT4619</name></trkpt>
<trkpt lat="54.485402" lon="-3.224561"><ele>671</ele><time>2022-03-30T13:14:08Z</time><name>PT4620</name></trkpt>
<trkpt lat="54.485403" lon="-3.224572"><ele>671</ele><time>2022-03-30T13:14:09Z</time><name>PT4621</name></trkpt>
<trkpt lat="54.485407" lon="-3.224582"><ele>671</ele><time>2022-03-30T13:14:10Z</time><name>PT4622</name></trkpt>
<trkpt lat="54.485408" lon="-3.224595"><ele>671</ele><time>2022-03-30T13:14:11Z</time><name>PT4623</name></trkpt>
<trkpt lat="54.485408" lon="-3.224606"><ele>671</ele><time>2022-03-30T13:14:12Z</time><name>PT4624</name></trkpt>
<trkpt lat="54.485409" lon="-3.224616"><ele>670</ele><time>2022-03-30T13:14:13Z</time><name>PT4625</name></trkpt>
<trkpt lat="54.485409" lon="-3.224623"><ele>670</ele><time>2022-03-30T13:14:14Z</time><name>PT4626</name></trkpt>
<trkpt lat="54.485410" lon="-3.224625"><ele>670</ele><time>2022-03-30T13:14:15Z</time><name>PT4627</name></trkpt>
<trkpt lat="54.485408" lon="-3.224624"><ele>670</ele><time>2022-03-30T13:14:16Z</time><name>PT4628</name></trkpt>
<trkpt lat="54.485409" lon="-3.224622"><ele>670</ele><time>2022-03-30T13:14:17Z</time><name>PT4629</name></trkpt>
<trkpt lat="54.485409" lon="-3.224619"><ele>670</ele><time>2022-03-30T13:14:18Z</time><name>PT4630</name></trkpt>
<trkpt lat="54.485408" lon="-3.224620"><ele>670</ele><time>2022-03-30T13:14:19Z</time><name>PT4631</name></trkpt>
<trkpt lat="54.485407" lon="-3.224621"><ele>670</ele><time>2022-03-30T13:14:20Z</time><name>PT4632</name></trkpt>
<trkpt lat="54.485407" lon="-3.224624"><ele>670</ele><time>2022-03-30T13:14:42Z</time><name>PT4633</name></trkpt>
<trkpt lat="54.485406" lon="-3.224636"><ele>670</ele><time>2022-03-30T13:14:43Z</time><name>PT4634</name></trkpt>
<trkpt lat="54.485405" lon="-3.224650"><ele>670</ele><time>2022-03-30T13:14:44Z</time><name>PT4635</name></trkpt>
<trkpt lat="54.485404" lon="-3.224663"><ele>669</ele><time>2022-03-30T13:14:45Z</time><name>PT4636</name></trkpt>
<trkpt lat="54.485404" lon="-3.224678"><ele>669</ele><time>2022-03-30T13:14:46Z</time><name>PT4637</name></trkpt>
<trkpt lat="54.485404" lon="-3.224688"><ele>669</ele><time>2022-03-30T13:14:47Z</time><name>PT4638</name></trkpt>
<trkpt lat="54.485403" lon="-3.224695"><ele>668</ele><time>2022-03-30T13:14:48Z</time><name>PT4639</name></trkpt>
<trkpt lat="54.485402" lon="-3.224702"><ele>668</ele><time>2022-03-30T13:14:49Z</time><name>PT4640</name></trkpt>
<trkpt lat="54.485404" lon="-3.224705"><ele>668</ele><time>2022-03-30T13:14:50Z</time><name>PT4641</name></trkpt>
<trkpt lat="54.485404" lon="-3.224707"><ele>668</ele><time>2022-03-30T13:14:51Z</time><name>PT4642</name></trkpt>
<trkpt lat="54.485403" lon="-3.224710"><ele>668</ele><time>2022-03-30T13:14:52Z</time><name>PT4643</name></trkpt>
<trkpt lat="54.485403" lon="-3.224713"><ele>668</ele><time>2022-03-30T13:14:53Z</time><name>PT4644</name></trkpt>
<trkpt lat="54.485401" lon="-3.224716"><ele>668</ele><time>2022-03-30T13:14:54Z</time><name>PT4645</name></trkpt>
<trkpt lat="54.485400" lon="-3.224718"><ele>668</ele><time>2022-03-30T13:14:55Z</time><name>PT4646</name></trkpt>
<trkpt lat="54.485399" lon="-3.224719"><ele>668</ele><time>2022-03-30T13:14:56Z</time><name>PT4647</name></trkpt>
<trkpt lat="54.485398" lon="-3.224720"><ele>668</ele><time>2022-03-30T13:14:57Z</time><name>PT4648</name></trkpt>
<trkpt lat="54.485395" lon="-3.224724"><ele>668</ele><time>2022-03-30T13:14:58Z</time><name>PT4649</name></trkpt>
<trkpt lat="54.485394" lon="-3.224728"><ele>668</ele><time>2022-03-30T13:14:59Z</time><name>PT4650</name></trkpt>
<trkpt lat="54.485395" lon="-3.224727"><ele>668</ele><time>2022-03-30T13:15:01Z</time><name>PT4651</name></trkpt>
<trkpt lat="54.485392" lon="-3.224725"><ele>667</ele><time>2022-03-30T13:15:02Z</time><name>PT4652</name></trkpt>
<trkpt lat="54.485389" lon="-3.224729"><ele>668</ele><time>2022-03-30T13:15:03Z</time><name>PT4653</name></trkpt>
<trkpt lat="54.485390" lon="-3.224732"><ele>667</ele><time>2022-03-30T13:15:15Z</time><name>PT4654</name></trkpt>
<trkpt lat="54.485385" lon="-3.224735"><ele>667</ele><time>2022-03-30T13:15:16Z</time><name>PT4655</name></trkpt>
<trkpt lat="54.485381" lon="-3.224743"><ele>666</ele><time>2022-03-30T13:15:17Z</time><name>PT4656</name></trkpt>
<trkpt lat="54.485375" lon="-3.224746"><ele>666</ele><time>2022-03-30T13:15:18Z</time><name>PT4657</name></trkpt>
<trkpt lat="54.485372" lon="-3.224748"><ele>666</ele><time>2022-03-30T13:15:19Z</time><name>PT4658</name></trkpt>
<trkpt lat="54.485367" lon="-3.224755"><ele>666</ele><time>2022-03-30T13:15:20Z</time><name>PT4659</name></trkpt>
<trkpt lat="54.485362" lon="-3.224764"><ele>665</ele><time>2022-03-30T13:15:21Z</time><name>PT4660</name></trkpt>
<trkpt lat="54.485356" lon="-3.224770"><ele>664</ele><time>2022-03-30T13:15:22Z</time><name>PT4661</name></trkpt>
<trkpt lat="54.485352" lon="-3.224774"><ele>664</ele><time>2022-03-30T13:15:23Z</time><name>PT4662</name></trkpt>
<trkpt lat="54.485348" lon="-3.224775"><ele>664</ele><time>2022-03-30T13:15:24Z</time><name>PT4663</name></trkpt>
<trkpt lat="54.485341" lon="-3.224777"><ele>663</ele><time>2022-03-30T13:15:30Z</time><name>PT4664</name></trkpt>
<trkpt lat="54.485329" lon="-3.224780"><ele>662</ele><time>2022-03-30T13:15:31Z</time><name>PT4665</name></trkpt>
<trkpt lat="54.485319" lon="-3.224790"><ele>662</ele><time>2022-03-30T13:15:32Z</time><name>PT4666</name></trkpt>
<trkpt lat="54.485312" lon="-3.224796"><ele>661</ele><time>2022-03-30T13:15:33Z</time><name>PT4667</name></trkpt>
<trkpt lat="54.485306" lon="-3.224803"><ele>661</ele><time>2022-03-30T13:15:34Z</time><name>PT4668</name></trkpt>
<trkpt lat="54.485299" lon="-3.224813"><ele>661</ele><time>2022-03-30T13:15:35Z</time><name>PT4669</name></trkpt>
<trkpt lat="54.485293" lon="-3.224821"><ele>660</ele><time>2022-03-30T13:15:36Z</time><name>PT4670</name></trkpt>
<trkpt lat="54.485287" lon="-3.224829"><ele>660</ele><time>2022-03-30T13:15:37Z</time><name>PT4671</name></trkpt>
<trkpt lat="54.485278" lon="-3.224835"><ele>659</ele><time>2022-03-30T13:15:38Z</time><name>PT4672</name></trkpt>
<trkpt lat="54.485273" lon="-3.224846"><ele>659</ele><time>2022-03-30T13:15:39Z</time><name>PT4673</name></trkpt>
<trkpt lat="54.485271" lon="-3.224860"><ele>658</ele><time>2022-03-30T13:15:40Z</time><name>PT4674</name></trkpt>
<trkpt lat="54.485267" lon="-3.224871"><ele>658</ele><time>2022-03-30T13:15:41Z</time><name>PT4675</name></trkpt>
<trkpt lat="54.485267" lon="-3.224883"><ele>658</ele><time>2022-03-30T13:15:42Z</time><name>PT4676</name></trkpt>
<trkpt lat="54.485269" lon="-3.224892"><ele>658</ele><time>2022-03-30T13:15:43Z</time><name>PT4677</name></trkpt>
<trkpt lat="54.485270" lon="-3.224902"><ele>657</ele><time>2022-03-30T13:15:44Z</time><name>PT4678</name></trkpt>
<trkpt lat="54.485268" lon="-3.224913"><ele>657</ele><time>2022-03-30T13:15:45Z</time><name>PT4679</name></trkpt>
<trkpt lat="54.485271" lon="-3.224921"><ele>657</ele><time>2022-03-30T13:15:46Z</time><name>PT4680</name></trkpt>
<trkpt lat="54.485275" lon="-3.224930"><ele>656</ele><time>2022-03-30T13:15:47Z</time><name>PT4681</name></trkpt>
<trkpt lat="54.485278" lon="-3.224938"><ele>656</ele><time>2022-03-30T13:15:48Z</time><name>PT4682</name></trkpt>
<trkpt lat="54.485283" lon="-3.224944"><ele>655</ele><time>2022-03-30T13:15:49Z</time><name>PT4683</name></trkpt>
<trkpt lat="54.485286" lon="-3.224955"><ele>655</ele><time>2022-03-30T13:15:50Z</time><name>PT4684</name></trkpt>
<trkpt lat="54.485283" lon="-3.224967"><ele>655</ele><time>2022-03-30T13:15:51Z</time><name>PT4685</name></trkpt>
<trkpt lat="54.485276" lon="-3.224977"><ele>654</ele><time>2022-03-30T13:15:52Z</time><name>PT4686</name></trkpt>
<trkpt lat="54.485270" lon="-3.224984"><ele>654</ele><time>2022-03-30T13:15:53Z</time><name>PT4687</name></trkpt>
<trkpt lat="54.485264" lon="-3.224991"><ele>653</ele><time>2022-03-30T13:15:54Z</time><name>PT4688</name></trkpt>
<trkpt lat="54.485257" lon="-3.224996"><ele>652</ele><time>2022-03-30T13:15:55Z</time><name>PT4689</name></trkpt>
<trkpt lat="54.485249" lon="-3.224999"><ele>652</ele><time>2022-03-30T13:15:56Z</time><name>PT4690</name></trkpt>
<trkpt lat="54.485242" lon="-3.225003"><ele>651</ele><time>2022-03-30T13:15:57Z</time><name>PT4691</name></trkpt>
<trkpt lat="54.485240" lon="-3.225011"><ele>651</ele><time>2022-03-30T13:15:58Z</time><name>PT4692</name></trkpt>
<trkpt lat="54.485239" lon="-3.225023"><ele>651</ele><time>2022-03-30T13:15:59Z</time><name>PT4693</name></trkpt>
<trkpt lat="54.485242" lon="-3.225035"><ele>651</ele><time>2022-03-30T13:16:00Z</time><name>PT4694</name></trkpt>
<trkpt lat="54.485246" lon="-3.225044"><ele>651</ele><time>2022-03-30T13:16:01Z</time><name>PT4695</name></trkpt>
<trkpt lat="54.485248" lon="-3.225055"><ele>650</ele><time>2022-03-30T13:16:02Z</time><name>PT4696</name></trkpt>
<trkpt lat="54.485247" lon="-3.225064"><ele>650</ele><time>2022-03-30T13:16:03Z</time><name>PT4697</name></trkpt>
<trkpt lat="54.485246" lon="-3.225067"><ele>650</ele><time>2022-03-30T13:16:04Z</time><name>PT4698</name></trkpt>
<trkpt lat="54.485240" lon="-3.225074"><ele>650</ele><time>2022-03-30T13:16:05Z</time><name>PT4699</name></trkpt>
<trkpt lat="54.485234" lon="-3.225081"><ele>649</ele><time>2022-03-30T13:16:06Z</time><name>PT4700</name></trkpt>
<trkpt lat="54.485229" lon="-3.225091"><ele>649</ele><time>2022-03-30T13:16:07Z</time><name>PT4701</name></trkpt>
<trkpt lat="54.485236" lon="-3.225129"><ele>649</ele><time>2022-03-30T13:16:10Z</time><name>PT4702</name></trkpt>
<trkpt lat="54.485239" lon="-3.225172"><ele>648</ele><time>2022-03-30T13:16:14Z</time><name>PT4703</name></trkpt>
<trkpt lat="54.485238" lon="-3.225226"><ele>648</ele><time>2022-03-30T13:16:18Z</time><name>PT4704</name></trkpt>
<trkpt lat="54.485234" lon="-3.225292"><ele>647</ele><time>2022-03-30T13:16:22Z</time><name>PT4705</name></trkpt>
<trkpt lat="54.485225" lon="-3.225335"><ele>646</ele><time>2022-03-30T13:16:25Z</time><name>PT4706</name></trkpt>
<trkpt lat="54.485223" lon="-3.225372"><ele>646</ele><time>2022-03-30T13:16:28Z</time><name>PT4707</name></trkpt>
<trkpt lat="54.485217" lon="-3.225426"><ele>645</ele><time>2022-03-30T13:16:32Z</time><name>PT4708</name></trkpt>
<trkpt lat="54.485222" lon="-3.225482"><ele>644</ele><time>2022-03-30T13:16:35Z</time><name>PT4709</name></trkpt>
<trkpt lat="54.485216" lon="-3.225555"><ele>643</ele><time>2022-03-30T13:16:39Z</time><name>PT4710</name></trkpt>
<trkpt lat="54.485207" lon="-3.225598"><ele>643</ele><time>2022-03-30T13:16:42Z</time><name>PT4711</name></trkpt>
<trkpt lat="54.485193" lon="-3.225624"><ele>642</ele><time>2022-03-30T13:16:45Z</time><name>PT4712</name></trkpt>
<trkpt lat="54.485185" lon="-3.225688"><ele>642</ele><time>2022-03-30T13:16:49Z</time><name>PT4713</name></trkpt>
<trkpt lat="54.485169" lon="-3.225714"><ele>641</ele><time>2022-03-30T13:16:52Z</time><name>PT4714</name></trkpt>
<trkpt lat="54.485150" lon="-3.225740"><ele>640</ele><time>2022-03-30T13:16:55Z</time><name>PT4715</name></trkpt>
<trkpt lat="54.485126" lon="-3.225765"><ele>639</ele><time>2022-03-30T13:16:59Z</time><name>PT4716</name></trkpt>
<trkpt lat="54.485114" lon="-3.225775"><ele>639</ele><time>2022-03-30T13:17:03Z</time><name>PT4717</name></trkpt>
<trkpt lat="54.485112" lon="-3.225778"><ele>639</ele><time>2022-03-30T13:17:07Z</time><name>PT4718</name></trkpt>
<trkpt lat="54.485107" lon="-3.225785"><ele>638</ele><time>2022-03-30T13:17:10Z</time><name>PT4719</name></trkpt>
<trkpt lat="54.485081" lon="-3.225819"><ele>637</ele><time>2022-03-30T13:17:13Z</time><name>PT4720</name></trkpt>
<trkpt lat="54.485074" lon="-3.225826"><ele>637</ele><time>2022-03-30T13:17:14Z</time><name>PT4721</name></trkpt>
<trkpt lat="54.485065" lon="-3.225830"><ele>637</ele><time>2022-03-30T13:17:15Z</time><name>PT4722</name></trkpt>
<trkpt lat="54.485057" lon="-3.225837"><ele>637</ele><time>2022-03-30T13:17:16Z</time><name>PT4723</name></trkpt>
<trkpt lat="54.485051" lon="-3.225842"><ele>637</ele><time>2022-03-30T13:17:18Z</time><name>PT4724</name></trkpt>
<trkpt lat="54.485039" lon="-3.225845"><ele>637</ele><time>2022-03-30T13:17:18Z</time><name>PT4725</name></trkpt>
<trkpt lat="54.485030" lon="-3.225852"><ele>637</ele><time>2022-03-30T13:17:19Z</time><name>PT4726</name></trkpt>
<trkpt lat="54.485024" lon="-3.225858"><ele>637</ele><time>2022-03-30T13:17:20Z</time><name>PT4727</name></trkpt>
<trkpt lat="54.485016" lon="-3.225865"><ele>637</ele><time>2022-03-30T13:17:21Z</time><name>PT4728</name></trkpt>
<trkpt lat="54.485007" lon="-3.225869"><ele>637</ele><time>2022-03-30T13:17:22Z</time><name>PT4729</name></trkpt>
<trkpt lat="54.484999" lon="-3.225872"><ele>638</ele><time>2022-03-30T13:17:23Z</time><name>PT4730</name></trkpt>
<trkpt lat="54.484991" lon="-3.225877"><ele>637</ele><time>2022-03-30T13:17:24Z</time><name>PT4731</name></trkpt>
<trkpt lat="54.484981" lon="-3.225887"><ele>637</ele><time>2022-03-30T13:17:25Z</time><name>PT4732</name></trkpt>
<trkpt lat="54.484972" lon="-3.225894"><ele>637</ele><time>2022-03-30T13:17:26Z</time><name>PT4733</name></trkpt>
<trkpt lat="54.484963" lon="-3.225899"><ele>637</ele><time>2022-03-30T13:17:27Z</time><name>PT4734</name></trkpt>
<trkpt lat="54.484955" lon="-3.225902"><ele>637</ele><time>2022-03-30T13:17:28Z</time><name>PT4735</name></trkpt>
<trkpt lat="54.484948" lon="-3.225905"><ele>637</ele><time>2022-03-30T13:17:29Z</time><name>PT4736</name></trkpt>
<trkpt lat="54.484939" lon="-3.225908"><ele>637</ele><time>2022-03-30T13:17:30Z</time><name>PT4737</name></trkpt>
<trkpt lat="54.484930" lon="-3.225910"><ele>636</ele><time>2022-03-30T13:17:31Z</time><name>PT4738</name></trkpt>
<trkpt lat="54.484925" lon="-3.225917"><ele>636</ele><time>2022-03-30T13:17:32Z</time><name>PT4739</name></trkpt>
<trkpt lat="54.484918" lon="-3.225927"><ele>636</ele><time>2022-03-30T13:17:33Z</time><name>PT4740</name></trkpt>
<trkpt lat="54.484908" lon="-3.225929"><ele>636</ele><time>2022-03-30T13:17:34Z</time><name>PT4741</name></trkpt>
<trkpt lat="54.484898" lon="-3.225935"><ele>636</ele><time>2022-03-30T13:17:35Z</time><name>PT4742</name></trkpt>
<trkpt lat="54.484890" lon="-3.225946"><ele>636</ele><time>2022-03-30T13:17:36Z</time><name>PT4743</name></trkpt>
<trkpt lat="54.484883" lon="-3.225953"><ele>635</ele><time>2022-03-30T13:17:37Z</time><name>PT4744</name></trkpt>
<trkpt lat="54.484874" lon="-3.225962"><ele>635</ele><time>2022-03-30T13:17:38Z</time><name>PT4745</name></trkpt>
<trkpt lat="54.484864" lon="-3.225968"><ele>635</ele><time>2022-03-30T13:17:39Z</time><name>PT4746</name></trkpt>
<trkpt lat="54.484855" lon="-3.225974"><ele>635</ele><time>2022-03-30T13:17:40Z</time><name>PT4747</name></trkpt>
<trkpt lat="54.484845" lon="-3.225976"><ele>634</ele><time>2022-03-30T13:17:41Z</time><name>PT4748</name></trkpt>
<trkpt lat="54.484833" lon="-3.225977"><ele>634</ele><time>2022-03-30T13:17:42Z</time><name>PT4749</name></trkpt>
<trkpt lat="54.484824" lon="-3.225978"><ele>634</ele><time>2022-03-30T13:17:43Z</time><name>PT4750</name></trkpt>
<trkpt lat="54.484817" lon="-3.225983"><ele>634</ele><time>2022-03-30T13:17:44Z</time><name>PT4751</name></trkpt>
<trkpt lat="54.484808" lon="-3.225987"><ele>634</ele><time>2022-03-30T13:17:45Z</time><name>PT4752</name></trkpt>
<trkpt lat="54.484799" lon="-3.225989"><ele>633</ele><time>2022-03-30T13:17:46Z</time><name>PT4753</name></trkpt>
<trkpt lat="54.484790" lon="-3.225991"><ele>633</ele><time>2022-03-30T13:17:47Z</time><name>PT4754</name></trkpt>
<trkpt lat="54.484779" lon="-3.225996"><ele>633</ele><time>2022-03-30T13:17:48Z</time><name>PT4755</name></trkpt>
<trkpt lat="54.484768" lon="-3.225995"><ele>633</ele><time>2022-03-30T13:17:49Z</time><name>PT4756</name></trkpt>
<trkpt lat="54.484756" lon="-3.225992"><ele>632</ele><time>2022-03-30T13:17:50Z</time><name>PT4757</name></trkpt>
<trkpt lat="54.484746" lon="-3.225990"><ele>632</ele><time>2022-03-30T13:17:51Z</time><name>PT4758</name></trkpt>
<trkpt lat="54.484735" lon="-3.225991"><ele>632</ele><time>2022-03-30T13:17:52Z</time><name>PT4759</name></trkpt>
<trkpt lat="54.484725" lon="-3.225989"><ele>632</ele><time>2022-03-30T13:17:53Z</time><name>PT4760</name></trkpt>
<trkpt lat="54.484714" lon="-3.225983"><ele>632</ele><time>2022-03-30T13:17:54Z</time><name>PT4761</name></trkpt>
<trkpt lat="54.484694" lon="-3.225986"><ele>633</ele><time>2022-03-30T13:17:55Z</time><name>PT4762</name></trkpt>
<trkpt lat="54.484681" lon="-3.225985"><ele>633</ele><time>2022-03-30T13:17:56Z</time><name>PT4763</name></trkpt>
<trkpt lat="54.484669" lon="-3.225988"><ele>633</ele><time>2022-03-30T13:17:57Z</time><name>PT4764</name></trkpt>
<trkpt lat="54.484657" lon="-3.225991"><ele>633</ele><time>2022-03-30T13:17:58Z</time><name>PT4765</name></trkpt>
<trkpt lat="54.484645" lon="-3.225993"><ele>634</ele><time>2022-03-30T13:17:59Z</time><name>PT4766</name></trkpt>
<trkpt lat="54.484633" lon="-3.225994"><ele>634</ele><time>2022-03-30T13:18:00Z</time><name>PT4767</name></trkpt>
<trkpt lat="54.484622" lon="-3.225994"><ele>634</ele><time>2022-03-30T13:18:01Z</time><name>PT4768</name></trkpt>
<trkpt lat="54.484611" lon="-3.225996"><ele>633</ele><time>2022-03-30T13:18:02Z</time><name>PT4769</name></trkpt>
<trkpt lat="54.484600" lon="-3.226000"><ele>633</ele><time>2022-03-30T13:18:03Z</time><name>PT4770</name></trkpt>
<trkpt lat="54.484588" lon="-3.226003"><ele>633</ele><time>2022-03-30T13:18:04Z</time><name>PT4771</name></trkpt>
<trkpt lat="54.484575" lon="-3.226006"><ele>633</ele><time>2022-03-30T13:18:05Z</time><name>PT4772</name></trkpt>
<trkpt lat="54.484564" lon="-3.226007"><ele>633</ele><time>2022-03-30T13:18:06Z</time><name>PT4773</name></trkpt>
<trkpt lat="54.484553" lon="-3.226008"><ele>633</ele><time>2022-03-30T13:18:07Z</time><name>PT4774</name></trkpt>
<trkpt lat="54.484540" lon="-3.226011"><ele>632</ele><time>2022-03-30T13:18:08Z</time><name>PT4775</name></trkpt>
<trkpt lat="54.484529" lon="-3.226013"><ele>632</ele><time>2022-03-30T13:18:09Z</time><name>PT4776</name></trkpt>
<trkpt lat="54.484517" lon="-3.226017"><ele>633</ele><time>2022-03-30T13:18:10Z</time><name>PT4777</name></trkpt>
<trkpt lat="54.484504" lon="-3.226021"><ele>632</ele><time>2022-03-30T13:18:11Z</time><name>PT4778</name></trkpt>
<trkpt lat="54.484491" lon="-3.226027"><ele>632</ele><time>2022-03-30T13:18:12Z</time><name>PT4779</name></trkpt>
<trkpt lat="54.484480" lon="-3.226032"><ele>632</ele><time>2022-03-30T13:18:13Z</time><name>PT4780</name></trkpt>
<trkpt lat="54.484468" lon="-3.226036"><ele>632</ele><time>2022-03-30T13:18:14Z</time><name>PT4781</name></trkpt>
<trkpt lat="54.484458" lon="-3.226040"><ele>632</ele><time>2022-03-30T13:18:15Z</time><name>PT4782</name></trkpt>
<trkpt lat="54.484447" lon="-3.226045"><ele>632</ele><time>2022-03-30T13:18:16Z</time><name>PT4783</name></trkpt>
<trkpt lat="54.484436" lon="-3.226051"><ele>632</ele><time>2022-03-30T13:18:17Z</time><name>PT4784</name></trkpt>
<trkpt lat="54.484423" lon="-3.226057"><ele>631</ele><time>2022-03-30T13:18:18Z</time><name>PT4785</name></trkpt>
<trkpt lat="54.484412" lon="-3.226061"><ele>631</ele><time>2022-03-30T13:18:19Z</time><name>PT4786</name></trkpt>
<trkpt lat="54.484401" lon="-3.226067"><ele>631</ele><time>2022-03-30T13:18:20Z</time><name>PT4787</name></trkpt>
<trkpt lat="54.484388" lon="-3.226070"><ele>631</ele><time>2022-03-30T13:18:21Z</time><name>PT4788</name></trkpt>
<trkpt lat="54.484376" lon="-3.226073"><ele>631</ele><time>2022-03-30T13:18:22Z</time><name>PT4789</name></trkpt>
<trkpt lat="54.484364" lon="-3.226077"><ele>631</ele><time>2022-03-30T13:18:23Z</time><name>PT4790</name></trkpt>
<trkpt lat="54.484352" lon="-3.226082"><ele>631</ele><time>2022-03-30T13:18:24Z</time><name>PT4791</name></trkpt>
<trkpt lat="54.484342" lon="-3.226090"><ele>631</ele><time>2022-03-30T13:18:25Z</time><name>PT4792</name></trkpt>
<trkpt lat="54.484331" lon="-3.226093"><ele>631</ele><time>2022-03-30T13:18:26Z</time><name>PT4793</name></trkpt>
<trkpt lat="54.484319" lon="-3.226098"><ele>630</ele><time>2022-03-30T13:18:27Z</time><name>PT4794</name></trkpt>
<trkpt lat="54.484306" lon="-3.226107"><ele>630</ele><time>2022-03-30T13:18:28Z</time><name>PT4795</name></trkpt>
<trkpt lat="54.484294" lon="-3.226112"><ele>630</ele><time>2022-03-30T13:18:29Z</time><name>PT4796</name></trkpt>
<trkpt lat="54.484282" lon="-3.226115"><ele>630</ele><time>2022-03-30T13:18:30Z</time><name>PT4797</name></trkpt>
<trkpt lat="54.484268" lon="-3.226113"><ele>630</ele><time>2022-03-30T13:18:31Z</time><name>PT4798</name></trkpt>
<trkpt lat="54.484256" lon="-3.226118"><ele>630</ele><time>2022-03-30T13:18:32Z</time><name>PT4799</name></trkpt>
<trkpt lat="54.484244" lon="-3.226127"><ele>630</ele><time>2022-03-30T13:18:33Z</time><name>PT4800</name></trkpt>
<trkpt lat="54.484232" lon="-3.226134"><ele>630</ele><time>2022-03-30T13:18:34Z</time><name>PT4801</name></trkpt>
<trkpt lat="54.484218" lon="-3.226137"><ele>630</ele><time>2022-03-30T13:18:35Z</time><name>PT4802</name></trkpt>
<trkpt lat="54.484207" lon="-3.226131"><ele>630</ele><time>2022-03-30T13:18:36Z</time><name>PT4803</name></trkpt>
<trkpt lat="54.484197" lon="-3.226120"><ele>630</ele><time>2022-03-30T13:18:37Z</time><name>PT4804</name></trkpt>
<trkpt lat="54.484187" lon="-3.226112"><ele>630</ele><time>2022-03-30T13:18:38Z</time><name>PT4805</name></trkpt>
<trkpt lat="54.484180" lon="-3.226101"><ele>629</ele><time>2022-03-30T13:18:39Z</time><name>PT4806</name></trkpt>
<trkpt lat="54.484173" lon="-3.226091"><ele>628</ele><time>2022-03-30T13:18:40Z</time><name>PT4807</name></trkpt>
<trkpt lat="54.484161" lon="-3.226090"><ele>628</ele><time>2022-03-30T13:18:41Z</time><name>PT4808</name></trkpt>
<trkpt lat="54.484151" lon="-3.226092"><ele>628</ele><time>2022-03-30T13:18:42Z</time><name>PT4809</name></trkpt>
<trkpt lat="54.484143" lon="-3.226097"><ele>628</ele><time>2022-03-30T13:18:43Z</time><name>PT4810</name></trkpt>
<trkpt lat="54.484135" lon="-3.226105"><ele>628</ele><time>2022-03-30T13:18:44Z</time><name>PT4811</name></trkpt>
<trkpt lat="54.484127" lon="-3.226111"><ele>628</ele><time>2022-03-30T13:18:45Z</time><name>PT4812</name></trkpt>
<trkpt lat="54.484117" lon="-3.226115"><ele>628</ele><time>2022-03-30T13:18:46Z</time><name>PT4813</name></trkpt>
<trkpt lat="54.484106" lon="-3.226133"><ele>627</ele><time>2022-03-30T13:18:47Z</time><name>PT4814</name></trkpt>
<trkpt lat="54.484095" lon="-3.226136"><ele>627</ele><time>2022-03-30T13:18:48Z</time><name>PT4815</name></trkpt>
<trkpt lat="54.484085" lon="-3.226140"><ele>627</ele><time>2022-03-30T13:18:49Z</time><name>PT4816</name></trkpt>
<trkpt lat="54.484074" lon="-3.226147"><ele>628</ele><time>2022-03-30T13:18:50Z</time><name>PT4817</name></trkpt>
<trkpt lat="54.484063" lon="-3.226152"><ele>628</ele><time>2022-03-30T13:18:51Z</time><name>PT4818</name></trkpt>
<trkpt lat="54.484052" lon="-3.226156"><ele>627</ele><time>2022-03-30T13:18:52Z</time><name>PT4819</name></trkpt>
<trkpt lat="54.484042" lon="-3.226163"><ele>627</ele><time>2022-03-30T13:18:53Z</time><name>PT4820</name></trkpt>
<trkpt lat="54.484034" lon="-3.226176"><ele>628</ele><time>2022-03-30T13:18:54Z</time><name>PT4821</name></trkpt>
<trkpt lat="54.484026" lon="-3.226188"><ele>628</ele><time>2022-03-30T13:18:55Z</time><name>PT4822</name></trkpt>
<trkpt lat="54.484015" lon="-3.226196"><ele>628</ele><time>2022-03-30T13:18:56Z</time><name>PT4823</name></trkpt>
<trkpt lat="54.484005" lon="-3.226205"><ele>628</ele><time>2022-03-30T13:18:57Z</time><name>PT4824</name></trkpt>
<trkpt lat="54.483996" lon="-3.226219"><ele>628</ele><time>2022-03-30T13:18:58Z</time><name>PT4825</name></trkpt>
<trkpt lat="54.483988" lon="-3.226230"><ele>628</ele><time>2022-03-30T13:18:59Z</time><name>PT4826</name></trkpt>
<trkpt lat="54.483979" lon="-3.226247"><ele>628</ele><time>2022-03-30T13:19:00Z</time><name>PT4827</name></trkpt>
<trkpt lat="54.483969" lon="-3.226260"><ele>627</ele><time>2022-03-30T13:19:01Z</time><name>PT4828</name></trkpt>
<trkpt lat="54.483959" lon="-3.226271"><ele>627</ele><time>2022-03-30T13:19:02Z</time><name>PT4829</name></trkpt>
<trkpt lat="54.483949" lon="-3.226280"><ele>627</ele><time>2022-03-30T13:19:03Z</time><name>PT4830</name></trkpt>
<trkpt lat="54.483936" lon="-3.226287"><ele>627</ele><time>2022-03-30T13:19:04Z</time><name>PT4831</name></trkpt>
<trkpt lat="54.483926" lon="-3.226287"><ele>626</ele><time>2022-03-30T13:19:05Z</time><name>PT4832</name></trkpt>
<trkpt lat="54.483915" lon="-3.226289"><ele>627</ele><time>2022-03-30T13:19:06Z</time><name>PT4833</name></trkpt>
<trkpt lat="54.483903" lon="-3.226295"><ele>626</ele><time>2022-03-30T13:19:07Z</time><name>PT4834</name></trkpt>
<trkpt lat="54.483893" lon="-3.226296"><ele>626</ele><time>2022-03-30T13:19:08Z</time><name>PT4835</name></trkpt>
<trkpt lat="54.483884" lon="-3.226297"><ele>625</ele><time>2022-03-30T13:19:09Z</time><name>PT4836</name></trkpt>
<trkpt lat="54.483875" lon="-3.226303"><ele>625</ele><time>2022-03-30T13:19:10Z</time><name>PT4837</name></trkpt>
<trkpt lat="54.483864" lon="-3.226309"><ele>625</ele><time>2022-03-30T13:19:11Z</time><name>PT4838</name></trkpt>
<trkpt lat="54.483855" lon="-3.226315"><ele>625</ele><time>2022-03-30T13:19:12Z</time><name>PT4839</name></trkpt>
<trkpt lat="54.483845" lon="-3.226320"><ele>625</ele><time>2022-03-30T13:19:13Z</time><name>PT4840</name></trkpt>
<trkpt lat="54.483806" lon="-3.226333"><ele>625</ele><time>2022-03-30T13:19:17Z</time><name>PT4841</name></trkpt>
<trkpt lat="54.483775" lon="-3.226325"><ele>624</ele><time>2022-03-30T13:19:20Z</time><name>PT4842</name></trkpt>
<trkpt lat="54.483735" lon="-3.226334"><ele>623</ele><time>2022-03-30T13:19:24Z</time><name>PT4843</name></trkpt>
<trkpt lat="54.483706" lon="-3.226345"><ele>623</ele><time>2022-03-30T13:19:27Z</time><name>PT4844</name></trkpt>
<trkpt lat="54.483683" lon="-3.226365"><ele>623</ele><time>2022-03-30T13:19:30Z</time><name>PT4845</name></trkpt>
<trkpt lat="54.483648" lon="-3.226395"><ele>622</ele><time>2022-03-30T13:19:34Z</time><name>PT4846</name></trkpt>
<trkpt lat="54.483621" lon="-3.226397"><ele>621</ele><time>2022-03-30T13:19:37Z</time><name>PT4847</name></trkpt>
<trkpt lat="54.483591" lon="-3.226398"><ele>620</ele><time>2022-03-30T13:19:41Z</time><name>PT4848</name></trkpt>
<trkpt lat="54.483569" lon="-3.226402"><ele>619</ele><time>2022-03-30T13:19:44Z</time><name>PT4849</name></trkpt>
<trkpt lat="54.483546" lon="-3.226422"><ele>619</ele><time>2022-03-30T13:19:47Z</time><name>PT4850</name></trkpt>
<trkpt lat="54.483520" lon="-3.226438"><ele>619</ele><time>2022-03-30T13:19:50Z</time><name>PT4851</name></trkpt>
<trkpt lat="54.483486" lon="-3.226447"><ele>618</ele><time>2022-03-30T13:19:54Z</time><name>PT4852</name></trkpt>
<trkpt lat="54.483454" lon="-3.226435"><ele>617</ele><time>2022-03-30T13:19:58Z</time><name>PT4853</name></trkpt>
<trkpt lat="54.483422" lon="-3.226447"><ele>615</ele><time>2022-03-30T13:20:02Z</time><name>PT4854</name></trkpt>
<trkpt lat="54.483390" lon="-3.226471"><ele>616</ele><time>2022-03-30T13:20:06Z</time><name>PT4855</name></trkpt>
<trkpt lat="54.483363" lon="-3.226485"><ele>615</ele><time>2022-03-30T13:20:09Z</time><name>PT4856</name></trkpt>
<trkpt lat="54.483335" lon="-3.226485"><ele>615</ele><time>2022-03-30T13:20:12Z</time><name>PT4857</name></trkpt>
<trkpt lat="54.483296" lon="-3.226498"><ele>615</ele><time>2022-03-30T13:20:16Z</time><name>PT4858</name></trkpt>
<trkpt lat="54.483262" lon="-3.226526"><ele>614</ele><time>2022-03-30T13:20:20Z</time><name>PT4859</name></trkpt>
<trkpt lat="54.483239" lon="-3.226540"><ele>613</ele><time>2022-03-30T13:20:23Z</time><name>PT4860</name></trkpt>
<trkpt lat="54.483209" lon="-3.226552"><ele>612</ele><time>2022-03-30T13:20:27Z</time><name>PT4861</name></trkpt>
<trkpt lat="54.483193" lon="-3.226584"><ele>612</ele><time>2022-03-30T13:20:30Z</time><name>PT4862</name></trkpt>
<trkpt lat="54.483161" lon="-3.226616"><ele>612</ele><time>2022-03-30T13:20:34Z</time><name>PT4863</name></trkpt>
<trkpt lat="54.483141" lon="-3.226649"><ele>611</ele><time>2022-03-30T13:20:37Z</time><name>PT4864</name></trkpt>
<trkpt lat="54.483129" lon="-3.226696"><ele>611</ele><time>2022-03-30T13:20:40Z</time><name>PT4865</name></trkpt>
<trkpt lat="54.483115" lon="-3.226740"><ele>609</ele><time>2022-03-30T13:20:44Z</time><name>PT4866</name></trkpt>
<trkpt lat="54.483097" lon="-3.226754"><ele>608</ele><time>2022-03-30T13:20:47Z</time><name>PT4867</name></trkpt>
<trkpt lat="54.483076" lon="-3.226762"><ele>608</ele><time>2022-03-30T13:20:50Z</time><name>PT4868</name></trkpt>
<trkpt lat="54.483056" lon="-3.226784"><ele>606</ele><time>2022-03-30T13:20:53Z</time><name>PT4869</name></trkpt>
<trkpt lat="54.483035" lon="-3.226788"><ele>605</ele><time>2022-03-30T13:20:57Z</time><name>PT4870</name></trkpt>
<trkpt lat="54.483014" lon="-3.226793"><ele>604</ele><time>2022-03-30T13:21:00Z</time><name>PT4871</name></trkpt>
<trkpt lat="54.482989" lon="-3.226805"><ele>603</ele><time>2022-03-30T13:21:04Z</time><name>PT4872</name></trkpt>
<trkpt lat="54.482967" lon="-3.226812"><ele>602</ele><time>2022-03-30T13:21:07Z</time><name>PT4873</name></trkpt>
<trkpt lat="54.482948" lon="-3.226814"><ele>601</ele><time>2022-03-30T13:21:10Z</time><name>PT4874</name></trkpt>
<trkpt lat="54.482923" lon="-3.226824"><ele>600</ele><time>2022-03-30T13:21:14Z</time><name>PT4875</name></trkpt>
<trkpt lat="54.482908" lon="-3.226844"><ele>599</ele><time>2022-03-30T13:21:17Z</time><name>PT4876</name></trkpt>
<trkpt lat="54.482880" lon="-3.226866"><ele>598</ele><time>2022-03-30T13:21:21Z</time><name>PT4877</name></trkpt>
<trkpt lat="54.482864" lon="-3.226887"><ele>597</ele><time>2022-03-30T13:21:24Z</time><name>PT4878</name></trkpt>
<trkpt lat="54.482834" lon="-3.226889"><ele>595</ele><time>2022-03-30T13:21:28Z</time><name>PT4879</name></trkpt>
<trkpt lat="54.482812" lon="-3.226875"><ele>594</ele><time>2022-03-30T13:21:31Z</time><name>PT4880</name></trkpt>
<trkpt lat="54.482793" lon="-3.226872"><ele>593</ele><time>2022-03-30T13:21:35Z</time><name>PT4881</name></trkpt>
<trkpt lat="54.482780" lon="-3.226869"><ele>593</ele><time>2022-03-30T13:21:39Z</time><name>PT4882</name></trkpt>
<trkpt lat="54.482765" lon="-3.226874"><ele>592</ele><time>2022-03-30T13:21:42Z</time><name>PT4883</name></trkpt>
<trkpt lat="54.482743" lon="-3.226877"><ele>590</ele><time>2022-03-30T13:21:46Z</time><name>PT4884</name></trkpt>
<trkpt lat="54.482721" lon="-3.226888"><ele>590</ele><time>2022-03-30T13:21:50Z</time><name>PT4885</name></trkpt>
<trkpt lat="54.482700" lon="-3.226884"><ele>590</ele><time>2022-03-30T13:21:53Z</time><name>PT4886</name></trkpt>
<trkpt lat="54.482678" lon="-3.226894"><ele>590</ele><time>2022-03-30T13:21:56Z</time><name>PT4887</name></trkpt>
<trkpt lat="54.482648" lon="-3.226885"><ele>590</ele><time>2022-03-30T13:22:00Z</time><name>PT4888</name></trkpt>
<trkpt lat="54.482629" lon="-3.226890"><ele>589</ele><time>2022-03-30T13:22:03Z</time><name>PT4889</name></trkpt>
<trkpt lat="54.482602" lon="-3.226904"><ele>589</ele><time>2022-03-30T13:22:06Z</time><name>PT4890</name></trkpt>
<trkpt lat="54.482579" lon="-3.226917"><ele>589</ele><time>2022-03-30T13:22:09Z</time><name>PT4891</name></trkpt>
<trkpt lat="54.482546" lon="-3.226930"><ele>588</ele><time>2022-03-30T13:22:13Z</time><name>PT4892</name></trkpt>
<trkpt lat="54.482522" lon="-3.226940"><ele>586</ele><time>2022-03-30T13:22:17Z</time><name>PT4893</name></trkpt>
<trkpt lat="54.482503" lon="-3.226965"><ele>586</ele><time>2022-03-30T13:22:20Z</time><name>PT4894</name></trkpt>
<trkpt lat="54.482473" lon="-3.226967"><ele>585</ele><time>2022-03-30T13:22:24Z</time><name>PT4895</name></trkpt>
<trkpt lat="54.482468" lon="-3.226965"><ele>584</ele><time>2022-03-30T13:22:28Z</time><name>PT4896</name></trkpt>
<trkpt lat="54.482468" lon="-3.226969"><ele>584</ele><time>2022-03-30T13:22:31Z</time><name>PT4897</name></trkpt>
<trkpt lat="54.482445" lon="-3.226986"><ele>584</ele><time>2022-03-30T13:22:34Z</time><name>PT4898</name></trkpt>
<trkpt lat="54.482430" lon="-3.226995"><ele>583</ele><time>2022-03-30T13:22:37Z</time><name>PT4899</name></trkpt>
<trkpt lat="54.482408" lon="-3.227018"><ele>584</ele><time>2022-03-30T13:22:41Z</time><name>PT4900</name></trkpt>
<trkpt lat="54.482387" lon="-3.227037"><ele>583</ele><time>2022-03-30T13:22:44Z</time><name>PT4901</name></trkpt>
<trkpt lat="54.482364" lon="-3.227046"><ele>582</ele><time>2022-03-30T13:22:47Z</time><name>PT4902</name></trkpt>
<trkpt lat="54.482344" lon="-3.227066"><ele>582</ele><time>2022-03-30T13:22:51Z</time><name>PT4903</name></trkpt>
<trkpt lat="54.482329" lon="-3.227074"><ele>580</ele><time>2022-03-30T13:22:55Z</time><name>PT4904</name></trkpt>
<trkpt lat="54.482310" lon="-3.227082"><ele>580</ele><time>2022-03-30T13:22:58Z</time><name>PT4905</name></trkpt>
<trkpt lat="54.482283" lon="-3.227095"><ele>579</ele><time>2022-03-30T13:23:02Z</time><name>PT4906</name></trkpt>
<trkpt lat="54.482262" lon="-3.227113"><ele>578</ele><time>2022-03-30T13:23:06Z</time><name>PT4907</name></trkpt>
<trkpt lat="54.482246" lon="-3.227132"><ele>578</ele><time>2022-03-30T13:23:10Z</time><name>PT4908</name></trkpt>
<trkpt lat="54.482219" lon="-3.227143"><ele>577</ele><time>2022-03-30T13:23:14Z</time><name>PT4909</name></trkpt>
<trkpt lat="54.482196" lon="-3.227170"><ele>577</ele><time>2022-03-30T13:23:17Z</time><name>PT4910</name></trkpt>
<trkpt lat="54.482175" lon="-3.227182"><ele>577</ele><time>2022-03-30T13:23:20Z</time><name>PT4911</name></trkpt>
<trkpt lat="54.482161" lon="-3.227207"><ele>577</ele><time>2022-03-30T13:23:23Z</time><name>PT4912</name></trkpt>
<trkpt lat="54.482134" lon="-3.227240"><ele>577</ele><time>2022-03-30T13:23:27Z</time><name>PT4913</name></trkpt>
<trkpt lat="54.482106" lon="-3.227222"><ele>576</ele><time>2022-03-30T13:23:30Z</time><name>PT4914</name></trkpt>
<trkpt lat="54.482083" lon="-3.227221"><ele>576</ele><time>2022-03-30T13:23:33Z</time><name>PT4915</name></trkpt>
<trkpt lat="54.482055" lon="-3.227219"><ele>576</ele><time>2022-03-30T13:23:37Z</time><name>PT4916</name></trkpt>
<trkpt lat="54.482040" lon="-3.227229"><ele>576</ele><time>2022-03-30T13:23:41Z</time><name>PT4917</name></trkpt>
<trkpt lat="54.482015" lon="-3.227245"><ele>575</ele><time>2022-03-30T13:23:44Z</time><name>PT4918</name></trkpt>
<trkpt lat="54.481984" lon="-3.227232"><ele>575</ele><time>2022-03-30T13:23:48Z</time><name>PT4919</name></trkpt>
<trkpt lat="54.481958" lon="-3.227243"><ele>574</ele><time>2022-03-30T13:23:51Z</time><name>PT4920</name></trkpt>
<trkpt lat="54.481948" lon="-3.227263"><ele>574</ele><time>2022-03-30T13:23:54Z</time><name>PT4921</name></trkpt>
<trkpt lat="54.481935" lon="-3.227282"><ele>574</ele><time>2022-03-30T13:23:58Z</time><name>PT4922</name></trkpt>
<trkpt lat="54.481922" lon="-3.227307"><ele>573</ele><time>2022-03-30T13:24:01Z</time><name>PT4923</name></trkpt>
<trkpt lat="54.481900" lon="-3.227304"><ele>572</ele><time>2022-03-30T13:24:05Z</time><name>PT4924</name></trkpt>
<trkpt lat="54.481886" lon="-3.227313"><ele>571</ele><time>2022-03-30T13:24:08Z</time><name>PT4925</name></trkpt>
<trkpt lat="54.481867" lon="-3.227330"><ele>570</ele><time>2022-03-30T13:24:12Z</time><name>PT4926</name></trkpt>
<trkpt lat="54.481857" lon="-3.227357"><ele>569</ele><time>2022-03-30T13:24:15Z</time><name>PT4927</name></trkpt>
<trkpt lat="54.481841" lon="-3.227361"><ele>567</ele><time>2022-03-30T13:24:19Z</time><name>PT4928</name></trkpt>
<trkpt lat="54.481829" lon="-3.227388"><ele>567</ele><time>2022-03-30T13:24:22Z</time><name>PT4929</name></trkpt>
<trkpt lat="54.481824" lon="-3.227413"><ele>567</ele><time>2022-03-30T13:24:25Z</time><name>PT4930</name></trkpt>
<trkpt lat="54.481815" lon="-3.227434"><ele>567</ele><time>2022-03-30T13:24:28Z</time><name>PT4931</name></trkpt>
<trkpt lat="54.481801" lon="-3.227458"><ele>567</ele><time>2022-03-30T13:24:31Z</time><name>PT4932</name></trkpt>
<trkpt lat="54.481782" lon="-3.227492"><ele>566</ele><time>2022-03-30T13:24:35Z</time><name>PT4933</name></trkpt>
<trkpt lat="54.481766" lon="-3.227504"><ele>566</ele><time>2022-03-30T13:24:38Z</time><name>PT4934</name></trkpt>
<trkpt lat="54.481754" lon="-3.227517"><ele>565</ele><time>2022-03-30T13:24:42Z</time><name>PT4935</name></trkpt>
<trkpt lat="54.481743" lon="-3.227532"><ele>564</ele><time>2022-03-30T13:24:52Z</time><name>PT4936</name></trkpt>
<trkpt lat="54.481713" lon="-3.227563"><ele>563</ele><time>2022-03-30T13:24:56Z</time><name>PT4937</name></trkpt>
<trkpt lat="54.481698" lon="-3.227587"><ele>563</ele><time>2022-03-30T13:24:59Z</time><name>PT4938</name></trkpt>
<trkpt lat="54.481670" lon="-3.227602"><ele>561</ele><time>2022-03-30T13:25:03Z</time><name>PT4939</name></trkpt>
<trkpt lat="54.481651" lon="-3.227634"><ele>561</ele><time>2022-03-30T13:25:07Z</time><name>PT4940</name></trkpt>
<trkpt lat="54.481632" lon="-3.227656"><ele>560</ele><time>2022-03-30T13:25:10Z</time><name>PT4941</name></trkpt>
<trkpt lat="54.481614" lon="-3.227668"><ele>560</ele><time>2022-03-30T13:25:13Z</time><name>PT4942</name></trkpt>
<trkpt lat="54.481596" lon="-3.227688"><ele>559</ele><time>2022-03-30T13:25:16Z</time><name>PT4943</name></trkpt>
<trkpt lat="54.481570" lon="-3.227706"><ele>559</ele><time>2022-03-30T13:25:20Z</time><name>PT4944</name></trkpt>
<trkpt lat="54.481542" lon="-3.227725"><ele>557</ele><time>2022-03-30T13:25:24Z</time><name>PT4945</name></trkpt>
<trkpt lat="54.481520" lon="-3.227730"><ele>556</ele><time>2022-03-30T13:25:27Z</time><name>PT4946</name></trkpt>
<trkpt lat="54.481494" lon="-3.227735"><ele>556</ele><time>2022-03-30T13:25:30Z</time><name>PT4947</name></trkpt>
<trkpt lat="54.481463" lon="-3.227756"><ele>555</ele><time>2022-03-30T13:25:34Z</time><name>PT4948</name></trkpt>
<trkpt lat="54.481424" lon="-3.227766"><ele>554</ele><time>2022-03-30T13:25:38Z</time><name>PT4949</name></trkpt>
<trkpt lat="54.481398" lon="-3.227751"><ele>554</ele><time>2022-03-30T13:25:41Z</time><name>PT4950</name></trkpt>
<trkpt lat="54.481366" lon="-3.227747"><ele>554</ele><time>2022-03-30T13:25:45Z</time><name>PT4951</name></trkpt>
<trkpt lat="54.481339" lon="-3.227777"><ele>552</ele><time>2022-03-30T13:25:49Z</time><name>PT4952</name></trkpt>
<trkpt lat="54.481317" lon="-3.227808"><ele>552</ele><time>2022-03-30T13:25:53Z</time><name>PT4953</name></trkpt>
<trkpt lat="54.481300" lon="-3.227817"><ele>551</ele><time>2022-03-30T13:25:56Z</time><name>PT4954</name></trkpt>
<trkpt lat="54.481266" lon="-3.227834"><ele>550</ele><time>2022-03-30T13:26:00Z</time><name>PT4955</name></trkpt>
<trkpt lat="54.481239" lon="-3.227846"><ele>549</ele><time>2022-03-30T13:26:03Z</time><name>PT4956</name></trkpt>
<trkpt lat="54.481207" lon="-3.227859"><ele>548</ele><time>2022-03-30T13:26:07Z</time><name>PT4957</name></trkpt>
<trkpt lat="54.481174" lon="-3.227863"><ele>547</ele><time>2022-03-30T13:26:11Z</time><name>PT4958</name></trkpt>
<trkpt lat="54.481147" lon="-3.227868"><ele>546</ele><time>2022-03-30T13:26:14Z</time><name>PT4959</name></trkpt>
<trkpt lat="54.481115" lon="-3.227879"><ele>545</ele><time>2022-03-30T13:26:18Z</time><name>PT4960</name></trkpt>
<trkpt lat="54.481081" lon="-3.227873"><ele>546</ele><time>2022-03-30T13:26:21Z</time><name>PT4961</name></trkpt>
<trkpt lat="54.481049" lon="-3.227849"><ele>546</ele><time>2022-03-30T13:26:25Z</time><name>PT4962</name></trkpt>
<trkpt lat="54.481018" lon="-3.227854"><ele>546</ele><time>2022-03-30T13:26:29Z</time><name>PT4963</name></trkpt>
<trkpt lat="54.480987" lon="-3.227864"><ele>545</ele><time>2022-03-30T13:26:32Z</time><name>PT4964</name></trkpt>
<trkpt lat="54.480941" lon="-3.227872"><ele>545</ele><time>2022-03-30T13:26:36Z</time><name>PT4965</name></trkpt>
<trkpt lat="54.480912" lon="-3.227877"><ele>545</ele><time>2022-03-30T13:26:39Z</time><name>PT4966</name></trkpt>
<trkpt lat="54.480876" lon="-3.227891"><ele>543</ele><time>2022-03-30T13:26:43Z</time><name>PT4967</name></trkpt>
<trkpt lat="54.480834" lon="-3.227885"><ele>543</ele><time>2022-03-30T13:26:47Z</time><name>PT4968</name></trkpt>
<trkpt lat="54.480812" lon="-3.227876"><ele>543</ele><time>2022-03-30T13:26:50Z</time><name>PT4969</name></trkpt>
<trkpt lat="54.480788" lon="-3.227881"><ele>543</ele><time>2022-03-30T13:26:54Z</time><name>PT4970</name></trkpt>
<trkpt lat="54.480784" lon="-3.227889"><ele>544</ele><time>2022-03-30T13:26:58Z</time><name>PT4971</name></trkpt>
<trkpt lat="54.480770" lon="-3.227886"><ele>542</ele><time>2022-03-30T13:27:05Z</time><name>PT4972</name></trkpt>
<trkpt lat="54.480751" lon="-3.227894"><ele>542</ele><time>2022-03-30T13:27:08Z</time><name>PT4973</name></trkpt>
<trkpt lat="54.480731" lon="-3.227897"><ele>541</ele><time>2022-03-30T13:27:11Z</time><name>PT4974</name></trkpt>
<trkpt lat="54.480718" lon="-3.227894"><ele>540</ele><time>2022-03-30T13:27:15Z</time><name>PT4975</name></trkpt>
<trkpt lat="54.480707" lon="-3.227915"><ele>539</ele><time>2022-03-30T13:27:19Z</time><name>PT4976</name></trkpt>
<trkpt lat="54.480698" lon="-3.227937"><ele>539</ele><time>2022-03-30T13:27:22Z</time><name>PT4977</name></trkpt>
<trkpt lat="54.480673" lon="-3.227945"><ele>538</ele><time>2022-03-30T13:27:29Z</time><name>PT4978</name></trkpt>
<trkpt lat="54.480658" lon="-3.227958"><ele>536</ele><time>2022-03-30T13:27:32Z</time><name>PT4979</name></trkpt>
<trkpt lat="54.480640" lon="-3.227967"><ele>535</ele><time>2022-03-30T13:27:35Z</time><name>PT4980</name></trkpt>
<trkpt lat="54.480616" lon="-3.227992"><ele>533</ele><time>2022-03-30T13:27:39Z</time><name>PT4981</name></trkpt>
<trkpt lat="54.480596" lon="-3.228001"><ele>532</ele><time>2022-03-30T13:27:42Z</time><name>PT4982</name></trkpt>
<trkpt lat="54.480581" lon="-3.228003"><ele>531</ele><time>2022-03-30T13:27:46Z</time><name>PT4983</name></trkpt>
<trkpt lat="54.480570" lon="-3.228007"><ele>531</ele><time>2022-03-30T13:27:49Z</time><name>PT4984</name></trkpt>
<trkpt lat="54.480566" lon="-3.228032"><ele>531</ele><time>2022-03-30T13:27:53Z</time><name>PT4985</name></trkpt>
<trkpt lat="54.480555" lon="-3.228042"><ele>530</ele><time>2022-03-30T13:27:56Z</time><name>PT4986</name></trkpt>
<trkpt lat="54.480535" lon="-3.228046"><ele>528</ele><time>2022-03-30T13:28:00Z</time><name>PT4987</name></trkpt>
<trkpt lat="54.480523" lon="-3.228051"><ele>528</ele><time>2022-03-30T13:28:03Z</time><name>PT4988</name></trkpt>
<trkpt lat="54.480506" lon="-3.228078"><ele>528</ele><time>2022-03-30T13:28:07Z</time><name>PT4989</name></trkpt>
<trkpt lat="54.480489" lon="-3.228091"><ele>527</ele><time>2022-03-30T13:28:10Z</time><name>PT4990</name></trkpt>
<trkpt lat="54.480471" lon="-3.228097"><ele>527</ele><time>2022-03-30T13:28:13Z</time><name>PT4991</name></trkpt>
<trkpt lat="54.480461" lon="-3.228099"><ele>527</ele><time>2022-03-30T13:28:17Z</time><name>PT4992</name></trkpt>
<trkpt lat="54.480462" lon="-3.228099"><ele>526</ele><time>2022-03-30T13:28:20Z</time><name>PT4993</name></trkpt>
<trkpt lat="54.480462" lon="-3.228097"><ele>526</ele><time>2022-03-30T13:28:23Z</time><name>PT4994</name></trkpt>
<trkpt lat="54.480445" lon="-3.228121"><ele>525</ele><time>2022-03-30T13:28:30Z</time><name>PT4995</name></trkpt>
<trkpt lat="54.480432" lon="-3.228123"><ele>524</ele><time>2022-03-30T13:28:33Z</time><name>PT4996</name></trkpt>
<trkpt lat="54.480414" lon="-3.228136"><ele>523</ele><time>2022-03-30T13:28:37Z</time><name>PT4997</name></trkpt>
<trkpt lat="54.480412" lon="-3.228139"><ele>523</ele><time>2022-03-30T13:28:43Z</time><name>PT4998</name></trkpt>
<trkpt lat="54.480388" lon="-3.228165"><ele>520</ele><time>2022-03-30T13:28:47Z</time><name>PT4999</name></trkpt>
<trkpt lat="54.480382" lon="-3.228170"><ele>520</ele><time>2022-03-30T13:28:50Z</time><name>PT5000</name></trkpt>
<trkpt lat="54.480375" lon="-3.228182"><ele>520</ele><time>2022-03-30T13:28:54Z</time><name>PT5001</name></trkpt>
<trkpt lat="54.480360" lon="-3.228203"><ele>519</ele><time>2022-03-30T13:28:57Z</time><name>PT5002</name></trkpt>
<trkpt lat="54.480349" lon="-3.228217"><ele>517</ele><time>2022-03-30T13:29:00Z</time><name>PT5003</name></trkpt>
<trkpt lat="54.480332" lon="-3.228232"><ele>517</ele><time>2022-03-30T13:29:03Z</time><name>PT5004</name></trkpt>
<trkpt lat="54.480312" lon="-3.228246"><ele>516</ele><time>2022-03-30T13:29:07Z</time><name>PT5005</name></trkpt>
<trkpt lat="54.480300" lon="-3.228249"><ele>516</ele><time>2022-03-30T13:29:11Z</time><name>PT5006</name></trkpt>
<trkpt lat="54.480287" lon="-3.228274"><ele>513</ele><time>2022-03-30T13:29:17Z</time><name>PT5007</name></trkpt>
<trkpt lat="54.480264" lon="-3.228293"><ele>513</ele><time>2022-03-30T13:29:21Z</time><name>PT5008</name></trkpt>
<trkpt lat="54.480245" lon="-3.228296"><ele>512</ele><time>2022-03-30T13:29:25Z</time><name>PT5009</name></trkpt>
<trkpt lat="54.480227" lon="-3.228313"><ele>511</ele><time>2022-03-30T13:29:29Z</time><name>PT5010</name></trkpt>
<trkpt lat="54.480235" lon="-3.228323"><ele>511</ele><time>2022-03-30T13:29:36Z</time><name>PT5011</name></trkpt>
<trkpt lat="54.480216" lon="-3.228339"><ele>510</ele><time>2022-03-30T13:29:39Z</time><name>PT5012</name></trkpt>
<trkpt lat="54.480189" lon="-3.228353"><ele>509</ele><time>2022-03-30T13:29:43Z</time><name>PT5013</name></trkpt>
<trkpt lat="54.480171" lon="-3.228368"><ele>507</ele><time>2022-03-30T13:29:47Z</time><name>PT5014</name></trkpt>
<trkpt lat="54.480164" lon="-3.228391"><ele>506</ele><time>2022-03-30T13:29:51Z</time><name>PT5015</name></trkpt>
<trkpt lat="54.480137" lon="-3.228389"><ele>506</ele><time>2022-03-30T13:29:55Z</time><name>PT5016</name></trkpt>
<trkpt lat="54.480119" lon="-3.228398"><ele>506</ele><time>2022-03-30T13:29:59Z</time><name>PT5017</name></trkpt>
<trkpt lat="54.480118" lon="-3.228409"><ele>505</ele><time>2022-03-30T13:30:02Z</time><name>PT5018</name></trkpt>
<trkpt lat="54.480099" lon="-3.228423"><ele>503</ele><time>2022-03-30T13:30:06Z</time><name>PT5019</name></trkpt>
<trkpt lat="54.480088" lon="-3.228436"><ele>502</ele><time>2022-03-30T13:30:10Z</time><name>PT5020</name></trkpt>
<trkpt lat="54.480082" lon="-3.228456"><ele>503</ele><time>2022-03-30T13:30:13Z</time><name>PT5021</name></trkpt>
<trkpt lat="54.480061" lon="-3.228464"><ele>501</ele><time>2022-03-30T13:30:17Z</time><name>PT5022</name></trkpt>
<trkpt lat="54.480048" lon="-3.228474"><ele>501</ele><time>2022-03-30T13:30:20Z</time><name>PT5023</name></trkpt>
<trkpt lat="54.480039" lon="-3.228497"><ele>500</ele><time>2022-03-30T13:30:24Z</time><name>PT5024</name></trkpt>
<trkpt lat="54.480035" lon="-3.228504"><ele>500</ele><time>2022-03-30T13:30:40Z</time><name>PT5025</name></trkpt>
<trkpt lat="54.480018" lon="-3.228543"><ele>499</ele><time>2022-03-30T13:30:43Z</time><name>PT5026</name></trkpt>
<trkpt lat="54.479997" lon="-3.228579"><ele>498</ele><time>2022-03-30T13:30:47Z</time><name>PT5027</name></trkpt>
<trkpt lat="54.479990" lon="-3.228589"><ele>497</ele><time>2022-03-30T13:30:50Z</time><name>PT5028</name></trkpt>
<trkpt lat="54.479955" lon="-3.228615"><ele>496</ele><time>2022-03-30T13:30:54Z</time><name>PT5029</name></trkpt>
<trkpt lat="54.479924" lon="-3.228635"><ele>495</ele><time>2022-03-30T13:31:05Z</time><name>PT5030</name></trkpt>
<trkpt lat="54.479887" lon="-3.228667"><ele>493</ele><time>2022-03-30T13:31:09Z</time><name>PT5031</name></trkpt>
<trkpt lat="54.479859" lon="-3.228689"><ele>492</ele><time>2022-03-30T13:31:13Z</time><name>PT5032</name></trkpt>
<trkpt lat="54.479838" lon="-3.228695"><ele>491</ele><time>2022-03-30T13:31:16Z</time><name>PT5033</name></trkpt>
<trkpt lat="54.479817" lon="-3.228704"><ele>490</ele><time>2022-03-30T13:31:19Z</time><name>PT5034</name></trkpt>
<trkpt lat="54.479799" lon="-3.228718"><ele>488</ele><time>2022-03-30T13:31:22Z</time><name>PT5035</name></trkpt>
<trkpt lat="54.479778" lon="-3.228752"><ele>488</ele><time>2022-03-30T13:31:26Z</time><name>PT5036</name></trkpt>
<trkpt lat="54.479754" lon="-3.228787"><ele>487</ele><time>2022-03-30T13:31:30Z</time><name>PT5037</name></trkpt>
<trkpt lat="54.479726" lon="-3.228809"><ele>486</ele><time>2022-03-30T13:31:34Z</time><name>PT5038</name></trkpt>
<trkpt lat="54.479699" lon="-3.228819"><ele>485</ele><time>2022-03-30T13:31:38Z</time><name>PT5039</name></trkpt>
<trkpt lat="54.479672" lon="-3.228830"><ele>485</ele><time>2022-03-30T13:31:41Z</time><name>PT5040</name></trkpt>
<trkpt lat="54.479641" lon="-3.228833"><ele>485</ele><time>2022-03-30T13:31:45Z</time><name>PT5041</name></trkpt>
<trkpt lat="54.479616" lon="-3.228831"><ele>484</ele><time>2022-03-30T13:31:49Z</time><name>PT5042</name></trkpt>
<trkpt lat="54.479594" lon="-3.228850"><ele>483</ele><time>2022-03-30T13:31:53Z</time><name>PT5043</name></trkpt>
<trkpt lat="54.479579" lon="-3.228880"><ele>482</ele><time>2022-03-30T13:31:56Z</time><name>PT5044</name></trkpt>
<trkpt lat="54.479568" lon="-3.228900"><ele>482</ele><time>2022-03-30T13:31:59Z</time><name>PT5045</name></trkpt>
<trkpt lat="54.479552" lon="-3.228910"><ele>481</ele><time>2022-03-30T13:32:02Z</time><name>PT5046</name></trkpt>
<trkpt lat="54.479536" lon="-3.228912"><ele>480</ele><time>2022-03-30T13:32:05Z</time><name>PT5047</name></trkpt>
<trkpt lat="54.479521" lon="-3.228920"><ele>479</ele><time>2022-03-30T13:32:09Z</time><name>PT5048</name></trkpt>
<trkpt lat="54.479497" lon="-3.228939"><ele>479</ele><time>2022-03-30T13:32:13Z</time><name>PT5049</name></trkpt>
<trkpt lat="54.479474" lon="-3.228971"><ele>479</ele><time>2022-03-30T13:32:17Z</time><name>PT5050</name></trkpt>
<trkpt lat="54.479447" lon="-3.228992"><ele>478</ele><time>2022-03-30T13:32:21Z</time><name>PT5051</name></trkpt>
<trkpt lat="54.479427" lon="-3.228996"><ele>478</ele><time>2022-03-30T13:32:24Z</time><name>PT5052</name></trkpt>
<trkpt lat="54.479402" lon="-3.229019"><ele>478</ele><time>2022-03-30T13:32:28Z</time><name>PT5053</name></trkpt>
<trkpt lat="54.479379" lon="-3.229033"><ele>477</ele><time>2022-03-30T13:32:32Z</time><name>PT5054</name></trkpt>
<trkpt lat="54.479353" lon="-3.229046"><ele>476</ele><time>2022-03-30T13:32:36Z</time><name>PT5055</name></trkpt>
<trkpt lat="54.479337" lon="-3.229062"><ele>475</ele><time>2022-03-30T13:32:39Z</time><name>PT5056</name></trkpt>
<trkpt lat="54.479312" lon="-3.229082"><ele>474</ele><time>2022-03-30T13:32:43Z</time><name>PT5057</name></trkpt>
<trkpt lat="54.479296" lon="-3.229101"><ele>474</ele><time>2022-03-30T13:32:46Z</time><name>PT5058</name></trkpt>
<trkpt lat="54.479277" lon="-3.229126"><ele>474</ele><time>2022-03-30T13:32:49Z</time><name>PT5059</name></trkpt>
<trkpt lat="54.479250" lon="-3.229132"><ele>473</ele><time>2022-03-30T13:32:53Z</time><name>PT5060</name></trkpt>
<trkpt lat="54.479229" lon="-3.229147"><ele>472</ele><time>2022-03-30T13:32:57Z</time><name>PT5061</name></trkpt>
<trkpt lat="54.479208" lon="-3.229177"><ele>471</ele><time>2022-03-30T13:33:01Z</time><name>PT5062</name></trkpt>
<trkpt lat="54.479183" lon="-3.229195"><ele>470</ele><time>2022-03-30T13:33:05Z</time><name>PT5063</name></trkpt>
<trkpt lat="54.479161" lon="-3.229214"><ele>469</ele><time>2022-03-30T13:33:09Z</time><name>PT5064</name></trkpt>
<trkpt lat="54.479136" lon="-3.229233"><ele>467</ele><time>2022-03-30T13:33:13Z</time><name>PT5065</name></trkpt>
<trkpt lat="54.479124" lon="-3.229253"><ele>466</ele><time>2022-03-30T13:33:16Z</time><name>PT5066</name></trkpt>
<trkpt lat="54.479095" lon="-3.229278"><ele>466</ele><time>2022-03-30T13:33:20Z</time><name>PT5067</name></trkpt>
<trkpt lat="54.479077" lon="-3.229291"><ele>465</ele><time>2022-03-30T13:33:23Z</time><name>PT5068</name></trkpt>
<trkpt lat="54.479059" lon="-3.229302"><ele>465</ele><time>2022-03-30T13:33:26Z</time><name>PT5069</name></trkpt>
<trkpt lat="54.479034" lon="-3.229316"><ele>464</ele><time>2022-03-30T13:33:29Z</time><name>PT5070</name></trkpt>
<trkpt lat="54.479013" lon="-3.229326"><ele>463</ele><time>2022-03-30T13:33:33Z</time><name>PT5071</name></trkpt>
<trkpt lat="54.478991" lon="-3.229334"><ele>462</ele><time>2022-03-30T13:33:36Z</time><name>PT5072</name></trkpt>
<trkpt lat="54.478961" lon="-3.229355"><ele>461</ele><time>2022-03-30T13:33:40Z</time><name>PT5073</name></trkpt>
<trkpt lat="54.478944" lon="-3.229381"><ele>460</ele><time>2022-03-30T13:33:44Z</time><name>PT5074</name></trkpt>
<trkpt lat="54.478923" lon="-3.229384"><ele>459</ele><time>2022-03-30T13:33:47Z</time><name>PT5075</name></trkpt>
<trkpt lat="54.478897" lon="-3.229398"><ele>458</ele><time>2022-03-30T13:33:51Z</time><name>PT5076</name></trkpt>
<trkpt lat="54.478876" lon="-3.229414"><ele>458</ele><time>2022-03-30T13:33:54Z</time><name>PT5077</name></trkpt>
<trkpt lat="54.478847" lon="-3.229418"><ele>457</ele><time>2022-03-30T13:33:58Z</time><name>PT5078</name></trkpt>
<trkpt lat="54.478829" lon="-3.229414"><ele>456</ele><time>2022-03-30T13:34:01Z</time><name>PT5079</name></trkpt>
<trkpt lat="54.478818" lon="-3.229428"><ele>455</ele><time>2022-03-30T13:34:04Z</time><name>PT5080</name></trkpt>
<trkpt lat="54.478794" lon="-3.229444"><ele>454</ele><time>2022-03-30T13:34:08Z</time><name>PT5081</name></trkpt>
<trkpt lat="54.478774" lon="-3.229457"><ele>453</ele><time>2022-03-30T13:34:11Z</time><name>PT5082</name></trkpt>
<trkpt lat="54.478749" lon="-3.229466"><ele>452</ele><time>2022-03-30T13:34:15Z</time><name>PT5083</name></trkpt>
<trkpt lat="54.478731" lon="-3.229472"><ele>451</ele><time>2022-03-30T13:34:18Z</time><name>PT5084</name></trkpt>
<trkpt lat="54.478711" lon="-3.229504"><ele>450</ele><time>2022-03-30T13:34:22Z</time><name>PT5085</name></trkpt>
<trkpt lat="54.478699" lon="-3.229522"><ele>450</ele><time>2022-03-30T13:34:26Z</time><name>PT5086</name></trkpt>
<trkpt lat="54.478686" lon="-3.229534"><ele>449</ele><time>2022-03-30T13:34:30Z</time><name>PT5087</name></trkpt>
<trkpt lat="54.478663" lon="-3.229597"><ele>453</ele><time>2022-03-30T13:34:33Z</time><name>PT5088</name></trkpt>
<trkpt lat="54.478637" lon="-3.229621"><ele>454</ele><time>2022-03-30T13:34:37Z</time><name>PT5089</name></trkpt>
<trkpt lat="54.478627" lon="-3.229619"><ele>454</ele><time>2022-03-30T13:34:41Z</time><name>PT5090</name></trkpt>
<trkpt lat="54.478617" lon="-3.229618"><ele>454</ele><time>2022-03-30T13:35:02Z</time><name>PT5091</name></trkpt>
<trkpt lat="54.478614" lon="-3.229621"><ele>454</ele><time>2022-03-30T13:35:26Z</time><name>PT5092</name></trkpt>
<trkpt lat="54.478610" lon="-3.229601"><ele>453</ele><time>2022-03-30T13:36:30Z</time><name>PT5093</name></trkpt>
<trkpt lat="54.478605" lon="-3.229588"><ele>452</ele><time>2022-03-30T13:36:31Z</time><name>PT5094</name></trkpt>
<trkpt lat="54.478602" lon="-3.229598"><ele>452</ele><time>2022-03-30T13:36:39Z</time><name>PT5095</name></trkpt>
<trkpt lat="54.478601" lon="-3.229610"><ele>452</ele><time>2022-03-30T13:36:40Z</time><name>PT5096</name></trkpt>
<trkpt lat="54.478598" lon="-3.229615"><ele>451</ele><time>2022-03-30T13:36:41Z</time><name>PT5097</name></trkpt>
<trkpt lat="54.478593" lon="-3.229617"><ele>450</ele><time>2022-03-30T13:36:42Z</time><name>PT5098</name></trkpt>
<trkpt lat="54.478586" lon="-3.229625"><ele>451</ele><time>2022-03-30T13:36:43Z</time><name>PT5099</name></trkpt>
<trkpt lat="54.478582" lon="-3.229629"><ele>450</ele><time>2022-03-30T13:36:44Z</time><name>PT5100</name></trkpt>
<trkpt lat="54.478588" lon="-3.229646"><ele>450</ele><time>2022-03-30T13:36:45Z</time><name>PT5101</name></trkpt>
<trkpt lat="54.478582" lon="-3.229658"><ele>450</ele><time>2022-03-30T13:36:46Z</time><name>PT5102</name></trkpt>
<trkpt lat="54.478579" lon="-3.229671"><ele>449</ele><time>2022-03-30T13:36:47Z</time><name>PT5103</name></trkpt>
<trkpt lat="54.478572" lon="-3.229677"><ele>449</ele><time>2022-03-30T13:36:48Z</time><name>PT5104</name></trkpt>
<trkpt lat="54.478565" lon="-3.229683"><ele>449</ele><time>2022-03-30T13:36:49Z</time><name>PT5105</name></trkpt>
<trkpt lat="54.478559" lon="-3.229687"><ele>449</ele><time>2022-03-30T13:36:50Z</time><name>PT5106</name></trkpt>
<trkpt lat="54.478554" lon="-3.229690"><ele>449</ele><time>2022-03-30T13:36:51Z</time><name>PT5107</name></trkpt>
<trkpt lat="54.478552" lon="-3.229697"><ele>449</ele><time>2022-03-30T13:36:52Z</time><name>PT5108</name></trkpt>
<trkpt lat="54.478551" lon="-3.229700"><ele>448</ele><time>2022-03-30T13:36:53Z</time><name>PT5109</name></trkpt>
<trkpt lat="54.478547" lon="-3.229703"><ele>448</ele><time>2022-03-30T13:36:54Z</time><name>PT5110</name></trkpt>
<trkpt lat="54.478542" lon="-3.229706"><ele>448</ele><time>2022-03-30T13:36:55Z</time><name>PT5111</name></trkpt>
<trkpt lat="54.478538" lon="-3.229709"><ele>448</ele><time>2022-03-30T13:36:56Z</time><name>PT5112</name></trkpt>
<trkpt lat="54.478534" lon="-3.229713"><ele>448</ele><time>2022-03-30T13:36:57Z</time><name>PT5113</name></trkpt>
<trkpt lat="54.478527" lon="-3.229720"><ele>447</ele><time>2022-03-30T13:36:58Z</time><name>PT5114</name></trkpt>
<trkpt lat="54.478522" lon="-3.229723"><ele>447</ele><time>2022-03-30T13:36:59Z</time><name>PT5115</name></trkpt>
<trkpt lat="54.478517" lon="-3.229727"><ele>447</ele><time>2022-03-30T13:37:00Z</time><name>PT5116</name></trkpt>
<trkpt lat="54.478513" lon="-3.229730"><ele>446</ele><time>2022-03-30T13:37:01Z</time><name>PT5117</name></trkpt>
<trkpt lat="54.478510" lon="-3.229741"><ele>446</ele><time>2022-03-30T13:37:02Z</time><name>PT5118</name></trkpt>
<trkpt lat="54.478506" lon="-3.229748"><ele>447</ele><time>2022-03-30T13:37:03Z</time><name>PT5119</name></trkpt>
<trkpt lat="54.478504" lon="-3.229752"><ele>446</ele><time>2022-03-30T13:37:04Z</time><name>PT5120</name></trkpt>
<trkpt lat="54.478500" lon="-3.229755"><ele>447</ele><time>2022-03-30T13:37:05Z</time><name>PT5121</name></trkpt>
<trkpt lat="54.478493" lon="-3.229757"><ele>447</ele><time>2022-03-30T13:37:06Z</time><name>PT5122</name></trkpt>
<trkpt lat="54.478487" lon="-3.229760"><ele>446</ele><time>2022-03-30T13:37:07Z</time><name>PT5123</name></trkpt>
<trkpt lat="54.478484" lon="-3.229763"><ele>446</ele><time>2022-03-30T13:37:08Z</time><name>PT5124</name></trkpt>
<trkpt lat="54.478480" lon="-3.229763"><ele>446</ele><time>2022-03-30T13:37:09Z</time><name>PT5125</name></trkpt>
<trkpt lat="54.478477" lon="-3.229768"><ele>446</ele><time>2022-03-30T13:37:10Z</time><name>PT5126</name></trkpt>
<trkpt lat="54.478472" lon="-3.229776"><ele>446</ele><time>2022-03-30T13:37:11Z</time><name>PT5127</name></trkpt>
<trkpt lat="54.478465" lon="-3.229783"><ele>446</ele><time>2022-03-30T13:37:12Z</time><name>PT5128</name></trkpt>
<trkpt lat="54.478460" lon="-3.229788"><ele>445</ele><time>2022-03-30T13:37:13Z</time><name>PT5129</name></trkpt>
<trkpt lat="54.478455" lon="-3.229792"><ele>445</ele><time>2022-03-30T13:37:14Z</time><name>PT5130</name></trkpt>
<trkpt lat="54.478450" lon="-3.229797"><ele>445</ele><time>2022-03-30T13:37:15Z</time><name>PT5131</name></trkpt>
<trkpt lat="54.478445" lon="-3.229806"><ele>445</ele><time>2022-03-30T13:37:16Z</time><name>PT5132</name></trkpt>
<trkpt lat="54.478444" lon="-3.229815"><ele>444</ele><time>2022-03-30T13:37:17Z</time><name>PT5133</name></trkpt>
<trkpt lat="54.478441" lon="-3.229823"><ele>444</ele><time>2022-03-30T13:37:18Z</time><name>PT5134</name></trkpt>
<trkpt lat="54.478438" lon="-3.229835"><ele>445</ele><time>2022-03-30T13:37:19Z</time><name>PT5135</name></trkpt>
<trkpt lat="54.478437" lon="-3.229838"><ele>445</ele><time>2022-03-30T13:37:20Z</time><name>PT5136</name></trkpt>
<trkpt lat="54.478435" lon="-3.229843"><ele>445</ele><time>2022-03-30T13:37:21Z</time><name>PT5137</name></trkpt>
<trkpt lat="54.478434" lon="-3.229841"><ele>444</ele><time>2022-03-30T13:37:22Z</time><name>PT5138</name></trkpt>
<trkpt lat="54.478430" lon="-3.229848"><ele>444</ele><time>2022-03-30T13:37:23Z</time><name>PT5139</name></trkpt>
<trkpt lat="54.478433" lon="-3.229849"><ele>443</ele><time>2022-03-30T13:37:24Z</time><name>PT5140</name></trkpt>
<trkpt lat="54.478435" lon="-3.229842"><ele>442</ele><time>2022-03-30T13:37:25Z</time><name>PT5141</name></trkpt>
<trkpt lat="54.478434" lon="-3.229842"><ele>442</ele><time>2022-03-30T13:37:26Z</time><name>PT5142</name></trkpt>
<trkpt lat="54.478435" lon="-3.229844"><ele>442</ele><time>2022-03-30T13:37:27Z</time><name>PT5143</name></trkpt>
<trkpt lat="54.478436" lon="-3.229846"><ele>441</ele><time>2022-03-30T13:37:28Z</time><name>PT5144</name></trkpt>
<trkpt lat="54.478436" lon="-3.229850"><ele>441</ele><time>2022-03-30T13:37:29Z</time><name>PT5145</name></trkpt>
<trkpt lat="54.478433" lon="-3.229855"><ele>440</ele><time>2022-03-30T13:37:30Z</time><name>PT5146</name></trkpt>
<trkpt lat="54.478429" lon="-3.229858"><ele>440</ele><time>2022-03-30T13:37:31Z</time><name>PT5147</name></trkpt>
<trkpt lat="54.478425" lon="-3.229870"><ele>440</ele><time>2022-03-30T13:37:32Z</time><name>PT5148</name></trkpt>
<trkpt lat="54.478423" lon="-3.229873"><ele>440</ele><time>2022-03-30T13:37:33Z</time><name>PT5149</name></trkpt>
<trkpt lat="54.478426" lon="-3.229874"><ele>439</ele><time>2022-03-30T13:37:34Z</time><name>PT5150</name></trkpt>
<trkpt lat="54.478424" lon="-3.229879"><ele>439</ele><time>2022-03-30T13:37:35Z</time><name>PT5151</name></trkpt>
<trkpt lat="54.478421" lon="-3.229884"><ele>438</ele><time>2022-03-30T13:37:36Z</time><name>PT5152</name></trkpt>
<trkpt lat="54.478417" lon="-3.229889"><ele>438</ele><time>2022-03-30T13:37:37Z</time><name>PT5153</name></trkpt>
<trkpt lat="54.478417" lon="-3.229894"><ele>439</ele><time>2022-03-30T13:37:39Z</time><name>PT5154</name></trkpt>
<trkpt lat="54.478416" lon="-3.229902"><ele>438</ele><time>2022-03-30T13:37:40Z</time><name>PT5155</name></trkpt>
<trkpt lat="54.478411" lon="-3.229898"><ele>437</ele><time>2022-03-30T13:37:41Z</time><name>PT5156</name></trkpt>
<trkpt lat="54.478407" lon="-3.229908"><ele>437</ele><time>2022-03-30T13:37:42Z</time><name>PT5157</name></trkpt>
<trkpt lat="54.478404" lon="-3.229915"><ele>437</ele><time>2022-03-30T13:37:43Z</time><name>PT5158</name></trkpt>
<trkpt lat="54.478400" lon="-3.229921"><ele>437</ele><time>2022-03-30T13:37:44Z</time><name>PT5159</name></trkpt>
<trkpt lat="54.478397" lon="-3.229927"><ele>437</ele><time>2022-03-30T13:37:45Z</time><name>PT5160</name></trkpt>
<trkpt lat="54.478392" lon="-3.229931"><ele>437</ele><time>2022-03-30T13:37:46Z</time><name>PT5161</name></trkpt>
<trkpt lat="54.478390" lon="-3.229932"><ele>436</ele><time>2022-03-30T13:37:47Z</time><name>PT5162</name></trkpt>
<trkpt lat="54.478387" lon="-3.229940"><ele>436</ele><time>2022-03-30T13:37:48Z</time><name>PT5163</name></trkpt>
<trkpt lat="54.478385" lon="-3.229945"><ele>435</ele><time>2022-03-30T13:37:49Z</time><name>PT5164</name></trkpt>
<trkpt lat="54.478379" lon="-3.229947"><ele>435</ele><time>2022-03-30T13:37:50Z</time><name>PT5165</name></trkpt>
<trkpt lat="54.478376" lon="-3.229950"><ele>434</ele><time>2022-03-30T13:37:51Z</time><name>PT5166</name></trkpt>
<trkpt lat="54.478371" lon="-3.229954"><ele>434</ele><time>2022-03-30T13:37:52Z</time><name>PT5167</name></trkpt>
<trkpt lat="54.478368" lon="-3.229956"><ele>434</ele><time>2022-03-30T13:37:53Z</time><name>PT5168</name></trkpt>
<trkpt lat="54.478365" lon="-3.229964"><ele>433</ele><time>2022-03-30T13:37:54Z</time><name>PT5169</name></trkpt>
<trkpt lat="54.478362" lon="-3.229969"><ele>433</ele><time>2022-03-30T13:37:55Z</time><name>PT5170</name></trkpt>
<trkpt lat="54.478361" lon="-3.229978"><ele>432</ele><time>2022-03-30T13:37:56Z</time><name>PT5171</name></trkpt>
<trkpt lat="54.478360" lon="-3.229988"><ele>432</ele><time>2022-03-30T13:37:57Z</time><name>PT5172</name></trkpt>
<trkpt lat="54.478358" lon="-3.229993"><ele>432</ele><time>2022-03-30T13:37:58Z</time><name>PT5173</name></trkpt>
<trkpt lat="54.478361" lon="-3.229998"><ele>432</ele><time>2022-03-30T13:37:59Z</time><name>PT5174</name></trkpt>
<trkpt lat="54.478361" lon="-3.230007"><ele>431</ele><time>2022-03-30T13:38:00Z</time><name>PT5175</name></trkpt>
<trkpt lat="54.478358" lon="-3.230017"><ele>431</ele><time>2022-03-30T13:38:01Z</time><name>PT5176</name></trkpt>
<trkpt lat="54.478353" lon="-3.230023"><ele>431</ele><time>2022-03-30T13:38:02Z</time><name>PT5177</name></trkpt>
<trkpt lat="54.478346" lon="-3.230028"><ele>430</ele><time>2022-03-30T13:38:03Z</time><name>PT5178</name></trkpt>
<trkpt lat="54.478341" lon="-3.230039"><ele>430</ele><time>2022-03-30T13:38:04Z</time><name>PT5179</name></trkpt>
<trkpt lat="54.478326" lon="-3.230066"><ele>428</ele><time>2022-03-30T13:38:08Z</time><name>PT5180</name></trkpt>
<trkpt lat="54.478307" lon="-3.230090"><ele>427</ele><time>2022-03-30T13:38:12Z</time><name>PT5181</name></trkpt>
<trkpt lat="54.478288" lon="-3.230109"><ele>426</ele><time>2022-03-30T13:38:16Z</time><name>PT5182</name></trkpt>
<trkpt lat="54.478266" lon="-3.230133"><ele>426</ele><time>2022-03-30T13:38:20Z</time><name>PT5183</name></trkpt>
<trkpt lat="54.478252" lon="-3.230151"><ele>425</ele><time>2022-03-30T13:38:23Z</time><name>PT5184</name></trkpt>
<trkpt lat="54.478240" lon="-3.230159"><ele>424</ele><time>2022-03-30T13:38:26Z</time><name>PT5185</name></trkpt>
<trkpt lat="54.478232" lon="-3.230185"><ele>424</ele><time>2022-03-30T13:38:29Z</time><name>PT5186</name></trkpt>
<trkpt lat="54.478223" lon="-3.230252"><ele>427</ele><time>2022-03-30T13:38:32Z</time><name>PT5187</name></trkpt>
<trkpt lat="54.478210" lon="-3.230239"><ele>426</ele><time>2022-03-30T13:38:36Z</time><name>PT5188</name></trkpt>
<trkpt lat="54.478196" lon="-3.230242"><ele>425</ele><time>2022-03-30T13:38:40Z</time><name>PT5189</name></trkpt>
<trkpt lat="54.478181" lon="-3.230261"><ele>425</ele><time>2022-03-30T13:38:43Z</time><name>PT5190</name></trkpt>
<trkpt lat="54.478174" lon="-3.230274"><ele>424</ele><time>2022-03-30T13:38:47Z</time><name>PT5191</name></trkpt>
<trkpt lat="54.478155" lon="-3.230301"><ele>424</ele><time>2022-03-30T13:38:53Z</time><name>PT5192</name></trkpt>
<trkpt lat="54.478140" lon="-3.230318"><ele>422</ele><time>2022-03-30T13:38:56Z</time><name>PT5193</name></trkpt>
<trkpt lat="54.478134" lon="-3.230347"><ele>421</ele><time>2022-03-30T13:39:00Z</time><name>PT5194</name></trkpt>
<trkpt lat="54.478134" lon="-3.230383"><ele>419</ele><time>2022-03-30T13:39:04Z</time><name>PT5195</name></trkpt>
<trkpt lat="54.478125" lon="-3.230405"><ele>417</ele><time>2022-03-30T13:39:08Z</time><name>PT5196</name></trkpt>
<trkpt lat="54.478107" lon="-3.230425"><ele>415</ele><time>2022-03-30T13:39:12Z</time><name>PT5197</name></trkpt>
<trkpt lat="54.478105" lon="-3.230474"><ele>414</ele><time>2022-03-30T13:39:16Z</time><name>PT5198</name></trkpt>
<trkpt lat="54.478105" lon="-3.230509"><ele>413</ele><time>2022-03-30T13:39:19Z</time><name>PT5199</name></trkpt>
<trkpt lat="54.478105" lon="-3.230552"><ele>413</ele><time>2022-03-30T13:39:22Z</time><name>PT5200</name></trkpt>
<trkpt lat="54.478101" lon="-3.230603"><ele>414</ele><time>2022-03-30T13:39:26Z</time><name>PT5201</name></trkpt>
<trkpt lat="54.478091" lon="-3.230624"><ele>415</ele><time>2022-03-30T13:39:29Z</time><name>PT5202</name></trkpt>
<trkpt lat="54.478088" lon="-3.230631"><ele>416</ele><time>2022-03-30T13:39:32Z</time><name>PT5203</name></trkpt>
<trkpt lat="54.478088" lon="-3.230639"><ele>415</ele><time>2022-03-30T13:39:35Z</time><name>PT5204</name></trkpt>
<trkpt lat="54.478085" lon="-3.230637"><ele>415</ele><time>2022-03-30T13:39:39Z</time><name>PT5205</name></trkpt>
<trkpt lat="54.478079" lon="-3.230673"><ele>415</ele><time>2022-03-30T13:39:58Z</time><name>PT5206</name></trkpt>
<trkpt lat="54.478065" lon="-3.230700"><ele>413</ele><time>2022-03-30T13:40:01Z</time><name>PT5207</name></trkpt>
<trkpt lat="54.478066" lon="-3.230732"><ele>412</ele><time>2022-03-30T13:40:05Z</time><name>PT5208</name></trkpt>
<trkpt lat="54.478035" lon="-3.230762"><ele>410</ele><time>2022-03-30T13:40:09Z</time><name>PT5209</name></trkpt>
<trkpt lat="54.478015" lon="-3.230779"><ele>408</ele><time>2022-03-30T13:40:12Z</time><name>PT5210</name></trkpt>
<trkpt lat="54.478004" lon="-3.230822"><ele>407</ele><time>2022-03-30T13:40:16Z</time><name>PT5211</name></trkpt>
<trkpt lat="54.477984" lon="-3.230839"><ele>406</ele><time>2022-03-30T13:40:19Z</time><name>PT5212</name></trkpt>
<trkpt lat="54.477976" lon="-3.230881"><ele>405</ele><time>2022-03-30T13:40:23Z</time><name>PT5213</name></trkpt>
<trkpt lat="54.477958" lon="-3.230907"><ele>404</ele><time>2022-03-30T13:40:27Z</time><name>PT5214</name></trkpt>
<trkpt lat="54.477950" lon="-3.230936"><ele>403</ele><time>2022-03-30T13:40:30Z</time><name>PT5215</name></trkpt>
<trkpt lat="54.477929" lon="-3.230972"><ele>403</ele><time>2022-03-30T13:40:34Z</time><name>PT5216</name></trkpt>
<trkpt lat="54.477918" lon="-3.230995"><ele>402</ele><time>2022-03-30T13:40:37Z</time><name>PT5217</name></trkpt>
<trkpt lat="54.477908" lon="-3.231027"><ele>400</ele><time>2022-03-30T13:40:41Z</time><name>PT5218</name></trkpt>
<trkpt lat="54.477886" lon="-3.231076"><ele>401</ele><time>2022-03-30T13:40:45Z</time><name>PT5219</name></trkpt>
<trkpt lat="54.477874" lon="-3.231093"><ele>399</ele><time>2022-03-30T13:40:48Z</time><name>PT5220</name></trkpt>
<trkpt lat="54.477858" lon="-3.231116"><ele>398</ele><time>2022-03-30T13:40:52Z</time><name>PT5221</name></trkpt>
<trkpt lat="54.477833" lon="-3.231155"><ele>398</ele><time>2022-03-30T13:40:56Z</time><name>PT5222</name></trkpt>
<trkpt lat="54.477813" lon="-3.231166"><ele>398</ele><time>2022-03-30T13:40:59Z</time><name>PT5223</name></trkpt>
<trkpt lat="54.477798" lon="-3.231197"><ele>396</ele><time>2022-03-30T13:41:03Z</time><name>PT5224</name></trkpt>
<trkpt lat="54.477788" lon="-3.231236"><ele>395</ele><time>2022-03-30T13:41:07Z</time><name>PT5225</name></trkpt>
<trkpt lat="54.477780" lon="-3.231271"><ele>395</ele><time>2022-03-30T13:41:10Z</time><name>PT5226</name></trkpt>
<trkpt lat="54.477780" lon="-3.231312"><ele>394</ele><time>2022-03-30T13:41:14Z</time><name>PT5227</name></trkpt>
<trkpt lat="54.477761" lon="-3.231341"><ele>393</ele><time>2022-03-30T13:41:18Z</time><name>PT5228</name></trkpt>
<trkpt lat="54.477745" lon="-3.231358"><ele>391</ele><time>2022-03-30T13:41:21Z</time><name>PT5229</name></trkpt>
<trkpt lat="54.477733" lon="-3.231394"><ele>389</ele><time>2022-03-30T13:41:25Z</time><name>PT5230</name></trkpt>
<trkpt lat="54.477721" lon="-3.231409"><ele>389</ele><time>2022-03-30T13:41:28Z</time><name>PT5231</name></trkpt>
<trkpt lat="54.477708" lon="-3.231434"><ele>387</ele><time>2022-03-30T13:41:32Z</time><name>PT5232</name></trkpt>
<trkpt lat="54.477692" lon="-3.231459"><ele>385</ele><time>2022-03-30T13:41:36Z</time><name>PT5233</name></trkpt>
<trkpt lat="54.477691" lon="-3.231501"><ele>383</ele><time>2022-03-30T13:41:40Z</time><name>PT5234</name></trkpt>
<trkpt lat="54.477675" lon="-3.231543"><ele>382</ele><time>2022-03-30T13:41:44Z</time><name>PT5235</name></trkpt>
<trkpt lat="54.477667" lon="-3.231569"><ele>381</ele><time>2022-03-30T13:41:48Z</time><name>PT5236</name></trkpt>
<trkpt lat="54.477658" lon="-3.231597"><ele>379</ele><time>2022-03-30T13:41:52Z</time><name>PT5237</name></trkpt>
<trkpt lat="54.477641" lon="-3.231634"><ele>378</ele><time>2022-03-30T13:41:56Z</time><name>PT5238</name></trkpt>
<trkpt lat="54.477631" lon="-3.231669"><ele>379</ele><time>2022-03-30T13:41:59Z</time><name>PT5239</name></trkpt>
<trkpt lat="54.477623" lon="-3.231702"><ele>378</ele><time>2022-03-30T13:42:03Z</time><name>PT5240</name></trkpt>
<trkpt lat="54.477613" lon="-3.231734"><ele>377</ele><time>2022-03-30T13:42:06Z</time><name>PT5241</name></trkpt>
<trkpt lat="54.477602" lon="-3.231764"><ele>377</ele><time>2022-03-30T13:42:09Z</time><name>PT5242</name></trkpt>
<trkpt lat="54.477586" lon="-3.231801"><ele>375</ele><time>2022-03-30T13:42:13Z</time><name>PT5243</name></trkpt>
<trkpt lat="54.477575" lon="-3.231830"><ele>374</ele><time>2022-03-30T13:42:16Z</time><name>PT5244</name></trkpt>
<trkpt lat="54.477552" lon="-3.231852"><ele>374</ele><time>2022-03-30T13:42:19Z</time><name>PT5245</name></trkpt>
<trkpt lat="54.477545" lon="-3.231879"><ele>374</ele><time>2022-03-30T13:42:23Z</time><name>PT5246</name></trkpt>
<trkpt lat="54.477536" lon="-3.231917"><ele>374</ele><time>2022-03-30T13:42:27Z</time><name>PT5247</name></trkpt>
<trkpt lat="54.477531" lon="-3.231949"><ele>376</ele><time>2022-03-30T13:42:30Z</time><name>PT5248</name></trkpt>
<trkpt lat="54.477532" lon="-3.231954"><ele>376</ele><time>2022-03-30T13:42:34Z</time><name>PT5249</name></trkpt>
<trkpt lat="54.477522" lon="-3.231959"><ele>374</ele><time>2022-03-30T13:42:38Z</time><name>PT5250</name></trkpt>
<trkpt lat="54.477513" lon="-3.231983"><ele>373</ele><time>2022-03-30T13:42:41Z</time><name>PT5251</name></trkpt>
<trkpt lat="54.477503" lon="-3.232002"><ele>371</ele><time>2022-03-30T13:42:45Z</time><name>PT5252</name></trkpt>
<trkpt lat="54.477500" lon="-3.232020"><ele>369</ele><time>2022-03-30T13:42:49Z</time><name>PT5253</name></trkpt>
<trkpt lat="54.477491" lon="-3.232041"><ele>369</ele><time>2022-03-30T13:42:52Z</time><name>PT5254</name></trkpt>
<trkpt lat="54.477487" lon="-3.232047"><ele>369</ele><time>2022-03-30T13:42:55Z</time><name>PT5255</name></trkpt>
<trkpt lat="54.477465" lon="-3.232076"><ele>367</ele><time>2022-03-30T13:42:59Z</time><name>PT5256</name></trkpt>
<trkpt lat="54.477460" lon="-3.232116"><ele>366</ele><time>2022-03-30T13:43:03Z</time><name>PT5257</name></trkpt>
<trkpt lat="54.477448" lon="-3.232141"><ele>365</ele><time>2022-03-30T13:43:06Z</time><name>PT5258</name></trkpt>
<trkpt lat="54.477438" lon="-3.232173"><ele>364</ele><time>2022-03-30T13:43:09Z</time><name>PT5259</name></trkpt>
<trkpt lat="54.477424" lon="-3.232207"><ele>362</ele><time>2022-03-30T13:43:13Z</time><name>PT5260</name></trkpt>
<trkpt lat="54.477416" lon="-3.232236"><ele>361</ele><time>2022-03-30T13:43:16Z</time><name>PT5261</name></trkpt>
<trkpt lat="54.477410" lon="-3.232274"><ele>359</ele><time>2022-03-30T13:43:20Z</time><name>PT5262</name></trkpt>
<trkpt lat="54.477404" lon="-3.232288"><ele>358</ele><time>2022-03-30T13:43:23Z</time><name>PT5263</name></trkpt>
<trkpt lat="54.477397" lon="-3.232315"><ele>357</ele><time>2022-03-30T13:43:26Z</time><name>PT5264</name></trkpt>
<trkpt lat="54.477376" lon="-3.232332"><ele>356</ele><time>2022-03-30T13:43:30Z</time><name>PT5265</name></trkpt>
<trkpt lat="54.477357" lon="-3.232357"><ele>355</ele><time>2022-03-30T13:43:33Z</time><name>PT5266</name></trkpt>
<trkpt lat="54.477325" lon="-3.232403"><ele>356</ele><time>2022-03-30T13:43:37Z</time><name>PT5267</name></trkpt>
<trkpt lat="54.477309" lon="-3.232428"><ele>355</ele><time>2022-03-30T13:43:40Z</time><name>PT5268</name></trkpt>
<trkpt lat="54.477298" lon="-3.232474"><ele>353</ele><time>2022-03-30T13:43:44Z</time><name>PT5269</name></trkpt>
<trkpt lat="54.477287" lon="-3.232487"><ele>352</ele><time>2022-03-30T13:43:47Z</time><name>PT5270</name></trkpt>
<trkpt lat="54.477272" lon="-3.232497"><ele>349</ele><time>2022-03-30T13:43:51Z</time><name>PT5271</name></trkpt>
<trkpt lat="54.477262" lon="-3.232519"><ele>348</ele><time>2022-03-30T13:43:54Z</time><name>PT5272</name></trkpt>
<trkpt lat="54.477256" lon="-3.232554"><ele>347</ele><time>2022-03-30T13:43:58Z</time><name>PT5273</name></trkpt>
<trkpt lat="54.477244" lon="-3.232606"><ele>349</ele><time>2022-03-30T13:44:02Z</time><name>PT5274</name></trkpt>
<trkpt lat="54.477242" lon="-3.232607"><ele>349</ele><time>2022-03-30T13:45:35Z</time><name>PT5275</name></trkpt>
<trkpt lat="54.477238" lon="-3.232617"><ele>349</ele><time>2022-03-30T13:45:36Z</time><name>PT5276</name></trkpt>
<trkpt lat="54.477239" lon="-3.232632"><ele>349</ele><time>2022-03-30T13:45:46Z</time><name>PT5277</name></trkpt>
<trkpt lat="54.477238" lon="-3.232640"><ele>348</ele><time>2022-03-30T13:45:47Z</time><name>PT5278</name></trkpt>
<trkpt lat="54.477228" lon="-3.232656"><ele>348</ele><time>2022-03-30T13:46:10Z</time><name>PT5279</name></trkpt>
<trkpt lat="54.477218" lon="-3.232680"><ele>348</ele><time>2022-03-30T13:46:11Z</time><name>PT5280</name></trkpt>
<trkpt lat="54.477210" lon="-3.232705"><ele>347</ele><time>2022-03-30T13:46:12Z</time><name>PT5281</name></trkpt>
<trkpt lat="54.477199" lon="-3.232722"><ele>347</ele><time>2022-03-30T13:46:13Z</time><name>PT5282</name></trkpt>
<trkpt lat="54.477188" lon="-3.232735"><ele>346</ele><time>2022-03-30T13:46:14Z</time><name>PT5283</name></trkpt>
<trkpt lat="54.477178" lon="-3.232750"><ele>346</ele><time>2022-03-30T13:46:15Z</time><name>PT5284</name></trkpt>
<trkpt lat="54.477169" lon="-3.232766"><ele>346</ele><time>2022-03-30T13:46:16Z</time><name>PT5285</name></trkpt>
<trkpt lat="54.477158" lon="-3.232780"><ele>345</ele><time>2022-03-30T13:46:17Z</time><name>PT5286</name></trkpt>
<trkpt lat="54.477150" lon="-3.232789"><ele>345</ele><time>2022-03-30T13:46:18Z</time><name>PT5287</name></trkpt>
<trkpt lat="54.477141" lon="-3.232799"><ele>344</ele><time>2022-03-30T13:46:19Z</time><name>PT5288</name></trkpt>
<trkpt lat="54.477134" lon="-3.232804"><ele>344</ele><time>2022-03-30T13:46:20Z</time><name>PT5289</name></trkpt>
<trkpt lat="54.477127" lon="-3.232809"><ele>343</ele><time>2022-03-30T13:46:21Z</time><name>PT5290</name></trkpt>
<trkpt lat="54.477118" lon="-3.232817"><ele>343</ele><time>2022-03-30T13:46:22Z</time><name>PT5291</name></trkpt>
<trkpt lat="54.477113" lon="-3.232824"><ele>343</ele><time>2022-03-30T13:46:23Z</time><name>PT5292</name></trkpt>
<trkpt lat="54.477104" lon="-3.232829"><ele>342</ele><time>2022-03-30T13:46:24Z</time><name>PT5293</name></trkpt>
<trkpt lat="54.477094" lon="-3.232834"><ele>342</ele><time>2022-03-30T13:46:25Z</time><name>PT5294</name></trkpt>
<trkpt lat="54.477084" lon="-3.232842"><ele>342</ele><time>2022-03-30T13:46:26Z</time><name>PT5295</name></trkpt>
<trkpt lat="54.477076" lon="-3.232848"><ele>341</ele><time>2022-03-30T13:46:27Z</time><name>PT5296</name></trkpt>
<trkpt lat="54.477068" lon="-3.232855"><ele>341</ele><time>2022-03-30T13:46:28Z</time><name>PT5297</name></trkpt>
<trkpt lat="54.477060" lon="-3.232862"><ele>340</ele><time>2022-03-30T13:46:29Z</time><name>PT5298</name></trkpt>
<trkpt lat="54.477052" lon="-3.232873"><ele>340</ele><time>2022-03-30T13:46:30Z</time><name>PT5299</name></trkpt>
<trkpt lat="54.477045" lon="-3.232883"><ele>340</ele><time>2022-03-30T13:46:31Z</time><name>PT5300</name></trkpt>
<trkpt lat="54.477042" lon="-3.232892"><ele>339</ele><time>2022-03-30T13:46:32Z</time><name>PT5301</name></trkpt>
<trkpt lat="54.477038" lon="-3.232903"><ele>339</ele><time>2022-03-30T13:46:33Z</time><name>PT5302</name></trkpt>
<trkpt lat="54.477033" lon="-3.232910"><ele>339</ele><time>2022-03-30T13:46:34Z</time><name>PT5303</name></trkpt>
<trkpt lat="54.477029" lon="-3.232916"><ele>338</ele><time>2022-03-30T13:46:35Z</time><name>PT5304</name></trkpt>
<trkpt lat="54.477025" lon="-3.232926"><ele>338</ele><time>2022-03-30T13:46:36Z</time><name>PT5305</name></trkpt>
<trkpt lat="54.477018" lon="-3.232934"><ele>338</ele><time>2022-03-30T13:46:37Z</time><name>PT5306</name></trkpt>
<trkpt lat="54.477011" lon="-3.232940"><ele>338</ele><time>2022-03-30T13:46:38Z</time><name>PT5307</name></trkpt>
<trkpt lat="54.476990" lon="-3.232949"><ele>337</ele><time>2022-03-30T13:46:41Z</time><name>PT5308</name></trkpt>
<trkpt lat="54.476976" lon="-3.232979"><ele>336</ele><time>2022-03-30T13:46:44Z</time><name>PT5309</name></trkpt>
<trkpt lat="54.476956" lon="-3.233016"><ele>335</ele><time>2022-03-30T13:46:48Z</time><name>PT5310</name></trkpt>
<trkpt lat="54.476939" lon="-3.233066"><ele>334</ele><time>2022-03-30T13:46:52Z</time><name>PT5311</name></trkpt>
<trkpt lat="54.476928" lon="-3.233107"><ele>334</ele><time>2022-03-30T13:46:55Z</time><name>PT5312</name></trkpt>
<trkpt lat="54.476904" lon="-3.233148"><ele>333</ele><time>2022-03-30T13:46:59Z</time><name>PT5313</name></trkpt>
<trkpt lat="54.476882" lon="-3.233178"><ele>332</ele><time>2022-03-30T13:47:03Z</time><name>PT5314</name></trkpt>
<trkpt lat="54.476861" lon="-3.233209"><ele>331</ele><time>2022-03-30T13:47:06Z</time><name>PT5315</name></trkpt>
<trkpt lat="54.476844" lon="-3.233239"><ele>330</ele><time>2022-03-30T13:47:09Z</time><name>PT5316</name></trkpt>
<trkpt lat="54.476832" lon="-3.233279"><ele>328</ele><time>2022-03-30T13:47:13Z</time><name>PT5317</name></trkpt>
<trkpt lat="54.476818" lon="-3.233312"><ele>327</ele><time>2022-03-30T13:47:16Z</time><name>PT5318</name></trkpt>
<trkpt lat="54.476804" lon="-3.233342"><ele>326</ele><time>2022-03-30T13:47:19Z</time><name>PT5319</name></trkpt>
<trkpt lat="54.476804" lon="-3.233387"><ele>324</ele><time>2022-03-30T13:47:23Z</time><name>PT5320</name></trkpt>
<trkpt lat="54.476795" lon="-3.233422"><ele>323</ele><time>2022-03-30T13:47:27Z</time><name>PT5321</name></trkpt>
<trkpt lat="54.476784" lon="-3.233455"><ele>323</ele><time>2022-03-30T13:47:30Z</time><name>PT5322</name></trkpt>
<trkpt lat="54.476772" lon="-3.233472"><ele>322</ele><time>2022-03-30T13:47:33Z</time><name>PT5323</name></trkpt>
<trkpt lat="54.476771" lon="-3.233478"><ele>322</ele><time>2022-03-30T13:47:37Z</time><name>PT5324</name></trkpt>
<trkpt lat="54.476749" lon="-3.233491"><ele>320</ele><time>2022-03-30T13:47:52Z</time><name>PT5325</name></trkpt>
<trkpt lat="54.476734" lon="-3.233536"><ele>318</ele><time>2022-03-30T13:47:56Z</time><name>PT5326</name></trkpt>
<trkpt lat="54.476722" lon="-3.233566"><ele>317</ele><time>2022-03-30T13:47:59Z</time><name>PT5327</name></trkpt>
<trkpt lat="54.476714" lon="-3.233586"><ele>317</ele><time>2022-03-30T13:48:03Z</time><name>PT5328</name></trkpt>
<trkpt lat="54.476677" lon="-3.233649"><ele>315</ele><time>2022-03-30T13:48:31Z</time><name>PT5329</name></trkpt>
<trkpt lat="54.476637" lon="-3.233695"><ele>313</ele><time>2022-03-30T13:48:35Z</time><name>PT5330</name></trkpt>
<trkpt lat="54.476621" lon="-3.233717"><ele>311</ele><time>2022-03-30T13:48:38Z</time><name>PT5331</name></trkpt>
<trkpt lat="54.476618" lon="-3.233718"><ele>311</ele><time>2022-03-30T13:48:41Z</time><name>PT5332</name></trkpt>
<trkpt lat="54.476620" lon="-3.233719"><ele>311</ele><time>2022-03-30T13:49:43Z</time><name>PT5333</name></trkpt>
<trkpt lat="54.476608" lon="-3.233732"><ele>310</ele><time>2022-03-30T13:49:47Z</time><name>PT5334</name></trkpt>
<trkpt lat="54.476581" lon="-3.233747"><ele>309</ele><time>2022-03-30T13:49:53Z</time><name>PT5335</name></trkpt>
<trkpt lat="54.476536" lon="-3.233782"><ele>307</ele><time>2022-03-30T13:49:57Z</time><name>PT5336</name></trkpt>
<trkpt lat="54.476505" lon="-3.233806"><ele>306</ele><time>2022-03-30T13:50:00Z</time><name>PT5337</name></trkpt>
<trkpt lat="54.476477" lon="-3.233808"><ele>305</ele><time>2022-03-30T13:50:03Z</time><name>PT5338</name></trkpt>
<trkpt lat="54.476448" lon="-3.233818"><ele>304</ele><time>2022-03-30T13:50:06Z</time><name>PT5339</name></trkpt>
<trkpt lat="54.476414" lon="-3.233828"><ele>303</ele><time>2022-03-30T13:50:10Z</time><name>PT5340</name></trkpt>
<trkpt lat="54.476393" lon="-3.233829"><ele>302</ele><time>2022-03-30T13:50:13Z</time><name>PT5341</name></trkpt>
<trkpt lat="54.476366" lon="-3.233839"><ele>301</ele><time>2022-03-30T13:50:17Z</time><name>PT5342</name></trkpt>
<trkpt lat="54.476353" lon="-3.233881"><ele>300</ele><time>2022-03-30T13:50:21Z</time><name>PT5343</name></trkpt>
<trkpt lat="54.476338" lon="-3.233899"><ele>297</ele><time>2022-03-30T13:50:25Z</time><name>PT5344</name></trkpt>
<trkpt lat="54.476312" lon="-3.233904"><ele>296</ele><time>2022-03-30T13:50:29Z</time><name>PT5345</name></trkpt>
<trkpt lat="54.476286" lon="-3.233905"><ele>295</ele><time>2022-03-30T13:50:33Z</time><name>PT5346</name></trkpt>
<trkpt lat="54.476272" lon="-3.233922"><ele>294</ele><time>2022-03-30T13:50:36Z</time><name>PT5347</name></trkpt>
<trkpt lat="54.476254" lon="-3.233954"><ele>292</ele><time>2022-03-30T13:50:40Z</time><name>PT5348</name></trkpt>
<trkpt lat="54.476254" lon="-3.233989"><ele>292</ele><time>2022-03-30T13:50:43Z</time><name>PT5349</name></trkpt>
<trkpt lat="54.476254" lon="-3.234029"><ele>291</ele><time>2022-03-30T13:50:46Z</time><name>PT5350</name></trkpt>
<trkpt lat="54.476242" lon="-3.234045"><ele>289</ele><time>2022-03-30T13:50:50Z</time><name>PT5351</name></trkpt>
<trkpt lat="54.476239" lon="-3.234048"><ele>289</ele><time>2022-03-30T13:50:54Z</time><name>PT5352</name></trkpt>
<trkpt lat="54.476230" lon="-3.234074"><ele>288</ele><time>2022-03-30T13:50:58Z</time><name>PT5353</name></trkpt>
<trkpt lat="54.476223" lon="-3.234086"><ele>286</ele><time>2022-03-30T13:51:01Z</time><name>PT5354</name></trkpt>
<trkpt lat="54.476214" lon="-3.234104"><ele>284</ele><time>2022-03-30T13:51:05Z</time><name>PT5355</name></trkpt>
<trkpt lat="54.476192" lon="-3.234122"><ele>283</ele><time>2022-03-30T13:51:08Z</time><name>PT5356</name></trkpt>
<trkpt lat="54.476170" lon="-3.234130"><ele>283</ele><time>2022-03-30T13:51:11Z</time><name>PT5357</name></trkpt>
<trkpt lat="54.476150" lon="-3.234124"><ele>282</ele><time>2022-03-30T13:51:15Z</time><name>PT5358</name></trkpt>
<trkpt lat="54.476134" lon="-3.234132"><ele>281</ele><time>2022-03-30T13:51:19Z</time><name>PT5359</name></trkpt>
<trkpt lat="54.476129" lon="-3.234134"><ele>279</ele><time>2022-03-30T13:51:26Z</time><name>PT5360</name></trkpt>
<trkpt lat="54.476119" lon="-3.234141"><ele>279</ele><time>2022-03-30T13:51:49Z</time><name>PT5361</name></trkpt>
<trkpt lat="54.476105" lon="-3.234136"><ele>278</ele><time>2022-03-30T13:51:56Z</time><name>PT5362</name></trkpt>
<trkpt lat="54.476084" lon="-3.234128"><ele>278</ele><time>2022-03-30T13:51:59Z</time><name>PT5363</name></trkpt>
<trkpt lat="54.476074" lon="-3.234099"><ele>278</ele><time>2022-03-30T13:52:02Z</time><name>PT5364</name></trkpt>
<trkpt lat="54.476071" lon="-3.234102"><ele>277</ele><time>2022-03-30T13:52:05Z</time><name>PT5365</name></trkpt>
<trkpt lat="54.476077" lon="-3.234119"><ele>277</ele><time>2022-03-30T13:52:19Z</time><name>PT5366</name></trkpt>
<trkpt lat="54.476094" lon="-3.234167"><ele>276</ele><time>2022-03-30T13:52:23Z</time><name>PT5367</name></trkpt>
<trkpt lat="54.476100" lon="-3.234178"><ele>276</ele><time>2022-03-30T13:52:27Z</time><name>PT5368</name></trkpt>
<trkpt lat="54.476097" lon="-3.234187"><ele>277</ele><time>2022-03-30T13:53:45Z</time><name>PT5369</name></trkpt>
<trkpt lat="54.476097" lon="-3.234195"><ele>276</ele><time>2022-03-30T13:53:46Z</time><name>PT5370</name></trkpt>
<trkpt lat="54.476094" lon="-3.234197"><ele>276</ele><time>2022-03-30T13:53:47Z</time><name>PT5371</name></trkpt>
<trkpt lat="54.476092" lon="-3.234198"><ele>277</ele><time>2022-03-30T13:53:48Z</time><name>PT5372</name></trkpt>
<trkpt lat="54.476091" lon="-3.234206"><ele>277</ele><time>2022-03-30T13:53:49Z</time><name>PT5373</name></trkpt>
<trkpt lat="54.476090" lon="-3.234211"><ele>276</ele><time>2022-03-30T13:53:50Z</time><name>PT5374</name></trkpt>
<trkpt lat="54.476085" lon="-3.234210"><ele>277</ele><time>2022-03-30T13:54:06Z</time><name>PT5375</name></trkpt>
<trkpt lat="54.476077" lon="-3.234212"><ele>277</ele><time>2022-03-30T13:54:07Z</time><name>PT5376</name></trkpt>
<trkpt lat="54.476070" lon="-3.234210"><ele>277</ele><time>2022-03-30T13:54:08Z</time><name>PT5377</name></trkpt>
<trkpt lat="54.476066" lon="-3.234209"><ele>277</ele><time>2022-03-30T13:54:09Z</time><name>PT5378</name></trkpt>
<trkpt lat="54.476063" lon="-3.234204"><ele>277</ele><time>2022-03-30T13:54:10Z</time><name>PT5379</name></trkpt>
<trkpt lat="54.476062" lon="-3.234202"><ele>277</ele><time>2022-03-30T13:54:11Z</time><name>PT5380</name></trkpt>
<trkpt lat="54.476058" lon="-3.234199"><ele>277</ele><time>2022-03-30T13:54:12Z</time><name>PT5381</name></trkpt>
<trkpt lat="54.476053" lon="-3.234201"><ele>277</ele><time>2022-03-30T13:54:13Z</time><name>PT5382</name></trkpt>
<trkpt lat="54.476049" lon="-3.234206"><ele>277</ele><time>2022-03-30T13:54:14Z</time><name>PT5383</name></trkpt>
<trkpt lat="54.476044" lon="-3.234212"><ele>277</ele><time>2022-03-30T13:54:15Z</time><name>PT5384</name></trkpt>
<trkpt lat="54.476042" lon="-3.234218"><ele>277</ele><time>2022-03-30T13:54:16Z</time><name>PT5385</name></trkpt>
<trkpt lat="54.476038" lon="-3.234225"><ele>277</ele><time>2022-03-30T13:54:17Z</time><name>PT5386</name></trkpt>
<trkpt lat="54.476033" lon="-3.234224"><ele>277</ele><time>2022-03-30T13:54:18Z</time><name>PT5387</name></trkpt>
<trkpt lat="54.476026" lon="-3.234227"><ele>277</ele><time>2022-03-30T13:54:19Z</time><name>PT5388</name></trkpt>
<trkpt lat="54.476021" lon="-3.234230"><ele>276</ele><time>2022-03-30T13:54:20Z</time><name>PT5389</name></trkpt>
<trkpt lat="54.476016" lon="-3.234235"><ele>276</ele><time>2022-03-30T13:54:21Z</time><name>PT5390</name></trkpt>
<trkpt lat="54.476013" lon="-3.234242"><ele>276</ele><time>2022-03-30T13:54:22Z</time><name>PT5391</name></trkpt>
<trkpt lat="54.476006" lon="-3.234244"><ele>276</ele><time>2022-03-30T13:54:23Z</time><name>PT5392</name></trkpt>
<trkpt lat="54.475993" lon="-3.234235"><ele>275</ele><time>2022-03-30T13:54:24Z</time><name>PT5393</name></trkpt>
<trkpt lat="54.475986" lon="-3.234239"><ele>275</ele><time>2022-03-30T13:54:25Z</time><name>PT5394</name></trkpt>
<trkpt lat="54.475980" lon="-3.234244"><ele>275</ele><time>2022-03-30T13:54:26Z</time><name>PT5395</name></trkpt>
<trkpt lat="54.475968" lon="-3.234244"><ele>275</ele><time>2022-03-30T13:54:27Z</time><name>PT5396</name></trkpt>
<trkpt lat="54.475958" lon="-3.234248"><ele>274</ele><time>2022-03-30T13:54:28Z</time><name>PT5397</name></trkpt>
<trkpt lat="54.475951" lon="-3.234257"><ele>274</ele><time>2022-03-30T13:54:29Z</time><name>PT5398</name></trkpt>
<trkpt lat="54.475944" lon="-3.234265"><ele>273</ele><time>2022-03-30T13:54:30Z</time><name>PT5399</name></trkpt>
<trkpt lat="54.475940" lon="-3.234275"><ele>273</ele><time>2022-03-30T13:54:31Z</time><name>PT5400</name></trkpt>
<trkpt lat="54.475940" lon="-3.234285"><ele>273</ele><time>2022-03-30T13:54:32Z</time><name>PT5401</name></trkpt>
<trkpt lat="54.475939" lon="-3.234293"><ele>272</ele><time>2022-03-30T13:54:33Z</time><name>PT5402</name></trkpt>
<trkpt lat="54.475930" lon="-3.234301"><ele>272</ele><time>2022-03-30T13:54:34Z</time><name>PT5403</name></trkpt>
<trkpt lat="54.475927" lon="-3.234319"><ele>273</ele><time>2022-03-30T13:54:35Z</time><name>PT5404</name></trkpt>
<trkpt lat="54.475920" lon="-3.234322"><ele>273</ele><time>2022-03-30T13:54:36Z</time><name>PT5405</name></trkpt>
<trkpt lat="54.475913" lon="-3.234320"><ele>273</ele><time>2022-03-30T13:54:37Z</time><name>PT5406</name></trkpt>
<trkpt lat="54.475906" lon="-3.234322"><ele>273</ele><time>2022-03-30T13:54:38Z</time><name>PT5407</name></trkpt>
<trkpt lat="54.475900" lon="-3.234323"><ele>273</ele><time>2022-03-30T13:54:39Z</time><name>PT5408</name></trkpt>
<trkpt lat="54.475893" lon="-3.234324"><ele>273</ele><time>2022-03-30T13:54:40Z</time><name>PT5409</name></trkpt>
<trkpt lat="54.475886" lon="-3.234322"><ele>273</ele><time>2022-03-30T13:54:41Z</time><name>PT5410</name></trkpt>
<trkpt lat="54.475867" lon="-3.234342"><ele>274</ele><time>2022-03-30T13:54:42Z</time><name>PT5411</name></trkpt>
<trkpt lat="54.475859" lon="-3.234343"><ele>274</ele><time>2022-03-30T13:54:43Z</time><name>PT5412</name></trkpt>
<trkpt lat="54.475853" lon="-3.234343"><ele>274</ele><time>2022-03-30T13:54:44Z</time><name>PT5413</name></trkpt>
<trkpt lat="54.475844" lon="-3.234344"><ele>274</ele><time>2022-03-30T13:54:45Z</time><name>PT5414</name></trkpt>
<trkpt lat="54.475837" lon="-3.234348"><ele>273</ele><time>2022-03-30T13:54:46Z</time><name>PT5415</name></trkpt>
<trkpt lat="54.475834" lon="-3.234345"><ele>273</ele><time>2022-03-30T13:54:47Z</time><name>PT5416</name></trkpt>
<trkpt lat="54.475826" lon="-3.234341"><ele>272</ele><time>2022-03-30T13:54:48Z</time><name>PT5417</name></trkpt>
<trkpt lat="54.475819" lon="-3.234341"><ele>272</ele><time>2022-03-30T13:54:49Z</time><name>PT5418</name></trkpt>
<trkpt lat="54.475813" lon="-3.234341"><ele>271</ele><time>2022-03-30T13:54:50Z</time><name>PT5419</name></trkpt>
<trkpt lat="54.475808" lon="-3.234349"><ele>271</ele><time>2022-03-30T13:54:51Z</time><name>PT5420</name></trkpt>
<trkpt lat="54.475803" lon="-3.234360"><ele>270</ele><time>2022-03-30T13:54:52Z</time><name>PT5421</name></trkpt>
<trkpt lat="54.475798" lon="-3.234364"><ele>269</ele><time>2022-03-30T13:54:53Z</time><name>PT5422</name></trkpt>
<trkpt lat="54.475791" lon="-3.234370"><ele>269</ele><time>2022-03-30T13:54:54Z</time><name>PT5423</name></trkpt>
<trkpt lat="54.475785" lon="-3.234374"><ele>269</ele><time>2022-03-30T13:54:55Z</time><name>PT5424</name></trkpt>
<trkpt lat="54.475777" lon="-3.234381"><ele>269</ele><time>2022-03-30T13:54:56Z</time><name>PT5425</name></trkpt>
<trkpt lat="54.475771" lon="-3.234388"><ele>269</ele><time>2022-03-30T13:54:57Z</time><name>PT5426</name></trkpt>
<trkpt lat="54.475766" lon="-3.234389"><ele>268</ele><time>2022-03-30T13:54:58Z</time><name>PT5427</name></trkpt>
<trkpt lat="54.475759" lon="-3.234390"><ele>267</ele><time>2022-03-30T13:54:59Z</time><name>PT5428</name></trkpt>
<trkpt lat="54.475753" lon="-3.234392"><ele>267</ele><time>2022-03-30T13:55:00Z</time><name>PT5429</name></trkpt>
<trkpt lat="54.475748" lon="-3.234393"><ele>267</ele><time>2022-03-30T13:55:01Z</time><name>PT5430</name></trkpt>
<trkpt lat="54.475741" lon="-3.234395"><ele>266</ele><time>2022-03-30T13:55:02Z</time><name>PT5431</name></trkpt>
<trkpt lat="54.475735" lon="-3.234398"><ele>266</ele><time>2022-03-30T13:55:03Z</time><name>PT5432</name></trkpt>
<trkpt lat="54.475726" lon="-3.234403"><ele>266</ele><time>2022-03-30T13:55:04Z</time><name>PT5433</name></trkpt>
<trkpt lat="54.475719" lon="-3.234403"><ele>266</ele><time>2022-03-30T13:55:05Z</time><name>PT5434</name></trkpt>
<trkpt lat="54.475711" lon="-3.234405"><ele>266</ele><time>2022-03-30T13:55:06Z</time><name>PT5435</name></trkpt>
<trkpt lat="54.475704" lon="-3.234409"><ele>266</ele><time>2022-03-30T13:55:07Z</time><name>PT5436</name></trkpt>
<trkpt lat="54.475698" lon="-3.234415"><ele>265</ele><time>2022-03-30T13:55:08Z</time><name>PT5437</name></trkpt>
<trkpt lat="54.475691" lon="-3.234421"><ele>265</ele><time>2022-03-30T13:55:09Z</time><name>PT5438</name></trkpt>
<trkpt lat="54.475685" lon="-3.234428"><ele>265</ele><time>2022-03-30T13:55:10Z</time><name>PT5439</name></trkpt>
<trkpt lat="54.475677" lon="-3.234430"><ele>264</ele><time>2022-03-30T13:55:11Z</time><name>PT5440</name></trkpt>
<trkpt lat="54.475668" lon="-3.234432"><ele>264</ele><time>2022-03-30T13:55:12Z</time><name>PT5441</name></trkpt>
<trkpt lat="54.475659" lon="-3.234434"><ele>264</ele><time>2022-03-30T13:55:13Z</time><name>PT5442</name></trkpt>
<trkpt lat="54.475648" lon="-3.234433"><ele>264</ele><time>2022-03-30T13:55:14Z</time><name>PT5443</name></trkpt>
<trkpt lat="54.475659" lon="-3.234400"><ele>262</ele><time>2022-03-30T13:55:15Z</time><name>PT5444</name></trkpt>
<trkpt lat="54.475652" lon="-3.234393"><ele>261</ele><time>2022-03-30T13:55:16Z</time><name>PT5445</name></trkpt>
<trkpt lat="54.475646" lon="-3.234382"><ele>261</ele><time>2022-03-30T13:55:17Z</time><name>PT5446</name></trkpt>
<trkpt lat="54.475638" lon="-3.234373"><ele>260</ele><time>2022-03-30T13:55:18Z</time><name>PT5447</name></trkpt>
<trkpt lat="54.475629" lon="-3.234363"><ele>260</ele><time>2022-03-30T13:55:19Z</time><name>PT5448</name></trkpt>
<trkpt lat="54.475592" lon="-3.234342"><ele>260</ele><time>2022-03-30T13:55:22Z</time><name>PT5449</name></trkpt>
<trkpt lat="54.475554" lon="-3.234358"><ele>259</ele><time>2022-03-30T13:55:26Z</time><name>PT5450</name></trkpt>
<trkpt lat="54.475527" lon="-3.234395"><ele>259</ele><time>2022-03-30T13:55:30Z</time><name>PT5451</name></trkpt>
<trkpt lat="54.475506" lon="-3.234425"><ele>258</ele><time>2022-03-30T13:55:33Z</time><name>PT5452</name></trkpt>
<trkpt lat="54.475477" lon="-3.234451"><ele>258</ele><time>2022-03-30T13:55:37Z</time><name>PT5453</name></trkpt>
<trkpt lat="54.475461" lon="-3.234439"><ele>257</ele><time>2022-03-30T13:55:40Z</time><name>PT5454</name></trkpt>
<trkpt lat="54.475438" lon="-3.234448"><ele>256</ele><time>2022-03-30T13:55:44Z</time><name>PT5455</name></trkpt>
<trkpt lat="54.475441" lon="-3.234484"><ele>255</ele><time>2022-03-30T13:55:48Z</time><name>PT5456</name></trkpt>
<trkpt lat="54.475431" lon="-3.234511"><ele>255</ele><time>2022-03-30T13:55:51Z</time><name>PT5457</name></trkpt>
<trkpt lat="54.475427" lon="-3.234539"><ele>254</ele><time>2022-03-30T13:55:55Z</time><name>PT5458</name></trkpt>
<trkpt lat="54.475437" lon="-3.234582"><ele>252</ele><time>2022-03-30T13:55:59Z</time><name>PT5459</name></trkpt>
<trkpt lat="54.475423" lon="-3.234602"><ele>251</ele><time>2022-03-30T13:56:02Z</time><name>PT5460</name></trkpt>
<trkpt lat="54.475424" lon="-3.234632"><ele>249</ele><time>2022-03-30T13:56:06Z</time><name>PT5461</name></trkpt>
<trkpt lat="54.475414" lon="-3.234655"><ele>249</ele><time>2022-03-30T13:56:09Z</time><name>PT5462</name></trkpt>
<trkpt lat="54.475387" lon="-3.234666"><ele>248</ele><time>2022-03-30T13:56:13Z</time><name>PT5463</name></trkpt>
<trkpt lat="54.475371" lon="-3.234708"><ele>248</ele><time>2022-03-30T13:56:17Z</time><name>PT5464</name></trkpt>
<trkpt lat="54.475355" lon="-3.234725"><ele>247</ele><time>2022-03-30T13:56:20Z</time><name>PT5465</name></trkpt>
<trkpt lat="54.475337" lon="-3.234742"><ele>246</ele><time>2022-03-30T13:56:24Z</time><name>PT5466</name></trkpt>
<trkpt lat="54.475333" lon="-3.234747"><ele>245</ele><time>2022-03-30T13:56:27Z</time><name>PT5467</name></trkpt>
<trkpt lat="54.475303" lon="-3.234788"><ele>244</ele><time>2022-03-30T13:56:39Z</time><name>PT5468</name></trkpt>
<trkpt lat="54.475283" lon="-3.234811"><ele>243</ele><time>2022-03-30T13:56:43Z</time><name>PT5469</name></trkpt>
<trkpt lat="54.475259" lon="-3.234829"><ele>242</ele><time>2022-03-30T13:56:46Z</time><name>PT5470</name></trkpt>
<trkpt lat="54.475247" lon="-3.234862"><ele>240</ele><time>2022-03-30T13:56:49Z</time><name>PT5471</name></trkpt>
<trkpt lat="54.475235" lon="-3.234893"><ele>239</ele><time>2022-03-30T13:56:53Z</time><name>PT5472</name></trkpt>
<trkpt lat="54.475223" lon="-3.234932"><ele>238</ele><time>2022-03-30T13:56:57Z</time><name>PT5473</name></trkpt>
<trkpt lat="54.475215" lon="-3.234951"><ele>237</ele><time>2022-03-30T13:57:00Z</time><name>PT5474</name></trkpt>
<trkpt lat="54.475199" lon="-3.234967"><ele>237</ele><time>2022-03-30T13:57:04Z</time><name>PT5475</name></trkpt>
<trkpt lat="54.475161" lon="-3.234986"><ele>236</ele><time>2022-03-30T13:57:15Z</time><name>PT5476</name></trkpt>
<trkpt lat="54.475103" lon="-3.235050"><ele>235</ele><time>2022-03-30T13:57:50Z</time><name>PT5477</name></trkpt>
<trkpt lat="54.475051" lon="-3.235107"><ele>232</ele><time>2022-03-30T13:57:54Z</time><name>PT5478</name></trkpt>
<trkpt lat="54.475024" lon="-3.235138"><ele>230</ele><time>2022-03-30T13:57:57Z</time><name>PT5479</name></trkpt>
<trkpt lat="54.474982" lon="-3.235174"><ele>229</ele><time>2022-03-30T13:58:01Z</time><name>PT5480</name></trkpt>
<trkpt lat="54.474965" lon="-3.235191"><ele>226</ele><time>2022-03-30T13:58:05Z</time><name>PT5481</name></trkpt>
<trkpt lat="54.474949" lon="-3.235205"><ele>224</ele><time>2022-03-30T13:58:08Z</time><name>PT5482</name></trkpt>
<trkpt lat="54.474923" lon="-3.235222"><ele>224</ele><time>2022-03-30T13:58:12Z</time><name>PT5483</name></trkpt>
<trkpt lat="54.474900" lon="-3.235232"><ele>223</ele><time>2022-03-30T13:58:15Z</time><name>PT5484</name></trkpt>
<trkpt lat="54.474865" lon="-3.235265"><ele>222</ele><time>2022-03-30T13:58:19Z</time><name>PT5485</name></trkpt>
<trkpt lat="54.474838" lon="-3.235279"><ele>222</ele><time>2022-03-30T13:58:22Z</time><name>PT5486</name></trkpt>
<trkpt lat="54.474805" lon="-3.235294"><ele>223</ele><time>2022-03-30T13:58:26Z</time><name>PT5487</name></trkpt>
<trkpt lat="54.474775" lon="-3.235309"><ele>222</ele><time>2022-03-30T13:58:30Z</time><name>PT5488</name></trkpt>
<trkpt lat="54.474757" lon="-3.235329"><ele>222</ele><time>2022-03-30T13:58:33Z</time><name>PT5489</name></trkpt>
<trkpt lat="54.474739" lon="-3.235346"><ele>221</ele><time>2022-03-30T13:58:36Z</time><name>PT5490</name></trkpt>
<trkpt lat="54.474715" lon="-3.235358"><ele>222</ele><time>2022-03-30T13:58:39Z</time><name>PT5491</name></trkpt>
<trkpt lat="54.474692" lon="-3.235370"><ele>221</ele><time>2022-03-30T13:58:42Z</time><name>PT5492</name></trkpt>
<trkpt lat="54.474667" lon="-3.235389"><ele>221</ele><time>2022-03-30T13:58:46Z</time><name>PT5493</name></trkpt>
<trkpt lat="54.474646" lon="-3.235392"><ele>221</ele><time>2022-03-30T13:58:49Z</time><name>PT5494</name></trkpt>
<trkpt lat="54.474617" lon="-3.235411"><ele>221</ele><time>2022-03-30T13:58:53Z</time><name>PT5495</name></trkpt>
<trkpt lat="54.474595" lon="-3.235412"><ele>220</ele><time>2022-03-30T13:58:57Z</time><name>PT5496</name></trkpt>
<trkpt lat="54.474574" lon="-3.235414"><ele>219</ele><time>2022-03-30T13:59:00Z</time><name>PT5497</name></trkpt>
<trkpt lat="54.474550" lon="-3.235424"><ele>218</ele><time>2022-03-30T13:59:03Z</time><name>PT5498</name></trkpt>
<trkpt lat="54.474530" lon="-3.235445"><ele>217</ele><time>2022-03-30T13:59:06Z</time><name>PT5499</name></trkpt>
<trkpt lat="54.474517" lon="-3.235457"><ele>214</ele><time>2022-03-30T13:59:10Z</time><name>PT5500</name></trkpt>
<trkpt lat="54.474505" lon="-3.235481"><ele>213</ele><time>2022-03-30T13:59:13Z</time><name>PT5501</name></trkpt>
<trkpt lat="54.474491" lon="-3.235515"><ele>212</ele><time>2022-03-30T13:59:17Z</time><name>PT5502</name></trkpt>
<trkpt lat="54.474482" lon="-3.235533"><ele>211</ele><time>2022-03-30T13:59:20Z</time><name>PT5503</name></trkpt>
<trkpt lat="54.474471" lon="-3.235544"><ele>210</ele><time>2022-03-30T13:59:24Z</time><name>PT5504</name></trkpt>
<trkpt lat="54.474465" lon="-3.235544"><ele>209</ele><time>2022-03-30T13:59:28Z</time><name>PT5505</name></trkpt>
<trkpt lat="54.474443" lon="-3.235581"><ele>209</ele><time>2022-03-30T13:59:31Z</time><name>PT5506</name></trkpt>
<trkpt lat="54.474435" lon="-3.235612"><ele>208</ele><time>2022-03-30T13:59:34Z</time><name>PT5507</name></trkpt>
<trkpt lat="54.474437" lon="-3.235645"><ele>207</ele><time>2022-03-30T13:59:37Z</time><name>PT5508</name></trkpt>
<trkpt lat="54.474421" lon="-3.235680"><ele>206</ele><time>2022-03-30T13:59:41Z</time><name>PT5509</name></trkpt>
<trkpt lat="54.474413" lon="-3.235706"><ele>205</ele><time>2022-03-30T13:59:44Z</time><name>PT5510</name></trkpt>
<trkpt lat="54.474397" lon="-3.235731"><ele>204</ele><time>2022-03-30T13:59:48Z</time><name>PT5511</name></trkpt>
<trkpt lat="54.474390" lon="-3.235747"><ele>203</ele><time>2022-03-30T13:59:52Z</time><name>PT5512</name></trkpt>
<trkpt lat="54.474389" lon="-3.235759"><ele>203</ele><time>2022-03-30T13:59:55Z</time><name>PT5513</name></trkpt>
<trkpt lat="54.474379" lon="-3.235780"><ele>205</ele><time>2022-03-30T13:59:58Z</time><name>PT5514</name></trkpt>
<trkpt lat="54.474367" lon="-3.235775"><ele>204</ele><time>2022-03-30T14:00:02Z</time><name>PT5515</name></trkpt>
<trkpt lat="54.474354" lon="-3.235781"><ele>203</ele><time>2022-03-30T14:00:05Z</time><name>PT5516</name></trkpt>
<trkpt lat="54.474334" lon="-3.235774"><ele>203</ele><time>2022-03-30T14:00:08Z</time><name>PT5517</name></trkpt>
<trkpt lat="54.474302" lon="-3.235767"><ele>202</ele><time>2022-03-30T14:00:12Z</time><name>PT5518</name></trkpt>
<trkpt lat="54.474277" lon="-3.235756"><ele>202</ele><time>2022-03-30T14:00:15Z</time><name>PT5519</name></trkpt>
<trkpt lat="54.474249" lon="-3.235766"><ele>201</ele><time>2022-03-30T14:00:19Z</time><name>PT5520</name></trkpt>
<trkpt lat="54.474238" lon="-3.235779"><ele>201</ele><time>2022-03-30T14:00:22Z</time><name>PT5521</name></trkpt>
<trkpt lat="54.474221" lon="-3.235802"><ele>200</ele><time>2022-03-30T14:00:26Z</time><name>PT5522</name></trkpt>
<trkpt lat="54.474204" lon="-3.235818"><ele>199</ele><time>2022-03-30T14:00:29Z</time><name>PT5523</name></trkpt>
<trkpt lat="54.474188" lon="-3.235837"><ele>200</ele><time>2022-03-30T14:00:32Z</time><name>PT5524</name></trkpt>
<trkpt lat="54.474181" lon="-3.235822"><ele>198</ele><time>2022-03-30T14:00:35Z</time><name>PT5525</name></trkpt>
<trkpt lat="54.474170" lon="-3.235831"><ele>198</ele><time>2022-03-30T14:00:38Z</time><name>PT5526</name></trkpt>
<trkpt lat="54.474153" lon="-3.235830"><ele>196</ele><time>2022-03-30T14:00:42Z</time><name>PT5527</name></trkpt>
<trkpt lat="54.474141" lon="-3.235856"><ele>196</ele><time>2022-03-30T14:00:45Z</time><name>PT5528</name></trkpt>
<trkpt lat="54.474120" lon="-3.235854"><ele>196</ele><time>2022-03-30T14:00:48Z</time><name>PT5529</name></trkpt>
<trkpt lat="54.474098" lon="-3.235874"><ele>195</ele><time>2022-03-30T14:00:52Z</time><name>PT5530</name></trkpt>
<trkpt lat="54.474077" lon="-3.235884"><ele>195</ele><time>2022-03-30T14:00:56Z</time><name>PT5531</name></trkpt>
<trkpt lat="54.474059" lon="-3.235897"><ele>194</ele><time>2022-03-30T14:00:59Z</time><name>PT5532</name></trkpt>
<trkpt lat="54.474032" lon="-3.235905"><ele>193</ele><time>2022-03-30T14:01:03Z</time><name>PT5533</name></trkpt>
<trkpt lat="54.474012" lon="-3.235893"><ele>193</ele><time>2022-03-30T14:01:06Z</time><name>PT5534</name></trkpt>
<trkpt lat="54.473990" lon="-3.235889"><ele>192</ele><time>2022-03-30T14:01:09Z</time><name>PT5535</name></trkpt>
<trkpt lat="54.473968" lon="-3.235891"><ele>191</ele><time>2022-03-30T14:01:12Z</time><name>PT5536</name></trkpt>
<trkpt lat="54.473940" lon="-3.235898"><ele>190</ele><time>2022-03-30T14:01:16Z</time><name>PT5537</name></trkpt>
<trkpt lat="54.473911" lon="-3.235908"><ele>189</ele><time>2022-03-30T14:01:20Z</time><name>PT5538</name></trkpt>
<trkpt lat="54.473892" lon="-3.235920"><ele>188</ele><time>2022-03-30T14:01:23Z</time><name>PT5539</name></trkpt>
<trkpt lat="54.473874" lon="-3.235935"><ele>188</ele><time>2022-03-30T14:01:26Z</time><name>PT5540</name></trkpt>
<trkpt lat="54.473848" lon="-3.235942"><ele>186</ele><time>2022-03-30T14:01:30Z</time><name>PT5541</name></trkpt>
<trkpt lat="54.473825" lon="-3.235954"><ele>186</ele><time>2022-03-30T14:01:33Z</time><name>PT5542</name></trkpt>
<trkpt lat="54.473803" lon="-3.235968"><ele>186</ele><time>2022-03-30T14:01:36Z</time><name>PT5543</name></trkpt>
<trkpt lat="54.473772" lon="-3.235995"><ele>185</ele><time>2022-03-30T14:01:40Z</time><name>PT5544</name></trkpt>
<trkpt lat="54.473754" lon="-3.236018"><ele>185</ele><time>2022-03-30T14:01:43Z</time><name>PT5545</name></trkpt>
<trkpt lat="54.473730" lon="-3.236044"><ele>185</ele><time>2022-03-30T14:01:46Z</time><name>PT5546</name></trkpt>
<trkpt lat="54.473698" lon="-3.236062"><ele>184</ele><time>2022-03-30T14:01:50Z</time><name>PT5547</name></trkpt>
<trkpt lat="54.473673" lon="-3.236093"><ele>183</ele><time>2022-03-30T14:01:54Z</time><name>PT5548</name></trkpt>
<trkpt lat="54.473649" lon="-3.236122"><ele>182</ele><time>2022-03-30T14:01:57Z</time><name>PT5549</name></trkpt>
<trkpt lat="54.473628" lon="-3.236163"><ele>181</ele><time>2022-03-30T14:02:01Z</time><name>PT5550</name></trkpt>
<trkpt lat="54.473613" lon="-3.236184"><ele>180</ele><time>2022-03-30T14:02:04Z</time><name>PT5551</name></trkpt>
<trkpt lat="54.473590" lon="-3.236192"><ele>179</ele><time>2022-03-30T14:02:08Z</time><name>PT5552</name></trkpt>
<trkpt lat="54.473573" lon="-3.236203"><ele>179</ele><time>2022-03-30T14:02:11Z</time><name>PT5553</name></trkpt>
<trkpt lat="54.473562" lon="-3.236216"><ele>178</ele><time>2022-03-30T14:02:14Z</time><name>PT5554</name></trkpt>
<trkpt lat="54.473538" lon="-3.236232"><ele>178</ele><time>2022-03-30T14:02:18Z</time><name>PT5555</name></trkpt>
<trkpt lat="54.473518" lon="-3.236234"><ele>177</ele><time>2022-03-30T14:02:21Z</time><name>PT5556</name></trkpt>
<trkpt lat="54.473510" lon="-3.236241"><ele>177</ele><time>2022-03-30T14:02:25Z</time><name>PT5557</name></trkpt>
<trkpt lat="54.473496" lon="-3.236260"><ele>176</ele><time>2022-03-30T14:02:32Z</time><name>PT5558</name></trkpt>
<trkpt lat="54.473462" lon="-3.236271"><ele>175</ele><time>2022-03-30T14:02:36Z</time><name>PT5559</name></trkpt>
<trkpt lat="54.473426" lon="-3.236289"><ele>175</ele><time>2022-03-30T14:02:40Z</time><name>PT5560</name></trkpt>
<trkpt lat="54.473400" lon="-3.236294"><ele>174</ele><time>2022-03-30T14:02:43Z</time><name>PT5561</name></trkpt>
<trkpt lat="54.473365" lon="-3.236295"><ele>173</ele><time>2022-03-30T14:02:47Z</time><name>PT5562</name></trkpt>
<trkpt lat="54.473340" lon="-3.236303"><ele>172</ele><time>2022-03-30T14:02:50Z</time><name>PT5563</name></trkpt>
<trkpt lat="54.473317" lon="-3.236316"><ele>172</ele><time>2022-03-30T14:02:53Z</time><name>PT5564</name></trkpt>
<trkpt lat="54.473283" lon="-3.236325"><ele>171</ele><time>2022-03-30T14:02:57Z</time><name>PT5565</name></trkpt>
<trkpt lat="54.473261" lon="-3.236325"><ele>171</ele><time>2022-03-30T14:03:00Z</time><name>PT5566</name></trkpt>
<trkpt lat="54.473236" lon="-3.236334"><ele>170</ele><time>2022-03-30T14:03:04Z</time><name>PT5567</name></trkpt>
<trkpt lat="54.473218" lon="-3.236333"><ele>169</ele><time>2022-03-30T14:03:07Z</time><name>PT5568</name></trkpt>
<trkpt lat="54.473194" lon="-3.236329"><ele>168</ele><time>2022-03-30T14:03:11Z</time><name>PT5569</name></trkpt>
<trkpt lat="54.473174" lon="-3.236334"><ele>167</ele><time>2022-03-30T14:03:14Z</time><name>PT5570</name></trkpt>
<trkpt lat="54.473157" lon="-3.236338"><ele>167</ele><time>2022-03-30T14:03:17Z</time><name>PT5571</name></trkpt>
<trkpt lat="54.473140" lon="-3.236331"><ele>166</ele><time>2022-03-30T14:03:20Z</time><name>PT5572</name></trkpt>
<trkpt lat="54.473114" lon="-3.236326"><ele>165</ele><time>2022-03-30T14:03:24Z</time><name>PT5573</name></trkpt>
<trkpt lat="54.473092" lon="-3.236332"><ele>164</ele><time>2022-03-30T14:03:28Z</time><name>PT5574</name></trkpt>
<trkpt lat="54.473074" lon="-3.236351"><ele>162</ele><time>2022-03-30T14:03:32Z</time><name>PT5575</name></trkpt>
<trkpt lat="54.473058" lon="-3.236362"><ele>162</ele><time>2022-03-30T14:03:35Z</time><name>PT5576</name></trkpt>
<trkpt lat="54.473036" lon="-3.236375"><ele>162</ele><time>2022-03-30T14:03:38Z</time><name>PT5577</name></trkpt>
<trkpt lat="54.473008" lon="-3.236371"><ele>161</ele><time>2022-03-30T14:03:41Z</time><name>PT5578</name></trkpt>
<trkpt lat="54.472991" lon="-3.236382"><ele>160</ele><time>2022-03-30T14:03:45Z</time><name>PT5579</name></trkpt>
<trkpt lat="54.472976" lon="-3.236419"><ele>159</ele><time>2022-03-30T14:03:49Z</time><name>PT5580</name></trkpt>
<trkpt lat="54.472956" lon="-3.236429"><ele>157</ele><time>2022-03-30T14:03:52Z</time><name>PT5581</name></trkpt>
<trkpt lat="54.472929" lon="-3.236438"><ele>157</ele><time>2022-03-30T14:03:56Z</time><name>PT5582</name></trkpt>
<trkpt lat="54.472920" lon="-3.236435"><ele>157</ele><time>2022-03-30T14:04:00Z</time><name>PT5583</name></trkpt>
<trkpt lat="54.472915" lon="-3.236437"><ele>157</ele><time>2022-03-30T14:04:18Z</time><name>PT5584</name></trkpt>
<trkpt lat="54.472889" lon="-3.236442"><ele>156</ele><time>2022-03-30T14:04:21Z</time><name>PT5585</name></trkpt>
<trkpt lat="54.472863" lon="-3.236473"><ele>156</ele><time>2022-03-30T14:04:25Z</time><name>PT5586</name></trkpt>
<trkpt lat="54.472840" lon="-3.236503"><ele>155</ele><time>2022-03-30T14:04:29Z</time><name>PT5587</name></trkpt>
<trkpt lat="54.472820" lon="-3.236515"><ele>154</ele><time>2022-03-30T14:04:32Z</time><name>PT5588</name></trkpt>
<trkpt lat="54.472794" lon="-3.236519"><ele>154</ele><time>2022-03-30T14:04:34Z</time><name>PT5589</name></trkpt>
<trkpt lat="54.472785" lon="-3.236518"><ele>154</ele><time>2022-03-30T14:04:35Z</time><name>PT5590</name></trkpt>
<trkpt lat="54.472779" lon="-3.236516"><ele>154</ele><time>2022-03-30T14:04:36Z</time><name>PT5591</name></trkpt>
<trkpt lat="54.472770" lon="-3.236513"><ele>153</ele><time>2022-03-30T14:04:37Z</time><name>PT5592</name></trkpt>
<trkpt lat="54.472764" lon="-3.236517"><ele>153</ele><time>2022-03-30T14:04:38Z</time><name>PT5593</name></trkpt>
<trkpt lat="54.472756" lon="-3.236519"><ele>153</ele><time>2022-03-30T14:04:39Z</time><name>PT5594</name></trkpt>
<trkpt lat="54.472746" lon="-3.236521"><ele>153</ele><time>2022-03-30T14:04:40Z</time><name>PT5595</name></trkpt>
<trkpt lat="54.472736" lon="-3.236520"><ele>153</ele><time>2022-03-30T14:04:41Z</time><name>PT5596</name></trkpt>
<trkpt lat="54.472728" lon="-3.236516"><ele>152</ele><time>2022-03-30T14:04:42Z</time><name>PT5597</name></trkpt>
<trkpt lat="54.472721" lon="-3.236513"><ele>152</ele><time>2022-03-30T14:04:43Z</time><name>PT5598</name></trkpt>
<trkpt lat="54.472713" lon="-3.236513"><ele>152</ele><time>2022-03-30T14:04:44Z</time><name>PT5599</name></trkpt>
<trkpt lat="54.472702" lon="-3.236512"><ele>151</ele><time>2022-03-30T14:04:45Z</time><name>PT5600</name></trkpt>
<trkpt lat="54.472693" lon="-3.236516"><ele>151</ele><time>2022-03-30T14:04:46Z</time><name>PT5601</name></trkpt>
<trkpt lat="54.472683" lon="-3.236524"><ele>151</ele><time>2022-03-30T14:04:47Z</time><name>PT5602</name></trkpt>
<trkpt lat="54.472676" lon="-3.236535"><ele>151</ele><time>2022-03-30T14:04:48Z</time><name>PT5603</name></trkpt>
<trkpt lat="54.472668" lon="-3.236548"><ele>151</ele><time>2022-03-30T14:04:49Z</time><name>PT5604</name></trkpt>
<trkpt lat="54.472661" lon="-3.236558"><ele>150</ele><time>2022-03-30T14:04:50Z</time><name>PT5605</name></trkpt>
<trkpt lat="54.472652" lon="-3.236562"><ele>150</ele><time>2022-03-30T14:04:51Z</time><name>PT5606</name></trkpt>
<trkpt lat="54.472645" lon="-3.236568"><ele>150</ele><time>2022-03-30T14:04:52Z</time><name>PT5607</name></trkpt>
<trkpt lat="54.472636" lon="-3.236576"><ele>150</ele><time>2022-03-30T14:04:53Z</time><name>PT5608</name></trkpt>
<trkpt lat="54.472627" lon="-3.236590"><ele>150</ele><time>2022-03-30T14:04:54Z</time><name>PT5609</name></trkpt>
<trkpt lat="54.472621" lon="-3.236601"><ele>150</ele><time>2022-03-30T14:04:55Z</time><name>PT5610</name></trkpt>
<trkpt lat="54.472614" lon="-3.236611"><ele>149</ele><time>2022-03-30T14:04:56Z</time><name>PT5611</name></trkpt>
<trkpt lat="54.472606" lon="-3.236617"><ele>149</ele><time>2022-03-30T14:04:57Z</time><name>PT5612</name></trkpt>
<trkpt lat="54.472601" lon="-3.236617"><ele>149</ele><time>2022-03-30T14:04:58Z</time><name>PT5613</name></trkpt>
<trkpt lat="54.472598" lon="-3.236620"><ele>149</ele><time>2022-03-30T14:04:59Z</time><name>PT5614</name></trkpt>
<trkpt lat="54.472597" lon="-3.236619"><ele>149</ele><time>2022-03-30T14:05:00Z</time><name>PT5615</name></trkpt>
<trkpt lat="54.472597" lon="-3.236621"><ele>149</ele><time>2022-03-30T14:05:01Z</time><name>PT5616</name></trkpt>
<trkpt lat="54.472598" lon="-3.236608"><ele>149</ele><time>2022-03-30T14:05:10Z</time><name>PT5617</name></trkpt>
<trkpt lat="54.472595" lon="-3.236603"><ele>149</ele><time>2022-03-30T14:05:11Z</time><name>PT5618</name></trkpt>
<trkpt lat="54.472592" lon="-3.236604"><ele>149</ele><time>2022-03-30T14:05:12Z</time><name>PT5619</name></trkpt>
<trkpt lat="54.472594" lon="-3.236604"><ele>149</ele><time>2022-03-30T14:05:13Z</time><name>PT5620</name></trkpt>
<trkpt lat="54.472589" lon="-3.236600"><ele>149</ele><time>2022-03-30T14:05:16Z</time><name>PT5621</name></trkpt>
<trkpt lat="54.472581" lon="-3.236604"><ele>148</ele><time>2022-03-30T14:05:17Z</time><name>PT5622</name></trkpt>
<trkpt lat="54.472571" lon="-3.236609"><ele>148</ele><time>2022-03-30T14:05:18Z</time><name>PT5623</name></trkpt>
<trkpt lat="54.472562" lon="-3.236613"><ele>148</ele><time>2022-03-30T14:05:19Z</time><name>PT5624</name></trkpt>
<trkpt lat="54.472552" lon="-3.236618"><ele>148</ele><time>2022-03-30T14:05:20Z</time><name>PT5625</name></trkpt>
<trkpt lat="54.472542" lon="-3.236627"><ele>148</ele><time>2022-03-30T14:05:21Z</time><name>PT5626</name></trkpt>
<trkpt lat="54.472532" lon="-3.236639"><ele>148</ele><time>2022-03-30T14:05:22Z</time><name>PT5627</name></trkpt>
<trkpt lat="54.472525" lon="-3.236646"><ele>148</ele><time>2022-03-30T14:05:23Z</time><name>PT5628</name></trkpt>
<trkpt lat="54.472517" lon="-3.236650"><ele>148</ele><time>2022-03-30T14:05:24Z</time><name>PT5629</name></trkpt>
<trkpt lat="54.472509" lon="-3.236656"><ele>147</ele><time>2022-03-30T14:05:25Z</time><name>PT5630</name></trkpt>
<trkpt lat="54.472503" lon="-3.236664"><ele>147</ele><time>2022-03-30T14:05:26Z</time><name>PT5631</name></trkpt>
<trkpt lat="54.472499" lon="-3.236672"><ele>147</ele><time>2022-03-30T14:05:27Z</time><name>PT5632</name></trkpt>
<trkpt lat="54.472494" lon="-3.236684"><ele>146</ele><time>2022-03-30T14:05:28Z</time><name>PT5633</name></trkpt>
<trkpt lat="54.472490" lon="-3.236692"><ele>146</ele><time>2022-03-30T14:05:29Z</time><name>PT5634</name></trkpt>
<trkpt lat="54.472487" lon="-3.236701"><ele>145</ele><time>2022-03-30T14:05:30Z</time><name>PT5635</name></trkpt>
<trkpt lat="54.472483" lon="-3.236714"><ele>145</ele><time>2022-03-30T14:05:31Z</time><name>PT5636</name></trkpt>
<trkpt lat="54.472481" lon="-3.236731"><ele>145</ele><time>2022-03-30T14:05:32Z</time><name>PT5637</name></trkpt>
<trkpt lat="54.472480" lon="-3.236745"><ele>145</ele><time>2022-03-30T14:05:33Z</time><name>PT5638</name></trkpt>
<trkpt lat="54.472480" lon="-3.236761"><ele>144</ele><time>2022-03-30T14:05:34Z</time><name>PT5639</name></trkpt>
<trkpt lat="54.472478" lon="-3.236777"><ele>144</ele><time>2022-03-30T14:05:35Z</time><name>PT5640</name></trkpt>
<trkpt lat="54.472476" lon="-3.236793"><ele>144</ele><time>2022-03-30T14:05:36Z</time><name>PT5641</name></trkpt>
<trkpt lat="54.472475" lon="-3.236809"><ele>144</ele><time>2022-03-30T14:05:37Z</time><name>PT5642</name></trkpt>
<trkpt lat="54.472475" lon="-3.236813"><ele>143</ele><time>2022-03-30T14:05:38Z</time><name>PT5643</name></trkpt>
<trkpt lat="54.472476" lon="-3.236812"><ele>143</ele><time>2022-03-30T14:05:39Z</time><name>PT5644</name></trkpt>
<trkpt lat="54.472475" lon="-3.236815"><ele>143</ele><time>2022-03-30T14:05:40Z</time><name>PT5645</name></trkpt>
<trkpt lat="54.472477" lon="-3.236818"><ele>143</ele><time>2022-03-30T14:05:42Z</time><name>PT5646</name></trkpt>
<trkpt lat="54.472477" lon="-3.236822"><ele>143</ele><time>2022-03-30T14:05:43Z</time><name>PT5647</name></trkpt>
<trkpt lat="54.472480" lon="-3.236828"><ele>142</ele><time>2022-03-30T14:05:44Z</time><name>PT5648</name></trkpt>
<trkpt lat="54.472482" lon="-3.236832"><ele>142</ele><time>2022-03-30T14:05:45Z</time><name>PT5649</name></trkpt>
<trkpt lat="54.472481" lon="-3.236847"><ele>142</ele><time>2022-03-30T14:05:46Z</time><name>PT5650</name></trkpt>
<trkpt lat="54.472478" lon="-3.236867"><ele>142</ele><time>2022-03-30T14:05:47Z</time><name>PT5651</name></trkpt>
<trkpt lat="54.472480" lon="-3.236882"><ele>141</ele><time>2022-03-30T14:05:48Z</time><name>PT5652</name></trkpt>
<trkpt lat="54.472480" lon="-3.236895"><ele>141</ele><time>2022-03-30T14:05:49Z</time><name>PT5653</name></trkpt>
<trkpt lat="54.472476" lon="-3.236906"><ele>141</ele><time>2022-03-30T14:05:50Z</time><name>PT5654</name></trkpt>
<trkpt lat="54.472478" lon="-3.236918"><ele>141</ele><time>2022-03-30T14:05:51Z</time><name>PT5655</name></trkpt>
<trkpt lat="54.472478" lon="-3.236933"><ele>141</ele><time>2022-03-30T14:05:52Z</time><name>PT5656</name></trkpt>
<trkpt lat="54.472477" lon="-3.236949"><ele>141</ele><time>2022-03-30T14:05:53Z</time><name>PT5657</name></trkpt>
<trkpt lat="54.472478" lon="-3.236965"><ele>140</ele><time>2022-03-30T14:05:54Z</time><name>PT5658</name></trkpt>
<trkpt lat="54.472475" lon="-3.236975"><ele>140</ele><time>2022-03-30T14:05:55Z</time><name>PT5659</name></trkpt>
<trkpt lat="54.472470" lon="-3.236989"><ele>140</ele><time>2022-03-30T14:05:56Z</time><name>PT5660</name></trkpt>
<trkpt lat="54.472468" lon="-3.236999"><ele>140</ele><time>2022-03-30T14:05:57Z</time><name>PT5661</name></trkpt>
<trkpt lat="54.472468" lon="-3.237000"><ele>140</ele><time>2022-03-30T14:05:58Z</time><name>PT5662</name></trkpt>
<trkpt lat="54.472470" lon="-3.237004"><ele>140</ele><time>2022-03-30T14:05:59Z</time><name>PT5663</name></trkpt>
<trkpt lat="54.472472" lon="-3.237008"><ele>140</ele><time>2022-03-30T14:06:00Z</time><name>PT5664</name></trkpt>
<trkpt lat="54.472471" lon="-3.237019"><ele>139</ele><time>2022-03-30T14:06:01Z</time><name>PT5665</name></trkpt>
<trkpt lat="54.472466" lon="-3.237032"><ele>139</ele><time>2022-03-30T14:06:02Z</time><name>PT5666</name></trkpt>
<trkpt lat="54.472460" lon="-3.237045"><ele>139</ele><time>2022-03-30T14:06:03Z</time><name>PT5667</name></trkpt>
<trkpt lat="54.472455" lon="-3.237055"><ele>139</ele><time>2022-03-30T14:06:04Z</time><name>PT5668</name></trkpt>
<trkpt lat="54.472449" lon="-3.237067"><ele>139</ele><time>2022-03-30T14:06:05Z</time><name>PT5669</name></trkpt>
<trkpt lat="54.472443" lon="-3.237081"><ele>139</ele><time>2022-03-30T14:06:06Z</time><name>PT5670</name></trkpt>
<trkpt lat="54.472437" lon="-3.237093"><ele>139</ele><time>2022-03-30T14:06:07Z</time><name>PT5671</name></trkpt>
<trkpt lat="54.472432" lon="-3.237113"><ele>140</ele><time>2022-03-30T14:06:08Z</time><name>PT5672</name></trkpt>
<trkpt lat="54.472428" lon="-3.237123"><ele>139</ele><time>2022-03-30T14:06:09Z</time><name>PT5673</name></trkpt>
<trkpt lat="54.472423" lon="-3.237134"><ele>139</ele><time>2022-03-30T14:06:10Z</time><name>PT5674</name></trkpt>
<trkpt lat="54.472417" lon="-3.237151"><ele>138</ele><time>2022-03-30T14:06:11Z</time><name>PT5675</name></trkpt>
<trkpt lat="54.472411" lon="-3.237167"><ele>138</ele><time>2022-03-30T14:06:12Z</time><name>PT5676</name></trkpt>
<trkpt lat="54.472404" lon="-3.237179"><ele>138</ele><time>2022-03-30T14:06:13Z</time><name>PT5677</name></trkpt>
<trkpt lat="54.472395" lon="-3.237198"><ele>138</ele><time>2022-03-30T14:06:14Z</time><name>PT5678</name></trkpt>
<trkpt lat="54.472388" lon="-3.237217"><ele>138</ele><time>2022-03-30T14:06:15Z</time><name>PT5679</name></trkpt>
<trkpt lat="54.472384" lon="-3.237234"><ele>138</ele><time>2022-03-30T14:06:16Z</time><name>PT5680</name></trkpt>
<trkpt lat="54.472381" lon="-3.237251"><ele>138</ele><time>2022-03-30T14:06:17Z</time><name>PT5681</name></trkpt>
<trkpt lat="54.472376" lon="-3.237269"><ele>138</ele><time>2022-03-30T14:06:18Z</time><name>PT5682</name></trkpt>
<trkpt lat="54.472373" lon="-3.237285"><ele>138</ele><time>2022-03-30T14:06:19Z</time><name>PT5683</name></trkpt>
<trkpt lat="54.472371" lon="-3.237294"><ele>137</ele><time>2022-03-30T14:06:20Z</time><name>PT5684</name></trkpt>
<trkpt lat="54.472366" lon="-3.237309"><ele>137</ele><time>2022-03-30T14:06:21Z</time><name>PT5685</name></trkpt>
<trkpt lat="54.472360" lon="-3.237326"><ele>137</ele><time>2022-03-30T14:06:22Z</time><name>PT5686</name></trkpt>
<trkpt lat="54.472355" lon="-3.237343"><ele>137</ele><time>2022-03-30T14:06:23Z</time><name>PT5687</name></trkpt>
<trkpt lat="54.472349" lon="-3.237356"><ele>137</ele><time>2022-03-30T14:06:24Z</time><name>PT5688</name></trkpt>
<trkpt lat="54.472343" lon="-3.237374"><ele>137</ele><time>2022-03-30T14:06:25Z</time><name>PT5689</name></trkpt>
<trkpt lat="54.472335" lon="-3.237391"><ele>137</ele><time>2022-03-30T14:06:26Z</time><name>PT5690</name></trkpt>
<trkpt lat="54.472328" lon="-3.237405"><ele>137</ele><time>2022-03-30T14:06:27Z</time><name>PT5691</name></trkpt>
<trkpt lat="54.472324" lon="-3.237418"><ele>137</ele><time>2022-03-30T14:06:28Z</time><name>PT5692</name></trkpt>
<trkpt lat="54.472320" lon="-3.237435"><ele>137</ele><time>2022-03-30T14:06:29Z</time><name>PT5693</name></trkpt>
<trkpt lat="54.472317" lon="-3.237450"><ele>137</ele><time>2022-03-30T14:06:30Z</time><name>PT5694</name></trkpt>
<trkpt lat="54.472314" lon="-3.237466"><ele>137</ele><time>2022-03-30T14:06:31Z</time><name>PT5695</name></trkpt>
<trkpt lat="54.472314" lon="-3.237486"><ele>136</ele><time>2022-03-30T14:06:32Z</time><name>PT5696</name></trkpt>
<trkpt lat="54.472312" lon="-3.237498"><ele>136</ele><time>2022-03-30T14:06:33Z</time><name>PT5697</name></trkpt>
<trkpt lat="54.472297" lon="-3.237532"><ele>135</ele><time>2022-03-30T14:06:36Z</time><name>PT5698</name></trkpt>
<trkpt lat="54.472293" lon="-3.237562"><ele>136</ele><time>2022-03-30T14:06:39Z</time><name>PT5699</name></trkpt>
<trkpt lat="54.472269" lon="-3.237611"><ele>135</ele><time>2022-03-30T14:06:43Z</time><name>PT5700</name></trkpt>
<trkpt lat="54.472245" lon="-3.237692"><ele>135</ele><time>2022-03-30T14:06:47Z</time><name>PT5701</name></trkpt>
<trkpt lat="54.472213" lon="-3.237735"><ele>136</ele><time>2022-03-30T14:06:50Z</time><name>PT5702</name></trkpt>
<trkpt lat="54.472174" lon="-3.237774"><ele>137</ele><time>2022-03-30T14:06:53Z</time><name>PT5703</name></trkpt>
<trkpt lat="54.472121" lon="-3.237816"><ele>137</ele><time>2022-03-30T14:06:57Z</time><name>PT5704</name></trkpt>
<trkpt lat="54.472076" lon="-3.237843"><ele>136</ele><time>2022-03-30T14:07:01Z</time><name>PT5705</name></trkpt>
<trkpt lat="54.472042" lon="-3.237888"><ele>136</ele><time>2022-03-30T14:07:05Z</time><name>PT5706</name></trkpt>
<trkpt lat="54.472017" lon="-3.237960"><ele>135</ele><time>2022-03-30T14:07:09Z</time><name>PT5707</name></trkpt>
<trkpt lat="54.472002" lon="-3.238017"><ele>135</ele><time>2022-03-30T14:07:12Z</time><name>PT5708</name></trkpt>
<trkpt lat="54.471982" lon="-3.238054"><ele>133</ele><time>2022-03-30T14:07:15Z</time><name>PT5709</name></trkpt>
<trkpt lat="54.471968" lon="-3.238108"><ele>132</ele><time>2022-03-30T14:07:18Z</time><name>PT5710</name></trkpt>
<trkpt lat="54.471944" lon="-3.238161"><ele>131</ele><time>2022-03-30T14:07:22Z</time><name>PT5711</name></trkpt>
<trkpt lat="54.471926" lon="-3.238209"><ele>131</ele><time>2022-03-30T14:07:25Z</time><name>PT5712</name></trkpt>
<trkpt lat="54.471904" lon="-3.238256"><ele>129</ele><time>2022-03-30T14:07:29Z</time><name>PT5713</name></trkpt>
<trkpt lat="54.471872" lon="-3.238318"><ele>129</ele><time>2022-03-30T14:07:33Z</time><name>PT5714</name></trkpt>
<trkpt lat="54.471853" lon="-3.238379"><ele>130</ele><time>2022-03-30T14:07:36Z</time><name>PT5715</name></trkpt>
<trkpt lat="54.471829" lon="-3.238444"><ele>130</ele><time>2022-03-30T14:07:40Z</time><name>PT5716</name></trkpt>
<trkpt lat="54.471807" lon="-3.238498"><ele>130</ele><time>2022-03-30T14:07:43Z</time><name>PT5717</name></trkpt>
<trkpt lat="54.471781" lon="-3.238582"><ele>131</ele><time>2022-03-30T14:07:47Z</time><name>PT5718</name></trkpt>
<trkpt lat="54.471750" lon="-3.238653"><ele>132</ele><time>2022-03-30T14:07:51Z</time><name>PT5719</name></trkpt>
<trkpt lat="54.471734" lon="-3.238699"><ele>132</ele><time>2022-03-30T14:07:54Z</time><name>PT5720</name></trkpt>
<trkpt lat="54.471715" lon="-3.238767"><ele>132</ele><time>2022-03-30T14:07:58Z</time><name>PT5721</name></trkpt>
<trkpt lat="54.471702" lon="-3.238818"><ele>132</ele><time>2022-03-30T14:08:01Z</time><name>PT5722</name></trkpt>
<trkpt lat="54.471688" lon="-3.238899"><ele>131</ele><time>2022-03-30T14:08:05Z</time><name>PT5723</name></trkpt>
<trkpt lat="54.471677" lon="-3.238948"><ele>131</ele><time>2022-03-30T14:08:08Z</time><name>PT5724</name></trkpt>
<trkpt lat="54.471660" lon="-3.239030"><ele>132</ele><time>2022-03-30T14:08:12Z</time><name>PT5725</name></trkpt>
<trkpt lat="54.471661" lon="-3.239092"><ele>131</ele><time>2022-03-30T14:08:15Z</time><name>PT5726</name></trkpt>
<trkpt lat="54.471658" lon="-3.239174"><ele>131</ele><time>2022-03-30T14:08:19Z</time><name>PT5727</name></trkpt>
<trkpt lat="54.471652" lon="-3.239231"><ele>130</ele><time>2022-03-30T14:08:22Z</time><name>PT5728</name></trkpt>
<trkpt lat="54.471652" lon="-3.239304"><ele>129</ele><time>2022-03-30T14:08:26Z</time><name>PT5729</name></trkpt>
<trkpt lat="54.471643" lon="-3.239367"><ele>130</ele><time>2022-03-30T14:08:29Z</time><name>PT5730</name></trkpt>
<trkpt lat="54.471639" lon="-3.239427"><ele>130</ele><time>2022-03-30T14:08:32Z</time><name>PT5731</name></trkpt>
<trkpt lat="54.471636" lon="-3.239489"><ele>130</ele><time>2022-03-30T14:08:35Z</time><name>PT5732</name></trkpt>
<trkpt lat="54.471632" lon="-3.239545"><ele>130</ele><time>2022-03-30T14:08:38Z</time><name>PT5733</name></trkpt>
<trkpt lat="54.471633" lon="-3.239607"><ele>128</ele><time>2022-03-30T14:08:42Z</time><name>PT5734</name></trkpt>
<trkpt lat="54.471628" lon="-3.239655"><ele>127</ele><time>2022-03-30T14:08:45Z</time><name>PT5735</name></trkpt>
<trkpt lat="54.471622" lon="-3.239731"><ele>126</ele><time>2022-03-30T14:08:49Z</time><name>PT5736</name></trkpt>
<trkpt lat="54.471612" lon="-3.239815"><ele>126</ele><time>2022-03-30T14:08:53Z</time><name>PT5737</name></trkpt>
<trkpt lat="54.471606" lon="-3.239893"><ele>126</ele><time>2022-03-30T14:08:57Z</time><name>PT5738</name></trkpt>
<trkpt lat="54.471609" lon="-3.239955"><ele>125</ele><time>2022-03-30T14:09:01Z</time><name>PT5739</name></trkpt>
<trkpt lat="54.471602" lon="-3.239991"><ele>125</ele><time>2022-03-30T14:09:04Z</time><name>PT5740</name></trkpt>
<trkpt lat="54.471609" lon="-3.239978"><ele>125</ele><time>2022-03-30T14:09:08Z</time><name>PT5741</name></trkpt>
<trkpt lat="54.471603" lon="-3.240066"><ele>123</ele><time>2022-03-30T14:09:15Z</time><name>PT5742</name></trkpt>
<trkpt lat="54.471594" lon="-3.240144"><ele>122</ele><time>2022-03-30T14:09:19Z</time><name>PT5743</name></trkpt>
<trkpt lat="54.471572" lon="-3.240233"><ele>124</ele><time>2022-03-30T14:09:23Z</time><name>PT5744</name></trkpt>
<trkpt lat="54.471557" lon="-3.240319"><ele>124</ele><time>2022-03-30T14:09:27Z</time><name>PT5745</name></trkpt>
<trkpt lat="54.471548" lon="-3.240378"><ele>123</ele><time>2022-03-30T14:09:30Z</time><name>PT5746</name></trkpt>
<trkpt lat="54.471525" lon="-3.240454"><ele>125</ele><time>2022-03-30T14:09:34Z</time><name>PT5747</name></trkpt>
<trkpt lat="54.471511" lon="-3.240532"><ele>124</ele><time>2022-03-30T14:09:38Z</time><name>PT5748</name></trkpt>
<trkpt lat="54.471504" lon="-3.240584"><ele>124</ele><time>2022-03-30T14:09:41Z</time><name>PT5749</name></trkpt>
<trkpt lat="54.471487" lon="-3.240643"><ele>123</ele><time>2022-03-30T14:09:44Z</time><name>PT5750</name></trkpt>
<trkpt lat="54.471473" lon="-3.240696"><ele>122</ele><time>2022-03-30T14:09:48Z</time><name>PT5751</name></trkpt>
<trkpt lat="54.471451" lon="-3.240754"><ele>122</ele><time>2022-03-30T14:09:52Z</time><name>PT5752</name></trkpt>
<trkpt lat="54.471442" lon="-3.240799"><ele>124</ele><time>2022-03-30T14:09:55Z</time><name>PT5753</name></trkpt>
<trkpt lat="54.471438" lon="-3.240857"><ele>123</ele><time>2022-03-30T14:09:59Z</time><name>PT5754</name></trkpt>
<trkpt lat="54.471415" lon="-3.240932"><ele>121</ele><time>2022-03-30T14:10:03Z</time><name>PT5755</name></trkpt>
<trkpt lat="54.471402" lon="-3.241007"><ele>123</ele><time>2022-03-30T14:10:06Z</time><name>PT5756</name></trkpt>
<trkpt lat="54.471391" lon="-3.241068"><ele>121</ele><time>2022-03-30T14:10:10Z</time><name>PT5757</name></trkpt>
<trkpt lat="54.471377" lon="-3.241152"><ele>123</ele><time>2022-03-30T14:10:14Z</time><name>PT5758</name></trkpt>
<trkpt lat="54.471360" lon="-3.241240"><ele>122</ele><time>2022-03-30T14:10:18Z</time><name>PT5759</name></trkpt>
<trkpt lat="54.471350" lon="-3.241291"><ele>122</ele><time>2022-03-30T14:10:21Z</time><name>PT5760</name></trkpt>
<trkpt lat="54.471333" lon="-3.241363"><ele>121</ele><time>2022-03-30T14:10:25Z</time><name>PT5761</name></trkpt>
<trkpt lat="54.471319" lon="-3.241441"><ele>120</ele><time>2022-03-30T14:10:29Z</time><name>PT5762</name></trkpt>
<trkpt lat="54.471313" lon="-3.241497"><ele>119</ele><time>2022-03-30T14:10:32Z</time><name>PT5763</name></trkpt>
<trkpt lat="54.471308" lon="-3.241568"><ele>118</ele><time>2022-03-30T14:10:36Z</time><name>PT5764</name></trkpt>
<trkpt lat="54.471303" lon="-3.241635"><ele>118</ele><time>2022-03-30T14:10:39Z</time><name>PT5765</name></trkpt>
<trkpt lat="54.471296" lon="-3.241724"><ele>118</ele><time>2022-03-30T14:10:43Z</time><name>PT5766</name></trkpt>
<trkpt lat="54.471288" lon="-3.241785"><ele>119</ele><time>2022-03-30T14:10:46Z</time><name>PT5767</name></trkpt>
<trkpt lat="54.471282" lon="-3.241845"><ele>118</ele><time>2022-03-30T14:10:49Z</time><name>PT5768</name></trkpt>
<trkpt lat="54.471266" lon="-3.241928"><ele>118</ele><time>2022-03-30T14:10:53Z</time><name>PT5769</name></trkpt>
<trkpt lat="54.471264" lon="-3.241995"><ele>119</ele><time>2022-03-30T14:10:56Z</time><name>PT5770</name></trkpt>
<trkpt lat="54.471265" lon="-3.242059"><ele>121</ele><time>2022-03-30T14:10:59Z</time><name>PT5771</name></trkpt>
<trkpt lat="54.471263" lon="-3.242083"><ele>120</ele><time>2022-03-30T14:11:02Z</time><name>PT5772</name></trkpt>
<trkpt lat="54.471264" lon="-3.242106"><ele>119</ele><time>2022-03-30T14:11:06Z</time><name>PT5773</name></trkpt>
<trkpt lat="54.471253" lon="-3.242159"><ele>118</ele><time>2022-03-30T14:11:09Z</time><name>PT5774</name></trkpt>
<trkpt lat="54.471240" lon="-3.242216"><ele>118</ele><time>2022-03-30T14:11:12Z</time><name>PT5775</name></trkpt>
<trkpt lat="54.471246" lon="-3.242280"><ele>119</ele><time>2022-03-30T14:11:16Z</time><name>PT5776</name></trkpt>
<trkpt lat="54.471241" lon="-3.242354"><ele>119</ele><time>2022-03-30T14:11:20Z</time><name>PT5777</name></trkpt>
<trkpt lat="54.471235" lon="-3.242422"><ele>118</ele><time>2022-03-30T14:11:24Z</time><name>PT5778</name></trkpt>
<trkpt lat="54.471231" lon="-3.242460"><ele>116</ele><time>2022-03-30T14:11:27Z</time><name>PT5779</name></trkpt>
<trkpt lat="54.471222" lon="-3.242529"><ele>118</ele><time>2022-03-30T14:11:30Z</time><name>PT5780</name></trkpt>
<trkpt lat="54.471203" lon="-3.242599"><ele>117</ele><time>2022-03-30T14:11:34Z</time><name>PT5781</name></trkpt>
<trkpt lat="54.471197" lon="-3.242636"><ele>116</ele><time>2022-03-30T14:11:37Z</time><name>PT5782</name></trkpt>
<trkpt lat="54.471188" lon="-3.242696"><ele>114</ele><time>2022-03-30T14:11:41Z</time><name>PT5783</name></trkpt>
<trkpt lat="54.471190" lon="-3.242727"><ele>116</ele><time>2022-03-30T14:11:45Z</time><name>PT5784</name></trkpt>
<trkpt lat="54.471175" lon="-3.242733"><ele>116</ele><time>2022-03-30T14:11:51Z</time><name>PT5785</name></trkpt>
<trkpt lat="54.471157" lon="-3.242781"><ele>117</ele><time>2022-03-30T14:11:54Z</time><name>PT5786</name></trkpt>
<trkpt lat="54.471174" lon="-3.242862"><ele>117</ele><time>2022-03-30T14:11:58Z</time><name>PT5787</name></trkpt>
<trkpt lat="54.471185" lon="-3.242940"><ele>116</ele><time>2022-03-30T14:12:02Z</time><name>PT5788</name></trkpt>
<trkpt lat="54.471192" lon="-3.243006"><ele>116</ele><time>2022-03-30T14:12:05Z</time><name>PT5789</name></trkpt>
<trkpt lat="54.471189" lon="-3.243064"><ele>116</ele><time>2022-03-30T14:12:08Z</time><name>PT5790</name></trkpt>
<trkpt lat="54.471188" lon="-3.243136"><ele>117</ele><time>2022-03-30T14:12:12Z</time><name>PT5791</name></trkpt>
<trkpt lat="54.471191" lon="-3.243188"><ele>116</ele><time>2022-03-30T14:12:15Z</time><name>PT5792</name></trkpt>
<trkpt lat="54.471187" lon="-3.243260"><ele>117</ele><time>2022-03-30T14:12:19Z</time><name>PT5793</name></trkpt>
<trkpt lat="54.471187" lon="-3.243321"><ele>115</ele><time>2022-03-30T14:12:22Z</time><name>PT5794</name></trkpt>
<trkpt lat="54.471176" lon="-3.243399"><ele>114</ele><time>2022-03-30T14:12:26Z</time><name>PT5795</name></trkpt>
<trkpt lat="54.471167" lon="-3.243478"><ele>112</ele><time>2022-03-30T14:12:30Z</time><name>PT5796</name></trkpt>
<trkpt lat="54.471162" lon="-3.243529"><ele>108</ele><time>2022-03-30T14:12:33Z</time><name>PT5797</name></trkpt>
<trkpt lat="54.471144" lon="-3.243602"><ele>106</ele><time>2022-03-30T14:12:37Z</time><name>PT5798</name></trkpt>
<trkpt lat="54.471140" lon="-3.243664"><ele>106</ele><time>2022-03-30T14:12:40Z</time><name>PT5799</name></trkpt>
<trkpt lat="54.471141" lon="-3.243745"><ele>106</ele><time>2022-03-30T14:12:44Z</time><name>PT5800</name></trkpt>
<trkpt lat="54.471152" lon="-3.243813"><ele>106</ele><time>2022-03-30T14:12:48Z</time><name>PT5801</name></trkpt>
<trkpt lat="54.471166" lon="-3.243882"><ele>106</ele><time>2022-03-30T14:12:52Z</time><name>PT5802</name></trkpt>
<trkpt lat="54.471174" lon="-3.243958"><ele>106</ele><time>2022-03-30T14:12:56Z</time><name>PT5803</name></trkpt>
<trkpt lat="54.471176" lon="-3.244019"><ele>106</ele><time>2022-03-30T14:13:00Z</time><name>PT5804</name></trkpt>
<trkpt lat="54.471181" lon="-3.244087"><ele>108</ele><time>2022-03-30T14:13:04Z</time><name>PT5805</name></trkpt>
<trkpt lat="54.471181" lon="-3.244139"><ele>107</ele><time>2022-03-30T14:13:07Z</time><name>PT5806</name></trkpt>
<trkpt lat="54.471190" lon="-3.244201"><ele>108</ele><time>2022-03-30T14:13:10Z</time><name>PT5807</name></trkpt>
<trkpt lat="54.471198" lon="-3.244286"><ele>110</ele><time>2022-03-30T14:13:14Z</time><name>PT5808</name></trkpt>
<trkpt lat="54.471215" lon="-3.244337"><ele>111</ele><time>2022-03-30T14:13:17Z</time><name>PT5809</name></trkpt>
<trkpt lat="54.471236" lon="-3.244398"><ele>110</ele><time>2022-03-30T14:13:21Z</time><name>PT5810</name></trkpt>
<trkpt lat="54.471251" lon="-3.244455"><ele>110</ele><time>2022-03-30T14:13:24Z</time><name>PT5811</name></trkpt>
<trkpt lat="54.471272" lon="-3.244515"><ele>108</ele><time>2022-03-30T14:13:28Z</time><name>PT5812</name></trkpt>
<trkpt lat="54.471281" lon="-3.244579"><ele>109</ele><time>2022-03-30T14:13:31Z</time><name>PT5813</name></trkpt>
<trkpt lat="54.471290" lon="-3.244656"><ele>110</ele><time>2022-03-30T14:13:35Z</time><name>PT5814</name></trkpt>
<trkpt lat="54.471298" lon="-3.244738"><ele>112</ele><time>2022-03-30T14:13:39Z</time><name>PT5815</name></trkpt>
<trkpt lat="54.471301" lon="-3.244792"><ele>109</ele><time>2022-03-30T14:13:42Z</time><name>PT5816</name></trkpt>
<trkpt lat="54.471307" lon="-3.244872"><ele>109</ele><time>2022-03-30T14:13:46Z</time><name>PT5817</name></trkpt>
<trkpt lat="54.471315" lon="-3.244930"><ele>110</ele><time>2022-03-30T14:13:49Z</time><name>PT5818</name></trkpt>
<trkpt lat="54.471329" lon="-3.245000"><ele>110</ele><time>2022-03-30T14:13:53Z</time><name>PT5819</name></trkpt>
<trkpt lat="54.471346" lon="-3.245078"><ele>112</ele><time>2022-03-30T14:13:57Z</time><name>PT5820</name></trkpt>
<trkpt lat="54.471348" lon="-3.245126"><ele>112</ele><time>2022-03-30T14:14:00Z</time><name>PT5821</name></trkpt>
<trkpt lat="54.471350" lon="-3.245191"><ele>110</ele><time>2022-03-30T14:14:04Z</time><name>PT5822</name></trkpt>
<trkpt lat="54.471345" lon="-3.245259"><ele>110</ele><time>2022-03-30T14:14:07Z</time><name>PT5823</name></trkpt>
<trkpt lat="54.471346" lon="-3.245338"><ele>110</ele><time>2022-03-30T14:14:11Z</time><name>PT5824</name></trkpt>
<trkpt lat="54.471346" lon="-3.245397"><ele>108</ele><time>2022-03-30T14:14:15Z</time><name>PT5825</name></trkpt>
<trkpt lat="54.471335" lon="-3.245474"><ele>107</ele><time>2022-03-30T14:14:19Z</time><name>PT5826</name></trkpt>
<trkpt lat="54.471323" lon="-3.245549"><ele>105</ele><time>2022-03-30T14:14:23Z</time><name>PT5827</name></trkpt>
<trkpt lat="54.471316" lon="-3.245574"><ele>104</ele><time>2022-03-30T14:14:26Z</time><name>PT5828</name></trkpt>
<trkpt lat="54.471312" lon="-3.245581"><ele>105</ele><time>2022-03-30T14:14:30Z</time><name>PT5829</name></trkpt>
<trkpt lat="54.471311" lon="-3.245637"><ele>105</ele><time>2022-03-30T14:14:34Z</time><name>PT5830</name></trkpt>
<trkpt lat="54.471311" lon="-3.245701"><ele>104</ele><time>2022-03-30T14:14:38Z</time><name>PT5831</name></trkpt>
<trkpt lat="54.471301" lon="-3.245785"><ele>105</ele><time>2022-03-30T14:14:42Z</time><name>PT5832</name></trkpt>
<trkpt lat="54.471287" lon="-3.245840"><ele>103</ele><time>2022-03-30T14:14:46Z</time><name>PT5833</name></trkpt>
<trkpt lat="54.471281" lon="-3.245899"><ele>102</ele><time>2022-03-30T14:14:50Z</time><name>PT5834</name></trkpt>
<trkpt lat="54.471274" lon="-3.245954"><ele>101</ele><time>2022-03-30T14:14:53Z</time><name>PT5835</name></trkpt>
<trkpt lat="54.471277" lon="-3.246024"><ele>104</ele><time>2022-03-30T14:14:56Z</time><name>PT5836</name></trkpt>
<trkpt lat="54.471275" lon="-3.246081"><ele>105</ele><time>2022-03-30T14:15:00Z</time><name>PT5837</name></trkpt>
<trkpt lat="54.471264" lon="-3.246135"><ele>105</ele><time>2022-03-30T14:15:03Z</time><name>PT5838</name></trkpt>
<trkpt lat="54.471245" lon="-3.246180"><ele>103</ele><time>2022-03-30T14:15:07Z</time><name>PT5839</name></trkpt>
<trkpt lat="54.471236" lon="-3.246224"><ele>104</ele><time>2022-03-30T14:15:10Z</time><name>PT5840</name></trkpt>
<trkpt lat="54.471212" lon="-3.246296"><ele>104</ele><time>2022-03-30T14:15:14Z</time><name>PT5841</name></trkpt>
<trkpt lat="54.471196" lon="-3.246327"><ele>104</ele><time>2022-03-30T14:15:17Z</time><name>PT5842</name></trkpt>
<trkpt lat="54.471172" lon="-3.246368"><ele>103</ele><time>2022-03-30T14:15:21Z</time><name>PT5843</name></trkpt>
<trkpt lat="54.471168" lon="-3.246393"><ele>104</ele><time>2022-03-30T14:15:24Z</time><name>PT5844</name></trkpt>
<trkpt lat="54.471155" lon="-3.246467"><ele>105</ele><time>2022-03-30T14:15:28Z</time><name>PT5845</name></trkpt>
<trkpt lat="54.471136" lon="-3.246546"><ele>105</ele><time>2022-03-30T14:15:32Z</time><name>PT5846</name></trkpt>
<trkpt lat="54.471136" lon="-3.246593"><ele>105</ele><time>2022-03-30T14:15:35Z</time><name>PT5847</name></trkpt>
<trkpt lat="54.471112" lon="-3.246661"><ele>104</ele><time>2022-03-30T14:15:39Z</time><name>PT5848</name></trkpt>
<trkpt lat="54.471099" lon="-3.246699"><ele>103</ele><time>2022-03-30T14:15:42Z</time><name>PT5849</name></trkpt>
<trkpt lat="54.471085" lon="-3.246774"><ele>103</ele><time>2022-03-30T14:15:46Z</time><name>PT5850</name></trkpt>
<trkpt lat="54.471076" lon="-3.246823"><ele>102</ele><time>2022-03-30T14:15:49Z</time><name>PT5851</name></trkpt>
<trkpt lat="54.471065" lon="-3.246897"><ele>104</ele><time>2022-03-30T14:15:52Z</time><name>PT5852</name></trkpt>
<trkpt lat="54.471046" lon="-3.246973"><ele>103</ele><time>2022-03-30T14:15:56Z</time><name>PT5853</name></trkpt>
<trkpt lat="54.471036" lon="-3.247018"><ele>102</ele><time>2022-03-30T14:15:59Z</time><name>PT5854</name></trkpt>
<trkpt lat="54.471030" lon="-3.247057"><ele>103</ele><time>2022-03-30T14:16:02Z</time><name>PT5855</name></trkpt>
<trkpt lat="54.471022" lon="-3.247098"><ele>103</ele><time>2022-03-30T14:16:06Z</time><name>PT5856</name></trkpt>
<trkpt lat="54.470992" lon="-3.247172"><ele>102</ele><time>2022-03-30T14:16:10Z</time><name>PT5857</name></trkpt>
<trkpt lat="54.470985" lon="-3.247216"><ele>101</ele><time>2022-03-30T14:16:13Z</time><name>PT5858</name></trkpt>
<trkpt lat="54.470965" lon="-3.247254"><ele>101</ele><time>2022-03-30T14:16:17Z</time><name>PT5859</name></trkpt>
<trkpt lat="54.470933" lon="-3.247301"><ele>101</ele><time>2022-03-30T14:16:21Z</time><name>PT5860</name></trkpt>
<trkpt lat="54.470912" lon="-3.247352"><ele>101</ele><time>2022-03-30T14:16:24Z</time><name>PT5861</name></trkpt>
<trkpt lat="54.470892" lon="-3.247395"><ele>102</ele><time>2022-03-30T14:16:28Z</time><name>PT5862</name></trkpt>
<trkpt lat="54.470870" lon="-3.247443"><ele>103</ele><time>2022-03-30T14:16:32Z</time><name>PT5863</name></trkpt>
<trkpt lat="54.470847" lon="-3.247509"><ele>103</ele><time>2022-03-30T14:16:36Z</time><name>PT5864</name></trkpt>
<trkpt lat="54.470844" lon="-3.247549"><ele>103</ele><time>2022-03-30T14:16:39Z</time><name>PT5865</name></trkpt>
<trkpt lat="54.470843" lon="-3.247593"><ele>101</ele><time>2022-03-30T14:16:43Z</time><name>PT5866</name></trkpt>
<trkpt lat="54.470847" lon="-3.247619"><ele>101</ele><time>2022-03-30T14:16:47Z</time><name>PT5867</name></trkpt>
<trkpt lat="54.470839" lon="-3.247647"><ele>100</ele><time>2022-03-30T14:16:50Z</time><name>PT5868</name></trkpt>
<trkpt lat="54.470837" lon="-3.247669"><ele>100</ele><time>2022-03-30T14:16:53Z</time><name>PT5869</name></trkpt>
<trkpt lat="54.470835" lon="-3.247670"><ele>100</ele><time>2022-03-30T14:16:57Z</time><name>PT5870</name></trkpt>
<trkpt lat="54.470848" lon="-3.247704"><ele>99</ele><time>2022-03-30T14:17:01Z</time><name>PT5871</name></trkpt>
<trkpt lat="54.470852" lon="-3.247762"><ele>98</ele><time>2022-03-30T14:17:04Z</time><name>PT5872</name></trkpt>
<trkpt lat="54.470861" lon="-3.247842"><ele>97</ele><time>2022-03-30T14:17:08Z</time><name>PT5873</name></trkpt>
<trkpt lat="54.470867" lon="-3.247903"><ele>96</ele><time>2022-03-30T14:17:11Z</time><name>PT5874</name></trkpt>
<trkpt lat="54.470871" lon="-3.247974"><ele>95</ele><time>2022-03-30T14:17:15Z</time><name>PT5875</name></trkpt>
<trkpt lat="54.470884" lon="-3.248025"><ele>96</ele><time>2022-03-30T14:17:18Z</time><name>PT5876</name></trkpt>
<trkpt lat="54.470890" lon="-3.248101"><ele>97</ele><time>2022-03-30T14:17:22Z</time><name>PT5877</name></trkpt>
<trkpt lat="54.470904" lon="-3.248170"><ele>97</ele><time>2022-03-30T14:17:26Z</time><name>PT5878</name></trkpt>
<trkpt lat="54.470918" lon="-3.248234"><ele>96</ele><time>2022-03-30T14:17:30Z</time><name>PT5879</name></trkpt>
<trkpt lat="54.470941" lon="-3.248296"><ele>96</ele><time>2022-03-30T14:17:34Z</time><name>PT5880</name></trkpt>
<trkpt lat="54.470953" lon="-3.248349"><ele>96</ele><time>2022-03-30T14:17:37Z</time><name>PT5881</name></trkpt>
<trkpt lat="54.470972" lon="-3.248411"><ele>96</ele><time>2022-03-30T14:17:41Z</time><name>PT5882</name></trkpt>
<trkpt lat="54.470985" lon="-3.248486"><ele>96</ele><time>2022-03-30T14:17:45Z</time><name>PT5883</name></trkpt>
<trkpt lat="54.470998" lon="-3.248544"><ele>96</ele><time>2022-03-30T14:17:48Z</time><name>PT5884</name></trkpt>
<trkpt lat="54.471020" lon="-3.248607"><ele>97</ele><time>2022-03-30T14:17:52Z</time><name>PT5885</name></trkpt>
<trkpt lat="54.471050" lon="-3.248653"><ele>99</ele><time>2022-03-30T14:17:56Z</time><name>PT5886</name></trkpt>
<trkpt lat="54.471059" lon="-3.248695"><ele>100</ele><time>2022-03-30T14:18:00Z</time><name>PT5887</name></trkpt>
<trkpt lat="54.471054" lon="-3.248741"><ele>101</ele><time>2022-03-30T14:18:04Z</time><name>PT5888</name></trkpt>
<trkpt lat="54.471040" lon="-3.248793"><ele>100</ele><time>2022-03-30T14:18:08Z</time><name>PT5889</name></trkpt>
<trkpt lat="54.471034" lon="-3.248832"><ele>99</ele><time>2022-03-30T14:18:11Z</time><name>PT5890</name></trkpt>
<trkpt lat="54.471017" lon="-3.248909"><ele>98</ele><time>2022-03-30T14:18:15Z</time><name>PT5891</name></trkpt>
<trkpt lat="54.471003" lon="-3.248990"><ele>97</ele><time>2022-03-30T14:18:19Z</time><name>PT5892</name></trkpt>
<trkpt lat="54.470994" lon="-3.249059"><ele>97</ele><time>2022-03-30T14:18:22Z</time><name>PT5893</name></trkpt>
<trkpt lat="54.470991" lon="-3.249139"><ele>98</ele><time>2022-03-30T14:18:26Z</time><name>PT5894</name></trkpt>
<trkpt lat="54.470985" lon="-3.249191"><ele>100</ele><time>2022-03-30T14:18:29Z</time><name>PT5895</name></trkpt>
<trkpt lat="54.470970" lon="-3.249253"><ele>99</ele><time>2022-03-30T14:18:33Z</time><name>PT5896</name></trkpt>
<trkpt lat="54.470950" lon="-3.249322"><ele>100</ele><time>2022-03-30T14:18:37Z</time><name>PT5897</name></trkpt>
<trkpt lat="54.470922" lon="-3.249377"><ele>99</ele><time>2022-03-30T14:18:41Z</time><name>PT5898</name></trkpt>
<trkpt lat="54.470894" lon="-3.249411"><ele>99</ele><time>2022-03-30T14:18:44Z</time><name>PT5899</name></trkpt>
<trkpt lat="54.470873" lon="-3.249448"><ele>98</ele><time>2022-03-30T14:18:47Z</time><name>PT5900</name></trkpt>
<trkpt lat="54.470860" lon="-3.249490"><ele>98</ele><time>2022-03-30T14:18:50Z</time><name>PT5901</name></trkpt>
<trkpt lat="54.470841" lon="-3.249532"><ele>98</ele><time>2022-03-30T14:18:54Z</time><name>PT5902</name></trkpt>
<trkpt lat="54.470820" lon="-3.249564"><ele>97</ele><time>2022-03-30T14:18:57Z</time><name>PT5903</name></trkpt>
<trkpt lat="54.470803" lon="-3.249601"><ele>97</ele><time>2022-03-30T14:19:00Z</time><name>PT5904</name></trkpt>
<trkpt lat="54.470781" lon="-3.249633"><ele>98</ele><time>2022-03-30T14:19:03Z</time><name>PT5905</name></trkpt>
<trkpt lat="54.470747" lon="-3.249672"><ele>98</ele><time>2022-03-30T14:19:07Z</time><name>PT5906</name></trkpt>
<trkpt lat="54.470715" lon="-3.249693"><ele>98</ele><time>2022-03-30T14:19:10Z</time><name>PT5907</name></trkpt>
<trkpt lat="54.470690" lon="-3.249714"><ele>98</ele><time>2022-03-30T14:19:13Z</time><name>PT5908</name></trkpt>
<trkpt lat="54.470671" lon="-3.249738"><ele>97</ele><time>2022-03-30T14:19:16Z</time><name>PT5909</name></trkpt>
<trkpt lat="54.470630" lon="-3.249763"><ele>98</ele><time>2022-03-30T14:19:20Z</time><name>PT5910</name></trkpt>
<trkpt lat="54.470603" lon="-3.249784"><ele>98</ele><time>2022-03-30T14:19:23Z</time><name>PT5911</name></trkpt>
<trkpt lat="54.470570" lon="-3.249817"><ele>97</ele><time>2022-03-30T14:19:27Z</time><name>PT5912</name></trkpt>
<trkpt lat="54.470536" lon="-3.249851"><ele>97</ele><time>2022-03-30T14:19:31Z</time><name>PT5913</name></trkpt>
<trkpt lat="54.470508" lon="-3.249882"><ele>97</ele><time>2022-03-30T14:19:34Z</time><name>PT5914</name></trkpt>
<trkpt lat="54.470483" lon="-3.249911"><ele>98</ele><time>2022-03-30T14:19:37Z</time><name>PT5915</name></trkpt>
<trkpt lat="54.470456" lon="-3.249951"><ele>98</ele><time>2022-03-30T14:19:41Z</time><name>PT5916</name></trkpt>
<trkpt lat="54.470426" lon="-3.250008"><ele>97</ele><time>2022-03-30T14:19:45Z</time><name>PT5917</name></trkpt>
<trkpt lat="54.470417" lon="-3.250048"><ele>98</ele><time>2022-03-30T14:19:49Z</time><name>PT5918</name></trkpt>
<trkpt lat="54.470416" lon="-3.250063"><ele>98</ele><time>2022-03-30T14:19:53Z</time><name>PT5919</name></trkpt>
<trkpt lat="54.470386" lon="-3.250105"><ele>98</ele><time>2022-03-30T14:19:57Z</time><name>PT5920</name></trkpt>
<trkpt lat="54.470354" lon="-3.250138"><ele>97</ele><time>2022-03-30T14:20:00Z</time><name>PT5921</name></trkpt>
<trkpt lat="54.470322" lon="-3.250179"><ele>97</ele><time>2022-03-30T14:20:04Z</time><name>PT5922</name></trkpt>
<trkpt lat="54.470295" lon="-3.250222"><ele>96</ele><time>2022-03-30T14:20:07Z</time><name>PT5923</name></trkpt>
<trkpt lat="54.470267" lon="-3.250263"><ele>96</ele><time>2022-03-30T14:20:11Z</time><name>PT5924</name></trkpt>
<trkpt lat="54.470235" lon="-3.250277"><ele>97</ele><time>2022-03-30T14:20:14Z</time><name>PT5925</name></trkpt>
<trkpt lat="54.470204" lon="-3.250297"><ele>96</ele><time>2022-03-30T14:20:18Z</time><name>PT5926</name></trkpt>
<trkpt lat="54.470185" lon="-3.250372"><ele>95</ele><time>2022-03-30T14:20:22Z</time><name>PT5927</name></trkpt>
<trkpt lat="54.470174" lon="-3.250412"><ele>95</ele><time>2022-03-30T14:20:25Z</time><name>PT5928</name></trkpt>
<trkpt lat="54.470161" lon="-3.250464"><ele>94</ele><time>2022-03-30T14:20:28Z</time><name>PT5929</name></trkpt>
<trkpt lat="54.470145" lon="-3.250520"><ele>93</ele><time>2022-03-30T14:20:31Z</time><name>PT5930</name></trkpt>
<trkpt lat="54.470128" lon="-3.250569"><ele>93</ele><time>2022-03-30T14:20:34Z</time><name>PT5931</name></trkpt>
<trkpt lat="54.470120" lon="-3.250648"><ele>94</ele><time>2022-03-30T14:20:38Z</time><name>PT5932</name></trkpt>
<trkpt lat="54.470109" lon="-3.250728"><ele>94</ele><time>2022-03-30T14:20:42Z</time><name>PT5933</name></trkpt>
<trkpt lat="54.470110" lon="-3.250782"><ele>93</ele><time>2022-03-30T14:20:45Z</time><name>PT5934</name></trkpt>
<trkpt lat="54.470118" lon="-3.250864"><ele>93</ele><time>2022-03-30T14:20:49Z</time><name>PT5935</name></trkpt>
<trkpt lat="54.470124" lon="-3.250926"><ele>94</ele><time>2022-03-30T14:20:52Z</time><name>PT5936</name></trkpt>
<trkpt lat="54.470121" lon="-3.251002"><ele>93</ele><time>2022-03-30T14:20:56Z</time><name>PT5937</name></trkpt>
<trkpt lat="54.470118" lon="-3.251086"><ele>94</ele><time>2022-03-30T14:21:00Z</time><name>PT5938</name></trkpt>
<trkpt lat="54.470100" lon="-3.251156"><ele>93</ele><time>2022-03-30T14:21:04Z</time><name>PT5939</name></trkpt>
<trkpt lat="54.470088" lon="-3.251206"><ele>93</ele><time>2022-03-30T14:21:07Z</time><name>PT5940</name></trkpt>
<trkpt lat="54.470077" lon="-3.251267"><ele>93</ele><time>2022-03-30T14:21:11Z</time><name>PT5941</name></trkpt>
<trkpt lat="54.470064" lon="-3.251297"><ele>94</ele><time>2022-03-30T14:21:14Z</time><name>PT5942</name></trkpt>
<trkpt lat="54.470068" lon="-3.251342"><ele>94</ele><time>2022-03-30T14:21:17Z</time><name>PT5943</name></trkpt>
<trkpt lat="54.470077" lon="-3.251375"><ele>93</ele><time>2022-03-30T14:21:21Z</time><name>PT5944</name></trkpt>
<trkpt lat="54.470073" lon="-3.251435"><ele>93</ele><time>2022-03-30T14:21:25Z</time><name>PT5945</name></trkpt>
<trkpt lat="54.470072" lon="-3.251488"><ele>93</ele><time>2022-03-30T14:21:28Z</time><name>PT5946</name></trkpt>
<trkpt lat="54.470069" lon="-3.251553"><ele>92</ele><time>2022-03-30T14:21:32Z</time><name>PT5947</name></trkpt>
<trkpt lat="54.470067" lon="-3.251607"><ele>91</ele><time>2022-03-30T14:21:36Z</time><name>PT5948</name></trkpt>
<trkpt lat="54.470067" lon="-3.251616"><ele>91</ele><time>2022-03-30T14:21:40Z</time><name>PT5949</name></trkpt>
<trkpt lat="54.470071" lon="-3.251633"><ele>91</ele><time>2022-03-30T14:21:43Z</time><name>PT5950</name></trkpt>
<trkpt lat="54.470076" lon="-3.251721"><ele>91</ele><time>2022-03-30T14:21:47Z</time><name>PT5951</name></trkpt>
<trkpt lat="54.470086" lon="-3.251798"><ele>91</ele><time>2022-03-30T14:21:51Z</time><name>PT5952</name></trkpt>
<trkpt lat="54.470081" lon="-3.251863"><ele>91</ele><time>2022-03-30T14:21:55Z</time><name>PT5953</name></trkpt>
<trkpt lat="54.470061" lon="-3.251888"><ele>91</ele><time>2022-03-30T14:21:58Z</time><name>PT5954</name></trkpt>
<trkpt lat="54.470041" lon="-3.251920"><ele>90</ele><time>2022-03-30T14:22:02Z</time><name>PT5955</name></trkpt>
<trkpt lat="54.470045" lon="-3.251978"><ele>91</ele><time>2022-03-30T14:22:06Z</time><name>PT5956</name></trkpt>
<trkpt lat="54.470045" lon="-3.252030"><ele>91</ele><time>2022-03-30T14:22:09Z</time><name>PT5957</name></trkpt>
<trkpt lat="54.470052" lon="-3.252097"><ele>93</ele><time>2022-03-30T14:22:13Z</time><name>PT5958</name></trkpt>
<trkpt lat="54.470051" lon="-3.252156"><ele>94</ele><time>2022-03-30T14:22:16Z</time><name>PT5959</name></trkpt>
<trkpt lat="54.470054" lon="-3.252229"><ele>94</ele><time>2022-03-30T14:22:20Z</time><name>PT5960</name></trkpt>
<trkpt lat="54.470051" lon="-3.252298"><ele>94</ele><time>2022-03-30T14:22:24Z</time><name>PT5961</name></trkpt>
<trkpt lat="54.470054" lon="-3.252347"><ele>93</ele><time>2022-03-30T14:22:27Z</time><name>PT5962</name></trkpt>
<trkpt lat="54.470048" lon="-3.252420"><ele>91</ele><time>2022-03-30T14:22:31Z</time><name>PT5963</name></trkpt>
<trkpt lat="54.470046" lon="-3.252480"><ele>89</ele><time>2022-03-30T14:22:34Z</time><name>PT5964</name></trkpt>
<trkpt lat="54.470050" lon="-3.252549"><ele>90</ele><time>2022-03-30T14:22:37Z</time><name>PT5965</name></trkpt>
<trkpt lat="54.470045" lon="-3.252629"><ele>90</ele><time>2022-03-30T14:22:41Z</time><name>PT5966</name></trkpt>
<trkpt lat="54.470048" lon="-3.252685"><ele>90</ele><time>2022-03-30T14:22:45Z</time><name>PT5967</name></trkpt>
<trkpt lat="54.470061" lon="-3.252747"><ele>90</ele><time>2022-03-30T14:22:49Z</time><name>PT5968</name></trkpt>
<trkpt lat="54.470065" lon="-3.252811"><ele>91</ele><time>2022-03-30T14:22:53Z</time><name>PT5969</name></trkpt>
<trkpt lat="54.470067" lon="-3.252873"><ele>90</ele><time>2022-03-30T14:22:57Z</time><name>PT5970</name></trkpt>
<trkpt lat="54.470080" lon="-3.252923"><ele>92</ele><time>2022-03-30T14:23:00Z</time><name>PT5971</name></trkpt>
<trkpt lat="54.470090" lon="-3.252975"><ele>91</ele><time>2022-03-30T14:23:04Z</time><name>PT5972</name></trkpt>
<trkpt lat="54.470087" lon="-3.253011"><ele>89</ele><time>2022-03-30T14:23:07Z</time><name>PT5973</name></trkpt>
<trkpt lat="54.470083" lon="-3.253074"><ele>88</ele><time>2022-03-30T14:23:11Z</time><name>PT5974</name></trkpt>
<trkpt lat="54.470083" lon="-3.253121"><ele>86</ele><time>2022-03-30T14:23:14Z</time><name>PT5975</name></trkpt>
<trkpt lat="54.470085" lon="-3.253179"><ele>85</ele><time>2022-03-30T14:23:17Z</time><name>PT5976</name></trkpt>
<trkpt lat="54.470098" lon="-3.253235"><ele>83</ele><time>2022-03-30T14:23:21Z</time><name>PT5977</name></trkpt>
<trkpt lat="54.470103" lon="-3.253280"><ele>84</ele><time>2022-03-30T14:23:24Z</time><name>PT5978</name></trkpt>
<trkpt lat="54.470105" lon="-3.253363"><ele>84</ele><time>2022-03-30T14:23:28Z</time><name>PT5979</name></trkpt>
<trkpt lat="54.470112" lon="-3.253442"><ele>84</ele><time>2022-03-30T14:23:32Z</time><name>PT5980</name></trkpt>
<trkpt lat="54.470121" lon="-3.253494"><ele>82</ele><time>2022-03-30T14:23:36Z</time><name>PT5981</name></trkpt>
<trkpt lat="54.470120" lon="-3.253564"><ele>81</ele><time>2022-03-30T14:23:40Z</time><name>PT5982</name></trkpt>
<trkpt lat="54.470113" lon="-3.253622"><ele>79</ele><time>2022-03-30T14:23:44Z</time><name>PT5983</name></trkpt>
<trkpt lat="54.470119" lon="-3.253728"><ele>80</ele><time>2022-03-30T14:23:48Z</time><name>PT5984</name></trkpt>
<trkpt lat="54.470129" lon="-3.253814"><ele>81</ele><time>2022-03-30T14:23:52Z</time><name>PT5985</name></trkpt>
<trkpt lat="54.470135" lon="-3.253871"><ele>80</ele><time>2022-03-30T14:23:55Z</time><name>PT5986</name></trkpt>
<trkpt lat="54.470148" lon="-3.253962"><ele>80</ele><time>2022-03-30T14:23:59Z</time><name>PT5987</name></trkpt>
<trkpt lat="54.470156" lon="-3.254026"><ele>80</ele><time>2022-03-30T14:24:02Z</time><name>PT5988</name></trkpt>
<trkpt lat="54.470175" lon="-3.254070"><ele>81</ele><time>2022-03-30T14:24:05Z</time><name>PT5989</name></trkpt>
<trkpt lat="54.470192" lon="-3.254130"><ele>81</ele><time>2022-03-30T14:24:08Z</time><name>PT5990</name></trkpt>
<trkpt lat="54.470206" lon="-3.254207"><ele>80</ele><time>2022-03-30T14:24:12Z</time><name>PT5991</name></trkpt>
<trkpt lat="54.470208" lon="-3.254264"><ele>78</ele><time>2022-03-30T14:24:15Z</time><name>PT5992</name></trkpt>
<trkpt lat="54.470225" lon="-3.254330"><ele>78</ele><time>2022-03-30T14:24:19Z</time><name>PT5993</name></trkpt>
<trkpt lat="54.470226" lon="-3.254385"><ele>78</ele><time>2022-03-30T14:24:22Z</time><name>PT5994</name></trkpt>
<trkpt lat="54.470225" lon="-3.254459"><ele>77</ele><time>2022-03-30T14:24:26Z</time><name>PT5995</name></trkpt>
<trkpt lat="54.470229" lon="-3.254534"><ele>79</ele><time>2022-03-30T14:24:30Z</time><name>PT5996</name></trkpt>
<trkpt lat="54.470212" lon="-3.254585"><ele>78</ele><time>2022-03-30T14:24:33Z</time><name>PT5997</name></trkpt>
<trkpt lat="54.470203" lon="-3.254636"><ele>81</ele><time>2022-03-30T14:24:36Z</time><name>PT5998</name></trkpt>
<trkpt lat="54.470187" lon="-3.254690"><ele>82</ele><time>2022-03-30T14:24:40Z</time><name>PT5999</name></trkpt>
<trkpt lat="54.470167" lon="-3.254737"><ele>83</ele><time>2022-03-30T14:24:43Z</time><name>PT6000</name></trkpt>
<trkpt lat="54.470142" lon="-3.254780"><ele>82</ele><time>2022-03-30T14:24:47Z</time><name>PT6001</name></trkpt>
<trkpt lat="54.470130" lon="-3.254822"><ele>86</ele><time>2022-03-30T14:24:50Z</time><name>PT6002</name></trkpt>
<trkpt lat="54.470106" lon="-3.254871"><ele>86</ele><time>2022-03-30T14:24:54Z</time><name>PT6003</name></trkpt>
<trkpt lat="54.470090" lon="-3.254902"><ele>86</ele><time>2022-03-30T14:24:58Z</time><name>PT6004</name></trkpt>
<trkpt lat="54.470075" lon="-3.254923"><ele>86</ele><time>2022-03-30T14:25:01Z</time><name>PT6005</name></trkpt>
<trkpt lat="54.470049" lon="-3.254961"><ele>83</ele><time>2022-03-30T14:25:05Z</time><name>PT6006</name></trkpt>
<trkpt lat="54.470023" lon="-3.255002"><ele>82</ele><time>2022-03-30T14:25:08Z</time><name>PT6007</name></trkpt>
<trkpt lat="54.469981" lon="-3.255061"><ele>82</ele><time>2022-03-30T14:25:12Z</time><name>PT6008</name></trkpt>
<trkpt lat="54.469948" lon="-3.255101"><ele>82</ele><time>2022-03-30T14:25:15Z</time><name>PT6009</name></trkpt>
<trkpt lat="54.469896" lon="-3.255157"><ele>81</ele><time>2022-03-30T14:25:19Z</time><name>PT6010</name></trkpt>
<trkpt lat="54.469849" lon="-3.255193"><ele>82</ele><time>2022-03-30T14:25:23Z</time><name>PT6011</name></trkpt>
<trkpt lat="54.469821" lon="-3.255214"><ele>82</ele><time>2022-03-30T14:25:26Z</time><name>PT6012</name></trkpt>
<trkpt lat="54.469791" lon="-3.255236"><ele>83</ele><time>2022-03-30T14:25:29Z</time><name>PT6013</name></trkpt>
<trkpt lat="54.469761" lon="-3.255258"><ele>83</ele><time>2022-03-30T14:25:32Z</time><name>PT6014</name></trkpt>
<trkpt lat="54.469723" lon="-3.255283"><ele>84</ele><time>2022-03-30T14:25:36Z</time><name>PT6015</name></trkpt>
<trkpt lat="54.469678" lon="-3.255309"><ele>84</ele><time>2022-03-30T14:25:40Z</time><name>PT6016</name></trkpt>
<trkpt lat="54.469644" lon="-3.255323"><ele>83</ele><time>2022-03-30T14:25:43Z</time><name>PT6017</name></trkpt>
<trkpt lat="54.469611" lon="-3.255334"><ele>84</ele><time>2022-03-30T14:25:46Z</time><name>PT6018</name></trkpt>
<trkpt lat="54.469584" lon="-3.255345"><ele>85</ele><time>2022-03-30T14:25:49Z</time><name>PT6019</name></trkpt>
<trkpt lat="54.469552" lon="-3.255352"><ele>83</ele><time>2022-03-30T14:25:52Z</time><name>PT6020</name></trkpt>
<trkpt lat="54.469523" lon="-3.255382"><ele>83</ele><time>2022-03-30T14:25:56Z</time><name>PT6021</name></trkpt>
<trkpt lat="54.469481" lon="-3.255394"><ele>82</ele><time>2022-03-30T14:26:00Z</time><name>PT6022</name></trkpt>
<trkpt lat="54.469462" lon="-3.255411"><ele>81</ele><time>2022-03-30T14:26:03Z</time><name>PT6023</name></trkpt>
<trkpt lat="54.469429" lon="-3.255432"><ele>79</ele><time>2022-03-30T14:26:07Z</time><name>PT6024</name></trkpt>
<trkpt lat="54.469391" lon="-3.255457"><ele>79</ele><time>2022-03-30T14:26:11Z</time><name>PT6025</name></trkpt>
<trkpt lat="54.469360" lon="-3.255466"><ele>79</ele><time>2022-03-30T14:26:14Z</time><name>PT6026</name></trkpt>
<trkpt lat="54.469337" lon="-3.255480"><ele>79</ele><time>2022-03-30T14:26:17Z</time><name>PT6027</name></trkpt>
<trkpt lat="54.469300" lon="-3.255492"><ele>79</ele><time>2022-03-30T14:26:21Z</time><name>PT6028</name></trkpt>
<trkpt lat="54.469274" lon="-3.255505"><ele>80</ele><time>2022-03-30T14:26:24Z</time><name>PT6029</name></trkpt>
<trkpt lat="54.469237" lon="-3.255524"><ele>77</ele><time>2022-03-30T14:26:28Z</time><name>PT6030</name></trkpt>
<trkpt lat="54.469205" lon="-3.255549"><ele>77</ele><time>2022-03-30T14:26:31Z</time><name>PT6031</name></trkpt>
<trkpt lat="54.469162" lon="-3.255589"><ele>78</ele><time>2022-03-30T14:26:35Z</time><name>PT6032</name></trkpt>
<trkpt lat="54.469123" lon="-3.255625"><ele>78</ele><time>2022-03-30T14:26:39Z</time><name>PT6033</name></trkpt>
<trkpt lat="54.469087" lon="-3.255657"><ele>78</ele><time>2022-03-30T14:26:43Z</time><name>PT6034</name></trkpt>
<trkpt lat="54.469059" lon="-3.255691"><ele>79</ele><time>2022-03-30T14:26:46Z</time><name>PT6035</name></trkpt>
<trkpt lat="54.469031" lon="-3.255763"><ele>80</ele><time>2022-03-30T14:26:49Z</time><name>PT6036</name></trkpt>
<trkpt lat="54.468990" lon="-3.255821"><ele>81</ele><time>2022-03-30T14:26:53Z</time><name>PT6037</name></trkpt>
<trkpt lat="54.468969" lon="-3.255872"><ele>81</ele><time>2022-03-30T14:26:56Z</time><name>PT6038</name></trkpt>
<trkpt lat="54.468929" lon="-3.255927"><ele>80</ele><time>2022-03-30T14:27:00Z</time><name>PT6039</name></trkpt>
<trkpt lat="54.468897" lon="-3.255972"><ele>81</ele><time>2022-03-30T14:27:04Z</time><name>PT6040</name></trkpt>
<trkpt lat="54.468878" lon="-3.256016"><ele>82</ele><time>2022-03-30T14:27:07Z</time><name>PT6041</name></trkpt>
<trkpt lat="54.468852" lon="-3.256071"><ele>82</ele><time>2022-03-30T14:27:10Z</time><name>PT6042</name></trkpt>
<trkpt lat="54.468822" lon="-3.256143"><ele>82</ele><time>2022-03-30T14:27:14Z</time><name>PT6043</name></trkpt>
<trkpt lat="54.468794" lon="-3.256189"><ele>83</ele><time>2022-03-30T14:27:18Z</time><name>PT6044</name></trkpt>
<trkpt lat="54.468770" lon="-3.256232"><ele>84</ele><time>2022-03-30T14:27:21Z</time><name>PT6045</name></trkpt>
<trkpt lat="54.468739" lon="-3.256257"><ele>84</ele><time>2022-03-30T14:27:24Z</time><name>PT6046</name></trkpt>
<trkpt lat="54.468714" lon="-3.256283"><ele>83</ele><time>2022-03-30T14:27:27Z</time><name>PT6047</name></trkpt>
<trkpt lat="54.468679" lon="-3.256310"><ele>82</ele><time>2022-03-30T14:27:31Z</time><name>PT6048</name></trkpt>
<trkpt lat="54.468644" lon="-3.256344"><ele>81</ele><time>2022-03-30T14:27:35Z</time><name>PT6049</name></trkpt>
<trkpt lat="54.468597" lon="-3.256368"><ele>80</ele><time>2022-03-30T14:27:39Z</time><name>PT6050</name></trkpt>
<trkpt lat="54.468569" lon="-3.256398"><ele>80</ele><time>2022-03-30T14:27:42Z</time><name>PT6051</name></trkpt>
<trkpt lat="54.468538" lon="-3.256425"><ele>79</ele><time>2022-03-30T14:27:45Z</time><name>PT6052</name></trkpt>
<trkpt lat="54.468505" lon="-3.256450"><ele>79</ele><time>2022-03-30T14:27:49Z</time><name>PT6053</name></trkpt>
<trkpt lat="54.468474" lon="-3.256473"><ele>78</ele><time>2022-03-30T14:27:52Z</time><name>PT6054</name></trkpt>
<trkpt lat="54.468443" lon="-3.256492"><ele>83</ele><time>2022-03-30T14:27:56Z</time><name>PT6055</name></trkpt>
<trkpt lat="54.468419" lon="-3.256494"><ele>83</ele><time>2022-03-30T14:27:59Z</time><name>PT6056</name></trkpt>
<trkpt lat="54.468381" lon="-3.256484"><ele>80</ele><time>2022-03-30T14:28:03Z</time><name>PT6057</name></trkpt>
<trkpt lat="54.468344" lon="-3.256499"><ele>78</ele><time>2022-03-30T14:28:07Z</time><name>PT6058</name></trkpt>
<trkpt lat="54.468311" lon="-3.256508"><ele>77</ele><time>2022-03-30T14:28:10Z</time><name>PT6059</name></trkpt>
<trkpt lat="54.468273" lon="-3.256526"><ele>78</ele><time>2022-03-30T14:28:14Z</time><name>PT6060</name></trkpt>
<trkpt lat="54.468249" lon="-3.256531"><ele>79</ele><time>2022-03-30T14:28:18Z</time><name>PT6061</name></trkpt>
<trkpt lat="54.468246" lon="-3.256534"><ele>78</ele><time>2022-03-30T14:28:22Z</time><name>PT6062</name></trkpt>
<trkpt lat="54.468216" lon="-3.256551"><ele>79</ele><time>2022-03-30T14:28:29Z</time><name>PT6063</name></trkpt>
<trkpt lat="54.468184" lon="-3.256579"><ele>80</ele><time>2022-03-30T14:28:33Z</time><name>PT6064</name></trkpt>
<trkpt lat="54.468162" lon="-3.256592"><ele>80</ele><time>2022-03-30T14:28:36Z</time><name>PT6065</name></trkpt>
<trkpt lat="54.468149" lon="-3.256600"><ele>80</ele><time>2022-03-30T14:28:39Z</time><name>PT6066</name></trkpt>
<trkpt lat="54.468126" lon="-3.256615"><ele>79</ele><time>2022-03-30T14:28:43Z</time><name>PT6067</name></trkpt>
<trkpt lat="54.468114" lon="-3.256627"><ele>78</ele><time>2022-03-30T14:28:47Z</time><name>PT6068</name></trkpt>
<trkpt lat="54.468073" lon="-3.256650"><ele>76</ele><time>2022-03-30T14:28:51Z</time><name>PT6069</name></trkpt>
<trkpt lat="54.468043" lon="-3.256664"><ele>77</ele><time>2022-03-30T14:28:54Z</time><name>PT6070</name></trkpt>
<trkpt lat="54.468002" lon="-3.256696"><ele>76</ele><time>2022-03-30T14:28:58Z</time><name>PT6071</name></trkpt>
<trkpt lat="54.467958" lon="-3.256720"><ele>76</ele><time>2022-03-30T14:29:02Z</time><name>PT6072</name></trkpt>
<trkpt lat="54.467938" lon="-3.256728"><ele>73</ele><time>2022-03-30T14:29:05Z</time><name>PT6073</name></trkpt>
<trkpt lat="54.467899" lon="-3.256763"><ele>74</ele><time>2022-03-30T14:29:09Z</time><name>PT6074</name></trkpt>
<trkpt lat="54.467855" lon="-3.256786"><ele>73</ele><time>2022-03-30T14:29:13Z</time><name>PT6075</name></trkpt>
<trkpt lat="54.467821" lon="-3.256788"><ele>71</ele><time>2022-03-30T14:29:16Z</time><name>PT6076</name></trkpt>
<trkpt lat="54.467787" lon="-3.256774"><ele>70</ele><time>2022-03-30T14:29:20Z</time><name>PT6077</name></trkpt>
<trkpt lat="54.467776" lon="-3.256764"><ele>68</ele><time>2022-03-30T14:29:24Z</time><name>PT6078</name></trkpt>
<trkpt lat="54.467765" lon="-3.256733"><ele>67</ele><time>2022-03-30T14:29:28Z</time><name>PT6079</name></trkpt>
<trkpt lat="54.467723" lon="-3.256734"><ele>66</ele><time>2022-03-30T14:29:32Z</time><name>PT6080</name></trkpt>
<trkpt lat="54.467684" lon="-3.256765"><ele>66</ele><time>2022-03-30T14:29:36Z</time><name>PT6081</name></trkpt>
<trkpt lat="54.467694" lon="-3.256782"><ele>65</ele><time>2022-03-30T14:29:40Z</time><name>PT6082</name></trkpt>
<trkpt lat="54.467671" lon="-3.256800"><ele>62</ele><time>2022-03-30T14:29:44Z</time><name>PT6083</name></trkpt>
<trkpt lat="54.467650" lon="-3.256799"><ele>61</ele><time>2022-03-30T14:29:48Z</time><name>PT6084</name></trkpt>
<trkpt lat="54.467646" lon="-3.256786"><ele>62</ele><time>2022-03-30T14:29:52Z</time><name>PT6085</name></trkpt>
<trkpt lat="54.467637" lon="-3.256788"><ele>62</ele><time>2022-03-30T14:29:54Z</time><name>PT6086</name></trkpt>
<trkpt lat="54.467644" lon="-3.256792"><ele>62</ele><time>2022-03-30T14:29:55Z</time><name>PT6087</name></trkpt>
<trkpt lat="54.467640" lon="-3.256783"><ele>62</ele><time>2022-03-30T14:29:56Z</time><name>PT6088</name></trkpt>
<trkpt lat="54.467639" lon="-3.256780"><ele>61</ele><time>2022-03-30T14:29:57Z</time><name>PT6089</name></trkpt>
<trkpt lat="54.467639" lon="-3.256772"><ele>60</ele><time>2022-03-30T14:29:58Z</time><name>PT6090</name></trkpt>
<trkpt lat="54.467637" lon="-3.256777"><ele>60</ele><time>2022-03-30T14:29:59Z</time><name>PT6091</name></trkpt>
<trkpt lat="54.467624" lon="-3.256779"><ele>61</ele><time>2022-03-30T14:30:01Z</time><name>PT6092</name></trkpt>
<trkpt lat="54.467619" lon="-3.256792"><ele>61</ele><time>2022-03-30T14:30:02Z</time><name>PT6093</name></trkpt>
<trkpt lat="54.467617" lon="-3.256797"><ele>61</ele><time>2022-03-30T14:30:03Z</time><name>PT6094</name></trkpt>
<trkpt lat="54.467621" lon="-3.256792"><ele>61</ele><time>2022-03-30T14:30:04Z</time><name>PT6095</name></trkpt>
<trkpt lat="54.467628" lon="-3.256814"><ele>62</ele><time>2022-03-30T14:30:05Z</time><name>PT6096</name></trkpt>
<trkpt lat="54.467625" lon="-3.256810"><ele>62</ele><time>2022-03-30T14:30:06Z</time><name>PT6097</name></trkpt>
<trkpt lat="54.467628" lon="-3.256809"><ele>62</ele><time>2022-03-30T14:30:07Z</time><name>PT6098</name></trkpt>
<trkpt lat="54.467631" lon="-3.256804"><ele>61</ele><time>2022-03-30T14:30:08Z</time><name>PT6099</name></trkpt>
<trkpt lat="54.467634" lon="-3.256803"><ele>61</ele><time>2022-03-30T14:30:09Z</time><name>PT6100</name></trkpt>
<trkpt lat="54.467631" lon="-3.256801"><ele>61</ele><time>2022-03-30T14:30:10Z</time><name>PT6101</name></trkpt>
<trkpt lat="54.467631" lon="-3.256800"><ele>62</ele><time>2022-03-30T14:30:11Z</time><name>PT6102</name></trkpt>
<trkpt lat="54.467630" lon="-3.256800"><ele>62</ele><time>2022-03-30T14:30:12Z</time><name>PT6103</name></trkpt>
<trkpt lat="54.467627" lon="-3.256797"><ele>62</ele><time>2022-03-30T14:30:20Z</time><name>PT6104</name></trkpt>
<trkpt lat="54.467626" lon="-3.256799"><ele>62</ele><time>2022-03-30T14:30:21Z</time><name>PT6105</name></trkpt>
<trkpt lat="54.467621" lon="-3.256798"><ele>63</ele><time>2022-03-30T14:30:41Z</time><name>PT6106</name></trkpt>
<trkpt lat="54.467620" lon="-3.256790"><ele>62</ele><time>2022-03-30T14:30:42Z</time><name>PT6107</name></trkpt>
<trkpt lat="54.467623" lon="-3.256809"><ele>62</ele><time>2022-03-30T14:30:54Z</time><name>PT6108</name></trkpt>
<trkpt lat="54.467628" lon="-3.256819"><ele>62</ele><time>2022-03-30T14:30:55Z</time><name>PT6109</name></trkpt>
<trkpt lat="54.467626" lon="-3.256818"><ele>62</ele><time>2022-03-30T14:30:56Z</time><name>PT6110</name></trkpt>
<trkpt lat="54.467625" lon="-3.256814"><ele>62</ele><time>2022-03-30T14:30:57Z</time><name>PT6111</name></trkpt>
<trkpt lat="54.467625" lon="-3.256817"><ele>62</ele><time>2022-03-30T14:30:58Z</time><name>PT6112</name></trkpt>
<trkpt lat="54.467625" lon="-3.256817"><ele>62</ele><time>2022-03-30T14:30:59Z</time><name>PT6113</name></trkpt>
<trkpt lat="54.467617" lon="-3.256825"><ele>63</ele><time>2022-03-30T14:31:05Z</time><name>PT6114</name></trkpt>
<trkpt lat="54.467614" lon="-3.256833"><ele>63</ele><time>2022-03-30T14:31:06Z</time><name>PT6115</name></trkpt>
<trkpt lat="54.467616" lon="-3.256834"><ele>63</ele><time>2022-03-30T14:31:08Z</time><name>PT6116</name></trkpt>
<trkpt lat="54.467614" lon="-3.256837"><ele>63</ele><time>2022-03-30T14:31:08Z</time><name>PT6117</name></trkpt>
<trkpt lat="54.467613" lon="-3.256842"><ele>64</ele><time>2022-03-30T14:31:33Z</time><name>PT6118</name></trkpt>
<trkpt lat="54.467617" lon="-3.256862"><ele>65</ele><time>2022-03-30T14:31:34Z</time><name>PT6119</name></trkpt>
<trkpt lat="54.467616" lon="-3.256866"><ele>65</ele><time>2022-03-30T14:31:35Z</time><name>PT6120</name></trkpt></trkseg></trk></gpx>